<?xml version="1.0" encoding="UTF-8" standalone="no" ?>
<gpx xmlns="http://www.topografix.com/GPX/1/1" xmlns:xsi="http://www.w3.org/2001/XMLSchema-instance" xsi:schemaLocation="http://www.topografix.com/GPX/1/1 http://www.topografix.com/GPX/1/1/gpx.xsd" version="1.1" creator="VisuGPX - https://www.visugpx.com">
  <metadata>
    <name>GRAN OLLA ARAN TOP</name>
    <desc><![CDATA[GRAN OLLA ARAN TOP-------------]]></desc>
  </metadata>
  <trk>
    <name><![CDATA[GranOllaAranesaTop]]></name>
    <trkseg>
      <trkpt lat="42.70176" lon="0.79559">
        <ele>990.2</ele>
        <time>2018-11-23T23:01:35Z</time>
      </trkpt>
      <trkpt lat="42.70202" lon="0.7958">
        <ele>986.6</ele>
        <time>2018-11-23T23:01:47Z</time>
      </trkpt>
      <trkpt lat="42.70214" lon="0.79591">
        <ele>984.8</ele>
        <time>2018-11-23T23:01:52Z</time>
      </trkpt>
      <trkpt lat="42.70221" lon="0.79602">
        <ele>984</ele>
        <time>2018-11-23T23:01:57Z</time>
      </trkpt>
      <trkpt lat="42.70219" lon="0.79608">
        <ele>984.1</ele>
        <time>2018-11-23T23:01:59Z</time>
      </trkpt>
      <trkpt lat="42.70227" lon="0.79625">
        <ele>983</ele>
        <time>2018-11-23T23:02:05Z</time>
      </trkpt>
      <trkpt lat="42.70227" lon="0.79625">
        <ele>983</ele>
        <time>2018-11-23T23:02:05Z</time>
      </trkpt>
      <trkpt lat="42.70237" lon="0.7964">
        <ele>981.8</ele>
        <time>2018-11-23T23:02:10Z</time>
      </trkpt>
      <trkpt lat="42.70244" lon="0.79662">
        <ele>980.5</ele>
        <time>2018-11-23T23:02:18Z</time>
      </trkpt>
      <trkpt lat="42.70232" lon="0.79679">
        <ele>981</ele>
        <time>2018-11-23T23:02:25Z</time>
      </trkpt>
      <trkpt lat="42.70233" lon="0.79692">
        <ele>980.9</ele>
        <time>2018-11-23T23:02:28Z</time>
      </trkpt>
      <trkpt lat="42.70247" lon="0.79711">
        <ele>979.8</ele>
        <time>2018-11-23T23:02:36Z</time>
      </trkpt>
      <trkpt lat="42.70248" lon="0.79711">
        <ele>979.7</ele>
        <time>2018-11-23T23:02:36Z</time>
      </trkpt>
      <trkpt lat="42.70264" lon="0.79732">
        <ele>978.8</ele>
        <time>2018-11-23T23:02:46Z</time>
      </trkpt>
      <trkpt lat="42.70263" lon="0.79744">
        <ele>978.9</ele>
        <time>2018-11-23T23:02:49Z</time>
      </trkpt>
      <trkpt lat="42.70262" lon="0.79759">
        <ele>978.8</ele>
        <time>2018-11-23T23:02:53Z</time>
      </trkpt>
      <trkpt lat="42.70263" lon="0.79771">
        <ele>978.3</ele>
        <time>2018-11-23T23:02:57Z</time>
      </trkpt>
      <trkpt lat="42.7027" lon="0.79789">
        <ele>977.7</ele>
        <time>2018-11-23T23:03:03Z</time>
      </trkpt>
      <trkpt lat="42.70274" lon="0.79805">
        <ele>977.4</ele>
        <time>2018-11-23T23:03:08Z</time>
      </trkpt>
      <trkpt lat="42.70282" lon="0.79829">
        <ele>977.1</ele>
        <time>2018-11-23T23:03:16Z</time>
      </trkpt>
      <trkpt lat="42.70283" lon="0.79829">
        <ele>977.2</ele>
        <time>2018-11-23T23:03:16Z</time>
      </trkpt>
      <trkpt lat="42.70281" lon="0.79834">
        <ele>980.1</ele>
        <time>2018-11-23T23:03:17Z</time>
      </trkpt>
      <trkpt lat="42.70273" lon="0.7984">
        <ele>981</ele>
        <time>2018-11-23T23:03:21Z</time>
      </trkpt>
      <trkpt lat="42.70264" lon="0.79845">
        <ele>981</ele>
        <time>2018-11-23T23:03:25Z</time>
      </trkpt>
      <trkpt lat="42.70259" lon="0.79857">
        <ele>981.1</ele>
        <time>2018-11-23T23:03:29Z</time>
      </trkpt>
      <trkpt lat="42.7025" lon="0.79864">
        <ele>982.1</ele>
        <time>2018-11-23T23:03:33Z</time>
      </trkpt>
      <trkpt lat="42.70243" lon="0.79873">
        <ele>982.1</ele>
        <time>2018-11-23T23:03:37Z</time>
      </trkpt>
      <trkpt lat="42.70236" lon="0.7988">
        <ele>982.1</ele>
        <time>2018-11-23T23:03:41Z</time>
      </trkpt>
      <trkpt lat="42.70229" lon="0.79888">
        <ele>982.1</ele>
        <time>2018-11-23T23:03:44Z</time>
      </trkpt>
      <trkpt lat="42.70223" lon="0.79899">
        <ele>983</ele>
        <time>2018-11-23T23:03:48Z</time>
      </trkpt>
      <trkpt lat="42.70217" lon="0.79909">
        <ele>983</ele>
        <time>2018-11-23T23:03:52Z</time>
      </trkpt>
      <trkpt lat="42.7021" lon="0.79917">
        <ele>983</ele>
        <time>2018-11-23T23:03:56Z</time>
      </trkpt>
      <trkpt lat="42.70204" lon="0.7993">
        <ele>983</ele>
        <time>2018-11-23T23:04:00Z</time>
      </trkpt>
      <trkpt lat="42.70199" lon="0.79941">
        <ele>983.1</ele>
        <time>2018-11-23T23:04:04Z</time>
      </trkpt>
      <trkpt lat="42.70192" lon="0.79949">
        <ele>983.1</ele>
        <time>2018-11-23T23:04:08Z</time>
      </trkpt>
      <trkpt lat="42.70185" lon="0.79956">
        <ele>984.1</ele>
        <time>2018-11-23T23:04:11Z</time>
      </trkpt>
      <trkpt lat="42.7018" lon="0.79968">
        <ele>984</ele>
        <time>2018-11-23T23:04:15Z</time>
      </trkpt>
      <trkpt lat="42.70175" lon="0.7998">
        <ele>984.1</ele>
        <time>2018-11-23T23:04:19Z</time>
      </trkpt>
      <trkpt lat="42.70169" lon="0.7999">
        <ele>984.1</ele>
        <time>2018-11-23T23:04:23Z</time>
      </trkpt>
      <trkpt lat="42.70163" lon="0.8">
        <ele>984.1</ele>
        <time>2018-11-23T23:04:27Z</time>
      </trkpt>
      <trkpt lat="42.70157" lon="0.8001">
        <ele>984.1</ele>
        <time>2018-11-23T23:04:31Z</time>
      </trkpt>
      <trkpt lat="42.70153" lon="0.80021">
        <ele>984</ele>
        <time>2018-11-23T23:04:34Z</time>
      </trkpt>
      <trkpt lat="42.70149" lon="0.80034">
        <ele>985</ele>
        <time>2018-11-23T23:04:38Z</time>
      </trkpt>
      <trkpt lat="42.70146" lon="0.80048">
        <ele>985</ele>
        <time>2018-11-23T23:04:43Z</time>
      </trkpt>
      <trkpt lat="42.7014" lon="0.80058">
        <ele>985</ele>
        <time>2018-11-23T23:04:46Z</time>
      </trkpt>
      <trkpt lat="42.70135" lon="0.80069">
        <ele>985.1</ele>
        <time>2018-11-23T23:04:50Z</time>
      </trkpt>
      <trkpt lat="42.7013" lon="0.80081">
        <ele>985.1</ele>
        <time>2018-11-23T23:04:54Z</time>
      </trkpt>
      <trkpt lat="42.70124" lon="0.80092">
        <ele>986.1</ele>
        <time>2018-11-23T23:04:58Z</time>
      </trkpt>
      <trkpt lat="42.70121" lon="0.80104">
        <ele>986</ele>
        <time>2018-11-23T23:05:02Z</time>
      </trkpt>
      <trkpt lat="42.70116" lon="0.80115">
        <ele>986.1</ele>
        <time>2018-11-23T23:05:06Z</time>
      </trkpt>
      <trkpt lat="42.7011" lon="0.80127">
        <ele>986</ele>
        <time>2018-11-23T23:05:10Z</time>
      </trkpt>
      <trkpt lat="42.70106" lon="0.80138">
        <ele>987.1</ele>
        <time>2018-11-23T23:05:14Z</time>
      </trkpt>
      <trkpt lat="42.701" lon="0.80149">
        <ele>987</ele>
        <time>2018-11-23T23:05:18Z</time>
      </trkpt>
      <trkpt lat="42.701" lon="0.80161">
        <ele>987.1</ele>
        <time>2018-11-23T23:05:21Z</time>
      </trkpt>
      <trkpt lat="42.70097" lon="0.80173">
        <ele>987</ele>
        <time>2018-11-23T23:05:25Z</time>
      </trkpt>
      <trkpt lat="42.70093" lon="0.80184">
        <ele>988</ele>
        <time>2018-11-23T23:05:29Z</time>
      </trkpt>
      <trkpt lat="42.70088" lon="0.80197">
        <ele>988</ele>
        <time>2018-11-23T23:05:33Z</time>
      </trkpt>
      <trkpt lat="42.70085" lon="0.8021">
        <ele>988.1</ele>
        <time>2018-11-23T23:05:37Z</time>
      </trkpt>
      <trkpt lat="42.70082" lon="0.80221">
        <ele>989.1</ele>
        <time>2018-11-23T23:05:40Z</time>
      </trkpt>
      <trkpt lat="42.70078" lon="0.80233">
        <ele>989.1</ele>
        <time>2018-11-23T23:05:44Z</time>
      </trkpt>
      <trkpt lat="42.70074" lon="0.80246">
        <ele>990.1</ele>
        <time>2018-11-23T23:05:48Z</time>
      </trkpt>
      <trkpt lat="42.70072" lon="0.80257">
        <ele>991.1</ele>
        <time>2018-11-23T23:05:52Z</time>
      </trkpt>
      <trkpt lat="42.7007" lon="0.8027">
        <ele>991</ele>
        <time>2018-11-23T23:05:56Z</time>
      </trkpt>
      <trkpt lat="42.70068" lon="0.80283">
        <ele>991.1</ele>
        <time>2018-11-23T23:06:00Z</time>
      </trkpt>
      <trkpt lat="42.70066" lon="0.80296">
        <ele>991.1</ele>
        <time>2018-11-23T23:06:04Z</time>
      </trkpt>
      <trkpt lat="42.70057" lon="0.80301">
        <ele>991</ele>
        <time>2018-11-23T23:06:07Z</time>
      </trkpt>
      <trkpt lat="42.70057" lon="0.80304">
        <ele>988</ele>
        <time>2018-11-23T23:06:08Z</time>
      </trkpt>
      <trkpt lat="42.70057" lon="0.80304">
        <ele>988</ele>
        <time>2018-11-23T23:06:08Z</time>
      </trkpt>
      <trkpt lat="42.70058" lon="0.80311">
        <ele>988.3</ele>
        <time>2018-11-23T23:06:10Z</time>
      </trkpt>
      <trkpt lat="42.70058" lon="0.80326">
        <ele>988.4</ele>
        <time>2018-11-23T23:06:15Z</time>
      </trkpt>
      <trkpt lat="42.7006" lon="0.80344">
        <ele>988.4</ele>
        <time>2018-11-23T23:06:20Z</time>
      </trkpt>
      <trkpt lat="42.70065" lon="0.80358">
        <ele>988.7</ele>
        <time>2018-11-23T23:06:25Z</time>
      </trkpt>
      <trkpt lat="42.7007" lon="0.80366">
        <ele>989.1</ele>
        <time>2018-11-23T23:06:28Z</time>
      </trkpt>
      <trkpt lat="42.70076" lon="0.80368">
        <ele>989.5</ele>
        <time>2018-11-23T23:06:31Z</time>
      </trkpt>
      <trkpt lat="42.70077" lon="0.80407">
        <ele>991.2</ele>
        <time>2018-11-23T23:06:42Z</time>
      </trkpt>
      <trkpt lat="42.70074" lon="0.8043">
        <ele>992.4</ele>
        <time>2018-11-23T23:06:49Z</time>
      </trkpt>
      <trkpt lat="42.70069" lon="0.80442">
        <ele>992.3</ele>
        <time>2018-11-23T23:06:53Z</time>
      </trkpt>
      <trkpt lat="42.70064" lon="0.80467">
        <ele>992.6</ele>
        <time>2018-11-23T23:07:01Z</time>
      </trkpt>
      <trkpt lat="42.70057" lon="0.80476">
        <ele>992.6</ele>
        <time>2018-11-23T23:07:04Z</time>
      </trkpt>
      <trkpt lat="42.70048" lon="0.80491">
        <ele>992.8</ele>
        <time>2018-11-23T23:07:10Z</time>
      </trkpt>
      <trkpt lat="42.70034" lon="0.80515">
        <ele>993.1</ele>
        <time>2018-11-23T23:07:19Z</time>
      </trkpt>
      <trkpt lat="42.70034" lon="0.80515">
        <ele>993.2</ele>
        <time>2018-11-23T23:07:19Z</time>
      </trkpt>
      <trkpt lat="42.70019" lon="0.80549">
        <ele>993.2</ele>
        <time>2018-11-23T23:07:31Z</time>
      </trkpt>
      <trkpt lat="42.70017" lon="0.8055">
        <ele>993.2</ele>
        <time>2018-11-23T23:07:32Z</time>
      </trkpt>
      <trkpt lat="42.70015" lon="0.80552">
        <ele>993</ele>
        <time>2018-11-23T23:07:32Z</time>
      </trkpt>
      <trkpt lat="42.70006" lon="0.80572">
        <ele>993.3</ele>
        <time>2018-11-23T23:07:39Z</time>
      </trkpt>
      <trkpt lat="42.70005" lon="0.80572">
        <ele>993.3</ele>
        <time>2018-11-23T23:07:40Z</time>
      </trkpt>
      <trkpt lat="42.69991" lon="0.80599">
        <ele>993.3</ele>
        <time>2018-11-23T23:07:50Z</time>
      </trkpt>
      <trkpt lat="42.69977" lon="0.80618">
        <ele>993.2</ele>
        <time>2018-11-23T23:07:57Z</time>
      </trkpt>
      <trkpt lat="42.69973" lon="0.80633">
        <ele>993.4</ele>
        <time>2018-11-23T23:08:02Z</time>
      </trkpt>
      <trkpt lat="42.69967" lon="0.80651">
        <ele>993.6</ele>
        <time>2018-11-23T23:08:08Z</time>
      </trkpt>
      <trkpt lat="42.69966" lon="0.80652">
        <ele>993.6</ele>
        <time>2018-11-23T23:08:08Z</time>
      </trkpt>
      <trkpt lat="42.69959" lon="0.80674">
        <ele>994.1</ele>
        <time>2018-11-23T23:08:15Z</time>
      </trkpt>
      <trkpt lat="42.69951" lon="0.80686">
        <ele>994.7</ele>
        <time>2018-11-23T23:08:20Z</time>
      </trkpt>
      <trkpt lat="42.69939" lon="0.80705">
        <ele>995.6</ele>
        <time>2018-11-23T23:08:28Z</time>
      </trkpt>
      <trkpt lat="42.6993" lon="0.80715">
        <ele>996.1</ele>
        <time>2018-11-23T23:08:32Z</time>
      </trkpt>
      <trkpt lat="42.69916" lon="0.80723">
        <ele>996.1</ele>
        <time>2018-11-23T23:08:38Z</time>
      </trkpt>
      <trkpt lat="42.69907" lon="0.80731">
        <ele>996</ele>
        <time>2018-11-23T23:08:42Z</time>
      </trkpt>
      <trkpt lat="42.69906" lon="0.80731">
        <ele>996</ele>
        <time>2018-11-23T23:08:43Z</time>
      </trkpt>
      <trkpt lat="42.69898" lon="0.80743">
        <ele>996</ele>
        <time>2018-11-23T23:08:47Z</time>
      </trkpt>
      <trkpt lat="42.69887" lon="0.80765">
        <ele>996</ele>
        <time>2018-11-23T23:08:55Z</time>
      </trkpt>
      <trkpt lat="42.69874" lon="0.80792">
        <ele>996.3</ele>
        <time>2018-11-23T23:09:05Z</time>
      </trkpt>
      <trkpt lat="42.69874" lon="0.80791">
        <ele>996.2</ele>
        <time>2018-11-23T23:09:05Z</time>
      </trkpt>
      <trkpt lat="42.69858" lon="0.8083">
        <ele>997.7</ele>
        <time>2018-11-23T23:09:18Z</time>
      </trkpt>
      <trkpt lat="42.69845" lon="0.80858">
        <ele>998.9</ele>
        <time>2018-11-23T23:09:28Z</time>
      </trkpt>
      <trkpt lat="42.69836" lon="0.80876">
        <ele>999.4</ele>
        <time>2018-11-23T23:09:34Z</time>
      </trkpt>
      <trkpt lat="42.69832" lon="0.8089">
        <ele>999.8</ele>
        <time>2018-11-23T23:09:39Z</time>
      </trkpt>
      <trkpt lat="42.69832" lon="0.80892">
        <ele>999.7</ele>
        <time>2018-11-23T23:09:39Z</time>
      </trkpt>
      <trkpt lat="42.69826" lon="0.80895">
        <ele>1000.2</ele>
        <time>2018-11-23T23:09:41Z</time>
      </trkpt>
      <trkpt lat="42.69826" lon="0.80895">
        <ele>1000.1</ele>
        <time>2018-11-23T23:09:41Z</time>
      </trkpt>
      <trkpt lat="42.69827" lon="0.80906">
        <ele>993</ele>
        <time>2018-11-23T23:09:45Z</time>
      </trkpt>
      <trkpt lat="42.69831" lon="0.80918">
        <ele>992.1</ele>
        <time>2018-11-23T23:09:48Z</time>
      </trkpt>
      <trkpt lat="42.69828" lon="0.80932">
        <ele>993.1</ele>
        <time>2018-11-23T23:09:53Z</time>
      </trkpt>
      <trkpt lat="42.69829" lon="0.80945">
        <ele>994</ele>
        <time>2018-11-23T23:09:56Z</time>
      </trkpt>
      <trkpt lat="42.69829" lon="0.80958">
        <ele>997</ele>
        <time>2018-11-23T23:10:00Z</time>
      </trkpt>
      <trkpt lat="42.69829" lon="0.80972">
        <ele>999</ele>
        <time>2018-11-23T23:10:04Z</time>
      </trkpt>
      <trkpt lat="42.69826" lon="0.80985">
        <ele>999</ele>
        <time>2018-11-23T23:10:08Z</time>
      </trkpt>
      <trkpt lat="42.69822" lon="0.80998">
        <ele>1000</ele>
        <time>2018-11-23T23:10:13Z</time>
      </trkpt>
      <trkpt lat="42.6982" lon="0.81012">
        <ele>1001</ele>
        <time>2018-11-23T23:10:17Z</time>
      </trkpt>
      <trkpt lat="42.69819" lon="0.81027">
        <ele>1002.1</ele>
        <time>2018-11-23T23:10:21Z</time>
      </trkpt>
      <trkpt lat="42.69817" lon="0.8104">
        <ele>1002.1</ele>
        <time>2018-11-23T23:10:25Z</time>
      </trkpt>
      <trkpt lat="42.69814" lon="0.81053">
        <ele>1001.1</ele>
        <time>2018-11-23T23:10:29Z</time>
      </trkpt>
      <trkpt lat="42.69813" lon="0.81067">
        <ele>1001.1</ele>
        <time>2018-11-23T23:10:33Z</time>
      </trkpt>
      <trkpt lat="42.6981" lon="0.81079">
        <ele>1001</ele>
        <time>2018-11-23T23:10:37Z</time>
      </trkpt>
      <trkpt lat="42.69807" lon="0.81091">
        <ele>1001.1</ele>
        <time>2018-11-23T23:10:41Z</time>
      </trkpt>
      <trkpt lat="42.69805" lon="0.81105">
        <ele>1000</ele>
        <time>2018-11-23T23:10:45Z</time>
      </trkpt>
      <trkpt lat="42.69802" lon="0.81118">
        <ele>1001</ele>
        <time>2018-11-23T23:10:49Z</time>
      </trkpt>
      <trkpt lat="42.69801" lon="0.81134">
        <ele>1001</ele>
        <time>2018-11-23T23:10:54Z</time>
      </trkpt>
      <trkpt lat="42.69802" lon="0.81149">
        <ele>1002.1</ele>
        <time>2018-11-23T23:10:58Z</time>
      </trkpt>
      <trkpt lat="42.69804" lon="0.81162">
        <ele>1002.1</ele>
        <time>2018-11-23T23:11:02Z</time>
      </trkpt>
      <trkpt lat="42.69805" lon="0.81175">
        <ele>1002.1</ele>
        <time>2018-11-23T23:11:06Z</time>
      </trkpt>
      <trkpt lat="42.69806" lon="0.81189">
        <ele>1003.1</ele>
        <time>2018-11-23T23:11:10Z</time>
      </trkpt>
      <trkpt lat="42.69806" lon="0.81204">
        <ele>1003</ele>
        <time>2018-11-23T23:11:14Z</time>
      </trkpt>
      <trkpt lat="42.69807" lon="0.81217">
        <ele>1004</ele>
        <time>2018-11-23T23:11:18Z</time>
      </trkpt>
      <trkpt lat="42.69807" lon="0.8123">
        <ele>1004.1</ele>
        <time>2018-11-23T23:11:22Z</time>
      </trkpt>
      <trkpt lat="42.69807" lon="0.81243">
        <ele>1004</ele>
        <time>2018-11-23T23:11:26Z</time>
      </trkpt>
      <trkpt lat="42.69807" lon="0.81255">
        <ele>1003</ele>
        <time>2018-11-23T23:11:29Z</time>
      </trkpt>
      <trkpt lat="42.69805" lon="0.81268">
        <ele>1002</ele>
        <time>2018-11-23T23:11:33Z</time>
      </trkpt>
      <trkpt lat="42.69805" lon="0.81282">
        <ele>1002</ele>
        <time>2018-11-23T23:11:37Z</time>
      </trkpt>
      <trkpt lat="42.69808" lon="0.81295">
        <ele>1002</ele>
        <time>2018-11-23T23:11:41Z</time>
      </trkpt>
      <trkpt lat="42.6981" lon="0.81308">
        <ele>1002.1</ele>
        <time>2018-11-23T23:11:45Z</time>
      </trkpt>
      <trkpt lat="42.69812" lon="0.8132">
        <ele>1002</ele>
        <time>2018-11-23T23:11:49Z</time>
      </trkpt>
      <trkpt lat="42.69815" lon="0.81332">
        <ele>1002</ele>
        <time>2018-11-23T23:11:53Z</time>
      </trkpt>
      <trkpt lat="42.69819" lon="0.81344">
        <ele>1002.1</ele>
        <time>2018-11-23T23:11:56Z</time>
      </trkpt>
      <trkpt lat="42.69821" lon="0.81356">
        <ele>1002</ele>
        <time>2018-11-23T23:12:00Z</time>
      </trkpt>
      <trkpt lat="42.69822" lon="0.8137">
        <ele>1003</ele>
        <time>2018-11-23T23:12:04Z</time>
      </trkpt>
      <trkpt lat="42.69821" lon="0.81383">
        <ele>1004.1</ele>
        <time>2018-11-23T23:12:08Z</time>
      </trkpt>
      <trkpt lat="42.69821" lon="0.81397">
        <ele>1003</ele>
        <time>2018-11-23T23:12:12Z</time>
      </trkpt>
      <trkpt lat="42.6982" lon="0.8141">
        <ele>1004</ele>
        <time>2018-11-23T23:12:16Z</time>
      </trkpt>
      <trkpt lat="42.6982" lon="0.81423">
        <ele>1003.1</ele>
        <time>2018-11-23T23:12:20Z</time>
      </trkpt>
      <trkpt lat="42.69823" lon="0.81435">
        <ele>1004</ele>
        <time>2018-11-23T23:12:24Z</time>
      </trkpt>
      <trkpt lat="42.69826" lon="0.81447">
        <ele>1005</ele>
        <time>2018-11-23T23:12:27Z</time>
      </trkpt>
      <trkpt lat="42.69827" lon="0.81462">
        <ele>1006</ele>
        <time>2018-11-23T23:12:32Z</time>
      </trkpt>
      <trkpt lat="42.69826" lon="0.81476">
        <ele>1007.1</ele>
        <time>2018-11-23T23:12:36Z</time>
      </trkpt>
      <trkpt lat="42.69828" lon="0.81488">
        <ele>1007.1</ele>
        <time>2018-11-23T23:12:40Z</time>
      </trkpt>
      <trkpt lat="42.69831" lon="0.81502">
        <ele>1006</ele>
        <time>2018-11-23T23:12:44Z</time>
      </trkpt>
      <trkpt lat="42.69835" lon="0.81512">
        <ele>1008.1</ele>
        <time>2018-11-23T23:12:47Z</time>
      </trkpt>
      <trkpt lat="42.69836" lon="0.81526">
        <ele>1007.1</ele>
        <time>2018-11-23T23:12:51Z</time>
      </trkpt>
      <trkpt lat="42.69836" lon="0.81538">
        <ele>1006</ele>
        <time>2018-11-23T23:12:55Z</time>
      </trkpt>
      <trkpt lat="42.69834" lon="0.81553">
        <ele>1006</ele>
        <time>2018-11-23T23:12:59Z</time>
      </trkpt>
      <trkpt lat="42.69836" lon="0.81567">
        <ele>1005.1</ele>
        <time>2018-11-23T23:13:04Z</time>
      </trkpt>
      <trkpt lat="42.69833" lon="0.81581">
        <ele>1004</ele>
        <time>2018-11-23T23:13:08Z</time>
      </trkpt>
      <trkpt lat="42.69835" lon="0.81594">
        <ele>1004</ele>
        <time>2018-11-23T23:13:12Z</time>
      </trkpt>
      <trkpt lat="42.69837" lon="0.81608">
        <ele>1004</ele>
        <time>2018-11-23T23:13:16Z</time>
      </trkpt>
      <trkpt lat="42.69837" lon="0.8162">
        <ele>1003</ele>
        <time>2018-11-23T23:13:20Z</time>
      </trkpt>
      <trkpt lat="42.69838" lon="0.81633">
        <ele>1003.1</ele>
        <time>2018-11-23T23:13:23Z</time>
      </trkpt>
      <trkpt lat="42.6984" lon="0.81646">
        <ele>1002.1</ele>
        <time>2018-11-23T23:13:27Z</time>
      </trkpt>
      <trkpt lat="42.69841" lon="0.81658">
        <ele>1002.1</ele>
        <time>2018-11-23T23:13:31Z</time>
      </trkpt>
      <trkpt lat="42.69844" lon="0.8167">
        <ele>1002</ele>
        <time>2018-11-23T23:13:34Z</time>
      </trkpt>
      <trkpt lat="42.69849" lon="0.81683">
        <ele>1002</ele>
        <time>2018-11-23T23:13:39Z</time>
      </trkpt>
      <trkpt lat="42.69853" lon="0.81694">
        <ele>1002</ele>
        <time>2018-11-23T23:13:42Z</time>
      </trkpt>
      <trkpt lat="42.69859" lon="0.81703">
        <ele>1004</ele>
        <time>2018-11-23T23:13:46Z</time>
      </trkpt>
      <trkpt lat="42.69867" lon="0.81709">
        <ele>1005</ele>
        <time>2018-11-23T23:13:50Z</time>
      </trkpt>
      <trkpt lat="42.69875" lon="0.81717">
        <ele>1005.1</ele>
        <time>2018-11-23T23:13:54Z</time>
      </trkpt>
      <trkpt lat="42.69882" lon="0.81727">
        <ele>1003</ele>
        <time>2018-11-23T23:13:58Z</time>
      </trkpt>
      <trkpt lat="42.69887" lon="0.81741">
        <ele>1004</ele>
        <time>2018-11-23T23:14:02Z</time>
      </trkpt>
      <trkpt lat="42.69892" lon="0.81752">
        <ele>1004</ele>
        <time>2018-11-23T23:14:06Z</time>
      </trkpt>
      <trkpt lat="42.69894" lon="0.81768">
        <ele>1005</ele>
        <time>2018-11-23T23:14:11Z</time>
      </trkpt>
      <trkpt lat="42.69895" lon="0.81781">
        <ele>1005.1</ele>
        <time>2018-11-23T23:14:15Z</time>
      </trkpt>
      <trkpt lat="42.699" lon="0.81794">
        <ele>1005</ele>
        <time>2018-11-23T23:14:19Z</time>
      </trkpt>
      <trkpt lat="42.69903" lon="0.81807">
        <ele>1005</ele>
        <time>2018-11-23T23:14:23Z</time>
      </trkpt>
      <trkpt lat="42.69905" lon="0.81819">
        <ele>1005.1</ele>
        <time>2018-11-23T23:14:27Z</time>
      </trkpt>
      <trkpt lat="42.69906" lon="0.81833">
        <ele>1006</ele>
        <time>2018-11-23T23:14:31Z</time>
      </trkpt>
      <trkpt lat="42.69909" lon="0.81845">
        <ele>1006</ele>
        <time>2018-11-23T23:14:35Z</time>
      </trkpt>
      <trkpt lat="42.6991" lon="0.81858">
        <ele>1007</ele>
        <time>2018-11-23T23:14:38Z</time>
      </trkpt>
      <trkpt lat="42.69911" lon="0.81871">
        <ele>1008</ele>
        <time>2018-11-23T23:14:42Z</time>
      </trkpt>
      <trkpt lat="42.69911" lon="0.81886">
        <ele>1009</ele>
        <time>2018-11-23T23:14:47Z</time>
      </trkpt>
      <trkpt lat="42.69914" lon="0.81899">
        <ele>1009</ele>
        <time>2018-11-23T23:14:50Z</time>
      </trkpt>
      <trkpt lat="42.69916" lon="0.81911">
        <ele>1011</ele>
        <time>2018-11-23T23:14:54Z</time>
      </trkpt>
      <trkpt lat="42.69916" lon="0.81927">
        <ele>1011.1</ele>
        <time>2018-11-23T23:14:59Z</time>
      </trkpt>
      <trkpt lat="42.69918" lon="0.81943">
        <ele>1013</ele>
        <time>2018-11-23T23:15:04Z</time>
      </trkpt>
      <trkpt lat="42.69921" lon="0.81956">
        <ele>1013</ele>
        <time>2018-11-23T23:15:08Z</time>
      </trkpt>
      <trkpt lat="42.69919" lon="0.81969">
        <ele>1015.1</ele>
        <time>2018-11-23T23:15:12Z</time>
      </trkpt>
      <trkpt lat="42.69911" lon="0.81978">
        <ele>1016</ele>
        <time>2018-11-23T23:15:16Z</time>
      </trkpt>
      <trkpt lat="42.69906" lon="0.8199">
        <ele>1017</ele>
        <time>2018-11-23T23:15:20Z</time>
      </trkpt>
      <trkpt lat="42.6991" lon="0.82003">
        <ele>1019</ele>
        <time>2018-11-23T23:15:24Z</time>
      </trkpt>
      <trkpt lat="42.69909" lon="0.82017">
        <ele>1020</ele>
        <time>2018-11-23T23:15:28Z</time>
      </trkpt>
      <trkpt lat="42.69908" lon="0.8203">
        <ele>1022.1</ele>
        <time>2018-11-23T23:15:32Z</time>
      </trkpt>
      <trkpt lat="42.69904" lon="0.82043">
        <ele>1023</ele>
        <time>2018-11-23T23:15:36Z</time>
      </trkpt>
      <trkpt lat="42.69902" lon="0.82055">
        <ele>1024</ele>
        <time>2018-11-23T23:15:39Z</time>
      </trkpt>
      <trkpt lat="42.69903" lon="0.82068">
        <ele>1025.1</ele>
        <time>2018-11-23T23:15:43Z</time>
      </trkpt>
      <trkpt lat="42.69909" lon="0.8208">
        <ele>1027.1</ele>
        <time>2018-11-23T23:15:47Z</time>
      </trkpt>
      <trkpt lat="42.69912" lon="0.82094">
        <ele>1026.1</ele>
        <time>2018-11-23T23:15:52Z</time>
      </trkpt>
      <trkpt lat="42.69913" lon="0.82107">
        <ele>1026.1</ele>
        <time>2018-11-23T23:15:56Z</time>
      </trkpt>
      <trkpt lat="42.69917" lon="0.82119">
        <ele>1027.1</ele>
        <time>2018-11-23T23:16:00Z</time>
      </trkpt>
      <trkpt lat="42.69919" lon="0.82132">
        <ele>1027</ele>
        <time>2018-11-23T23:16:03Z</time>
      </trkpt>
      <trkpt lat="42.69925" lon="0.82143">
        <ele>1026.1</ele>
        <time>2018-11-23T23:16:07Z</time>
      </trkpt>
      <trkpt lat="42.69927" lon="0.82156">
        <ele>1024.1</ele>
        <time>2018-11-23T23:16:11Z</time>
      </trkpt>
      <trkpt lat="42.69928" lon="0.82169">
        <ele>1024</ele>
        <time>2018-11-23T23:16:15Z</time>
      </trkpt>
      <trkpt lat="42.69932" lon="0.82184">
        <ele>1025</ele>
        <time>2018-11-23T23:16:20Z</time>
      </trkpt>
      <trkpt lat="42.69934" lon="0.82196">
        <ele>1026</ele>
        <time>2018-11-23T23:16:23Z</time>
      </trkpt>
      <trkpt lat="42.69933" lon="0.82209">
        <ele>1028</ele>
        <time>2018-11-23T23:16:27Z</time>
      </trkpt>
      <trkpt lat="42.69933" lon="0.82223">
        <ele>1029.1</ele>
        <time>2018-11-23T23:16:31Z</time>
      </trkpt>
      <trkpt lat="42.69935" lon="0.82236">
        <ele>1030</ele>
        <time>2018-11-23T23:16:35Z</time>
      </trkpt>
      <trkpt lat="42.69937" lon="0.8225">
        <ele>1029</ele>
        <time>2018-11-23T23:16:40Z</time>
      </trkpt>
      <trkpt lat="42.69936" lon="0.82263">
        <ele>1029.1</ele>
        <time>2018-11-23T23:16:43Z</time>
      </trkpt>
      <trkpt lat="42.69937" lon="0.82277">
        <ele>1029.1</ele>
        <time>2018-11-23T23:16:47Z</time>
      </trkpt>
      <trkpt lat="42.6994" lon="0.82288">
        <ele>1029.1</ele>
        <time>2018-11-23T23:16:51Z</time>
      </trkpt>
      <trkpt lat="42.69941" lon="0.82301">
        <ele>1030</ele>
        <time>2018-11-23T23:16:55Z</time>
      </trkpt>
      <trkpt lat="42.69947" lon="0.82312">
        <ele>1030.1</ele>
        <time>2018-11-23T23:16:59Z</time>
      </trkpt>
      <trkpt lat="42.6995" lon="0.82325">
        <ele>1031.1</ele>
        <time>2018-11-23T23:17:03Z</time>
      </trkpt>
      <trkpt lat="42.69956" lon="0.82338">
        <ele>1031.1</ele>
        <time>2018-11-23T23:17:07Z</time>
      </trkpt>
      <trkpt lat="42.69963" lon="0.82329">
        <ele>1035</ele>
        <time>2018-11-23T23:17:11Z</time>
      </trkpt>
      <trkpt lat="42.6996" lon="0.82317">
        <ele>1038</ele>
        <time>2018-11-23T23:17:15Z</time>
      </trkpt>
      <trkpt lat="42.6996" lon="0.82304">
        <ele>1039</ele>
        <time>2018-11-23T23:17:19Z</time>
      </trkpt>
      <trkpt lat="42.6996" lon="0.82292">
        <ele>1041.1</ele>
        <time>2018-11-23T23:17:22Z</time>
      </trkpt>
      <trkpt lat="42.6996" lon="0.82278">
        <ele>1043</ele>
        <time>2018-11-23T23:17:26Z</time>
      </trkpt>
      <trkpt lat="42.69956" lon="0.82265">
        <ele>1044</ele>
        <time>2018-11-23T23:17:30Z</time>
      </trkpt>
      <trkpt lat="42.69953" lon="0.82254">
        <ele>1045</ele>
        <time>2018-11-23T23:17:34Z</time>
      </trkpt>
      <trkpt lat="42.69949" lon="0.82242">
        <ele>1046</ele>
        <time>2018-11-23T23:17:38Z</time>
      </trkpt>
      <trkpt lat="42.69952" lon="0.8223">
        <ele>1048</ele>
        <time>2018-11-23T23:17:42Z</time>
      </trkpt>
      <trkpt lat="42.69954" lon="0.82218">
        <ele>1049.1</ele>
        <time>2018-11-23T23:17:45Z</time>
      </trkpt>
      <trkpt lat="42.69959" lon="0.82207">
        <ele>1051.1</ele>
        <time>2018-11-23T23:17:49Z</time>
      </trkpt>
      <trkpt lat="42.69958" lon="0.82192">
        <ele>1053.1</ele>
        <time>2018-11-23T23:17:54Z</time>
      </trkpt>
      <trkpt lat="42.69957" lon="0.82179">
        <ele>1055</ele>
        <time>2018-11-23T23:17:57Z</time>
      </trkpt>
      <trkpt lat="42.69959" lon="0.82167">
        <ele>1057</ele>
        <time>2018-11-23T23:18:01Z</time>
      </trkpt>
      <trkpt lat="42.69956" lon="0.82154">
        <ele>1060</ele>
        <time>2018-11-23T23:18:05Z</time>
      </trkpt>
      <trkpt lat="42.69958" lon="0.82141">
        <ele>1061.1</ele>
        <time>2018-11-23T23:18:09Z</time>
      </trkpt>
      <trkpt lat="42.69965" lon="0.82131">
        <ele>1064.1</ele>
        <time>2018-11-23T23:18:13Z</time>
      </trkpt>
      <trkpt lat="42.69974" lon="0.82128">
        <ele>1066.1</ele>
        <time>2018-11-23T23:18:16Z</time>
      </trkpt>
      <trkpt lat="42.69983" lon="0.82132">
        <ele>1071.1</ele>
        <time>2018-11-23T23:18:20Z</time>
      </trkpt>
      <trkpt lat="42.69986" lon="0.82144">
        <ele>1074.1</ele>
        <time>2018-11-23T23:18:24Z</time>
      </trkpt>
      <trkpt lat="42.69986" lon="0.82157">
        <ele>1079.1</ele>
        <time>2018-11-23T23:18:28Z</time>
      </trkpt>
      <trkpt lat="42.69989" lon="0.8217">
        <ele>1083.1</ele>
        <time>2018-11-23T23:18:32Z</time>
      </trkpt>
      <trkpt lat="42.69993" lon="0.82182">
        <ele>1086.1</ele>
        <time>2018-11-23T23:18:36Z</time>
      </trkpt>
      <trkpt lat="42.69995" lon="0.82195">
        <ele>1088.1</ele>
        <time>2018-11-23T23:18:40Z</time>
      </trkpt>
      <trkpt lat="42.70004" lon="0.82197">
        <ele>1094</ele>
        <time>2018-11-23T23:18:43Z</time>
      </trkpt>
      <trkpt lat="42.70005" lon="0.8221">
        <ele>1096</ele>
        <time>2018-11-23T23:18:47Z</time>
      </trkpt>
      <trkpt lat="42.70008" lon="0.82222">
        <ele>1099.1</ele>
        <time>2018-11-23T23:18:51Z</time>
      </trkpt>
      <trkpt lat="42.70016" lon="0.82216">
        <ele>1103</ele>
        <time>2018-11-23T23:18:55Z</time>
      </trkpt>
      <trkpt lat="42.7002" lon="0.82203">
        <ele>1107</ele>
        <time>2018-11-23T23:18:59Z</time>
      </trkpt>
      <trkpt lat="42.70023" lon="0.8219">
        <ele>1110</ele>
        <time>2018-11-23T23:19:03Z</time>
      </trkpt>
      <trkpt lat="42.70028" lon="0.82179">
        <ele>1114</ele>
        <time>2018-11-23T23:19:07Z</time>
      </trkpt>
      <trkpt lat="42.70032" lon="0.82192">
        <ele>1119.1</ele>
        <time>2018-11-23T23:19:11Z</time>
      </trkpt>
      <trkpt lat="42.70037" lon="0.82203">
        <ele>1120.1</ele>
        <time>2018-11-23T23:19:14Z</time>
      </trkpt>
      <trkpt lat="42.70043" lon="0.82212">
        <ele>1123.1</ele>
        <time>2018-11-23T23:19:18Z</time>
      </trkpt>
      <trkpt lat="42.70052" lon="0.82208">
        <ele>1129.1</ele>
        <time>2018-11-23T23:19:22Z</time>
      </trkpt>
      <trkpt lat="42.70055" lon="0.82196">
        <ele>1133</ele>
        <time>2018-11-23T23:19:26Z</time>
      </trkpt>
      <trkpt lat="42.7006" lon="0.82184">
        <ele>1136</ele>
        <time>2018-11-23T23:19:30Z</time>
      </trkpt>
      <trkpt lat="42.70066" lon="0.82175">
        <ele>1140</ele>
        <time>2018-11-23T23:19:33Z</time>
      </trkpt>
      <trkpt lat="42.70075" lon="0.82169">
        <ele>1145</ele>
        <time>2018-11-23T23:19:37Z</time>
      </trkpt>
      <trkpt lat="42.70081" lon="0.82159">
        <ele>1150.1</ele>
        <time>2018-11-23T23:19:41Z</time>
      </trkpt>
      <trkpt lat="42.70086" lon="0.82147">
        <ele>1153.1</ele>
        <time>2018-11-23T23:19:45Z</time>
      </trkpt>
      <trkpt lat="42.7009" lon="0.82135">
        <ele>1157.1</ele>
        <time>2018-11-23T23:19:49Z</time>
      </trkpt>
      <trkpt lat="42.7009" lon="0.82122">
        <ele>1159.1</ele>
        <time>2018-11-23T23:19:53Z</time>
      </trkpt>
      <trkpt lat="42.701" lon="0.82132">
        <ele>1164.1</ele>
        <time>2018-11-23T23:19:57Z</time>
      </trkpt>
      <trkpt lat="42.70106" lon="0.82141">
        <ele>1168.1</ele>
        <time>2018-11-23T23:20:01Z</time>
      </trkpt>
      <trkpt lat="42.70105" lon="0.82156">
        <ele>1170.1</ele>
        <time>2018-11-23T23:20:05Z</time>
      </trkpt>
      <trkpt lat="42.70105" lon="0.82169">
        <ele>1174</ele>
        <time>2018-11-23T23:20:09Z</time>
      </trkpt>
      <trkpt lat="42.70108" lon="0.82181">
        <ele>1177</ele>
        <time>2018-11-23T23:20:13Z</time>
      </trkpt>
      <trkpt lat="42.70113" lon="0.82193">
        <ele>1180</ele>
        <time>2018-11-23T23:20:17Z</time>
      </trkpt>
      <trkpt lat="42.70122" lon="0.822">
        <ele>1185</ele>
        <time>2018-11-23T23:20:21Z</time>
      </trkpt>
      <trkpt lat="42.7013" lon="0.82208">
        <ele>1189.1</ele>
        <time>2018-11-23T23:20:25Z</time>
      </trkpt>
      <trkpt lat="42.70137" lon="0.82219">
        <ele>1192</ele>
        <time>2018-11-23T23:20:29Z</time>
      </trkpt>
      <trkpt lat="42.7014" lon="0.82231">
        <ele>1194.1</ele>
        <time>2018-11-23T23:20:33Z</time>
      </trkpt>
      <trkpt lat="42.70148" lon="0.82238">
        <ele>1197</ele>
        <time>2018-11-23T23:20:37Z</time>
      </trkpt>
      <trkpt lat="42.70156" lon="0.82232">
        <ele>1200</ele>
        <time>2018-11-23T23:20:41Z</time>
      </trkpt>
      <trkpt lat="42.70154" lon="0.82219">
        <ele>1202</ele>
        <time>2018-11-23T23:20:45Z</time>
      </trkpt>
      <trkpt lat="42.70151" lon="0.82207">
        <ele>1206.1</ele>
        <time>2018-11-23T23:20:48Z</time>
      </trkpt>
      <trkpt lat="42.70157" lon="0.82196">
        <ele>1209.1</ele>
        <time>2018-11-23T23:20:52Z</time>
      </trkpt>
      <trkpt lat="42.70163" lon="0.82183">
        <ele>1213.1</ele>
        <time>2018-11-23T23:20:57Z</time>
      </trkpt>
      <trkpt lat="42.70163" lon="0.82169">
        <ele>1216.1</ele>
        <time>2018-11-23T23:21:01Z</time>
      </trkpt>
      <trkpt lat="42.70165" lon="0.82156">
        <ele>1218</ele>
        <time>2018-11-23T23:21:05Z</time>
      </trkpt>
      <trkpt lat="42.70168" lon="0.82144">
        <ele>1220</ele>
        <time>2018-11-23T23:21:08Z</time>
      </trkpt>
      <trkpt lat="42.70166" lon="0.82132">
        <ele>1222</ele>
        <time>2018-11-23T23:21:12Z</time>
      </trkpt>
      <trkpt lat="42.70165" lon="0.82119">
        <ele>1225</ele>
        <time>2018-11-23T23:21:16Z</time>
      </trkpt>
      <trkpt lat="42.70168" lon="0.82106">
        <ele>1228.1</ele>
        <time>2018-11-23T23:21:20Z</time>
      </trkpt>
      <trkpt lat="42.70176" lon="0.82115">
        <ele>1232.1</ele>
        <time>2018-11-23T23:21:24Z</time>
      </trkpt>
      <trkpt lat="42.70185" lon="0.82113">
        <ele>1238.1</ele>
        <time>2018-11-23T23:21:27Z</time>
      </trkpt>
      <trkpt lat="42.70189" lon="0.82102">
        <ele>1241.1</ele>
        <time>2018-11-23T23:21:31Z</time>
      </trkpt>
      <trkpt lat="42.70191" lon="0.8209">
        <ele>1243</ele>
        <time>2018-11-23T23:21:35Z</time>
      </trkpt>
      <trkpt lat="42.70192" lon="0.82078">
        <ele>1246.1</ele>
        <time>2018-11-23T23:21:38Z</time>
      </trkpt>
      <trkpt lat="42.70193" lon="0.82064">
        <ele>1248.1</ele>
        <time>2018-11-23T23:21:42Z</time>
      </trkpt>
      <trkpt lat="42.70195" lon="0.82051">
        <ele>1251.1</ele>
        <time>2018-11-23T23:21:46Z</time>
      </trkpt>
      <trkpt lat="42.70203" lon="0.82057">
        <ele>1255</ele>
        <time>2018-11-23T23:21:50Z</time>
      </trkpt>
      <trkpt lat="42.7021" lon="0.82066">
        <ele>1257</ele>
        <time>2018-11-23T23:21:54Z</time>
      </trkpt>
      <trkpt lat="42.70215" lon="0.82076">
        <ele>1260.1</ele>
        <time>2018-11-23T23:21:58Z</time>
      </trkpt>
      <trkpt lat="42.70223" lon="0.82069">
        <ele>1268</ele>
        <time>2018-11-23T23:22:01Z</time>
      </trkpt>
      <trkpt lat="42.70228" lon="0.82056">
        <ele>1269</ele>
        <time>2018-11-23T23:22:05Z</time>
      </trkpt>
      <trkpt lat="42.70231" lon="0.82044">
        <ele>1273</ele>
        <time>2018-11-23T23:22:09Z</time>
      </trkpt>
      <trkpt lat="42.70236" lon="0.8203">
        <ele>1276.1</ele>
        <time>2018-11-23T23:22:14Z</time>
      </trkpt>
      <trkpt lat="42.70238" lon="0.82016">
        <ele>1280.1</ele>
        <time>2018-11-23T23:22:18Z</time>
      </trkpt>
      <trkpt lat="42.70246" lon="0.82012">
        <ele>1283.1</ele>
        <time>2018-11-23T23:22:22Z</time>
      </trkpt>
      <trkpt lat="42.70256" lon="0.82013">
        <ele>1290</ele>
        <time>2018-11-23T23:22:25Z</time>
      </trkpt>
      <trkpt lat="42.70257" lon="0.82">
        <ele>1292.1</ele>
        <time>2018-11-23T23:22:29Z</time>
      </trkpt>
      <trkpt lat="42.70263" lon="0.8199">
        <ele>1295</ele>
        <time>2018-11-23T23:22:33Z</time>
      </trkpt>
      <trkpt lat="42.7026" lon="0.81976">
        <ele>1297</ele>
        <time>2018-11-23T23:22:37Z</time>
      </trkpt>
      <trkpt lat="42.70264" lon="0.81964">
        <ele>1299</ele>
        <time>2018-11-23T23:22:41Z</time>
      </trkpt>
      <trkpt lat="42.70266" lon="0.8195">
        <ele>1302.1</ele>
        <time>2018-11-23T23:22:45Z</time>
      </trkpt>
      <trkpt lat="42.7027" lon="0.81938">
        <ele>1306.1</ele>
        <time>2018-11-23T23:22:49Z</time>
      </trkpt>
      <trkpt lat="42.70276" lon="0.81927">
        <ele>1309</ele>
        <time>2018-11-23T23:22:53Z</time>
      </trkpt>
      <trkpt lat="42.70281" lon="0.81916">
        <ele>1313</ele>
        <time>2018-11-23T23:22:57Z</time>
      </trkpt>
      <trkpt lat="42.7029" lon="0.81912">
        <ele>1316.1</ele>
        <time>2018-11-23T23:23:01Z</time>
      </trkpt>
      <trkpt lat="42.70298" lon="0.81919">
        <ele>1321.1</ele>
        <time>2018-11-23T23:23:05Z</time>
      </trkpt>
      <trkpt lat="42.70302" lon="0.81931">
        <ele>1325</ele>
        <time>2018-11-23T23:23:08Z</time>
      </trkpt>
      <trkpt lat="42.70306" lon="0.81942">
        <ele>1327</ele>
        <time>2018-11-23T23:23:12Z</time>
      </trkpt>
      <trkpt lat="42.7031" lon="0.81954">
        <ele>1330.1</ele>
        <time>2018-11-23T23:23:16Z</time>
      </trkpt>
      <trkpt lat="42.70312" lon="0.81966">
        <ele>1332.1</ele>
        <time>2018-11-23T23:23:20Z</time>
      </trkpt>
      <trkpt lat="42.70314" lon="0.81979">
        <ele>1335</ele>
        <time>2018-11-23T23:23:24Z</time>
      </trkpt>
      <trkpt lat="42.70306" lon="0.81986">
        <ele>1338</ele>
        <time>2018-11-23T23:23:28Z</time>
      </trkpt>
      <trkpt lat="42.70312" lon="0.81998">
        <ele>1341</ele>
        <time>2018-11-23T23:23:32Z</time>
      </trkpt>
      <trkpt lat="42.70318" lon="0.82009">
        <ele>1342.1</ele>
        <time>2018-11-23T23:23:36Z</time>
      </trkpt>
      <trkpt lat="42.70326" lon="0.82018">
        <ele>1345</ele>
        <time>2018-11-23T23:23:40Z</time>
      </trkpt>
      <trkpt lat="42.70328" lon="0.82032">
        <ele>1349.1</ele>
        <time>2018-11-23T23:23:44Z</time>
      </trkpt>
      <trkpt lat="42.70332" lon="0.82043">
        <ele>1352.1</ele>
        <time>2018-11-23T23:23:48Z</time>
      </trkpt>
      <trkpt lat="42.70339" lon="0.82052">
        <ele>1357</ele>
        <time>2018-11-23T23:23:52Z</time>
      </trkpt>
      <trkpt lat="42.70347" lon="0.8206">
        <ele>1360.1</ele>
        <time>2018-11-23T23:23:56Z</time>
      </trkpt>
      <trkpt lat="42.70355" lon="0.82066">
        <ele>1364.1</ele>
        <time>2018-11-23T23:23:59Z</time>
      </trkpt>
      <trkpt lat="42.70363" lon="0.82074">
        <ele>1368.1</ele>
        <time>2018-11-23T23:24:03Z</time>
      </trkpt>
      <trkpt lat="42.70367" lon="0.82085">
        <ele>1372</ele>
        <time>2018-11-23T23:24:07Z</time>
      </trkpt>
      <trkpt lat="42.70374" lon="0.82094">
        <ele>1375</ele>
        <time>2018-11-23T23:24:11Z</time>
      </trkpt>
      <trkpt lat="42.70378" lon="0.82105">
        <ele>1376</ele>
        <time>2018-11-23T23:24:14Z</time>
      </trkpt>
      <trkpt lat="42.70383" lon="0.82119">
        <ele>1380.1</ele>
        <time>2018-11-23T23:24:19Z</time>
      </trkpt>
      <trkpt lat="42.70391" lon="0.82128">
        <ele>1383</ele>
        <time>2018-11-23T23:24:23Z</time>
      </trkpt>
      <trkpt lat="42.70395" lon="0.82138">
        <ele>1385.1</ele>
        <time>2018-11-23T23:24:27Z</time>
      </trkpt>
      <trkpt lat="42.70404" lon="0.82144">
        <ele>1387.1</ele>
        <time>2018-11-23T23:24:30Z</time>
      </trkpt>
      <trkpt lat="42.70411" lon="0.82154">
        <ele>1390</ele>
        <time>2018-11-23T23:24:34Z</time>
      </trkpt>
      <trkpt lat="42.70415" lon="0.82167">
        <ele>1393.1</ele>
        <time>2018-11-23T23:24:38Z</time>
      </trkpt>
      <trkpt lat="42.70419" lon="0.82178">
        <ele>1397.1</ele>
        <time>2018-11-23T23:24:42Z</time>
      </trkpt>
      <trkpt lat="42.70422" lon="0.82191">
        <ele>1400.1</ele>
        <time>2018-11-23T23:24:46Z</time>
      </trkpt>
      <trkpt lat="42.70422" lon="0.82204">
        <ele>1403</ele>
        <time>2018-11-23T23:24:50Z</time>
      </trkpt>
      <trkpt lat="42.70426" lon="0.82216">
        <ele>1406.1</ele>
        <time>2018-11-23T23:24:54Z</time>
      </trkpt>
      <trkpt lat="42.70429" lon="0.82229">
        <ele>1408</ele>
        <time>2018-11-23T23:24:58Z</time>
      </trkpt>
      <trkpt lat="42.70433" lon="0.82241">
        <ele>1411</ele>
        <time>2018-11-23T23:25:02Z</time>
      </trkpt>
      <trkpt lat="42.70435" lon="0.82253">
        <ele>1414.1</ele>
        <time>2018-11-23T23:25:05Z</time>
      </trkpt>
      <trkpt lat="42.70439" lon="0.82266">
        <ele>1417.1</ele>
        <time>2018-11-23T23:25:10Z</time>
      </trkpt>
      <trkpt lat="42.7044" lon="0.82279">
        <ele>1419.1</ele>
        <time>2018-11-23T23:25:13Z</time>
      </trkpt>
      <trkpt lat="42.70445" lon="0.8229">
        <ele>1421.1</ele>
        <time>2018-11-23T23:25:17Z</time>
      </trkpt>
      <trkpt lat="42.70447" lon="0.82303">
        <ele>1422.1</ele>
        <time>2018-11-23T23:25:21Z</time>
      </trkpt>
      <trkpt lat="42.70455" lon="0.82311">
        <ele>1425.1</ele>
        <time>2018-11-23T23:25:25Z</time>
      </trkpt>
      <trkpt lat="42.70459" lon="0.82323">
        <ele>1428.1</ele>
        <time>2018-11-23T23:25:29Z</time>
      </trkpt>
      <trkpt lat="42.7046" lon="0.82336">
        <ele>1430.1</ele>
        <time>2018-11-23T23:25:33Z</time>
      </trkpt>
      <trkpt lat="42.70466" lon="0.82347">
        <ele>1433.1</ele>
        <time>2018-11-23T23:25:37Z</time>
      </trkpt>
      <trkpt lat="42.70473" lon="0.82355">
        <ele>1435.1</ele>
        <time>2018-11-23T23:25:40Z</time>
      </trkpt>
      <trkpt lat="42.70477" lon="0.82343">
        <ele>1438</ele>
        <time>2018-11-23T23:25:44Z</time>
      </trkpt>
      <trkpt lat="42.7048" lon="0.82331">
        <ele>1440</ele>
        <time>2018-11-23T23:25:48Z</time>
      </trkpt>
      <trkpt lat="42.70488" lon="0.82322">
        <ele>1442.1</ele>
        <time>2018-11-23T23:25:52Z</time>
      </trkpt>
      <trkpt lat="42.70496" lon="0.82317">
        <ele>1447</ele>
        <time>2018-11-23T23:25:56Z</time>
      </trkpt>
      <trkpt lat="42.705" lon="0.82329">
        <ele>1449</ele>
        <time>2018-11-23T23:25:59Z</time>
      </trkpt>
      <trkpt lat="42.70506" lon="0.82338">
        <ele>1452</ele>
        <time>2018-11-23T23:26:03Z</time>
      </trkpt>
      <trkpt lat="42.70514" lon="0.82345">
        <ele>1455.1</ele>
        <time>2018-11-23T23:26:07Z</time>
      </trkpt>
      <trkpt lat="42.70518" lon="0.82358">
        <ele>1456</ele>
        <time>2018-11-23T23:26:11Z</time>
      </trkpt>
      <trkpt lat="42.70526" lon="0.82366">
        <ele>1459</ele>
        <time>2018-11-23T23:26:15Z</time>
      </trkpt>
      <trkpt lat="42.70527" lon="0.82353">
        <ele>1462.1</ele>
        <time>2018-11-23T23:26:19Z</time>
      </trkpt>
      <trkpt lat="42.7053" lon="0.82342">
        <ele>1463</ele>
        <time>2018-11-23T23:26:22Z</time>
      </trkpt>
      <trkpt lat="42.70532" lon="0.82329">
        <ele>1464.1</ele>
        <time>2018-11-23T23:26:26Z</time>
      </trkpt>
      <trkpt lat="42.70541" lon="0.82326">
        <ele>1470</ele>
        <time>2018-11-23T23:26:30Z</time>
      </trkpt>
      <trkpt lat="42.7055" lon="0.82331">
        <ele>1474</ele>
        <time>2018-11-23T23:26:34Z</time>
      </trkpt>
      <trkpt lat="42.70558" lon="0.82336">
        <ele>1478</ele>
        <time>2018-11-23T23:26:37Z</time>
      </trkpt>
      <trkpt lat="42.70567" lon="0.82337">
        <ele>1483</ele>
        <time>2018-11-23T23:26:41Z</time>
      </trkpt>
      <trkpt lat="42.7057" lon="0.82325">
        <ele>1485.1</ele>
        <time>2018-11-23T23:26:45Z</time>
      </trkpt>
      <trkpt lat="42.70577" lon="0.82315">
        <ele>1488.1</ele>
        <time>2018-11-23T23:26:49Z</time>
      </trkpt>
      <trkpt lat="42.70585" lon="0.8231">
        <ele>1492.1</ele>
        <time>2018-11-23T23:26:53Z</time>
      </trkpt>
      <trkpt lat="42.70593" lon="0.82303">
        <ele>1496.1</ele>
        <time>2018-11-23T23:26:56Z</time>
      </trkpt>
      <trkpt lat="42.70595" lon="0.82291">
        <ele>1498.1</ele>
        <time>2018-11-23T23:27:00Z</time>
      </trkpt>
      <trkpt lat="42.70599" lon="0.82279">
        <ele>1501.1</ele>
        <time>2018-11-23T23:27:04Z</time>
      </trkpt>
      <trkpt lat="42.70601" lon="0.82267">
        <ele>1503.1</ele>
        <time>2018-11-23T23:27:08Z</time>
      </trkpt>
      <trkpt lat="42.70607" lon="0.82256">
        <ele>1508</ele>
        <time>2018-11-23T23:27:11Z</time>
      </trkpt>
      <trkpt lat="42.70615" lon="0.82246">
        <ele>1510</ele>
        <time>2018-11-23T23:27:16Z</time>
      </trkpt>
      <trkpt lat="42.70618" lon="0.82235">
        <ele>1514</ele>
        <time>2018-11-23T23:27:19Z</time>
      </trkpt>
      <trkpt lat="42.70619" lon="0.82222">
        <ele>1516</ele>
        <time>2018-11-23T23:27:23Z</time>
      </trkpt>
      <trkpt lat="42.70622" lon="0.8221">
        <ele>1518.1</ele>
        <time>2018-11-23T23:27:27Z</time>
      </trkpt>
      <trkpt lat="42.70627" lon="0.82199">
        <ele>1521.1</ele>
        <time>2018-11-23T23:27:31Z</time>
      </trkpt>
      <trkpt lat="42.70634" lon="0.8219">
        <ele>1524.1</ele>
        <time>2018-11-23T23:27:34Z</time>
      </trkpt>
      <trkpt lat="42.70637" lon="0.82178">
        <ele>1527.1</ele>
        <time>2018-11-23T23:27:38Z</time>
      </trkpt>
      <trkpt lat="42.70641" lon="0.82166">
        <ele>1531</ele>
        <time>2018-11-23T23:27:42Z</time>
      </trkpt>
      <trkpt lat="42.70643" lon="0.82153">
        <ele>1534.1</ele>
        <time>2018-11-23T23:27:46Z</time>
      </trkpt>
      <trkpt lat="42.70647" lon="0.8214">
        <ele>1537.1</ele>
        <time>2018-11-23T23:27:50Z</time>
      </trkpt>
      <trkpt lat="42.70646" lon="0.82126">
        <ele>1539</ele>
        <time>2018-11-23T23:27:54Z</time>
      </trkpt>
      <trkpt lat="42.70647" lon="0.82113">
        <ele>1540</ele>
        <time>2018-11-23T23:27:58Z</time>
      </trkpt>
      <trkpt lat="42.70648" lon="0.82099">
        <ele>1542</ele>
        <time>2018-11-23T23:28:02Z</time>
      </trkpt>
      <trkpt lat="42.70646" lon="0.82087">
        <ele>1544</ele>
        <time>2018-11-23T23:28:06Z</time>
      </trkpt>
      <trkpt lat="42.70651" lon="0.82075">
        <ele>1546</ele>
        <time>2018-11-23T23:28:10Z</time>
      </trkpt>
      <trkpt lat="42.70655" lon="0.82064">
        <ele>1548</ele>
        <time>2018-11-23T23:28:13Z</time>
      </trkpt>
      <trkpt lat="42.70663" lon="0.82055">
        <ele>1550</ele>
        <time>2018-11-23T23:28:18Z</time>
      </trkpt>
      <trkpt lat="42.70667" lon="0.82043">
        <ele>1554</ele>
        <time>2018-11-23T23:28:21Z</time>
      </trkpt>
      <trkpt lat="42.7067" lon="0.82031">
        <ele>1556</ele>
        <time>2018-11-23T23:28:25Z</time>
      </trkpt>
      <trkpt lat="42.70667" lon="0.82018">
        <ele>1558</ele>
        <time>2018-11-23T23:28:29Z</time>
      </trkpt>
      <trkpt lat="42.70664" lon="0.82005">
        <ele>1558</ele>
        <time>2018-11-23T23:28:33Z</time>
      </trkpt>
      <trkpt lat="42.70668" lon="0.81993">
        <ele>1562</ele>
        <time>2018-11-23T23:28:37Z</time>
      </trkpt>
      <trkpt lat="42.70675" lon="0.81985">
        <ele>1565</ele>
        <time>2018-11-23T23:28:41Z</time>
      </trkpt>
      <trkpt lat="42.7068" lon="0.81973">
        <ele>1568</ele>
        <time>2018-11-23T23:28:45Z</time>
      </trkpt>
      <trkpt lat="42.70678" lon="0.8196">
        <ele>1570</ele>
        <time>2018-11-23T23:28:49Z</time>
      </trkpt>
      <trkpt lat="42.70684" lon="0.81951">
        <ele>1576</ele>
        <time>2018-11-23T23:28:52Z</time>
      </trkpt>
      <trkpt lat="42.70693" lon="0.81945">
        <ele>1579.1</ele>
        <time>2018-11-23T23:28:56Z</time>
      </trkpt>
      <trkpt lat="42.70702" lon="0.81941">
        <ele>1582.1</ele>
        <time>2018-11-23T23:29:00Z</time>
      </trkpt>
      <trkpt lat="42.70707" lon="0.81931">
        <ele>1587.1</ele>
        <time>2018-11-23T23:29:04Z</time>
      </trkpt>
      <trkpt lat="42.70714" lon="0.81922">
        <ele>1591.1</ele>
        <time>2018-11-23T23:29:07Z</time>
      </trkpt>
      <trkpt lat="42.70718" lon="0.81911">
        <ele>1595.1</ele>
        <time>2018-11-23T23:29:11Z</time>
      </trkpt>
      <trkpt lat="42.7072" lon="0.81898">
        <ele>1598.1</ele>
        <time>2018-11-23T23:29:15Z</time>
      </trkpt>
      <trkpt lat="42.70722" lon="0.81885">
        <ele>1601.1</ele>
        <time>2018-11-23T23:29:19Z</time>
      </trkpt>
      <trkpt lat="42.70725" lon="0.81872">
        <ele>1606</ele>
        <time>2018-11-23T23:29:23Z</time>
      </trkpt>
      <trkpt lat="42.70725" lon="0.81859">
        <ele>1609.1</ele>
        <time>2018-11-23T23:29:27Z</time>
      </trkpt>
      <trkpt lat="42.70726" lon="0.81846">
        <ele>1611.1</ele>
        <time>2018-11-23T23:29:30Z</time>
      </trkpt>
      <trkpt lat="42.70736" lon="0.81845">
        <ele>1613</ele>
        <time>2018-11-23T23:29:34Z</time>
      </trkpt>
      <trkpt lat="42.70744" lon="0.81838">
        <ele>1616</ele>
        <time>2018-11-23T23:29:38Z</time>
      </trkpt>
      <trkpt lat="42.7075" lon="0.81827">
        <ele>1618.1</ele>
        <time>2018-11-23T23:29:42Z</time>
      </trkpt>
      <trkpt lat="42.70755" lon="0.81816">
        <ele>1620.1</ele>
        <time>2018-11-23T23:29:46Z</time>
      </trkpt>
      <trkpt lat="42.70762" lon="0.81807">
        <ele>1622</ele>
        <time>2018-11-23T23:29:50Z</time>
      </trkpt>
      <trkpt lat="42.70768" lon="0.81797">
        <ele>1625</ele>
        <time>2018-11-23T23:29:54Z</time>
      </trkpt>
      <trkpt lat="42.7077" lon="0.81784">
        <ele>1626.1</ele>
        <time>2018-11-23T23:29:58Z</time>
      </trkpt>
      <trkpt lat="42.70768" lon="0.81772">
        <ele>1626.1</ele>
        <time>2018-11-23T23:30:01Z</time>
      </trkpt>
      <trkpt lat="42.70767" lon="0.81759">
        <ele>1627.1</ele>
        <time>2018-11-23T23:30:05Z</time>
      </trkpt>
      <trkpt lat="42.70766" lon="0.81745">
        <ele>1629.1</ele>
        <time>2018-11-23T23:30:09Z</time>
      </trkpt>
      <trkpt lat="42.70765" lon="0.81733">
        <ele>1629.1</ele>
        <time>2018-11-23T23:30:13Z</time>
      </trkpt>
      <trkpt lat="42.70765" lon="0.81721">
        <ele>1630.1</ele>
        <time>2018-11-23T23:30:16Z</time>
      </trkpt>
      <trkpt lat="42.70766" lon="0.81707">
        <ele>1630</ele>
        <time>2018-11-23T23:30:20Z</time>
      </trkpt>
      <trkpt lat="42.7077" lon="0.81695">
        <ele>1630</ele>
        <time>2018-11-23T23:30:24Z</time>
      </trkpt>
      <trkpt lat="42.70771" lon="0.81682">
        <ele>1632</ele>
        <time>2018-11-23T23:30:28Z</time>
      </trkpt>
      <trkpt lat="42.70772" lon="0.8167">
        <ele>1633.1</ele>
        <time>2018-11-23T23:30:32Z</time>
      </trkpt>
      <trkpt lat="42.70774" lon="0.81658">
        <ele>1634.1</ele>
        <time>2018-11-23T23:30:35Z</time>
      </trkpt>
      <trkpt lat="42.70776" lon="0.81645">
        <ele>1636</ele>
        <time>2018-11-23T23:30:39Z</time>
      </trkpt>
      <trkpt lat="42.70778" lon="0.81632">
        <ele>1637.1</ele>
        <time>2018-11-23T23:30:43Z</time>
      </trkpt>
      <trkpt lat="42.70782" lon="0.8162">
        <ele>1637.1</ele>
        <time>2018-11-23T23:30:47Z</time>
      </trkpt>
      <trkpt lat="42.70786" lon="0.81609">
        <ele>1639</ele>
        <time>2018-11-23T23:30:51Z</time>
      </trkpt>
      <trkpt lat="42.70793" lon="0.81597">
        <ele>1640</ele>
        <time>2018-11-23T23:30:55Z</time>
      </trkpt>
      <trkpt lat="42.70798" lon="0.81584">
        <ele>1641</ele>
        <time>2018-11-23T23:30:59Z</time>
      </trkpt>
      <trkpt lat="42.70804" lon="0.81576">
        <ele>1641</ele>
        <time>2018-11-23T23:31:03Z</time>
      </trkpt>
      <trkpt lat="42.7081" lon="0.81565">
        <ele>1643</ele>
        <time>2018-11-23T23:31:07Z</time>
      </trkpt>
      <trkpt lat="42.70815" lon="0.81554">
        <ele>1644</ele>
        <time>2018-11-23T23:31:11Z</time>
      </trkpt>
      <trkpt lat="42.70822" lon="0.81545">
        <ele>1646.1</ele>
        <time>2018-11-23T23:31:15Z</time>
      </trkpt>
      <trkpt lat="42.70832" lon="0.81548">
        <ele>1648</ele>
        <time>2018-11-23T23:31:18Z</time>
      </trkpt>
      <trkpt lat="42.70841" lon="0.8155">
        <ele>1649.1</ele>
        <time>2018-11-23T23:31:22Z</time>
      </trkpt>
      <trkpt lat="42.70849" lon="0.81542">
        <ele>1650</ele>
        <time>2018-11-23T23:31:26Z</time>
      </trkpt>
      <trkpt lat="42.70856" lon="0.81534">
        <ele>1650.1</ele>
        <time>2018-11-23T23:31:30Z</time>
      </trkpt>
      <trkpt lat="42.70865" lon="0.81528">
        <ele>1651.1</ele>
        <time>2018-11-23T23:31:34Z</time>
      </trkpt>
      <trkpt lat="42.70875" lon="0.81528">
        <ele>1652</ele>
        <time>2018-11-23T23:31:38Z</time>
      </trkpt>
      <trkpt lat="42.70884" lon="0.81527">
        <ele>1654.1</ele>
        <time>2018-11-23T23:31:41Z</time>
      </trkpt>
      <trkpt lat="42.70893" lon="0.81532">
        <ele>1654</ele>
        <time>2018-11-23T23:31:45Z</time>
      </trkpt>
      <trkpt lat="42.70903" lon="0.81534">
        <ele>1655</ele>
        <time>2018-11-23T23:31:49Z</time>
      </trkpt>
      <trkpt lat="42.70912" lon="0.81536">
        <ele>1656</ele>
        <time>2018-11-23T23:31:53Z</time>
      </trkpt>
      <trkpt lat="42.70922" lon="0.81536">
        <ele>1657</ele>
        <time>2018-11-23T23:31:57Z</time>
      </trkpt>
      <trkpt lat="42.70932" lon="0.81536">
        <ele>1657</ele>
        <time>2018-11-23T23:32:01Z</time>
      </trkpt>
      <trkpt lat="42.70942" lon="0.81535">
        <ele>1658</ele>
        <time>2018-11-23T23:32:05Z</time>
      </trkpt>
      <trkpt lat="42.70952" lon="0.81538">
        <ele>1659.1</ele>
        <time>2018-11-23T23:32:09Z</time>
      </trkpt>
      <trkpt lat="42.70962" lon="0.81542">
        <ele>1660.1</ele>
        <time>2018-11-23T23:32:13Z</time>
      </trkpt>
      <trkpt lat="42.70971" lon="0.81546">
        <ele>1661</ele>
        <time>2018-11-23T23:32:17Z</time>
      </trkpt>
      <trkpt lat="42.7098" lon="0.81551">
        <ele>1662.1</ele>
        <time>2018-11-23T23:32:21Z</time>
      </trkpt>
      <trkpt lat="42.70989" lon="0.81555">
        <ele>1662</ele>
        <time>2018-11-23T23:32:25Z</time>
      </trkpt>
      <trkpt lat="42.70999" lon="0.8156">
        <ele>1663</ele>
        <time>2018-11-23T23:32:29Z</time>
      </trkpt>
      <trkpt lat="42.71008" lon="0.81564">
        <ele>1663.1</ele>
        <time>2018-11-23T23:32:33Z</time>
      </trkpt>
      <trkpt lat="42.71017" lon="0.81567">
        <ele>1664</ele>
        <time>2018-11-23T23:32:36Z</time>
      </trkpt>
      <trkpt lat="42.71027" lon="0.81571">
        <ele>1665</ele>
        <time>2018-11-23T23:32:41Z</time>
      </trkpt>
      <trkpt lat="42.71037" lon="0.81571">
        <ele>1666</ele>
        <time>2018-11-23T23:32:45Z</time>
      </trkpt>
      <trkpt lat="42.71046" lon="0.81567">
        <ele>1666</ele>
        <time>2018-11-23T23:32:48Z</time>
      </trkpt>
      <trkpt lat="42.71054" lon="0.8156">
        <ele>1667.1</ele>
        <time>2018-11-23T23:32:52Z</time>
      </trkpt>
      <trkpt lat="42.71059" lon="0.81549">
        <ele>1669.1</ele>
        <time>2018-11-23T23:32:56Z</time>
      </trkpt>
      <trkpt lat="42.71065" lon="0.81538">
        <ele>1669.1</ele>
        <time>2018-11-23T23:33:00Z</time>
      </trkpt>
      <trkpt lat="42.71071" lon="0.81529">
        <ele>1670</ele>
        <time>2018-11-23T23:33:03Z</time>
      </trkpt>
      <trkpt lat="42.71078" lon="0.81521">
        <ele>1671</ele>
        <time>2018-11-23T23:33:07Z</time>
      </trkpt>
      <trkpt lat="42.71084" lon="0.81511">
        <ele>1672</ele>
        <time>2018-11-23T23:33:11Z</time>
      </trkpt>
      <trkpt lat="42.71086" lon="0.81498">
        <ele>1673.1</ele>
        <time>2018-11-23T23:33:15Z</time>
      </trkpt>
      <trkpt lat="42.71092" lon="0.81488">
        <ele>1673.1</ele>
        <time>2018-11-23T23:33:19Z</time>
      </trkpt>
      <trkpt lat="42.71098" lon="0.81478">
        <ele>1674.1</ele>
        <time>2018-11-23T23:33:23Z</time>
      </trkpt>
      <trkpt lat="42.71105" lon="0.81469">
        <ele>1675</ele>
        <time>2018-11-23T23:33:26Z</time>
      </trkpt>
      <trkpt lat="42.71113" lon="0.81462">
        <ele>1675</ele>
        <time>2018-11-23T23:33:30Z</time>
      </trkpt>
      <trkpt lat="42.7112" lon="0.81453">
        <ele>1676.1</ele>
        <time>2018-11-23T23:33:34Z</time>
      </trkpt>
      <trkpt lat="42.71127" lon="0.81445">
        <ele>1677</ele>
        <time>2018-11-23T23:33:38Z</time>
      </trkpt>
      <trkpt lat="42.71127" lon="0.8144">
        <ele>1688.1</ele>
        <time>2018-11-23T23:33:39Z</time>
      </trkpt>
      <trkpt lat="42.71137" lon="0.8144">
        <ele>1691.1</ele>
        <time>2018-11-23T23:33:43Z</time>
      </trkpt>
      <trkpt lat="42.71145" lon="0.81434">
        <ele>1693.1</ele>
        <time>2018-11-23T23:33:47Z</time>
      </trkpt>
      <trkpt lat="42.71154" lon="0.81431">
        <ele>1695.1</ele>
        <time>2018-11-23T23:33:50Z</time>
      </trkpt>
      <trkpt lat="42.71163" lon="0.81426">
        <ele>1699.1</ele>
        <time>2018-11-23T23:33:54Z</time>
      </trkpt>
      <trkpt lat="42.71172" lon="0.81421">
        <ele>1703</ele>
        <time>2018-11-23T23:33:58Z</time>
      </trkpt>
      <trkpt lat="42.7118" lon="0.81414">
        <ele>1706</ele>
        <time>2018-11-23T23:34:02Z</time>
      </trkpt>
      <trkpt lat="42.7119" lon="0.81412">
        <ele>1709.1</ele>
        <time>2018-11-23T23:34:06Z</time>
      </trkpt>
      <trkpt lat="42.71198" lon="0.81419">
        <ele>1713</ele>
        <time>2018-11-23T23:34:10Z</time>
      </trkpt>
      <trkpt lat="42.71208" lon="0.81421">
        <ele>1715</ele>
        <time>2018-11-23T23:34:14Z</time>
      </trkpt>
      <trkpt lat="42.71216" lon="0.81428">
        <ele>1718</ele>
        <time>2018-11-23T23:34:18Z</time>
      </trkpt>
      <trkpt lat="42.71224" lon="0.81435">
        <ele>1721.1</ele>
        <time>2018-11-23T23:34:22Z</time>
      </trkpt>
      <trkpt lat="42.71231" lon="0.81446">
        <ele>1725</ele>
        <time>2018-11-23T23:34:26Z</time>
      </trkpt>
      <trkpt lat="42.71237" lon="0.81455">
        <ele>1727.1</ele>
        <time>2018-11-23T23:34:30Z</time>
      </trkpt>
      <trkpt lat="42.71244" lon="0.81465">
        <ele>1731</ele>
        <time>2018-11-23T23:34:33Z</time>
      </trkpt>
      <trkpt lat="42.71249" lon="0.81477">
        <ele>1732.1</ele>
        <time>2018-11-23T23:34:37Z</time>
      </trkpt>
      <trkpt lat="42.71251" lon="0.8149">
        <ele>1734</ele>
        <time>2018-11-23T23:34:41Z</time>
      </trkpt>
      <trkpt lat="42.71246" lon="0.81502">
        <ele>1736</ele>
        <time>2018-11-23T23:34:45Z</time>
      </trkpt>
      <trkpt lat="42.71237" lon="0.8151">
        <ele>1738</ele>
        <time>2018-11-23T23:34:49Z</time>
      </trkpt>
      <trkpt lat="42.7123" lon="0.81517">
        <ele>1739.1</ele>
        <time>2018-11-23T23:34:53Z</time>
      </trkpt>
      <trkpt lat="42.71224" lon="0.81526">
        <ele>1741</ele>
        <time>2018-11-23T23:34:57Z</time>
      </trkpt>
      <trkpt lat="42.71217" lon="0.81535">
        <ele>1742</ele>
        <time>2018-11-23T23:35:01Z</time>
      </trkpt>
      <trkpt lat="42.7121" lon="0.81544">
        <ele>1743</ele>
        <time>2018-11-23T23:35:04Z</time>
      </trkpt>
      <trkpt lat="42.71203" lon="0.81552">
        <ele>1744.1</ele>
        <time>2018-11-23T23:35:08Z</time>
      </trkpt>
      <trkpt lat="42.71196" lon="0.81562">
        <ele>1745</ele>
        <time>2018-11-23T23:35:12Z</time>
      </trkpt>
      <trkpt lat="42.71191" lon="0.81574">
        <ele>1746</ele>
        <time>2018-11-23T23:35:16Z</time>
      </trkpt>
      <trkpt lat="42.71189" lon="0.81586">
        <ele>1747</ele>
        <time>2018-11-23T23:35:20Z</time>
      </trkpt>
      <trkpt lat="42.71188" lon="0.81598">
        <ele>1748</ele>
        <time>2018-11-23T23:35:23Z</time>
      </trkpt>
      <trkpt lat="42.71186" lon="0.81612">
        <ele>1749</ele>
        <time>2018-11-23T23:35:28Z</time>
      </trkpt>
      <trkpt lat="42.71185" lon="0.81625">
        <ele>1751.1</ele>
        <time>2018-11-23T23:35:31Z</time>
      </trkpt>
      <trkpt lat="42.71186" lon="0.81638">
        <ele>1752</ele>
        <time>2018-11-23T23:35:35Z</time>
      </trkpt>
      <trkpt lat="42.71188" lon="0.81651">
        <ele>1754</ele>
        <time>2018-11-23T23:35:39Z</time>
      </trkpt>
      <trkpt lat="42.71188" lon="0.81665">
        <ele>1756</ele>
        <time>2018-11-23T23:35:43Z</time>
      </trkpt>
      <trkpt lat="42.71187" lon="0.81678">
        <ele>1759</ele>
        <time>2018-11-23T23:35:47Z</time>
      </trkpt>
      <trkpt lat="42.71185" lon="0.8169">
        <ele>1763</ele>
        <time>2018-11-23T23:35:51Z</time>
      </trkpt>
      <trkpt lat="42.71184" lon="0.81703">
        <ele>1764.1</ele>
        <time>2018-11-23T23:35:55Z</time>
      </trkpt>
      <trkpt lat="42.7118" lon="0.81716">
        <ele>1767.1</ele>
        <time>2018-11-23T23:35:58Z</time>
      </trkpt>
      <trkpt lat="42.71173" lon="0.81724">
        <ele>1768.1</ele>
        <time>2018-11-23T23:36:02Z</time>
      </trkpt>
      <trkpt lat="42.71169" lon="0.81736">
        <ele>1769.1</ele>
        <time>2018-11-23T23:36:06Z</time>
      </trkpt>
      <trkpt lat="42.71167" lon="0.81749">
        <ele>1767.1</ele>
        <time>2018-11-23T23:36:10Z</time>
      </trkpt>
      <trkpt lat="42.71165" lon="0.81762">
        <ele>1768</ele>
        <time>2018-11-23T23:36:14Z</time>
      </trkpt>
      <trkpt lat="42.71162" lon="0.81774">
        <ele>1768.1</ele>
        <time>2018-11-23T23:36:17Z</time>
      </trkpt>
      <trkpt lat="42.7116" lon="0.81787">
        <ele>1768</ele>
        <time>2018-11-23T23:36:21Z</time>
      </trkpt>
      <trkpt lat="42.71158" lon="0.818">
        <ele>1769.1</ele>
        <time>2018-11-23T23:36:26Z</time>
      </trkpt>
      <trkpt lat="42.71155" lon="0.81813">
        <ele>1771</ele>
        <time>2018-11-23T23:36:29Z</time>
      </trkpt>
      <trkpt lat="42.71155" lon="0.81826">
        <ele>1772</ele>
        <time>2018-11-23T23:36:33Z</time>
      </trkpt>
      <trkpt lat="42.71155" lon="0.81839">
        <ele>1774</ele>
        <time>2018-11-23T23:36:37Z</time>
      </trkpt>
      <trkpt lat="42.71157" lon="0.81852">
        <ele>1775</ele>
        <time>2018-11-23T23:36:41Z</time>
      </trkpt>
      <trkpt lat="42.7116" lon="0.81865">
        <ele>1777</ele>
        <time>2018-11-23T23:36:45Z</time>
      </trkpt>
      <trkpt lat="42.71161" lon="0.81878">
        <ele>1779.1</ele>
        <time>2018-11-23T23:36:49Z</time>
      </trkpt>
      <trkpt lat="42.71164" lon="0.81891">
        <ele>1780</ele>
        <time>2018-11-23T23:36:53Z</time>
      </trkpt>
      <trkpt lat="42.71167" lon="0.81904">
        <ele>1782.1</ele>
        <time>2018-11-23T23:36:57Z</time>
      </trkpt>
      <trkpt lat="42.71173" lon="0.81915">
        <ele>1785</ele>
        <time>2018-11-23T23:37:01Z</time>
      </trkpt>
      <trkpt lat="42.71178" lon="0.81926">
        <ele>1786.1</ele>
        <time>2018-11-23T23:37:05Z</time>
      </trkpt>
      <trkpt lat="42.71183" lon="0.81937">
        <ele>1789</ele>
        <time>2018-11-23T23:37:08Z</time>
      </trkpt>
      <trkpt lat="42.71183" lon="0.81951">
        <ele>1791.1</ele>
        <time>2018-11-23T23:37:12Z</time>
      </trkpt>
      <trkpt lat="42.7118" lon="0.81964">
        <ele>1792</ele>
        <time>2018-11-23T23:37:16Z</time>
      </trkpt>
      <trkpt lat="42.71179" lon="0.81978">
        <ele>1794</ele>
        <time>2018-11-23T23:37:21Z</time>
      </trkpt>
      <trkpt lat="42.71175" lon="0.8199">
        <ele>1796</ele>
        <time>2018-11-23T23:37:24Z</time>
      </trkpt>
      <trkpt lat="42.71175" lon="0.82003">
        <ele>1798</ele>
        <time>2018-11-23T23:37:28Z</time>
      </trkpt>
      <trkpt lat="42.71173" lon="0.82016">
        <ele>1800.1</ele>
        <time>2018-11-23T23:37:32Z</time>
      </trkpt>
      <trkpt lat="42.71174" lon="0.82029">
        <ele>1802.1</ele>
        <time>2018-11-23T23:37:36Z</time>
      </trkpt>
      <trkpt lat="42.71178" lon="0.82042">
        <ele>1805</ele>
        <time>2018-11-23T23:37:40Z</time>
      </trkpt>
      <trkpt lat="42.71184" lon="0.82052">
        <ele>1807</ele>
        <time>2018-11-23T23:37:44Z</time>
      </trkpt>
      <trkpt lat="42.71189" lon="0.82063">
        <ele>1810.1</ele>
        <time>2018-11-23T23:37:48Z</time>
      </trkpt>
      <trkpt lat="42.71194" lon="0.82074">
        <ele>1812</ele>
        <time>2018-11-23T23:37:52Z</time>
      </trkpt>
      <trkpt lat="42.71191" lon="0.82087">
        <ele>1813</ele>
        <time>2018-11-23T23:37:55Z</time>
      </trkpt>
      <trkpt lat="42.71188" lon="0.82099">
        <ele>1815.1</ele>
        <time>2018-11-23T23:37:59Z</time>
      </trkpt>
      <trkpt lat="42.71184" lon="0.82111">
        <ele>1816</ele>
        <time>2018-11-23T23:38:03Z</time>
      </trkpt>
      <trkpt lat="42.7118" lon="0.82123">
        <ele>1817</ele>
        <time>2018-11-23T23:38:07Z</time>
      </trkpt>
      <trkpt lat="42.71175" lon="0.82134">
        <ele>1818</ele>
        <time>2018-11-23T23:38:11Z</time>
      </trkpt>
      <trkpt lat="42.71172" lon="0.82146">
        <ele>1821</ele>
        <time>2018-11-23T23:38:15Z</time>
      </trkpt>
      <trkpt lat="42.71169" lon="0.82159">
        <ele>1823</ele>
        <time>2018-11-23T23:38:19Z</time>
      </trkpt>
      <trkpt lat="42.71167" lon="0.82173">
        <ele>1824</ele>
        <time>2018-11-23T23:38:23Z</time>
      </trkpt>
      <trkpt lat="42.71166" lon="0.82186">
        <ele>1827.1</ele>
        <time>2018-11-23T23:38:27Z</time>
      </trkpt>
      <trkpt lat="42.71168" lon="0.82199">
        <ele>1830.1</ele>
        <time>2018-11-23T23:38:30Z</time>
      </trkpt>
      <trkpt lat="42.71172" lon="0.8221">
        <ele>1833.1</ele>
        <time>2018-11-23T23:38:34Z</time>
      </trkpt>
      <trkpt lat="42.71172" lon="0.82224">
        <ele>1836</ele>
        <time>2018-11-23T23:38:38Z</time>
      </trkpt>
      <trkpt lat="42.71175" lon="0.82236">
        <ele>1838.1</ele>
        <time>2018-11-23T23:38:42Z</time>
      </trkpt>
      <trkpt lat="42.7118" lon="0.82247">
        <ele>1841</ele>
        <time>2018-11-23T23:38:45Z</time>
      </trkpt>
      <trkpt lat="42.71184" lon="0.82258">
        <ele>1844</ele>
        <time>2018-11-23T23:38:49Z</time>
      </trkpt>
      <trkpt lat="42.71185" lon="0.82271">
        <ele>1847</ele>
        <time>2018-11-23T23:38:53Z</time>
      </trkpt>
      <trkpt lat="42.71185" lon="0.82285">
        <ele>1850.1</ele>
        <time>2018-11-23T23:38:57Z</time>
      </trkpt>
      <trkpt lat="42.71188" lon="0.82297">
        <ele>1853</ele>
        <time>2018-11-23T23:39:01Z</time>
      </trkpt>
      <trkpt lat="42.71192" lon="0.82311">
        <ele>1857</ele>
        <time>2018-11-23T23:39:05Z</time>
      </trkpt>
      <trkpt lat="42.71197" lon="0.82322">
        <ele>1856</ele>
        <time>2018-11-23T23:39:09Z</time>
      </trkpt>
      <trkpt lat="42.71204" lon="0.8233">
        <ele>1854.1</ele>
        <time>2018-11-23T23:39:13Z</time>
      </trkpt>
      <trkpt lat="42.71211" lon="0.82339">
        <ele>1854</ele>
        <time>2018-11-23T23:39:17Z</time>
      </trkpt>
      <trkpt lat="42.71217" lon="0.82351">
        <ele>1856</ele>
        <time>2018-11-23T23:39:21Z</time>
      </trkpt>
      <trkpt lat="42.71221" lon="0.82363">
        <ele>1857.1</ele>
        <time>2018-11-23T23:39:25Z</time>
      </trkpt>
      <trkpt lat="42.71224" lon="0.82375">
        <ele>1860</ele>
        <time>2018-11-23T23:39:29Z</time>
      </trkpt>
      <trkpt lat="42.71227" lon="0.82388">
        <ele>1862.1</ele>
        <time>2018-11-23T23:39:33Z</time>
      </trkpt>
      <trkpt lat="42.71232" lon="0.82398">
        <ele>1865</ele>
        <time>2018-11-23T23:39:36Z</time>
      </trkpt>
      <trkpt lat="42.71241" lon="0.82406">
        <ele>1869</ele>
        <time>2018-11-23T23:39:40Z</time>
      </trkpt>
      <trkpt lat="42.7125" lon="0.82413">
        <ele>1873.1</ele>
        <time>2018-11-23T23:39:45Z</time>
      </trkpt>
      <trkpt lat="42.71256" lon="0.82423">
        <ele>1877</ele>
        <time>2018-11-23T23:39:48Z</time>
      </trkpt>
      <trkpt lat="42.71263" lon="0.82434">
        <ele>1882.1</ele>
        <time>2018-11-23T23:39:52Z</time>
      </trkpt>
      <trkpt lat="42.71271" lon="0.82441">
        <ele>1885.1</ele>
        <time>2018-11-23T23:39:56Z</time>
      </trkpt>
      <trkpt lat="42.71275" lon="0.82452">
        <ele>1887.1</ele>
        <time>2018-11-23T23:40:00Z</time>
      </trkpt>
      <trkpt lat="42.71281" lon="0.82462">
        <ele>1890.1</ele>
        <time>2018-11-23T23:40:04Z</time>
      </trkpt>
      <trkpt lat="42.71289" lon="0.82469">
        <ele>1892.1</ele>
        <time>2018-11-23T23:40:08Z</time>
      </trkpt>
      <trkpt lat="42.71298" lon="0.82475">
        <ele>1895.1</ele>
        <time>2018-11-23T23:40:12Z</time>
      </trkpt>
      <trkpt lat="42.71306" lon="0.82483">
        <ele>1897</ele>
        <time>2018-11-23T23:40:16Z</time>
      </trkpt>
      <trkpt lat="42.71316" lon="0.82484">
        <ele>1899.1</ele>
        <time>2018-11-23T23:40:20Z</time>
      </trkpt>
      <trkpt lat="42.71325" lon="0.82479">
        <ele>1901</ele>
        <time>2018-11-23T23:40:23Z</time>
      </trkpt>
      <trkpt lat="42.71323" lon="0.82492">
        <ele>1902</ele>
        <time>2018-11-23T23:40:27Z</time>
      </trkpt>
      <trkpt lat="42.71325" lon="0.82505">
        <ele>1903</ele>
        <time>2018-11-23T23:40:31Z</time>
      </trkpt>
      <trkpt lat="42.71325" lon="0.82519">
        <ele>1903</ele>
        <time>2018-11-23T23:40:35Z</time>
      </trkpt>
      <trkpt lat="42.71324" lon="0.82531">
        <ele>1904.1</ele>
        <time>2018-11-23T23:40:39Z</time>
      </trkpt>
      <trkpt lat="42.71321" lon="0.82544">
        <ele>1905</ele>
        <time>2018-11-23T23:40:43Z</time>
      </trkpt>
      <trkpt lat="42.71316" lon="0.82556">
        <ele>1905</ele>
        <time>2018-11-23T23:40:47Z</time>
      </trkpt>
      <trkpt lat="42.71312" lon="0.82567">
        <ele>1906.1</ele>
        <time>2018-11-23T23:40:51Z</time>
      </trkpt>
      <trkpt lat="42.71312" lon="0.8258">
        <ele>1907</ele>
        <time>2018-11-23T23:40:54Z</time>
      </trkpt>
      <trkpt lat="42.71307" lon="0.82593">
        <ele>1908.1</ele>
        <time>2018-11-23T23:40:59Z</time>
      </trkpt>
      <trkpt lat="42.71304" lon="0.82604">
        <ele>1908.1</ele>
        <time>2018-11-23T23:41:02Z</time>
      </trkpt>
      <trkpt lat="42.71301" lon="0.82616">
        <ele>1909</ele>
        <time>2018-11-23T23:41:06Z</time>
      </trkpt>
      <trkpt lat="42.713" lon="0.82629">
        <ele>1910</ele>
        <time>2018-11-23T23:41:10Z</time>
      </trkpt>
      <trkpt lat="42.71297" lon="0.82641">
        <ele>1911</ele>
        <time>2018-11-23T23:41:13Z</time>
      </trkpt>
      <trkpt lat="42.71294" lon="0.82654">
        <ele>1911.1</ele>
        <time>2018-11-23T23:41:17Z</time>
      </trkpt>
      <trkpt lat="42.71292" lon="0.82667">
        <ele>1912</ele>
        <time>2018-11-23T23:41:21Z</time>
      </trkpt>
      <trkpt lat="42.71288" lon="0.82679">
        <ele>1910.1</ele>
        <time>2018-11-23T23:41:25Z</time>
      </trkpt>
      <trkpt lat="42.71283" lon="0.82692">
        <ele>1911.1</ele>
        <time>2018-11-23T23:41:29Z</time>
      </trkpt>
      <trkpt lat="42.71279" lon="0.82705">
        <ele>1912</ele>
        <time>2018-11-23T23:41:34Z</time>
      </trkpt>
      <trkpt lat="42.71284" lon="0.82717">
        <ele>1913.1</ele>
        <time>2018-11-23T23:41:38Z</time>
      </trkpt>
      <trkpt lat="42.7129" lon="0.82727">
        <ele>1916.1</ele>
        <time>2018-11-23T23:41:42Z</time>
      </trkpt>
      <trkpt lat="42.7129" lon="0.82741">
        <ele>1918</ele>
        <time>2018-11-23T23:41:46Z</time>
      </trkpt>
      <trkpt lat="42.71291" lon="0.82754">
        <ele>1919.1</ele>
        <time>2018-11-23T23:41:50Z</time>
      </trkpt>
      <trkpt lat="42.71294" lon="0.82767">
        <ele>1921</ele>
        <time>2018-11-23T23:41:54Z</time>
      </trkpt>
      <trkpt lat="42.71299" lon="0.82778">
        <ele>1923</ele>
        <time>2018-11-23T23:41:58Z</time>
      </trkpt>
      <trkpt lat="42.71303" lon="0.82791">
        <ele>1926</ele>
        <time>2018-11-23T23:42:02Z</time>
      </trkpt>
      <trkpt lat="42.71308" lon="0.82803">
        <ele>1928</ele>
        <time>2018-11-23T23:42:06Z</time>
      </trkpt>
      <trkpt lat="42.71311" lon="0.82815">
        <ele>1930.1</ele>
        <time>2018-11-23T23:42:09Z</time>
      </trkpt>
      <trkpt lat="42.71317" lon="0.82824">
        <ele>1932</ele>
        <time>2018-11-23T23:42:13Z</time>
      </trkpt>
      <trkpt lat="42.71324" lon="0.82833">
        <ele>1935</ele>
        <time>2018-11-23T23:42:17Z</time>
      </trkpt>
      <trkpt lat="42.7133" lon="0.82843">
        <ele>1938</ele>
        <time>2018-11-23T23:42:21Z</time>
      </trkpt>
      <trkpt lat="42.71337" lon="0.82851">
        <ele>1942</ele>
        <time>2018-11-23T23:42:24Z</time>
      </trkpt>
      <trkpt lat="42.7134" lon="0.82864">
        <ele>1944</ele>
        <time>2018-11-23T23:42:28Z</time>
      </trkpt>
      <trkpt lat="42.71348" lon="0.82872">
        <ele>1947</ele>
        <time>2018-11-23T23:42:32Z</time>
      </trkpt>
      <trkpt lat="42.71353" lon="0.82882">
        <ele>1948.1</ele>
        <time>2018-11-23T23:42:36Z</time>
      </trkpt>
      <trkpt lat="42.7136" lon="0.82891">
        <ele>1950.1</ele>
        <time>2018-11-23T23:42:40Z</time>
      </trkpt>
      <trkpt lat="42.71367" lon="0.829">
        <ele>1952</ele>
        <time>2018-11-23T23:42:44Z</time>
      </trkpt>
      <trkpt lat="42.71375" lon="0.82908">
        <ele>1955</ele>
        <time>2018-11-23T23:42:47Z</time>
      </trkpt>
      <trkpt lat="42.71384" lon="0.82912">
        <ele>1957</ele>
        <time>2018-11-23T23:42:51Z</time>
      </trkpt>
      <trkpt lat="42.71394" lon="0.82916">
        <ele>1959.1</ele>
        <time>2018-11-23T23:42:55Z</time>
      </trkpt>
      <trkpt lat="42.71403" lon="0.82911">
        <ele>1962</ele>
        <time>2018-11-23T23:42:59Z</time>
      </trkpt>
      <trkpt lat="42.71412" lon="0.82907">
        <ele>1966.1</ele>
        <time>2018-11-23T23:43:03Z</time>
      </trkpt>
      <trkpt lat="42.71421" lon="0.82909">
        <ele>1970</ele>
        <time>2018-11-23T23:43:07Z</time>
      </trkpt>
      <trkpt lat="42.7143" lon="0.82909">
        <ele>1973.1</ele>
        <time>2018-11-23T23:43:10Z</time>
      </trkpt>
      <trkpt lat="42.71439" lon="0.82906">
        <ele>1975</ele>
        <time>2018-11-23T23:43:14Z</time>
      </trkpt>
      <trkpt lat="42.71444" lon="0.82894">
        <ele>1978.1</ele>
        <time>2018-11-23T23:43:18Z</time>
      </trkpt>
      <trkpt lat="42.7145" lon="0.82886">
        <ele>1981.1</ele>
        <time>2018-11-23T23:43:22Z</time>
      </trkpt>
      <trkpt lat="42.71458" lon="0.82878">
        <ele>1984</ele>
        <time>2018-11-23T23:43:25Z</time>
      </trkpt>
      <trkpt lat="42.71467" lon="0.82877">
        <ele>1986</ele>
        <time>2018-11-23T23:43:29Z</time>
      </trkpt>
      <trkpt lat="42.71476" lon="0.8288">
        <ele>1989</ele>
        <time>2018-11-23T23:43:33Z</time>
      </trkpt>
      <trkpt lat="42.71485" lon="0.82874">
        <ele>1992.1</ele>
        <time>2018-11-23T23:43:37Z</time>
      </trkpt>
      <trkpt lat="42.71494" lon="0.82876">
        <ele>1995</ele>
        <time>2018-11-23T23:43:41Z</time>
      </trkpt>
      <trkpt lat="42.71502" lon="0.82883">
        <ele>1998.1</ele>
        <time>2018-11-23T23:43:44Z</time>
      </trkpt>
      <trkpt lat="42.71511" lon="0.82889">
        <ele>2000</ele>
        <time>2018-11-23T23:43:48Z</time>
      </trkpt>
      <trkpt lat="42.71517" lon="0.829">
        <ele>2002</ele>
        <time>2018-11-23T23:43:52Z</time>
      </trkpt>
      <trkpt lat="42.7152" lon="0.82913">
        <ele>2004</ele>
        <time>2018-11-23T23:43:56Z</time>
      </trkpt>
      <trkpt lat="42.71522" lon="0.82927">
        <ele>2005.1</ele>
        <time>2018-11-23T23:44:00Z</time>
      </trkpt>
      <trkpt lat="42.71519" lon="0.82939">
        <ele>2006</ele>
        <time>2018-11-23T23:44:04Z</time>
      </trkpt>
      <trkpt lat="42.71516" lon="0.82951">
        <ele>2006.1</ele>
        <time>2018-11-23T23:44:08Z</time>
      </trkpt>
      <trkpt lat="42.71513" lon="0.82963">
        <ele>2006</ele>
        <time>2018-11-23T23:44:12Z</time>
      </trkpt>
      <trkpt lat="42.7151" lon="0.82976">
        <ele>2007</ele>
        <time>2018-11-23T23:44:16Z</time>
      </trkpt>
      <trkpt lat="42.71509" lon="0.8299">
        <ele>2007</ele>
        <time>2018-11-23T23:44:20Z</time>
      </trkpt>
      <trkpt lat="42.71507" lon="0.83002">
        <ele>2008.1</ele>
        <time>2018-11-23T23:44:23Z</time>
      </trkpt>
      <trkpt lat="42.71501" lon="0.83013">
        <ele>2010</ele>
        <time>2018-11-23T23:44:27Z</time>
      </trkpt>
      <trkpt lat="42.71497" lon="0.83025">
        <ele>2012.1</ele>
        <time>2018-11-23T23:44:31Z</time>
      </trkpt>
      <trkpt lat="42.71502" lon="0.83037">
        <ele>2015.1</ele>
        <time>2018-11-23T23:44:35Z</time>
      </trkpt>
      <trkpt lat="42.71509" lon="0.83046">
        <ele>2018</ele>
        <time>2018-11-23T23:44:39Z</time>
      </trkpt>
      <trkpt lat="42.71518" lon="0.83046">
        <ele>2023.1</ele>
        <time>2018-11-23T23:44:43Z</time>
      </trkpt>
      <trkpt lat="42.71517" lon="0.83059">
        <ele>2025</ele>
        <time>2018-11-23T23:44:46Z</time>
      </trkpt>
      <trkpt lat="42.71516" lon="0.83073">
        <ele>2026</ele>
        <time>2018-11-23T23:44:50Z</time>
      </trkpt>
      <trkpt lat="42.7152" lon="0.83084">
        <ele>2030</ele>
        <time>2018-11-23T23:44:54Z</time>
      </trkpt>
      <trkpt lat="42.71528" lon="0.83091">
        <ele>2033.1</ele>
        <time>2018-11-23T23:44:58Z</time>
      </trkpt>
      <trkpt lat="42.71537" lon="0.83086">
        <ele>2038</ele>
        <time>2018-11-23T23:45:02Z</time>
      </trkpt>
      <trkpt lat="42.71545" lon="0.83093">
        <ele>2043</ele>
        <time>2018-11-23T23:45:06Z</time>
      </trkpt>
      <trkpt lat="42.71553" lon="0.831">
        <ele>2047.1</ele>
        <time>2018-11-23T23:45:09Z</time>
      </trkpt>
      <trkpt lat="42.71561" lon="0.83092">
        <ele>2052</ele>
        <time>2018-11-23T23:45:13Z</time>
      </trkpt>
      <trkpt lat="42.71569" lon="0.831">
        <ele>2061.1</ele>
        <time>2018-11-23T23:45:17Z</time>
      </trkpt>
      <trkpt lat="42.71573" lon="0.83087">
        <ele>2066</ele>
        <time>2018-11-23T23:45:21Z</time>
      </trkpt>
      <trkpt lat="42.71576" lon="0.83074">
        <ele>2067</ele>
        <time>2018-11-23T23:45:25Z</time>
      </trkpt>
      <trkpt lat="42.71583" lon="0.83067">
        <ele>2072</ele>
        <time>2018-11-23T23:45:29Z</time>
      </trkpt>
      <trkpt lat="42.71589" lon="0.83077">
        <ele>2077.1</ele>
        <time>2018-11-23T23:45:33Z</time>
      </trkpt>
      <trkpt lat="42.71596" lon="0.83087">
        <ele>2082.1</ele>
        <time>2018-11-23T23:45:37Z</time>
      </trkpt>
      <trkpt lat="42.71599" lon="0.83098">
        <ele>2086</ele>
        <time>2018-11-23T23:45:40Z</time>
      </trkpt>
      <trkpt lat="42.71601" lon="0.8311">
        <ele>2091</ele>
        <time>2018-11-23T23:45:44Z</time>
      </trkpt>
      <trkpt lat="42.71607" lon="0.8312">
        <ele>2095</ele>
        <time>2018-11-23T23:45:48Z</time>
      </trkpt>
      <trkpt lat="42.71616" lon="0.83126">
        <ele>2101</ele>
        <time>2018-11-23T23:45:52Z</time>
      </trkpt>
      <trkpt lat="42.71626" lon="0.83125">
        <ele>2106.1</ele>
        <time>2018-11-23T23:45:56Z</time>
      </trkpt>
      <trkpt lat="42.7163" lon="0.83137">
        <ele>2110</ele>
        <time>2018-11-23T23:45:59Z</time>
      </trkpt>
      <trkpt lat="42.71638" lon="0.8313">
        <ele>2116</ele>
        <time>2018-11-23T23:46:03Z</time>
      </trkpt>
      <trkpt lat="42.71644" lon="0.8314">
        <ele>2119.1</ele>
        <time>2018-11-23T23:46:07Z</time>
      </trkpt>
      <trkpt lat="42.71649" lon="0.83151">
        <ele>2125</ele>
        <time>2018-11-23T23:46:11Z</time>
      </trkpt>
      <trkpt lat="42.71658" lon="0.83153">
        <ele>2130</ele>
        <time>2018-11-23T23:46:15Z</time>
      </trkpt>
      <trkpt lat="42.71664" lon="0.83164">
        <ele>2134.1</ele>
        <time>2018-11-23T23:46:19Z</time>
      </trkpt>
      <trkpt lat="42.71671" lon="0.83174">
        <ele>2138</ele>
        <time>2018-11-23T23:46:23Z</time>
      </trkpt>
      <trkpt lat="42.71671" lon="0.83188">
        <ele>2141</ele>
        <time>2018-11-23T23:46:27Z</time>
      </trkpt>
      <trkpt lat="42.71665" lon="0.83198">
        <ele>2142.1</ele>
        <time>2018-11-23T23:46:30Z</time>
      </trkpt>
      <trkpt lat="42.71665" lon="0.83211">
        <ele>2143</ele>
        <time>2018-11-23T23:46:34Z</time>
      </trkpt>
      <trkpt lat="42.71669" lon="0.83223">
        <ele>2146</ele>
        <time>2018-11-23T23:46:38Z</time>
      </trkpt>
      <trkpt lat="42.71671" lon="0.83236">
        <ele>2149</ele>
        <time>2018-11-23T23:46:42Z</time>
      </trkpt>
      <trkpt lat="42.7167" lon="0.83249">
        <ele>2151</ele>
        <time>2018-11-23T23:46:46Z</time>
      </trkpt>
      <trkpt lat="42.71677" lon="0.83257">
        <ele>2155.1</ele>
        <time>2018-11-23T23:46:49Z</time>
      </trkpt>
      <trkpt lat="42.71686" lon="0.83264">
        <ele>2157</ele>
        <time>2018-11-23T23:46:53Z</time>
      </trkpt>
      <trkpt lat="42.71695" lon="0.8327">
        <ele>2159.1</ele>
        <time>2018-11-23T23:46:57Z</time>
      </trkpt>
      <trkpt lat="42.71696" lon="0.83283">
        <ele>2159</ele>
        <time>2018-11-23T23:47:01Z</time>
      </trkpt>
      <trkpt lat="42.71693" lon="0.83295">
        <ele>2162.1</ele>
        <time>2018-11-23T23:47:05Z</time>
      </trkpt>
      <trkpt lat="42.71694" lon="0.83308">
        <ele>2164.1</ele>
        <time>2018-11-23T23:47:09Z</time>
      </trkpt>
      <trkpt lat="42.71691" lon="0.8332">
        <ele>2166.1</ele>
        <time>2018-11-23T23:47:13Z</time>
      </trkpt>
      <trkpt lat="42.71693" lon="0.83334">
        <ele>2168.1</ele>
        <time>2018-11-23T23:47:17Z</time>
      </trkpt>
      <trkpt lat="42.71697" lon="0.83348">
        <ele>2170</ele>
        <time>2018-11-23T23:47:21Z</time>
      </trkpt>
      <trkpt lat="42.71702" lon="0.83359">
        <ele>2171</ele>
        <time>2018-11-23T23:47:25Z</time>
      </trkpt>
      <trkpt lat="42.71707" lon="0.83372">
        <ele>2172</ele>
        <time>2018-11-23T23:47:29Z</time>
      </trkpt>
      <trkpt lat="42.71709" lon="0.83386">
        <ele>2173</ele>
        <time>2018-11-23T23:47:33Z</time>
      </trkpt>
      <trkpt lat="42.71712" lon="0.83398">
        <ele>2174.1</ele>
        <time>2018-11-23T23:47:37Z</time>
      </trkpt>
      <trkpt lat="42.71718" lon="0.83409">
        <ele>2176</ele>
        <time>2018-11-23T23:47:41Z</time>
      </trkpt>
      <trkpt lat="42.71745" lon="0.83457">
        <ele>2178.1</ele>
        <time>2018-11-23T23:47:59Z</time>
      </trkpt>
      <trkpt lat="42.71736" lon="0.83472">
        <ele>2168.6</ele>
        <time>2018-11-23T23:48:05Z</time>
      </trkpt>
      <trkpt lat="42.71752" lon="0.83534">
        <ele>2164.2</ele>
        <time>2018-11-23T23:48:24Z</time>
      </trkpt>
      <trkpt lat="42.71762" lon="0.83631">
        <ele>2162.8</ele>
        <time>2018-11-23T23:48:53Z</time>
      </trkpt>
      <trkpt lat="42.71762" lon="0.83635">
        <ele>2162.4</ele>
        <time>2018-11-23T23:48:54Z</time>
      </trkpt>
      <trkpt lat="42.71791" lon="0.83697">
        <ele>2163.2</ele>
        <time>2018-11-23T23:49:16Z</time>
      </trkpt>
      <trkpt lat="42.71793" lon="0.83697">
        <ele>2162.7</ele>
        <time>2018-11-23T23:49:16Z</time>
      </trkpt>
      <trkpt lat="42.7184" lon="0.83706">
        <ele>2154.3</ele>
        <time>2018-11-23T23:49:35Z</time>
      </trkpt>
      <trkpt lat="42.71843" lon="0.83709">
        <ele>2154</ele>
        <time>2018-11-23T23:49:37Z</time>
      </trkpt>
      <trkpt lat="42.71892" lon="0.83731">
        <ele>2150.1</ele>
        <time>2018-11-23T23:49:57Z</time>
      </trkpt>
      <trkpt lat="42.71895" lon="0.83735">
        <ele>2149.9</ele>
        <time>2018-11-23T23:49:59Z</time>
      </trkpt>
      <trkpt lat="42.71935" lon="0.83768">
        <ele>2150.5</ele>
        <time>2018-11-23T23:50:18Z</time>
      </trkpt>
      <trkpt lat="42.71937" lon="0.83768">
        <ele>2150.8</ele>
        <time>2018-11-23T23:50:19Z</time>
      </trkpt>
      <trkpt lat="42.71971" lon="0.83795">
        <ele>2149.4</ele>
        <time>2018-11-23T23:50:34Z</time>
      </trkpt>
      <trkpt lat="42.71973" lon="0.83795">
        <ele>2149.3</ele>
        <time>2018-11-23T23:50:35Z</time>
      </trkpt>
      <trkpt lat="42.72005" lon="0.83857">
        <ele>2145.9</ele>
        <time>2018-11-23T23:50:57Z</time>
      </trkpt>
      <trkpt lat="42.72012" lon="0.83914">
        <ele>2146.3</ele>
        <time>2018-11-23T23:51:15Z</time>
      </trkpt>
      <trkpt lat="42.72014" lon="0.83914">
        <ele>2146.1</ele>
        <time>2018-11-23T23:51:15Z</time>
      </trkpt>
      <trkpt lat="42.72023" lon="0.84025">
        <ele>2153.1</ele>
        <time>2018-11-23T23:51:48Z</time>
      </trkpt>
      <trkpt lat="42.72023" lon="0.84027">
        <ele>2153.3</ele>
        <time>2018-11-23T23:51:49Z</time>
      </trkpt>
      <trkpt lat="42.72028" lon="0.8414">
        <ele>2159.7</ele>
        <time>2018-11-23T23:52:22Z</time>
      </trkpt>
      <trkpt lat="42.72034" lon="0.8414">
        <ele>2159.6</ele>
        <time>2018-11-23T23:52:24Z</time>
      </trkpt>
      <trkpt lat="42.72041" lon="0.84264">
        <ele>2171.2</ele>
        <time>2018-11-23T23:53:01Z</time>
      </trkpt>
      <trkpt lat="42.72054" lon="0.84364">
        <ele>2187.7</ele>
        <time>2018-11-23T23:53:30Z</time>
      </trkpt>
      <trkpt lat="42.72057" lon="0.84364">
        <ele>2188.5</ele>
        <time>2018-11-23T23:53:32Z</time>
      </trkpt>
      <trkpt lat="42.72064" lon="0.8453">
        <ele>2232.7</ele>
        <time>2018-11-23T23:54:21Z</time>
      </trkpt>
      <trkpt lat="42.72066" lon="0.8453">
        <ele>2233</ele>
        <time>2018-11-23T23:54:21Z</time>
      </trkpt>
      <trkpt lat="42.72073" lon="0.84616">
        <ele>2248.5</ele>
        <time>2018-11-23T23:54:47Z</time>
      </trkpt>
      <trkpt lat="42.72118" lon="0.84667">
        <ele>2252.3</ele>
        <time>2018-11-23T23:55:10Z</time>
      </trkpt>
      <trkpt lat="42.72177" lon="0.84718">
        <ele>2245.6</ele>
        <time>2018-11-23T23:55:38Z</time>
      </trkpt>
      <trkpt lat="42.72197" lon="0.84729">
        <ele>2249.6</ele>
        <time>2018-11-23T23:55:47Z</time>
      </trkpt>
      <trkpt lat="42.72233" lon="0.84768">
        <ele>2239.7</ele>
        <time>2018-11-23T23:56:05Z</time>
      </trkpt>
      <trkpt lat="42.72244" lon="0.84771">
        <ele>2240.8</ele>
        <time>2018-11-23T23:56:10Z</time>
      </trkpt>
      <trkpt lat="42.72291" lon="0.84839">
        <ele>2235.7</ele>
        <time>2018-11-23T23:56:37Z</time>
      </trkpt>
      <trkpt lat="42.72296" lon="0.84842">
        <ele>2236.1</ele>
        <time>2018-11-23T23:56:40Z</time>
      </trkpt>
      <trkpt lat="42.72359" lon="0.84886">
        <ele>2235</ele>
        <time>2018-11-23T23:57:08Z</time>
      </trkpt>
      <trkpt lat="42.724" lon="0.84892">
        <ele>2232.8</ele>
        <time>2018-11-23T23:57:25Z</time>
      </trkpt>
      <trkpt lat="42.7246" lon="0.8493">
        <ele>2225.4</ele>
        <time>2018-11-23T23:57:51Z</time>
      </trkpt>
      <trkpt lat="42.72503" lon="0.84959">
        <ele>2226.5</ele>
        <time>2018-11-23T23:58:10Z</time>
      </trkpt>
      <trkpt lat="42.72535" lon="0.85007">
        <ele>2230</ele>
        <time>2018-11-23T23:58:29Z</time>
      </trkpt>
      <trkpt lat="42.72553" lon="0.85081">
        <ele>2236.4</ele>
        <time>2018-11-23T23:58:52Z</time>
      </trkpt>
      <trkpt lat="42.72589" lon="0.85149">
        <ele>2238.7</ele>
        <time>2018-11-23T23:59:17Z</time>
      </trkpt>
      <trkpt lat="42.72614" lon="0.85235">
        <ele>2261.6</ele>
        <time>2018-11-23T23:59:44Z</time>
      </trkpt>
      <trkpt lat="42.72639" lon="0.85297">
        <ele>2275.8</ele>
        <time>2018-11-24T00:00:05Z</time>
      </trkpt>
      <trkpt lat="42.72679" lon="0.85366">
        <ele>2272.7</ele>
        <time>2018-11-24T00:00:30Z</time>
      </trkpt>
      <trkpt lat="42.72679" lon="0.85368">
        <ele>2272.5</ele>
        <time>2018-11-24T00:00:31Z</time>
      </trkpt>
      <trkpt lat="42.72731" lon="0.8545">
        <ele>2262.3</ele>
        <time>2018-11-24T00:01:03Z</time>
      </trkpt>
      <trkpt lat="42.72774" lon="0.85532">
        <ele>2273.2</ele>
        <time>2018-11-24T00:01:33Z</time>
      </trkpt>
      <trkpt lat="42.72808" lon="0.85579">
        <ele>2281.2</ele>
        <time>2018-11-24T00:01:52Z</time>
      </trkpt>
      <trkpt lat="42.7281" lon="0.85581">
        <ele>2281.9</ele>
        <time>2018-11-24T00:01:53Z</time>
      </trkpt>
      <trkpt lat="42.72851" lon="0.85623">
        <ele>2290.4</ele>
        <time>2018-11-24T00:02:14Z</time>
      </trkpt>
      <trkpt lat="42.72905" lon="0.85738">
        <ele>2296</ele>
        <time>2018-11-24T00:02:54Z</time>
      </trkpt>
      <trkpt lat="42.72953" lon="0.85863">
        <ele>2315</ele>
        <time>2018-11-24T00:03:35Z</time>
      </trkpt>
      <trkpt lat="42.72967" lon="0.85868">
        <ele>2318.4</ele>
        <time>2018-11-24T00:03:41Z</time>
      </trkpt>
      <trkpt lat="42.72984" lon="0.85886">
        <ele>2322.2</ele>
        <time>2018-11-24T00:03:50Z</time>
      </trkpt>
      <trkpt lat="42.72992" lon="0.85894">
        <ele>2324.1</ele>
        <time>2018-11-24T00:03:54Z</time>
      </trkpt>
      <trkpt lat="42.72975" lon="0.85883">
        <ele>2326</ele>
        <time>2018-11-24T00:04:01Z</time>
      </trkpt>
      <trkpt lat="42.72968" lon="0.85876">
        <ele>2324.6</ele>
        <time>2018-11-24T00:04:04Z</time>
      </trkpt>
      <trkpt lat="42.72961" lon="0.85868">
        <ele>2322.7</ele>
        <time>2018-11-24T00:04:08Z</time>
      </trkpt>
      <trkpt lat="42.72952" lon="0.85865">
        <ele>2321.3</ele>
        <time>2018-11-24T00:04:12Z</time>
      </trkpt>
      <trkpt lat="42.72946" lon="0.85873">
        <ele>2315.5</ele>
        <time>2018-11-24T00:04:15Z</time>
      </trkpt>
      <trkpt lat="42.72945" lon="0.85885">
        <ele>2312.6</ele>
        <time>2018-11-24T00:04:19Z</time>
      </trkpt>
      <trkpt lat="42.72941" lon="0.85896">
        <ele>2307.3</ele>
        <time>2018-11-24T00:04:22Z</time>
      </trkpt>
      <trkpt lat="42.72937" lon="0.85907">
        <ele>2302</ele>
        <time>2018-11-24T00:04:26Z</time>
      </trkpt>
      <trkpt lat="42.72929" lon="0.85917">
        <ele>2297.7</ele>
        <time>2018-11-24T00:04:30Z</time>
      </trkpt>
      <trkpt lat="42.72922" lon="0.85922">
        <ele>2294.3</ele>
        <time>2018-11-24T00:04:34Z</time>
      </trkpt>
      <trkpt lat="42.72914" lon="0.85931">
        <ele>2289.6</ele>
        <time>2018-11-24T00:04:37Z</time>
      </trkpt>
      <trkpt lat="42.72906" lon="0.85935">
        <ele>2285.2</ele>
        <time>2018-11-24T00:04:41Z</time>
      </trkpt>
      <trkpt lat="42.729" lon="0.85941">
        <ele>2280.8</ele>
        <time>2018-11-24T00:04:44Z</time>
      </trkpt>
      <trkpt lat="42.72892" lon="0.85949">
        <ele>2275.5</ele>
        <time>2018-11-24T00:04:48Z</time>
      </trkpt>
      <trkpt lat="42.72884" lon="0.85955">
        <ele>2271.7</ele>
        <time>2018-11-24T00:04:51Z</time>
      </trkpt>
      <trkpt lat="42.72877" lon="0.85963">
        <ele>2264.5</ele>
        <time>2018-11-24T00:04:55Z</time>
      </trkpt>
      <trkpt lat="42.7287" lon="0.85974">
        <ele>2260.6</ele>
        <time>2018-11-24T00:04:59Z</time>
      </trkpt>
      <trkpt lat="42.72863" lon="0.85984">
        <ele>2257.4</ele>
        <time>2018-11-24T00:05:03Z</time>
      </trkpt>
      <trkpt lat="42.72859" lon="0.85996">
        <ele>2253.4</ele>
        <time>2018-11-24T00:05:07Z</time>
      </trkpt>
      <trkpt lat="42.72857" lon="0.8601">
        <ele>2251</ele>
        <time>2018-11-24T00:05:12Z</time>
      </trkpt>
      <trkpt lat="42.72855" lon="0.86024">
        <ele>2249.2</ele>
        <time>2018-11-24T00:05:16Z</time>
      </trkpt>
      <trkpt lat="42.72854" lon="0.86039">
        <ele>2247.3</ele>
        <time>2018-11-24T00:05:20Z</time>
      </trkpt>
      <trkpt lat="42.72852" lon="0.86051">
        <ele>2245.4</ele>
        <time>2018-11-24T00:05:24Z</time>
      </trkpt>
      <trkpt lat="42.72849" lon="0.86065">
        <ele>2244.9</ele>
        <time>2018-11-24T00:05:28Z</time>
      </trkpt>
      <trkpt lat="42.72848" lon="0.86078">
        <ele>2243.8</ele>
        <time>2018-11-24T00:05:32Z</time>
      </trkpt>
      <trkpt lat="42.72847" lon="0.86092">
        <ele>2243.8</ele>
        <time>2018-11-24T00:05:36Z</time>
      </trkpt>
      <trkpt lat="42.72847" lon="0.86107">
        <ele>2243.8</ele>
        <time>2018-11-24T00:05:41Z</time>
      </trkpt>
      <trkpt lat="42.72848" lon="0.86121">
        <ele>2243.8</ele>
        <time>2018-11-24T00:05:45Z</time>
      </trkpt>
      <trkpt lat="42.72845" lon="0.86133">
        <ele>2243.4</ele>
        <time>2018-11-24T00:05:48Z</time>
      </trkpt>
      <trkpt lat="42.72844" lon="0.86146">
        <ele>2243.3</ele>
        <time>2018-11-24T00:05:52Z</time>
      </trkpt>
      <trkpt lat="42.72842" lon="0.86158">
        <ele>2241.4</ele>
        <time>2018-11-24T00:05:56Z</time>
      </trkpt>
      <trkpt lat="42.72841" lon="0.86172">
        <ele>2240.9</ele>
        <time>2018-11-24T00:06:00Z</time>
      </trkpt>
      <trkpt lat="42.7284" lon="0.86184">
        <ele>2241</ele>
        <time>2018-11-24T00:06:04Z</time>
      </trkpt>
      <trkpt lat="42.72841" lon="0.86197">
        <ele>2240</ele>
        <time>2018-11-24T00:06:07Z</time>
      </trkpt>
      <trkpt lat="42.72845" lon="0.8621">
        <ele>2239.5</ele>
        <time>2018-11-24T00:06:11Z</time>
      </trkpt>
      <trkpt lat="42.72846" lon="0.86223">
        <ele>2238.5</ele>
        <time>2018-11-24T00:06:15Z</time>
      </trkpt>
      <trkpt lat="42.72847" lon="0.86235">
        <ele>2237.6</ele>
        <time>2018-11-24T00:06:19Z</time>
      </trkpt>
      <trkpt lat="42.72848" lon="0.86249">
        <ele>2237.7</ele>
        <time>2018-11-24T00:06:23Z</time>
      </trkpt>
      <trkpt lat="42.72848" lon="0.86262">
        <ele>2237.7</ele>
        <time>2018-11-24T00:06:27Z</time>
      </trkpt>
      <trkpt lat="42.7285" lon="0.86276">
        <ele>2237.6</ele>
        <time>2018-11-24T00:06:31Z</time>
      </trkpt>
      <trkpt lat="42.72854" lon="0.86291">
        <ele>2237.6</ele>
        <time>2018-11-24T00:06:36Z</time>
      </trkpt>
      <trkpt lat="42.72859" lon="0.86305">
        <ele>2237.2</ele>
        <time>2018-11-24T00:06:40Z</time>
      </trkpt>
      <trkpt lat="42.72854" lon="0.86318">
        <ele>2239</ele>
        <time>2018-11-24T00:06:44Z</time>
      </trkpt>
      <trkpt lat="42.72854" lon="0.86331">
        <ele>2239</ele>
        <time>2018-11-24T00:06:48Z</time>
      </trkpt>
      <trkpt lat="42.72852" lon="0.86345">
        <ele>2239.1</ele>
        <time>2018-11-24T00:06:52Z</time>
      </trkpt>
      <trkpt lat="42.72847" lon="0.86358">
        <ele>2237.7</ele>
        <time>2018-11-24T00:06:56Z</time>
      </trkpt>
      <trkpt lat="42.72842" lon="0.8637">
        <ele>2237.7</ele>
        <time>2018-11-24T00:07:01Z</time>
      </trkpt>
      <trkpt lat="42.72839" lon="0.86383">
        <ele>2237.7</ele>
        <time>2018-11-24T00:07:05Z</time>
      </trkpt>
      <trkpt lat="42.72834" lon="0.86395">
        <ele>2237.1</ele>
        <time>2018-11-24T00:07:09Z</time>
      </trkpt>
      <trkpt lat="42.72827" lon="0.86406">
        <ele>2237.2</ele>
        <time>2018-11-24T00:07:13Z</time>
      </trkpt>
      <trkpt lat="42.72821" lon="0.86417">
        <ele>2237.2</ele>
        <time>2018-11-24T00:07:17Z</time>
      </trkpt>
      <trkpt lat="42.72816" lon="0.86429">
        <ele>2238.1</ele>
        <time>2018-11-24T00:07:21Z</time>
      </trkpt>
      <trkpt lat="42.72812" lon="0.8644">
        <ele>2238</ele>
        <time>2018-11-24T00:07:25Z</time>
      </trkpt>
      <trkpt lat="42.72808" lon="0.86454">
        <ele>2238</ele>
        <time>2018-11-24T00:07:29Z</time>
      </trkpt>
      <trkpt lat="42.72806" lon="0.86468">
        <ele>2238</ele>
        <time>2018-11-24T00:07:33Z</time>
      </trkpt>
      <trkpt lat="42.72801" lon="0.86481">
        <ele>2238</ele>
        <time>2018-11-24T00:07:37Z</time>
      </trkpt>
      <trkpt lat="42.72796" lon="0.86491">
        <ele>2238.1</ele>
        <time>2018-11-24T00:07:41Z</time>
      </trkpt>
      <trkpt lat="42.72789" lon="0.865">
        <ele>2239.1</ele>
        <time>2018-11-24T00:07:45Z</time>
      </trkpt>
      <trkpt lat="42.72782" lon="0.86511">
        <ele>2240</ele>
        <time>2018-11-24T00:07:49Z</time>
      </trkpt>
      <trkpt lat="42.72776" lon="0.86522">
        <ele>2240.1</ele>
        <time>2018-11-24T00:07:53Z</time>
      </trkpt>
      <trkpt lat="42.7277" lon="0.86531">
        <ele>2240.1</ele>
        <time>2018-11-24T00:07:57Z</time>
      </trkpt>
      <trkpt lat="42.72763" lon="0.86541">
        <ele>2240.5</ele>
        <time>2018-11-24T00:08:01Z</time>
      </trkpt>
      <trkpt lat="42.72757" lon="0.86553">
        <ele>2241.9</ele>
        <time>2018-11-24T00:08:05Z</time>
      </trkpt>
      <trkpt lat="42.72753" lon="0.86565">
        <ele>2242</ele>
        <time>2018-11-24T00:08:09Z</time>
      </trkpt>
      <trkpt lat="42.72746" lon="0.86576">
        <ele>2242.8</ele>
        <time>2018-11-24T00:08:13Z</time>
      </trkpt>
      <trkpt lat="42.72742" lon="0.86587">
        <ele>2242.9</ele>
        <time>2018-11-24T00:08:17Z</time>
      </trkpt>
      <trkpt lat="42.72736" lon="0.86598">
        <ele>2243.3</ele>
        <time>2018-11-24T00:08:21Z</time>
      </trkpt>
      <trkpt lat="42.72731" lon="0.86608">
        <ele>2243.3</ele>
        <time>2018-11-24T00:08:25Z</time>
      </trkpt>
      <trkpt lat="42.72726" lon="0.86621">
        <ele>2243.8</ele>
        <time>2018-11-24T00:08:29Z</time>
      </trkpt>
      <trkpt lat="42.7272" lon="0.86631">
        <ele>2244.8</ele>
        <time>2018-11-24T00:08:33Z</time>
      </trkpt>
      <trkpt lat="42.72714" lon="0.86642">
        <ele>2245.8</ele>
        <time>2018-11-24T00:08:37Z</time>
      </trkpt>
      <trkpt lat="42.72707" lon="0.86651">
        <ele>2245.8</ele>
        <time>2018-11-24T00:08:41Z</time>
      </trkpt>
      <trkpt lat="42.72702" lon="0.86664">
        <ele>2246.3</ele>
        <time>2018-11-24T00:08:45Z</time>
      </trkpt>
      <trkpt lat="42.72697" lon="0.86675">
        <ele>2246.3</ele>
        <time>2018-11-24T00:08:49Z</time>
      </trkpt>
      <trkpt lat="42.72692" lon="0.86687">
        <ele>2246.2</ele>
        <time>2018-11-24T00:08:53Z</time>
      </trkpt>
      <trkpt lat="42.72686" lon="0.86697">
        <ele>2246.7</ele>
        <time>2018-11-24T00:08:56Z</time>
      </trkpt>
      <trkpt lat="42.72679" lon="0.86705">
        <ele>2247.8</ele>
        <time>2018-11-24T00:09:00Z</time>
      </trkpt>
      <trkpt lat="42.72673" lon="0.86715">
        <ele>2248.1</ele>
        <time>2018-11-24T00:09:04Z</time>
      </trkpt>
      <trkpt lat="42.72668" lon="0.86726">
        <ele>2248.1</ele>
        <time>2018-11-24T00:09:08Z</time>
      </trkpt>
      <trkpt lat="42.72663" lon="0.86737">
        <ele>2246.7</ele>
        <time>2018-11-24T00:09:11Z</time>
      </trkpt>
      <trkpt lat="42.72659" lon="0.86747">
        <ele>2246.8</ele>
        <time>2018-11-24T00:09:15Z</time>
      </trkpt>
      <trkpt lat="42.72655" lon="0.86759">
        <ele>2246.3</ele>
        <time>2018-11-24T00:09:19Z</time>
      </trkpt>
      <trkpt lat="42.72651" lon="0.86772">
        <ele>2245.7</ele>
        <time>2018-11-24T00:09:23Z</time>
      </trkpt>
      <trkpt lat="42.72647" lon="0.86784">
        <ele>2245.3</ele>
        <time>2018-11-24T00:09:27Z</time>
      </trkpt>
      <trkpt lat="42.72645" lon="0.86797">
        <ele>2245.3</ele>
        <time>2018-11-24T00:09:31Z</time>
      </trkpt>
      <trkpt lat="42.72644" lon="0.8681">
        <ele>2245.4</ele>
        <time>2018-11-24T00:09:35Z</time>
      </trkpt>
      <trkpt lat="42.72644" lon="0.86823">
        <ele>2245.4</ele>
        <time>2018-11-24T00:09:38Z</time>
      </trkpt>
      <trkpt lat="42.72643" lon="0.86836">
        <ele>2245.4</ele>
        <time>2018-11-24T00:09:42Z</time>
      </trkpt>
      <trkpt lat="42.72644" lon="0.86848">
        <ele>2245.3</ele>
        <time>2018-11-24T00:09:46Z</time>
      </trkpt>
      <trkpt lat="42.72643" lon="0.8686">
        <ele>2245.4</ele>
        <time>2018-11-24T00:09:49Z</time>
      </trkpt>
      <trkpt lat="42.72638" lon="0.86871">
        <ele>2244.3</ele>
        <time>2018-11-24T00:09:53Z</time>
      </trkpt>
      <trkpt lat="42.72633" lon="0.86882">
        <ele>2243.8</ele>
        <time>2018-11-24T00:09:57Z</time>
      </trkpt>
      <trkpt lat="42.72625" lon="0.86889">
        <ele>2242.5</ele>
        <time>2018-11-24T00:10:01Z</time>
      </trkpt>
      <trkpt lat="42.72617" lon="0.86897">
        <ele>2241.4</ele>
        <time>2018-11-24T00:10:05Z</time>
      </trkpt>
      <trkpt lat="42.7261" lon="0.86907">
        <ele>2240.5</ele>
        <time>2018-11-24T00:10:09Z</time>
      </trkpt>
      <trkpt lat="42.72603" lon="0.86917">
        <ele>2239</ele>
        <time>2018-11-24T00:10:13Z</time>
      </trkpt>
      <trkpt lat="42.72596" lon="0.86926">
        <ele>2238</ele>
        <time>2018-11-24T00:10:17Z</time>
      </trkpt>
      <trkpt lat="42.7259" lon="0.86936">
        <ele>2237.2</ele>
        <time>2018-11-24T00:10:21Z</time>
      </trkpt>
      <trkpt lat="42.72582" lon="0.86945">
        <ele>2236.2</ele>
        <time>2018-11-24T00:10:25Z</time>
      </trkpt>
      <trkpt lat="42.72576" lon="0.86956">
        <ele>2235.7</ele>
        <time>2018-11-24T00:10:29Z</time>
      </trkpt>
      <trkpt lat="42.72569" lon="0.86966">
        <ele>2234.8</ele>
        <time>2018-11-24T00:10:33Z</time>
      </trkpt>
      <trkpt lat="42.72563" lon="0.86978">
        <ele>2234.3</ele>
        <time>2018-11-24T00:10:37Z</time>
      </trkpt>
      <trkpt lat="42.72557" lon="0.86986">
        <ele>2233.2</ele>
        <time>2018-11-24T00:10:40Z</time>
      </trkpt>
      <trkpt lat="42.72549" lon="0.86995">
        <ele>2232.3</ele>
        <time>2018-11-24T00:10:44Z</time>
      </trkpt>
      <trkpt lat="42.72542" lon="0.87004">
        <ele>2231.8</ele>
        <time>2018-11-24T00:10:48Z</time>
      </trkpt>
      <trkpt lat="42.72534" lon="0.8701">
        <ele>2231.4</ele>
        <time>2018-11-24T00:10:52Z</time>
      </trkpt>
      <trkpt lat="42.72526" lon="0.87018">
        <ele>2230.9</ele>
        <time>2018-11-24T00:10:56Z</time>
      </trkpt>
      <trkpt lat="42.72521" lon="0.87028">
        <ele>2229</ele>
        <time>2018-11-24T00:11:00Z</time>
      </trkpt>
      <trkpt lat="42.72517" lon="0.8704">
        <ele>2227.5</ele>
        <time>2018-11-24T00:11:03Z</time>
      </trkpt>
      <trkpt lat="42.72512" lon="0.87052">
        <ele>2225.6</ele>
        <time>2018-11-24T00:11:07Z</time>
      </trkpt>
      <trkpt lat="42.72508" lon="0.87063">
        <ele>2222.7</ele>
        <time>2018-11-24T00:11:11Z</time>
      </trkpt>
      <trkpt lat="42.72506" lon="0.87075">
        <ele>2219.4</ele>
        <time>2018-11-24T00:11:15Z</time>
      </trkpt>
      <trkpt lat="42.72506" lon="0.8709">
        <ele>2215.9</ele>
        <time>2018-11-24T00:11:19Z</time>
      </trkpt>
      <trkpt lat="42.72504" lon="0.87101">
        <ele>2211.7</ele>
        <time>2018-11-24T00:11:22Z</time>
      </trkpt>
      <trkpt lat="42.72501" lon="0.87114">
        <ele>2208.2</ele>
        <time>2018-11-24T00:11:26Z</time>
      </trkpt>
      <trkpt lat="42.72498" lon="0.87125">
        <ele>2205.8</ele>
        <time>2018-11-24T00:11:30Z</time>
      </trkpt>
      <trkpt lat="42.72495" lon="0.87138">
        <ele>2202.6</ele>
        <time>2018-11-24T00:11:34Z</time>
      </trkpt>
      <trkpt lat="42.72493" lon="0.8715">
        <ele>2198.6</ele>
        <time>2018-11-24T00:11:38Z</time>
      </trkpt>
      <trkpt lat="42.72489" lon="0.87162">
        <ele>2195.4</ele>
        <time>2018-11-24T00:11:41Z</time>
      </trkpt>
      <trkpt lat="42.72486" lon="0.87175">
        <ele>2192</ele>
        <time>2018-11-24T00:11:45Z</time>
      </trkpt>
      <trkpt lat="42.72482" lon="0.87188">
        <ele>2189</ele>
        <time>2018-11-24T00:11:49Z</time>
      </trkpt>
      <trkpt lat="42.72475" lon="0.87198">
        <ele>2186.2</ele>
        <time>2018-11-24T00:11:54Z</time>
      </trkpt>
      <trkpt lat="42.72469" lon="0.8721">
        <ele>2184.8</ele>
        <time>2018-11-24T00:11:58Z</time>
      </trkpt>
      <trkpt lat="42.72463" lon="0.8722">
        <ele>2183.3</ele>
        <time>2018-11-24T00:12:02Z</time>
      </trkpt>
      <trkpt lat="42.72455" lon="0.87228">
        <ele>2181.9</ele>
        <time>2018-11-24T00:12:06Z</time>
      </trkpt>
      <trkpt lat="42.72446" lon="0.87235">
        <ele>2180.5</ele>
        <time>2018-11-24T00:12:10Z</time>
      </trkpt>
      <trkpt lat="42.72441" lon="0.87247">
        <ele>2178.4</ele>
        <time>2018-11-24T00:12:14Z</time>
      </trkpt>
      <trkpt lat="42.72433" lon="0.87253">
        <ele>2175.6</ele>
        <time>2018-11-24T00:12:17Z</time>
      </trkpt>
      <trkpt lat="42.72426" lon="0.87262">
        <ele>2171.8</ele>
        <time>2018-11-24T00:12:21Z</time>
      </trkpt>
      <trkpt lat="42.72422" lon="0.87275">
        <ele>2168.9</ele>
        <time>2018-11-24T00:12:26Z</time>
      </trkpt>
      <trkpt lat="42.72417" lon="0.87286">
        <ele>2167</ele>
        <time>2018-11-24T00:12:29Z</time>
      </trkpt>
      <trkpt lat="42.72413" lon="0.87298">
        <ele>2163.5</ele>
        <time>2018-11-24T00:12:33Z</time>
      </trkpt>
      <trkpt lat="42.72409" lon="0.87311">
        <ele>2161.6</ele>
        <time>2018-11-24T00:12:37Z</time>
      </trkpt>
      <trkpt lat="42.72406" lon="0.87324">
        <ele>2159.8</ele>
        <time>2018-11-24T00:12:41Z</time>
      </trkpt>
      <trkpt lat="42.72405" lon="0.87337">
        <ele>2157.4</ele>
        <time>2018-11-24T00:12:45Z</time>
      </trkpt>
      <trkpt lat="42.72403" lon="0.87349">
        <ele>2153.9</ele>
        <time>2018-11-24T00:12:49Z</time>
      </trkpt>
      <trkpt lat="42.72398" lon="0.87361">
        <ele>2151.1</ele>
        <time>2018-11-24T00:12:53Z</time>
      </trkpt>
      <trkpt lat="42.72393" lon="0.87373">
        <ele>2148.3</ele>
        <time>2018-11-24T00:12:57Z</time>
      </trkpt>
      <trkpt lat="42.72391" lon="0.87387">
        <ele>2145.8</ele>
        <time>2018-11-24T00:13:01Z</time>
      </trkpt>
      <trkpt lat="42.72389" lon="0.87399">
        <ele>2143.4</ele>
        <time>2018-11-24T00:13:05Z</time>
      </trkpt>
      <trkpt lat="42.72386" lon="0.87412">
        <ele>2139.6</ele>
        <time>2018-11-24T00:13:09Z</time>
      </trkpt>
      <trkpt lat="42.72383" lon="0.87425">
        <ele>2136.1</ele>
        <time>2018-11-24T00:13:13Z</time>
      </trkpt>
      <trkpt lat="42.7238" lon="0.87436">
        <ele>2133.4</ele>
        <time>2018-11-24T00:13:16Z</time>
      </trkpt>
      <trkpt lat="42.72382" lon="0.87448">
        <ele>2129.5</ele>
        <time>2018-11-24T00:13:20Z</time>
      </trkpt>
      <trkpt lat="42.72383" lon="0.87461">
        <ele>2127</ele>
        <time>2018-11-24T00:13:24Z</time>
      </trkpt>
      <trkpt lat="42.72386" lon="0.87473">
        <ele>2125.2</ele>
        <time>2018-11-24T00:13:27Z</time>
      </trkpt>
      <trkpt lat="42.72386" lon="0.87486">
        <ele>2122.8</ele>
        <time>2018-11-24T00:13:31Z</time>
      </trkpt>
      <trkpt lat="42.72386" lon="0.875">
        <ele>2119.8</ele>
        <time>2018-11-24T00:13:35Z</time>
      </trkpt>
      <trkpt lat="42.72388" lon="0.87514">
        <ele>2116.9</ele>
        <time>2018-11-24T00:13:40Z</time>
      </trkpt>
      <trkpt lat="42.72389" lon="0.87529">
        <ele>2113.6</ele>
        <time>2018-11-24T00:13:44Z</time>
      </trkpt>
      <trkpt lat="42.72389" lon="0.87543">
        <ele>2111.1</ele>
        <time>2018-11-24T00:13:48Z</time>
      </trkpt>
      <trkpt lat="42.72391" lon="0.87556">
        <ele>2108.3</ele>
        <time>2018-11-24T00:13:52Z</time>
      </trkpt>
      <trkpt lat="42.72395" lon="0.87569">
        <ele>2103.9</ele>
        <time>2018-11-24T00:13:56Z</time>
      </trkpt>
      <trkpt lat="42.72397" lon="0.87582">
        <ele>2099.6</ele>
        <time>2018-11-24T00:14:00Z</time>
      </trkpt>
      <trkpt lat="42.72396" lon="0.87595">
        <ele>2096.2</ele>
        <time>2018-11-24T00:14:04Z</time>
      </trkpt>
      <trkpt lat="42.72396" lon="0.87609">
        <ele>2092.5</ele>
        <time>2018-11-24T00:14:08Z</time>
      </trkpt>
      <trkpt lat="42.72395" lon="0.87623">
        <ele>2090.6</ele>
        <time>2018-11-24T00:14:12Z</time>
      </trkpt>
      <trkpt lat="42.7239" lon="0.87636">
        <ele>2089.5</ele>
        <time>2018-11-24T00:14:16Z</time>
      </trkpt>
      <trkpt lat="42.72385" lon="0.87648">
        <ele>2089.1</ele>
        <time>2018-11-24T00:14:20Z</time>
      </trkpt>
      <trkpt lat="42.72382" lon="0.87662">
        <ele>2087.2</ele>
        <time>2018-11-24T00:14:25Z</time>
      </trkpt>
      <trkpt lat="42.72379" lon="0.87675">
        <ele>2084.8</ele>
        <time>2018-11-24T00:14:29Z</time>
      </trkpt>
      <trkpt lat="42.72374" lon="0.87687">
        <ele>2082.9</ele>
        <time>2018-11-24T00:14:33Z</time>
      </trkpt>
      <trkpt lat="42.72369" lon="0.87699">
        <ele>2081.3</ele>
        <time>2018-11-24T00:14:37Z</time>
      </trkpt>
      <trkpt lat="42.72368" lon="0.87711">
        <ele>2078</ele>
        <time>2018-11-24T00:14:40Z</time>
      </trkpt>
      <trkpt lat="42.72366" lon="0.87726">
        <ele>2074.7</ele>
        <time>2018-11-24T00:14:45Z</time>
      </trkpt>
      <trkpt lat="42.72366" lon="0.87739">
        <ele>2071.8</ele>
        <time>2018-11-24T00:14:49Z</time>
      </trkpt>
      <trkpt lat="42.72365" lon="0.87753">
        <ele>2069.3</ele>
        <time>2018-11-24T00:14:53Z</time>
      </trkpt>
      <trkpt lat="42.72364" lon="0.87767">
        <ele>2066.9</ele>
        <time>2018-11-24T00:14:57Z</time>
      </trkpt>
      <trkpt lat="42.72362" lon="0.87781">
        <ele>2065.1</ele>
        <time>2018-11-24T00:15:01Z</time>
      </trkpt>
      <trkpt lat="42.7236" lon="0.87795">
        <ele>2063.2</ele>
        <time>2018-11-24T00:15:05Z</time>
      </trkpt>
      <trkpt lat="42.72358" lon="0.87808">
        <ele>2061.7</ele>
        <time>2018-11-24T00:15:09Z</time>
      </trkpt>
      <trkpt lat="42.72359" lon="0.87821">
        <ele>2058.4</ele>
        <time>2018-11-24T00:15:13Z</time>
      </trkpt>
      <trkpt lat="42.72356" lon="0.87835">
        <ele>2055</ele>
        <time>2018-11-24T00:15:18Z</time>
      </trkpt>
      <trkpt lat="42.72356" lon="0.87848">
        <ele>2051.6</ele>
        <time>2018-11-24T00:15:21Z</time>
      </trkpt>
      <trkpt lat="42.72361" lon="0.87858">
        <ele>2047.7</ele>
        <time>2018-11-24T00:15:25Z</time>
      </trkpt>
      <trkpt lat="42.72365" lon="0.8787">
        <ele>2043.4</ele>
        <time>2018-11-24T00:15:29Z</time>
      </trkpt>
      <trkpt lat="42.72366" lon="0.87883">
        <ele>2039.1</ele>
        <time>2018-11-24T00:15:33Z</time>
      </trkpt>
      <trkpt lat="42.7237" lon="0.87895">
        <ele>2034.7</ele>
        <time>2018-11-24T00:15:36Z</time>
      </trkpt>
      <trkpt lat="42.72373" lon="0.87907">
        <ele>2031.4</ele>
        <time>2018-11-24T00:15:40Z</time>
      </trkpt>
      <trkpt lat="42.72377" lon="0.87917">
        <ele>2027.1</ele>
        <time>2018-11-24T00:15:44Z</time>
      </trkpt>
      <trkpt lat="42.72381" lon="0.87929">
        <ele>2022.8</ele>
        <time>2018-11-24T00:15:47Z</time>
      </trkpt>
      <trkpt lat="42.72383" lon="0.87942">
        <ele>2018</ele>
        <time>2018-11-24T00:15:51Z</time>
      </trkpt>
      <trkpt lat="42.72386" lon="0.87955">
        <ele>2013.1</ele>
        <time>2018-11-24T00:15:55Z</time>
      </trkpt>
      <trkpt lat="42.72384" lon="0.87966">
        <ele>2008.4</ele>
        <time>2018-11-24T00:15:58Z</time>
      </trkpt>
      <trkpt lat="42.72381" lon="0.87979">
        <ele>2004.5</ele>
        <time>2018-11-24T00:16:03Z</time>
      </trkpt>
      <trkpt lat="42.72386" lon="0.87991">
        <ele>1999.6</ele>
        <time>2018-11-24T00:16:06Z</time>
      </trkpt>
      <trkpt lat="42.72379" lon="0.88">
        <ele>1996.8</ele>
        <time>2018-11-24T00:16:10Z</time>
      </trkpt>
      <trkpt lat="42.72375" lon="0.8801">
        <ele>1992.9</ele>
        <time>2018-11-24T00:16:14Z</time>
      </trkpt>
      <trkpt lat="42.72381" lon="0.8802">
        <ele>1990</ele>
        <time>2018-11-24T00:16:17Z</time>
      </trkpt>
      <trkpt lat="42.72389" lon="0.88027">
        <ele>1987.7</ele>
        <time>2018-11-24T00:16:21Z</time>
      </trkpt>
      <trkpt lat="42.72388" lon="0.88038">
        <ele>1986.2</ele>
        <time>2018-11-24T00:16:24Z</time>
      </trkpt>
      <trkpt lat="42.7238" lon="0.88049">
        <ele>1984.4</ele>
        <time>2018-11-24T00:16:29Z</time>
      </trkpt>
      <trkpt lat="42.72373" lon="0.88058">
        <ele>1982.9</ele>
        <time>2018-11-24T00:16:32Z</time>
      </trkpt>
      <trkpt lat="42.72365" lon="0.88065">
        <ele>1979</ele>
        <time>2018-11-24T00:16:37Z</time>
      </trkpt>
      <trkpt lat="42.72356" lon="0.88073">
        <ele>1973.2</ele>
        <time>2018-11-24T00:16:41Z</time>
      </trkpt>
      <trkpt lat="42.72347" lon="0.88076">
        <ele>1969.5</ele>
        <time>2018-11-24T00:16:45Z</time>
      </trkpt>
      <trkpt lat="42.72341" lon="0.88086">
        <ele>1966.1</ele>
        <time>2018-11-24T00:16:48Z</time>
      </trkpt>
      <trkpt lat="42.72339" lon="0.88098">
        <ele>1962.6</ele>
        <time>2018-11-24T00:16:52Z</time>
      </trkpt>
      <trkpt lat="42.72346" lon="0.88109">
        <ele>1959.3</ele>
        <time>2018-11-24T00:16:56Z</time>
      </trkpt>
      <trkpt lat="42.72347" lon="0.88124">
        <ele>1955.4</ele>
        <time>2018-11-24T00:17:00Z</time>
      </trkpt>
      <trkpt lat="42.72346" lon="0.88138">
        <ele>1952.5</ele>
        <time>2018-11-24T00:17:05Z</time>
      </trkpt>
      <trkpt lat="42.72347" lon="0.8815">
        <ele>1950.1</ele>
        <time>2018-11-24T00:17:08Z</time>
      </trkpt>
      <trkpt lat="42.72353" lon="0.88162">
        <ele>1946.4</ele>
        <time>2018-11-24T00:17:12Z</time>
      </trkpt>
      <trkpt lat="42.72358" lon="0.88174">
        <ele>1944.4</ele>
        <time>2018-11-24T00:17:16Z</time>
      </trkpt>
      <trkpt lat="42.72362" lon="0.88187">
        <ele>1942.1</ele>
        <time>2018-11-24T00:17:21Z</time>
      </trkpt>
      <trkpt lat="42.72367" lon="0.88199">
        <ele>1939.1</ele>
        <time>2018-11-24T00:17:25Z</time>
      </trkpt>
      <trkpt lat="42.72367" lon="0.88214">
        <ele>1936.2</ele>
        <time>2018-11-24T00:17:29Z</time>
      </trkpt>
      <trkpt lat="42.72376" lon="0.88218">
        <ele>1933.4</ele>
        <time>2018-11-24T00:17:33Z</time>
      </trkpt>
      <trkpt lat="42.72387" lon="0.88217">
        <ele>1931</ele>
        <time>2018-11-24T00:17:37Z</time>
      </trkpt>
      <trkpt lat="42.72397" lon="0.88216">
        <ele>1928.1</ele>
        <time>2018-11-24T00:17:42Z</time>
      </trkpt>
      <trkpt lat="42.72408" lon="0.88222">
        <ele>1925.1</ele>
        <time>2018-11-24T00:17:46Z</time>
      </trkpt>
      <trkpt lat="42.72417" lon="0.8823">
        <ele>1921.8</ele>
        <time>2018-11-24T00:17:50Z</time>
      </trkpt>
      <trkpt lat="42.72426" lon="0.88237">
        <ele>1919.8</ele>
        <time>2018-11-24T00:17:55Z</time>
      </trkpt>
      <trkpt lat="42.72435" lon="0.88247">
        <ele>1915</ele>
        <time>2018-11-24T00:17:59Z</time>
      </trkpt>
      <trkpt lat="42.72444" lon="0.88253">
        <ele>1911.7</ele>
        <time>2018-11-24T00:18:03Z</time>
      </trkpt>
      <trkpt lat="42.72447" lon="0.88266">
        <ele>1906.9</ele>
        <time>2018-11-24T00:18:07Z</time>
      </trkpt>
      <trkpt lat="42.72444" lon="0.8828">
        <ele>1903.5</ele>
        <time>2018-11-24T00:18:11Z</time>
      </trkpt>
      <trkpt lat="42.72437" lon="0.8829">
        <ele>1901.2</ele>
        <time>2018-11-24T00:18:15Z</time>
      </trkpt>
      <trkpt lat="42.72429" lon="0.88296">
        <ele>1897.7</ele>
        <time>2018-11-24T00:18:19Z</time>
      </trkpt>
      <trkpt lat="42.72426" lon="0.88309">
        <ele>1894</ele>
        <time>2018-11-24T00:18:23Z</time>
      </trkpt>
      <trkpt lat="42.72428" lon="0.88323">
        <ele>1890.5</ele>
        <time>2018-11-24T00:18:27Z</time>
      </trkpt>
      <trkpt lat="42.7244" lon="0.88323">
        <ele>1888.2</ele>
        <time>2018-11-24T00:18:32Z</time>
      </trkpt>
      <trkpt lat="42.7245" lon="0.8832">
        <ele>1887.6</ele>
        <time>2018-11-24T00:18:36Z</time>
      </trkpt>
      <trkpt lat="42.72458" lon="0.88326">
        <ele>1888.6</ele>
        <time>2018-11-24T00:18:40Z</time>
      </trkpt>
      <trkpt lat="42.72452" lon="0.88337">
        <ele>1884.8</ele>
        <time>2018-11-24T00:18:44Z</time>
      </trkpt>
      <trkpt lat="42.72447" lon="0.88349">
        <ele>1880.9</ele>
        <time>2018-11-24T00:18:48Z</time>
      </trkpt>
      <trkpt lat="42.72443" lon="0.8836">
        <ele>1876.1</ele>
        <time>2018-11-24T00:18:52Z</time>
      </trkpt>
      <trkpt lat="42.7244" lon="0.88373">
        <ele>1871.3</ele>
        <time>2018-11-24T00:18:56Z</time>
      </trkpt>
      <trkpt lat="42.72434" lon="0.88386">
        <ele>1867.1</ele>
        <time>2018-11-24T00:19:00Z</time>
      </trkpt>
      <trkpt lat="42.72427" lon="0.88397">
        <ele>1863.7</ele>
        <time>2018-11-24T00:19:04Z</time>
      </trkpt>
      <trkpt lat="42.7242" lon="0.8841">
        <ele>1859.4</ele>
        <time>2018-11-24T00:19:09Z</time>
      </trkpt>
      <trkpt lat="42.72414" lon="0.88423">
        <ele>1854.5</ele>
        <time>2018-11-24T00:19:13Z</time>
      </trkpt>
      <trkpt lat="42.72408" lon="0.88437">
        <ele>1850.7</ele>
        <time>2018-11-24T00:19:18Z</time>
      </trkpt>
      <trkpt lat="42.72404" lon="0.8845">
        <ele>1847.4</ele>
        <time>2018-11-24T00:19:23Z</time>
      </trkpt>
      <trkpt lat="42.72402" lon="0.88465">
        <ele>1844.9</ele>
        <time>2018-11-24T00:19:27Z</time>
      </trkpt>
      <trkpt lat="42.72392" lon="0.88475">
        <ele>1841.5</ele>
        <time>2018-11-24T00:19:32Z</time>
      </trkpt>
      <trkpt lat="42.72387" lon="0.88491">
        <ele>1837.2</ele>
        <time>2018-11-24T00:19:37Z</time>
      </trkpt>
      <trkpt lat="42.72381" lon="0.88507">
        <ele>1832.4</ele>
        <time>2018-11-24T00:19:42Z</time>
      </trkpt>
      <trkpt lat="42.72378" lon="0.88518">
        <ele>1829.1</ele>
        <time>2018-11-24T00:19:46Z</time>
      </trkpt>
      <trkpt lat="42.72374" lon="0.88533">
        <ele>1828</ele>
        <time>2018-11-24T00:19:51Z</time>
      </trkpt>
      <trkpt lat="42.72363" lon="0.88541">
        <ele>1826.1</ele>
        <time>2018-11-24T00:19:55Z</time>
      </trkpt>
      <trkpt lat="42.72355" lon="0.8855">
        <ele>1823.8</ele>
        <time>2018-11-24T00:20:00Z</time>
      </trkpt>
      <trkpt lat="42.72349" lon="0.88555">
        <ele>1821.3</ele>
        <time>2018-11-24T00:20:03Z</time>
      </trkpt>
      <trkpt lat="42.72338" lon="0.88563">
        <ele>1817</ele>
        <time>2018-11-24T00:20:07Z</time>
      </trkpt>
      <trkpt lat="42.72328" lon="0.88567">
        <ele>1814.2</ele>
        <time>2018-11-24T00:20:12Z</time>
      </trkpt>
      <trkpt lat="42.72317" lon="0.88567">
        <ele>1809.8</ele>
        <time>2018-11-24T00:20:16Z</time>
      </trkpt>
      <trkpt lat="42.72306" lon="0.8857">
        <ele>1807.4</ele>
        <time>2018-11-24T00:20:20Z</time>
      </trkpt>
      <trkpt lat="42.72296" lon="0.88577">
        <ele>1804</ele>
        <time>2018-11-24T00:20:25Z</time>
      </trkpt>
      <trkpt lat="42.72287" lon="0.88578">
        <ele>1799.3</ele>
        <time>2018-11-24T00:20:29Z</time>
      </trkpt>
      <trkpt lat="42.72278" lon="0.88586">
        <ele>1795.5</ele>
        <time>2018-11-24T00:20:33Z</time>
      </trkpt>
      <trkpt lat="42.72268" lon="0.88594">
        <ele>1790.5</ele>
        <time>2018-11-24T00:20:38Z</time>
      </trkpt>
      <trkpt lat="42.7226" lon="0.88605">
        <ele>1786.3</ele>
        <time>2018-11-24T00:20:42Z</time>
      </trkpt>
      <trkpt lat="42.72256" lon="0.88619">
        <ele>1783.4</ele>
        <time>2018-11-24T00:20:47Z</time>
      </trkpt>
      <trkpt lat="42.72253" lon="0.88631">
        <ele>1782</ele>
        <time>2018-11-24T00:20:50Z</time>
      </trkpt>
      <trkpt lat="42.72249" lon="0.88644">
        <ele>1781</ele>
        <time>2018-11-24T00:20:54Z</time>
      </trkpt>
      <trkpt lat="42.72245" lon="0.88657">
        <ele>1779</ele>
        <time>2018-11-24T00:20:59Z</time>
      </trkpt>
      <trkpt lat="42.72237" lon="0.88668">
        <ele>1778.5</ele>
        <time>2018-11-24T00:21:03Z</time>
      </trkpt>
      <trkpt lat="42.72229" lon="0.88677">
        <ele>1778.2</ele>
        <time>2018-11-24T00:21:07Z</time>
      </trkpt>
      <trkpt lat="42.72221" lon="0.88687">
        <ele>1778.1</ele>
        <time>2018-11-24T00:21:12Z</time>
      </trkpt>
      <trkpt lat="42.72211" lon="0.88694">
        <ele>1776.1</ele>
        <time>2018-11-24T00:21:16Z</time>
      </trkpt>
      <trkpt lat="42.72204" lon="0.88699">
        <ele>1774.8</ele>
        <time>2018-11-24T00:21:19Z</time>
      </trkpt>
      <trkpt lat="42.72195" lon="0.88707">
        <ele>1773.7</ele>
        <time>2018-11-24T00:21:24Z</time>
      </trkpt>
      <trkpt lat="42.72186" lon="0.88717">
        <ele>1773.3</ele>
        <time>2018-11-24T00:21:28Z</time>
      </trkpt>
      <trkpt lat="42.72176" lon="0.88724">
        <ele>1772.4</ele>
        <time>2018-11-24T00:21:33Z</time>
      </trkpt>
      <trkpt lat="42.72168" lon="0.88734">
        <ele>1770.9</ele>
        <time>2018-11-24T00:21:37Z</time>
      </trkpt>
      <trkpt lat="42.72159" lon="0.88747">
        <ele>1770.5</ele>
        <time>2018-11-24T00:21:42Z</time>
      </trkpt>
      <trkpt lat="42.72151" lon="0.88756">
        <ele>1770.5</ele>
        <time>2018-11-24T00:21:47Z</time>
      </trkpt>
      <trkpt lat="42.72142" lon="0.88763">
        <ele>1770.4</ele>
        <time>2018-11-24T00:21:51Z</time>
      </trkpt>
      <trkpt lat="42.72133" lon="0.8877">
        <ele>1768.5</ele>
        <time>2018-11-24T00:21:55Z</time>
      </trkpt>
      <trkpt lat="42.72125" lon="0.8878">
        <ele>1767.5</ele>
        <time>2018-11-24T00:21:59Z</time>
      </trkpt>
      <trkpt lat="42.72119" lon="0.88789">
        <ele>1766.5</ele>
        <time>2018-11-24T00:22:03Z</time>
      </trkpt>
      <trkpt lat="42.72112" lon="0.888">
        <ele>1766</ele>
        <time>2018-11-24T00:22:07Z</time>
      </trkpt>
      <trkpt lat="42.72107" lon="0.88809">
        <ele>1766</ele>
        <time>2018-11-24T00:22:10Z</time>
      </trkpt>
      <trkpt lat="42.72099" lon="0.88818">
        <ele>1767.1</ele>
        <time>2018-11-24T00:22:14Z</time>
      </trkpt>
      <trkpt lat="42.72091" lon="0.88826">
        <ele>1768.4</ele>
        <time>2018-11-24T00:22:18Z</time>
      </trkpt>
      <trkpt lat="42.72083" lon="0.88832">
        <ele>1769.4</ele>
        <time>2018-11-24T00:22:22Z</time>
      </trkpt>
      <trkpt lat="42.72075" lon="0.88838">
        <ele>1770.8</ele>
        <time>2018-11-24T00:22:26Z</time>
      </trkpt>
      <trkpt lat="42.72068" lon="0.88847">
        <ele>1770.4</ele>
        <time>2018-11-24T00:22:30Z</time>
      </trkpt>
      <trkpt lat="42.72062" lon="0.88856">
        <ele>1769</ele>
        <time>2018-11-24T00:22:33Z</time>
      </trkpt>
      <trkpt lat="42.72056" lon="0.88866">
        <ele>1768.9</ele>
        <time>2018-11-24T00:22:37Z</time>
      </trkpt>
      <trkpt lat="42.72051" lon="0.88877">
        <ele>1767.5</ele>
        <time>2018-11-24T00:22:41Z</time>
      </trkpt>
      <trkpt lat="42.72045" lon="0.88889">
        <ele>1766.6</ele>
        <time>2018-11-24T00:22:45Z</time>
      </trkpt>
      <trkpt lat="42.72036" lon="0.88899">
        <ele>1764.6</ele>
        <time>2018-11-24T00:22:50Z</time>
      </trkpt>
      <trkpt lat="42.72029" lon="0.88909">
        <ele>1762.2</ele>
        <time>2018-11-24T00:22:54Z</time>
      </trkpt>
      <trkpt lat="42.72023" lon="0.8892">
        <ele>1761.2</ele>
        <time>2018-11-24T00:22:58Z</time>
      </trkpt>
      <trkpt lat="42.72014" lon="0.88927">
        <ele>1759.4</ele>
        <time>2018-11-24T00:23:02Z</time>
      </trkpt>
      <trkpt lat="42.72006" lon="0.88936">
        <ele>1758.3</ele>
        <time>2018-11-24T00:23:06Z</time>
      </trkpt>
      <trkpt lat="42.71998" lon="0.88943">
        <ele>1757.9</ele>
        <time>2018-11-24T00:23:10Z</time>
      </trkpt>
      <trkpt lat="42.71988" lon="0.8895">
        <ele>1757.4</ele>
        <time>2018-11-24T00:23:15Z</time>
      </trkpt>
      <trkpt lat="42.71979" lon="0.88956">
        <ele>1757.5</ele>
        <time>2018-11-24T00:23:18Z</time>
      </trkpt>
      <trkpt lat="42.7197" lon="0.88963">
        <ele>1757</ele>
        <time>2018-11-24T00:23:23Z</time>
      </trkpt>
      <trkpt lat="42.71961" lon="0.88972">
        <ele>1755.9</ele>
        <time>2018-11-24T00:23:27Z</time>
      </trkpt>
      <trkpt lat="42.71953" lon="0.8898">
        <ele>1756</ele>
        <time>2018-11-24T00:23:31Z</time>
      </trkpt>
      <trkpt lat="42.71943" lon="0.88988">
        <ele>1755</ele>
        <time>2018-11-24T00:23:36Z</time>
      </trkpt>
      <trkpt lat="42.71935" lon="0.88998">
        <ele>1754</ele>
        <time>2018-11-24T00:23:40Z</time>
      </trkpt>
      <trkpt lat="42.71926" lon="0.89004">
        <ele>1751.6</ele>
        <time>2018-11-24T00:23:44Z</time>
      </trkpt>
      <trkpt lat="42.71916" lon="0.89006">
        <ele>1750.8</ele>
        <time>2018-11-24T00:23:48Z</time>
      </trkpt>
      <trkpt lat="42.71907" lon="0.89015">
        <ele>1748.3</ele>
        <time>2018-11-24T00:23:53Z</time>
      </trkpt>
      <trkpt lat="42.71898" lon="0.89023">
        <ele>1748.2</ele>
        <time>2018-11-24T00:23:57Z</time>
      </trkpt>
      <trkpt lat="42.71889" lon="0.89029">
        <ele>1747.9</ele>
        <time>2018-11-24T00:24:01Z</time>
      </trkpt>
      <trkpt lat="42.71879" lon="0.89035">
        <ele>1745.9</ele>
        <time>2018-11-24T00:24:05Z</time>
      </trkpt>
      <trkpt lat="42.71868" lon="0.89038">
        <ele>1744</ele>
        <time>2018-11-24T00:24:10Z</time>
      </trkpt>
      <trkpt lat="42.71857" lon="0.89043">
        <ele>1743.9</ele>
        <time>2018-11-24T00:24:14Z</time>
      </trkpt>
      <trkpt lat="42.71846" lon="0.89046">
        <ele>1743.5</ele>
        <time>2018-11-24T00:24:19Z</time>
      </trkpt>
      <trkpt lat="42.71834" lon="0.89047">
        <ele>1743.1</ele>
        <time>2018-11-24T00:24:24Z</time>
      </trkpt>
      <trkpt lat="42.71824" lon="0.89053">
        <ele>1742.6</ele>
        <time>2018-11-24T00:24:28Z</time>
      </trkpt>
      <trkpt lat="42.71815" lon="0.89059">
        <ele>1741</ele>
        <time>2018-11-24T00:24:32Z</time>
      </trkpt>
      <trkpt lat="42.71804" lon="0.89065">
        <ele>1739.6</ele>
        <time>2018-11-24T00:24:37Z</time>
      </trkpt>
      <trkpt lat="42.71794" lon="0.89073">
        <ele>1738.7</ele>
        <time>2018-11-24T00:24:41Z</time>
      </trkpt>
      <trkpt lat="42.71783" lon="0.89076">
        <ele>1737.2</ele>
        <time>2018-11-24T00:24:46Z</time>
      </trkpt>
      <trkpt lat="42.71772" lon="0.89076">
        <ele>1737.2</ele>
        <time>2018-11-24T00:24:50Z</time>
      </trkpt>
      <trkpt lat="42.71763" lon="0.89082">
        <ele>1737.2</ele>
        <time>2018-11-24T00:24:54Z</time>
      </trkpt>
      <trkpt lat="42.71754" lon="0.89092">
        <ele>1738.3</ele>
        <time>2018-11-24T00:24:59Z</time>
      </trkpt>
      <trkpt lat="42.71749" lon="0.89104">
        <ele>1736.8</ele>
        <time>2018-11-24T00:25:03Z</time>
      </trkpt>
      <trkpt lat="42.7174" lon="0.89114">
        <ele>1735.3</ele>
        <time>2018-11-24T00:25:08Z</time>
      </trkpt>
      <trkpt lat="42.71732" lon="0.89123">
        <ele>1735.4</ele>
        <time>2018-11-24T00:25:12Z</time>
      </trkpt>
      <trkpt lat="42.71724" lon="0.89133">
        <ele>1734.4</ele>
        <time>2018-11-24T00:25:16Z</time>
      </trkpt>
      <trkpt lat="42.71714" lon="0.89137">
        <ele>1732</ele>
        <time>2018-11-24T00:25:20Z</time>
      </trkpt>
      <trkpt lat="42.71704" lon="0.89139">
        <ele>1729.5</ele>
        <time>2018-11-24T00:25:24Z</time>
      </trkpt>
      <trkpt lat="42.71694" lon="0.89142">
        <ele>1727.6</ele>
        <time>2018-11-24T00:25:28Z</time>
      </trkpt>
      <trkpt lat="42.71685" lon="0.89142">
        <ele>1726.1</ele>
        <time>2018-11-24T00:25:32Z</time>
      </trkpt>
      <trkpt lat="42.71674" lon="0.89142">
        <ele>1724.3</ele>
        <time>2018-11-24T00:25:37Z</time>
      </trkpt>
      <trkpt lat="42.71663" lon="0.89142">
        <ele>1721.9</ele>
        <time>2018-11-24T00:25:41Z</time>
      </trkpt>
      <trkpt lat="42.71651" lon="0.89146">
        <ele>1718</ele>
        <time>2018-11-24T00:25:46Z</time>
      </trkpt>
      <trkpt lat="42.71641" lon="0.8915">
        <ele>1715.2</ele>
        <time>2018-11-24T00:25:50Z</time>
      </trkpt>
      <trkpt lat="42.71633" lon="0.89158">
        <ele>1712.3</ele>
        <time>2018-11-24T00:25:54Z</time>
      </trkpt>
      <trkpt lat="42.71625" lon="0.89167">
        <ele>1709.4</ele>
        <time>2018-11-24T00:25:58Z</time>
      </trkpt>
      <trkpt lat="42.71618" lon="0.89178">
        <ele>1706.4</ele>
        <time>2018-11-24T00:26:02Z</time>
      </trkpt>
      <trkpt lat="42.71609" lon="0.89186">
        <ele>1703.2</ele>
        <time>2018-11-24T00:26:07Z</time>
      </trkpt>
      <trkpt lat="42.71601" lon="0.89194">
        <ele>1699.7</ele>
        <time>2018-11-24T00:26:11Z</time>
      </trkpt>
      <trkpt lat="42.71592" lon="0.89203">
        <ele>1696.8</ele>
        <time>2018-11-24T00:26:15Z</time>
      </trkpt>
      <trkpt lat="42.71586" lon="0.89213">
        <ele>1694.9</ele>
        <time>2018-11-24T00:26:19Z</time>
      </trkpt>
      <trkpt lat="42.71577" lon="0.8922">
        <ele>1691.2</ele>
        <time>2018-11-24T00:26:23Z</time>
      </trkpt>
      <trkpt lat="42.71569" lon="0.89229">
        <ele>1688.3</ele>
        <time>2018-11-24T00:26:27Z</time>
      </trkpt>
      <trkpt lat="42.71561" lon="0.89238">
        <ele>1685.9</ele>
        <time>2018-11-24T00:26:31Z</time>
      </trkpt>
      <trkpt lat="42.71555" lon="0.89249">
        <ele>1683</ele>
        <time>2018-11-24T00:26:35Z</time>
      </trkpt>
      <trkpt lat="42.71548" lon="0.89257">
        <ele>1680.6</ele>
        <time>2018-11-24T00:26:39Z</time>
      </trkpt>
      <trkpt lat="42.7154" lon="0.89265">
        <ele>1677.6</ele>
        <time>2018-11-24T00:26:43Z</time>
      </trkpt>
      <trkpt lat="42.71531" lon="0.89272">
        <ele>1673.3</ele>
        <time>2018-11-24T00:26:47Z</time>
      </trkpt>
      <trkpt lat="42.71522" lon="0.8928">
        <ele>1670.5</ele>
        <time>2018-11-24T00:26:51Z</time>
      </trkpt>
      <trkpt lat="42.71511" lon="0.89282">
        <ele>1667.6</ele>
        <time>2018-11-24T00:26:56Z</time>
      </trkpt>
      <trkpt lat="42.71501" lon="0.89279">
        <ele>1665.1</ele>
        <time>2018-11-24T00:27:00Z</time>
      </trkpt>
      <trkpt lat="42.71504" lon="0.89268">
        <ele>1662.7</ele>
        <time>2018-11-24T00:27:03Z</time>
      </trkpt>
      <trkpt lat="42.71504" lon="0.89255">
        <ele>1657.9</ele>
        <time>2018-11-24T00:27:07Z</time>
      </trkpt>
      <trkpt lat="42.71494" lon="0.89249">
        <ele>1654.1</ele>
        <time>2018-11-24T00:27:12Z</time>
      </trkpt>
      <trkpt lat="42.71485" lon="0.89256">
        <ele>1649.8</ele>
        <time>2018-11-24T00:27:16Z</time>
      </trkpt>
      <trkpt lat="42.71476" lon="0.89263">
        <ele>1647.4</ele>
        <time>2018-11-24T00:27:20Z</time>
      </trkpt>
      <trkpt lat="42.71467" lon="0.89271">
        <ele>1643.5</ele>
        <time>2018-11-24T00:27:24Z</time>
      </trkpt>
      <trkpt lat="42.71458" lon="0.89276">
        <ele>1640.2</ele>
        <time>2018-11-24T00:27:28Z</time>
      </trkpt>
      <trkpt lat="42.7145" lon="0.89285">
        <ele>1636.8</ele>
        <time>2018-11-24T00:27:32Z</time>
      </trkpt>
      <trkpt lat="42.71443" lon="0.89297">
        <ele>1631.4</ele>
        <time>2018-11-24T00:27:37Z</time>
      </trkpt>
      <trkpt lat="42.71433" lon="0.89312">
        <ele>1625.8</ele>
        <time>2018-11-24T00:27:43Z</time>
      </trkpt>
      <trkpt lat="42.71424" lon="0.89322">
        <ele>1620.4</ele>
        <time>2018-11-24T00:27:47Z</time>
      </trkpt>
      <trkpt lat="42.71398" lon="0.8933">
        <ele>1607.9</ele>
        <time>2018-11-24T00:27:58Z</time>
      </trkpt>
      <trkpt lat="42.71379" lon="0.89336">
        <ele>1603.1</ele>
        <time>2018-11-24T00:28:06Z</time>
      </trkpt>
      <trkpt lat="42.71362" lon="0.89335">
        <ele>1599.2</ele>
        <time>2018-11-24T00:28:13Z</time>
      </trkpt>
      <trkpt lat="42.71343" lon="0.89337">
        <ele>1597.4</ele>
        <time>2018-11-24T00:28:20Z</time>
      </trkpt>
      <trkpt lat="42.71328" lon="0.8934">
        <ele>1596.5</ele>
        <time>2018-11-24T00:28:26Z</time>
      </trkpt>
      <trkpt lat="42.71315" lon="0.89342">
        <ele>1592.5</ele>
        <time>2018-11-24T00:28:32Z</time>
      </trkpt>
      <trkpt lat="42.71301" lon="0.89347">
        <ele>1589.6</ele>
        <time>2018-11-24T00:28:37Z</time>
      </trkpt>
      <trkpt lat="42.71288" lon="0.89351">
        <ele>1588.2</ele>
        <time>2018-11-24T00:28:43Z</time>
      </trkpt>
      <trkpt lat="42.71278" lon="0.89357">
        <ele>1584.8</ele>
        <time>2018-11-24T00:28:47Z</time>
      </trkpt>
      <trkpt lat="42.71268" lon="0.89361">
        <ele>1582</ele>
        <time>2018-11-24T00:28:51Z</time>
      </trkpt>
      <trkpt lat="42.71259" lon="0.89364">
        <ele>1579.5</ele>
        <time>2018-11-24T00:28:55Z</time>
      </trkpt>
      <trkpt lat="42.71249" lon="0.89363">
        <ele>1577.7</ele>
        <time>2018-11-24T00:28:59Z</time>
      </trkpt>
      <trkpt lat="42.71242" lon="0.89353">
        <ele>1574.3</ele>
        <time>2018-11-24T00:29:03Z</time>
      </trkpt>
      <trkpt lat="42.71231" lon="0.8935">
        <ele>1570.9</ele>
        <time>2018-11-24T00:29:07Z</time>
      </trkpt>
      <trkpt lat="42.71223" lon="0.89356">
        <ele>1568</ele>
        <time>2018-11-24T00:29:11Z</time>
      </trkpt>
      <trkpt lat="42.71216" lon="0.89357">
        <ele>1566.2</ele>
        <time>2018-11-24T00:29:14Z</time>
      </trkpt>
      <trkpt lat="42.71215" lon="0.89369">
        <ele>1562.7</ele>
        <time>2018-11-24T00:29:18Z</time>
      </trkpt>
      <trkpt lat="42.71207" lon="0.89366">
        <ele>1559.5</ele>
        <time>2018-11-24T00:29:21Z</time>
      </trkpt>
      <trkpt lat="42.71201" lon="0.89374">
        <ele>1557.9</ele>
        <time>2018-11-24T00:29:24Z</time>
      </trkpt>
      <trkpt lat="42.71197" lon="0.89387">
        <ele>1553.7</ele>
        <time>2018-11-24T00:29:28Z</time>
      </trkpt>
      <trkpt lat="42.71191" lon="0.89397">
        <ele>1550.3</ele>
        <time>2018-11-24T00:29:32Z</time>
      </trkpt>
      <trkpt lat="42.71191" lon="0.8941">
        <ele>1547</ele>
        <time>2018-11-24T00:29:36Z</time>
      </trkpt>
      <trkpt lat="42.71184" lon="0.8941">
        <ele>1541.7</ele>
        <time>2018-11-24T00:29:39Z</time>
      </trkpt>
      <trkpt lat="42.71177" lon="0.894">
        <ele>1537.8</ele>
        <time>2018-11-24T00:29:43Z</time>
      </trkpt>
      <trkpt lat="42.71172" lon="0.89388">
        <ele>1534.5</ele>
        <time>2018-11-24T00:29:47Z</time>
      </trkpt>
      <trkpt lat="42.7117" lon="0.89376">
        <ele>1532</ele>
        <time>2018-11-24T00:29:51Z</time>
      </trkpt>
      <trkpt lat="42.71165" lon="0.89365">
        <ele>1527.1</ele>
        <time>2018-11-24T00:29:55Z</time>
      </trkpt>
      <trkpt lat="42.71161" lon="0.89354">
        <ele>1525.2</ele>
        <time>2018-11-24T00:29:58Z</time>
      </trkpt>
      <trkpt lat="42.71157" lon="0.89342">
        <ele>1521.4</ele>
        <time>2018-11-24T00:30:02Z</time>
      </trkpt>
      <trkpt lat="42.71155" lon="0.89329">
        <ele>1519.5</ele>
        <time>2018-11-24T00:30:06Z</time>
      </trkpt>
      <trkpt lat="42.71153" lon="0.89315">
        <ele>1519.1</ele>
        <time>2018-11-24T00:30:10Z</time>
      </trkpt>
      <trkpt lat="42.7115" lon="0.89302">
        <ele>1514.7</ele>
        <time>2018-11-24T00:30:14Z</time>
      </trkpt>
      <trkpt lat="42.71147" lon="0.89288">
        <ele>1512.8</ele>
        <time>2018-11-24T00:30:18Z</time>
      </trkpt>
      <trkpt lat="42.71146" lon="0.89275">
        <ele>1510.4</ele>
        <time>2018-11-24T00:30:22Z</time>
      </trkpt>
      <trkpt lat="42.71143" lon="0.89263">
        <ele>1509.5</ele>
        <time>2018-11-24T00:30:26Z</time>
      </trkpt>
      <trkpt lat="42.71141" lon="0.89249">
        <ele>1507</ele>
        <time>2018-11-24T00:30:30Z</time>
      </trkpt>
      <trkpt lat="42.7114" lon="0.89235">
        <ele>1505</ele>
        <time>2018-11-24T00:30:34Z</time>
      </trkpt>
      <trkpt lat="42.71139" lon="0.89221">
        <ele>1502.6</ele>
        <time>2018-11-24T00:30:38Z</time>
      </trkpt>
      <trkpt lat="42.71137" lon="0.89208">
        <ele>1500.7</ele>
        <time>2018-11-24T00:30:42Z</time>
      </trkpt>
      <trkpt lat="42.71135" lon="0.89196">
        <ele>1498.3</ele>
        <time>2018-11-24T00:30:46Z</time>
      </trkpt>
      <trkpt lat="42.71133" lon="0.89182">
        <ele>1495.9</ele>
        <time>2018-11-24T00:30:50Z</time>
      </trkpt>
      <trkpt lat="42.71131" lon="0.89169">
        <ele>1493.5</ele>
        <time>2018-11-24T00:30:54Z</time>
      </trkpt>
      <trkpt lat="42.7113" lon="0.89156">
        <ele>1492.2</ele>
        <time>2018-11-24T00:30:58Z</time>
      </trkpt>
      <trkpt lat="42.7113" lon="0.89141">
        <ele>1489.3</ele>
        <time>2018-11-24T00:31:02Z</time>
      </trkpt>
      <trkpt lat="42.71128" lon="0.89128">
        <ele>1487.7</ele>
        <time>2018-11-24T00:31:06Z</time>
      </trkpt>
      <trkpt lat="42.71128" lon="0.89115">
        <ele>1485.3</ele>
        <time>2018-11-24T00:31:10Z</time>
      </trkpt>
      <trkpt lat="42.71128" lon="0.89103">
        <ele>1483</ele>
        <time>2018-11-24T00:31:14Z</time>
      </trkpt>
      <trkpt lat="42.71127" lon="0.89089">
        <ele>1481.5</ele>
        <time>2018-11-24T00:31:18Z</time>
      </trkpt>
      <trkpt lat="42.71128" lon="0.89077">
        <ele>1480</ele>
        <time>2018-11-24T00:31:21Z</time>
      </trkpt>
      <trkpt lat="42.71128" lon="0.89061">
        <ele>1475.2</ele>
        <time>2018-11-24T00:31:26Z</time>
      </trkpt>
      <trkpt lat="42.71128" lon="0.89047">
        <ele>1474.8</ele>
        <time>2018-11-24T00:31:30Z</time>
      </trkpt>
      <trkpt lat="42.71127" lon="0.89034">
        <ele>1472.9</ele>
        <time>2018-11-24T00:31:34Z</time>
      </trkpt>
      <trkpt lat="42.71129" lon="0.8902">
        <ele>1471</ele>
        <time>2018-11-24T00:31:38Z</time>
      </trkpt>
      <trkpt lat="42.71131" lon="0.89008">
        <ele>1468.5</ele>
        <time>2018-11-24T00:31:42Z</time>
      </trkpt>
      <trkpt lat="42.71131" lon="0.88994">
        <ele>1465.2</ele>
        <time>2018-11-24T00:31:46Z</time>
      </trkpt>
      <trkpt lat="42.71133" lon="0.8898">
        <ele>1461.9</ele>
        <time>2018-11-24T00:31:50Z</time>
      </trkpt>
      <trkpt lat="42.71127" lon="0.88972">
        <ele>1457.9</ele>
        <time>2018-11-24T00:31:54Z</time>
      </trkpt>
      <trkpt lat="42.71127" lon="0.8896">
        <ele>1455.6</ele>
        <time>2018-11-24T00:31:57Z</time>
      </trkpt>
      <trkpt lat="42.71119" lon="0.88954">
        <ele>1451.8</ele>
        <time>2018-11-24T00:32:01Z</time>
      </trkpt>
      <trkpt lat="42.71108" lon="0.88955">
        <ele>1447.4</ele>
        <time>2018-11-24T00:32:05Z</time>
      </trkpt>
      <trkpt lat="42.71098" lon="0.88956">
        <ele>1443.5</ele>
        <time>2018-11-24T00:32:09Z</time>
      </trkpt>
      <trkpt lat="42.71095" lon="0.88949">
        <ele>1439.7</ele>
        <time>2018-11-24T00:32:12Z</time>
      </trkpt>
      <trkpt lat="42.71097" lon="0.88935">
        <ele>1437.3</ele>
        <time>2018-11-24T00:32:16Z</time>
      </trkpt>
      <trkpt lat="42.71102" lon="0.88922">
        <ele>1434.5</ele>
        <time>2018-11-24T00:32:20Z</time>
      </trkpt>
      <trkpt lat="42.71108" lon="0.88909">
        <ele>1430.6</ele>
        <time>2018-11-24T00:32:25Z</time>
      </trkpt>
      <trkpt lat="42.71108" lon="0.88899">
        <ele>1425.7</ele>
        <time>2018-11-24T00:32:28Z</time>
      </trkpt>
      <trkpt lat="42.71098" lon="0.88899">
        <ele>1424.9</ele>
        <time>2018-11-24T00:32:31Z</time>
      </trkpt>
      <trkpt lat="42.71088" lon="0.889">
        <ele>1421.4</ele>
        <time>2018-11-24T00:32:36Z</time>
      </trkpt>
      <trkpt lat="42.71078" lon="0.88904">
        <ele>1418.6</ele>
        <time>2018-11-24T00:32:40Z</time>
      </trkpt>
      <trkpt lat="42.71068" lon="0.88908">
        <ele>1415.7</ele>
        <time>2018-11-24T00:32:44Z</time>
      </trkpt>
      <trkpt lat="42.71058" lon="0.88915">
        <ele>1413.2</ele>
        <time>2018-11-24T00:32:48Z</time>
      </trkpt>
      <trkpt lat="42.7105" lon="0.8892">
        <ele>1411.9</ele>
        <time>2018-11-24T00:32:52Z</time>
      </trkpt>
      <trkpt lat="42.7104" lon="0.88925">
        <ele>1408.9</ele>
        <time>2018-11-24T00:32:56Z</time>
      </trkpt>
      <trkpt lat="42.71038" lon="0.8892">
        <ele>1405.1</ele>
        <time>2018-11-24T00:32:58Z</time>
      </trkpt>
      <trkpt lat="42.71044" lon="0.88907">
        <ele>1402.2</ele>
        <time>2018-11-24T00:33:02Z</time>
      </trkpt>
      <trkpt lat="42.71049" lon="0.88896">
        <ele>1397.8</ele>
        <time>2018-11-24T00:33:06Z</time>
      </trkpt>
      <trkpt lat="42.71055" lon="0.88881">
        <ele>1396.5</ele>
        <time>2018-11-24T00:33:11Z</time>
      </trkpt>
      <trkpt lat="42.71061" lon="0.88868">
        <ele>1392.7</ele>
        <time>2018-11-24T00:33:16Z</time>
      </trkpt>
      <trkpt lat="42.71067" lon="0.88855">
        <ele>1390.3</ele>
        <time>2018-11-24T00:33:20Z</time>
      </trkpt>
      <trkpt lat="42.71075" lon="0.8884">
        <ele>1386.4</ele>
        <time>2018-11-24T00:33:26Z</time>
      </trkpt>
      <trkpt lat="42.71101" lon="0.88832">
        <ele>1376.3</ele>
        <time>2018-11-24T00:33:36Z</time>
      </trkpt>
      <trkpt lat="42.71093" lon="0.88826">
        <ele>1372.5</ele>
        <time>2018-11-24T00:33:40Z</time>
      </trkpt>
      <trkpt lat="42.71097" lon="0.88816">
        <ele>1367.2</ele>
        <time>2018-11-24T00:33:43Z</time>
      </trkpt>
      <trkpt lat="42.71098" lon="0.88804">
        <ele>1363.3</ele>
        <time>2018-11-24T00:33:47Z</time>
      </trkpt>
      <trkpt lat="42.71087" lon="0.888">
        <ele>1361.4</ele>
        <time>2018-11-24T00:33:51Z</time>
      </trkpt>
      <trkpt lat="42.71075" lon="0.88793">
        <ele>1358</ele>
        <time>2018-11-24T00:33:57Z</time>
      </trkpt>
      <trkpt lat="42.71063" lon="0.88792">
        <ele>1355.1</ele>
        <time>2018-11-24T00:34:01Z</time>
      </trkpt>
      <trkpt lat="42.71051" lon="0.88794">
        <ele>1352.3</ele>
        <time>2018-11-24T00:34:06Z</time>
      </trkpt>
      <trkpt lat="42.71042" lon="0.88802">
        <ele>1349.9</ele>
        <time>2018-11-24T00:34:10Z</time>
      </trkpt>
      <trkpt lat="42.71031" lon="0.88807">
        <ele>1347.4</ele>
        <time>2018-11-24T00:34:15Z</time>
      </trkpt>
      <trkpt lat="42.71018" lon="0.88812">
        <ele>1344.1</ele>
        <time>2018-11-24T00:34:21Z</time>
      </trkpt>
      <trkpt lat="42.71006" lon="0.88816">
        <ele>1341.6</ele>
        <time>2018-11-24T00:34:25Z</time>
      </trkpt>
      <trkpt lat="42.70996" lon="0.88817">
        <ele>1339.8</ele>
        <time>2018-11-24T00:34:30Z</time>
      </trkpt>
      <trkpt lat="42.70985" lon="0.88821">
        <ele>1337.9</ele>
        <time>2018-11-24T00:34:34Z</time>
      </trkpt>
      <trkpt lat="42.70975" lon="0.88819">
        <ele>1335.8</ele>
        <time>2018-11-24T00:34:38Z</time>
      </trkpt>
      <trkpt lat="42.70962" lon="0.88814">
        <ele>1331.5</ele>
        <time>2018-11-24T00:34:43Z</time>
      </trkpt>
      <trkpt lat="42.70949" lon="0.8881">
        <ele>1328.2</ele>
        <time>2018-11-24T00:34:49Z</time>
      </trkpt>
      <trkpt lat="42.70934" lon="0.8881">
        <ele>1325.8</ele>
        <time>2018-11-24T00:34:55Z</time>
      </trkpt>
      <trkpt lat="42.70921" lon="0.88811">
        <ele>1323.3</ele>
        <time>2018-11-24T00:35:00Z</time>
      </trkpt>
      <trkpt lat="42.7091" lon="0.8881">
        <ele>1320</ele>
        <time>2018-11-24T00:35:04Z</time>
      </trkpt>
      <trkpt lat="42.70897" lon="0.88812">
        <ele>1317.2</ele>
        <time>2018-11-24T00:35:10Z</time>
      </trkpt>
      <trkpt lat="42.70883" lon="0.88816">
        <ele>1314.8</ele>
        <time>2018-11-24T00:35:15Z</time>
      </trkpt>
      <trkpt lat="42.70873" lon="0.88823">
        <ele>1313.8</ele>
        <time>2018-11-24T00:35:20Z</time>
      </trkpt>
      <trkpt lat="42.70863" lon="0.88832">
        <ele>1312.4</ele>
        <time>2018-11-24T00:35:25Z</time>
      </trkpt>
      <trkpt lat="42.70853" lon="0.88841">
        <ele>1310.9</ele>
        <time>2018-11-24T00:35:29Z</time>
      </trkpt>
      <trkpt lat="42.70842" lon="0.88849">
        <ele>1308.4</ele>
        <time>2018-11-24T00:35:34Z</time>
      </trkpt>
      <trkpt lat="42.7083" lon="0.88857">
        <ele>1306.1</ele>
        <time>2018-11-24T00:35:40Z</time>
      </trkpt>
      <trkpt lat="42.7082" lon="0.88864">
        <ele>1302.7</ele>
        <time>2018-11-24T00:35:44Z</time>
      </trkpt>
      <trkpt lat="42.70806" lon="0.88871">
        <ele>1300.8</ele>
        <time>2018-11-24T00:35:50Z</time>
      </trkpt>
      <trkpt lat="42.70789" lon="0.88878">
        <ele>1298.4</ele>
        <time>2018-11-24T00:35:57Z</time>
      </trkpt>
      <trkpt lat="42.70771" lon="0.88883">
        <ele>1294</ele>
        <time>2018-11-24T00:36:05Z</time>
      </trkpt>
      <trkpt lat="42.70759" lon="0.88886">
        <ele>1292.6</ele>
        <time>2018-11-24T00:36:10Z</time>
      </trkpt>
      <trkpt lat="42.70747" lon="0.88892">
        <ele>1290.3</ele>
        <time>2018-11-24T00:36:15Z</time>
      </trkpt>
      <trkpt lat="42.70734" lon="0.88892">
        <ele>1286.8</ele>
        <time>2018-11-24T00:36:20Z</time>
      </trkpt>
      <trkpt lat="42.7072" lon="0.88894">
        <ele>1284.9</ele>
        <time>2018-11-24T00:36:26Z</time>
      </trkpt>
      <trkpt lat="42.70705" lon="0.88898">
        <ele>1282.6</ele>
        <time>2018-11-24T00:36:32Z</time>
      </trkpt>
      <trkpt lat="42.70697" lon="0.88903">
        <ele>1281.5</ele>
        <time>2018-11-24T00:36:35Z</time>
      </trkpt>
      <trkpt lat="42.70684" lon="0.88912">
        <ele>1280.7</ele>
        <time>2018-11-24T00:36:41Z</time>
      </trkpt>
      <trkpt lat="42.70671" lon="0.88915">
        <ele>1280.1</ele>
        <time>2018-11-24T00:36:46Z</time>
      </trkpt>
      <trkpt lat="42.7066" lon="0.88917">
        <ele>1277.8</ele>
        <time>2018-11-24T00:36:51Z</time>
      </trkpt>
      <trkpt lat="42.70649" lon="0.88922">
        <ele>1276.3</ele>
        <time>2018-11-24T00:36:55Z</time>
      </trkpt>
      <trkpt lat="42.70646" lon="0.88909">
        <ele>1274.8</ele>
        <time>2018-11-24T00:36:59Z</time>
      </trkpt>
      <trkpt lat="42.70648" lon="0.88895">
        <ele>1275.8</ele>
        <time>2018-11-24T00:37:03Z</time>
      </trkpt>
      <trkpt lat="42.70654" lon="0.88885">
        <ele>1272.5</ele>
        <time>2018-11-24T00:37:07Z</time>
      </trkpt>
      <trkpt lat="42.70659" lon="0.88874">
        <ele>1269.1</ele>
        <time>2018-11-24T00:37:11Z</time>
      </trkpt>
      <trkpt lat="42.7065" lon="0.88867">
        <ele>1266.7</ele>
        <time>2018-11-24T00:37:15Z</time>
      </trkpt>
      <trkpt lat="42.70638" lon="0.88871">
        <ele>1265.3</ele>
        <time>2018-11-24T00:37:20Z</time>
      </trkpt>
      <trkpt lat="42.70626" lon="0.88873">
        <ele>1264.7</ele>
        <time>2018-11-24T00:37:25Z</time>
      </trkpt>
      <trkpt lat="42.70612" lon="0.88879">
        <ele>1263.8</ele>
        <time>2018-11-24T00:37:31Z</time>
      </trkpt>
      <trkpt lat="42.706" lon="0.88881">
        <ele>1261.4</ele>
        <time>2018-11-24T00:37:36Z</time>
      </trkpt>
      <trkpt lat="42.70586" lon="0.88883">
        <ele>1259.5</ele>
        <time>2018-11-24T00:37:41Z</time>
      </trkpt>
      <trkpt lat="42.70574" lon="0.88884">
        <ele>1256.6</ele>
        <time>2018-11-24T00:37:46Z</time>
      </trkpt>
      <trkpt lat="42.70562" lon="0.88886">
        <ele>1253.7</ele>
        <time>2018-11-24T00:37:51Z</time>
      </trkpt>
      <trkpt lat="42.70551" lon="0.88886">
        <ele>1250.8</ele>
        <time>2018-11-24T00:37:56Z</time>
      </trkpt>
      <trkpt lat="42.7054" lon="0.88886">
        <ele>1249.3</ele>
        <time>2018-11-24T00:38:00Z</time>
      </trkpt>
      <trkpt lat="42.7053" lon="0.88886">
        <ele>1246.5</ele>
        <time>2018-11-24T00:38:04Z</time>
      </trkpt>
      <trkpt lat="42.70524" lon="0.88878">
        <ele>1243.6</ele>
        <time>2018-11-24T00:38:07Z</time>
      </trkpt>
      <trkpt lat="42.70517" lon="0.88862">
        <ele>1240.7</ele>
        <time>2018-11-24T00:38:13Z</time>
      </trkpt>
      <trkpt lat="42.70506" lon="0.88857">
        <ele>1238.9</ele>
        <time>2018-11-24T00:38:18Z</time>
      </trkpt>
      <trkpt lat="42.70494" lon="0.88855">
        <ele>1235.5</ele>
        <time>2018-11-24T00:38:22Z</time>
      </trkpt>
      <trkpt lat="42.70483" lon="0.88861">
        <ele>1232.1</ele>
        <time>2018-11-24T00:38:27Z</time>
      </trkpt>
      <trkpt lat="42.70473" lon="0.88866">
        <ele>1229.1</ele>
        <time>2018-11-24T00:38:32Z</time>
      </trkpt>
      <trkpt lat="42.70463" lon="0.88872">
        <ele>1227.2</ele>
        <time>2018-11-24T00:38:36Z</time>
      </trkpt>
      <trkpt lat="42.70452" lon="0.88877">
        <ele>1225.3</ele>
        <time>2018-11-24T00:38:40Z</time>
      </trkpt>
      <trkpt lat="42.70436" lon="0.8889">
        <ele>1221.9</ele>
        <time>2018-11-24T00:38:48Z</time>
      </trkpt>
      <trkpt lat="42.70423" lon="0.889">
        <ele>1220.5</ele>
        <time>2018-11-24T00:38:54Z</time>
      </trkpt>
      <trkpt lat="42.70681" lon="0.90317">
        <ele>1247.9</ele>
        <time>2018-11-24T00:46:03Z</time>
      </trkpt>
      <trkpt lat="42.70683" lon="0.90303">
        <ele>1249.8</ele>
        <time>2018-11-24T00:46:08Z</time>
      </trkpt>
      <trkpt lat="42.70689" lon="0.90292">
        <ele>1251.3</ele>
        <time>2018-11-24T00:46:12Z</time>
      </trkpt>
      <trkpt lat="42.70696" lon="0.90281">
        <ele>1251.3</ele>
        <time>2018-11-24T00:46:16Z</time>
      </trkpt>
      <trkpt lat="42.70705" lon="0.90274">
        <ele>1252.8</ele>
        <time>2018-11-24T00:46:20Z</time>
      </trkpt>
      <trkpt lat="42.70719" lon="0.90278">
        <ele>1255.2</ele>
        <time>2018-11-24T00:46:26Z</time>
      </trkpt>
      <trkpt lat="42.70729" lon="0.90284">
        <ele>1257</ele>
        <time>2018-11-24T00:46:30Z</time>
      </trkpt>
      <trkpt lat="42.70736" lon="0.90293">
        <ele>1258</ele>
        <time>2018-11-24T00:46:34Z</time>
      </trkpt>
      <trkpt lat="42.70739" lon="0.90305">
        <ele>1258.6</ele>
        <time>2018-11-24T00:46:38Z</time>
      </trkpt>
      <trkpt lat="42.70741" lon="0.90318">
        <ele>1259.5</ele>
        <time>2018-11-24T00:46:42Z</time>
      </trkpt>
      <trkpt lat="42.70749" lon="0.90334">
        <ele>1259.9</ele>
        <time>2018-11-24T00:46:47Z</time>
      </trkpt>
      <trkpt lat="42.70755" lon="0.90348">
        <ele>1259.9</ele>
        <time>2018-11-24T00:46:52Z</time>
      </trkpt>
      <trkpt lat="42.70763" lon="0.9036">
        <ele>1260.9</ele>
        <time>2018-11-24T00:46:57Z</time>
      </trkpt>
      <trkpt lat="42.70767" lon="0.90372">
        <ele>1261.3</ele>
        <time>2018-11-24T00:47:01Z</time>
      </trkpt>
      <trkpt lat="42.70766" lon="0.90386">
        <ele>1262.4</ele>
        <time>2018-11-24T00:47:05Z</time>
      </trkpt>
      <trkpt lat="42.70763" lon="0.90412">
        <ele>1264.3</ele>
        <time>2018-11-24T00:47:13Z</time>
      </trkpt>
      <trkpt lat="42.70763" lon="0.90414">
        <ele>1400.7</ele>
        <time>2018-11-24T00:47:13Z</time>
      </trkpt>
      <trkpt lat="42.70765" lon="0.90398">
        <ele>1272.4</ele>
        <time>2018-11-24T00:47:18Z</time>
      </trkpt>
      <trkpt lat="42.70766" lon="0.90382">
        <ele>1271</ele>
        <time>2018-11-24T00:47:23Z</time>
      </trkpt>
      <trkpt lat="42.70777" lon="0.9038">
        <ele>1271</ele>
        <time>2018-11-24T00:47:27Z</time>
      </trkpt>
      <trkpt lat="42.70789" lon="0.90389">
        <ele>1272.5</ele>
        <time>2018-11-24T00:47:33Z</time>
      </trkpt>
      <trkpt lat="42.70798" lon="0.90398">
        <ele>1273.5</ele>
        <time>2018-11-24T00:47:37Z</time>
      </trkpt>
      <trkpt lat="42.70806" lon="0.90407">
        <ele>1274.4</ele>
        <time>2018-11-24T00:47:41Z</time>
      </trkpt>
      <trkpt lat="42.70814" lon="0.90415">
        <ele>1275.9</ele>
        <time>2018-11-24T00:47:45Z</time>
      </trkpt>
      <trkpt lat="42.70824" lon="0.90424">
        <ele>1276.8</ele>
        <time>2018-11-24T00:47:50Z</time>
      </trkpt>
      <trkpt lat="42.70833" lon="0.90432">
        <ele>1278.7</ele>
        <time>2018-11-24T00:47:54Z</time>
      </trkpt>
      <trkpt lat="42.70839" lon="0.9044">
        <ele>1279.2</ele>
        <time>2018-11-24T00:47:58Z</time>
      </trkpt>
      <trkpt lat="42.70845" lon="0.90451">
        <ele>1280.1</ele>
        <time>2018-11-24T00:48:02Z</time>
      </trkpt>
      <trkpt lat="42.70855" lon="0.9046">
        <ele>1282.1</ele>
        <time>2018-11-24T00:48:07Z</time>
      </trkpt>
      <trkpt lat="42.70864" lon="0.90467">
        <ele>1283.1</ele>
        <time>2018-11-24T00:48:11Z</time>
      </trkpt>
      <trkpt lat="42.70874" lon="0.90473">
        <ele>1284.4</ele>
        <time>2018-11-24T00:48:15Z</time>
      </trkpt>
      <trkpt lat="42.70883" lon="0.90482">
        <ele>1285.9</ele>
        <time>2018-11-24T00:48:20Z</time>
      </trkpt>
      <trkpt lat="42.70892" lon="0.90489">
        <ele>1287.4</ele>
        <time>2018-11-24T00:48:24Z</time>
      </trkpt>
      <trkpt lat="42.70902" lon="0.90495">
        <ele>1288.4</ele>
        <time>2018-11-24T00:48:28Z</time>
      </trkpt>
      <trkpt lat="42.70911" lon="0.90503">
        <ele>1288.3</ele>
        <time>2018-11-24T00:48:33Z</time>
      </trkpt>
      <trkpt lat="42.70918" lon="0.90512">
        <ele>1288.8</ele>
        <time>2018-11-24T00:48:36Z</time>
      </trkpt>
      <trkpt lat="42.70927" lon="0.90518">
        <ele>1289.3</ele>
        <time>2018-11-24T00:48:40Z</time>
      </trkpt>
      <trkpt lat="42.70937" lon="0.90523">
        <ele>1289.7</ele>
        <time>2018-11-24T00:48:45Z</time>
      </trkpt>
      <trkpt lat="42.70948" lon="0.90528">
        <ele>1289.8</ele>
        <time>2018-11-24T00:48:49Z</time>
      </trkpt>
      <trkpt lat="42.70957" lon="0.90531">
        <ele>1290.3</ele>
        <time>2018-11-24T00:48:53Z</time>
      </trkpt>
      <trkpt lat="42.70969" lon="0.90532">
        <ele>1290.3</ele>
        <time>2018-11-24T00:48:58Z</time>
      </trkpt>
      <trkpt lat="42.70982" lon="0.90533">
        <ele>1290.2</ele>
        <time>2018-11-24T00:49:03Z</time>
      </trkpt>
      <trkpt lat="42.70992" lon="0.90533">
        <ele>1290.2</ele>
        <time>2018-11-24T00:49:07Z</time>
      </trkpt>
      <trkpt lat="42.71002" lon="0.90534">
        <ele>1290.2</ele>
        <time>2018-11-24T00:49:11Z</time>
      </trkpt>
      <trkpt lat="42.71013" lon="0.90535">
        <ele>1288.8</ele>
        <time>2018-11-24T00:49:15Z</time>
      </trkpt>
      <trkpt lat="42.71022" lon="0.90534">
        <ele>1287.8</ele>
        <time>2018-11-24T00:49:19Z</time>
      </trkpt>
      <trkpt lat="42.71031" lon="0.90529">
        <ele>1286.8</ele>
        <time>2018-11-24T00:49:23Z</time>
      </trkpt>
      <trkpt lat="42.7104" lon="0.90522">
        <ele>1285.4</ele>
        <time>2018-11-24T00:49:27Z</time>
      </trkpt>
      <trkpt lat="42.7105" lon="0.90516">
        <ele>1283.9</ele>
        <time>2018-11-24T00:49:31Z</time>
      </trkpt>
      <trkpt lat="42.7106" lon="0.90509">
        <ele>1282.5</ele>
        <time>2018-11-24T00:49:36Z</time>
      </trkpt>
      <trkpt lat="42.7107" lon="0.90504">
        <ele>1280.2</ele>
        <time>2018-11-24T00:49:40Z</time>
      </trkpt>
      <trkpt lat="42.7108" lon="0.90501">
        <ele>1278.2</ele>
        <time>2018-11-24T00:49:44Z</time>
      </trkpt>
      <trkpt lat="42.71091" lon="0.90501">
        <ele>1276.7</ele>
        <time>2018-11-24T00:49:49Z</time>
      </trkpt>
      <trkpt lat="42.71101" lon="0.90501">
        <ele>1275.9</ele>
        <time>2018-11-24T00:49:53Z</time>
      </trkpt>
      <trkpt lat="42.71112" lon="0.90501">
        <ele>1274.3</ele>
        <time>2018-11-24T00:49:57Z</time>
      </trkpt>
      <trkpt lat="42.71124" lon="0.90501">
        <ele>1273.8</ele>
        <time>2018-11-24T00:50:02Z</time>
      </trkpt>
      <trkpt lat="42.71135" lon="0.90498">
        <ele>1273.5</ele>
        <time>2018-11-24T00:50:06Z</time>
      </trkpt>
      <trkpt lat="42.71145" lon="0.90492">
        <ele>1273.4</ele>
        <time>2018-11-24T00:50:11Z</time>
      </trkpt>
      <trkpt lat="42.71155" lon="0.90483">
        <ele>1273.4</ele>
        <time>2018-11-24T00:50:15Z</time>
      </trkpt>
      <trkpt lat="42.71166" lon="0.90486">
        <ele>1273.5</ele>
        <time>2018-11-24T00:50:20Z</time>
      </trkpt>
      <trkpt lat="42.71172" lon="0.90498">
        <ele>1273.5</ele>
        <time>2018-11-24T00:50:24Z</time>
      </trkpt>
      <trkpt lat="42.71176" lon="0.90512">
        <ele>1273.5</ele>
        <time>2018-11-24T00:50:29Z</time>
      </trkpt>
      <trkpt lat="42.71179" lon="0.90526">
        <ele>1273.4</ele>
        <time>2018-11-24T00:50:33Z</time>
      </trkpt>
      <trkpt lat="42.71184" lon="0.9054">
        <ele>1272.9</ele>
        <time>2018-11-24T00:50:38Z</time>
      </trkpt>
      <trkpt lat="42.71189" lon="0.90554">
        <ele>1273</ele>
        <time>2018-11-24T00:50:42Z</time>
      </trkpt>
      <trkpt lat="42.71197" lon="0.90567">
        <ele>1272.9</ele>
        <time>2018-11-24T00:50:47Z</time>
      </trkpt>
      <trkpt lat="42.71203" lon="0.90579">
        <ele>1274.8</ele>
        <time>2018-11-24T00:50:51Z</time>
      </trkpt>
      <trkpt lat="42.71206" lon="0.90593">
        <ele>1275.3</ele>
        <time>2018-11-24T00:50:56Z</time>
      </trkpt>
      <trkpt lat="42.71208" lon="0.90607">
        <ele>1276.7</ele>
        <time>2018-11-24T00:51:00Z</time>
      </trkpt>
      <trkpt lat="42.71208" lon="0.90626">
        <ele>1277.8</ele>
        <time>2018-11-24T00:51:05Z</time>
      </trkpt>
      <trkpt lat="42.71209" lon="0.90645">
        <ele>1277.8</ele>
        <time>2018-11-24T00:51:11Z</time>
      </trkpt>
      <trkpt lat="42.7121" lon="0.90662">
        <ele>1277.3</ele>
        <time>2018-11-24T00:51:16Z</time>
      </trkpt>
      <trkpt lat="42.71212" lon="0.90679">
        <ele>1278.7</ele>
        <time>2018-11-24T00:51:21Z</time>
      </trkpt>
      <trkpt lat="42.71213" lon="0.90698">
        <ele>1279.6</ele>
        <time>2018-11-24T00:51:27Z</time>
      </trkpt>
      <trkpt lat="42.71216" lon="0.90711">
        <ele>1279.6</ele>
        <time>2018-11-24T00:51:31Z</time>
      </trkpt>
      <trkpt lat="42.7122" lon="0.90728">
        <ele>1279.6</ele>
        <time>2018-11-24T00:51:36Z</time>
      </trkpt>
      <trkpt lat="42.7122" lon="0.90748">
        <ele>1279.7</ele>
        <time>2018-11-24T00:51:42Z</time>
      </trkpt>
      <trkpt lat="42.71231" lon="0.90764">
        <ele>1279.1</ele>
        <time>2018-11-24T00:51:48Z</time>
      </trkpt>
      <trkpt lat="42.71235" lon="0.90776">
        <ele>1279.6</ele>
        <time>2018-11-24T00:51:52Z</time>
      </trkpt>
      <trkpt lat="42.71241" lon="0.90791">
        <ele>1280.6</ele>
        <time>2018-11-24T00:51:57Z</time>
      </trkpt>
      <trkpt lat="42.71245" lon="0.90804">
        <ele>1281.1</ele>
        <time>2018-11-24T00:52:01Z</time>
      </trkpt>
      <trkpt lat="42.7124" lon="0.90814">
        <ele>1281.1</ele>
        <time>2018-11-24T00:52:05Z</time>
      </trkpt>
      <trkpt lat="42.71231" lon="0.90834">
        <ele>1281</ele>
        <time>2018-11-24T00:52:12Z</time>
      </trkpt>
      <trkpt lat="42.7123" lon="0.90858">
        <ele>1281.1</ele>
        <time>2018-11-24T00:52:19Z</time>
      </trkpt>
      <trkpt lat="42.71233" lon="0.90878">
        <ele>1282.1</ele>
        <time>2018-11-24T00:52:25Z</time>
      </trkpt>
      <trkpt lat="42.71239" lon="0.90895">
        <ele>1282.5</ele>
        <time>2018-11-24T00:52:30Z</time>
      </trkpt>
      <trkpt lat="42.71244" lon="0.90908">
        <ele>1283.1</ele>
        <time>2018-11-24T00:52:34Z</time>
      </trkpt>
      <trkpt lat="42.71251" lon="0.90923">
        <ele>1283.6</ele>
        <time>2018-11-24T00:52:40Z</time>
      </trkpt>
      <trkpt lat="42.71262" lon="0.90942">
        <ele>1284.4</ele>
        <time>2018-11-24T00:52:47Z</time>
      </trkpt>
      <trkpt lat="42.71272" lon="0.90956">
        <ele>1284.9</ele>
        <time>2018-11-24T00:52:53Z</time>
      </trkpt>
      <trkpt lat="42.71286" lon="0.9098">
        <ele>1285.9</ele>
        <time>2018-11-24T00:53:02Z</time>
      </trkpt>
      <trkpt lat="42.71289" lon="0.91003">
        <ele>1286.3</ele>
        <time>2018-11-24T00:53:08Z</time>
      </trkpt>
      <trkpt lat="42.71306" lon="0.91033">
        <ele>1288.3</ele>
        <time>2018-11-24T00:53:20Z</time>
      </trkpt>
      <trkpt lat="42.71315" lon="0.91049">
        <ele>1289.2</ele>
        <time>2018-11-24T00:53:26Z</time>
      </trkpt>
      <trkpt lat="42.71338" lon="0.9108">
        <ele>1291.7</ele>
        <time>2018-11-24T00:53:38Z</time>
      </trkpt>
      <trkpt lat="42.71356" lon="0.91087">
        <ele>1293.2</ele>
        <time>2018-11-24T00:53:46Z</time>
      </trkpt>
      <trkpt lat="42.7138" lon="0.91096">
        <ele>1295.5</ele>
        <time>2018-11-24T00:53:56Z</time>
      </trkpt>
      <trkpt lat="42.71397" lon="0.91106">
        <ele>1298</ele>
        <time>2018-11-24T00:54:03Z</time>
      </trkpt>
      <trkpt lat="42.7141" lon="0.91114">
        <ele>1299.9</ele>
        <time>2018-11-24T00:54:09Z</time>
      </trkpt>
      <trkpt lat="42.71421" lon="0.91124">
        <ele>1301.7</ele>
        <time>2018-11-24T00:54:14Z</time>
      </trkpt>
      <trkpt lat="42.71424" lon="0.91139">
        <ele>1303.2</ele>
        <time>2018-11-24T00:54:19Z</time>
      </trkpt>
      <trkpt lat="42.71427" lon="0.91168">
        <ele>1306</ele>
        <time>2018-11-24T00:54:28Z</time>
      </trkpt>
      <trkpt lat="42.71433" lon="0.91196">
        <ele>1309.4</ele>
        <time>2018-11-24T00:54:36Z</time>
      </trkpt>
      <trkpt lat="42.71458" lon="0.91254">
        <ele>1327.7</ele>
        <time>2018-11-24T00:54:56Z</time>
      </trkpt>
      <trkpt lat="42.71455" lon="0.91268">
        <ele>1330.6</ele>
        <time>2018-11-24T00:55:00Z</time>
      </trkpt>
      <trkpt lat="42.71467" lon="0.91274">
        <ele>1334</ele>
        <time>2018-11-24T00:55:05Z</time>
      </trkpt>
      <trkpt lat="42.71493" lon="0.91285">
        <ele>1337.9</ele>
        <time>2018-11-24T00:55:16Z</time>
      </trkpt>
      <trkpt lat="42.71525" lon="0.91289">
        <ele>1341.6</ele>
        <time>2018-11-24T00:55:29Z</time>
      </trkpt>
      <trkpt lat="42.71536" lon="0.91292">
        <ele>1343.6</ele>
        <time>2018-11-24T00:55:34Z</time>
      </trkpt>
      <trkpt lat="42.71554" lon="0.91303">
        <ele>1348.3</ele>
        <time>2018-11-24T00:55:42Z</time>
      </trkpt>
      <trkpt lat="42.71564" lon="0.91318">
        <ele>1350.4</ele>
        <time>2018-11-24T00:55:48Z</time>
      </trkpt>
      <trkpt lat="42.71569" lon="0.91332">
        <ele>1351.7</ele>
        <time>2018-11-24T00:55:52Z</time>
      </trkpt>
      <trkpt lat="42.71571" lon="0.91353">
        <ele>1354.1</ele>
        <time>2018-11-24T00:55:58Z</time>
      </trkpt>
      <trkpt lat="42.71588" lon="0.91386">
        <ele>1357.6</ele>
        <time>2018-11-24T00:56:10Z</time>
      </trkpt>
      <trkpt lat="42.71617" lon="0.91381">
        <ele>1359.4</ele>
        <time>2018-11-24T00:56:22Z</time>
      </trkpt>
      <trkpt lat="42.71631" lon="0.91385">
        <ele>1361.8</ele>
        <time>2018-11-24T00:56:28Z</time>
      </trkpt>
      <trkpt lat="42.71642" lon="0.91384">
        <ele>1364.2</ele>
        <time>2018-11-24T00:56:32Z</time>
      </trkpt>
      <trkpt lat="42.71653" lon="0.91381">
        <ele>1365.7</ele>
        <time>2018-11-24T00:56:36Z</time>
      </trkpt>
      <trkpt lat="42.71677" lon="0.91392">
        <ele>1370.5</ele>
        <time>2018-11-24T00:56:47Z</time>
      </trkpt>
      <trkpt lat="42.71709" lon="0.91396">
        <ele>1377.7</ele>
        <time>2018-11-24T00:56:59Z</time>
      </trkpt>
      <trkpt lat="42.71746" lon="0.91417">
        <ele>1384.5</ele>
        <time>2018-11-24T00:57:16Z</time>
      </trkpt>
      <trkpt lat="42.71775" lon="0.91447">
        <ele>1389.8</ele>
        <time>2018-11-24T00:57:30Z</time>
      </trkpt>
      <trkpt lat="42.71784" lon="0.91464">
        <ele>1393</ele>
        <time>2018-11-24T00:57:36Z</time>
      </trkpt>
      <trkpt lat="42.71791" lon="0.9149">
        <ele>1398.3</ele>
        <time>2018-11-24T00:57:45Z</time>
      </trkpt>
      <trkpt lat="42.71805" lon="0.91508">
        <ele>1405.6</ele>
        <time>2018-11-24T00:57:52Z</time>
      </trkpt>
      <trkpt lat="42.71818" lon="0.91513">
        <ele>1408.5</ele>
        <time>2018-11-24T00:57:58Z</time>
      </trkpt>
      <trkpt lat="42.71825" lon="0.91519">
        <ele>1410.8</ele>
        <time>2018-11-24T00:58:01Z</time>
      </trkpt>
      <trkpt lat="42.71829" lon="0.91533">
        <ele>1411.8</ele>
        <time>2018-11-24T00:58:05Z</time>
      </trkpt>
      <trkpt lat="42.71821" lon="0.91549">
        <ele>1413.3</ele>
        <time>2018-11-24T00:58:11Z</time>
      </trkpt>
      <trkpt lat="42.71814" lon="0.91565">
        <ele>1414.8</ele>
        <time>2018-11-24T00:58:16Z</time>
      </trkpt>
      <trkpt lat="42.71808" lon="0.9158">
        <ele>1416.2</ele>
        <time>2018-11-24T00:58:21Z</time>
      </trkpt>
      <trkpt lat="42.71799" lon="0.91599">
        <ele>1418.6</ele>
        <time>2018-11-24T00:58:28Z</time>
      </trkpt>
      <trkpt lat="42.71794" lon="0.91613">
        <ele>1418.6</ele>
        <time>2018-11-24T00:58:33Z</time>
      </trkpt>
      <trkpt lat="42.71795" lon="0.91629">
        <ele>1420.1</ele>
        <time>2018-11-24T00:58:37Z</time>
      </trkpt>
      <trkpt lat="42.71794" lon="0.91643">
        <ele>1420.5</ele>
        <time>2018-11-24T00:58:41Z</time>
      </trkpt>
      <trkpt lat="42.71793" lon="0.91657">
        <ele>1421.9</ele>
        <time>2018-11-24T00:58:45Z</time>
      </trkpt>
      <trkpt lat="42.71792" lon="0.91672">
        <ele>1422.9</ele>
        <time>2018-11-24T00:58:50Z</time>
      </trkpt>
      <trkpt lat="42.71793" lon="0.91686">
        <ele>1423.8</ele>
        <time>2018-11-24T00:58:54Z</time>
      </trkpt>
      <trkpt lat="42.71795" lon="0.91701">
        <ele>1425.2</ele>
        <time>2018-11-24T00:58:58Z</time>
      </trkpt>
      <trkpt lat="42.71799" lon="0.91714">
        <ele>1426.7</ele>
        <time>2018-11-24T00:59:03Z</time>
      </trkpt>
      <trkpt lat="42.71804" lon="0.91726">
        <ele>1428.2</ele>
        <time>2018-11-24T00:59:07Z</time>
      </trkpt>
      <trkpt lat="42.71806" lon="0.91739">
        <ele>1429.1</ele>
        <time>2018-11-24T00:59:11Z</time>
      </trkpt>
      <trkpt lat="42.7181" lon="0.91753">
        <ele>1431.1</ele>
        <time>2018-11-24T00:59:15Z</time>
      </trkpt>
      <trkpt lat="42.71813" lon="0.91767">
        <ele>1433</ele>
        <time>2018-11-24T00:59:19Z</time>
      </trkpt>
      <trkpt lat="42.71816" lon="0.91781">
        <ele>1433.5</ele>
        <time>2018-11-24T00:59:24Z</time>
      </trkpt>
      <trkpt lat="42.71815" lon="0.91801">
        <ele>1435</ele>
        <time>2018-11-24T00:59:30Z</time>
      </trkpt>
      <trkpt lat="42.71808" lon="0.91821">
        <ele>1437.7</ele>
        <time>2018-11-24T00:59:36Z</time>
      </trkpt>
      <trkpt lat="42.71794" lon="0.91857">
        <ele>1443.1</ele>
        <time>2018-11-24T00:59:48Z</time>
      </trkpt>
      <trkpt lat="42.71791" lon="0.91876">
        <ele>1446.5</ele>
        <time>2018-11-24T00:59:54Z</time>
      </trkpt>
      <trkpt lat="42.71789" lon="0.91898">
        <ele>1450.3</ele>
        <time>2018-11-24T01:00:00Z</time>
      </trkpt>
      <trkpt lat="42.7178" lon="0.91926">
        <ele>1454.6</ele>
        <time>2018-11-24T01:00:09Z</time>
      </trkpt>
      <trkpt lat="42.71761" lon="0.91948">
        <ele>1458.9</ele>
        <time>2018-11-24T01:00:19Z</time>
      </trkpt>
      <trkpt lat="42.7175" lon="0.91963">
        <ele>1461.3</ele>
        <time>2018-11-24T01:00:25Z</time>
      </trkpt>
      <trkpt lat="42.71715" lon="0.92009">
        <ele>1472.5</ele>
        <time>2018-11-24T01:00:45Z</time>
      </trkpt>
      <trkpt lat="42.71705" lon="0.92035">
        <ele>1480.6</ele>
        <time>2018-11-24T01:00:54Z</time>
      </trkpt>
      <trkpt lat="42.71711" lon="0.92048">
        <ele>1483</ele>
        <time>2018-11-24T01:00:58Z</time>
      </trkpt>
      <trkpt lat="42.71713" lon="0.92065">
        <ele>1484.5</ele>
        <time>2018-11-24T01:01:03Z</time>
      </trkpt>
      <trkpt lat="42.71717" lon="0.92083">
        <ele>1486.9</ele>
        <time>2018-11-24T01:01:08Z</time>
      </trkpt>
      <trkpt lat="42.71714" lon="0.92087">
        <ele>1489.3</ele>
        <time>2018-11-24T01:01:10Z</time>
      </trkpt>
      <trkpt lat="42.71703" lon="0.92083">
        <ele>1491.1</ele>
        <time>2018-11-24T01:01:15Z</time>
      </trkpt>
      <trkpt lat="42.71693" lon="0.92076">
        <ele>1492.6</ele>
        <time>2018-11-24T01:01:19Z</time>
      </trkpt>
      <trkpt lat="42.71682" lon="0.92067">
        <ele>1494.6</ele>
        <time>2018-11-24T01:01:24Z</time>
      </trkpt>
      <trkpt lat="42.71673" lon="0.92055">
        <ele>1495.9</ele>
        <time>2018-11-24T01:01:29Z</time>
      </trkpt>
      <trkpt lat="42.71665" lon="0.92041">
        <ele>1498.3</ele>
        <time>2018-11-24T01:01:34Z</time>
      </trkpt>
      <trkpt lat="42.71643" lon="0.92007">
        <ele>1507.9</ele>
        <time>2018-11-24T01:01:48Z</time>
      </trkpt>
      <trkpt lat="42.71631" lon="0.92011">
        <ele>1512.8</ele>
        <time>2018-11-24T01:01:53Z</time>
      </trkpt>
      <trkpt lat="42.71638" lon="0.92021">
        <ele>1514.7</ele>
        <time>2018-11-24T01:01:57Z</time>
      </trkpt>
      <trkpt lat="42.71622" lon="0.92027">
        <ele>1520.5</ele>
        <time>2018-11-24T01:02:04Z</time>
      </trkpt>
      <trkpt lat="42.7161" lon="0.92027">
        <ele>1522.4</ele>
        <time>2018-11-24T01:02:09Z</time>
      </trkpt>
      <trkpt lat="42.71597" lon="0.92029">
        <ele>1525.2</ele>
        <time>2018-11-24T01:02:14Z</time>
      </trkpt>
      <trkpt lat="42.71574" lon="0.92031">
        <ele>1528.7</ele>
        <time>2018-11-24T01:02:23Z</time>
      </trkpt>
      <trkpt lat="42.71554" lon="0.92032">
        <ele>1532</ele>
        <time>2018-11-24T01:02:31Z</time>
      </trkpt>
      <trkpt lat="42.71551" lon="0.92044">
        <ele>1534.8</ele>
        <time>2018-11-24T01:02:35Z</time>
      </trkpt>
      <trkpt lat="42.71561" lon="0.92048">
        <ele>1536.9</ele>
        <time>2018-11-24T01:02:39Z</time>
      </trkpt>
      <trkpt lat="42.7157" lon="0.92057">
        <ele>1538.2</ele>
        <time>2018-11-24T01:02:43Z</time>
      </trkpt>
      <trkpt lat="42.7158" lon="0.92068">
        <ele>1540.6</ele>
        <time>2018-11-24T01:02:48Z</time>
      </trkpt>
      <trkpt lat="42.71583" lon="0.92079">
        <ele>1543.1</ele>
        <time>2018-11-24T01:02:52Z</time>
      </trkpt>
      <trkpt lat="42.71574" lon="0.92082">
        <ele>1544.6</ele>
        <time>2018-11-24T01:02:56Z</time>
      </trkpt>
      <trkpt lat="42.71562" lon="0.92086">
        <ele>1546.4</ele>
        <time>2018-11-24T01:03:01Z</time>
      </trkpt>
      <trkpt lat="42.71549" lon="0.92088">
        <ele>1548.9</ele>
        <time>2018-11-24T01:03:06Z</time>
      </trkpt>
      <trkpt lat="42.71525" lon="0.92072">
        <ele>1554.1</ele>
        <time>2018-11-24T01:03:17Z</time>
      </trkpt>
      <trkpt lat="42.71517" lon="0.92057">
        <ele>1556.6</ele>
        <time>2018-11-24T01:03:22Z</time>
      </trkpt>
      <trkpt lat="42.71513" lon="0.92041">
        <ele>1558.5</ele>
        <time>2018-11-24T01:03:27Z</time>
      </trkpt>
      <trkpt lat="42.71508" lon="0.92028">
        <ele>1560.4</ele>
        <time>2018-11-24T01:03:32Z</time>
      </trkpt>
      <trkpt lat="42.71499" lon="0.92019">
        <ele>1562.3</ele>
        <time>2018-11-24T01:03:36Z</time>
      </trkpt>
      <trkpt lat="42.71488" lon="0.92015">
        <ele>1563.7</ele>
        <time>2018-11-24T01:03:40Z</time>
      </trkpt>
      <trkpt lat="42.71477" lon="0.9201">
        <ele>1564.6</ele>
        <time>2018-11-24T01:03:45Z</time>
      </trkpt>
      <trkpt lat="42.71467" lon="0.92004">
        <ele>1565.6</ele>
        <time>2018-11-24T01:03:49Z</time>
      </trkpt>
      <trkpt lat="42.71453" lon="0.91996">
        <ele>1566.7</ele>
        <time>2018-11-24T01:03:55Z</time>
      </trkpt>
      <trkpt lat="42.71436" lon="0.91983">
        <ele>1568.5</ele>
        <time>2018-11-24T01:04:03Z</time>
      </trkpt>
      <trkpt lat="42.71423" lon="0.91977">
        <ele>1570.5</ele>
        <time>2018-11-24T01:04:09Z</time>
      </trkpt>
      <trkpt lat="42.7141" lon="0.91969">
        <ele>1571.9</ele>
        <time>2018-11-24T01:04:15Z</time>
      </trkpt>
      <trkpt lat="42.71395" lon="0.91958">
        <ele>1574.8</ele>
        <time>2018-11-24T01:04:21Z</time>
      </trkpt>
      <trkpt lat="42.71384" lon="0.9195">
        <ele>1576.7</ele>
        <time>2018-11-24T01:04:26Z</time>
      </trkpt>
      <trkpt lat="42.71373" lon="0.91939">
        <ele>1578.6</ele>
        <time>2018-11-24T01:04:32Z</time>
      </trkpt>
      <trkpt lat="42.71361" lon="0.91936">
        <ele>1580.5</ele>
        <time>2018-11-24T01:04:37Z</time>
      </trkpt>
      <trkpt lat="42.7135" lon="0.91934">
        <ele>1582.9</ele>
        <time>2018-11-24T01:04:41Z</time>
      </trkpt>
      <trkpt lat="42.71339" lon="0.91934">
        <ele>1584.3</ele>
        <time>2018-11-24T01:04:46Z</time>
      </trkpt>
      <trkpt lat="42.71327" lon="0.91935">
        <ele>1586.7</ele>
        <time>2018-11-24T01:04:51Z</time>
      </trkpt>
      <trkpt lat="42.7131" lon="0.9193">
        <ele>1588.7</ele>
        <time>2018-11-24T01:04:57Z</time>
      </trkpt>
      <trkpt lat="42.71297" lon="0.91924">
        <ele>1590.2</ele>
        <time>2018-11-24T01:05:03Z</time>
      </trkpt>
      <trkpt lat="42.71287" lon="0.91925">
        <ele>1591.7</ele>
        <time>2018-11-24T01:05:07Z</time>
      </trkpt>
      <trkpt lat="42.71277" lon="0.91926">
        <ele>1593.5</ele>
        <time>2018-11-24T01:05:11Z</time>
      </trkpt>
      <trkpt lat="42.71267" lon="0.9193">
        <ele>1594.5</ele>
        <time>2018-11-24T01:05:15Z</time>
      </trkpt>
      <trkpt lat="42.71258" lon="0.91932">
        <ele>1595.4</ele>
        <time>2018-11-24T01:05:19Z</time>
      </trkpt>
      <trkpt lat="42.71247" lon="0.91934">
        <ele>1596.9</ele>
        <time>2018-11-24T01:05:23Z</time>
      </trkpt>
      <trkpt lat="42.71236" lon="0.91935">
        <ele>1597.9</ele>
        <time>2018-11-24T01:05:27Z</time>
      </trkpt>
      <trkpt lat="42.71226" lon="0.91937">
        <ele>1598.8</ele>
        <time>2018-11-24T01:05:32Z</time>
      </trkpt>
      <trkpt lat="42.71215" lon="0.9194">
        <ele>1600.3</ele>
        <time>2018-11-24T01:05:36Z</time>
      </trkpt>
      <trkpt lat="42.71206" lon="0.91944">
        <ele>1600.7</ele>
        <time>2018-11-24T01:05:40Z</time>
      </trkpt>
      <trkpt lat="42.71197" lon="0.91949">
        <ele>1601.6</ele>
        <time>2018-11-24T01:05:44Z</time>
      </trkpt>
      <trkpt lat="42.71188" lon="0.91956">
        <ele>1602.1</ele>
        <time>2018-11-24T01:05:48Z</time>
      </trkpt>
      <trkpt lat="42.7118" lon="0.91966">
        <ele>1603.2</ele>
        <time>2018-11-24T01:05:52Z</time>
      </trkpt>
      <trkpt lat="42.71173" lon="0.91979">
        <ele>1604.2</ele>
        <time>2018-11-24T01:05:57Z</time>
      </trkpt>
      <trkpt lat="42.71166" lon="0.91989">
        <ele>1605.1</ele>
        <time>2018-11-24T01:06:01Z</time>
      </trkpt>
      <trkpt lat="42.71158" lon="0.91999">
        <ele>1606</ele>
        <time>2018-11-24T01:06:05Z</time>
      </trkpt>
      <trkpt lat="42.71149" lon="0.92004">
        <ele>1606.9</ele>
        <time>2018-11-24T01:06:09Z</time>
      </trkpt>
      <trkpt lat="42.71139" lon="0.92007">
        <ele>1608</ele>
        <time>2018-11-24T01:06:13Z</time>
      </trkpt>
      <trkpt lat="42.71129" lon="0.92008">
        <ele>1608.4</ele>
        <time>2018-11-24T01:06:17Z</time>
      </trkpt>
      <trkpt lat="42.71119" lon="0.92009">
        <ele>1609.4</ele>
        <time>2018-11-24T01:06:21Z</time>
      </trkpt>
      <trkpt lat="42.7111" lon="0.9201">
        <ele>1609.9</ele>
        <time>2018-11-24T01:06:25Z</time>
      </trkpt>
      <trkpt lat="42.711" lon="0.92013">
        <ele>1611.4</ele>
        <time>2018-11-24T01:06:29Z</time>
      </trkpt>
      <trkpt lat="42.7109" lon="0.92019">
        <ele>1613.2</ele>
        <time>2018-11-24T01:06:33Z</time>
      </trkpt>
      <trkpt lat="42.71081" lon="0.92025">
        <ele>1614.1</ele>
        <time>2018-11-24T01:06:37Z</time>
      </trkpt>
      <trkpt lat="42.71071" lon="0.92031">
        <ele>1615.1</ele>
        <time>2018-11-24T01:06:42Z</time>
      </trkpt>
      <trkpt lat="42.71061" lon="0.92038">
        <ele>1616.1</ele>
        <time>2018-11-24T01:06:46Z</time>
      </trkpt>
      <trkpt lat="42.7105" lon="0.92044">
        <ele>1617.6</ele>
        <time>2018-11-24T01:06:51Z</time>
      </trkpt>
      <trkpt lat="42.71039" lon="0.92046">
        <ele>1619.4</ele>
        <time>2018-11-24T01:06:55Z</time>
      </trkpt>
      <trkpt lat="42.71029" lon="0.92045">
        <ele>1621</ele>
        <time>2018-11-24T01:07:00Z</time>
      </trkpt>
      <trkpt lat="42.71018" lon="0.92043">
        <ele>1622.3</ele>
        <time>2018-11-24T01:07:04Z</time>
      </trkpt>
      <trkpt lat="42.71007" lon="0.92041">
        <ele>1623.4</ele>
        <time>2018-11-24T01:07:08Z</time>
      </trkpt>
      <trkpt lat="42.70997" lon="0.92038">
        <ele>1625.2</ele>
        <time>2018-11-24T01:07:12Z</time>
      </trkpt>
      <trkpt lat="42.70986" lon="0.92036">
        <ele>1626.3</ele>
        <time>2018-11-24T01:07:17Z</time>
      </trkpt>
      <trkpt lat="42.70976" lon="0.92033">
        <ele>1627.1</ele>
        <time>2018-11-24T01:07:21Z</time>
      </trkpt>
      <trkpt lat="42.70964" lon="0.92023">
        <ele>1629</ele>
        <time>2018-11-24T01:07:27Z</time>
      </trkpt>
      <trkpt lat="42.70956" lon="0.92013">
        <ele>1631</ele>
        <time>2018-11-24T01:07:31Z</time>
      </trkpt>
      <trkpt lat="42.70947" lon="0.92004">
        <ele>1631.9</ele>
        <time>2018-11-24T01:07:35Z</time>
      </trkpt>
      <trkpt lat="42.70937" lon="0.91997">
        <ele>1633.5</ele>
        <time>2018-11-24T01:07:40Z</time>
      </trkpt>
      <trkpt lat="42.70927" lon="0.91994">
        <ele>1634.3</ele>
        <time>2018-11-24T01:07:44Z</time>
      </trkpt>
      <trkpt lat="42.70917" lon="0.91992">
        <ele>1635.8</ele>
        <time>2018-11-24T01:07:48Z</time>
      </trkpt>
      <trkpt lat="42.70907" lon="0.9199">
        <ele>1637.3</ele>
        <time>2018-11-24T01:07:52Z</time>
      </trkpt>
      <trkpt lat="42.70897" lon="0.9199">
        <ele>1638.8</ele>
        <time>2018-11-24T01:07:56Z</time>
      </trkpt>
      <trkpt lat="42.7089" lon="0.91998">
        <ele>1641.1</ele>
        <time>2018-11-24T01:08:00Z</time>
      </trkpt>
      <trkpt lat="42.70891" lon="0.92011">
        <ele>1643.1</ele>
        <time>2018-11-24T01:08:03Z</time>
      </trkpt>
      <trkpt lat="42.70889" lon="0.92025">
        <ele>1646.5</ele>
        <time>2018-11-24T01:08:08Z</time>
      </trkpt>
      <trkpt lat="42.70885" lon="0.92038">
        <ele>1649.8</ele>
        <time>2018-11-24T01:08:12Z</time>
      </trkpt>
      <trkpt lat="42.70879" lon="0.92049">
        <ele>1652.6</ele>
        <time>2018-11-24T01:08:16Z</time>
      </trkpt>
      <trkpt lat="42.70872" lon="0.92059">
        <ele>1656</ele>
        <time>2018-11-24T01:08:20Z</time>
      </trkpt>
      <trkpt lat="42.70866" lon="0.9207">
        <ele>1658.4</ele>
        <time>2018-11-24T01:08:24Z</time>
      </trkpt>
      <trkpt lat="42.70861" lon="0.92084">
        <ele>1659.8</ele>
        <time>2018-11-24T01:08:29Z</time>
      </trkpt>
      <trkpt lat="42.70857" lon="0.92096">
        <ele>1660.3</ele>
        <time>2018-11-24T01:08:33Z</time>
      </trkpt>
      <trkpt lat="42.70852" lon="0.92108">
        <ele>1661.3</ele>
        <time>2018-11-24T01:08:36Z</time>
      </trkpt>
      <trkpt lat="42.70847" lon="0.92119">
        <ele>1662.3</ele>
        <time>2018-11-24T01:08:40Z</time>
      </trkpt>
      <trkpt lat="42.70844" lon="0.92131">
        <ele>1663.3</ele>
        <time>2018-11-24T01:08:44Z</time>
      </trkpt>
      <trkpt lat="42.70838" lon="0.92143">
        <ele>1664.1</ele>
        <time>2018-11-24T01:08:48Z</time>
      </trkpt>
      <trkpt lat="42.70834" lon="0.92155">
        <ele>1664.6</ele>
        <time>2018-11-24T01:08:52Z</time>
      </trkpt>
      <trkpt lat="42.70833" lon="0.92169">
        <ele>1665.7</ele>
        <time>2018-11-24T01:08:56Z</time>
      </trkpt>
      <trkpt lat="42.70834" lon="0.92182">
        <ele>1667</ele>
        <time>2018-11-24T01:09:00Z</time>
      </trkpt>
      <trkpt lat="42.70837" lon="0.92195">
        <ele>1668</ele>
        <time>2018-11-24T01:09:04Z</time>
      </trkpt>
      <trkpt lat="42.70838" lon="0.92209">
        <ele>1668.5</ele>
        <time>2018-11-24T01:09:08Z</time>
      </trkpt>
      <trkpt lat="42.70837" lon="0.92221">
        <ele>1668.9</ele>
        <time>2018-11-24T01:09:12Z</time>
      </trkpt>
      <trkpt lat="42.70836" lon="0.92235">
        <ele>1670</ele>
        <time>2018-11-24T01:09:16Z</time>
      </trkpt>
      <trkpt lat="42.70834" lon="0.92249">
        <ele>1671</ele>
        <time>2018-11-24T01:09:20Z</time>
      </trkpt>
      <trkpt lat="42.70831" lon="0.92262">
        <ele>1671.9</ele>
        <time>2018-11-24T01:09:24Z</time>
      </trkpt>
      <trkpt lat="42.70828" lon="0.92274">
        <ele>1673.3</ele>
        <time>2018-11-24T01:09:28Z</time>
      </trkpt>
      <trkpt lat="42.70824" lon="0.92285">
        <ele>1674.3</ele>
        <time>2018-11-24T01:09:31Z</time>
      </trkpt>
      <trkpt lat="42.7082" lon="0.92298">
        <ele>1675.8</ele>
        <time>2018-11-24T01:09:36Z</time>
      </trkpt>
      <trkpt lat="42.70817" lon="0.9231">
        <ele>1677.1</ele>
        <time>2018-11-24T01:09:39Z</time>
      </trkpt>
      <trkpt lat="42.70812" lon="0.92322">
        <ele>1678.1</ele>
        <time>2018-11-24T01:09:43Z</time>
      </trkpt>
      <trkpt lat="42.70809" lon="0.92334">
        <ele>1679.1</ele>
        <time>2018-11-24T01:09:47Z</time>
      </trkpt>
      <trkpt lat="42.70807" lon="0.92347">
        <ele>1680</ele>
        <time>2018-11-24T01:09:51Z</time>
      </trkpt>
      <trkpt lat="42.70805" lon="0.92361">
        <ele>1680.5</ele>
        <time>2018-11-24T01:09:55Z</time>
      </trkpt>
      <trkpt lat="42.70804" lon="0.92375">
        <ele>1681.5</ele>
        <time>2018-11-24T01:09:59Z</time>
      </trkpt>
      <trkpt lat="42.70802" lon="0.92388">
        <ele>1682.5</ele>
        <time>2018-11-24T01:10:03Z</time>
      </trkpt>
      <trkpt lat="42.70802" lon="0.92402">
        <ele>1683.4</ele>
        <time>2018-11-24T01:10:07Z</time>
      </trkpt>
      <trkpt lat="42.70801" lon="0.92416">
        <ele>1683.9</ele>
        <time>2018-11-24T01:10:11Z</time>
      </trkpt>
      <trkpt lat="42.70802" lon="0.92429">
        <ele>1685.4</ele>
        <time>2018-11-24T01:10:15Z</time>
      </trkpt>
      <trkpt lat="42.708" lon="0.92443">
        <ele>1686.3</ele>
        <time>2018-11-24T01:10:19Z</time>
      </trkpt>
      <trkpt lat="42.70799" lon="0.92456">
        <ele>1686.7</ele>
        <time>2018-11-24T01:10:23Z</time>
      </trkpt>
      <trkpt lat="42.70798" lon="0.92471">
        <ele>1688.3</ele>
        <time>2018-11-24T01:10:28Z</time>
      </trkpt>
      <trkpt lat="42.70797" lon="0.92485">
        <ele>1689.2</ele>
        <time>2018-11-24T01:10:32Z</time>
      </trkpt>
      <trkpt lat="42.70795" lon="0.92498">
        <ele>1690.7</ele>
        <time>2018-11-24T01:10:36Z</time>
      </trkpt>
      <trkpt lat="42.70794" lon="0.92512">
        <ele>1691.5</ele>
        <time>2018-11-24T01:10:40Z</time>
      </trkpt>
      <trkpt lat="42.70794" lon="0.92525">
        <ele>1692.5</ele>
        <time>2018-11-24T01:10:44Z</time>
      </trkpt>
      <trkpt lat="42.70793" lon="0.92538">
        <ele>1693</ele>
        <time>2018-11-24T01:10:48Z</time>
      </trkpt>
      <trkpt lat="42.70792" lon="0.92552">
        <ele>1694.4</ele>
        <time>2018-11-24T01:10:52Z</time>
      </trkpt>
      <trkpt lat="42.7079" lon="0.92565">
        <ele>1695</ele>
        <time>2018-11-24T01:10:56Z</time>
      </trkpt>
      <trkpt lat="42.70788" lon="0.92579">
        <ele>1696</ele>
        <time>2018-11-24T01:11:00Z</time>
      </trkpt>
      <trkpt lat="42.70786" lon="0.92592">
        <ele>1697.4</ele>
        <time>2018-11-24T01:11:04Z</time>
      </trkpt>
      <trkpt lat="42.70785" lon="0.92605">
        <ele>1698.4</ele>
        <time>2018-11-24T01:11:08Z</time>
      </trkpt>
      <trkpt lat="42.70783" lon="0.92619">
        <ele>1699.3</ele>
        <time>2018-11-24T01:11:12Z</time>
      </trkpt>
      <trkpt lat="42.70781" lon="0.92632">
        <ele>1700.3</ele>
        <time>2018-11-24T01:11:16Z</time>
      </trkpt>
      <trkpt lat="42.7078" lon="0.92645">
        <ele>1701.2</ele>
        <time>2018-11-24T01:11:20Z</time>
      </trkpt>
      <trkpt lat="42.70778" lon="0.92659">
        <ele>1701.6</ele>
        <time>2018-11-24T01:11:24Z</time>
      </trkpt>
      <trkpt lat="42.70776" lon="0.92673">
        <ele>1703.1</ele>
        <time>2018-11-24T01:11:28Z</time>
      </trkpt>
      <trkpt lat="42.70775" lon="0.92686">
        <ele>1703.5</ele>
        <time>2018-11-24T01:11:32Z</time>
      </trkpt>
      <trkpt lat="42.70773" lon="0.92699">
        <ele>1705</ele>
        <time>2018-11-24T01:11:36Z</time>
      </trkpt>
      <trkpt lat="42.70772" lon="0.92715">
        <ele>1706.1</ele>
        <time>2018-11-24T01:11:40Z</time>
      </trkpt>
      <trkpt lat="42.70772" lon="0.92728">
        <ele>1707.4</ele>
        <time>2018-11-24T01:11:44Z</time>
      </trkpt>
      <trkpt lat="42.70771" lon="0.92741">
        <ele>1708.8</ele>
        <time>2018-11-24T01:11:48Z</time>
      </trkpt>
      <trkpt lat="42.7077" lon="0.92754">
        <ele>1710.4</ele>
        <time>2018-11-24T01:11:52Z</time>
      </trkpt>
      <trkpt lat="42.70768" lon="0.92767">
        <ele>1711.7</ele>
        <time>2018-11-24T01:11:56Z</time>
      </trkpt>
      <trkpt lat="42.70767" lon="0.9278">
        <ele>1712.3</ele>
        <time>2018-11-24T01:12:00Z</time>
      </trkpt>
      <trkpt lat="42.70766" lon="0.92795">
        <ele>1713.7</ele>
        <time>2018-11-24T01:12:04Z</time>
      </trkpt>
      <trkpt lat="42.70766" lon="0.92809">
        <ele>1714.2</ele>
        <time>2018-11-24T01:12:08Z</time>
      </trkpt>
      <trkpt lat="42.70766" lon="0.92823">
        <ele>1714.7</ele>
        <time>2018-11-24T01:12:12Z</time>
      </trkpt>
      <trkpt lat="42.70766" lon="0.92837">
        <ele>1716</ele>
        <time>2018-11-24T01:12:16Z</time>
      </trkpt>
      <trkpt lat="42.70766" lon="0.9285">
        <ele>1717</ele>
        <time>2018-11-24T01:12:20Z</time>
      </trkpt>
      <trkpt lat="42.70766" lon="0.92864">
        <ele>1718</ele>
        <time>2018-11-24T01:12:25Z</time>
      </trkpt>
      <trkpt lat="42.70767" lon="0.92878">
        <ele>1719.4</ele>
        <time>2018-11-24T01:12:29Z</time>
      </trkpt>
      <trkpt lat="42.70767" lon="0.92891">
        <ele>1720.4</ele>
        <time>2018-11-24T01:12:32Z</time>
      </trkpt>
      <trkpt lat="42.70767" lon="0.92904">
        <ele>1721.3</ele>
        <time>2018-11-24T01:12:36Z</time>
      </trkpt>
      <trkpt lat="42.70767" lon="0.92917">
        <ele>1722.3</ele>
        <time>2018-11-24T01:12:40Z</time>
      </trkpt>
      <trkpt lat="42.70767" lon="0.92931">
        <ele>1722.8</ele>
        <time>2018-11-24T01:12:44Z</time>
      </trkpt>
      <trkpt lat="42.70766" lon="0.92945">
        <ele>1723.7</ele>
        <time>2018-11-24T01:12:48Z</time>
      </trkpt>
      <trkpt lat="42.70767" lon="0.9296">
        <ele>1724.8</ele>
        <time>2018-11-24T01:12:53Z</time>
      </trkpt>
      <trkpt lat="42.70768" lon="0.92975">
        <ele>1725.8</ele>
        <time>2018-11-24T01:12:57Z</time>
      </trkpt>
      <trkpt lat="42.70769" lon="0.92988">
        <ele>1727.1</ele>
        <time>2018-11-24T01:13:01Z</time>
      </trkpt>
      <trkpt lat="42.70772" lon="0.93001">
        <ele>1727.6</ele>
        <time>2018-11-24T01:13:05Z</time>
      </trkpt>
      <trkpt lat="42.70774" lon="0.93014">
        <ele>1728.5</ele>
        <time>2018-11-24T01:13:09Z</time>
      </trkpt>
      <trkpt lat="42.70776" lon="0.93029">
        <ele>1730.1</ele>
        <time>2018-11-24T01:13:13Z</time>
      </trkpt>
      <trkpt lat="42.70777" lon="0.93042">
        <ele>1731.5</ele>
        <time>2018-11-24T01:13:17Z</time>
      </trkpt>
      <trkpt lat="42.70777" lon="0.93054">
        <ele>1732.5</ele>
        <time>2018-11-24T01:13:21Z</time>
      </trkpt>
      <trkpt lat="42.70777" lon="0.93069">
        <ele>1733.4</ele>
        <time>2018-11-24T01:13:25Z</time>
      </trkpt>
      <trkpt lat="42.70776" lon="0.93083">
        <ele>1733.8</ele>
        <time>2018-11-24T01:13:29Z</time>
      </trkpt>
      <trkpt lat="42.70775" lon="0.93096">
        <ele>1735.4</ele>
        <time>2018-11-24T01:13:33Z</time>
      </trkpt>
      <trkpt lat="42.70775" lon="0.93109">
        <ele>1736.3</ele>
        <time>2018-11-24T01:13:37Z</time>
      </trkpt>
      <trkpt lat="42.70778" lon="0.93122">
        <ele>1737.7</ele>
        <time>2018-11-24T01:13:41Z</time>
      </trkpt>
      <trkpt lat="42.70782" lon="0.93137">
        <ele>1736.2</ele>
        <time>2018-11-24T01:13:46Z</time>
      </trkpt>
      <trkpt lat="42.70782" lon="0.93151">
        <ele>1737.8</ele>
        <time>2018-11-24T01:13:50Z</time>
      </trkpt>
      <trkpt lat="42.70782" lon="0.93164">
        <ele>1738.6</ele>
        <time>2018-11-24T01:13:54Z</time>
      </trkpt>
      <trkpt lat="42.70781" lon="0.93177">
        <ele>1740.1</ele>
        <time>2018-11-24T01:13:57Z</time>
      </trkpt>
      <trkpt lat="42.70779" lon="0.9319">
        <ele>1741.1</ele>
        <time>2018-11-24T01:14:01Z</time>
      </trkpt>
      <trkpt lat="42.70779" lon="0.93203">
        <ele>1742.1</ele>
        <time>2018-11-24T01:14:05Z</time>
      </trkpt>
      <trkpt lat="42.7078" lon="0.93216">
        <ele>1743</ele>
        <time>2018-11-24T01:14:09Z</time>
      </trkpt>
      <trkpt lat="42.70781" lon="0.93229">
        <ele>1744</ele>
        <time>2018-11-24T01:14:13Z</time>
      </trkpt>
      <trkpt lat="42.70782" lon="0.93242">
        <ele>1744.5</ele>
        <time>2018-11-24T01:14:17Z</time>
      </trkpt>
      <trkpt lat="42.70782" lon="0.93254">
        <ele>1744.9</ele>
        <time>2018-11-24T01:14:20Z</time>
      </trkpt>
      <trkpt lat="42.70781" lon="0.93267">
        <ele>1745.9</ele>
        <time>2018-11-24T01:14:24Z</time>
      </trkpt>
      <trkpt lat="42.70783" lon="0.93281">
        <ele>1746.9</ele>
        <time>2018-11-24T01:14:28Z</time>
      </trkpt>
      <trkpt lat="42.70783" lon="0.93294">
        <ele>1747.8</ele>
        <time>2018-11-24T01:14:32Z</time>
      </trkpt>
      <trkpt lat="42.70785" lon="0.93307">
        <ele>1748.3</ele>
        <time>2018-11-24T01:14:36Z</time>
      </trkpt>
      <trkpt lat="42.70785" lon="0.9332">
        <ele>1749.2</ele>
        <time>2018-11-24T01:14:40Z</time>
      </trkpt>
      <trkpt lat="42.70785" lon="0.93333">
        <ele>1749.2</ele>
        <time>2018-11-24T01:14:44Z</time>
      </trkpt>
      <trkpt lat="42.70787" lon="0.93346">
        <ele>1750.8</ele>
        <time>2018-11-24T01:14:48Z</time>
      </trkpt>
      <trkpt lat="42.70788" lon="0.93361">
        <ele>1751.6</ele>
        <time>2018-11-24T01:14:52Z</time>
      </trkpt>
      <trkpt lat="42.70787" lon="0.93374">
        <ele>1752.7</ele>
        <time>2018-11-24T01:14:56Z</time>
      </trkpt>
      <trkpt lat="42.70785" lon="0.93388">
        <ele>1753.5</ele>
        <time>2018-11-24T01:15:00Z</time>
      </trkpt>
      <trkpt lat="42.70781" lon="0.934">
        <ele>1754.5</ele>
        <time>2018-11-24T01:15:04Z</time>
      </trkpt>
      <trkpt lat="42.70776" lon="0.93411">
        <ele>1755.5</ele>
        <time>2018-11-24T01:15:08Z</time>
      </trkpt>
      <trkpt lat="42.7077" lon="0.93423">
        <ele>1757</ele>
        <time>2018-11-24T01:15:12Z</time>
      </trkpt>
      <trkpt lat="42.70765" lon="0.93435">
        <ele>1758</ele>
        <time>2018-11-24T01:15:16Z</time>
      </trkpt>
      <trkpt lat="42.7076" lon="0.93446">
        <ele>1758.9</ele>
        <time>2018-11-24T01:15:20Z</time>
      </trkpt>
      <trkpt lat="42.70755" lon="0.93458">
        <ele>1760.4</ele>
        <time>2018-11-24T01:15:24Z</time>
      </trkpt>
      <trkpt lat="42.70753" lon="0.9347">
        <ele>1760.7</ele>
        <time>2018-11-24T01:15:28Z</time>
      </trkpt>
      <trkpt lat="42.70751" lon="0.93483">
        <ele>1761.7</ele>
        <time>2018-11-24T01:15:31Z</time>
      </trkpt>
      <trkpt lat="42.70748" lon="0.93495">
        <ele>1761.8</ele>
        <time>2018-11-24T01:15:35Z</time>
      </trkpt>
      <trkpt lat="42.70744" lon="0.93507">
        <ele>1763.3</ele>
        <time>2018-11-24T01:15:39Z</time>
      </trkpt>
      <trkpt lat="42.70739" lon="0.93518">
        <ele>1764.2</ele>
        <time>2018-11-24T01:15:43Z</time>
      </trkpt>
      <trkpt lat="42.70735" lon="0.9353">
        <ele>1766</ele>
        <time>2018-11-24T01:15:47Z</time>
      </trkpt>
      <trkpt lat="42.70731" lon="0.93542">
        <ele>1767.1</ele>
        <time>2018-11-24T01:15:51Z</time>
      </trkpt>
      <trkpt lat="42.70728" lon="0.93556">
        <ele>1768</ele>
        <time>2018-11-24T01:15:55Z</time>
      </trkpt>
      <trkpt lat="42.70726" lon="0.9357">
        <ele>1769</ele>
        <time>2018-11-24T01:15:59Z</time>
      </trkpt>
      <trkpt lat="42.70725" lon="0.93583">
        <ele>1769.9</ele>
        <time>2018-11-24T01:16:03Z</time>
      </trkpt>
      <trkpt lat="42.70723" lon="0.93597">
        <ele>1770.5</ele>
        <time>2018-11-24T01:16:07Z</time>
      </trkpt>
      <trkpt lat="42.70721" lon="0.93611">
        <ele>1770.9</ele>
        <time>2018-11-24T01:16:11Z</time>
      </trkpt>
      <trkpt lat="42.70721" lon="0.93623">
        <ele>1771.3</ele>
        <time>2018-11-24T01:16:15Z</time>
      </trkpt>
      <trkpt lat="42.7072" lon="0.93636">
        <ele>1772.3</ele>
        <time>2018-11-24T01:16:18Z</time>
      </trkpt>
      <trkpt lat="42.70719" lon="0.9365">
        <ele>1772.8</ele>
        <time>2018-11-24T01:16:23Z</time>
      </trkpt>
      <trkpt lat="42.7072" lon="0.93664">
        <ele>1773.7</ele>
        <time>2018-11-24T01:16:27Z</time>
      </trkpt>
      <trkpt lat="42.70724" lon="0.93676">
        <ele>1774.3</ele>
        <time>2018-11-24T01:16:31Z</time>
      </trkpt>
      <trkpt lat="42.70731" lon="0.93686">
        <ele>1774.3</ele>
        <time>2018-11-24T01:16:35Z</time>
      </trkpt>
      <trkpt lat="42.70739" lon="0.93695">
        <ele>1774.3</ele>
        <time>2018-11-24T01:16:39Z</time>
      </trkpt>
      <trkpt lat="42.70747" lon="0.93706">
        <ele>1774.2</ele>
        <time>2018-11-24T01:16:44Z</time>
      </trkpt>
      <trkpt lat="42.7075" lon="0.93719">
        <ele>1774.3</ele>
        <time>2018-11-24T01:16:47Z</time>
      </trkpt>
      <trkpt lat="42.7075" lon="0.93733">
        <ele>1774.2</ele>
        <time>2018-11-24T01:16:51Z</time>
      </trkpt>
      <trkpt lat="42.70751" lon="0.93746">
        <ele>1772.8</ele>
        <time>2018-11-24T01:16:55Z</time>
      </trkpt>
      <trkpt lat="42.70752" lon="0.9376">
        <ele>1772.3</ele>
        <time>2018-11-24T01:17:00Z</time>
      </trkpt>
      <trkpt lat="42.70752" lon="0.93774">
        <ele>1771.8</ele>
        <time>2018-11-24T01:17:04Z</time>
      </trkpt>
      <trkpt lat="42.70754" lon="0.93787">
        <ele>1771.3</ele>
        <time>2018-11-24T01:17:08Z</time>
      </trkpt>
      <trkpt lat="42.70755" lon="0.938">
        <ele>1771.4</ele>
        <time>2018-11-24T01:17:12Z</time>
      </trkpt>
      <trkpt lat="42.70757" lon="0.93813">
        <ele>1773.3</ele>
        <time>2018-11-24T01:17:15Z</time>
      </trkpt>
      <trkpt lat="42.70761" lon="0.93827">
        <ele>1775.3</ele>
        <time>2018-11-24T01:17:20Z</time>
      </trkpt>
      <trkpt lat="42.70764" lon="0.9384">
        <ele>1776.7</ele>
        <time>2018-11-24T01:17:24Z</time>
      </trkpt>
      <trkpt lat="42.70767" lon="0.93852">
        <ele>1776.7</ele>
        <time>2018-11-24T01:17:28Z</time>
      </trkpt>
      <trkpt lat="42.70769" lon="0.93866">
        <ele>1777.6</ele>
        <time>2018-11-24T01:17:32Z</time>
      </trkpt>
      <trkpt lat="42.70771" lon="0.93878">
        <ele>1779</ele>
        <time>2018-11-24T01:17:35Z</time>
      </trkpt>
      <trkpt lat="42.70772" lon="0.93892">
        <ele>1779</ele>
        <time>2018-11-24T01:17:39Z</time>
      </trkpt>
      <trkpt lat="42.70775" lon="0.93905">
        <ele>1780.1</ele>
        <time>2018-11-24T01:17:43Z</time>
      </trkpt>
      <trkpt lat="42.70778" lon="0.93918">
        <ele>1781.4</ele>
        <time>2018-11-24T01:17:48Z</time>
      </trkpt>
      <trkpt lat="42.70783" lon="0.93932">
        <ele>1782.9</ele>
        <time>2018-11-24T01:17:52Z</time>
      </trkpt>
      <trkpt lat="42.70786" lon="0.93945">
        <ele>1784.3</ele>
        <time>2018-11-24T01:17:56Z</time>
      </trkpt>
      <trkpt lat="42.70789" lon="0.93959">
        <ele>1785.7</ele>
        <time>2018-11-24T01:18:00Z</time>
      </trkpt>
      <trkpt lat="42.70794" lon="0.93973">
        <ele>1787.3</ele>
        <time>2018-11-24T01:18:05Z</time>
      </trkpt>
      <trkpt lat="42.70797" lon="0.93987">
        <ele>1787.8</ele>
        <time>2018-11-24T01:18:09Z</time>
      </trkpt>
      <trkpt lat="42.70802" lon="0.94">
        <ele>1788.7</ele>
        <time>2018-11-24T01:18:13Z</time>
      </trkpt>
      <trkpt lat="42.70806" lon="0.94013">
        <ele>1789.7</ele>
        <time>2018-11-24T01:18:18Z</time>
      </trkpt>
      <trkpt lat="42.70811" lon="0.94025">
        <ele>1791.1</ele>
        <time>2018-11-24T01:18:22Z</time>
      </trkpt>
      <trkpt lat="42.70816" lon="0.94036">
        <ele>1792.1</ele>
        <time>2018-11-24T01:18:25Z</time>
      </trkpt>
      <trkpt lat="42.70821" lon="0.94047">
        <ele>1793.5</ele>
        <time>2018-11-24T01:18:29Z</time>
      </trkpt>
      <trkpt lat="42.70825" lon="0.94059">
        <ele>1795</ele>
        <time>2018-11-24T01:18:33Z</time>
      </trkpt>
      <trkpt lat="42.70831" lon="0.9407">
        <ele>1795.9</ele>
        <time>2018-11-24T01:18:37Z</time>
      </trkpt>
      <trkpt lat="42.70836" lon="0.94081">
        <ele>1797.3</ele>
        <time>2018-11-24T01:18:41Z</time>
      </trkpt>
      <trkpt lat="42.7084" lon="0.94092">
        <ele>1798.7</ele>
        <time>2018-11-24T01:18:45Z</time>
      </trkpt>
      <trkpt lat="42.70845" lon="0.94103">
        <ele>1800.2</ele>
        <time>2018-11-24T01:18:48Z</time>
      </trkpt>
      <trkpt lat="42.70851" lon="0.94114">
        <ele>1800.6</ele>
        <time>2018-11-24T01:18:52Z</time>
      </trkpt>
      <trkpt lat="42.70858" lon="0.94124">
        <ele>1802.1</ele>
        <time>2018-11-24T01:18:57Z</time>
      </trkpt>
      <trkpt lat="42.70863" lon="0.94137">
        <ele>1804</ele>
        <time>2018-11-24T01:19:01Z</time>
      </trkpt>
      <trkpt lat="42.70868" lon="0.94149">
        <ele>1805</ele>
        <time>2018-11-24T01:19:05Z</time>
      </trkpt>
      <trkpt lat="42.70873" lon="0.94159">
        <ele>1806</ele>
        <time>2018-11-24T01:19:08Z</time>
      </trkpt>
      <trkpt lat="42.70879" lon="0.9417">
        <ele>1806.9</ele>
        <time>2018-11-24T01:19:13Z</time>
      </trkpt>
      <trkpt lat="42.70887" lon="0.94179">
        <ele>1808.3</ele>
        <time>2018-11-24T01:19:16Z</time>
      </trkpt>
      <trkpt lat="42.70896" lon="0.94186">
        <ele>1810.4</ele>
        <time>2018-11-24T01:19:21Z</time>
      </trkpt>
      <trkpt lat="42.70904" lon="0.94193">
        <ele>1812.3</ele>
        <time>2018-11-24T01:19:24Z</time>
      </trkpt>
      <trkpt lat="42.70911" lon="0.94202">
        <ele>1814.1</ele>
        <time>2018-11-24T01:19:28Z</time>
      </trkpt>
      <trkpt lat="42.70916" lon="0.94213">
        <ele>1815.1</ele>
        <time>2018-11-24T01:19:32Z</time>
      </trkpt>
      <trkpt lat="42.70921" lon="0.94223">
        <ele>1816.1</ele>
        <time>2018-11-24T01:19:36Z</time>
      </trkpt>
      <trkpt lat="42.70927" lon="0.94234">
        <ele>1817.9</ele>
        <time>2018-11-24T01:19:40Z</time>
      </trkpt>
      <trkpt lat="42.70931" lon="0.94247">
        <ele>1819</ele>
        <time>2018-11-24T01:19:44Z</time>
      </trkpt>
      <trkpt lat="42.70932" lon="0.94261">
        <ele>1820.4</ele>
        <time>2018-11-24T01:19:48Z</time>
      </trkpt>
      <trkpt lat="42.70935" lon="0.94274">
        <ele>1821.4</ele>
        <time>2018-11-24T01:19:52Z</time>
      </trkpt>
      <trkpt lat="42.70937" lon="0.94287">
        <ele>1822.9</ele>
        <time>2018-11-24T01:19:56Z</time>
      </trkpt>
      <trkpt lat="42.70941" lon="0.943">
        <ele>1824.3</ele>
        <time>2018-11-24T01:20:00Z</time>
      </trkpt>
      <trkpt lat="42.70943" lon="0.94312">
        <ele>1825.3</ele>
        <time>2018-11-24T01:20:04Z</time>
      </trkpt>
      <trkpt lat="42.70947" lon="0.94325">
        <ele>1826.6</ele>
        <time>2018-11-24T01:20:08Z</time>
      </trkpt>
      <trkpt lat="42.70951" lon="0.94337">
        <ele>1828</ele>
        <time>2018-11-24T01:20:12Z</time>
      </trkpt>
      <trkpt lat="42.70952" lon="0.9435">
        <ele>1830</ele>
        <time>2018-11-24T01:20:16Z</time>
      </trkpt>
      <trkpt lat="42.70955" lon="0.94365">
        <ele>1831.4</ele>
        <time>2018-11-24T01:20:20Z</time>
      </trkpt>
      <trkpt lat="42.7096" lon="0.94377">
        <ele>1832.8</ele>
        <time>2018-11-24T01:20:24Z</time>
      </trkpt>
      <trkpt lat="42.70963" lon="0.9439">
        <ele>1834.4</ele>
        <time>2018-11-24T01:20:28Z</time>
      </trkpt>
      <trkpt lat="42.70967" lon="0.94402">
        <ele>1836.3</ele>
        <time>2018-11-24T01:20:32Z</time>
      </trkpt>
      <trkpt lat="42.70973" lon="0.94412">
        <ele>1837.7</ele>
        <time>2018-11-24T01:20:36Z</time>
      </trkpt>
      <trkpt lat="42.70979" lon="0.94423">
        <ele>1840.2</ele>
        <time>2018-11-24T01:20:40Z</time>
      </trkpt>
      <trkpt lat="42.70985" lon="0.94434">
        <ele>1841.5</ele>
        <time>2018-11-24T01:20:44Z</time>
      </trkpt>
      <trkpt lat="42.70991" lon="0.94446">
        <ele>1843.4</ele>
        <time>2018-11-24T01:20:48Z</time>
      </trkpt>
      <trkpt lat="42.70996" lon="0.94457">
        <ele>1844.4</ele>
        <time>2018-11-24T01:20:52Z</time>
      </trkpt>
      <trkpt lat="42.71002" lon="0.9447">
        <ele>1845.3</ele>
        <time>2018-11-24T01:20:56Z</time>
      </trkpt>
      <trkpt lat="42.71006" lon="0.94482">
        <ele>1846.3</ele>
        <time>2018-11-24T01:21:00Z</time>
      </trkpt>
      <trkpt lat="42.71011" lon="0.94495">
        <ele>1847.3</ele>
        <time>2018-11-24T01:21:05Z</time>
      </trkpt>
      <trkpt lat="42.71014" lon="0.9451">
        <ele>1848.2</ele>
        <time>2018-11-24T01:21:09Z</time>
      </trkpt>
      <trkpt lat="42.71017" lon="0.94524">
        <ele>1848.8</ele>
        <time>2018-11-24T01:21:14Z</time>
      </trkpt>
      <trkpt lat="42.7102" lon="0.94536">
        <ele>1849.7</ele>
        <time>2018-11-24T01:21:17Z</time>
      </trkpt>
      <trkpt lat="42.71021" lon="0.94549">
        <ele>1849.7</ele>
        <time>2018-11-24T01:21:21Z</time>
      </trkpt>
      <trkpt lat="42.71022" lon="0.94563">
        <ele>1850.7</ele>
        <time>2018-11-24T01:21:25Z</time>
      </trkpt>
      <trkpt lat="42.71021" lon="0.94576">
        <ele>1850.7</ele>
        <time>2018-11-24T01:21:29Z</time>
      </trkpt>
      <trkpt lat="42.71019" lon="0.94589">
        <ele>1851.1</ele>
        <time>2018-11-24T01:21:33Z</time>
      </trkpt>
      <trkpt lat="42.71015" lon="0.94602">
        <ele>1852.1</ele>
        <time>2018-11-24T01:21:37Z</time>
      </trkpt>
      <trkpt lat="42.71014" lon="0.94617">
        <ele>1853.1</ele>
        <time>2018-11-24T01:21:41Z</time>
      </trkpt>
      <trkpt lat="42.71012" lon="0.94631">
        <ele>1853.6</ele>
        <time>2018-11-24T01:21:46Z</time>
      </trkpt>
      <trkpt lat="42.71011" lon="0.94645">
        <ele>1854.5</ele>
        <time>2018-11-24T01:21:50Z</time>
      </trkpt>
      <trkpt lat="42.71011" lon="0.94658">
        <ele>1855</ele>
        <time>2018-11-24T01:21:54Z</time>
      </trkpt>
      <trkpt lat="42.71012" lon="0.94672">
        <ele>1855.4</ele>
        <time>2018-11-24T01:21:58Z</time>
      </trkpt>
      <trkpt lat="42.71014" lon="0.94687">
        <ele>1855.9</ele>
        <time>2018-11-24T01:22:02Z</time>
      </trkpt>
      <trkpt lat="42.71015" lon="0.94702">
        <ele>1857.5</ele>
        <time>2018-11-24T01:22:07Z</time>
      </trkpt>
      <trkpt lat="42.71016" lon="0.94716">
        <ele>1858.9</ele>
        <time>2018-11-24T01:22:11Z</time>
      </trkpt>
      <trkpt lat="42.71016" lon="0.94731">
        <ele>1860.8</ele>
        <time>2018-11-24T01:22:15Z</time>
      </trkpt>
      <trkpt lat="42.71014" lon="0.94743">
        <ele>1862.2</ele>
        <time>2018-11-24T01:22:19Z</time>
      </trkpt>
      <trkpt lat="42.71013" lon="0.94757">
        <ele>1864.1</ele>
        <time>2018-11-24T01:22:23Z</time>
      </trkpt>
      <trkpt lat="42.71012" lon="0.94767">
        <ele>1864.7</ele>
        <time>2018-11-24T01:22:26Z</time>
      </trkpt>
      <trkpt lat="42.71012" lon="0.94783">
        <ele>1865.6</ele>
        <time>2018-11-24T01:22:31Z</time>
      </trkpt>
      <trkpt lat="42.71011" lon="0.94795">
        <ele>1866.1</ele>
        <time>2018-11-24T01:22:34Z</time>
      </trkpt>
      <trkpt lat="42.71009" lon="0.94808">
        <ele>1866</ele>
        <time>2018-11-24T01:22:38Z</time>
      </trkpt>
      <trkpt lat="42.71007" lon="0.94822">
        <ele>1866.5</ele>
        <time>2018-11-24T01:22:42Z</time>
      </trkpt>
      <trkpt lat="42.71001" lon="0.94832">
        <ele>1867.5</ele>
        <time>2018-11-24T01:22:46Z</time>
      </trkpt>
      <trkpt lat="42.70997" lon="0.94844">
        <ele>1867.6</ele>
        <time>2018-11-24T01:22:50Z</time>
      </trkpt>
      <trkpt lat="42.70992" lon="0.94854">
        <ele>1868.4</ele>
        <time>2018-11-24T01:22:53Z</time>
      </trkpt>
      <trkpt lat="42.70987" lon="0.94868">
        <ele>1868.9</ele>
        <time>2018-11-24T01:22:58Z</time>
      </trkpt>
      <trkpt lat="42.70985" lon="0.94882">
        <ele>1869.9</ele>
        <time>2018-11-24T01:23:02Z</time>
      </trkpt>
      <trkpt lat="42.7098" lon="0.94893">
        <ele>1870</ele>
        <time>2018-11-24T01:23:06Z</time>
      </trkpt>
      <trkpt lat="42.70973" lon="0.94902">
        <ele>1869.9</ele>
        <time>2018-11-24T01:23:10Z</time>
      </trkpt>
      <trkpt lat="42.70965" lon="0.94913">
        <ele>1870</ele>
        <time>2018-11-24T01:23:14Z</time>
      </trkpt>
      <trkpt lat="42.7096" lon="0.94925">
        <ele>1867.9</ele>
        <time>2018-11-24T01:23:18Z</time>
      </trkpt>
      <trkpt lat="42.70954" lon="0.94938">
        <ele>1867.6</ele>
        <time>2018-11-24T01:23:23Z</time>
      </trkpt>
      <trkpt lat="42.70951" lon="0.94953">
        <ele>1865.1</ele>
        <time>2018-11-24T01:23:27Z</time>
      </trkpt>
      <trkpt lat="42.70948" lon="0.94969">
        <ele>1863.6</ele>
        <time>2018-11-24T01:23:32Z</time>
      </trkpt>
      <trkpt lat="42.70948" lon="0.94981">
        <ele>1862.6</ele>
        <time>2018-11-24T01:23:36Z</time>
      </trkpt>
      <trkpt lat="42.70948" lon="0.94996">
        <ele>1862.7</ele>
        <time>2018-11-24T01:23:40Z</time>
      </trkpt>
      <trkpt lat="42.70947" lon="0.95011">
        <ele>1862.7</ele>
        <time>2018-11-24T01:23:45Z</time>
      </trkpt>
      <trkpt lat="42.70944" lon="0.95026">
        <ele>1863.2</ele>
        <time>2018-11-24T01:23:49Z</time>
      </trkpt>
      <trkpt lat="42.70938" lon="0.95036">
        <ele>1863.1</ele>
        <time>2018-11-24T01:23:53Z</time>
      </trkpt>
      <trkpt lat="42.70931" lon="0.95043">
        <ele>1863.2</ele>
        <time>2018-11-24T01:23:57Z</time>
      </trkpt>
      <trkpt lat="42.70921" lon="0.95051">
        <ele>1863.1</ele>
        <time>2018-11-24T01:24:01Z</time>
      </trkpt>
      <trkpt lat="42.70914" lon="0.95058">
        <ele>1863.2</ele>
        <time>2018-11-24T01:24:05Z</time>
      </trkpt>
      <trkpt lat="42.70907" lon="0.95067">
        <ele>1862.7</ele>
        <time>2018-11-24T01:24:09Z</time>
      </trkpt>
      <trkpt lat="42.70899" lon="0.95076">
        <ele>1861.3</ele>
        <time>2018-11-24T01:24:13Z</time>
      </trkpt>
      <trkpt lat="42.70891" lon="0.95087">
        <ele>1860.8</ele>
        <time>2018-11-24T01:24:17Z</time>
      </trkpt>
      <trkpt lat="42.70885" lon="0.95097">
        <ele>1860.2</ele>
        <time>2018-11-24T01:24:21Z</time>
      </trkpt>
      <trkpt lat="42.70877" lon="0.95108">
        <ele>1859.3</ele>
        <time>2018-11-24T01:24:25Z</time>
      </trkpt>
      <trkpt lat="42.70869" lon="0.95115">
        <ele>1858.9</ele>
        <time>2018-11-24T01:24:29Z</time>
      </trkpt>
      <trkpt lat="42.7086" lon="0.95114">
        <ele>1858.3</ele>
        <time>2018-11-24T01:24:33Z</time>
      </trkpt>
      <trkpt lat="42.70849" lon="0.95118">
        <ele>1856.9</ele>
        <time>2018-11-24T01:24:37Z</time>
      </trkpt>
      <trkpt lat="42.70842" lon="0.95128">
        <ele>1855.5</ele>
        <time>2018-11-24T01:24:42Z</time>
      </trkpt>
      <trkpt lat="42.70838" lon="0.95141">
        <ele>1853.5</ele>
        <time>2018-11-24T01:24:46Z</time>
      </trkpt>
      <trkpt lat="42.70835" lon="0.95156">
        <ele>1853</ele>
        <time>2018-11-24T01:24:50Z</time>
      </trkpt>
      <trkpt lat="42.70832" lon="0.95169">
        <ele>1852.1</ele>
        <time>2018-11-24T01:24:54Z</time>
      </trkpt>
      <trkpt lat="42.70831" lon="0.95183">
        <ele>1852.1</ele>
        <time>2018-11-24T01:24:59Z</time>
      </trkpt>
      <trkpt lat="42.70829" lon="0.95197">
        <ele>1851.1</ele>
        <time>2018-11-24T01:25:03Z</time>
      </trkpt>
      <trkpt lat="42.70827" lon="0.9521">
        <ele>1850.1</ele>
        <time>2018-11-24T01:25:07Z</time>
      </trkpt>
      <trkpt lat="42.70822" lon="0.95221">
        <ele>1850.1</ele>
        <time>2018-11-24T01:25:10Z</time>
      </trkpt>
      <trkpt lat="42.70816" lon="0.9523">
        <ele>1850.1</ele>
        <time>2018-11-24T01:25:14Z</time>
      </trkpt>
      <trkpt lat="42.70808" lon="0.9524">
        <ele>1851.7</ele>
        <time>2018-11-24T01:25:18Z</time>
      </trkpt>
      <trkpt lat="42.70801" lon="0.95248">
        <ele>1852.2</ele>
        <time>2018-11-24T01:25:22Z</time>
      </trkpt>
      <trkpt lat="42.70794" lon="0.95258">
        <ele>1852.6</ele>
        <time>2018-11-24T01:25:26Z</time>
      </trkpt>
      <trkpt lat="42.70785" lon="0.95264">
        <ele>1853</ele>
        <time>2018-11-24T01:25:30Z</time>
      </trkpt>
      <trkpt lat="42.70776" lon="0.95267">
        <ele>1853.5</ele>
        <time>2018-11-24T01:25:34Z</time>
      </trkpt>
      <trkpt lat="42.70766" lon="0.95269">
        <ele>1854</ele>
        <time>2018-11-24T01:25:38Z</time>
      </trkpt>
      <trkpt lat="42.70757" lon="0.95272">
        <ele>1855</ele>
        <time>2018-11-24T01:25:42Z</time>
      </trkpt>
      <trkpt lat="42.70747" lon="0.95275">
        <ele>1855.4</ele>
        <time>2018-11-24T01:25:46Z</time>
      </trkpt>
      <trkpt lat="42.7074" lon="0.95284">
        <ele>1856</ele>
        <time>2018-11-24T01:25:50Z</time>
      </trkpt>
      <trkpt lat="42.70735" lon="0.95296">
        <ele>1854.5</ele>
        <time>2018-11-24T01:25:54Z</time>
      </trkpt>
      <trkpt lat="42.7073" lon="0.95307">
        <ele>1854.5</ele>
        <time>2018-11-24T01:25:57Z</time>
      </trkpt>
      <trkpt lat="42.70726" lon="0.95318">
        <ele>1854</ele>
        <time>2018-11-24T01:26:01Z</time>
      </trkpt>
      <trkpt lat="42.70728" lon="0.95331">
        <ele>1854</ele>
        <time>2018-11-24T01:26:05Z</time>
      </trkpt>
      <trkpt lat="42.70724" lon="0.95341">
        <ele>1854.1</ele>
        <time>2018-11-24T01:26:08Z</time>
      </trkpt>
      <trkpt lat="42.70716" lon="0.95351">
        <ele>1853.6</ele>
        <time>2018-11-24T01:26:13Z</time>
      </trkpt>
      <trkpt lat="42.70711" lon="0.95362">
        <ele>1853.6</ele>
        <time>2018-11-24T01:26:16Z</time>
      </trkpt>
      <trkpt lat="42.70707" lon="0.95373">
        <ele>1853</ele>
        <time>2018-11-24T01:26:20Z</time>
      </trkpt>
      <trkpt lat="42.70703" lon="0.95386">
        <ele>1853</ele>
        <time>2018-11-24T01:26:24Z</time>
      </trkpt>
      <trkpt lat="42.707" lon="0.95402">
        <ele>1852.6</ele>
        <time>2018-11-24T01:26:29Z</time>
      </trkpt>
      <trkpt lat="42.70698" lon="0.95416">
        <ele>1852.6</ele>
        <time>2018-11-24T01:26:33Z</time>
      </trkpt>
      <trkpt lat="42.70695" lon="0.95431">
        <ele>1852.1</ele>
        <time>2018-11-24T01:26:38Z</time>
      </trkpt>
      <trkpt lat="42.70694" lon="0.95445">
        <ele>1851.7</ele>
        <time>2018-11-24T01:26:42Z</time>
      </trkpt>
      <trkpt lat="42.70693" lon="0.95461">
        <ele>1851.1</ele>
        <time>2018-11-24T01:26:47Z</time>
      </trkpt>
      <trkpt lat="42.70692" lon="0.95475">
        <ele>1851.6</ele>
        <time>2018-11-24T01:26:51Z</time>
      </trkpt>
      <trkpt lat="42.70693" lon="0.95491">
        <ele>1850.7</ele>
        <time>2018-11-24T01:26:55Z</time>
      </trkpt>
      <trkpt lat="42.70694" lon="0.95504">
        <ele>1850.6</ele>
        <time>2018-11-24T01:26:59Z</time>
      </trkpt>
      <trkpt lat="42.70694" lon="0.9552">
        <ele>1849.7</ele>
        <time>2018-11-24T01:27:04Z</time>
      </trkpt>
      <trkpt lat="42.70694" lon="0.95535">
        <ele>1849.8</ele>
        <time>2018-11-24T01:27:08Z</time>
      </trkpt>
      <trkpt lat="42.70696" lon="0.95549">
        <ele>1849.7</ele>
        <time>2018-11-24T01:27:13Z</time>
      </trkpt>
      <trkpt lat="42.70697" lon="0.95559">
        <ele>1850.1</ele>
        <time>2018-11-24T01:27:16Z</time>
      </trkpt>
      <trkpt lat="42.70707" lon="0.95554">
        <ele>1851.7</ele>
        <time>2018-11-24T01:27:20Z</time>
      </trkpt>
      <trkpt lat="42.70714" lon="0.9556">
        <ele>1852.2</ele>
        <time>2018-11-24T01:27:23Z</time>
      </trkpt>
      <trkpt lat="42.70714" lon="0.95573">
        <ele>1852.2</ele>
        <time>2018-11-24T01:27:27Z</time>
      </trkpt>
      <trkpt lat="42.70713" lon="0.95588">
        <ele>1852.1</ele>
        <time>2018-11-24T01:27:31Z</time>
      </trkpt>
      <trkpt lat="42.70711" lon="0.95603">
        <ele>1852.1</ele>
        <time>2018-11-24T01:27:36Z</time>
      </trkpt>
      <trkpt lat="42.70715" lon="0.95616">
        <ele>1853</ele>
        <time>2018-11-24T01:27:40Z</time>
      </trkpt>
      <trkpt lat="42.70715" lon="0.9563">
        <ele>1853.6</ele>
        <time>2018-11-24T01:27:44Z</time>
      </trkpt>
      <trkpt lat="42.70715" lon="0.95643">
        <ele>1853.5</ele>
        <time>2018-11-24T01:27:48Z</time>
      </trkpt>
      <trkpt lat="42.70711" lon="0.95658">
        <ele>1852.6</ele>
        <time>2018-11-24T01:27:52Z</time>
      </trkpt>
      <trkpt lat="42.70707" lon="0.95671">
        <ele>1851.7</ele>
        <time>2018-11-24T01:27:57Z</time>
      </trkpt>
      <trkpt lat="42.70703" lon="0.95683">
        <ele>1849.7</ele>
        <time>2018-11-24T01:28:00Z</time>
      </trkpt>
      <trkpt lat="42.70702" lon="0.95695">
        <ele>1849.8</ele>
        <time>2018-11-24T01:28:04Z</time>
      </trkpt>
      <trkpt lat="42.70703" lon="0.95707">
        <ele>1849.2</ele>
        <time>2018-11-24T01:28:08Z</time>
      </trkpt>
      <trkpt lat="42.70703" lon="0.95721">
        <ele>1849.2</ele>
        <time>2018-11-24T01:28:12Z</time>
      </trkpt>
      <trkpt lat="42.70701" lon="0.95736">
        <ele>1849.2</ele>
        <time>2018-11-24T01:28:16Z</time>
      </trkpt>
      <trkpt lat="42.707" lon="0.95749">
        <ele>1849.7</ele>
        <time>2018-11-24T01:28:20Z</time>
      </trkpt>
      <trkpt lat="42.70697" lon="0.95761">
        <ele>1849.7</ele>
        <time>2018-11-24T01:28:24Z</time>
      </trkpt>
      <trkpt lat="42.70694" lon="0.95774">
        <ele>1849.7</ele>
        <time>2018-11-24T01:28:28Z</time>
      </trkpt>
      <trkpt lat="42.70694" lon="0.95788">
        <ele>1849.7</ele>
        <time>2018-11-24T01:28:32Z</time>
      </trkpt>
      <trkpt lat="42.70701" lon="0.95798">
        <ele>1851.6</ele>
        <time>2018-11-24T01:28:36Z</time>
      </trkpt>
      <trkpt lat="42.70701" lon="0.9581">
        <ele>1853</ele>
        <time>2018-11-24T01:28:39Z</time>
      </trkpt>
      <trkpt lat="42.70703" lon="0.95825">
        <ele>1853.5</ele>
        <time>2018-11-24T01:28:44Z</time>
      </trkpt>
      <trkpt lat="42.70707" lon="0.95837">
        <ele>1855</ele>
        <time>2018-11-24T01:28:48Z</time>
      </trkpt>
      <trkpt lat="42.70712" lon="0.95849">
        <ele>1856.5</ele>
        <time>2018-11-24T01:28:52Z</time>
      </trkpt>
      <trkpt lat="42.70717" lon="0.9586">
        <ele>1858.4</ele>
        <time>2018-11-24T01:28:56Z</time>
      </trkpt>
      <trkpt lat="42.70723" lon="0.95871">
        <ele>1860.3</ele>
        <time>2018-11-24T01:29:00Z</time>
      </trkpt>
      <trkpt lat="42.70725" lon="0.95884">
        <ele>1861.3</ele>
        <time>2018-11-24T01:29:04Z</time>
      </trkpt>
      <trkpt lat="42.70726" lon="0.95897">
        <ele>1862.7</ele>
        <time>2018-11-24T01:29:08Z</time>
      </trkpt>
      <trkpt lat="42.70727" lon="0.95911">
        <ele>1863.6</ele>
        <time>2018-11-24T01:29:11Z</time>
      </trkpt>
      <trkpt lat="42.70726" lon="0.95924">
        <ele>1864.1</ele>
        <time>2018-11-24T01:29:15Z</time>
      </trkpt>
      <trkpt lat="42.7073" lon="0.95938">
        <ele>1865</ele>
        <time>2018-11-24T01:29:20Z</time>
      </trkpt>
      <trkpt lat="42.70732" lon="0.95952">
        <ele>1866.5</ele>
        <time>2018-11-24T01:29:24Z</time>
      </trkpt>
      <trkpt lat="42.70734" lon="0.95965">
        <ele>1867.5</ele>
        <time>2018-11-24T01:29:28Z</time>
      </trkpt>
      <trkpt lat="42.70735" lon="0.95978">
        <ele>1868</ele>
        <time>2018-11-24T01:29:32Z</time>
      </trkpt>
      <trkpt lat="42.70737" lon="0.95989">
        <ele>1869</ele>
        <time>2018-11-24T01:29:35Z</time>
      </trkpt>
      <trkpt lat="42.70739" lon="0.96003">
        <ele>1870.3</ele>
        <time>2018-11-24T01:29:39Z</time>
      </trkpt>
      <trkpt lat="42.70743" lon="0.96014">
        <ele>1872.3</ele>
        <time>2018-11-24T01:29:43Z</time>
      </trkpt>
      <trkpt lat="42.70748" lon="0.96024">
        <ele>1875.1</ele>
        <time>2018-11-24T01:29:46Z</time>
      </trkpt>
      <trkpt lat="42.70752" lon="0.96036">
        <ele>1877.2</ele>
        <time>2018-11-24T01:29:50Z</time>
      </trkpt>
      <trkpt lat="42.70756" lon="0.96046">
        <ele>1879</ele>
        <time>2018-11-24T01:29:54Z</time>
      </trkpt>
      <trkpt lat="42.70763" lon="0.96057">
        <ele>1880.9</ele>
        <time>2018-11-24T01:29:58Z</time>
      </trkpt>
      <trkpt lat="42.70767" lon="0.9607">
        <ele>1883.3</ele>
        <time>2018-11-24T01:30:02Z</time>
      </trkpt>
      <trkpt lat="42.70774" lon="0.96078">
        <ele>1885.3</ele>
        <time>2018-11-24T01:30:06Z</time>
      </trkpt>
      <trkpt lat="42.70781" lon="0.96088">
        <ele>1887.7</ele>
        <time>2018-11-24T01:30:10Z</time>
      </trkpt>
      <trkpt lat="42.70788" lon="0.96096">
        <ele>1889.6</ele>
        <time>2018-11-24T01:30:13Z</time>
      </trkpt>
      <trkpt lat="42.70796" lon="0.96102">
        <ele>1892</ele>
        <time>2018-11-24T01:30:17Z</time>
      </trkpt>
      <trkpt lat="42.70803" lon="0.96111">
        <ele>1894</ele>
        <time>2018-11-24T01:30:21Z</time>
      </trkpt>
      <trkpt lat="42.7081" lon="0.96121">
        <ele>1896.9</ele>
        <time>2018-11-24T01:30:25Z</time>
      </trkpt>
      <trkpt lat="42.70817" lon="0.9613">
        <ele>1899.2</ele>
        <time>2018-11-24T01:30:29Z</time>
      </trkpt>
      <trkpt lat="42.70822" lon="0.9614">
        <ele>1901.2</ele>
        <time>2018-11-24T01:30:32Z</time>
      </trkpt>
      <trkpt lat="42.70829" lon="0.96149">
        <ele>1903.5</ele>
        <time>2018-11-24T01:30:36Z</time>
      </trkpt>
      <trkpt lat="42.70835" lon="0.9616">
        <ele>1906.4</ele>
        <time>2018-11-24T01:30:40Z</time>
      </trkpt>
      <trkpt lat="42.7084" lon="0.96171">
        <ele>1909.3</ele>
        <time>2018-11-24T01:30:44Z</time>
      </trkpt>
      <trkpt lat="42.70845" lon="0.96181">
        <ele>1912.2</ele>
        <time>2018-11-24T01:30:48Z</time>
      </trkpt>
      <trkpt lat="42.7085" lon="0.96192">
        <ele>1915.1</ele>
        <time>2018-11-24T01:30:51Z</time>
      </trkpt>
      <trkpt lat="42.70855" lon="0.96204">
        <ele>1917.9</ele>
        <time>2018-11-24T01:30:56Z</time>
      </trkpt>
      <trkpt lat="42.7086" lon="0.96214">
        <ele>1920.3</ele>
        <time>2018-11-24T01:30:59Z</time>
      </trkpt>
      <trkpt lat="42.70863" lon="0.96225">
        <ele>1922.7</ele>
        <time>2018-11-24T01:31:03Z</time>
      </trkpt>
      <trkpt lat="42.70867" lon="0.96237">
        <ele>1925.1</ele>
        <time>2018-11-24T01:31:06Z</time>
      </trkpt>
      <trkpt lat="42.70871" lon="0.96248">
        <ele>1927.6</ele>
        <time>2018-11-24T01:31:10Z</time>
      </trkpt>
      <trkpt lat="42.70875" lon="0.96259">
        <ele>1930.4</ele>
        <time>2018-11-24T01:31:14Z</time>
      </trkpt>
      <trkpt lat="42.7088" lon="0.96271">
        <ele>1932.4</ele>
        <time>2018-11-24T01:31:18Z</time>
      </trkpt>
      <trkpt lat="42.70885" lon="0.96283">
        <ele>1935.3</ele>
        <time>2018-11-24T01:31:22Z</time>
      </trkpt>
      <trkpt lat="42.7089" lon="0.96294">
        <ele>1937.7</ele>
        <time>2018-11-24T01:31:25Z</time>
      </trkpt>
      <trkpt lat="42.70896" lon="0.96306">
        <ele>1940</ele>
        <time>2018-11-24T01:31:30Z</time>
      </trkpt>
      <trkpt lat="42.70901" lon="0.96317">
        <ele>1942.4</ele>
        <time>2018-11-24T01:31:33Z</time>
      </trkpt>
      <trkpt lat="42.70907" lon="0.96326">
        <ele>1945.8</ele>
        <time>2018-11-24T01:31:37Z</time>
      </trkpt>
      <trkpt lat="42.70912" lon="0.96339">
        <ele>1947.7</ele>
        <time>2018-11-24T01:31:41Z</time>
      </trkpt>
      <trkpt lat="42.70917" lon="0.96349">
        <ele>1950.6</ele>
        <time>2018-11-24T01:31:45Z</time>
      </trkpt>
      <trkpt lat="42.70922" lon="0.9636">
        <ele>1953.5</ele>
        <time>2018-11-24T01:31:49Z</time>
      </trkpt>
      <trkpt lat="42.70926" lon="0.96372">
        <ele>1956</ele>
        <time>2018-11-24T01:31:53Z</time>
      </trkpt>
      <trkpt lat="42.70929" lon="0.96384">
        <ele>1958.4</ele>
        <time>2018-11-24T01:31:56Z</time>
      </trkpt>
      <trkpt lat="42.70933" lon="0.96397">
        <ele>1961.7</ele>
        <time>2018-11-24T01:32:00Z</time>
      </trkpt>
      <trkpt lat="42.70936" lon="0.96408">
        <ele>1964.2</ele>
        <time>2018-11-24T01:32:04Z</time>
      </trkpt>
      <trkpt lat="42.7094" lon="0.96421">
        <ele>1967.5</ele>
        <time>2018-11-24T01:32:08Z</time>
      </trkpt>
      <trkpt lat="42.70945" lon="0.96433">
        <ele>1970.9</ele>
        <time>2018-11-24T01:32:12Z</time>
      </trkpt>
      <trkpt lat="42.70949" lon="0.96445">
        <ele>1974.6</ele>
        <time>2018-11-24T01:32:16Z</time>
      </trkpt>
      <trkpt lat="42.70953" lon="0.96457">
        <ele>1977</ele>
        <time>2018-11-24T01:32:20Z</time>
      </trkpt>
      <trkpt lat="42.70958" lon="0.96469">
        <ele>1980.4</ele>
        <time>2018-11-24T01:32:24Z</time>
      </trkpt>
      <trkpt lat="42.70961" lon="0.96481">
        <ele>1984.4</ele>
        <time>2018-11-24T01:32:28Z</time>
      </trkpt>
      <trkpt lat="42.70966" lon="0.96491">
        <ele>1987.1</ele>
        <time>2018-11-24T01:32:31Z</time>
      </trkpt>
      <trkpt lat="42.70969" lon="0.96503">
        <ele>1991</ele>
        <time>2018-11-24T01:32:35Z</time>
      </trkpt>
      <trkpt lat="42.70973" lon="0.96514">
        <ele>1993.5</ele>
        <time>2018-11-24T01:32:39Z</time>
      </trkpt>
      <trkpt lat="42.70979" lon="0.96522">
        <ele>1996.4</ele>
        <time>2018-11-24T01:32:42Z</time>
      </trkpt>
      <trkpt lat="42.70984" lon="0.96533">
        <ele>1998.7</ele>
        <time>2018-11-24T01:32:46Z</time>
      </trkpt>
      <trkpt lat="42.70988" lon="0.96545">
        <ele>2001.2</ele>
        <time>2018-11-24T01:32:50Z</time>
      </trkpt>
      <trkpt lat="42.70991" lon="0.96557">
        <ele>2004</ele>
        <time>2018-11-24T01:32:54Z</time>
      </trkpt>
      <trkpt lat="42.70997" lon="0.96569">
        <ele>2006.5</ele>
        <time>2018-11-24T01:32:58Z</time>
      </trkpt>
      <trkpt lat="42.71003" lon="0.96579">
        <ele>2008.8</ele>
        <time>2018-11-24T01:33:01Z</time>
      </trkpt>
      <trkpt lat="42.71008" lon="0.96588">
        <ele>2011.7</ele>
        <time>2018-11-24T01:33:05Z</time>
      </trkpt>
      <trkpt lat="42.71014" lon="0.96598">
        <ele>2014.6</ele>
        <time>2018-11-24T01:33:09Z</time>
      </trkpt>
      <trkpt lat="42.7102" lon="0.96607">
        <ele>2017.5</ele>
        <time>2018-11-24T01:33:12Z</time>
      </trkpt>
      <trkpt lat="42.71027" lon="0.96616">
        <ele>2020.4</ele>
        <time>2018-11-24T01:33:16Z</time>
      </trkpt>
      <trkpt lat="42.71033" lon="0.96625">
        <ele>2023.2</ele>
        <time>2018-11-24T01:33:20Z</time>
      </trkpt>
      <trkpt lat="42.71039" lon="0.96633">
        <ele>2025.7</ele>
        <time>2018-11-24T01:33:23Z</time>
      </trkpt>
      <trkpt lat="42.71044" lon="0.96644">
        <ele>2028.5</ele>
        <time>2018-11-24T01:33:27Z</time>
      </trkpt>
      <trkpt lat="42.7105" lon="0.96653">
        <ele>2030.9</ele>
        <time>2018-11-24T01:33:31Z</time>
      </trkpt>
      <trkpt lat="42.71055" lon="0.96663">
        <ele>2033.9</ele>
        <time>2018-11-24T01:33:34Z</time>
      </trkpt>
      <trkpt lat="42.71061" lon="0.96672">
        <ele>2035.8</ele>
        <time>2018-11-24T01:33:38Z</time>
      </trkpt>
      <trkpt lat="42.71066" lon="0.96683">
        <ele>2038.1</ele>
        <time>2018-11-24T01:33:41Z</time>
      </trkpt>
      <trkpt lat="42.71072" lon="0.96693">
        <ele>2040.5</ele>
        <time>2018-11-24T01:33:45Z</time>
      </trkpt>
      <trkpt lat="42.71077" lon="0.96703">
        <ele>2042.4</ele>
        <time>2018-11-24T01:33:49Z</time>
      </trkpt>
      <trkpt lat="42.71083" lon="0.96715">
        <ele>2045.3</ele>
        <time>2018-11-24T01:33:53Z</time>
      </trkpt>
      <trkpt lat="42.71088" lon="0.96726">
        <ele>2047.7</ele>
        <time>2018-11-24T01:33:57Z</time>
      </trkpt>
      <trkpt lat="42.71092" lon="0.96738">
        <ele>2049.6</ele>
        <time>2018-11-24T01:34:01Z</time>
      </trkpt>
      <trkpt lat="42.71097" lon="0.96749">
        <ele>2052.1</ele>
        <time>2018-11-24T01:34:04Z</time>
      </trkpt>
      <trkpt lat="42.71102" lon="0.96759">
        <ele>2054</ele>
        <time>2018-11-24T01:34:08Z</time>
      </trkpt>
      <trkpt lat="42.71107" lon="0.96769">
        <ele>2056.5</ele>
        <time>2018-11-24T01:34:12Z</time>
      </trkpt>
      <trkpt lat="42.71112" lon="0.96781">
        <ele>2057.8</ele>
        <time>2018-11-24T01:34:16Z</time>
      </trkpt>
      <trkpt lat="42.71117" lon="0.96792">
        <ele>2059.7</ele>
        <time>2018-11-24T01:34:19Z</time>
      </trkpt>
      <trkpt lat="42.71122" lon="0.96802">
        <ele>2061.2</ele>
        <time>2018-11-24T01:34:23Z</time>
      </trkpt>
      <trkpt lat="42.71126" lon="0.96814">
        <ele>2062.7</ele>
        <time>2018-11-24T01:34:27Z</time>
      </trkpt>
      <trkpt lat="42.71131" lon="0.96827">
        <ele>2065</ele>
        <time>2018-11-24T01:34:31Z</time>
      </trkpt>
      <trkpt lat="42.71136" lon="0.96838">
        <ele>2066.4</ele>
        <time>2018-11-24T01:34:35Z</time>
      </trkpt>
      <trkpt lat="42.71141" lon="0.96849">
        <ele>2068.4</ele>
        <time>2018-11-24T01:34:39Z</time>
      </trkpt>
      <trkpt lat="42.71147" lon="0.96859">
        <ele>2070.3</ele>
        <time>2018-11-24T01:34:43Z</time>
      </trkpt>
      <trkpt lat="42.71154" lon="0.96867">
        <ele>2071.8</ele>
        <time>2018-11-24T01:34:46Z</time>
      </trkpt>
      <trkpt lat="42.71162" lon="0.96874">
        <ele>2072.7</ele>
        <time>2018-11-24T01:34:50Z</time>
      </trkpt>
      <trkpt lat="42.7117" lon="0.9688">
        <ele>2073.8</ele>
        <time>2018-11-24T01:34:54Z</time>
      </trkpt>
      <trkpt lat="42.71179" lon="0.96886">
        <ele>2074.1</ele>
        <time>2018-11-24T01:34:58Z</time>
      </trkpt>
      <trkpt lat="42.71188" lon="0.96893">
        <ele>2075.1</ele>
        <time>2018-11-24T01:35:02Z</time>
      </trkpt>
      <trkpt lat="42.71196" lon="0.96902">
        <ele>2076.5</ele>
        <time>2018-11-24T01:35:06Z</time>
      </trkpt>
      <trkpt lat="42.71203" lon="0.96911">
        <ele>2077.1</ele>
        <time>2018-11-24T01:35:10Z</time>
      </trkpt>
      <trkpt lat="42.7121" lon="0.96923">
        <ele>2078.5</ele>
        <time>2018-11-24T01:35:14Z</time>
      </trkpt>
      <trkpt lat="42.71214" lon="0.96934">
        <ele>2079.4</ele>
        <time>2018-11-24T01:35:18Z</time>
      </trkpt>
      <trkpt lat="42.71221" lon="0.96946">
        <ele>2079.9</ele>
        <time>2018-11-24T01:35:23Z</time>
      </trkpt>
      <trkpt lat="42.71227" lon="0.96956">
        <ele>2080.4</ele>
        <time>2018-11-24T01:35:26Z</time>
      </trkpt>
      <trkpt lat="42.71231" lon="0.96967">
        <ele>2081.4</ele>
        <time>2018-11-24T01:35:30Z</time>
      </trkpt>
      <trkpt lat="42.71237" lon="0.96978">
        <ele>2082.4</ele>
        <time>2018-11-24T01:35:34Z</time>
      </trkpt>
      <trkpt lat="42.71243" lon="0.9699">
        <ele>2082.9</ele>
        <time>2018-11-24T01:35:38Z</time>
      </trkpt>
      <trkpt lat="42.71249" lon="0.97001">
        <ele>2083.7</ele>
        <time>2018-11-24T01:35:42Z</time>
      </trkpt>
      <trkpt lat="42.71254" lon="0.97012">
        <ele>2084.7</ele>
        <time>2018-11-24T01:35:46Z</time>
      </trkpt>
      <trkpt lat="42.7126" lon="0.97025">
        <ele>2085.2</ele>
        <time>2018-11-24T01:35:50Z</time>
      </trkpt>
      <trkpt lat="42.71264" lon="0.97036">
        <ele>2086.3</ele>
        <time>2018-11-24T01:35:54Z</time>
      </trkpt>
      <trkpt lat="42.71269" lon="0.97048">
        <ele>2086.6</ele>
        <time>2018-11-24T01:35:58Z</time>
      </trkpt>
      <trkpt lat="42.71272" lon="0.97061">
        <ele>2087.2</ele>
        <time>2018-11-24T01:36:02Z</time>
      </trkpt>
      <trkpt lat="42.71276" lon="0.97073">
        <ele>2088.1</ele>
        <time>2018-11-24T01:36:06Z</time>
      </trkpt>
      <trkpt lat="42.71279" lon="0.97086">
        <ele>2088.6</ele>
        <time>2018-11-24T01:36:10Z</time>
      </trkpt>
      <trkpt lat="42.71284" lon="0.97098">
        <ele>2089.5</ele>
        <time>2018-11-24T01:36:14Z</time>
      </trkpt>
      <trkpt lat="42.71288" lon="0.97111">
        <ele>2090.5</ele>
        <time>2018-11-24T01:36:18Z</time>
      </trkpt>
      <trkpt lat="42.71292" lon="0.97124">
        <ele>2091.4</ele>
        <time>2018-11-24T01:36:22Z</time>
      </trkpt>
      <trkpt lat="42.71297" lon="0.97135">
        <ele>2091.9</ele>
        <time>2018-11-24T01:36:26Z</time>
      </trkpt>
      <trkpt lat="42.71301" lon="0.97148">
        <ele>2093</ele>
        <time>2018-11-24T01:36:30Z</time>
      </trkpt>
      <trkpt lat="42.71304" lon="0.97161">
        <ele>2092.9</ele>
        <time>2018-11-24T01:36:34Z</time>
      </trkpt>
      <trkpt lat="42.71309" lon="0.97173">
        <ele>2094.4</ele>
        <time>2018-11-24T01:36:38Z</time>
      </trkpt>
      <trkpt lat="42.71312" lon="0.97185">
        <ele>2095.3</ele>
        <time>2018-11-24T01:36:42Z</time>
      </trkpt>
      <trkpt lat="42.71315" lon="0.972">
        <ele>2095.8</ele>
        <time>2018-11-24T01:36:47Z</time>
      </trkpt>
      <trkpt lat="42.71318" lon="0.97212">
        <ele>2097.2</ele>
        <time>2018-11-24T01:36:50Z</time>
      </trkpt>
      <trkpt lat="42.71322" lon="0.97224">
        <ele>2098.7</ele>
        <time>2018-11-24T01:36:54Z</time>
      </trkpt>
      <trkpt lat="42.71326" lon="0.97235">
        <ele>2100.6</ele>
        <time>2018-11-24T01:36:58Z</time>
      </trkpt>
      <trkpt lat="42.71331" lon="0.97246">
        <ele>2101.5</ele>
        <time>2018-11-24T01:37:02Z</time>
      </trkpt>
      <trkpt lat="42.71336" lon="0.97257">
        <ele>2103.9</ele>
        <time>2018-11-24T01:37:06Z</time>
      </trkpt>
      <trkpt lat="42.7134" lon="0.97269">
        <ele>2105.4</ele>
        <time>2018-11-24T01:37:09Z</time>
      </trkpt>
      <trkpt lat="42.71346" lon="0.9728">
        <ele>2107.8</ele>
        <time>2018-11-24T01:37:13Z</time>
      </trkpt>
      <trkpt lat="42.7135" lon="0.97292">
        <ele>2110.2</ele>
        <time>2018-11-24T01:37:17Z</time>
      </trkpt>
      <trkpt lat="42.71356" lon="0.97304">
        <ele>2113.2</ele>
        <time>2018-11-24T01:37:21Z</time>
      </trkpt>
      <trkpt lat="42.71361" lon="0.97314">
        <ele>2115.5</ele>
        <time>2018-11-24T01:37:25Z</time>
      </trkpt>
      <trkpt lat="42.71365" lon="0.97326">
        <ele>2117.4</ele>
        <time>2018-11-24T01:37:29Z</time>
      </trkpt>
      <trkpt lat="42.71369" lon="0.97337">
        <ele>2119.9</ele>
        <time>2018-11-24T01:37:33Z</time>
      </trkpt>
      <trkpt lat="42.71374" lon="0.97349">
        <ele>2121.3</ele>
        <time>2018-11-24T01:37:37Z</time>
      </trkpt>
      <trkpt lat="42.71377" lon="0.97362">
        <ele>2123.2</ele>
        <time>2018-11-24T01:37:41Z</time>
      </trkpt>
      <trkpt lat="42.7138" lon="0.97374">
        <ele>2124.1</ele>
        <time>2018-11-24T01:37:44Z</time>
      </trkpt>
      <trkpt lat="42.71382" lon="0.97387">
        <ele>2125.6</ele>
        <time>2018-11-24T01:37:48Z</time>
      </trkpt>
      <trkpt lat="42.71385" lon="0.97401">
        <ele>2127.6</ele>
        <time>2018-11-24T01:37:52Z</time>
      </trkpt>
      <trkpt lat="42.71387" lon="0.97412">
        <ele>2128.6</ele>
        <time>2018-11-24T01:37:56Z</time>
      </trkpt>
      <trkpt lat="42.71391" lon="0.97425">
        <ele>2130</ele>
        <time>2018-11-24T01:38:00Z</time>
      </trkpt>
      <trkpt lat="42.71395" lon="0.97438">
        <ele>2131.8</ele>
        <time>2018-11-24T01:38:04Z</time>
      </trkpt>
      <trkpt lat="42.71399" lon="0.97451">
        <ele>2133.4</ele>
        <time>2018-11-24T01:38:08Z</time>
      </trkpt>
      <trkpt lat="42.71402" lon="0.97464">
        <ele>2134.8</ele>
        <time>2018-11-24T01:38:12Z</time>
      </trkpt>
      <trkpt lat="42.71405" lon="0.97476">
        <ele>2136.1</ele>
        <time>2018-11-24T01:38:16Z</time>
      </trkpt>
      <trkpt lat="42.7141" lon="0.97487">
        <ele>2137.6</ele>
        <time>2018-11-24T01:38:20Z</time>
      </trkpt>
      <trkpt lat="42.71414" lon="0.97498">
        <ele>2138.1</ele>
        <time>2018-11-24T01:38:24Z</time>
      </trkpt>
      <trkpt lat="42.71418" lon="0.9751">
        <ele>2139.5</ele>
        <time>2018-11-24T01:38:27Z</time>
      </trkpt>
      <trkpt lat="42.71423" lon="0.97522">
        <ele>2140.5</ele>
        <time>2018-11-24T01:38:31Z</time>
      </trkpt>
      <trkpt lat="42.71428" lon="0.97533">
        <ele>2141.5</ele>
        <time>2018-11-24T01:38:35Z</time>
      </trkpt>
      <trkpt lat="42.71435" lon="0.97544">
        <ele>2141.9</ele>
        <time>2018-11-24T01:38:40Z</time>
      </trkpt>
      <trkpt lat="42.71441" lon="0.97556">
        <ele>2142.9</ele>
        <time>2018-11-24T01:38:44Z</time>
      </trkpt>
      <trkpt lat="42.71448" lon="0.97568">
        <ele>2142.9</ele>
        <time>2018-11-24T01:38:48Z</time>
      </trkpt>
      <trkpt lat="42.71454" lon="0.97577">
        <ele>2143.5</ele>
        <time>2018-11-24T01:38:52Z</time>
      </trkpt>
      <trkpt lat="42.7146" lon="0.97587">
        <ele>2144.9</ele>
        <time>2018-11-24T01:38:56Z</time>
      </trkpt>
      <trkpt lat="42.71465" lon="0.97597">
        <ele>2145.4</ele>
        <time>2018-11-24T01:38:59Z</time>
      </trkpt>
      <trkpt lat="42.7147" lon="0.9761">
        <ele>2145.8</ele>
        <time>2018-11-24T01:39:03Z</time>
      </trkpt>
      <trkpt lat="42.71477" lon="0.97619">
        <ele>2146.7</ele>
        <time>2018-11-24T01:39:07Z</time>
      </trkpt>
      <trkpt lat="42.71484" lon="0.97629">
        <ele>2148.2</ele>
        <time>2018-11-24T01:39:11Z</time>
      </trkpt>
      <trkpt lat="42.71492" lon="0.97637">
        <ele>2149.6</ele>
        <time>2018-11-24T01:39:15Z</time>
      </trkpt>
      <trkpt lat="42.715" lon="0.97646">
        <ele>2151</ele>
        <time>2018-11-24T01:39:20Z</time>
      </trkpt>
      <trkpt lat="42.71506" lon="0.97657">
        <ele>2152.1</ele>
        <time>2018-11-24T01:39:23Z</time>
      </trkpt>
      <trkpt lat="42.71509" lon="0.97668">
        <ele>2153</ele>
        <time>2018-11-24T01:39:27Z</time>
      </trkpt>
      <trkpt lat="42.71511" lon="0.97682">
        <ele>2155.5</ele>
        <time>2018-11-24T01:39:31Z</time>
      </trkpt>
      <trkpt lat="42.71513" lon="0.97695">
        <ele>2156.8</ele>
        <time>2018-11-24T01:39:35Z</time>
      </trkpt>
      <trkpt lat="42.71515" lon="0.97708">
        <ele>2158.3</ele>
        <time>2018-11-24T01:39:39Z</time>
      </trkpt>
      <trkpt lat="42.71519" lon="0.9772">
        <ele>2160.3</ele>
        <time>2018-11-24T01:39:43Z</time>
      </trkpt>
      <trkpt lat="42.7152" lon="0.97733">
        <ele>2161.2</ele>
        <time>2018-11-24T01:39:47Z</time>
      </trkpt>
      <trkpt lat="42.71523" lon="0.97747">
        <ele>2163.1</ele>
        <time>2018-11-24T01:39:51Z</time>
      </trkpt>
      <trkpt lat="42.71526" lon="0.97759">
        <ele>2164.6</ele>
        <time>2018-11-24T01:39:55Z</time>
      </trkpt>
      <trkpt lat="42.71529" lon="0.97773">
        <ele>2166</ele>
        <time>2018-11-24T01:39:59Z</time>
      </trkpt>
      <trkpt lat="42.71531" lon="0.97785">
        <ele>2167.4</ele>
        <time>2018-11-24T01:40:03Z</time>
      </trkpt>
      <trkpt lat="42.71534" lon="0.97797">
        <ele>2169.3</ele>
        <time>2018-11-24T01:40:07Z</time>
      </trkpt>
      <trkpt lat="42.71536" lon="0.9781">
        <ele>2170.7</ele>
        <time>2018-11-24T01:40:10Z</time>
      </trkpt>
      <trkpt lat="42.7154" lon="0.97822">
        <ele>2172.2</ele>
        <time>2018-11-24T01:40:14Z</time>
      </trkpt>
      <trkpt lat="42.71543" lon="0.97835">
        <ele>2174.2</ele>
        <time>2018-11-24T01:40:18Z</time>
      </trkpt>
      <trkpt lat="42.71547" lon="0.97846">
        <ele>2175.6</ele>
        <time>2018-11-24T01:40:22Z</time>
      </trkpt>
      <trkpt lat="42.7155" lon="0.97859">
        <ele>2177.6</ele>
        <time>2018-11-24T01:40:26Z</time>
      </trkpt>
      <trkpt lat="42.71553" lon="0.97871">
        <ele>2178.9</ele>
        <time>2018-11-24T01:40:29Z</time>
      </trkpt>
      <trkpt lat="42.71556" lon="0.97883">
        <ele>2180.5</ele>
        <time>2018-11-24T01:40:33Z</time>
      </trkpt>
      <trkpt lat="42.7156" lon="0.97896">
        <ele>2182.4</ele>
        <time>2018-11-24T01:40:37Z</time>
      </trkpt>
      <trkpt lat="42.71564" lon="0.97908">
        <ele>2183.8</ele>
        <time>2018-11-24T01:40:41Z</time>
      </trkpt>
      <trkpt lat="42.71567" lon="0.97921">
        <ele>2185.7</ele>
        <time>2018-11-24T01:40:45Z</time>
      </trkpt>
      <trkpt lat="42.71569" lon="0.97933">
        <ele>2187.1</ele>
        <time>2018-11-24T01:40:49Z</time>
      </trkpt>
      <trkpt lat="42.71566" lon="0.97947">
        <ele>2189.5</ele>
        <time>2018-11-24T01:40:53Z</time>
      </trkpt>
      <trkpt lat="42.7156" lon="0.97957">
        <ele>2192.5</ele>
        <time>2018-11-24T01:40:57Z</time>
      </trkpt>
      <trkpt lat="42.71553" lon="0.97967">
        <ele>2194.3</ele>
        <time>2018-11-24T01:41:01Z</time>
      </trkpt>
      <trkpt lat="42.71546" lon="0.97977">
        <ele>2196.7</ele>
        <time>2018-11-24T01:41:05Z</time>
      </trkpt>
      <trkpt lat="42.7154" lon="0.97987">
        <ele>2200.2</ele>
        <time>2018-11-24T01:41:09Z</time>
      </trkpt>
      <trkpt lat="42.71536" lon="0.97999">
        <ele>2202.6</ele>
        <time>2018-11-24T01:41:13Z</time>
      </trkpt>
      <trkpt lat="42.71532" lon="0.98013">
        <ele>2205.4</ele>
        <time>2018-11-24T01:41:17Z</time>
      </trkpt>
      <trkpt lat="42.71526" lon="0.98025">
        <ele>2207.8</ele>
        <time>2018-11-24T01:41:21Z</time>
      </trkpt>
      <trkpt lat="42.71522" lon="0.98038">
        <ele>2210.3</ele>
        <time>2018-11-24T01:41:25Z</time>
      </trkpt>
      <trkpt lat="42.71521" lon="0.9805">
        <ele>2213</ele>
        <time>2018-11-24T01:41:29Z</time>
      </trkpt>
      <trkpt lat="42.71524" lon="0.98062">
        <ele>2215</ele>
        <time>2018-11-24T01:41:33Z</time>
      </trkpt>
      <trkpt lat="42.71528" lon="0.98074">
        <ele>2217.4</ele>
        <time>2018-11-24T01:41:37Z</time>
      </trkpt>
      <trkpt lat="42.71532" lon="0.98086">
        <ele>2220.3</ele>
        <time>2018-11-24T01:41:41Z</time>
      </trkpt>
      <trkpt lat="42.71537" lon="0.98097">
        <ele>2223.1</ele>
        <time>2018-11-24T01:41:44Z</time>
      </trkpt>
      <trkpt lat="42.71541" lon="0.98107">
        <ele>2226.6</ele>
        <time>2018-11-24T01:41:48Z</time>
      </trkpt>
      <trkpt lat="42.71547" lon="0.98117">
        <ele>2230</ele>
        <time>2018-11-24T01:41:51Z</time>
      </trkpt>
      <trkpt lat="42.71553" lon="0.98124">
        <ele>2232.9</ele>
        <time>2018-11-24T01:41:55Z</time>
      </trkpt>
      <trkpt lat="42.71557" lon="0.98136">
        <ele>2236.2</ele>
        <time>2018-11-24T01:41:58Z</time>
      </trkpt>
      <trkpt lat="42.71563" lon="0.98146">
        <ele>2240.5</ele>
        <time>2018-11-24T01:42:02Z</time>
      </trkpt>
      <trkpt lat="42.71569" lon="0.98158">
        <ele>2244.9</ele>
        <time>2018-11-24T01:42:06Z</time>
      </trkpt>
      <trkpt lat="42.71575" lon="0.98168">
        <ele>2248.6</ele>
        <time>2018-11-24T01:42:10Z</time>
      </trkpt>
      <trkpt lat="42.71583" lon="0.98179">
        <ele>2252.9</ele>
        <time>2018-11-24T01:42:15Z</time>
      </trkpt>
      <trkpt lat="42.71589" lon="0.98189">
        <ele>2256.3</ele>
        <time>2018-11-24T01:42:19Z</time>
      </trkpt>
      <trkpt lat="42.71595" lon="0.982">
        <ele>2259.7</ele>
        <time>2018-11-24T01:42:23Z</time>
      </trkpt>
      <trkpt lat="42.71601" lon="0.98208">
        <ele>2263</ele>
        <time>2018-11-24T01:42:26Z</time>
      </trkpt>
      <trkpt lat="42.71605" lon="0.98219">
        <ele>2266</ele>
        <time>2018-11-24T01:42:30Z</time>
      </trkpt>
      <trkpt lat="42.71608" lon="0.98231">
        <ele>2269.8</ele>
        <time>2018-11-24T01:42:33Z</time>
      </trkpt>
      <trkpt lat="42.71611" lon="0.98243">
        <ele>2272.7</ele>
        <time>2018-11-24T01:42:37Z</time>
      </trkpt>
      <trkpt lat="42.71614" lon="0.98254">
        <ele>2276.1</ele>
        <time>2018-11-24T01:42:41Z</time>
      </trkpt>
      <trkpt lat="42.71616" lon="0.98267">
        <ele>2279.5</ele>
        <time>2018-11-24T01:42:44Z</time>
      </trkpt>
      <trkpt lat="42.71615" lon="0.98281">
        <ele>2283.7</ele>
        <time>2018-11-24T01:42:49Z</time>
      </trkpt>
      <trkpt lat="42.71614" lon="0.98294">
        <ele>2287.2</ele>
        <time>2018-11-24T01:42:52Z</time>
      </trkpt>
      <trkpt lat="42.71612" lon="0.98307">
        <ele>2290.4</ele>
        <time>2018-11-24T01:42:56Z</time>
      </trkpt>
      <trkpt lat="42.71611" lon="0.98321">
        <ele>2293.4</ele>
        <time>2018-11-24T01:43:01Z</time>
      </trkpt>
      <trkpt lat="42.71604" lon="0.98331">
        <ele>2295.2</ele>
        <time>2018-11-24T01:43:04Z</time>
      </trkpt>
      <trkpt lat="42.71599" lon="0.98342">
        <ele>2297.2</ele>
        <time>2018-11-24T01:43:08Z</time>
      </trkpt>
      <trkpt lat="42.71594" lon="0.98354">
        <ele>2300</ele>
        <time>2018-11-24T01:43:12Z</time>
      </trkpt>
      <trkpt lat="42.7159" lon="0.98367">
        <ele>2302.4</ele>
        <time>2018-11-24T01:43:17Z</time>
      </trkpt>
      <trkpt lat="42.71589" lon="0.9838">
        <ele>2305.4</ele>
        <time>2018-11-24T01:43:20Z</time>
      </trkpt>
      <trkpt lat="42.71589" lon="0.98395">
        <ele>2308.3</ele>
        <time>2018-11-24T01:43:25Z</time>
      </trkpt>
      <trkpt lat="42.71588" lon="0.98408">
        <ele>2311.1</ele>
        <time>2018-11-24T01:43:28Z</time>
      </trkpt>
      <trkpt lat="42.71588" lon="0.98421">
        <ele>2313.5</ele>
        <time>2018-11-24T01:43:32Z</time>
      </trkpt>
      <trkpt lat="42.71588" lon="0.98436">
        <ele>2316.5</ele>
        <time>2018-11-24T01:43:37Z</time>
      </trkpt>
      <trkpt lat="42.71592" lon="0.98448">
        <ele>2317.8</ele>
        <time>2018-11-24T01:43:41Z</time>
      </trkpt>
      <trkpt lat="42.71596" lon="0.9846">
        <ele>2319.4</ele>
        <time>2018-11-24T01:43:44Z</time>
      </trkpt>
      <trkpt lat="42.71601" lon="0.9847">
        <ele>2321.2</ele>
        <time>2018-11-24T01:43:48Z</time>
      </trkpt>
      <trkpt lat="42.71607" lon="0.98481">
        <ele>2321.8</ele>
        <time>2018-11-24T01:43:52Z</time>
      </trkpt>
      <trkpt lat="42.71614" lon="0.98489">
        <ele>2321.7</ele>
        <time>2018-11-24T01:43:56Z</time>
      </trkpt>
      <trkpt lat="42.71612" lon="0.98502">
        <ele>2318.8</ele>
        <time>2018-11-24T01:43:59Z</time>
      </trkpt>
      <trkpt lat="42.71611" lon="0.98515">
        <ele>2315</ele>
        <time>2018-11-24T01:44:03Z</time>
      </trkpt>
      <trkpt lat="42.71602" lon="0.98522">
        <ele>2314.1</ele>
        <time>2018-11-24T01:44:08Z</time>
      </trkpt>
      <trkpt lat="42.71598" lon="0.98535">
        <ele>2311.1</ele>
        <time>2018-11-24T01:44:12Z</time>
      </trkpt>
      <trkpt lat="42.71594" lon="0.98546">
        <ele>2307.7</ele>
        <time>2018-11-24T01:44:15Z</time>
      </trkpt>
      <trkpt lat="42.71592" lon="0.98557">
        <ele>2303.9</ele>
        <time>2018-11-24T01:44:18Z</time>
      </trkpt>
      <trkpt lat="42.71593" lon="0.98568">
        <ele>2299.1</ele>
        <time>2018-11-24T01:44:22Z</time>
      </trkpt>
      <trkpt lat="42.71588" lon="0.98582">
        <ele>2297.3</ele>
        <time>2018-11-24T01:44:26Z</time>
      </trkpt>
      <trkpt lat="42.71585" lon="0.98594">
        <ele>2295.2</ele>
        <time>2018-11-24T01:44:30Z</time>
      </trkpt>
      <trkpt lat="42.71579" lon="0.98605">
        <ele>2293.8</ele>
        <time>2018-11-24T01:44:34Z</time>
      </trkpt>
      <trkpt lat="42.71572" lon="0.98614">
        <ele>2295.3</ele>
        <time>2018-11-24T01:44:38Z</time>
      </trkpt>
      <trkpt lat="42.71568" lon="0.98627">
        <ele>2295.2</ele>
        <time>2018-11-24T01:44:42Z</time>
      </trkpt>
      <trkpt lat="42.71566" lon="0.98642">
        <ele>2293.3</ele>
        <time>2018-11-24T01:44:46Z</time>
      </trkpt>
      <trkpt lat="42.71563" lon="0.98656">
        <ele>2292.5</ele>
        <time>2018-11-24T01:44:51Z</time>
      </trkpt>
      <trkpt lat="42.7156" lon="0.98671">
        <ele>2290.4</ele>
        <time>2018-11-24T01:44:55Z</time>
      </trkpt>
      <trkpt lat="42.71556" lon="0.98683">
        <ele>2288.6</ele>
        <time>2018-11-24T01:44:59Z</time>
      </trkpt>
      <trkpt lat="42.71551" lon="0.98694">
        <ele>2288.6</ele>
        <time>2018-11-24T01:45:03Z</time>
      </trkpt>
      <trkpt lat="42.7155" lon="0.98708">
        <ele>2288</ele>
        <time>2018-11-24T01:45:07Z</time>
      </trkpt>
      <trkpt lat="42.71555" lon="0.98723">
        <ele>2284.2</ele>
        <time>2018-11-24T01:45:12Z</time>
      </trkpt>
      <trkpt lat="42.71563" lon="0.98738">
        <ele>2278</ele>
        <time>2018-11-24T01:45:17Z</time>
      </trkpt>
      <trkpt lat="42.71568" lon="0.98753">
        <ele>2272.7</ele>
        <time>2018-11-24T01:45:22Z</time>
      </trkpt>
      <trkpt lat="42.71573" lon="0.98761">
        <ele>2267.4</ele>
        <time>2018-11-24T01:45:25Z</time>
      </trkpt>
      <trkpt lat="42.71581" lon="0.98771">
        <ele>2262.6</ele>
        <time>2018-11-24T01:45:30Z</time>
      </trkpt>
      <trkpt lat="42.71589" lon="0.98781">
        <ele>2260.6</ele>
        <time>2018-11-24T01:45:34Z</time>
      </trkpt>
      <trkpt lat="42.71593" lon="0.98791">
        <ele>2258.2</ele>
        <time>2018-11-24T01:45:37Z</time>
      </trkpt>
      <trkpt lat="42.71601" lon="0.98797">
        <ele>2253.5</ele>
        <time>2018-11-24T01:45:41Z</time>
      </trkpt>
      <trkpt lat="42.71607" lon="0.98809">
        <ele>2251.1</ele>
        <time>2018-11-24T01:45:45Z</time>
      </trkpt>
      <trkpt lat="42.71611" lon="0.9882">
        <ele>2248.7</ele>
        <time>2018-11-24T01:45:49Z</time>
      </trkpt>
      <trkpt lat="42.71617" lon="0.98828">
        <ele>2246.7</ele>
        <time>2018-11-24T01:45:52Z</time>
      </trkpt>
      <trkpt lat="42.71624" lon="0.98837">
        <ele>2246.3</ele>
        <time>2018-11-24T01:45:56Z</time>
      </trkpt>
      <trkpt lat="42.71629" lon="0.98849">
        <ele>2244.3</ele>
        <time>2018-11-24T01:46:00Z</time>
      </trkpt>
      <trkpt lat="42.7163" lon="0.98862">
        <ele>2241.9</ele>
        <time>2018-11-24T01:46:04Z</time>
      </trkpt>
      <trkpt lat="42.71635" lon="0.98873">
        <ele>2238.1</ele>
        <time>2018-11-24T01:46:08Z</time>
      </trkpt>
      <trkpt lat="42.71636" lon="0.98887">
        <ele>2235.2</ele>
        <time>2018-11-24T01:46:12Z</time>
      </trkpt>
      <trkpt lat="42.7164" lon="0.98899">
        <ele>2232.8</ele>
        <time>2018-11-24T01:46:15Z</time>
      </trkpt>
      <trkpt lat="42.71641" lon="0.98913">
        <ele>2230.8</ele>
        <time>2018-11-24T01:46:20Z</time>
      </trkpt>
      <trkpt lat="42.71645" lon="0.98925">
        <ele>2229.9</ele>
        <time>2018-11-24T01:46:24Z</time>
      </trkpt>
      <trkpt lat="42.7165" lon="0.98937">
        <ele>2230</ele>
        <time>2018-11-24T01:46:28Z</time>
      </trkpt>
      <trkpt lat="42.71654" lon="0.98949">
        <ele>2228.5</ele>
        <time>2018-11-24T01:46:32Z</time>
      </trkpt>
      <trkpt lat="42.71661" lon="0.98961">
        <ele>2227.6</ele>
        <time>2018-11-24T01:46:36Z</time>
      </trkpt>
      <trkpt lat="42.71666" lon="0.98976">
        <ele>2227.1</ele>
        <time>2018-11-24T01:46:41Z</time>
      </trkpt>
      <trkpt lat="42.71674" lon="0.98988">
        <ele>2227</ele>
        <time>2018-11-24T01:46:46Z</time>
      </trkpt>
      <trkpt lat="42.71683" lon="0.98993">
        <ele>2227</ele>
        <time>2018-11-24T01:46:50Z</time>
      </trkpt>
      <trkpt lat="42.71693" lon="0.99">
        <ele>2225.2</ele>
        <time>2018-11-24T01:46:54Z</time>
      </trkpt>
      <trkpt lat="42.71701" lon="0.99004">
        <ele>2222.7</ele>
        <time>2018-11-24T01:46:57Z</time>
      </trkpt>
      <trkpt lat="42.71708" lon="0.99015">
        <ele>2225.6</ele>
        <time>2018-11-24T01:47:02Z</time>
      </trkpt>
      <trkpt lat="42.71708" lon="0.99026">
        <ele>2222.8</ele>
        <time>2018-11-24T01:47:05Z</time>
      </trkpt>
      <trkpt lat="42.71711" lon="0.99041">
        <ele>2226.5</ele>
        <time>2018-11-24T01:47:09Z</time>
      </trkpt>
      <trkpt lat="42.71717" lon="0.99052">
        <ele>2224.6</ele>
        <time>2018-11-24T01:47:13Z</time>
      </trkpt>
      <trkpt lat="42.71717" lon="0.99066">
        <ele>2223.7</ele>
        <time>2018-11-24T01:47:18Z</time>
      </trkpt>
      <trkpt lat="42.71722" lon="0.99074">
        <ele>2220.8</ele>
        <time>2018-11-24T01:47:21Z</time>
      </trkpt>
      <trkpt lat="42.71731" lon="0.9908">
        <ele>2218.8</ele>
        <time>2018-11-24T01:47:25Z</time>
      </trkpt>
      <trkpt lat="42.71741" lon="0.99089">
        <ele>2218.3</ele>
        <time>2018-11-24T01:47:29Z</time>
      </trkpt>
      <trkpt lat="42.71746" lon="0.99098">
        <ele>2218.3</ele>
        <time>2018-11-24T01:47:33Z</time>
      </trkpt>
      <trkpt lat="42.71749" lon="0.9911">
        <ele>2218.4</ele>
        <time>2018-11-24T01:47:37Z</time>
      </trkpt>
      <trkpt lat="42.71746" lon="0.99124">
        <ele>2219.4</ele>
        <time>2018-11-24T01:47:41Z</time>
      </trkpt>
      <trkpt lat="42.71745" lon="0.99139">
        <ele>2221.8</ele>
        <time>2018-11-24T01:47:45Z</time>
      </trkpt>
      <trkpt lat="42.71744" lon="0.99155">
        <ele>2224.2</ele>
        <time>2018-11-24T01:47:50Z</time>
      </trkpt>
      <trkpt lat="42.71743" lon="0.99174">
        <ele>2226</ele>
        <time>2018-11-24T01:47:56Z</time>
      </trkpt>
      <trkpt lat="42.71743" lon="0.99188">
        <ele>2229.4</ele>
        <time>2018-11-24T01:48:00Z</time>
      </trkpt>
      <trkpt lat="42.71751" lon="0.99196">
        <ele>2230.4</ele>
        <time>2018-11-24T01:48:04Z</time>
      </trkpt>
      <trkpt lat="42.7176" lon="0.99191">
        <ele>2230.5</ele>
        <time>2018-11-24T01:48:08Z</time>
      </trkpt>
      <trkpt lat="42.71769" lon="0.99189">
        <ele>2228.5</ele>
        <time>2018-11-24T01:48:12Z</time>
      </trkpt>
      <trkpt lat="42.71778" lon="0.99186">
        <ele>2226</ele>
        <time>2018-11-24T01:48:15Z</time>
      </trkpt>
      <trkpt lat="42.71787" lon="0.9918">
        <ele>2226.1</ele>
        <time>2018-11-24T01:48:19Z</time>
      </trkpt>
      <trkpt lat="42.71797" lon="0.99184">
        <ele>2226</ele>
        <time>2018-11-24T01:48:23Z</time>
      </trkpt>
      <trkpt lat="42.71805" lon="0.99192">
        <ele>2226.1</ele>
        <time>2018-11-24T01:48:27Z</time>
      </trkpt>
      <trkpt lat="42.71811" lon="0.99207">
        <ele>2224.6</ele>
        <time>2018-11-24T01:48:32Z</time>
      </trkpt>
      <trkpt lat="42.71817" lon="0.9922">
        <ele>2224.7</ele>
        <time>2018-11-24T01:48:37Z</time>
      </trkpt>
      <trkpt lat="42.71822" lon="0.99234">
        <ele>2226.1</ele>
        <time>2018-11-24T01:48:41Z</time>
      </trkpt>
      <trkpt lat="42.71826" lon="0.99246">
        <ele>2226</ele>
        <time>2018-11-24T01:48:45Z</time>
      </trkpt>
      <trkpt lat="42.71832" lon="0.99258">
        <ele>2226</ele>
        <time>2018-11-24T01:48:50Z</time>
      </trkpt>
      <trkpt lat="42.71836" lon="0.99273">
        <ele>2226</ele>
        <time>2018-11-24T01:48:54Z</time>
      </trkpt>
      <trkpt lat="42.71838" lon="0.99287">
        <ele>2226</ele>
        <time>2018-11-24T01:48:58Z</time>
      </trkpt>
      <trkpt lat="42.71839" lon="0.99299">
        <ele>2225.2</ele>
        <time>2018-11-24T01:49:02Z</time>
      </trkpt>
      <trkpt lat="42.71842" lon="0.99313">
        <ele>2225.1</ele>
        <time>2018-11-24T01:49:06Z</time>
      </trkpt>
      <trkpt lat="42.71844" lon="0.99328">
        <ele>2225.1</ele>
        <time>2018-11-24T01:49:11Z</time>
      </trkpt>
      <trkpt lat="42.71848" lon="0.9934">
        <ele>2225.2</ele>
        <time>2018-11-24T01:49:14Z</time>
      </trkpt>
      <trkpt lat="42.71853" lon="0.99352">
        <ele>2225.1</ele>
        <time>2018-11-24T01:49:19Z</time>
      </trkpt>
      <trkpt lat="42.71854" lon="0.99367">
        <ele>2225.2</ele>
        <time>2018-11-24T01:49:23Z</time>
      </trkpt>
      <trkpt lat="42.71855" lon="0.99383">
        <ele>2225.1</ele>
        <time>2018-11-24T01:49:28Z</time>
      </trkpt>
      <trkpt lat="42.71859" lon="0.99396">
        <ele>2225.1</ele>
        <time>2018-11-24T01:49:32Z</time>
      </trkpt>
      <trkpt lat="42.7186" lon="0.9941">
        <ele>2225.2</ele>
        <time>2018-11-24T01:49:36Z</time>
      </trkpt>
      <trkpt lat="42.71865" lon="0.99422">
        <ele>2225.1</ele>
        <time>2018-11-24T01:49:40Z</time>
      </trkpt>
      <trkpt lat="42.71869" lon="0.99434">
        <ele>2225.1</ele>
        <time>2018-11-24T01:49:44Z</time>
      </trkpt>
      <trkpt lat="42.71871" lon="0.99449">
        <ele>2225.5</ele>
        <time>2018-11-24T01:49:48Z</time>
      </trkpt>
      <trkpt lat="42.71873" lon="0.99463">
        <ele>2225.5</ele>
        <time>2018-11-24T01:49:53Z</time>
      </trkpt>
      <trkpt lat="42.71875" lon="0.99478">
        <ele>2225.5</ele>
        <time>2018-11-24T01:49:57Z</time>
      </trkpt>
      <trkpt lat="42.71877" lon="0.99491">
        <ele>2225.6</ele>
        <time>2018-11-24T01:50:01Z</time>
      </trkpt>
      <trkpt lat="42.71882" lon="0.99503">
        <ele>2225.5</ele>
        <time>2018-11-24T01:50:05Z</time>
      </trkpt>
      <trkpt lat="42.71883" lon="0.99518">
        <ele>2225.6</ele>
        <time>2018-11-24T01:50:09Z</time>
      </trkpt>
      <trkpt lat="42.71884" lon="0.99532">
        <ele>2226.6</ele>
        <time>2018-11-24T01:50:14Z</time>
      </trkpt>
      <trkpt lat="42.71887" lon="0.99547">
        <ele>2228.9</ele>
        <time>2018-11-24T01:50:18Z</time>
      </trkpt>
      <trkpt lat="42.71889" lon="0.99562">
        <ele>2230.9</ele>
        <time>2018-11-24T01:50:23Z</time>
      </trkpt>
      <trkpt lat="42.71893" lon="0.99577">
        <ele>2231.8</ele>
        <time>2018-11-24T01:50:27Z</time>
      </trkpt>
      <trkpt lat="42.71899" lon="0.99587">
        <ele>2232.3</ele>
        <time>2018-11-24T01:50:31Z</time>
      </trkpt>
      <trkpt lat="42.71903" lon="0.99599">
        <ele>2232.3</ele>
        <time>2018-11-24T01:50:35Z</time>
      </trkpt>
      <trkpt lat="42.71912" lon="0.99606">
        <ele>2232.4</ele>
        <time>2018-11-24T01:50:39Z</time>
      </trkpt>
      <trkpt lat="42.7192" lon="0.99612">
        <ele>2232.3</ele>
        <time>2018-11-24T01:50:43Z</time>
      </trkpt>
      <trkpt lat="42.71929" lon="0.9962">
        <ele>2232.3</ele>
        <time>2018-11-24T01:50:47Z</time>
      </trkpt>
      <trkpt lat="42.71936" lon="0.99626">
        <ele>2232.3</ele>
        <time>2018-11-24T01:50:50Z</time>
      </trkpt>
      <trkpt lat="42.71941" lon="0.99635">
        <ele>2232.4</ele>
        <time>2018-11-24T01:50:54Z</time>
      </trkpt>
      <trkpt lat="42.71951" lon="0.99643">
        <ele>2232.8</ele>
        <time>2018-11-24T01:50:58Z</time>
      </trkpt>
      <trkpt lat="42.71961" lon="0.99646">
        <ele>2234.3</ele>
        <time>2018-11-24T01:51:02Z</time>
      </trkpt>
      <trkpt lat="42.71971" lon="0.99647">
        <ele>2236.1</ele>
        <time>2018-11-24T01:51:06Z</time>
      </trkpt>
      <trkpt lat="42.71979" lon="0.99642">
        <ele>2238.6</ele>
        <time>2018-11-24T01:51:10Z</time>
      </trkpt>
      <trkpt lat="42.7199" lon="0.99648">
        <ele>2242.4</ele>
        <time>2018-11-24T01:51:15Z</time>
      </trkpt>
      <trkpt lat="42.71999" lon="0.99652">
        <ele>2245.7</ele>
        <time>2018-11-24T01:51:19Z</time>
      </trkpt>
      <trkpt lat="42.7201" lon="0.99658">
        <ele>2249.1</ele>
        <time>2018-11-24T01:51:23Z</time>
      </trkpt>
      <trkpt lat="42.72018" lon="0.99663">
        <ele>2250.5</ele>
        <time>2018-11-24T01:51:26Z</time>
      </trkpt>
      <trkpt lat="42.72027" lon="0.99664">
        <ele>2252</ele>
        <time>2018-11-24T01:51:30Z</time>
      </trkpt>
      <trkpt lat="42.72036" lon="0.9966">
        <ele>2249.6</ele>
        <time>2018-11-24T01:51:34Z</time>
      </trkpt>
      <trkpt lat="42.72043" lon="0.99652">
        <ele>2247.2</ele>
        <time>2018-11-24T01:51:38Z</time>
      </trkpt>
      <trkpt lat="42.7205" lon="0.99645">
        <ele>2245.8</ele>
        <time>2018-11-24T01:51:41Z</time>
      </trkpt>
      <trkpt lat="42.72057" lon="0.99636">
        <ele>2244.9</ele>
        <time>2018-11-24T01:51:45Z</time>
      </trkpt>
      <trkpt lat="42.72064" lon="0.99628">
        <ele>2244.8</ele>
        <time>2018-11-24T01:51:49Z</time>
      </trkpt>
      <trkpt lat="42.72073" lon="0.99624">
        <ele>2247.3</ele>
        <time>2018-11-24T01:51:53Z</time>
      </trkpt>
      <trkpt lat="42.72083" lon="0.99621">
        <ele>2248.6</ele>
        <time>2018-11-24T01:51:57Z</time>
      </trkpt>
      <trkpt lat="42.72093" lon="0.99617">
        <ele>2249.2</ele>
        <time>2018-11-24T01:52:01Z</time>
      </trkpt>
      <trkpt lat="42.72104" lon="0.99618">
        <ele>2247.7</ele>
        <time>2018-11-24T01:52:05Z</time>
      </trkpt>
      <trkpt lat="42.72115" lon="0.99621">
        <ele>2251</ele>
        <time>2018-11-24T01:52:10Z</time>
      </trkpt>
      <trkpt lat="42.72123" lon="0.99615">
        <ele>2253</ele>
        <time>2018-11-24T01:52:14Z</time>
      </trkpt>
      <trkpt lat="42.72129" lon="0.99604">
        <ele>2255</ele>
        <time>2018-11-24T01:52:18Z</time>
      </trkpt>
      <trkpt lat="42.72139" lon="0.99602">
        <ele>2256.9</ele>
        <time>2018-11-24T01:52:22Z</time>
      </trkpt>
      <trkpt lat="42.72148" lon="0.9961">
        <ele>2258.7</ele>
        <time>2018-11-24T01:52:26Z</time>
      </trkpt>
      <trkpt lat="42.72157" lon="0.99618">
        <ele>2258.7</ele>
        <time>2018-11-24T01:52:30Z</time>
      </trkpt>
      <trkpt lat="42.72166" lon="0.99626">
        <ele>2259.8</ele>
        <time>2018-11-24T01:52:34Z</time>
      </trkpt>
      <trkpt lat="42.72171" lon="0.99637">
        <ele>2261.6</ele>
        <time>2018-11-24T01:52:38Z</time>
      </trkpt>
      <trkpt lat="42.72176" lon="0.99649">
        <ele>2265</ele>
        <time>2018-11-24T01:52:42Z</time>
      </trkpt>
      <trkpt lat="42.72181" lon="0.9966">
        <ele>2269.9</ele>
        <time>2018-11-24T01:52:46Z</time>
      </trkpt>
      <trkpt lat="42.7218" lon="0.99673">
        <ele>2273.7</ele>
        <time>2018-11-24T01:52:50Z</time>
      </trkpt>
      <trkpt lat="42.72181" lon="0.99687">
        <ele>2277.5</ele>
        <time>2018-11-24T01:52:54Z</time>
      </trkpt>
      <trkpt lat="42.72188" lon="0.99685">
        <ele>2280.3</ele>
        <time>2018-11-24T01:52:57Z</time>
      </trkpt>
      <trkpt lat="42.72194" lon="0.99686">
        <ele>2282.8</ele>
        <time>2018-11-24T01:52:59Z</time>
      </trkpt>
      <trkpt lat="42.72202" lon="0.99681">
        <ele>2284.7</ele>
        <time>2018-11-24T01:53:03Z</time>
      </trkpt>
      <trkpt lat="42.7221" lon="0.99685">
        <ele>2288.1</ele>
        <time>2018-11-24T01:53:06Z</time>
      </trkpt>
      <trkpt lat="42.72207" lon="0.99698">
        <ele>2291</ele>
        <time>2018-11-24T01:53:10Z</time>
      </trkpt>
      <trkpt lat="42.7221" lon="0.99707">
        <ele>2295.3</ele>
        <time>2018-11-24T01:53:13Z</time>
      </trkpt>
      <trkpt lat="42.72211" lon="0.99718">
        <ele>2298.6</ele>
        <time>2018-11-24T01:53:16Z</time>
      </trkpt>
      <trkpt lat="42.72215" lon="0.99723">
        <ele>2303</ele>
        <time>2018-11-24T01:53:18Z</time>
      </trkpt>
      <trkpt lat="42.72213" lon="0.99735">
        <ele>2305.3</ele>
        <time>2018-11-24T01:53:22Z</time>
      </trkpt>
      <trkpt lat="42.72221" lon="0.99734">
        <ele>2310.6</ele>
        <time>2018-11-24T01:53:25Z</time>
      </trkpt>
      <trkpt lat="42.72226" lon="0.99738">
        <ele>2313.6</ele>
        <time>2018-11-24T01:53:28Z</time>
      </trkpt>
      <trkpt lat="42.72225" lon="0.99751">
        <ele>2317.8</ele>
        <time>2018-11-24T01:53:31Z</time>
      </trkpt>
      <trkpt lat="42.72226" lon="0.99761">
        <ele>2320.7</ele>
        <time>2018-11-24T01:53:34Z</time>
      </trkpt>
      <trkpt lat="42.72231" lon="0.99764">
        <ele>2324.7</ele>
        <time>2018-11-24T01:53:37Z</time>
      </trkpt>
      <trkpt lat="42.72231" lon="0.99777">
        <ele>2327.9</ele>
        <time>2018-11-24T01:53:40Z</time>
      </trkpt>
      <trkpt lat="42.72236" lon="0.99779">
        <ele>2331.9</ele>
        <time>2018-11-24T01:53:42Z</time>
      </trkpt>
      <trkpt lat="42.72239" lon="0.9979">
        <ele>2336.1</ele>
        <time>2018-11-24T01:53:46Z</time>
      </trkpt>
      <trkpt lat="42.7224" lon="0.99802">
        <ele>2340</ele>
        <time>2018-11-24T01:53:49Z</time>
      </trkpt>
      <trkpt lat="42.7224" lon="0.99814">
        <ele>2343.8</ele>
        <time>2018-11-24T01:53:53Z</time>
      </trkpt>
      <trkpt lat="42.72246" lon="0.99818">
        <ele>2347.2</ele>
        <time>2018-11-24T01:53:55Z</time>
      </trkpt>
      <trkpt lat="42.72247" lon="0.9983">
        <ele>2350.6</ele>
        <time>2018-11-24T01:53:59Z</time>
      </trkpt>
      <trkpt lat="42.72251" lon="0.99835">
        <ele>2353.9</ele>
        <time>2018-11-24T01:54:01Z</time>
      </trkpt>
      <trkpt lat="42.72256" lon="0.99845">
        <ele>2357.3</ele>
        <time>2018-11-24T01:54:05Z</time>
      </trkpt>
      <trkpt lat="42.72255" lon="0.99858">
        <ele>2361.1</ele>
        <time>2018-11-24T01:54:09Z</time>
      </trkpt>
      <trkpt lat="42.72258" lon="0.99869">
        <ele>2364.5</ele>
        <time>2018-11-24T01:54:12Z</time>
      </trkpt>
      <trkpt lat="42.72261" lon="0.99879">
        <ele>2368.4</ele>
        <time>2018-11-24T01:54:15Z</time>
      </trkpt>
      <trkpt lat="42.72262" lon="0.9989">
        <ele>2371.7</ele>
        <time>2018-11-24T01:54:18Z</time>
      </trkpt>
      <trkpt lat="42.72264" lon="0.99902">
        <ele>2374.1</ele>
        <time>2018-11-24T01:54:22Z</time>
      </trkpt>
      <trkpt lat="42.72267" lon="0.99912">
        <ele>2377.1</ele>
        <time>2018-11-24T01:54:25Z</time>
      </trkpt>
      <trkpt lat="42.72269" lon="0.99925">
        <ele>2379.9</ele>
        <time>2018-11-24T01:54:29Z</time>
      </trkpt>
      <trkpt lat="42.72269" lon="0.99937">
        <ele>2382.7</ele>
        <time>2018-11-24T01:54:33Z</time>
      </trkpt>
      <trkpt lat="42.72268" lon="0.99951">
        <ele>2384.2</ele>
        <time>2018-11-24T01:54:37Z</time>
      </trkpt>
      <trkpt lat="42.72265" lon="0.99964">
        <ele>2386.6</ele>
        <time>2018-11-24T01:54:41Z</time>
      </trkpt>
      <trkpt lat="42.72258" lon="0.99971">
        <ele>2390</ele>
        <time>2018-11-24T01:54:45Z</time>
      </trkpt>
      <trkpt lat="42.72258" lon="0.99985">
        <ele>2393.9</ele>
        <time>2018-11-24T01:54:49Z</time>
      </trkpt>
      <trkpt lat="42.72257" lon="0.99996">
        <ele>2397.6</ele>
        <time>2018-11-24T01:54:52Z</time>
      </trkpt>
      <trkpt lat="42.7226" lon="1.00013">
        <ele>2403.4</ele>
        <time>2018-11-24T01:54:57Z</time>
      </trkpt>
      <trkpt lat="42.72261" lon="1.00026">
        <ele>2408.2</ele>
        <time>2018-11-24T01:55:01Z</time>
      </trkpt>
      <trkpt lat="42.72264" lon="1.00038">
        <ele>2410.6</ele>
        <time>2018-11-24T01:55:04Z</time>
      </trkpt>
      <trkpt lat="42.72254" lon="1.00045">
        <ele>2414.9</ele>
        <time>2018-11-24T01:55:09Z</time>
      </trkpt>
      <trkpt lat="42.72244" lon="1.0005">
        <ele>2417.9</ele>
        <time>2018-11-24T01:55:13Z</time>
      </trkpt>
      <trkpt lat="42.72237" lon="1.00057">
        <ele>2421.2</ele>
        <time>2018-11-24T01:55:17Z</time>
      </trkpt>
      <trkpt lat="42.72236" lon="1.0007">
        <ele>2424.2</ele>
        <time>2018-11-24T01:55:21Z</time>
      </trkpt>
      <trkpt lat="42.72234" lon="1.00084">
        <ele>2428</ele>
        <time>2018-11-24T01:55:25Z</time>
      </trkpt>
      <trkpt lat="42.72238" lon="1.00095">
        <ele>2433.3</ele>
        <time>2018-11-24T01:55:29Z</time>
      </trkpt>
      <trkpt lat="42.72245" lon="1.00105">
        <ele>2439</ele>
        <time>2018-11-24T01:55:32Z</time>
      </trkpt>
      <trkpt lat="42.72248" lon="1.00117">
        <ele>2441.5</ele>
        <time>2018-11-24T01:55:36Z</time>
      </trkpt>
      <trkpt lat="42.72252" lon="1.0013">
        <ele>2442.8</ele>
        <time>2018-11-24T01:55:40Z</time>
      </trkpt>
      <trkpt lat="42.72256" lon="1.00144">
        <ele>2444.7</ele>
        <time>2018-11-24T01:55:45Z</time>
      </trkpt>
      <trkpt lat="42.72261" lon="1.00146">
        <ele>2449.1</ele>
        <time>2018-11-24T01:55:47Z</time>
      </trkpt>
      <trkpt lat="42.72268" lon="1.00159">
        <ele>2453.5</ele>
        <time>2018-11-24T01:55:52Z</time>
      </trkpt>
      <trkpt lat="42.72272" lon="1.00171">
        <ele>2457.8</ele>
        <time>2018-11-24T01:55:56Z</time>
      </trkpt>
      <trkpt lat="42.72277" lon="1.00182">
        <ele>2463.1</ele>
        <time>2018-11-24T01:55:59Z</time>
      </trkpt>
      <trkpt lat="42.72282" lon="1.00193">
        <ele>2466</ele>
        <time>2018-11-24T01:56:03Z</time>
      </trkpt>
      <trkpt lat="42.72286" lon="1.00206">
        <ele>2470.3</ele>
        <time>2018-11-24T01:56:07Z</time>
      </trkpt>
      <trkpt lat="42.72291" lon="1.00216">
        <ele>2474.1</ele>
        <time>2018-11-24T01:56:11Z</time>
      </trkpt>
      <trkpt lat="42.72293" lon="1.00225">
        <ele>2477.5</ele>
        <time>2018-11-24T01:56:14Z</time>
      </trkpt>
      <trkpt lat="42.72296" lon="1.00236">
        <ele>2481.4</ele>
        <time>2018-11-24T01:56:17Z</time>
      </trkpt>
      <trkpt lat="42.72299" lon="1.00246">
        <ele>2485.2</ele>
        <time>2018-11-24T01:56:20Z</time>
      </trkpt>
      <trkpt lat="42.72303" lon="1.00257">
        <ele>2488.5</ele>
        <time>2018-11-24T01:56:24Z</time>
      </trkpt>
      <trkpt lat="42.72301" lon="1.00269">
        <ele>2492.3</ele>
        <time>2018-11-24T01:56:28Z</time>
      </trkpt>
      <trkpt lat="42.72299" lon="1.00279">
        <ele>2495.3</ele>
        <time>2018-11-24T01:56:30Z</time>
      </trkpt>
      <trkpt lat="42.72304" lon="1.00289">
        <ele>2498.6</ele>
        <time>2018-11-24T01:56:34Z</time>
      </trkpt>
      <trkpt lat="42.72304" lon="1.00299">
        <ele>2503</ele>
        <time>2018-11-24T01:56:37Z</time>
      </trkpt>
      <trkpt lat="42.72306" lon="1.00308">
        <ele>2505.9</ele>
        <time>2018-11-24T01:56:40Z</time>
      </trkpt>
      <trkpt lat="42.72308" lon="1.00317">
        <ele>2510.1</ele>
        <time>2018-11-24T01:56:43Z</time>
      </trkpt>
      <trkpt lat="42.72311" lon="1.00328">
        <ele>2513.9</ele>
        <time>2018-11-24T01:56:46Z</time>
      </trkpt>
      <trkpt lat="42.72311" lon="1.00337">
        <ele>2517.4</ele>
        <time>2018-11-24T01:56:49Z</time>
      </trkpt>
      <trkpt lat="42.72315" lon="1.00345">
        <ele>2521.1</ele>
        <time>2018-11-24T01:56:51Z</time>
      </trkpt>
      <trkpt lat="42.72315" lon="1.00356">
        <ele>2524.6</ele>
        <time>2018-11-24T01:56:55Z</time>
      </trkpt>
      <trkpt lat="42.7232" lon="1.00363">
        <ele>2527.5</ele>
        <time>2018-11-24T01:56:57Z</time>
      </trkpt>
      <trkpt lat="42.72316" lon="1.00374">
        <ele>2531.2</ele>
        <time>2018-11-24T01:57:01Z</time>
      </trkpt>
      <trkpt lat="42.72323" lon="1.00381">
        <ele>2534.1</ele>
        <time>2018-11-24T01:57:04Z</time>
      </trkpt>
      <trkpt lat="42.72325" lon="1.0039">
        <ele>2539</ele>
        <time>2018-11-24T01:57:07Z</time>
      </trkpt>
      <trkpt lat="42.72326" lon="1.004">
        <ele>2542.8</ele>
        <time>2018-11-24T01:57:10Z</time>
      </trkpt>
      <trkpt lat="42.72327" lon="1.00409">
        <ele>2546.2</ele>
        <time>2018-11-24T01:57:13Z</time>
      </trkpt>
      <trkpt lat="42.72335" lon="1.00416">
        <ele>2549.1</ele>
        <time>2018-11-24T01:57:17Z</time>
      </trkpt>
      <trkpt lat="42.72333" lon="1.00425">
        <ele>2552.4</ele>
        <time>2018-11-24T01:57:20Z</time>
      </trkpt>
      <trkpt lat="42.72337" lon="1.00434">
        <ele>2555.9</ele>
        <time>2018-11-24T01:57:23Z</time>
      </trkpt>
      <trkpt lat="42.72339" lon="1.00445">
        <ele>2560.1</ele>
        <time>2018-11-24T01:57:26Z</time>
      </trkpt>
      <trkpt lat="42.72345" lon="1.00454">
        <ele>2564</ele>
        <time>2018-11-24T01:57:30Z</time>
      </trkpt>
      <trkpt lat="42.72351" lon="1.00464">
        <ele>2567.9</ele>
        <time>2018-11-24T01:57:34Z</time>
      </trkpt>
      <trkpt lat="42.72356" lon="1.00473">
        <ele>2571.1</ele>
        <time>2018-11-24T01:57:37Z</time>
      </trkpt>
      <trkpt lat="42.72362" lon="1.00483">
        <ele>2573.5</ele>
        <time>2018-11-24T01:57:41Z</time>
      </trkpt>
      <trkpt lat="42.7237" lon="1.00491">
        <ele>2574.5</ele>
        <time>2018-11-24T01:57:45Z</time>
      </trkpt>
      <trkpt lat="42.72379" lon="1.00496">
        <ele>2573.1</ele>
        <time>2018-11-24T01:57:48Z</time>
      </trkpt>
      <trkpt lat="42.72388" lon="1.005">
        <ele>2570.3</ele>
        <time>2018-11-24T01:57:52Z</time>
      </trkpt>
      <trkpt lat="42.72397" lon="1.00501">
        <ele>2566.9</ele>
        <time>2018-11-24T01:57:56Z</time>
      </trkpt>
      <trkpt lat="42.72407" lon="1.00494">
        <ele>2563.5</ele>
        <time>2018-11-24T01:58:00Z</time>
      </trkpt>
      <trkpt lat="42.72415" lon="1.00489">
        <ele>2560.2</ele>
        <time>2018-11-24T01:58:04Z</time>
      </trkpt>
      <trkpt lat="42.72423" lon="1.00485">
        <ele>2557.3</ele>
        <time>2018-11-24T01:58:07Z</time>
      </trkpt>
      <trkpt lat="42.72433" lon="1.00481">
        <ele>2553.9</ele>
        <time>2018-11-24T01:58:11Z</time>
      </trkpt>
      <trkpt lat="42.7244" lon="1.00475">
        <ele>2550.6</ele>
        <time>2018-11-24T01:58:15Z</time>
      </trkpt>
      <trkpt lat="42.72446" lon="1.00466">
        <ele>2547.2</ele>
        <time>2018-11-24T01:58:19Z</time>
      </trkpt>
      <trkpt lat="42.72446" lon="1.00455">
        <ele>2543.3</ele>
        <time>2018-11-24T01:58:22Z</time>
      </trkpt>
      <trkpt lat="42.72455" lon="1.00451">
        <ele>2538.5</ele>
        <time>2018-11-24T01:58:25Z</time>
      </trkpt>
      <trkpt lat="42.7246" lon="1.00445">
        <ele>2535.1</ele>
        <time>2018-11-24T01:58:28Z</time>
      </trkpt>
      <trkpt lat="42.7247" lon="1.00444">
        <ele>2531.7</ele>
        <time>2018-11-24T01:58:32Z</time>
      </trkpt>
      <trkpt lat="42.72481" lon="1.00444">
        <ele>2527.9</ele>
        <time>2018-11-24T01:58:37Z</time>
      </trkpt>
      <trkpt lat="42.7249" lon="1.0044">
        <ele>2524</ele>
        <time>2018-11-24T01:58:40Z</time>
      </trkpt>
      <trkpt lat="42.72493" lon="1.00431">
        <ele>2519.2</ele>
        <time>2018-11-24T01:58:43Z</time>
      </trkpt>
      <trkpt lat="42.72503" lon="1.00433">
        <ele>2514.9</ele>
        <time>2018-11-24T01:58:47Z</time>
      </trkpt>
      <trkpt lat="42.72512" lon="1.00432">
        <ele>2512.1</ele>
        <time>2018-11-24T01:58:51Z</time>
      </trkpt>
      <trkpt lat="42.72523" lon="1.0043">
        <ele>2508.7</ele>
        <time>2018-11-24T01:58:55Z</time>
      </trkpt>
      <trkpt lat="42.72534" lon="1.00431">
        <ele>2505.3</ele>
        <time>2018-11-24T01:58:59Z</time>
      </trkpt>
      <trkpt lat="42.72544" lon="1.00434">
        <ele>2502.5</ele>
        <time>2018-11-24T01:59:04Z</time>
      </trkpt>
      <trkpt lat="42.72553" lon="1.00438">
        <ele>2499.5</ele>
        <time>2018-11-24T01:59:07Z</time>
      </trkpt>
      <trkpt lat="42.72562" lon="1.0044">
        <ele>2498.1</ele>
        <time>2018-11-24T01:59:11Z</time>
      </trkpt>
      <trkpt lat="42.72571" lon="1.00445">
        <ele>2497.1</ele>
        <time>2018-11-24T01:59:15Z</time>
      </trkpt>
      <trkpt lat="42.72579" lon="1.00452">
        <ele>2495.7</ele>
        <time>2018-11-24T01:59:19Z</time>
      </trkpt>
      <trkpt lat="42.72587" lon="1.00461">
        <ele>2495.3</ele>
        <time>2018-11-24T01:59:23Z</time>
      </trkpt>
      <trkpt lat="42.72597" lon="1.00467">
        <ele>2494.7</ele>
        <time>2018-11-24T01:59:27Z</time>
      </trkpt>
      <trkpt lat="42.72606" lon="1.0047">
        <ele>2495.3</ele>
        <time>2018-11-24T01:59:31Z</time>
      </trkpt>
      <trkpt lat="42.72616" lon="1.00473">
        <ele>2494.3</ele>
        <time>2018-11-24T01:59:35Z</time>
      </trkpt>
      <trkpt lat="42.72626" lon="1.00475">
        <ele>2493.8</ele>
        <time>2018-11-24T01:59:39Z</time>
      </trkpt>
      <trkpt lat="42.72635" lon="1.00483">
        <ele>2492.9</ele>
        <time>2018-11-24T01:59:43Z</time>
      </trkpt>
      <trkpt lat="42.72643" lon="1.00492">
        <ele>2492.3</ele>
        <time>2018-11-24T01:59:48Z</time>
      </trkpt>
      <trkpt lat="42.72652" lon="1.00499">
        <ele>2491.3</ele>
        <time>2018-11-24T01:59:52Z</time>
      </trkpt>
      <trkpt lat="42.7266" lon="1.00506">
        <ele>2490.9</ele>
        <time>2018-11-24T01:59:56Z</time>
      </trkpt>
      <trkpt lat="42.7267" lon="1.0051">
        <ele>2490.9</ele>
        <time>2018-11-24T02:00:00Z</time>
      </trkpt>
      <trkpt lat="42.72679" lon="1.00516">
        <ele>2492.3</ele>
        <time>2018-11-24T02:00:04Z</time>
      </trkpt>
      <trkpt lat="42.72689" lon="1.00522">
        <ele>2492.4</ele>
        <time>2018-11-24T02:00:08Z</time>
      </trkpt>
      <trkpt lat="42.727" lon="1.00528">
        <ele>2489.5</ele>
        <time>2018-11-24T02:00:13Z</time>
      </trkpt>
      <trkpt lat="42.72709" lon="1.00533">
        <ele>2488.5</ele>
        <time>2018-11-24T02:00:17Z</time>
      </trkpt>
      <trkpt lat="42.72719" lon="1.00536">
        <ele>2488.9</ele>
        <time>2018-11-24T02:00:21Z</time>
      </trkpt>
      <trkpt lat="42.72729" lon="1.00535">
        <ele>2486.6</ele>
        <time>2018-11-24T02:00:25Z</time>
      </trkpt>
      <trkpt lat="42.72738" lon="1.00536">
        <ele>2486.1</ele>
        <time>2018-11-24T02:00:29Z</time>
      </trkpt>
      <trkpt lat="42.72748" lon="1.00536">
        <ele>2483.8</ele>
        <time>2018-11-24T02:00:32Z</time>
      </trkpt>
      <trkpt lat="42.72757" lon="1.00536">
        <ele>2482.3</ele>
        <time>2018-11-24T02:00:36Z</time>
      </trkpt>
      <trkpt lat="42.72765" lon="1.00533">
        <ele>2479.8</ele>
        <time>2018-11-24T02:00:40Z</time>
      </trkpt>
      <trkpt lat="42.72774" lon="1.00532">
        <ele>2476.4</ele>
        <time>2018-11-24T02:00:43Z</time>
      </trkpt>
      <trkpt lat="42.72783" lon="1.00527">
        <ele>2473.6</ele>
        <time>2018-11-24T02:00:47Z</time>
      </trkpt>
      <trkpt lat="42.72791" lon="1.00522">
        <ele>2471.6</ele>
        <time>2018-11-24T02:00:51Z</time>
      </trkpt>
      <trkpt lat="42.728" lon="1.00517">
        <ele>2469.2</ele>
        <time>2018-11-24T02:00:55Z</time>
      </trkpt>
      <trkpt lat="42.72809" lon="1.00518">
        <ele>2466.8</ele>
        <time>2018-11-24T02:00:58Z</time>
      </trkpt>
      <trkpt lat="42.72818" lon="1.00513">
        <ele>2463</ele>
        <time>2018-11-24T02:01:02Z</time>
      </trkpt>
      <trkpt lat="42.72828" lon="1.00509">
        <ele>2458.8</ele>
        <time>2018-11-24T02:01:06Z</time>
      </trkpt>
      <trkpt lat="42.72836" lon="1.0051">
        <ele>2455.8</ele>
        <time>2018-11-24T02:01:09Z</time>
      </trkpt>
      <trkpt lat="42.72843" lon="1.00505">
        <ele>2452</ele>
        <time>2018-11-24T02:01:12Z</time>
      </trkpt>
      <trkpt lat="42.7285" lon="1.00497">
        <ele>2448.7</ele>
        <time>2018-11-24T02:01:16Z</time>
      </trkpt>
      <trkpt lat="42.7286" lon="1.00495">
        <ele>2443.8</ele>
        <time>2018-11-24T02:01:20Z</time>
      </trkpt>
      <trkpt lat="42.7287" lon="1.00497">
        <ele>2440</ele>
        <time>2018-11-24T02:01:24Z</time>
      </trkpt>
      <trkpt lat="42.7288" lon="1.00499">
        <ele>2435.1</ele>
        <time>2018-11-24T02:01:28Z</time>
      </trkpt>
      <trkpt lat="42.72891" lon="1.00499">
        <ele>2432.7</ele>
        <time>2018-11-24T02:01:32Z</time>
      </trkpt>
      <trkpt lat="42.72901" lon="1.00497">
        <ele>2429.3</ele>
        <time>2018-11-24T02:01:37Z</time>
      </trkpt>
      <trkpt lat="42.72912" lon="1.00494">
        <ele>2426.5</ele>
        <time>2018-11-24T02:01:41Z</time>
      </trkpt>
      <trkpt lat="42.7292" lon="1.00489">
        <ele>2425</ele>
        <time>2018-11-24T02:01:45Z</time>
      </trkpt>
      <trkpt lat="42.7293" lon="1.00487">
        <ele>2422.1</ele>
        <time>2018-11-24T02:01:49Z</time>
      </trkpt>
      <trkpt lat="42.72931" lon="1.00478">
        <ele>2418.9</ele>
        <time>2018-11-24T02:01:51Z</time>
      </trkpt>
      <trkpt lat="42.72936" lon="1.00469">
        <ele>2414.5</ele>
        <time>2018-11-24T02:01:55Z</time>
      </trkpt>
      <trkpt lat="42.7294" lon="1.0046">
        <ele>2410.7</ele>
        <time>2018-11-24T02:01:58Z</time>
      </trkpt>
      <trkpt lat="42.72948" lon="1.00461">
        <ele>2407.2</ele>
        <time>2018-11-24T02:02:01Z</time>
      </trkpt>
      <trkpt lat="42.72958" lon="1.00461">
        <ele>2404.9</ele>
        <time>2018-11-24T02:02:05Z</time>
      </trkpt>
      <trkpt lat="42.72968" lon="1.00462">
        <ele>2402.5</ele>
        <time>2018-11-24T02:02:09Z</time>
      </trkpt>
      <trkpt lat="42.72978" lon="1.00461">
        <ele>2400.5</ele>
        <time>2018-11-24T02:02:13Z</time>
      </trkpt>
      <trkpt lat="42.72988" lon="1.00458">
        <ele>2399.1</ele>
        <time>2018-11-24T02:02:17Z</time>
      </trkpt>
      <trkpt lat="42.72998" lon="1.00456">
        <ele>2398.1</ele>
        <time>2018-11-24T02:02:21Z</time>
      </trkpt>
      <trkpt lat="42.73008" lon="1.00452">
        <ele>2396.7</ele>
        <time>2018-11-24T02:02:25Z</time>
      </trkpt>
      <trkpt lat="42.73016" lon="1.00446">
        <ele>2396.7</ele>
        <time>2018-11-24T02:02:29Z</time>
      </trkpt>
      <trkpt lat="42.73024" lon="1.00442">
        <ele>2396.2</ele>
        <time>2018-11-24T02:02:33Z</time>
      </trkpt>
      <trkpt lat="42.73031" lon="1.00435">
        <ele>2394.3</ele>
        <time>2018-11-24T02:02:36Z</time>
      </trkpt>
      <trkpt lat="42.73039" lon="1.00429">
        <ele>2393.3</ele>
        <time>2018-11-24T02:02:40Z</time>
      </trkpt>
      <trkpt lat="42.73048" lon="1.00427">
        <ele>2393.3</ele>
        <time>2018-11-24T02:02:43Z</time>
      </trkpt>
      <trkpt lat="42.73056" lon="1.00424">
        <ele>2395.7</ele>
        <time>2018-11-24T02:02:47Z</time>
      </trkpt>
      <trkpt lat="42.73066" lon="1.0042">
        <ele>2396.2</ele>
        <time>2018-11-24T02:02:51Z</time>
      </trkpt>
      <trkpt lat="42.73075" lon="1.00419">
        <ele>2398.2</ele>
        <time>2018-11-24T02:02:54Z</time>
      </trkpt>
      <trkpt lat="42.73085" lon="1.00418">
        <ele>2400.6</ele>
        <time>2018-11-24T02:02:58Z</time>
      </trkpt>
      <trkpt lat="42.73095" lon="1.00415">
        <ele>2402.9</ele>
        <time>2018-11-24T02:03:03Z</time>
      </trkpt>
      <trkpt lat="42.73104" lon="1.00411">
        <ele>2404.8</ele>
        <time>2018-11-24T02:03:06Z</time>
      </trkpt>
      <trkpt lat="42.73113" lon="1.00408">
        <ele>2405.8</ele>
        <time>2018-11-24T02:03:10Z</time>
      </trkpt>
      <trkpt lat="42.73122" lon="1.00402">
        <ele>2408.8</ele>
        <time>2018-11-24T02:03:14Z</time>
      </trkpt>
      <trkpt lat="42.73131" lon="1.00398">
        <ele>2411.1</ele>
        <time>2018-11-24T02:03:18Z</time>
      </trkpt>
      <trkpt lat="42.7314" lon="1.00392">
        <ele>2412.5</ele>
        <time>2018-11-24T02:03:22Z</time>
      </trkpt>
      <trkpt lat="42.73147" lon="1.00384">
        <ele>2413</ele>
        <time>2018-11-24T02:03:25Z</time>
      </trkpt>
      <trkpt lat="42.73155" lon="1.00378">
        <ele>2413.6</ele>
        <time>2018-11-24T02:03:29Z</time>
      </trkpt>
      <trkpt lat="42.73163" lon="1.00371">
        <ele>2415</ele>
        <time>2018-11-24T02:03:33Z</time>
      </trkpt>
      <trkpt lat="42.7317" lon="1.00363">
        <ele>2417.4</ele>
        <time>2018-11-24T02:03:37Z</time>
      </trkpt>
      <trkpt lat="42.73178" lon="1.00355">
        <ele>2418.9</ele>
        <time>2018-11-24T02:03:41Z</time>
      </trkpt>
      <trkpt lat="42.73185" lon="1.00356">
        <ele>2421.2</ele>
        <time>2018-11-24T02:03:43Z</time>
      </trkpt>
      <trkpt lat="42.73194" lon="1.00351">
        <ele>2423.6</ele>
        <time>2018-11-24T02:03:47Z</time>
      </trkpt>
      <trkpt lat="42.73201" lon="1.00346">
        <ele>2426.5</ele>
        <time>2018-11-24T02:03:51Z</time>
      </trkpt>
      <trkpt lat="42.73212" lon="1.00344">
        <ele>2428.9</ele>
        <time>2018-11-24T02:03:55Z</time>
      </trkpt>
      <trkpt lat="42.73221" lon="1.00339">
        <ele>2432.3</ele>
        <time>2018-11-24T02:03:59Z</time>
      </trkpt>
      <trkpt lat="42.73229" lon="1.00335">
        <ele>2434.2</ele>
        <time>2018-11-24T02:04:02Z</time>
      </trkpt>
      <trkpt lat="42.73237" lon="1.00329">
        <ele>2437.5</ele>
        <time>2018-11-24T02:04:06Z</time>
      </trkpt>
      <trkpt lat="42.73244" lon="1.00323">
        <ele>2441.5</ele>
        <time>2018-11-24T02:04:09Z</time>
      </trkpt>
      <trkpt lat="42.73249" lon="1.00315">
        <ele>2442.8</ele>
        <time>2018-11-24T02:04:12Z</time>
      </trkpt>
      <trkpt lat="42.73257" lon="1.00309">
        <ele>2445.2</ele>
        <time>2018-11-24T02:04:16Z</time>
      </trkpt>
      <trkpt lat="42.73263" lon="1.00301">
        <ele>2448.2</ele>
        <time>2018-11-24T02:04:19Z</time>
      </trkpt>
      <trkpt lat="42.73271" lon="1.00294">
        <ele>2451.1</ele>
        <time>2018-11-24T02:04:23Z</time>
      </trkpt>
      <trkpt lat="42.73279" lon="1.00288">
        <ele>2452.9</ele>
        <time>2018-11-24T02:04:27Z</time>
      </trkpt>
      <trkpt lat="42.73288" lon="1.00283">
        <ele>2454.8</ele>
        <time>2018-11-24T02:04:31Z</time>
      </trkpt>
      <trkpt lat="42.73296" lon="1.00279">
        <ele>2457.7</ele>
        <time>2018-11-24T02:04:34Z</time>
      </trkpt>
      <trkpt lat="42.73305" lon="1.00272">
        <ele>2459.7</ele>
        <time>2018-11-24T02:04:38Z</time>
      </trkpt>
      <trkpt lat="42.73314" lon="1.00267">
        <ele>2461.2</ele>
        <time>2018-11-24T02:04:42Z</time>
      </trkpt>
      <trkpt lat="42.73323" lon="1.00265">
        <ele>2462.6</ele>
        <time>2018-11-24T02:04:46Z</time>
      </trkpt>
      <trkpt lat="42.73333" lon="1.00261">
        <ele>2463.5</ele>
        <time>2018-11-24T02:04:50Z</time>
      </trkpt>
      <trkpt lat="42.73343" lon="1.00257">
        <ele>2463.6</ele>
        <time>2018-11-24T02:04:54Z</time>
      </trkpt>
      <trkpt lat="42.73352" lon="1.00255">
        <ele>2464.5</ele>
        <time>2018-11-24T02:04:58Z</time>
      </trkpt>
      <trkpt lat="42.73359" lon="1.00262">
        <ele>2465.9</ele>
        <time>2018-11-24T02:05:01Z</time>
      </trkpt>
      <trkpt lat="42.73368" lon="1.00264">
        <ele>2467.8</ele>
        <time>2018-11-24T02:05:05Z</time>
      </trkpt>
      <trkpt lat="42.73378" lon="1.00269">
        <ele>2470.3</ele>
        <time>2018-11-24T02:05:09Z</time>
      </trkpt>
      <trkpt lat="42.73388" lon="1.00266">
        <ele>2472.2</ele>
        <time>2018-11-24T02:05:13Z</time>
      </trkpt>
      <trkpt lat="42.73396" lon="1.00261">
        <ele>2473.1</ele>
        <time>2018-11-24T02:05:17Z</time>
      </trkpt>
      <trkpt lat="42.73403" lon="1.00256">
        <ele>2472.1</ele>
        <time>2018-11-24T02:05:20Z</time>
      </trkpt>
      <trkpt lat="42.73413" lon="1.00257">
        <ele>2471.7</ele>
        <time>2018-11-24T02:05:24Z</time>
      </trkpt>
      <trkpt lat="42.73422" lon="1.00259">
        <ele>2473.7</ele>
        <time>2018-11-24T02:05:28Z</time>
      </trkpt>
      <trkpt lat="42.73432" lon="1.00257">
        <ele>2475.1</ele>
        <time>2018-11-24T02:05:32Z</time>
      </trkpt>
      <trkpt lat="42.73442" lon="1.00254">
        <ele>2473.2</ele>
        <time>2018-11-24T02:05:36Z</time>
      </trkpt>
      <trkpt lat="42.73453" lon="1.0025">
        <ele>2472.7</ele>
        <time>2018-11-24T02:05:40Z</time>
      </trkpt>
      <trkpt lat="42.73462" lon="1.00245">
        <ele>2472.6</ele>
        <time>2018-11-24T02:05:44Z</time>
      </trkpt>
      <trkpt lat="42.73471" lon="1.00238">
        <ele>2472.1</ele>
        <time>2018-11-24T02:05:48Z</time>
      </trkpt>
      <trkpt lat="42.73479" lon="1.00231">
        <ele>2471.7</ele>
        <time>2018-11-24T02:05:52Z</time>
      </trkpt>
      <trkpt lat="42.73486" lon="1.00223">
        <ele>2469.7</ele>
        <time>2018-11-24T02:05:56Z</time>
      </trkpt>
      <trkpt lat="42.73495" lon="1.00217">
        <ele>2468.8</ele>
        <time>2018-11-24T02:06:00Z</time>
      </trkpt>
      <trkpt lat="42.73505" lon="1.00209">
        <ele>2470.2</ele>
        <time>2018-11-24T02:06:04Z</time>
      </trkpt>
      <trkpt lat="42.73513" lon="1.00202">
        <ele>2471.6</ele>
        <time>2018-11-24T02:06:08Z</time>
      </trkpt>
      <trkpt lat="42.73522" lon="1.00195">
        <ele>2472.2</ele>
        <time>2018-11-24T02:06:12Z</time>
      </trkpt>
      <trkpt lat="42.7353" lon="1.00187">
        <ele>2472.7</ele>
        <time>2018-11-24T02:06:16Z</time>
      </trkpt>
      <trkpt lat="42.73537" lon="1.00178">
        <ele>2473.1</ele>
        <time>2018-11-24T02:06:20Z</time>
      </trkpt>
      <trkpt lat="42.73544" lon="1.00169">
        <ele>2473.2</ele>
        <time>2018-11-24T02:06:24Z</time>
      </trkpt>
      <trkpt lat="42.73552" lon="1.00162">
        <ele>2473.6</ele>
        <time>2018-11-24T02:06:28Z</time>
      </trkpt>
      <trkpt lat="42.73558" lon="1.00153">
        <ele>2474</ele>
        <time>2018-11-24T02:06:31Z</time>
      </trkpt>
      <trkpt lat="42.73567" lon="1.00145">
        <ele>2474.1</ele>
        <time>2018-11-24T02:06:36Z</time>
      </trkpt>
      <trkpt lat="42.73574" lon="1.00136">
        <ele>2474</ele>
        <time>2018-11-24T02:06:40Z</time>
      </trkpt>
      <trkpt lat="42.73583" lon="1.00127">
        <ele>2474</ele>
        <time>2018-11-24T02:06:44Z</time>
      </trkpt>
      <trkpt lat="42.7359" lon="1.00119">
        <ele>2474</ele>
        <time>2018-11-24T02:06:48Z</time>
      </trkpt>
      <trkpt lat="42.73596" lon="1.0011">
        <ele>2474</ele>
        <time>2018-11-24T02:06:51Z</time>
      </trkpt>
      <trkpt lat="42.73602" lon="1.001">
        <ele>2474</ele>
        <time>2018-11-24T02:06:55Z</time>
      </trkpt>
      <trkpt lat="42.73607" lon="1.0009">
        <ele>2474</ele>
        <time>2018-11-24T02:06:59Z</time>
      </trkpt>
      <trkpt lat="42.73612" lon="1.00079">
        <ele>2474</ele>
        <time>2018-11-24T02:07:02Z</time>
      </trkpt>
      <trkpt lat="42.73617" lon="1.00068">
        <ele>2474.6</ele>
        <time>2018-11-24T02:07:06Z</time>
      </trkpt>
      <trkpt lat="42.73622" lon="1.00057">
        <ele>2474.5</ele>
        <time>2018-11-24T02:07:10Z</time>
      </trkpt>
      <trkpt lat="42.73627" lon="1.00046">
        <ele>2474.6</ele>
        <time>2018-11-24T02:07:14Z</time>
      </trkpt>
      <trkpt lat="42.73631" lon="1.00035">
        <ele>2475.1</ele>
        <time>2018-11-24T02:07:17Z</time>
      </trkpt>
      <trkpt lat="42.73637" lon="1.00024">
        <ele>2475</ele>
        <time>2018-11-24T02:07:21Z</time>
      </trkpt>
      <trkpt lat="42.73642" lon="1.00012">
        <ele>2475.5</ele>
        <time>2018-11-24T02:07:26Z</time>
      </trkpt>
      <trkpt lat="42.73647" lon="1.00001">
        <ele>2475.6</ele>
        <time>2018-11-24T02:07:29Z</time>
      </trkpt>
      <trkpt lat="42.73651" lon="0.99989">
        <ele>2475.5</ele>
        <time>2018-11-24T02:07:33Z</time>
      </trkpt>
      <trkpt lat="42.73655" lon="0.99977">
        <ele>2475.5</ele>
        <time>2018-11-24T02:07:37Z</time>
      </trkpt>
      <trkpt lat="42.73659" lon="0.99964">
        <ele>2476</ele>
        <time>2018-11-24T02:07:41Z</time>
      </trkpt>
      <trkpt lat="42.73663" lon="0.99949">
        <ele>2476</ele>
        <time>2018-11-24T02:07:46Z</time>
      </trkpt>
      <trkpt lat="42.73667" lon="0.99937">
        <ele>2476.4</ele>
        <time>2018-11-24T02:07:50Z</time>
      </trkpt>
      <trkpt lat="42.73671" lon="0.99924">
        <ele>2476.9</ele>
        <time>2018-11-24T02:07:54Z</time>
      </trkpt>
      <trkpt lat="42.73675" lon="0.99912">
        <ele>2477.5</ele>
        <time>2018-11-24T02:07:58Z</time>
      </trkpt>
      <trkpt lat="42.7368" lon="0.99899">
        <ele>2477.5</ele>
        <time>2018-11-24T02:08:02Z</time>
      </trkpt>
      <trkpt lat="42.73684" lon="0.99887">
        <ele>2478</ele>
        <time>2018-11-24T02:08:06Z</time>
      </trkpt>
      <trkpt lat="42.73689" lon="0.99875">
        <ele>2477.9</ele>
        <time>2018-11-24T02:08:10Z</time>
      </trkpt>
      <trkpt lat="42.73694" lon="0.99863">
        <ele>2478.4</ele>
        <time>2018-11-24T02:08:14Z</time>
      </trkpt>
      <trkpt lat="42.73698" lon="0.99851">
        <ele>2479</ele>
        <time>2018-11-24T02:08:18Z</time>
      </trkpt>
      <trkpt lat="42.73703" lon="0.9984">
        <ele>2479</ele>
        <time>2018-11-24T02:08:22Z</time>
      </trkpt>
      <trkpt lat="42.73708" lon="0.99828">
        <ele>2479.3</ele>
        <time>2018-11-24T02:08:26Z</time>
      </trkpt>
      <trkpt lat="42.73714" lon="0.99818">
        <ele>2479.3</ele>
        <time>2018-11-24T02:08:30Z</time>
      </trkpt>
      <trkpt lat="42.73719" lon="0.99807">
        <ele>2479.3</ele>
        <time>2018-11-24T02:08:33Z</time>
      </trkpt>
      <trkpt lat="42.73725" lon="0.99794">
        <ele>2479.3</ele>
        <time>2018-11-24T02:08:38Z</time>
      </trkpt>
      <trkpt lat="42.7373" lon="0.99781">
        <ele>2479.3</ele>
        <time>2018-11-24T02:08:42Z</time>
      </trkpt>
      <trkpt lat="42.73734" lon="0.99768">
        <ele>2479.4</ele>
        <time>2018-11-24T02:08:46Z</time>
      </trkpt>
      <trkpt lat="42.73739" lon="0.99756">
        <ele>2479.4</ele>
        <time>2018-11-24T02:08:50Z</time>
      </trkpt>
      <trkpt lat="42.73744" lon="0.99744">
        <ele>2479.8</ele>
        <time>2018-11-24T02:08:54Z</time>
      </trkpt>
      <trkpt lat="42.7375" lon="0.99731">
        <ele>2479.9</ele>
        <time>2018-11-24T02:08:59Z</time>
      </trkpt>
      <trkpt lat="42.73754" lon="0.99718">
        <ele>2480.9</ele>
        <time>2018-11-24T02:09:03Z</time>
      </trkpt>
      <trkpt lat="42.73759" lon="0.99706">
        <ele>2481.3</ele>
        <time>2018-11-24T02:09:07Z</time>
      </trkpt>
      <trkpt lat="42.73765" lon="0.99695">
        <ele>2481.8</ele>
        <time>2018-11-24T02:09:11Z</time>
      </trkpt>
      <trkpt lat="42.73771" lon="0.99684">
        <ele>2482.7</ele>
        <time>2018-11-24T02:09:15Z</time>
      </trkpt>
      <trkpt lat="42.73779" lon="0.99675">
        <ele>2483.2</ele>
        <time>2018-11-24T02:09:19Z</time>
      </trkpt>
      <trkpt lat="42.73786" lon="0.99667">
        <ele>2484.7</ele>
        <time>2018-11-24T02:09:23Z</time>
      </trkpt>
      <trkpt lat="42.73794" lon="0.99657">
        <ele>2486.2</ele>
        <time>2018-11-24T02:09:27Z</time>
      </trkpt>
      <trkpt lat="42.73802" lon="0.99649">
        <ele>2488.5</ele>
        <time>2018-11-24T02:09:31Z</time>
      </trkpt>
      <trkpt lat="42.73811" lon="0.99642">
        <ele>2491</ele>
        <time>2018-11-24T02:09:35Z</time>
      </trkpt>
      <trkpt lat="42.7382" lon="0.99637">
        <ele>2492.9</ele>
        <time>2018-11-24T02:09:39Z</time>
      </trkpt>
      <trkpt lat="42.73825" lon="0.99641">
        <ele>2492.9</ele>
        <time>2018-11-24T02:09:42Z</time>
      </trkpt>
      <trkpt lat="42.73828" lon="0.99631">
        <ele>2497.7</ele>
        <time>2018-11-24T02:09:45Z</time>
      </trkpt>
      <trkpt lat="42.73827" lon="0.99621">
        <ele>2501</ele>
        <time>2018-11-24T02:09:48Z</time>
      </trkpt>
      <trkpt lat="42.73834" lon="0.99614">
        <ele>2504.9</ele>
        <time>2018-11-24T02:09:51Z</time>
      </trkpt>
      <trkpt lat="42.73842" lon="0.99611">
        <ele>2507.8</ele>
        <time>2018-11-24T02:09:55Z</time>
      </trkpt>
      <trkpt lat="42.73853" lon="0.99611">
        <ele>2504.8</ele>
        <time>2018-11-24T02:09:59Z</time>
      </trkpt>
      <trkpt lat="42.7386" lon="0.99619">
        <ele>2503.4</ele>
        <time>2018-11-24T02:10:03Z</time>
      </trkpt>
      <trkpt lat="42.73869" lon="0.99623">
        <ele>2501.1</ele>
        <time>2018-11-24T02:10:07Z</time>
      </trkpt>
      <trkpt lat="42.73878" lon="0.99628">
        <ele>2500.6</ele>
        <time>2018-11-24T02:10:11Z</time>
      </trkpt>
      <trkpt lat="42.73887" lon="0.99631">
        <ele>2499.1</ele>
        <time>2018-11-24T02:10:14Z</time>
      </trkpt>
      <trkpt lat="42.73895" lon="0.99631">
        <ele>2495.7</ele>
        <time>2018-11-24T02:10:17Z</time>
      </trkpt>
      <trkpt lat="42.73905" lon="0.99634">
        <ele>2492.3</ele>
        <time>2018-11-24T02:10:21Z</time>
      </trkpt>
      <trkpt lat="42.73913" lon="0.99641">
        <ele>2491</ele>
        <time>2018-11-24T02:10:25Z</time>
      </trkpt>
      <trkpt lat="42.73922" lon="0.99645">
        <ele>2489.9</ele>
        <time>2018-11-24T02:10:29Z</time>
      </trkpt>
      <trkpt lat="42.73931" lon="0.99651">
        <ele>2489.5</ele>
        <time>2018-11-24T02:10:33Z</time>
      </trkpt>
      <trkpt lat="42.73937" lon="0.9966">
        <ele>2489.5</ele>
        <time>2018-11-24T02:10:37Z</time>
      </trkpt>
      <trkpt lat="42.73945" lon="0.99669">
        <ele>2487.5</ele>
        <time>2018-11-24T02:10:41Z</time>
      </trkpt>
      <trkpt lat="42.73953" lon="0.99678">
        <ele>2487</ele>
        <time>2018-11-24T02:10:45Z</time>
      </trkpt>
      <trkpt lat="42.73962" lon="0.99686">
        <ele>2487</ele>
        <time>2018-11-24T02:10:49Z</time>
      </trkpt>
      <trkpt lat="42.73972" lon="0.99691">
        <ele>2487.1</ele>
        <time>2018-11-24T02:10:53Z</time>
      </trkpt>
      <trkpt lat="42.73982" lon="0.99693">
        <ele>2488.5</ele>
        <time>2018-11-24T02:10:57Z</time>
      </trkpt>
      <trkpt lat="42.7399" lon="0.99699">
        <ele>2489.5</ele>
        <time>2018-11-24T02:11:01Z</time>
      </trkpt>
      <trkpt lat="42.73996" lon="0.99708">
        <ele>2492.8</ele>
        <time>2018-11-24T02:11:05Z</time>
      </trkpt>
      <trkpt lat="42.74003" lon="0.99717">
        <ele>2495.8</ele>
        <time>2018-11-24T02:11:09Z</time>
      </trkpt>
      <trkpt lat="42.74012" lon="0.99723">
        <ele>2497.1</ele>
        <time>2018-11-24T02:11:13Z</time>
      </trkpt>
      <trkpt lat="42.7402" lon="0.99729">
        <ele>2497.2</ele>
        <time>2018-11-24T02:11:16Z</time>
      </trkpt>
      <trkpt lat="42.74025" lon="0.9974">
        <ele>2497.7</ele>
        <time>2018-11-24T02:11:20Z</time>
      </trkpt>
      <trkpt lat="42.74032" lon="0.99751">
        <ele>2496.7</ele>
        <time>2018-11-24T02:11:24Z</time>
      </trkpt>
      <trkpt lat="42.74038" lon="0.99762">
        <ele>2496.7</ele>
        <time>2018-11-24T02:11:28Z</time>
      </trkpt>
      <trkpt lat="42.74045" lon="0.99773">
        <ele>2496.6</ele>
        <time>2018-11-24T02:11:33Z</time>
      </trkpt>
      <trkpt lat="42.74051" lon="0.99784">
        <ele>2498.6</ele>
        <time>2018-11-24T02:11:37Z</time>
      </trkpt>
      <trkpt lat="42.74059" lon="0.99793">
        <ele>2496.7</ele>
        <time>2018-11-24T02:11:41Z</time>
      </trkpt>
      <trkpt lat="42.74064" lon="0.99804">
        <ele>2495.2</ele>
        <time>2018-11-24T02:11:45Z</time>
      </trkpt>
      <trkpt lat="42.74071" lon="0.99813">
        <ele>2493.3</ele>
        <time>2018-11-24T02:11:49Z</time>
      </trkpt>
      <trkpt lat="42.74076" lon="0.99821">
        <ele>2489.4</ele>
        <time>2018-11-24T02:11:52Z</time>
      </trkpt>
      <trkpt lat="42.74082" lon="0.99831">
        <ele>2487.6</ele>
        <time>2018-11-24T02:11:56Z</time>
      </trkpt>
      <trkpt lat="42.74088" lon="0.99843">
        <ele>2483.7</ele>
        <time>2018-11-24T02:12:00Z</time>
      </trkpt>
      <trkpt lat="42.74092" lon="0.99853">
        <ele>2482.2</ele>
        <time>2018-11-24T02:12:03Z</time>
      </trkpt>
      <trkpt lat="42.74102" lon="0.9986">
        <ele>2478.5</ele>
        <time>2018-11-24T02:12:08Z</time>
      </trkpt>
      <trkpt lat="42.74107" lon="0.99869">
        <ele>2474.6</ele>
        <time>2018-11-24T02:12:11Z</time>
      </trkpt>
      <trkpt lat="42.7411" lon="0.99881">
        <ele>2469.3</ele>
        <time>2018-11-24T02:12:15Z</time>
      </trkpt>
      <trkpt lat="42.74107" lon="0.99891">
        <ele>2465.9</ele>
        <time>2018-11-24T02:12:18Z</time>
      </trkpt>
      <trkpt lat="42.74105" lon="0.99901">
        <ele>2460.6</ele>
        <time>2018-11-24T02:12:21Z</time>
      </trkpt>
      <trkpt lat="42.74103" lon="0.99911">
        <ele>2457.3</ele>
        <time>2018-11-24T02:12:24Z</time>
      </trkpt>
      <trkpt lat="42.74103" lon="0.99921">
        <ele>2452.5</ele>
        <time>2018-11-24T02:12:27Z</time>
      </trkpt>
      <trkpt lat="42.74107" lon="0.99932">
        <ele>2449.1</ele>
        <time>2018-11-24T02:12:31Z</time>
      </trkpt>
      <trkpt lat="42.74106" lon="0.99943">
        <ele>2443.9</ele>
        <time>2018-11-24T02:12:34Z</time>
      </trkpt>
      <trkpt lat="42.7411" lon="0.99955">
        <ele>2439.5</ele>
        <time>2018-11-24T02:12:38Z</time>
      </trkpt>
      <trkpt lat="42.74117" lon="0.99963">
        <ele>2436.2</ele>
        <time>2018-11-24T02:12:41Z</time>
      </trkpt>
      <trkpt lat="42.74122" lon="0.99974">
        <ele>2432.8</ele>
        <time>2018-11-24T02:12:45Z</time>
      </trkpt>
      <trkpt lat="42.74126" lon="0.99985">
        <ele>2429</ele>
        <time>2018-11-24T02:12:49Z</time>
      </trkpt>
      <trkpt lat="42.74129" lon="0.99996">
        <ele>2425.1</ele>
        <time>2018-11-24T02:12:52Z</time>
      </trkpt>
      <trkpt lat="42.74134" lon="1.00009">
        <ele>2423.2</ele>
        <time>2018-11-24T02:12:57Z</time>
      </trkpt>
      <trkpt lat="42.74132" lon="1.00019">
        <ele>2421.2</ele>
        <time>2018-11-24T02:13:00Z</time>
      </trkpt>
      <trkpt lat="42.74127" lon="1.00028">
        <ele>2418.3</ele>
        <time>2018-11-24T02:13:03Z</time>
      </trkpt>
      <trkpt lat="42.74129" lon="1.00041">
        <ele>2414.9</ele>
        <time>2018-11-24T02:13:07Z</time>
      </trkpt>
      <trkpt lat="42.74135" lon="1.00052">
        <ele>2412.1</ele>
        <time>2018-11-24T02:13:11Z</time>
      </trkpt>
      <trkpt lat="42.74137" lon="1.00065">
        <ele>2409.2</ele>
        <time>2018-11-24T02:13:15Z</time>
      </trkpt>
      <trkpt lat="42.74141" lon="1.00076">
        <ele>2405.8</ele>
        <time>2018-11-24T02:13:18Z</time>
      </trkpt>
      <trkpt lat="42.74141" lon="1.00088">
        <ele>2401.1</ele>
        <time>2018-11-24T02:13:22Z</time>
      </trkpt>
      <trkpt lat="42.74145" lon="1.00099">
        <ele>2398.6</ele>
        <time>2018-11-24T02:13:25Z</time>
      </trkpt>
      <trkpt lat="42.74146" lon="1.0011">
        <ele>2394.3</ele>
        <time>2018-11-24T02:13:29Z</time>
      </trkpt>
      <trkpt lat="42.74148" lon="1.00123">
        <ele>2392</ele>
        <time>2018-11-24T02:13:33Z</time>
      </trkpt>
      <trkpt lat="42.74152" lon="1.00137">
        <ele>2388.5</ele>
        <time>2018-11-24T02:13:37Z</time>
      </trkpt>
      <trkpt lat="42.74153" lon="1.00151">
        <ele>2384.6</ele>
        <time>2018-11-24T02:13:41Z</time>
      </trkpt>
      <trkpt lat="42.74153" lon="1.00166">
        <ele>2380.3</ele>
        <time>2018-11-24T02:13:46Z</time>
      </trkpt>
      <trkpt lat="42.74154" lon="1.00179">
        <ele>2377.4</ele>
        <time>2018-11-24T02:13:50Z</time>
      </trkpt>
      <trkpt lat="42.74156" lon="1.00192">
        <ele>2375.1</ele>
        <time>2018-11-24T02:13:53Z</time>
      </trkpt>
      <trkpt lat="42.74158" lon="1.00205">
        <ele>2371.7</ele>
        <time>2018-11-24T02:13:57Z</time>
      </trkpt>
      <trkpt lat="42.74161" lon="1.00217">
        <ele>2369.4</ele>
        <time>2018-11-24T02:14:01Z</time>
      </trkpt>
      <trkpt lat="42.74163" lon="1.0023">
        <ele>2366.4</ele>
        <time>2018-11-24T02:14:05Z</time>
      </trkpt>
      <trkpt lat="42.74165" lon="1.00242">
        <ele>2363.6</ele>
        <time>2018-11-24T02:14:09Z</time>
      </trkpt>
      <trkpt lat="42.74168" lon="1.00254">
        <ele>2362.2</ele>
        <time>2018-11-24T02:14:12Z</time>
      </trkpt>
      <trkpt lat="42.74167" lon="1.00269">
        <ele>2359.3</ele>
        <time>2018-11-24T02:14:17Z</time>
      </trkpt>
      <trkpt lat="42.74169" lon="1.00284">
        <ele>2356.8</ele>
        <time>2018-11-24T02:14:21Z</time>
      </trkpt>
      <trkpt lat="42.7417" lon="1.00297">
        <ele>2353.4</ele>
        <time>2018-11-24T02:14:25Z</time>
      </trkpt>
      <trkpt lat="42.74168" lon="1.00309">
        <ele>2349.6</ele>
        <time>2018-11-24T02:14:29Z</time>
      </trkpt>
      <trkpt lat="42.74168" lon="1.00321">
        <ele>2344.7</ele>
        <time>2018-11-24T02:14:32Z</time>
      </trkpt>
      <trkpt lat="42.7417" lon="1.00334">
        <ele>2342.8</ele>
        <time>2018-11-24T02:14:36Z</time>
      </trkpt>
      <trkpt lat="42.7417" lon="1.00348">
        <ele>2338.1</ele>
        <time>2018-11-24T02:14:40Z</time>
      </trkpt>
      <trkpt lat="42.7417" lon="1.00361">
        <ele>2333.7</ele>
        <time>2018-11-24T02:14:44Z</time>
      </trkpt>
      <trkpt lat="42.74165" lon="1.0037">
        <ele>2328.4</ele>
        <time>2018-11-24T02:14:47Z</time>
      </trkpt>
      <trkpt lat="42.7416" lon="1.00382">
        <ele>2325.6</ele>
        <time>2018-11-24T02:14:51Z</time>
      </trkpt>
      <trkpt lat="42.7415" lon="1.00386">
        <ele>2322.2</ele>
        <time>2018-11-24T02:14:56Z</time>
      </trkpt>
      <trkpt lat="42.74142" lon="1.00393">
        <ele>2319.4</ele>
        <time>2018-11-24T02:14:59Z</time>
      </trkpt>
      <trkpt lat="42.74135" lon="1.00399">
        <ele>2315.5</ele>
        <time>2018-11-24T02:15:02Z</time>
      </trkpt>
      <trkpt lat="42.74125" lon="1.004">
        <ele>2313.6</ele>
        <time>2018-11-24T02:15:07Z</time>
      </trkpt>
      <trkpt lat="42.74113" lon="1.00398">
        <ele>2311.7</ele>
        <time>2018-11-24T02:15:11Z</time>
      </trkpt>
      <trkpt lat="42.74104" lon="1.00396">
        <ele>2310.7</ele>
        <time>2018-11-24T02:15:15Z</time>
      </trkpt>
      <trkpt lat="42.74094" lon="1.00396">
        <ele>2308.7</ele>
        <time>2018-11-24T02:15:19Z</time>
      </trkpt>
      <trkpt lat="42.74084" lon="1.00394">
        <ele>2306.3</ele>
        <time>2018-11-24T02:15:23Z</time>
      </trkpt>
      <trkpt lat="42.74074" lon="1.00393">
        <ele>2304</ele>
        <time>2018-11-24T02:15:27Z</time>
      </trkpt>
      <trkpt lat="42.74065" lon="1.00391">
        <ele>2302.1</ele>
        <time>2018-11-24T02:15:31Z</time>
      </trkpt>
      <trkpt lat="42.74057" lon="1.00385">
        <ele>2300.1</ele>
        <time>2018-11-24T02:15:35Z</time>
      </trkpt>
      <trkpt lat="42.74048" lon="1.00389">
        <ele>2300</ele>
        <time>2018-11-24T02:15:38Z</time>
      </trkpt>
      <trkpt lat="42.7404" lon="1.00393">
        <ele>2300.1</ele>
        <time>2018-11-24T02:15:42Z</time>
      </trkpt>
      <trkpt lat="42.74035" lon="1.00404">
        <ele>2300.1</ele>
        <time>2018-11-24T02:15:45Z</time>
      </trkpt>
      <trkpt lat="42.74028" lon="1.00414">
        <ele>2300</ele>
        <time>2018-11-24T02:15:49Z</time>
      </trkpt>
      <trkpt lat="42.74018" lon="1.00419">
        <ele>2300.1</ele>
        <time>2018-11-24T02:15:54Z</time>
      </trkpt>
      <trkpt lat="42.7401" lon="1.00426">
        <ele>2300</ele>
        <time>2018-11-24T02:15:58Z</time>
      </trkpt>
      <trkpt lat="42.74002" lon="1.0043">
        <ele>2299.6</ele>
        <time>2018-11-24T02:16:01Z</time>
      </trkpt>
      <trkpt lat="42.73997" lon="1.00441">
        <ele>2297.2</ele>
        <time>2018-11-24T02:16:05Z</time>
      </trkpt>
      <trkpt lat="42.73996" lon="1.00454">
        <ele>2295.2</ele>
        <time>2018-11-24T02:16:09Z</time>
      </trkpt>
      <trkpt lat="42.73991" lon="1.00464">
        <ele>2291.9</ele>
        <time>2018-11-24T02:16:12Z</time>
      </trkpt>
      <trkpt lat="42.73986" lon="1.00476">
        <ele>2289.1</ele>
        <time>2018-11-24T02:16:16Z</time>
      </trkpt>
      <trkpt lat="42.73983" lon="1.00488">
        <ele>2286.7</ele>
        <time>2018-11-24T02:16:20Z</time>
      </trkpt>
      <trkpt lat="42.73981" lon="1.00501">
        <ele>2283.8</ele>
        <time>2018-11-24T02:16:24Z</time>
      </trkpt>
      <trkpt lat="42.73977" lon="1.00511">
        <ele>2280</ele>
        <time>2018-11-24T02:16:27Z</time>
      </trkpt>
      <trkpt lat="42.73976" lon="1.00524">
        <ele>2277.1</ele>
        <time>2018-11-24T02:16:31Z</time>
      </trkpt>
      <trkpt lat="42.73975" lon="1.00536">
        <ele>2274.7</ele>
        <time>2018-11-24T02:16:34Z</time>
      </trkpt>
      <trkpt lat="42.73977" lon="1.00551">
        <ele>2273.2</ele>
        <time>2018-11-24T02:16:39Z</time>
      </trkpt>
      <trkpt lat="42.73976" lon="1.00566">
        <ele>2270.2</ele>
        <time>2018-11-24T02:16:43Z</time>
      </trkpt>
      <trkpt lat="42.73972" lon="1.00578">
        <ele>2267</ele>
        <time>2018-11-24T02:16:47Z</time>
      </trkpt>
      <trkpt lat="42.73966" lon="1.00589">
        <ele>2263</ele>
        <time>2018-11-24T02:16:51Z</time>
      </trkpt>
      <trkpt lat="42.73959" lon="1.00594">
        <ele>2256.3</ele>
        <time>2018-11-24T02:16:54Z</time>
      </trkpt>
      <trkpt lat="42.7395" lon="1.0061">
        <ele>2253.4</ele>
        <time>2018-11-24T02:17:00Z</time>
      </trkpt>
      <trkpt lat="42.73946" lon="1.00625">
        <ele>2253.9</ele>
        <time>2018-11-24T02:17:05Z</time>
      </trkpt>
      <trkpt lat="42.73944" lon="1.0064">
        <ele>2253.5</ele>
        <time>2018-11-24T02:17:10Z</time>
      </trkpt>
      <trkpt lat="42.73942" lon="1.00656">
        <ele>2252.1</ele>
        <time>2018-11-24T02:17:14Z</time>
      </trkpt>
      <trkpt lat="42.73942" lon="1.00671">
        <ele>2252</ele>
        <time>2018-11-24T02:17:19Z</time>
      </trkpt>
      <trkpt lat="42.73938" lon="1.00683">
        <ele>2251.1</ele>
        <time>2018-11-24T02:17:23Z</time>
      </trkpt>
      <trkpt lat="42.73938" lon="1.00698">
        <ele>2248.1</ele>
        <time>2018-11-24T02:17:27Z</time>
      </trkpt>
      <trkpt lat="42.73938" lon="1.0071">
        <ele>2246.7</ele>
        <time>2018-11-24T02:17:31Z</time>
      </trkpt>
      <trkpt lat="42.73937" lon="1.00724">
        <ele>2243.8</ele>
        <time>2018-11-24T02:17:35Z</time>
      </trkpt>
      <trkpt lat="42.73931" lon="1.00735">
        <ele>2242.8</ele>
        <time>2018-11-24T02:17:39Z</time>
      </trkpt>
      <trkpt lat="42.73933" lon="1.00749">
        <ele>2242.8</ele>
        <time>2018-11-24T02:17:43Z</time>
      </trkpt>
      <trkpt lat="42.73939" lon="1.00761">
        <ele>2242.8</ele>
        <time>2018-11-24T02:17:47Z</time>
      </trkpt>
      <trkpt lat="42.73946" lon="1.00771">
        <ele>2242</ele>
        <time>2018-11-24T02:17:51Z</time>
      </trkpt>
      <trkpt lat="42.73954" lon="1.00778">
        <ele>2240.1</ele>
        <time>2018-11-24T02:17:55Z</time>
      </trkpt>
      <trkpt lat="42.73961" lon="1.00789">
        <ele>2238.1</ele>
        <time>2018-11-24T02:17:59Z</time>
      </trkpt>
      <trkpt lat="42.73968" lon="1.00799">
        <ele>2236.7</ele>
        <time>2018-11-24T02:18:03Z</time>
      </trkpt>
      <trkpt lat="42.73975" lon="1.00807">
        <ele>2234.3</ele>
        <time>2018-11-24T02:18:07Z</time>
      </trkpt>
      <trkpt lat="42.73978" lon="1.00819">
        <ele>2233.2</ele>
        <time>2018-11-24T02:18:11Z</time>
      </trkpt>
      <trkpt lat="42.73982" lon="1.00833">
        <ele>2230.8</ele>
        <time>2018-11-24T02:18:15Z</time>
      </trkpt>
      <trkpt lat="42.73985" lon="1.00845">
        <ele>2229.4</ele>
        <time>2018-11-24T02:18:19Z</time>
      </trkpt>
      <trkpt lat="42.73991" lon="1.00856">
        <ele>2229.5</ele>
        <time>2018-11-24T02:18:23Z</time>
      </trkpt>
      <trkpt lat="42.73995" lon="1.00869">
        <ele>2229.5</ele>
        <time>2018-11-24T02:18:27Z</time>
      </trkpt>
      <trkpt lat="42.73998" lon="1.00881">
        <ele>2229.4</ele>
        <time>2018-11-24T02:18:31Z</time>
      </trkpt>
      <trkpt lat="42.73998" lon="1.00894">
        <ele>2230.4</ele>
        <time>2018-11-24T02:18:35Z</time>
      </trkpt>
      <trkpt lat="42.74001" lon="1.00908">
        <ele>2230.5</ele>
        <time>2018-11-24T02:18:39Z</time>
      </trkpt>
      <trkpt lat="42.74005" lon="1.00921">
        <ele>2230.4</ele>
        <time>2018-11-24T02:18:43Z</time>
      </trkpt>
      <trkpt lat="42.74017" lon="1.00923">
        <ele>2228</ele>
        <time>2018-11-24T02:18:48Z</time>
      </trkpt>
      <trkpt lat="42.74027" lon="1.00928">
        <ele>2226</ele>
        <time>2018-11-24T02:18:52Z</time>
      </trkpt>
      <trkpt lat="42.74035" lon="1.00937">
        <ele>2225.5</ele>
        <time>2018-11-24T02:18:56Z</time>
      </trkpt>
      <trkpt lat="42.74038" lon="1.0095">
        <ele>2224.6</ele>
        <time>2018-11-24T02:19:00Z</time>
      </trkpt>
      <trkpt lat="42.74042" lon="1.00962">
        <ele>2222.7</ele>
        <time>2018-11-24T02:19:04Z</time>
      </trkpt>
      <trkpt lat="42.74049" lon="1.00972">
        <ele>2222.7</ele>
        <time>2018-11-24T02:19:08Z</time>
      </trkpt>
      <trkpt lat="42.74056" lon="1.00982">
        <ele>2222.7</ele>
        <time>2018-11-24T02:19:12Z</time>
      </trkpt>
      <trkpt lat="42.74063" lon="1.00993">
        <ele>2222.8</ele>
        <time>2018-11-24T02:19:16Z</time>
      </trkpt>
      <trkpt lat="42.74069" lon="1.01004">
        <ele>2222.7</ele>
        <time>2018-11-24T02:19:21Z</time>
      </trkpt>
      <trkpt lat="42.74075" lon="1.01013">
        <ele>2222.7</ele>
        <time>2018-11-24T02:19:24Z</time>
      </trkpt>
      <trkpt lat="42.74082" lon="1.01024">
        <ele>2221.8</ele>
        <time>2018-11-24T02:19:29Z</time>
      </trkpt>
      <trkpt lat="42.74087" lon="1.01035">
        <ele>2221.8</ele>
        <time>2018-11-24T02:19:32Z</time>
      </trkpt>
      <trkpt lat="42.74097" lon="1.01038">
        <ele>2219.8</ele>
        <time>2018-11-24T02:19:36Z</time>
      </trkpt>
      <trkpt lat="42.74108" lon="1.0104">
        <ele>2218.3</ele>
        <time>2018-11-24T02:19:41Z</time>
      </trkpt>
      <trkpt lat="42.74118" lon="1.01044">
        <ele>2218.4</ele>
        <time>2018-11-24T02:19:45Z</time>
      </trkpt>
      <trkpt lat="42.74128" lon="1.01043">
        <ele>2218.4</ele>
        <time>2018-11-24T02:19:49Z</time>
      </trkpt>
      <trkpt lat="42.74138" lon="1.01041">
        <ele>2219.9</ele>
        <time>2018-11-24T02:19:53Z</time>
      </trkpt>
      <trkpt lat="42.74144" lon="1.01051">
        <ele>2218.3</ele>
        <time>2018-11-24T02:19:57Z</time>
      </trkpt>
      <trkpt lat="42.7415" lon="1.01061">
        <ele>2216.5</ele>
        <time>2018-11-24T02:20:00Z</time>
      </trkpt>
      <trkpt lat="42.74158" lon="1.01067">
        <ele>2212.1</ele>
        <time>2018-11-24T02:20:04Z</time>
      </trkpt>
      <trkpt lat="42.74168" lon="1.01071">
        <ele>2208.2</ele>
        <time>2018-11-24T02:20:08Z</time>
      </trkpt>
      <trkpt lat="42.74177" lon="1.01073">
        <ele>2205.8</ele>
        <time>2018-11-24T02:20:12Z</time>
      </trkpt>
      <trkpt lat="42.74185" lon="1.01067">
        <ele>2201.5</ele>
        <time>2018-11-24T02:20:16Z</time>
      </trkpt>
      <trkpt lat="42.74193" lon="1.01059">
        <ele>2197.8</ele>
        <time>2018-11-24T02:20:20Z</time>
      </trkpt>
      <trkpt lat="42.74202" lon="1.01055">
        <ele>2195.3</ele>
        <time>2018-11-24T02:20:23Z</time>
      </trkpt>
      <trkpt lat="42.74211" lon="1.0105">
        <ele>2193</ele>
        <time>2018-11-24T02:20:27Z</time>
      </trkpt>
      <trkpt lat="42.74221" lon="1.01045">
        <ele>2190.9</ele>
        <time>2018-11-24T02:20:31Z</time>
      </trkpt>
      <trkpt lat="42.74228" lon="1.0104">
        <ele>2186.1</ele>
        <time>2018-11-24T02:20:34Z</time>
      </trkpt>
      <trkpt lat="42.74232" lon="1.01031">
        <ele>2181.9</ele>
        <time>2018-11-24T02:20:38Z</time>
      </trkpt>
      <trkpt lat="42.74242" lon="1.01028">
        <ele>2177.5</ele>
        <time>2018-11-24T02:20:42Z</time>
      </trkpt>
      <trkpt lat="42.7425" lon="1.01023">
        <ele>2174.7</ele>
        <time>2018-11-24T02:20:45Z</time>
      </trkpt>
      <trkpt lat="42.74259" lon="1.01025">
        <ele>2169.8</ele>
        <time>2018-11-24T02:20:49Z</time>
      </trkpt>
      <trkpt lat="42.74268" lon="1.01026">
        <ele>2166.4</ele>
        <time>2018-11-24T02:20:52Z</time>
      </trkpt>
      <trkpt lat="42.74278" lon="1.01026">
        <ele>2162.1</ele>
        <time>2018-11-24T02:20:56Z</time>
      </trkpt>
      <trkpt lat="42.74289" lon="1.01027">
        <ele>2158.4</ele>
        <time>2018-11-24T02:21:01Z</time>
      </trkpt>
      <trkpt lat="42.74298" lon="1.01029">
        <ele>2156.4</ele>
        <time>2018-11-24T02:21:05Z</time>
      </trkpt>
      <trkpt lat="42.74307" lon="1.01032">
        <ele>2152.5</ele>
        <time>2018-11-24T02:21:08Z</time>
      </trkpt>
      <trkpt lat="42.74312" lon="1.01024">
        <ele>2147.3</ele>
        <time>2018-11-24T02:21:11Z</time>
      </trkpt>
      <trkpt lat="42.74321" lon="1.01022">
        <ele>2142.9</ele>
        <time>2018-11-24T02:21:15Z</time>
      </trkpt>
      <trkpt lat="42.7433" lon="1.01022">
        <ele>2140</ele>
        <time>2018-11-24T02:21:19Z</time>
      </trkpt>
      <trkpt lat="42.74339" lon="1.01026">
        <ele>2139</ele>
        <time>2018-11-24T02:21:22Z</time>
      </trkpt>
      <trkpt lat="42.74349" lon="1.01028">
        <ele>2139</ele>
        <time>2018-11-24T02:21:27Z</time>
      </trkpt>
      <trkpt lat="42.7436" lon="1.01024">
        <ele>2138.2</ele>
        <time>2018-11-24T02:21:31Z</time>
      </trkpt>
      <trkpt lat="42.7437" lon="1.0102">
        <ele>2136.1</ele>
        <time>2018-11-24T02:21:35Z</time>
      </trkpt>
      <trkpt lat="42.74379" lon="1.01015">
        <ele>2134.2</ele>
        <time>2018-11-24T02:21:39Z</time>
      </trkpt>
      <trkpt lat="42.74388" lon="1.01008">
        <ele>2130.9</ele>
        <time>2018-11-24T02:21:43Z</time>
      </trkpt>
      <trkpt lat="42.74396" lon="1.01">
        <ele>2128</ele>
        <time>2018-11-24T02:21:47Z</time>
      </trkpt>
      <trkpt lat="42.74406" lon="1.00995">
        <ele>2125.7</ele>
        <time>2018-11-24T02:21:52Z</time>
      </trkpt>
      <trkpt lat="42.74416" lon="1.00993">
        <ele>2124.1</ele>
        <time>2018-11-24T02:21:56Z</time>
      </trkpt>
      <trkpt lat="42.74426" lon="1.00988">
        <ele>2122.3</ele>
        <time>2018-11-24T02:22:00Z</time>
      </trkpt>
      <trkpt lat="42.74434" lon="1.00981">
        <ele>2119.9</ele>
        <time>2018-11-24T02:22:04Z</time>
      </trkpt>
      <trkpt lat="42.74437" lon="1.0097">
        <ele>2116.5</ele>
        <time>2018-11-24T02:22:07Z</time>
      </trkpt>
      <trkpt lat="42.74445" lon="1.00965">
        <ele>2113.2</ele>
        <time>2018-11-24T02:22:11Z</time>
      </trkpt>
      <trkpt lat="42.74455" lon="1.00962">
        <ele>2111.1</ele>
        <time>2018-11-24T02:22:15Z</time>
      </trkpt>
      <trkpt lat="42.74464" lon="1.00956">
        <ele>2108.4</ele>
        <time>2018-11-24T02:22:19Z</time>
      </trkpt>
      <trkpt lat="42.74473" lon="1.00951">
        <ele>2105.5</ele>
        <time>2018-11-24T02:22:22Z</time>
      </trkpt>
      <trkpt lat="42.74482" lon="1.00947">
        <ele>2103</ele>
        <time>2018-11-24T02:22:26Z</time>
      </trkpt>
      <trkpt lat="42.74492" lon="1.00944">
        <ele>2100.1</ele>
        <time>2018-11-24T02:22:30Z</time>
      </trkpt>
      <trkpt lat="42.74501" lon="1.00938">
        <ele>2099.2</ele>
        <time>2018-11-24T02:22:34Z</time>
      </trkpt>
      <trkpt lat="42.74509" lon="1.0093">
        <ele>2098.2</ele>
        <time>2018-11-24T02:22:38Z</time>
      </trkpt>
      <trkpt lat="42.74519" lon="1.00926">
        <ele>2097.3</ele>
        <time>2018-11-24T02:22:43Z</time>
      </trkpt>
      <trkpt lat="42.74528" lon="1.0092">
        <ele>2096.2</ele>
        <time>2018-11-24T02:22:47Z</time>
      </trkpt>
      <trkpt lat="42.74536" lon="1.00913">
        <ele>2095.9</ele>
        <time>2018-11-24T02:22:50Z</time>
      </trkpt>
      <trkpt lat="42.74547" lon="1.00909">
        <ele>2095.4</ele>
        <time>2018-11-24T02:22:55Z</time>
      </trkpt>
      <trkpt lat="42.74555" lon="1.00901">
        <ele>2095.3</ele>
        <time>2018-11-24T02:22:59Z</time>
      </trkpt>
      <trkpt lat="42.74564" lon="1.00897">
        <ele>2094.4</ele>
        <time>2018-11-24T02:23:03Z</time>
      </trkpt>
      <trkpt lat="42.74572" lon="1.0089">
        <ele>2093.8</ele>
        <time>2018-11-24T02:23:06Z</time>
      </trkpt>
      <trkpt lat="42.7458" lon="1.00879">
        <ele>2092.4</ele>
        <time>2018-11-24T02:23:11Z</time>
      </trkpt>
      <trkpt lat="42.74585" lon="1.00866">
        <ele>2091</ele>
        <time>2018-11-24T02:23:15Z</time>
      </trkpt>
      <trkpt lat="42.74593" lon="1.00857">
        <ele>2090</ele>
        <time>2018-11-24T02:23:19Z</time>
      </trkpt>
      <trkpt lat="42.74599" lon="1.00846">
        <ele>2088.7</ele>
        <time>2018-11-24T02:23:23Z</time>
      </trkpt>
      <trkpt lat="42.74601" lon="1.00832">
        <ele>2086.3</ele>
        <time>2018-11-24T02:23:28Z</time>
      </trkpt>
      <trkpt lat="42.74602" lon="1.00818">
        <ele>2083.4</ele>
        <time>2018-11-24T02:23:32Z</time>
      </trkpt>
      <trkpt lat="42.746" lon="1.00804">
        <ele>2080</ele>
        <time>2018-11-24T02:23:36Z</time>
      </trkpt>
      <trkpt lat="42.746" lon="1.00789">
        <ele>2075.2</ele>
        <time>2018-11-24T02:23:40Z</time>
      </trkpt>
      <trkpt lat="42.74603" lon="1.00774">
        <ele>2070.9</ele>
        <time>2018-11-24T02:23:45Z</time>
      </trkpt>
      <trkpt lat="42.74607" lon="1.00761">
        <ele>2066.4</ele>
        <time>2018-11-24T02:23:49Z</time>
      </trkpt>
      <trkpt lat="42.74614" lon="1.00751">
        <ele>2064.1</ele>
        <time>2018-11-24T02:23:53Z</time>
      </trkpt>
      <trkpt lat="42.74621" lon="1.00742">
        <ele>2062.7</ele>
        <time>2018-11-24T02:23:57Z</time>
      </trkpt>
      <trkpt lat="42.74629" lon="1.0073">
        <ele>2059.7</ele>
        <time>2018-11-24T02:24:02Z</time>
      </trkpt>
      <trkpt lat="42.74639" lon="1.00721">
        <ele>2057.3</ele>
        <time>2018-11-24T02:24:07Z</time>
      </trkpt>
      <trkpt lat="42.74647" lon="1.00712">
        <ele>2054.4</ele>
        <time>2018-11-24T02:24:11Z</time>
      </trkpt>
      <trkpt lat="42.74657" lon="1.00704">
        <ele>2052.1</ele>
        <time>2018-11-24T02:24:15Z</time>
      </trkpt>
      <trkpt lat="42.74672" lon="1.00696">
        <ele>2051.2</ele>
        <time>2018-11-24T02:24:22Z</time>
      </trkpt>
      <trkpt lat="42.74683" lon="1.00687">
        <ele>2048.7</ele>
        <time>2018-11-24T02:24:27Z</time>
      </trkpt>
      <trkpt lat="42.74691" lon="1.0068">
        <ele>2045.3</ele>
        <time>2018-11-24T02:24:31Z</time>
      </trkpt>
      <trkpt lat="42.74701" lon="1.0067">
        <ele>2039.1</ele>
        <time>2018-11-24T02:24:36Z</time>
      </trkpt>
      <trkpt lat="42.74707" lon="1.0066">
        <ele>2033.4</ele>
        <time>2018-11-24T02:24:40Z</time>
      </trkpt>
      <trkpt lat="42.74717" lon="1.00656">
        <ele>2028.6</ele>
        <time>2018-11-24T02:24:44Z</time>
      </trkpt>
      <trkpt lat="42.74727" lon="1.00652">
        <ele>2026.1</ele>
        <time>2018-11-24T02:24:48Z</time>
      </trkpt>
      <trkpt lat="42.74737" lon="1.00647">
        <ele>2021.7</ele>
        <time>2018-11-24T02:24:52Z</time>
      </trkpt>
      <trkpt lat="42.74746" lon="1.00642">
        <ele>2018.4</ele>
        <time>2018-11-24T02:24:56Z</time>
      </trkpt>
      <trkpt lat="42.74757" lon="1.00641">
        <ele>2014.1</ele>
        <time>2018-11-24T02:25:00Z</time>
      </trkpt>
      <trkpt lat="42.74768" lon="1.00637">
        <ele>2012.1</ele>
        <time>2018-11-24T02:25:05Z</time>
      </trkpt>
      <trkpt lat="42.74777" lon="1.00633">
        <ele>2009.2</ele>
        <time>2018-11-24T02:25:09Z</time>
      </trkpt>
      <trkpt lat="42.74786" lon="1.0063">
        <ele>2008.3</ele>
        <time>2018-11-24T02:25:13Z</time>
      </trkpt>
      <trkpt lat="42.74796" lon="1.00628">
        <ele>2006</ele>
        <time>2018-11-24T02:25:17Z</time>
      </trkpt>
      <trkpt lat="42.74806" lon="1.0063">
        <ele>2006</ele>
        <time>2018-11-24T02:25:21Z</time>
      </trkpt>
      <trkpt lat="42.74816" lon="1.00631">
        <ele>2005.5</ele>
        <time>2018-11-24T02:25:24Z</time>
      </trkpt>
      <trkpt lat="42.74825" lon="1.00629">
        <ele>2003.6</ele>
        <time>2018-11-24T02:25:28Z</time>
      </trkpt>
      <trkpt lat="42.74835" lon="1.00626">
        <ele>2001.6</ele>
        <time>2018-11-24T02:25:32Z</time>
      </trkpt>
      <trkpt lat="42.74845" lon="1.00622">
        <ele>2000.7</ele>
        <time>2018-11-24T02:25:36Z</time>
      </trkpt>
      <trkpt lat="42.74854" lon="1.00617">
        <ele>1998.2</ele>
        <time>2018-11-24T02:25:40Z</time>
      </trkpt>
      <trkpt lat="42.74866" lon="1.00612">
        <ele>1994.8</ele>
        <time>2018-11-24T02:25:46Z</time>
      </trkpt>
      <trkpt lat="42.74876" lon="1.00614">
        <ele>1992.4</ele>
        <time>2018-11-24T02:25:49Z</time>
      </trkpt>
      <trkpt lat="42.74885" lon="1.00616">
        <ele>1989.5</ele>
        <time>2018-11-24T02:25:53Z</time>
      </trkpt>
      <trkpt lat="42.74894" lon="1.00618">
        <ele>1988.6</ele>
        <time>2018-11-24T02:25:57Z</time>
      </trkpt>
      <trkpt lat="42.74906" lon="1.00619">
        <ele>1986.8</ele>
        <time>2018-11-24T02:26:02Z</time>
      </trkpt>
      <trkpt lat="42.74924" lon="1.00621">
        <ele>1984.7</ele>
        <time>2018-11-24T02:26:09Z</time>
      </trkpt>
      <trkpt lat="42.74936" lon="1.00624">
        <ele>1981.5</ele>
        <time>2018-11-24T02:26:14Z</time>
      </trkpt>
      <trkpt lat="42.74968" lon="1.00634">
        <ele>1979.9</ele>
        <time>2018-11-24T02:26:27Z</time>
      </trkpt>
      <trkpt lat="42.74983" lon="1.00632">
        <ele>1977.1</ele>
        <time>2018-11-24T02:26:33Z</time>
      </trkpt>
      <trkpt lat="42.74993" lon="1.00609">
        <ele>1964.5</ele>
        <time>2018-11-24T02:26:41Z</time>
      </trkpt>
      <trkpt lat="42.75017" lon="1.00611">
        <ele>1961.7</ele>
        <time>2018-11-24T02:26:50Z</time>
      </trkpt>
      <trkpt lat="42.75042" lon="1.00607">
        <ele>1953.5</ele>
        <time>2018-11-24T02:27:00Z</time>
      </trkpt>
      <trkpt lat="42.75084" lon="1.0059">
        <ele>1942</ele>
        <time>2018-11-24T02:27:18Z</time>
      </trkpt>
      <trkpt lat="42.75096" lon="1.0058">
        <ele>1935.7</ele>
        <time>2018-11-24T02:27:24Z</time>
      </trkpt>
      <trkpt lat="42.75106" lon="1.00559">
        <ele>1928.5</ele>
        <time>2018-11-24T02:27:31Z</time>
      </trkpt>
      <trkpt lat="42.75107" lon="1.00536">
        <ele>1921.3</ele>
        <time>2018-11-24T02:27:38Z</time>
      </trkpt>
      <trkpt lat="42.75112" lon="1.00516">
        <ele>1914.6</ele>
        <time>2018-11-24T02:27:44Z</time>
      </trkpt>
      <trkpt lat="42.75122" lon="1.00494">
        <ele>1908.4</ele>
        <time>2018-11-24T02:27:52Z</time>
      </trkpt>
      <trkpt lat="42.75133" lon="1.00475">
        <ele>1907.4</ele>
        <time>2018-11-24T02:27:59Z</time>
      </trkpt>
      <trkpt lat="42.75143" lon="1.00466">
        <ele>1905.5</ele>
        <time>2018-11-24T02:28:03Z</time>
      </trkpt>
      <trkpt lat="42.75153" lon="1.00458">
        <ele>1903</ele>
        <time>2018-11-24T02:28:08Z</time>
      </trkpt>
      <trkpt lat="42.75158" lon="1.00446">
        <ele>1900.6</ele>
        <time>2018-11-24T02:28:12Z</time>
      </trkpt>
      <trkpt lat="42.75171" lon="1.00431">
        <ele>1899.7</ele>
        <time>2018-11-24T02:28:19Z</time>
      </trkpt>
      <trkpt lat="42.75189" lon="1.00422">
        <ele>1897.4</ele>
        <time>2018-11-24T02:28:27Z</time>
      </trkpt>
      <trkpt lat="42.75199" lon="1.00418">
        <ele>1895</ele>
        <time>2018-11-24T02:28:31Z</time>
      </trkpt>
      <trkpt lat="42.7521" lon="1.00412">
        <ele>1892</ele>
        <time>2018-11-24T02:28:36Z</time>
      </trkpt>
      <trkpt lat="42.75222" lon="1.00401">
        <ele>1890.5</ele>
        <time>2018-11-24T02:28:42Z</time>
      </trkpt>
      <trkpt lat="42.75235" lon="1.00384">
        <ele>1887.3</ele>
        <time>2018-11-24T02:28:49Z</time>
      </trkpt>
      <trkpt lat="42.7525" lon="1.00381">
        <ele>1885.8</ele>
        <time>2018-11-24T02:28:55Z</time>
      </trkpt>
      <trkpt lat="42.75278" lon="1.00352">
        <ele>1878.1</ele>
        <time>2018-11-24T02:29:09Z</time>
      </trkpt>
      <trkpt lat="42.75307" lon="1.00328">
        <ele>1872.8</ele>
        <time>2018-11-24T02:29:22Z</time>
      </trkpt>
      <trkpt lat="42.75317" lon="1.00318">
        <ele>1870</ele>
        <time>2018-11-24T02:29:27Z</time>
      </trkpt>
      <trkpt lat="42.75329" lon="1.00309">
        <ele>1866.5</ele>
        <time>2018-11-24T02:29:33Z</time>
      </trkpt>
      <trkpt lat="42.75344" lon="1.00291">
        <ele>1861.2</ele>
        <time>2018-11-24T02:29:41Z</time>
      </trkpt>
      <trkpt lat="42.75354" lon="1.0028">
        <ele>1857.4</ele>
        <time>2018-11-24T02:29:46Z</time>
      </trkpt>
      <trkpt lat="42.75362" lon="1.00266">
        <ele>1855.1</ele>
        <time>2018-11-24T02:29:51Z</time>
      </trkpt>
      <trkpt lat="42.75372" lon="1.00262">
        <ele>1854</ele>
        <time>2018-11-24T02:29:56Z</time>
      </trkpt>
      <trkpt lat="42.75386" lon="1.00249">
        <ele>1852.1</ele>
        <time>2018-11-24T02:30:02Z</time>
      </trkpt>
      <trkpt lat="42.75393" lon="1.00235">
        <ele>1849.7</ele>
        <time>2018-11-24T02:30:07Z</time>
      </trkpt>
      <trkpt lat="42.75402" lon="1.00226">
        <ele>1847.8</ele>
        <time>2018-11-24T02:30:12Z</time>
      </trkpt>
      <trkpt lat="42.75413" lon="1.00215">
        <ele>1845.9</ele>
        <time>2018-11-24T02:30:17Z</time>
      </trkpt>
      <trkpt lat="42.75425" lon="1.00209">
        <ele>1842.1</ele>
        <time>2018-11-24T02:30:22Z</time>
      </trkpt>
      <trkpt lat="42.75435" lon="1.00202">
        <ele>1840.1</ele>
        <time>2018-11-24T02:30:27Z</time>
      </trkpt>
      <trkpt lat="42.75444" lon="1.00197">
        <ele>1837.7</ele>
        <time>2018-11-24T02:30:30Z</time>
      </trkpt>
      <trkpt lat="42.75453" lon="1.00191">
        <ele>1835.7</ele>
        <time>2018-11-24T02:30:35Z</time>
      </trkpt>
      <trkpt lat="42.75463" lon="1.00181">
        <ele>1833.3</ele>
        <time>2018-11-24T02:30:39Z</time>
      </trkpt>
      <trkpt lat="42.75472" lon="1.00176">
        <ele>1831.4</ele>
        <time>2018-11-24T02:30:43Z</time>
      </trkpt>
      <trkpt lat="42.75485" lon="1.00178">
        <ele>1829.5</ele>
        <time>2018-11-24T02:30:49Z</time>
      </trkpt>
      <trkpt lat="42.75501" lon="1.00168">
        <ele>1825.7</ele>
        <time>2018-11-24T02:30:56Z</time>
      </trkpt>
      <trkpt lat="42.75517" lon="1.00153">
        <ele>1820.8</ele>
        <time>2018-11-24T02:31:03Z</time>
      </trkpt>
      <trkpt lat="42.75538" lon="1.0014">
        <ele>1812.7</ele>
        <time>2018-11-24T02:31:13Z</time>
      </trkpt>
      <trkpt lat="42.75566" lon="1.00105">
        <ele>1789.7</ele>
        <time>2018-11-24T02:31:28Z</time>
      </trkpt>
      <trkpt lat="42.75576" lon="1.00096">
        <ele>1786.8</ele>
        <time>2018-11-24T02:31:33Z</time>
      </trkpt>
      <trkpt lat="42.75599" lon="1.00074">
        <ele>1782</ele>
        <time>2018-11-24T02:31:44Z</time>
      </trkpt>
      <trkpt lat="42.75605" lon="1.00055">
        <ele>1780.6</ele>
        <time>2018-11-24T02:31:50Z</time>
      </trkpt>
      <trkpt lat="42.75613" lon="1.00045">
        <ele>1780.5</ele>
        <time>2018-11-24T02:31:54Z</time>
      </trkpt>
      <trkpt lat="42.75626" lon="1.00041">
        <ele>1778.1</ele>
        <time>2018-11-24T02:32:00Z</time>
      </trkpt>
      <trkpt lat="42.75667" lon="1.00041">
        <ele>1761.8</ele>
        <time>2018-11-24T02:32:16Z</time>
      </trkpt>
      <trkpt lat="42.7568" lon="1.00035">
        <ele>1754.5</ele>
        <time>2018-11-24T02:32:21Z</time>
      </trkpt>
      <trkpt lat="42.75686" lon="1.00022">
        <ele>1750.8</ele>
        <time>2018-11-24T02:32:26Z</time>
      </trkpt>
      <trkpt lat="42.75696" lon="1.00016">
        <ele>1747.3</ele>
        <time>2018-11-24T02:32:30Z</time>
      </trkpt>
      <trkpt lat="42.75701" lon="1.00003">
        <ele>1743</ele>
        <time>2018-11-24T02:32:35Z</time>
      </trkpt>
      <trkpt lat="42.7571" lon="0.99992">
        <ele>1738.2</ele>
        <time>2018-11-24T02:32:39Z</time>
      </trkpt>
      <trkpt lat="42.75721" lon="0.9997">
        <ele>1728.2</ele>
        <time>2018-11-24T02:32:47Z</time>
      </trkpt>
      <trkpt lat="42.75724" lon="0.99943">
        <ele>1722.8</ele>
        <time>2018-11-24T02:32:55Z</time>
      </trkpt>
      <trkpt lat="42.75723" lon="0.99881">
        <ele>1712.3</ele>
        <time>2018-11-24T02:33:13Z</time>
      </trkpt>
      <trkpt lat="42.7573" lon="0.99866">
        <ele>1709.4</ele>
        <time>2018-11-24T02:33:19Z</time>
      </trkpt>
      <trkpt lat="42.75733" lon="0.99841">
        <ele>1710.3</ele>
        <time>2018-11-24T02:33:26Z</time>
      </trkpt>
      <trkpt lat="42.75728" lon="0.99825">
        <ele>1710.9</ele>
        <time>2018-11-24T02:33:31Z</time>
      </trkpt>
      <trkpt lat="42.75721" lon="0.99808">
        <ele>1711.3</ele>
        <time>2018-11-24T02:33:37Z</time>
      </trkpt>
      <trkpt lat="42.75718" lon="0.99791">
        <ele>1712.2</ele>
        <time>2018-11-24T02:33:42Z</time>
      </trkpt>
      <trkpt lat="42.75714" lon="0.99777">
        <ele>1713.6</ele>
        <time>2018-11-24T02:33:46Z</time>
      </trkpt>
      <trkpt lat="42.75713" lon="0.99764">
        <ele>1713.7</ele>
        <time>2018-11-24T02:33:50Z</time>
      </trkpt>
      <trkpt lat="42.75716" lon="0.99748">
        <ele>1714.1</ele>
        <time>2018-11-24T02:33:55Z</time>
      </trkpt>
      <trkpt lat="42.75717" lon="0.9973">
        <ele>1713.2</ele>
        <time>2018-11-24T02:34:00Z</time>
      </trkpt>
      <trkpt lat="42.75722" lon="0.99712">
        <ele>1713.3</ele>
        <time>2018-11-24T02:34:06Z</time>
      </trkpt>
      <trkpt lat="42.75729" lon="0.99693">
        <ele>1713.2</ele>
        <time>2018-11-24T02:34:12Z</time>
      </trkpt>
      <trkpt lat="42.7573" lon="0.99677">
        <ele>1713.2</ele>
        <time>2018-11-24T02:34:17Z</time>
      </trkpt>
      <trkpt lat="42.7573" lon="0.99659">
        <ele>1713.3</ele>
        <time>2018-11-24T02:34:22Z</time>
      </trkpt>
      <trkpt lat="42.75729" lon="0.99647">
        <ele>1713.2</ele>
        <time>2018-11-24T02:34:26Z</time>
      </trkpt>
      <trkpt lat="42.75737" lon="0.99636">
        <ele>1712.7</ele>
        <time>2018-11-24T02:34:30Z</time>
      </trkpt>
      <trkpt lat="42.75747" lon="0.99617">
        <ele>1712.8</ele>
        <time>2018-11-24T02:34:37Z</time>
      </trkpt>
      <trkpt lat="42.7575" lon="0.99599">
        <ele>1712.7</ele>
        <time>2018-11-24T02:34:43Z</time>
      </trkpt>
      <trkpt lat="42.75757" lon="0.99579">
        <ele>1715.1</ele>
        <time>2018-11-24T02:34:49Z</time>
      </trkpt>
      <trkpt lat="42.75771" lon="0.99549">
        <ele>1709.9</ele>
        <time>2018-11-24T02:35:00Z</time>
      </trkpt>
      <trkpt lat="42.7578" lon="0.99541">
        <ele>1706.4</ele>
        <time>2018-11-24T02:35:04Z</time>
      </trkpt>
      <trkpt lat="42.75786" lon="0.99528">
        <ele>1702.1</ele>
        <time>2018-11-24T02:35:08Z</time>
      </trkpt>
      <trkpt lat="42.75786" lon="0.99512">
        <ele>1699.3</ele>
        <time>2018-11-24T02:35:13Z</time>
      </trkpt>
      <trkpt lat="42.75808" lon="0.99485">
        <ele>1685.4</ele>
        <time>2018-11-24T02:35:25Z</time>
      </trkpt>
      <trkpt lat="42.75834" lon="0.99479">
        <ele>1675.8</ele>
        <time>2018-11-24T02:35:36Z</time>
      </trkpt>
      <trkpt lat="42.75924" lon="0.99581">
        <ele>1656.6</ele>
        <time>2018-11-24T02:36:23Z</time>
      </trkpt>
      <trkpt lat="42.75919" lon="0.9955">
        <ele>1656</ele>
        <time>2018-11-24T02:36:32Z</time>
      </trkpt>
      <trkpt lat="42.75917" lon="0.99548">
        <ele>1656</ele>
        <time>2018-11-24T02:36:33Z</time>
      </trkpt>
      <trkpt lat="42.75913" lon="0.99533">
        <ele>1656</ele>
        <time>2018-11-24T02:36:37Z</time>
      </trkpt>
      <trkpt lat="42.75904" lon="0.99518">
        <ele>1656</ele>
        <time>2018-11-24T02:36:43Z</time>
      </trkpt>
      <trkpt lat="42.75904" lon="0.99518">
        <ele>1656.1</ele>
        <time>2018-11-24T02:36:43Z</time>
      </trkpt>
      <trkpt lat="42.75897" lon="0.99483">
        <ele>1657.1</ele>
        <time>2018-11-24T02:36:54Z</time>
      </trkpt>
      <trkpt lat="42.75896" lon="0.9948">
        <ele>1657</ele>
        <time>2018-11-24T02:36:55Z</time>
      </trkpt>
      <trkpt lat="42.75911" lon="0.99464">
        <ele>1657.6</ele>
        <time>2018-11-24T02:37:02Z</time>
      </trkpt>
      <trkpt lat="42.75919" lon="0.99477">
        <ele>1656.1</ele>
        <time>2018-11-24T02:37:07Z</time>
      </trkpt>
      <trkpt lat="42.75924" lon="0.99489">
        <ele>1656.1</ele>
        <time>2018-11-24T02:37:11Z</time>
      </trkpt>
      <trkpt lat="42.75926" lon="0.99491">
        <ele>1656.1</ele>
        <time>2018-11-24T02:37:12Z</time>
      </trkpt>
      <trkpt lat="42.75939" lon="0.99513">
        <ele>1655.6</ele>
        <time>2018-11-24T02:37:20Z</time>
      </trkpt>
      <trkpt lat="42.7595" lon="0.99524">
        <ele>1655.2</ele>
        <time>2018-11-24T02:37:26Z</time>
      </trkpt>
      <trkpt lat="42.75964" lon="0.99538">
        <ele>1655.1</ele>
        <time>2018-11-24T02:37:33Z</time>
      </trkpt>
      <trkpt lat="42.75967" lon="0.99545">
        <ele>1655.1</ele>
        <time>2018-11-24T02:37:35Z</time>
      </trkpt>
      <trkpt lat="42.7597" lon="0.99549">
        <ele>1655.1</ele>
        <time>2018-11-24T02:37:37Z</time>
      </trkpt>
      <trkpt lat="42.75982" lon="0.99571">
        <ele>1654.6</ele>
        <time>2018-11-24T02:37:45Z</time>
      </trkpt>
      <trkpt lat="42.75984" lon="0.99572">
        <ele>1656.1</ele>
        <time>2018-11-24T02:37:46Z</time>
      </trkpt>
      <trkpt lat="42.75992" lon="0.99576">
        <ele>1657.6</ele>
        <time>2018-11-24T02:37:49Z</time>
      </trkpt>
      <trkpt lat="42.75996" lon="0.99583">
        <ele>1657.9</ele>
        <time>2018-11-24T02:37:52Z</time>
      </trkpt>
      <trkpt lat="42.75999" lon="0.99587">
        <ele>1658.4</ele>
        <time>2018-11-24T02:37:54Z</time>
      </trkpt>
      <trkpt lat="42.76009" lon="0.99611">
        <ele>1659</ele>
        <time>2018-11-24T02:38:02Z</time>
      </trkpt>
      <trkpt lat="42.76011" lon="0.99614">
        <ele>1659.5</ele>
        <time>2018-11-24T02:38:03Z</time>
      </trkpt>
      <trkpt lat="42.76031" lon="0.99645">
        <ele>1659.8</ele>
        <time>2018-11-24T02:38:15Z</time>
      </trkpt>
      <trkpt lat="42.76033" lon="0.99652">
        <ele>1659.9</ele>
        <time>2018-11-24T02:38:17Z</time>
      </trkpt>
      <trkpt lat="42.76041" lon="0.99677">
        <ele>1658.4</ele>
        <time>2018-11-24T02:38:25Z</time>
      </trkpt>
      <trkpt lat="42.76045" lon="0.99707">
        <ele>1657.5</ele>
        <time>2018-11-24T02:38:34Z</time>
      </trkpt>
      <trkpt lat="42.76047" lon="0.99724">
        <ele>1656.1</ele>
        <time>2018-11-24T02:38:39Z</time>
      </trkpt>
      <trkpt lat="42.76055" lon="0.99731">
        <ele>1658</ele>
        <time>2018-11-24T02:38:43Z</time>
      </trkpt>
      <trkpt lat="42.76063" lon="0.99737">
        <ele>1659.8</ele>
        <time>2018-11-24T02:38:46Z</time>
      </trkpt>
      <trkpt lat="42.7608" lon="0.99777">
        <ele>1660.3</ele>
        <time>2018-11-24T02:39:00Z</time>
      </trkpt>
      <trkpt lat="42.76082" lon="0.99783">
        <ele>1660.3</ele>
        <time>2018-11-24T02:39:02Z</time>
      </trkpt>
      <trkpt lat="42.76088" lon="0.99794">
        <ele>1660.3</ele>
        <time>2018-11-24T02:39:06Z</time>
      </trkpt>
      <trkpt lat="42.76094" lon="0.99811">
        <ele>1660.4</ele>
        <time>2018-11-24T02:39:12Z</time>
      </trkpt>
      <trkpt lat="42.76108" lon="0.99834">
        <ele>1661.4</ele>
        <time>2018-11-24T02:39:20Z</time>
      </trkpt>
      <trkpt lat="42.76108" lon="0.99835">
        <ele>1661.4</ele>
        <time>2018-11-24T02:39:20Z</time>
      </trkpt>
      <trkpt lat="42.76119" lon="0.9986">
        <ele>1663.2</ele>
        <time>2018-11-24T02:39:29Z</time>
      </trkpt>
      <trkpt lat="42.76131" lon="0.9987">
        <ele>1664.7</ele>
        <time>2018-11-24T02:39:35Z</time>
      </trkpt>
      <trkpt lat="42.76137" lon="0.9989">
        <ele>1666.6</ele>
        <time>2018-11-24T02:39:41Z</time>
      </trkpt>
      <trkpt lat="42.76138" lon="0.99898">
        <ele>1667.2</ele>
        <time>2018-11-24T02:39:43Z</time>
      </trkpt>
      <trkpt lat="42.76142" lon="0.99907">
        <ele>1667.5</ele>
        <time>2018-11-24T02:39:46Z</time>
      </trkpt>
      <trkpt lat="42.76146" lon="0.9992">
        <ele>1668.6</ele>
        <time>2018-11-24T02:39:50Z</time>
      </trkpt>
      <trkpt lat="42.76144" lon="0.99939">
        <ele>1668.6</ele>
        <time>2018-11-24T02:39:56Z</time>
      </trkpt>
      <trkpt lat="42.7615" lon="0.99967">
        <ele>1668.6</ele>
        <time>2018-11-24T02:40:05Z</time>
      </trkpt>
      <trkpt lat="42.7615" lon="0.99971">
        <ele>1668.6</ele>
        <time>2018-11-24T02:40:06Z</time>
      </trkpt>
      <trkpt lat="42.76152" lon="0.99981">
        <ele>1668.6</ele>
        <time>2018-11-24T02:40:09Z</time>
      </trkpt>
      <trkpt lat="42.76154" lon="1.00013">
        <ele>1667.2</ele>
        <time>2018-11-24T02:40:18Z</time>
      </trkpt>
      <trkpt lat="42.76155" lon="1.00016">
        <ele>1666.2</ele>
        <time>2018-11-24T02:40:19Z</time>
      </trkpt>
      <trkpt lat="42.76158" lon="1.00023">
        <ele>1665.6</ele>
        <time>2018-11-24T02:40:22Z</time>
      </trkpt>
      <trkpt lat="42.76159" lon="1.00026">
        <ele>1665.6</ele>
        <time>2018-11-24T02:40:23Z</time>
      </trkpt>
      <trkpt lat="42.76158" lon="1.00029">
        <ele>1665.6</ele>
        <time>2018-11-24T02:40:23Z</time>
      </trkpt>
      <trkpt lat="42.76156" lon="1.00042">
        <ele>1665.7</ele>
        <time>2018-11-24T02:40:28Z</time>
      </trkpt>
      <trkpt lat="42.76153" lon="1.00051">
        <ele>1665.1</ele>
        <time>2018-11-24T02:40:30Z</time>
      </trkpt>
      <trkpt lat="42.76153" lon="1.00056">
        <ele>1665.2</ele>
        <time>2018-11-24T02:40:32Z</time>
      </trkpt>
      <trkpt lat="42.76161" lon="1.0009">
        <ele>1664.2</ele>
        <time>2018-11-24T02:40:42Z</time>
      </trkpt>
      <trkpt lat="42.76162" lon="1.00092">
        <ele>1665.1</ele>
        <time>2018-11-24T02:40:43Z</time>
      </trkpt>
      <trkpt lat="42.76164" lon="1.00093">
        <ele>1665.2</ele>
        <time>2018-11-24T02:40:44Z</time>
      </trkpt>
      <trkpt lat="42.76168" lon="1.00097">
        <ele>1666.1</ele>
        <time>2018-11-24T02:40:46Z</time>
      </trkpt>
      <trkpt lat="42.76173" lon="1.00106">
        <ele>1668.5</ele>
        <time>2018-11-24T02:40:49Z</time>
      </trkpt>
      <trkpt lat="42.76181" lon="1.00121">
        <ele>1669.5</ele>
        <time>2018-11-24T02:40:54Z</time>
      </trkpt>
      <trkpt lat="42.76182" lon="1.00122">
        <ele>1670.4</ele>
        <time>2018-11-24T02:40:55Z</time>
      </trkpt>
      <trkpt lat="42.76189" lon="1.00129">
        <ele>1672.3</ele>
        <time>2018-11-24T02:40:58Z</time>
      </trkpt>
      <trkpt lat="42.76196" lon="1.00141">
        <ele>1675.7</ele>
        <time>2018-11-24T02:41:03Z</time>
      </trkpt>
      <trkpt lat="42.76201" lon="1.0015">
        <ele>1678.2</ele>
        <time>2018-11-24T02:41:06Z</time>
      </trkpt>
      <trkpt lat="42.76203" lon="1.00163">
        <ele>1679.6</ele>
        <time>2018-11-24T02:41:10Z</time>
      </trkpt>
      <trkpt lat="42.76205" lon="1.0018">
        <ele>1681.1</ele>
        <time>2018-11-24T02:41:15Z</time>
      </trkpt>
      <trkpt lat="42.76206" lon="1.00184">
        <ele>1681</ele>
        <time>2018-11-24T02:41:17Z</time>
      </trkpt>
      <trkpt lat="42.76214" lon="1.00216">
        <ele>1681.5</ele>
        <time>2018-11-24T02:41:26Z</time>
      </trkpt>
      <trkpt lat="42.76226" lon="1.0025">
        <ele>1682.4</ele>
        <time>2018-11-24T02:41:38Z</time>
      </trkpt>
      <trkpt lat="42.76232" lon="1.00281">
        <ele>1683.5</ele>
        <time>2018-11-24T02:41:47Z</time>
      </trkpt>
      <trkpt lat="42.76246" lon="1.00309">
        <ele>1684</ele>
        <time>2018-11-24T02:41:57Z</time>
      </trkpt>
      <trkpt lat="42.7626" lon="1.00338">
        <ele>1685.3</ele>
        <time>2018-11-24T02:42:07Z</time>
      </trkpt>
      <trkpt lat="42.76265" lon="1.0035">
        <ele>1686.3</ele>
        <time>2018-11-24T02:42:11Z</time>
      </trkpt>
      <trkpt lat="42.76273" lon="1.00382">
        <ele>1687.7</ele>
        <time>2018-11-24T02:42:21Z</time>
      </trkpt>
      <trkpt lat="42.76287" lon="1.00408">
        <ele>1688.7</ele>
        <time>2018-11-24T02:42:30Z</time>
      </trkpt>
      <trkpt lat="42.76295" lon="1.0043">
        <ele>1689.8</ele>
        <time>2018-11-24T02:42:38Z</time>
      </trkpt>
      <trkpt lat="42.76295" lon="1.00434">
        <ele>1690.1</ele>
        <time>2018-11-24T02:42:39Z</time>
      </trkpt>
      <trkpt lat="42.76299" lon="1.00448">
        <ele>1691.7</ele>
        <time>2018-11-24T02:42:44Z</time>
      </trkpt>
      <trkpt lat="42.76302" lon="1.00455">
        <ele>1692.5</ele>
        <time>2018-11-24T02:42:46Z</time>
      </trkpt>
      <trkpt lat="42.7632" lon="1.00471">
        <ele>1694</ele>
        <time>2018-11-24T02:42:54Z</time>
      </trkpt>
      <trkpt lat="42.76336" lon="1.00478">
        <ele>1694.1</ele>
        <time>2018-11-24T02:43:01Z</time>
      </trkpt>
      <trkpt lat="42.76344" lon="1.00493">
        <ele>1694</ele>
        <time>2018-11-24T02:43:07Z</time>
      </trkpt>
      <trkpt lat="42.76353" lon="1.00509">
        <ele>1695.9</ele>
        <time>2018-11-24T02:43:12Z</time>
      </trkpt>
      <trkpt lat="42.76357" lon="1.00515">
        <ele>1697.9</ele>
        <time>2018-11-24T02:43:15Z</time>
      </trkpt>
      <trkpt lat="42.76368" lon="1.00543">
        <ele>1698.3</ele>
        <time>2018-11-24T02:43:24Z</time>
      </trkpt>
      <trkpt lat="42.76378" lon="1.00575">
        <ele>1698.3</ele>
        <time>2018-11-24T02:43:34Z</time>
      </trkpt>
      <trkpt lat="42.76385" lon="1.006">
        <ele>1699.3</ele>
        <time>2018-11-24T02:43:42Z</time>
      </trkpt>
      <trkpt lat="42.76392" lon="1.00632">
        <ele>1701.3</ele>
        <time>2018-11-24T02:43:52Z</time>
      </trkpt>
      <trkpt lat="42.76402" lon="1.00656">
        <ele>1702.2</ele>
        <time>2018-11-24T02:44:00Z</time>
      </trkpt>
      <trkpt lat="42.7642" lon="1.00673">
        <ele>1703.2</ele>
        <time>2018-11-24T02:44:09Z</time>
      </trkpt>
      <trkpt lat="42.7644" lon="1.00687">
        <ele>1704.1</ele>
        <time>2018-11-24T02:44:18Z</time>
      </trkpt>
      <trkpt lat="42.76445" lon="1.00693">
        <ele>1704.5</ele>
        <time>2018-11-24T02:44:21Z</time>
      </trkpt>
      <trkpt lat="42.76449" lon="1.00698">
        <ele>1705.1</ele>
        <time>2018-11-24T02:44:23Z</time>
      </trkpt>
      <trkpt lat="42.76465" lon="1.00713">
        <ele>1705.6</ele>
        <time>2018-11-24T02:44:31Z</time>
      </trkpt>
      <trkpt lat="42.76476" lon="1.00725">
        <ele>1706.5</ele>
        <time>2018-11-24T02:44:36Z</time>
      </trkpt>
      <trkpt lat="42.76487" lon="1.00731">
        <ele>1707.4</ele>
        <time>2018-11-24T02:44:41Z</time>
      </trkpt>
      <trkpt lat="42.76489" lon="1.00735">
        <ele>1707.4</ele>
        <time>2018-11-24T02:44:42Z</time>
      </trkpt>
      <trkpt lat="42.76493" lon="1.00737">
        <ele>1707.9</ele>
        <time>2018-11-24T02:44:44Z</time>
      </trkpt>
      <trkpt lat="42.76496" lon="1.00742">
        <ele>1708.4</ele>
        <time>2018-11-24T02:44:46Z</time>
      </trkpt>
      <trkpt lat="42.76498" lon="1.00747">
        <ele>1708.4</ele>
        <time>2018-11-24T02:44:48Z</time>
      </trkpt>
      <trkpt lat="42.76517" lon="1.00774">
        <ele>1709.9</ele>
        <time>2018-11-24T02:44:58Z</time>
      </trkpt>
      <trkpt lat="42.76526" lon="1.00787">
        <ele>1711.8</ele>
        <time>2018-11-24T02:45:04Z</time>
      </trkpt>
      <trkpt lat="42.76531" lon="1.00792">
        <ele>1711.8</ele>
        <time>2018-11-24T02:45:06Z</time>
      </trkpt>
      <trkpt lat="42.76548" lon="1.00802">
        <ele>1713.2</ele>
        <time>2018-11-24T02:45:14Z</time>
      </trkpt>
      <trkpt lat="42.7655" lon="1.00804">
        <ele>1713.7</ele>
        <time>2018-11-24T02:45:15Z</time>
      </trkpt>
      <trkpt lat="42.7656" lon="1.00803">
        <ele>1715.1</ele>
        <time>2018-11-24T02:45:19Z</time>
      </trkpt>
      <trkpt lat="42.76566" lon="1.00806">
        <ele>1715.1</ele>
        <time>2018-11-24T02:45:21Z</time>
      </trkpt>
      <trkpt lat="42.76578" lon="1.00808">
        <ele>1717.2</ele>
        <time>2018-11-24T02:45:26Z</time>
      </trkpt>
      <trkpt lat="42.76595" lon="1.00812">
        <ele>1717.6</ele>
        <time>2018-11-24T02:45:33Z</time>
      </trkpt>
      <trkpt lat="42.76596" lon="1.00812">
        <ele>1717.5</ele>
        <time>2018-11-24T02:45:33Z</time>
      </trkpt>
      <trkpt lat="42.76604" lon="1.00812">
        <ele>1718</ele>
        <time>2018-11-24T02:45:36Z</time>
      </trkpt>
      <trkpt lat="42.76615" lon="1.00801">
        <ele>1717.2</ele>
        <time>2018-11-24T02:45:42Z</time>
      </trkpt>
      <trkpt lat="42.76625" lon="1.00798">
        <ele>1715.7</ele>
        <time>2018-11-24T02:45:46Z</time>
      </trkpt>
      <trkpt lat="42.76635" lon="1.00797">
        <ele>1715.7</ele>
        <time>2018-11-24T02:45:50Z</time>
      </trkpt>
      <trkpt lat="42.76641" lon="1.00796">
        <ele>1715.7</ele>
        <time>2018-11-24T02:45:52Z</time>
      </trkpt>
      <trkpt lat="42.76657" lon="1.00791">
        <ele>1715.7</ele>
        <time>2018-11-24T02:45:59Z</time>
      </trkpt>
      <trkpt lat="42.76663" lon="1.00793">
        <ele>1715.1</ele>
        <time>2018-11-24T02:46:02Z</time>
      </trkpt>
      <trkpt lat="42.76664" lon="1.00795">
        <ele>1716.6</ele>
        <time>2018-11-24T02:46:02Z</time>
      </trkpt>
      <trkpt lat="42.76686" lon="1.00797">
        <ele>1717.2</ele>
        <time>2018-11-24T02:46:11Z</time>
      </trkpt>
      <trkpt lat="42.76689" lon="1.008">
        <ele>1717.1</ele>
        <time>2018-11-24T02:46:13Z</time>
      </trkpt>
      <trkpt lat="42.7671" lon="1.00818">
        <ele>1718.5</ele>
        <time>2018-11-24T02:46:23Z</time>
      </trkpt>
      <trkpt lat="42.76719" lon="1.00824">
        <ele>1720.4</ele>
        <time>2018-11-24T02:46:26Z</time>
      </trkpt>
      <trkpt lat="42.76721" lon="1.00824">
        <ele>1720.9</ele>
        <time>2018-11-24T02:46:27Z</time>
      </trkpt>
      <trkpt lat="42.76725" lon="1.00827">
        <ele>1721.4</ele>
        <time>2018-11-24T02:46:29Z</time>
      </trkpt>
      <trkpt lat="42.76732" lon="1.00834">
        <ele>1722.4</ele>
        <time>2018-11-24T02:46:32Z</time>
      </trkpt>
      <trkpt lat="42.7674" lon="1.00836">
        <ele>1722.9</ele>
        <time>2018-11-24T02:46:36Z</time>
      </trkpt>
      <trkpt lat="42.76744" lon="1.00838">
        <ele>1723.3</ele>
        <time>2018-11-24T02:46:37Z</time>
      </trkpt>
      <trkpt lat="42.76753" lon="1.00839">
        <ele>1724.4</ele>
        <time>2018-11-24T02:46:41Z</time>
      </trkpt>
      <trkpt lat="42.7677" lon="1.00848">
        <ele>1724.3</ele>
        <time>2018-11-24T02:46:48Z</time>
      </trkpt>
      <trkpt lat="42.76773" lon="1.00851">
        <ele>1724.4</ele>
        <time>2018-11-24T02:46:50Z</time>
      </trkpt>
      <trkpt lat="42.76778" lon="1.00854">
        <ele>1724.3</ele>
        <time>2018-11-24T02:46:52Z</time>
      </trkpt>
      <trkpt lat="42.76799" lon="1.00853">
        <ele>1726.7</ele>
        <time>2018-11-24T02:47:00Z</time>
      </trkpt>
      <trkpt lat="42.76809" lon="1.00857">
        <ele>1728.6</ele>
        <time>2018-11-24T02:47:04Z</time>
      </trkpt>
      <trkpt lat="42.76814" lon="1.00864">
        <ele>1728.1</ele>
        <time>2018-11-24T02:47:07Z</time>
      </trkpt>
      <trkpt lat="42.76828" lon="1.00874">
        <ele>1730.5</ele>
        <time>2018-11-24T02:47:14Z</time>
      </trkpt>
      <trkpt lat="42.76841" lon="1.00885">
        <ele>1731</ele>
        <time>2018-11-24T02:47:20Z</time>
      </trkpt>
      <trkpt lat="42.7686" lon="1.00877">
        <ele>1729.2</ele>
        <time>2018-11-24T02:47:28Z</time>
      </trkpt>
      <trkpt lat="42.76862" lon="1.0088">
        <ele>1728.6</ele>
        <time>2018-11-24T02:47:29Z</time>
      </trkpt>
      <trkpt lat="42.7688" lon="1.00887">
        <ele>1729.6</ele>
        <time>2018-11-24T02:47:36Z</time>
      </trkpt>
      <trkpt lat="42.76884" lon="1.00895">
        <ele>1727.7</ele>
        <time>2018-11-24T02:47:39Z</time>
      </trkpt>
      <trkpt lat="42.76885" lon="1.00898">
        <ele>1727.2</ele>
        <time>2018-11-24T02:47:40Z</time>
      </trkpt>
      <trkpt lat="42.76885" lon="1.00908">
        <ele>1728.6</ele>
        <time>2018-11-24T02:47:43Z</time>
      </trkpt>
      <trkpt lat="42.76886" lon="1.00908">
        <ele>1729.1</ele>
        <time>2018-11-24T02:47:44Z</time>
      </trkpt>
      <trkpt lat="42.76891" lon="1.00915">
        <ele>1731.6</ele>
        <time>2018-11-24T02:47:46Z</time>
      </trkpt>
      <trkpt lat="42.7689" lon="1.00915">
        <ele>1731.5</ele>
        <time>2018-11-24T02:47:47Z</time>
      </trkpt>
      <trkpt lat="42.76888" lon="1.0093">
        <ele>1735.3</ele>
        <time>2018-11-24T02:47:51Z</time>
      </trkpt>
      <trkpt lat="42.76887" lon="1.00934">
        <ele>1736.3</ele>
        <time>2018-11-24T02:47:53Z</time>
      </trkpt>
      <trkpt lat="42.76881" lon="1.00951">
        <ele>1739.7</ele>
        <time>2018-11-24T02:47:58Z</time>
      </trkpt>
      <trkpt lat="42.7688" lon="1.00963">
        <ele>1743.1</ele>
        <time>2018-11-24T02:48:02Z</time>
      </trkpt>
      <trkpt lat="42.76877" lon="1.00968">
        <ele>1744</ele>
        <time>2018-11-24T02:48:04Z</time>
      </trkpt>
      <trkpt lat="42.7688" lon="1.00991">
        <ele>1744.6</ele>
        <time>2018-11-24T02:48:10Z</time>
      </trkpt>
      <trkpt lat="42.76879" lon="1.00992">
        <ele>1744.6</ele>
        <time>2018-11-24T02:48:11Z</time>
      </trkpt>
      <trkpt lat="42.76877" lon="1.00993">
        <ele>1744.5</ele>
        <time>2018-11-24T02:48:12Z</time>
      </trkpt>
      <trkpt lat="42.76873" lon="1.00997">
        <ele>1744.6</ele>
        <time>2018-11-24T02:48:14Z</time>
      </trkpt>
      <trkpt lat="42.76864" lon="1.01015">
        <ele>1746.8</ele>
        <time>2018-11-24T02:48:20Z</time>
      </trkpt>
      <trkpt lat="42.7686" lon="1.01023">
        <ele>1747.4</ele>
        <time>2018-11-24T02:48:23Z</time>
      </trkpt>
      <trkpt lat="42.76859" lon="1.01034">
        <ele>1748.9</ele>
        <time>2018-11-24T02:48:26Z</time>
      </trkpt>
      <trkpt lat="42.76857" lon="1.01045">
        <ele>1750.2</ele>
        <time>2018-11-24T02:48:30Z</time>
      </trkpt>
      <trkpt lat="42.76858" lon="1.01055">
        <ele>1751.7</ele>
        <time>2018-11-24T02:48:33Z</time>
      </trkpt>
      <trkpt lat="42.76855" lon="1.0106">
        <ele>1753.2</ele>
        <time>2018-11-24T02:48:34Z</time>
      </trkpt>
      <trkpt lat="42.76852" lon="1.01065">
        <ele>1754.6</ele>
        <time>2018-11-24T02:48:36Z</time>
      </trkpt>
      <trkpt lat="42.76847" lon="1.01072">
        <ele>1756</ele>
        <time>2018-11-24T02:48:39Z</time>
      </trkpt>
      <trkpt lat="42.7684" lon="1.01076">
        <ele>1757</ele>
        <time>2018-11-24T02:48:42Z</time>
      </trkpt>
      <trkpt lat="42.76835" lon="1.01082">
        <ele>1758</ele>
        <time>2018-11-24T02:48:45Z</time>
      </trkpt>
      <trkpt lat="42.76829" lon="1.01093">
        <ele>1759.9</ele>
        <time>2018-11-24T02:48:49Z</time>
      </trkpt>
      <trkpt lat="42.76824" lon="1.01102">
        <ele>1760.8</ele>
        <time>2018-11-24T02:48:52Z</time>
      </trkpt>
      <trkpt lat="42.76822" lon="1.0111">
        <ele>1761.3</ele>
        <time>2018-11-24T02:48:55Z</time>
      </trkpt>
      <trkpt lat="42.76819" lon="1.01121">
        <ele>1762.8</ele>
        <time>2018-11-24T02:48:58Z</time>
      </trkpt>
      <trkpt lat="42.76813" lon="1.0113">
        <ele>1763.7</ele>
        <time>2018-11-24T02:49:02Z</time>
      </trkpt>
      <trkpt lat="42.76811" lon="1.01137">
        <ele>1765.6</ele>
        <time>2018-11-24T02:49:04Z</time>
      </trkpt>
      <trkpt lat="42.76809" lon="1.01143">
        <ele>1766.6</ele>
        <time>2018-11-24T02:49:06Z</time>
      </trkpt>
      <trkpt lat="42.76807" lon="1.01147">
        <ele>1768.1</ele>
        <time>2018-11-24T02:49:07Z</time>
      </trkpt>
      <trkpt lat="42.76811" lon="1.01146">
        <ele>1768.1</ele>
        <time>2018-11-24T02:49:09Z</time>
      </trkpt>
      <trkpt lat="42.76807" lon="1.01154">
        <ele>1769</ele>
        <time>2018-11-24T02:49:12Z</time>
      </trkpt>
      <trkpt lat="42.76807" lon="1.01163">
        <ele>1770.4</ele>
        <time>2018-11-24T02:49:14Z</time>
      </trkpt>
      <trkpt lat="42.76806" lon="1.0117">
        <ele>1771.5</ele>
        <time>2018-11-24T02:49:16Z</time>
      </trkpt>
      <trkpt lat="42.76803" lon="1.01178">
        <ele>1772.9</ele>
        <time>2018-11-24T02:49:19Z</time>
      </trkpt>
      <trkpt lat="42.76801" lon="1.01187">
        <ele>1774.8</ele>
        <time>2018-11-24T02:49:22Z</time>
      </trkpt>
      <trkpt lat="42.76799" lon="1.01194">
        <ele>1776.3</ele>
        <time>2018-11-24T02:49:24Z</time>
      </trkpt>
      <trkpt lat="42.76798" lon="1.01201">
        <ele>1777.7</ele>
        <time>2018-11-24T02:49:26Z</time>
      </trkpt>
      <trkpt lat="42.76797" lon="1.01207">
        <ele>1779.2</ele>
        <time>2018-11-24T02:49:28Z</time>
      </trkpt>
      <trkpt lat="42.76798" lon="1.01206">
        <ele>1779.5</ele>
        <time>2018-11-24T02:49:29Z</time>
      </trkpt>
      <trkpt lat="42.76801" lon="1.01204">
        <ele>1779.5</ele>
        <time>2018-11-24T02:49:30Z</time>
      </trkpt>
      <trkpt lat="42.768" lon="1.01208">
        <ele>1780.5</ele>
        <time>2018-11-24T02:49:31Z</time>
      </trkpt>
      <trkpt lat="42.76797" lon="1.01213">
        <ele>1781</ele>
        <time>2018-11-24T02:49:33Z</time>
      </trkpt>
      <trkpt lat="42.76792" lon="1.0122">
        <ele>1781.9</ele>
        <time>2018-11-24T02:49:36Z</time>
      </trkpt>
      <trkpt lat="42.76781" lon="1.01232">
        <ele>1784.4</ele>
        <time>2018-11-24T02:49:42Z</time>
      </trkpt>
      <trkpt lat="42.76776" lon="1.01238">
        <ele>1786.9</ele>
        <time>2018-11-24T02:49:44Z</time>
      </trkpt>
      <trkpt lat="42.76775" lon="1.01239">
        <ele>1787.3</ele>
        <time>2018-11-24T02:49:45Z</time>
      </trkpt>
      <trkpt lat="42.76772" lon="1.01247">
        <ele>1789.7</ele>
        <time>2018-11-24T02:49:47Z</time>
      </trkpt>
      <trkpt lat="42.7677" lon="1.01259">
        <ele>1792.6</ele>
        <time>2018-11-24T02:49:51Z</time>
      </trkpt>
      <trkpt lat="42.76767" lon="1.01267">
        <ele>1794</ele>
        <time>2018-11-24T02:49:54Z</time>
      </trkpt>
      <trkpt lat="42.76762" lon="1.01273">
        <ele>1796</ele>
        <time>2018-11-24T02:49:56Z</time>
      </trkpt>
      <trkpt lat="42.76762" lon="1.01281">
        <ele>1798.3</ele>
        <time>2018-11-24T02:49:59Z</time>
      </trkpt>
      <trkpt lat="42.76761" lon="1.01287">
        <ele>1799.7</ele>
        <time>2018-11-24T02:50:00Z</time>
      </trkpt>
      <trkpt lat="42.76754" lon="1.01298">
        <ele>1801.2</ele>
        <time>2018-11-24T02:50:04Z</time>
      </trkpt>
      <trkpt lat="42.76753" lon="1.01306">
        <ele>1804.5</ele>
        <time>2018-11-24T02:50:07Z</time>
      </trkpt>
      <trkpt lat="42.76748" lon="1.0131">
        <ele>1806.1</ele>
        <time>2018-11-24T02:50:09Z</time>
      </trkpt>
      <trkpt lat="42.76745" lon="1.01317">
        <ele>1808</ele>
        <time>2018-11-24T02:50:12Z</time>
      </trkpt>
      <trkpt lat="42.76738" lon="1.01328">
        <ele>1810.9</ele>
        <time>2018-11-24T02:50:16Z</time>
      </trkpt>
      <trkpt lat="42.76732" lon="1.01333">
        <ele>1812.7</ele>
        <time>2018-11-24T02:50:19Z</time>
      </trkpt>
      <trkpt lat="42.76729" lon="1.01343">
        <ele>1815.6</ele>
        <time>2018-11-24T02:50:22Z</time>
      </trkpt>
      <trkpt lat="42.76725" lon="1.01351">
        <ele>1818.1</ele>
        <time>2018-11-24T02:50:25Z</time>
      </trkpt>
      <trkpt lat="42.76724" lon="1.0136">
        <ele>1821</ele>
        <time>2018-11-24T02:50:27Z</time>
      </trkpt>
      <trkpt lat="42.76717" lon="1.01366">
        <ele>1821.8</ele>
        <time>2018-11-24T02:50:30Z</time>
      </trkpt>
      <trkpt lat="42.76706" lon="1.01368">
        <ele>1822.3</ele>
        <time>2018-11-24T02:50:35Z</time>
      </trkpt>
      <trkpt lat="42.76697" lon="1.01374">
        <ele>1823.8</ele>
        <time>2018-11-24T02:50:39Z</time>
      </trkpt>
      <trkpt lat="42.76694" lon="1.01375">
        <ele>1819.4</ele>
        <time>2018-11-24T02:50:40Z</time>
      </trkpt>
      <trkpt lat="42.76694" lon="1.01376">
        <ele>1828.2</ele>
        <time>2018-11-24T02:50:40Z</time>
      </trkpt>
      <trkpt lat="42.76693" lon="1.01376">
        <ele>1824.3</ele>
        <time>2018-11-24T02:50:41Z</time>
      </trkpt>
      <trkpt lat="42.76688" lon="1.0138">
        <ele>1823.8</ele>
        <time>2018-11-24T02:50:43Z</time>
      </trkpt>
      <trkpt lat="42.76681" lon="1.01386">
        <ele>1825.3</ele>
        <time>2018-11-24T02:50:46Z</time>
      </trkpt>
      <trkpt lat="42.76674" lon="1.01396">
        <ele>1826.7</ele>
        <time>2018-11-24T02:50:50Z</time>
      </trkpt>
      <trkpt lat="42.7667" lon="1.01398">
        <ele>1826.7</ele>
        <time>2018-11-24T02:50:52Z</time>
      </trkpt>
      <trkpt lat="42.76665" lon="1.01406">
        <ele>1828.6</ele>
        <time>2018-11-24T02:50:55Z</time>
      </trkpt>
      <trkpt lat="42.76663" lon="1.01412">
        <ele>1829.2</ele>
        <time>2018-11-24T02:50:57Z</time>
      </trkpt>
      <trkpt lat="42.76664" lon="1.01412">
        <ele>1829.1</ele>
        <time>2018-11-24T02:50:57Z</time>
      </trkpt>
      <trkpt lat="42.76659" lon="1.01418">
        <ele>1831.5</ele>
        <time>2018-11-24T02:51:00Z</time>
      </trkpt>
      <trkpt lat="42.76653" lon="1.01423">
        <ele>1831.9</ele>
        <time>2018-11-24T02:51:03Z</time>
      </trkpt>
      <trkpt lat="42.76646" lon="1.01429">
        <ele>1832.5</ele>
        <time>2018-11-24T02:51:06Z</time>
      </trkpt>
      <trkpt lat="42.76637" lon="1.01439">
        <ele>1832.9</ele>
        <time>2018-11-24T02:51:11Z</time>
      </trkpt>
      <trkpt lat="42.76631" lon="1.0145">
        <ele>1834.4</ele>
        <time>2018-11-24T02:51:15Z</time>
      </trkpt>
      <trkpt lat="42.76626" lon="1.01456">
        <ele>1833</ele>
        <time>2018-11-24T02:51:17Z</time>
      </trkpt>
      <trkpt lat="42.76614" lon="1.01464">
        <ele>1832</ele>
        <time>2018-11-24T02:51:23Z</time>
      </trkpt>
      <trkpt lat="42.76612" lon="1.01469">
        <ele>1833</ele>
        <time>2018-11-24T02:51:24Z</time>
      </trkpt>
      <trkpt lat="42.76608" lon="1.01482">
        <ele>1835.8</ele>
        <time>2018-11-24T02:51:29Z</time>
      </trkpt>
      <trkpt lat="42.76603" lon="1.01492">
        <ele>1837.2</ele>
        <time>2018-11-24T02:51:32Z</time>
      </trkpt>
      <trkpt lat="42.76602" lon="1.01504">
        <ele>1838.2</ele>
        <time>2018-11-24T02:51:36Z</time>
      </trkpt>
      <trkpt lat="42.766" lon="1.01502">
        <ele>1838.3</ele>
        <time>2018-11-24T02:51:37Z</time>
      </trkpt>
      <trkpt lat="42.76597" lon="1.01502">
        <ele>1838.2</ele>
        <time>2018-11-24T02:51:38Z</time>
      </trkpt>
      <trkpt lat="42.7659" lon="1.01519">
        <ele>1839.6</ele>
        <time>2018-11-24T02:51:43Z</time>
      </trkpt>
      <trkpt lat="42.76589" lon="1.0153">
        <ele>1841.2</ele>
        <time>2018-11-24T02:51:47Z</time>
      </trkpt>
      <trkpt lat="42.76591" lon="1.01549">
        <ele>1844.5</ele>
        <time>2018-11-24T02:51:53Z</time>
      </trkpt>
      <trkpt lat="42.76591" lon="1.01558">
        <ele>1845.4</ele>
        <time>2018-11-24T02:51:55Z</time>
      </trkpt>
      <trkpt lat="42.76597" lon="1.01569">
        <ele>1846.3</ele>
        <time>2018-11-24T02:51:59Z</time>
      </trkpt>
      <trkpt lat="42.76604" lon="1.01579">
        <ele>1848.3</ele>
        <time>2018-11-24T02:52:03Z</time>
      </trkpt>
      <trkpt lat="42.76608" lon="1.01582">
        <ele>1850.7</ele>
        <time>2018-11-24T02:52:05Z</time>
      </trkpt>
      <trkpt lat="42.76612" lon="1.01589">
        <ele>1851.6</ele>
        <time>2018-11-24T02:52:07Z</time>
      </trkpt>
      <trkpt lat="42.76618" lon="1.01594">
        <ele>1855.1</ele>
        <time>2018-11-24T02:52:10Z</time>
      </trkpt>
      <trkpt lat="42.76623" lon="1.01593">
        <ele>1857</ele>
        <time>2018-11-24T02:52:12Z</time>
      </trkpt>
      <trkpt lat="42.76625" lon="1.01601">
        <ele>1858.8</ele>
        <time>2018-11-24T02:52:15Z</time>
      </trkpt>
      <trkpt lat="42.76631" lon="1.01606">
        <ele>1861.7</ele>
        <time>2018-11-24T02:52:17Z</time>
      </trkpt>
      <trkpt lat="42.76634" lon="1.01616">
        <ele>1863.7</ele>
        <time>2018-11-24T02:52:20Z</time>
      </trkpt>
      <trkpt lat="42.76637" lon="1.01619">
        <ele>1865.2</ele>
        <time>2018-11-24T02:52:22Z</time>
      </trkpt>
      <trkpt lat="42.7664" lon="1.01622">
        <ele>1867.5</ele>
        <time>2018-11-24T02:52:24Z</time>
      </trkpt>
      <trkpt lat="42.76646" lon="1.01621">
        <ele>1869.5</ele>
        <time>2018-11-24T02:52:26Z</time>
      </trkpt>
      <trkpt lat="42.76648" lon="1.01618">
        <ele>1870.5</ele>
        <time>2018-11-24T02:52:27Z</time>
      </trkpt>
      <trkpt lat="42.76655" lon="1.01619">
        <ele>1872.3</ele>
        <time>2018-11-24T02:52:30Z</time>
      </trkpt>
      <trkpt lat="42.76659" lon="1.01622">
        <ele>1874.3</ele>
        <time>2018-11-24T02:52:32Z</time>
      </trkpt>
      <trkpt lat="42.76661" lon="1.01619">
        <ele>1874.7</ele>
        <time>2018-11-24T02:52:33Z</time>
      </trkpt>
      <trkpt lat="42.76669" lon="1.01619">
        <ele>1877.2</ele>
        <time>2018-11-24T02:52:36Z</time>
      </trkpt>
      <trkpt lat="42.76672" lon="1.01621">
        <ele>1878.5</ele>
        <time>2018-11-24T02:52:38Z</time>
      </trkpt>
      <trkpt lat="42.76679" lon="1.01618">
        <ele>1880.5</ele>
        <time>2018-11-24T02:52:41Z</time>
      </trkpt>
      <trkpt lat="42.76679" lon="1.01628">
        <ele>1882.9</ele>
        <time>2018-11-24T02:52:44Z</time>
      </trkpt>
      <trkpt lat="42.76679" lon="1.0163">
        <ele>1882.9</ele>
        <time>2018-11-24T02:52:44Z</time>
      </trkpt>
      <trkpt lat="42.76673" lon="1.01656">
        <ele>1884.9</ele>
        <time>2018-11-24T02:52:52Z</time>
      </trkpt>
      <trkpt lat="42.76672" lon="1.01659">
        <ele>1885.9</ele>
        <time>2018-11-24T02:52:53Z</time>
      </trkpt>
      <trkpt lat="42.76672" lon="1.0166">
        <ele>1885.8</ele>
        <time>2018-11-24T02:52:54Z</time>
      </trkpt>
      <trkpt lat="42.76667" lon="1.01677">
        <ele>1887.2</ele>
        <time>2018-11-24T02:52:59Z</time>
      </trkpt>
      <trkpt lat="42.76666" lon="1.01685">
        <ele>1887.8</ele>
        <time>2018-11-24T02:53:01Z</time>
      </trkpt>
      <trkpt lat="42.76671" lon="1.01702">
        <ele>1890.2</ele>
        <time>2018-11-24T02:53:07Z</time>
      </trkpt>
      <trkpt lat="42.76671" lon="1.0171">
        <ele>1890.1</ele>
        <time>2018-11-24T02:53:09Z</time>
      </trkpt>
      <trkpt lat="42.7667" lon="1.01724">
        <ele>1892.6</ele>
        <time>2018-11-24T02:53:13Z</time>
      </trkpt>
      <trkpt lat="42.76667" lon="1.01739">
        <ele>1893.9</ele>
        <time>2018-11-24T02:53:18Z</time>
      </trkpt>
      <trkpt lat="42.76666" lon="1.01754">
        <ele>1895.5</ele>
        <time>2018-11-24T02:53:22Z</time>
      </trkpt>
      <trkpt lat="42.76665" lon="1.01767">
        <ele>1897.3</ele>
        <time>2018-11-24T02:53:26Z</time>
      </trkpt>
      <trkpt lat="42.76664" lon="1.0178">
        <ele>1898.7</ele>
        <time>2018-11-24T02:53:30Z</time>
      </trkpt>
      <trkpt lat="42.76662" lon="1.01796">
        <ele>1899.7</ele>
        <time>2018-11-24T02:53:35Z</time>
      </trkpt>
      <trkpt lat="42.76656" lon="1.01819">
        <ele>1901.2</ele>
        <time>2018-11-24T02:53:42Z</time>
      </trkpt>
      <trkpt lat="42.76653" lon="1.01838">
        <ele>1903.1</ele>
        <time>2018-11-24T02:53:47Z</time>
      </trkpt>
      <trkpt lat="42.76653" lon="1.01844">
        <ele>1904.6</ele>
        <time>2018-11-24T02:53:49Z</time>
      </trkpt>
      <trkpt lat="42.76653" lon="1.01848">
        <ele>1904.5</ele>
        <time>2018-11-24T02:53:50Z</time>
      </trkpt>
      <trkpt lat="42.76653" lon="1.01863">
        <ele>1905.6</ele>
        <time>2018-11-24T02:53:55Z</time>
      </trkpt>
      <trkpt lat="42.76653" lon="1.0187">
        <ele>1905.5</ele>
        <time>2018-11-24T02:53:57Z</time>
      </trkpt>
      <trkpt lat="42.76652" lon="1.019">
        <ele>1906.5</ele>
        <time>2018-11-24T02:54:06Z</time>
      </trkpt>
      <trkpt lat="42.76652" lon="1.01914">
        <ele>1907.4</ele>
        <time>2018-11-24T02:54:10Z</time>
      </trkpt>
      <trkpt lat="42.76655" lon="1.01928">
        <ele>1910.8</ele>
        <time>2018-11-24T02:54:14Z</time>
      </trkpt>
      <trkpt lat="42.76653" lon="1.01942">
        <ele>1910.3</ele>
        <time>2018-11-24T02:54:18Z</time>
      </trkpt>
      <trkpt lat="42.76647" lon="1.0195">
        <ele>1910.3</ele>
        <time>2018-11-24T02:54:22Z</time>
      </trkpt>
      <trkpt lat="42.76644" lon="1.01969">
        <ele>1911.8</ele>
        <time>2018-11-24T02:54:27Z</time>
      </trkpt>
      <trkpt lat="42.76638" lon="1.01991">
        <ele>1913.7</ele>
        <time>2018-11-24T02:54:34Z</time>
      </trkpt>
      <trkpt lat="42.76627" lon="1.02011">
        <ele>1913.6</ele>
        <time>2018-11-24T02:54:41Z</time>
      </trkpt>
      <trkpt lat="42.76627" lon="1.02012">
        <ele>1913.6</ele>
        <time>2018-11-24T02:54:42Z</time>
      </trkpt>
      <trkpt lat="42.76621" lon="1.02026">
        <ele>1912.3</ele>
        <time>2018-11-24T02:54:47Z</time>
      </trkpt>
      <trkpt lat="42.76612" lon="1.02049">
        <ele>1912.3</ele>
        <time>2018-11-24T02:54:54Z</time>
      </trkpt>
      <trkpt lat="42.76607" lon="1.02064">
        <ele>1909.3</ele>
        <time>2018-11-24T02:54:59Z</time>
      </trkpt>
      <trkpt lat="42.76607" lon="1.02087">
        <ele>1908</ele>
        <time>2018-11-24T02:55:06Z</time>
      </trkpt>
      <trkpt lat="42.76608" lon="1.02097">
        <ele>1909.4</ele>
        <time>2018-11-24T02:55:09Z</time>
      </trkpt>
      <trkpt lat="42.76602" lon="1.02115">
        <ele>1910.3</ele>
        <time>2018-11-24T02:55:15Z</time>
      </trkpt>
      <trkpt lat="42.76587" lon="1.02139">
        <ele>1911.7</ele>
        <time>2018-11-24T02:55:24Z</time>
      </trkpt>
      <trkpt lat="42.76586" lon="1.02142">
        <ele>1911.7</ele>
        <time>2018-11-24T02:55:25Z</time>
      </trkpt>
      <trkpt lat="42.76583" lon="1.02162">
        <ele>1913.7</ele>
        <time>2018-11-24T02:55:31Z</time>
      </trkpt>
      <trkpt lat="42.76579" lon="1.02175">
        <ele>1914.2</ele>
        <time>2018-11-24T02:55:35Z</time>
      </trkpt>
      <trkpt lat="42.7658" lon="1.02188">
        <ele>1915.1</ele>
        <time>2018-11-24T02:55:39Z</time>
      </trkpt>
      <trkpt lat="42.76584" lon="1.02204">
        <ele>1918</ele>
        <time>2018-11-24T02:55:44Z</time>
      </trkpt>
      <trkpt lat="42.76588" lon="1.02225">
        <ele>1920.9</ele>
        <time>2018-11-24T02:55:50Z</time>
      </trkpt>
      <trkpt lat="42.76589" lon="1.02245">
        <ele>1924.3</ele>
        <time>2018-11-24T02:55:56Z</time>
      </trkpt>
      <trkpt lat="42.76597" lon="1.0225">
        <ele>1926.6</ele>
        <time>2018-11-24T02:56:00Z</time>
      </trkpt>
      <trkpt lat="42.76603" lon="1.02262">
        <ele>1930.1</ele>
        <time>2018-11-24T02:56:04Z</time>
      </trkpt>
      <trkpt lat="42.76606" lon="1.02275">
        <ele>1933</ele>
        <time>2018-11-24T02:56:08Z</time>
      </trkpt>
      <trkpt lat="42.76604" lon="1.02286">
        <ele>1935.8</ele>
        <time>2018-11-24T02:56:11Z</time>
      </trkpt>
      <trkpt lat="42.76595" lon="1.02294">
        <ele>1936.7</ele>
        <time>2018-11-24T02:56:15Z</time>
      </trkpt>
      <trkpt lat="42.76589" lon="1.02305">
        <ele>1938.2</ele>
        <time>2018-11-24T02:56:19Z</time>
      </trkpt>
      <trkpt lat="42.76587" lon="1.0231">
        <ele>1940.6</ele>
        <time>2018-11-24T02:56:21Z</time>
      </trkpt>
      <trkpt lat="42.76581" lon="1.02315">
        <ele>1941.1</ele>
        <time>2018-11-24T02:56:24Z</time>
      </trkpt>
      <trkpt lat="42.76574" lon="1.02312">
        <ele>1942.5</ele>
        <time>2018-11-24T02:56:27Z</time>
      </trkpt>
      <trkpt lat="42.76571" lon="1.02309">
        <ele>1943.1</ele>
        <time>2018-11-24T02:56:28Z</time>
      </trkpt>
      <trkpt lat="42.76573" lon="1.0232">
        <ele>1945.9</ele>
        <time>2018-11-24T02:56:32Z</time>
      </trkpt>
      <trkpt lat="42.7657" lon="1.02322">
        <ele>1945.9</ele>
        <time>2018-11-24T02:56:33Z</time>
      </trkpt>
      <trkpt lat="42.76567" lon="1.02327">
        <ele>1948.4</ele>
        <time>2018-11-24T02:56:35Z</time>
      </trkpt>
      <trkpt lat="42.76566" lon="1.02341">
        <ele>1951.1</ele>
        <time>2018-11-24T02:56:39Z</time>
      </trkpt>
      <trkpt lat="42.76568" lon="1.02342">
        <ele>1951.6</ele>
        <time>2018-11-24T02:56:40Z</time>
      </trkpt>
      <trkpt lat="42.76571" lon="1.02362">
        <ele>1954</ele>
        <time>2018-11-24T02:56:46Z</time>
      </trkpt>
      <trkpt lat="42.76568" lon="1.02377">
        <ele>1956.4</ele>
        <time>2018-11-24T02:56:50Z</time>
      </trkpt>
      <trkpt lat="42.7656" lon="1.02393">
        <ele>1957.4</ele>
        <time>2018-11-24T02:56:56Z</time>
      </trkpt>
      <trkpt lat="42.76552" lon="1.02409">
        <ele>1958.3</ele>
        <time>2018-11-24T02:57:02Z</time>
      </trkpt>
      <trkpt lat="42.76545" lon="1.02422">
        <ele>1958.4</ele>
        <time>2018-11-24T02:57:07Z</time>
      </trkpt>
      <trkpt lat="42.76542" lon="1.02441">
        <ele>1960.3</ele>
        <time>2018-11-24T02:57:12Z</time>
      </trkpt>
      <trkpt lat="42.76533" lon="1.02444">
        <ele>1962.3</ele>
        <time>2018-11-24T02:57:16Z</time>
      </trkpt>
      <trkpt lat="42.76534" lon="1.02448">
        <ele>1963.2</ele>
        <time>2018-11-24T02:57:17Z</time>
      </trkpt>
      <trkpt lat="42.76534" lon="1.02456">
        <ele>1966.1</ele>
        <time>2018-11-24T02:57:19Z</time>
      </trkpt>
      <trkpt lat="42.76528" lon="1.02473">
        <ele>1968.1</ele>
        <time>2018-11-24T02:57:25Z</time>
      </trkpt>
      <trkpt lat="42.76523" lon="1.0249">
        <ele>1966.1</ele>
        <time>2018-11-24T02:57:30Z</time>
      </trkpt>
      <trkpt lat="42.76523" lon="1.02503">
        <ele>1967.6</ele>
        <time>2018-11-24T02:57:34Z</time>
      </trkpt>
      <trkpt lat="42.76526" lon="1.02515">
        <ele>1969</ele>
        <time>2018-11-24T02:57:38Z</time>
      </trkpt>
      <trkpt lat="42.76532" lon="1.02521">
        <ele>1968.9</ele>
        <time>2018-11-24T02:57:41Z</time>
      </trkpt>
      <trkpt lat="42.76537" lon="1.02524">
        <ele>1968</ele>
        <time>2018-11-24T02:57:43Z</time>
      </trkpt>
      <trkpt lat="42.76539" lon="1.02526">
        <ele>1968.1</ele>
        <time>2018-11-24T02:57:44Z</time>
      </trkpt>
      <trkpt lat="42.7654" lon="1.02524">
        <ele>1968</ele>
        <time>2018-11-24T02:57:44Z</time>
      </trkpt>
      <trkpt lat="42.76541" lon="1.02524">
        <ele>1968</ele>
        <time>2018-11-24T02:57:45Z</time>
      </trkpt>
      <trkpt lat="42.7654" lon="1.02525">
        <ele>1967.6</ele>
        <time>2018-11-24T02:57:45Z</time>
      </trkpt>
      <trkpt lat="42.7654" lon="1.02524">
        <ele>1967.6</ele>
        <time>2018-11-24T02:57:46Z</time>
      </trkpt>
      <trkpt lat="42.76539" lon="1.02525">
        <ele>1968.1</ele>
        <time>2018-11-24T02:57:46Z</time>
      </trkpt>
      <trkpt lat="42.76542" lon="1.02521">
        <ele>1968.1</ele>
        <time>2018-11-24T02:57:48Z</time>
      </trkpt>
      <trkpt lat="42.76543" lon="1.02524">
        <ele>1968.1</ele>
        <time>2018-11-24T02:57:48Z</time>
      </trkpt>
      <trkpt lat="42.76543" lon="1.02521">
        <ele>1968.1</ele>
        <time>2018-11-24T02:57:49Z</time>
      </trkpt>
      <trkpt lat="42.76543" lon="1.02522">
        <ele>1968</ele>
        <time>2018-11-24T02:57:49Z</time>
      </trkpt>
      <trkpt lat="42.76548" lon="1.02533">
        <ele>1967</ele>
        <time>2018-11-24T02:57:53Z</time>
      </trkpt>
      <trkpt lat="42.76549" lon="1.02536">
        <ele>1966.5</ele>
        <time>2018-11-24T02:57:54Z</time>
      </trkpt>
      <trkpt lat="42.76556" lon="1.02546">
        <ele>1963.6</ele>
        <time>2018-11-24T02:57:58Z</time>
      </trkpt>
      <trkpt lat="42.7656" lon="1.02538">
        <ele>1960.3</ele>
        <time>2018-11-24T02:58:01Z</time>
      </trkpt>
      <trkpt lat="42.76565" lon="1.02538">
        <ele>1957.4</ele>
        <time>2018-11-24T02:58:03Z</time>
      </trkpt>
      <trkpt lat="42.76571" lon="1.02538">
        <ele>1955.1</ele>
        <time>2018-11-24T02:58:05Z</time>
      </trkpt>
      <trkpt lat="42.76577" lon="1.02542">
        <ele>1951.2</ele>
        <time>2018-11-24T02:58:08Z</time>
      </trkpt>
      <trkpt lat="42.76583" lon="1.02544">
        <ele>1947.9</ele>
        <time>2018-11-24T02:58:10Z</time>
      </trkpt>
      <trkpt lat="42.76587" lon="1.02549">
        <ele>1944.5</ele>
        <time>2018-11-24T02:58:12Z</time>
      </trkpt>
      <trkpt lat="42.76588" lon="1.02549">
        <ele>1944</ele>
        <time>2018-11-24T02:58:13Z</time>
      </trkpt>
      <trkpt lat="42.76592" lon="1.02547">
        <ele>1942.5</ele>
        <time>2018-11-24T02:58:14Z</time>
      </trkpt>
      <trkpt lat="42.76599" lon="1.02552">
        <ele>1939.1</ele>
        <time>2018-11-24T02:58:18Z</time>
      </trkpt>
      <trkpt lat="42.76605" lon="1.02555">
        <ele>1935.8</ele>
        <time>2018-11-24T02:58:20Z</time>
      </trkpt>
      <trkpt lat="42.76608" lon="1.02556">
        <ele>1934.3</ele>
        <time>2018-11-24T02:58:22Z</time>
      </trkpt>
      <trkpt lat="42.76617" lon="1.02557">
        <ele>1930.9</ele>
        <time>2018-11-24T02:58:25Z</time>
      </trkpt>
      <trkpt lat="42.76627" lon="1.02556">
        <ele>1927.6</ele>
        <time>2018-11-24T02:58:29Z</time>
      </trkpt>
      <trkpt lat="42.76628" lon="1.02556">
        <ele>1927.6</ele>
        <time>2018-11-24T02:58:30Z</time>
      </trkpt>
      <trkpt lat="42.76634" lon="1.02556">
        <ele>1926.1</ele>
        <time>2018-11-24T02:58:32Z</time>
      </trkpt>
      <trkpt lat="42.76638" lon="1.02559">
        <ele>1924.7</ele>
        <time>2018-11-24T02:58:34Z</time>
      </trkpt>
      <trkpt lat="42.76641" lon="1.02562">
        <ele>1923.7</ele>
        <time>2018-11-24T02:58:35Z</time>
      </trkpt>
      <trkpt lat="42.76655" lon="1.02568">
        <ele>1920.4</ele>
        <time>2018-11-24T02:58:41Z</time>
      </trkpt>
      <trkpt lat="42.76673" lon="1.02581">
        <ele>1918.1</ele>
        <time>2018-11-24T02:58:49Z</time>
      </trkpt>
      <trkpt lat="42.7668" lon="1.02583">
        <ele>1917.6</ele>
        <time>2018-11-24T02:58:52Z</time>
      </trkpt>
      <trkpt lat="42.76701" lon="1.02588">
        <ele>1916.1</ele>
        <time>2018-11-24T02:59:01Z</time>
      </trkpt>
      <trkpt lat="42.76722" lon="1.02593">
        <ele>1916</ele>
        <time>2018-11-24T02:59:09Z</time>
      </trkpt>
      <trkpt lat="42.76727" lon="1.02596">
        <ele>1917.5</ele>
        <time>2018-11-24T02:59:11Z</time>
      </trkpt>
      <trkpt lat="42.76739" lon="1.02613">
        <ele>1918.5</ele>
        <time>2018-11-24T02:59:18Z</time>
      </trkpt>
      <trkpt lat="42.76748" lon="1.02616">
        <ele>1921.4</ele>
        <time>2018-11-24T02:59:22Z</time>
      </trkpt>
      <trkpt lat="42.76759" lon="1.02621">
        <ele>1921.3</ele>
        <time>2018-11-24T02:59:27Z</time>
      </trkpt>
      <trkpt lat="42.76765" lon="1.02623">
        <ele>1921.3</ele>
        <time>2018-11-24T02:59:29Z</time>
      </trkpt>
      <trkpt lat="42.76768" lon="1.02625">
        <ele>1920</ele>
        <time>2018-11-24T02:59:30Z</time>
      </trkpt>
      <trkpt lat="42.76789" lon="1.02635">
        <ele>1919.9</ele>
        <time>2018-11-24T02:59:39Z</time>
      </trkpt>
      <trkpt lat="42.76793" lon="1.02637">
        <ele>1921.4</ele>
        <time>2018-11-24T02:59:41Z</time>
      </trkpt>
      <trkpt lat="42.7681" lon="1.02646">
        <ele>1923.4</ele>
        <time>2018-11-24T02:59:48Z</time>
      </trkpt>
      <trkpt lat="42.76819" lon="1.02653">
        <ele>1924.2</ele>
        <time>2018-11-24T02:59:53Z</time>
      </trkpt>
      <trkpt lat="42.76824" lon="1.02661">
        <ele>1924.3</ele>
        <time>2018-11-24T02:59:56Z</time>
      </trkpt>
      <trkpt lat="42.76826" lon="1.02663">
        <ele>1924.2</ele>
        <time>2018-11-24T02:59:57Z</time>
      </trkpt>
      <trkpt lat="42.76828" lon="1.02668">
        <ele>1924.2</ele>
        <time>2018-11-24T02:59:58Z</time>
      </trkpt>
      <trkpt lat="42.76832" lon="1.02673">
        <ele>1924.3</ele>
        <time>2018-11-24T03:00:01Z</time>
      </trkpt>
      <trkpt lat="42.76841" lon="1.02685">
        <ele>1924.7</ele>
        <time>2018-11-24T03:00:06Z</time>
      </trkpt>
      <trkpt lat="42.76854" lon="1.02698">
        <ele>1925.2</ele>
        <time>2018-11-24T03:00:12Z</time>
      </trkpt>
      <trkpt lat="42.76857" lon="1.02705">
        <ele>1923.8</ele>
        <time>2018-11-24T03:00:15Z</time>
      </trkpt>
      <trkpt lat="42.76863" lon="1.02711">
        <ele>1925.3</ele>
        <time>2018-11-24T03:00:17Z</time>
      </trkpt>
      <trkpt lat="42.7687" lon="1.02727">
        <ele>1926.2</ele>
        <time>2018-11-24T03:00:23Z</time>
      </trkpt>
      <trkpt lat="42.76869" lon="1.02734">
        <ele>1926.2</ele>
        <time>2018-11-24T03:00:25Z</time>
      </trkpt>
      <trkpt lat="42.76866" lon="1.02751">
        <ele>1928.2</ele>
        <time>2018-11-24T03:00:30Z</time>
      </trkpt>
      <trkpt lat="42.76867" lon="1.02753">
        <ele>1928.1</ele>
        <time>2018-11-24T03:00:31Z</time>
      </trkpt>
      <trkpt lat="42.76872" lon="1.02768">
        <ele>1929</ele>
        <time>2018-11-24T03:00:36Z</time>
      </trkpt>
      <trkpt lat="42.76876" lon="1.02781">
        <ele>1931.9</ele>
        <time>2018-11-24T03:00:40Z</time>
      </trkpt>
      <trkpt lat="42.76883" lon="1.02785">
        <ele>1935.3</ele>
        <time>2018-11-24T03:00:42Z</time>
      </trkpt>
      <trkpt lat="42.7689" lon="1.02784">
        <ele>1937.2</ele>
        <time>2018-11-24T03:00:45Z</time>
      </trkpt>
      <trkpt lat="42.76899" lon="1.02792">
        <ele>1938.3</ele>
        <time>2018-11-24T03:00:50Z</time>
      </trkpt>
      <trkpt lat="42.76904" lon="1.02805">
        <ele>1938.6</ele>
        <time>2018-11-24T03:00:54Z</time>
      </trkpt>
      <trkpt lat="42.76913" lon="1.02812">
        <ele>1939.1</ele>
        <time>2018-11-24T03:00:58Z</time>
      </trkpt>
      <trkpt lat="42.76919" lon="1.0281">
        <ele>1939.2</ele>
        <time>2018-11-24T03:01:01Z</time>
      </trkpt>
      <trkpt lat="42.76927" lon="1.02817">
        <ele>1942</ele>
        <time>2018-11-24T03:01:04Z</time>
      </trkpt>
      <trkpt lat="42.76937" lon="1.02824">
        <ele>1945.4</ele>
        <time>2018-11-24T03:01:09Z</time>
      </trkpt>
      <trkpt lat="42.76946" lon="1.02825">
        <ele>1947.8</ele>
        <time>2018-11-24T03:01:13Z</time>
      </trkpt>
      <trkpt lat="42.76953" lon="1.0282">
        <ele>1948.4</ele>
        <time>2018-11-24T03:01:16Z</time>
      </trkpt>
      <trkpt lat="42.76965" lon="1.02817">
        <ele>1948.7</ele>
        <time>2018-11-24T03:01:21Z</time>
      </trkpt>
      <trkpt lat="42.76965" lon="1.02804">
        <ele>1950.2</ele>
        <time>2018-11-24T03:01:24Z</time>
      </trkpt>
      <trkpt lat="42.76961" lon="1.02792">
        <ele>1952.6</ele>
        <time>2018-11-24T03:01:28Z</time>
      </trkpt>
      <trkpt lat="42.76966" lon="1.02785">
        <ele>1955.1</ele>
        <time>2018-11-24T03:01:32Z</time>
      </trkpt>
      <trkpt lat="42.76979" lon="1.02785">
        <ele>1957</ele>
        <time>2018-11-24T03:01:37Z</time>
      </trkpt>
      <trkpt lat="42.76989" lon="1.0279">
        <ele>1960.3</ele>
        <time>2018-11-24T03:01:41Z</time>
      </trkpt>
      <trkpt lat="42.76998" lon="1.02795">
        <ele>1963.6</ele>
        <time>2018-11-24T03:01:45Z</time>
      </trkpt>
      <trkpt lat="42.77006" lon="1.02801">
        <ele>1966.1</ele>
        <time>2018-11-24T03:01:48Z</time>
      </trkpt>
      <trkpt lat="42.77014" lon="1.02802">
        <ele>1969.5</ele>
        <time>2018-11-24T03:01:52Z</time>
      </trkpt>
      <trkpt lat="42.77018" lon="1.02802">
        <ele>1971.4</ele>
        <time>2018-11-24T03:01:53Z</time>
      </trkpt>
      <trkpt lat="42.77023" lon="1.02812">
        <ele>1975.3</ele>
        <time>2018-11-24T03:01:57Z</time>
      </trkpt>
      <trkpt lat="42.77024" lon="1.02812">
        <ele>1975.2</ele>
        <time>2018-11-24T03:01:57Z</time>
      </trkpt>
      <trkpt lat="42.77024" lon="1.02808">
        <ele>1975.2</ele>
        <time>2018-11-24T03:01:58Z</time>
      </trkpt>
      <trkpt lat="42.77029" lon="1.02812">
        <ele>1976.6</ele>
        <time>2018-11-24T03:02:00Z</time>
      </trkpt>
      <trkpt lat="42.77036" lon="1.02819">
        <ele>1979</ele>
        <time>2018-11-24T03:02:04Z</time>
      </trkpt>
      <trkpt lat="42.77036" lon="1.02827">
        <ele>1979.6</ele>
        <time>2018-11-24T03:02:07Z</time>
      </trkpt>
      <trkpt lat="42.77035" lon="1.02832">
        <ele>1980</ele>
        <time>2018-11-24T03:02:08Z</time>
      </trkpt>
      <trkpt lat="42.77041" lon="1.02837">
        <ele>1983</ele>
        <time>2018-11-24T03:02:11Z</time>
      </trkpt>
      <trkpt lat="42.7705" lon="1.02838">
        <ele>1986.2</ele>
        <time>2018-11-24T03:02:14Z</time>
      </trkpt>
      <trkpt lat="42.77059" lon="1.02841">
        <ele>1989.7</ele>
        <time>2018-11-24T03:02:18Z</time>
      </trkpt>
      <trkpt lat="42.77067" lon="1.02841">
        <ele>1992.1</ele>
        <time>2018-11-24T03:02:21Z</time>
      </trkpt>
      <trkpt lat="42.77078" lon="1.02837">
        <ele>1993.9</ele>
        <time>2018-11-24T03:02:26Z</time>
      </trkpt>
      <trkpt lat="42.77089" lon="1.02828">
        <ele>1996.9</ele>
        <time>2018-11-24T03:02:31Z</time>
      </trkpt>
      <trkpt lat="42.77096" lon="1.02828">
        <ele>1998.8</ele>
        <time>2018-11-24T03:02:34Z</time>
      </trkpt>
      <trkpt lat="42.77098" lon="1.02829">
        <ele>1998.7</ele>
        <time>2018-11-24T03:02:35Z</time>
      </trkpt>
      <trkpt lat="42.7711" lon="1.02829">
        <ele>2000.6</ele>
        <time>2018-11-24T03:02:39Z</time>
      </trkpt>
      <trkpt lat="42.77119" lon="1.02827">
        <ele>2004</ele>
        <time>2018-11-24T03:02:43Z</time>
      </trkpt>
      <trkpt lat="42.77118" lon="1.02837">
        <ele>2005.6</ele>
        <time>2018-11-24T03:02:46Z</time>
      </trkpt>
      <trkpt lat="42.77116" lon="1.02848">
        <ele>2008.3</ele>
        <time>2018-11-24T03:02:49Z</time>
      </trkpt>
      <trkpt lat="42.77117" lon="1.02857">
        <ele>2009.4</ele>
        <time>2018-11-24T03:02:52Z</time>
      </trkpt>
      <trkpt lat="42.77115" lon="1.02867">
        <ele>2012.3</ele>
        <time>2018-11-24T03:02:55Z</time>
      </trkpt>
      <trkpt lat="42.77119" lon="1.02874">
        <ele>2015.1</ele>
        <time>2018-11-24T03:02:57Z</time>
      </trkpt>
      <trkpt lat="42.77117" lon="1.0289">
        <ele>2017.6</ele>
        <time>2018-11-24T03:03:02Z</time>
      </trkpt>
      <trkpt lat="42.77121" lon="1.02902">
        <ele>2016.5</ele>
        <time>2018-11-24T03:03:06Z</time>
      </trkpt>
      <trkpt lat="42.77128" lon="1.02919">
        <ele>2016.1</ele>
        <time>2018-11-24T03:03:12Z</time>
      </trkpt>
      <trkpt lat="42.77129" lon="1.02924">
        <ele>2016.1</ele>
        <time>2018-11-24T03:03:13Z</time>
      </trkpt>
      <trkpt lat="42.77133" lon="1.02936">
        <ele>2017.5</ele>
        <time>2018-11-24T03:03:17Z</time>
      </trkpt>
      <trkpt lat="42.77139" lon="1.02949">
        <ele>2020.8</ele>
        <time>2018-11-24T03:03:22Z</time>
      </trkpt>
      <trkpt lat="42.77149" lon="1.02957">
        <ele>2024.2</ele>
        <time>2018-11-24T03:03:26Z</time>
      </trkpt>
      <trkpt lat="42.77152" lon="1.02957">
        <ele>2024.7</ele>
        <time>2018-11-24T03:03:28Z</time>
      </trkpt>
      <trkpt lat="42.77154" lon="1.02963">
        <ele>2024.7</ele>
        <time>2018-11-24T03:03:30Z</time>
      </trkpt>
      <trkpt lat="42.77162" lon="1.02979">
        <ele>2025.2</ele>
        <time>2018-11-24T03:03:35Z</time>
      </trkpt>
      <trkpt lat="42.77163" lon="1.02996">
        <ele>2027.2</ele>
        <time>2018-11-24T03:03:40Z</time>
      </trkpt>
      <trkpt lat="42.77169" lon="1.03009">
        <ele>2027.2</ele>
        <time>2018-11-24T03:03:45Z</time>
      </trkpt>
      <trkpt lat="42.77172" lon="1.03012">
        <ele>2027.2</ele>
        <time>2018-11-24T03:03:46Z</time>
      </trkpt>
      <trkpt lat="42.77181" lon="1.03017">
        <ele>2029.5</ele>
        <time>2018-11-24T03:03:50Z</time>
      </trkpt>
      <trkpt lat="42.77186" lon="1.03017">
        <ele>2030.5</ele>
        <time>2018-11-24T03:03:52Z</time>
      </trkpt>
      <trkpt lat="42.77187" lon="1.03019">
        <ele>2030.5</ele>
        <time>2018-11-24T03:03:53Z</time>
      </trkpt>
      <trkpt lat="42.77202" lon="1.03043">
        <ele>2032.4</ele>
        <time>2018-11-24T03:04:02Z</time>
      </trkpt>
      <trkpt lat="42.7721" lon="1.03057">
        <ele>2035.7</ele>
        <time>2018-11-24T03:04:07Z</time>
      </trkpt>
      <trkpt lat="42.7722" lon="1.03057">
        <ele>2038.6</ele>
        <time>2018-11-24T03:04:11Z</time>
      </trkpt>
      <trkpt lat="42.77227" lon="1.0307">
        <ele>2041.6</ele>
        <time>2018-11-24T03:04:16Z</time>
      </trkpt>
      <trkpt lat="42.77229" lon="1.03078">
        <ele>2044.5</ele>
        <time>2018-11-24T03:04:19Z</time>
      </trkpt>
      <trkpt lat="42.77229" lon="1.03087">
        <ele>2046.9</ele>
        <time>2018-11-24T03:04:21Z</time>
      </trkpt>
      <trkpt lat="42.77228" lon="1.03085">
        <ele>2047.4</ele>
        <time>2018-11-24T03:04:22Z</time>
      </trkpt>
      <trkpt lat="42.77229" lon="1.03089">
        <ele>2047.4</ele>
        <time>2018-11-24T03:04:23Z</time>
      </trkpt>
      <trkpt lat="42.77234" lon="1.03105">
        <ele>2050.2</ele>
        <time>2018-11-24T03:04:29Z</time>
      </trkpt>
      <trkpt lat="42.77242" lon="1.03113">
        <ele>2053.1</ele>
        <time>2018-11-24T03:04:32Z</time>
      </trkpt>
      <trkpt lat="42.77239" lon="1.03127">
        <ele>2055.4</ele>
        <time>2018-11-24T03:04:37Z</time>
      </trkpt>
      <trkpt lat="42.77238" lon="1.03139">
        <ele>2058.9</ele>
        <time>2018-11-24T03:04:40Z</time>
      </trkpt>
      <trkpt lat="42.77239" lon="1.03139">
        <ele>2058.8</ele>
        <time>2018-11-24T03:04:40Z</time>
      </trkpt>
      <trkpt lat="42.77247" lon="1.03141">
        <ele>2061.7</ele>
        <time>2018-11-24T03:04:44Z</time>
      </trkpt>
      <trkpt lat="42.77258" lon="1.03141">
        <ele>2064.1</ele>
        <time>2018-11-24T03:04:48Z</time>
      </trkpt>
      <trkpt lat="42.77262" lon="1.03146">
        <ele>2065.1</ele>
        <time>2018-11-24T03:04:50Z</time>
      </trkpt>
      <trkpt lat="42.77275" lon="1.03145">
        <ele>2066</ele>
        <time>2018-11-24T03:04:56Z</time>
      </trkpt>
      <trkpt lat="42.77279" lon="1.03152">
        <ele>2067.4</ele>
        <time>2018-11-24T03:04:58Z</time>
      </trkpt>
      <trkpt lat="42.77283" lon="1.03154">
        <ele>2067.4</ele>
        <time>2018-11-24T03:05:00Z</time>
      </trkpt>
      <trkpt lat="42.77285" lon="1.03155">
        <ele>2067.4</ele>
        <time>2018-11-24T03:05:01Z</time>
      </trkpt>
      <trkpt lat="42.77288" lon="1.03148">
        <ele>2066.6</ele>
        <time>2018-11-24T03:05:03Z</time>
      </trkpt>
      <trkpt lat="42.77287" lon="1.0315">
        <ele>2066.6</ele>
        <time>2018-11-24T03:05:04Z</time>
      </trkpt>
      <trkpt lat="42.77288" lon="1.03155">
        <ele>2066.5</ele>
        <time>2018-11-24T03:05:05Z</time>
      </trkpt>
      <trkpt lat="42.7729" lon="1.03155">
        <ele>2067.1</ele>
        <time>2018-11-24T03:05:06Z</time>
      </trkpt>
      <trkpt lat="42.77292" lon="1.03156">
        <ele>2067</ele>
        <time>2018-11-24T03:05:08Z</time>
      </trkpt>
      <trkpt lat="42.77288" lon="1.03155">
        <ele>2067.9</ele>
        <time>2018-11-24T03:05:09Z</time>
      </trkpt>
      <trkpt lat="42.7729" lon="1.03155">
        <ele>2068.4</ele>
        <time>2018-11-24T03:05:10Z</time>
      </trkpt>
      <trkpt lat="42.77291" lon="1.03154">
        <ele>2069</ele>
        <time>2018-11-24T03:05:11Z</time>
      </trkpt>
      <trkpt lat="42.77289" lon="1.03154">
        <ele>2068.9</ele>
        <time>2018-11-24T03:05:11Z</time>
      </trkpt>
      <trkpt lat="42.7729" lon="1.03151">
        <ele>2069.5</ele>
        <time>2018-11-24T03:05:13Z</time>
      </trkpt>
      <trkpt lat="42.77288" lon="1.03149">
        <ele>2070</ele>
        <time>2018-11-24T03:05:14Z</time>
      </trkpt>
      <trkpt lat="42.77294" lon="1.03147">
        <ele>2070.3</ele>
        <time>2018-11-24T03:05:16Z</time>
      </trkpt>
      <trkpt lat="42.77301" lon="1.03144">
        <ele>2070.4</ele>
        <time>2018-11-24T03:05:19Z</time>
      </trkpt>
      <trkpt lat="42.77319" lon="1.03136">
        <ele>2071.3</ele>
        <time>2018-11-24T03:05:27Z</time>
      </trkpt>
      <trkpt lat="42.77333" lon="1.03129">
        <ele>2072.4</ele>
        <time>2018-11-24T03:05:33Z</time>
      </trkpt>
      <trkpt lat="42.7734" lon="1.03122">
        <ele>2073.8</ele>
        <time>2018-11-24T03:05:36Z</time>
      </trkpt>
      <trkpt lat="42.77344" lon="1.03111">
        <ele>2073.7</ele>
        <time>2018-11-24T03:05:40Z</time>
      </trkpt>
      <trkpt lat="42.77356" lon="1.03099">
        <ele>2074.2</ele>
        <time>2018-11-24T03:05:46Z</time>
      </trkpt>
      <trkpt lat="42.77358" lon="1.03095">
        <ele>2074.2</ele>
        <time>2018-11-24T03:05:47Z</time>
      </trkpt>
      <trkpt lat="42.77369" lon="1.03082">
        <ele>2075.1</ele>
        <time>2018-11-24T03:05:53Z</time>
      </trkpt>
      <trkpt lat="42.7737" lon="1.03081">
        <ele>2076.2</ele>
        <time>2018-11-24T03:05:54Z</time>
      </trkpt>
      <trkpt lat="42.77384" lon="1.03079">
        <ele>2078</ele>
        <time>2018-11-24T03:05:59Z</time>
      </trkpt>
      <trkpt lat="42.7739" lon="1.03083">
        <ele>2079.6</ele>
        <time>2018-11-24T03:06:02Z</time>
      </trkpt>
      <trkpt lat="42.77398" lon="1.03089">
        <ele>2080.9</ele>
        <time>2018-11-24T03:06:05Z</time>
      </trkpt>
      <trkpt lat="42.77406" lon="1.03103">
        <ele>2082.9</ele>
        <time>2018-11-24T03:06:11Z</time>
      </trkpt>
      <trkpt lat="42.77405" lon="1.0311">
        <ele>2084.4</ele>
        <time>2018-11-24T03:06:13Z</time>
      </trkpt>
      <trkpt lat="42.77404" lon="1.03137">
        <ele>2085.7</ele>
        <time>2018-11-24T03:06:21Z</time>
      </trkpt>
      <trkpt lat="42.774" lon="1.03161">
        <ele>2087.6</ele>
        <time>2018-11-24T03:06:28Z</time>
      </trkpt>
      <trkpt lat="42.77402" lon="1.03175">
        <ele>2090</ele>
        <time>2018-11-24T03:06:32Z</time>
      </trkpt>
      <trkpt lat="42.77407" lon="1.03174">
        <ele>2093.4</ele>
        <time>2018-11-24T03:06:34Z</time>
      </trkpt>
      <trkpt lat="42.77411" lon="1.03168">
        <ele>2093.4</ele>
        <time>2018-11-24T03:06:36Z</time>
      </trkpt>
      <trkpt lat="42.77415" lon="1.03165">
        <ele>2093.9</ele>
        <time>2018-11-24T03:06:38Z</time>
      </trkpt>
      <trkpt lat="42.77417" lon="1.0316">
        <ele>2092.5</ele>
        <time>2018-11-24T03:06:40Z</time>
      </trkpt>
      <trkpt lat="42.77419" lon="1.0316">
        <ele>2092</ele>
        <time>2018-11-24T03:06:41Z</time>
      </trkpt>
      <trkpt lat="42.77425" lon="1.03158">
        <ele>2089.1</ele>
        <time>2018-11-24T03:06:43Z</time>
      </trkpt>
      <trkpt lat="42.77427" lon="1.03156">
        <ele>2088.6</ele>
        <time>2018-11-24T03:06:44Z</time>
      </trkpt>
      <trkpt lat="42.77431" lon="1.03152">
        <ele>2088.1</ele>
        <time>2018-11-24T03:06:46Z</time>
      </trkpt>
      <trkpt lat="42.77448" lon="1.03149">
        <ele>2088.2</ele>
        <time>2018-11-24T03:06:53Z</time>
      </trkpt>
      <trkpt lat="42.7746" lon="1.03141">
        <ele>2088.2</ele>
        <time>2018-11-24T03:06:58Z</time>
      </trkpt>
      <trkpt lat="42.7747" lon="1.03138">
        <ele>2089.6</ele>
        <time>2018-11-24T03:07:02Z</time>
      </trkpt>
      <trkpt lat="42.77474" lon="1.03136">
        <ele>2089.7</ele>
        <time>2018-11-24T03:07:04Z</time>
      </trkpt>
      <trkpt lat="42.77486" lon="1.03134">
        <ele>2090.5</ele>
        <time>2018-11-24T03:07:09Z</time>
      </trkpt>
      <trkpt lat="42.77485" lon="1.03133">
        <ele>2090.5</ele>
        <time>2018-11-24T03:07:10Z</time>
      </trkpt>
      <trkpt lat="42.77492" lon="1.03128">
        <ele>2091.1</ele>
        <time>2018-11-24T03:07:13Z</time>
      </trkpt>
      <trkpt lat="42.77496" lon="1.03128">
        <ele>2091.6</ele>
        <time>2018-11-24T03:07:14Z</time>
      </trkpt>
      <trkpt lat="42.77513" lon="1.03128">
        <ele>2092.5</ele>
        <time>2018-11-24T03:07:21Z</time>
      </trkpt>
      <trkpt lat="42.77526" lon="1.03126">
        <ele>2094</ele>
        <time>2018-11-24T03:07:26Z</time>
      </trkpt>
      <trkpt lat="42.7754" lon="1.03119">
        <ele>2095.3</ele>
        <time>2018-11-24T03:07:32Z</time>
      </trkpt>
      <trkpt lat="42.77553" lon="1.03118">
        <ele>2096.9</ele>
        <time>2018-11-24T03:07:38Z</time>
      </trkpt>
      <trkpt lat="42.77564" lon="1.03119">
        <ele>2097.8</ele>
        <time>2018-11-24T03:07:42Z</time>
      </trkpt>
      <trkpt lat="42.77567" lon="1.03134">
        <ele>2099.8</ele>
        <time>2018-11-24T03:07:47Z</time>
      </trkpt>
      <trkpt lat="42.77571" lon="1.03141">
        <ele>2102.2</ele>
        <time>2018-11-24T03:07:49Z</time>
      </trkpt>
      <trkpt lat="42.77576" lon="1.03139">
        <ele>2103.6</ele>
        <time>2018-11-24T03:07:51Z</time>
      </trkpt>
      <trkpt lat="42.77576" lon="1.03137">
        <ele>2104.5</ele>
        <time>2018-11-24T03:07:52Z</time>
      </trkpt>
      <trkpt lat="42.77583" lon="1.03142">
        <ele>2105.9</ele>
        <time>2018-11-24T03:07:55Z</time>
      </trkpt>
      <trkpt lat="42.77593" lon="1.03145">
        <ele>2108.4</ele>
        <time>2018-11-24T03:07:59Z</time>
      </trkpt>
      <trkpt lat="42.77599" lon="1.03147">
        <ele>2111.8</ele>
        <time>2018-11-24T03:08:02Z</time>
      </trkpt>
      <trkpt lat="42.77605" lon="1.03145">
        <ele>2114.7</ele>
        <time>2018-11-24T03:08:04Z</time>
      </trkpt>
      <trkpt lat="42.77612" lon="1.03143">
        <ele>2117.4</ele>
        <time>2018-11-24T03:08:07Z</time>
      </trkpt>
      <trkpt lat="42.77611" lon="1.03142">
        <ele>2117.9</ele>
        <time>2018-11-24T03:08:08Z</time>
      </trkpt>
      <trkpt lat="42.77621" lon="1.03138">
        <ele>2119.5</ele>
        <time>2018-11-24T03:08:12Z</time>
      </trkpt>
      <trkpt lat="42.77629" lon="1.03142">
        <ele>2122.8</ele>
        <time>2018-11-24T03:08:16Z</time>
      </trkpt>
      <trkpt lat="42.77637" lon="1.0314">
        <ele>2125.6</ele>
        <time>2018-11-24T03:08:19Z</time>
      </trkpt>
      <trkpt lat="42.77642" lon="1.03144">
        <ele>2129</ele>
        <time>2018-11-24T03:08:21Z</time>
      </trkpt>
      <trkpt lat="42.77644" lon="1.03139">
        <ele>2130.9</ele>
        <time>2018-11-24T03:08:23Z</time>
      </trkpt>
      <trkpt lat="42.77647" lon="1.03137">
        <ele>2132.3</ele>
        <time>2018-11-24T03:08:24Z</time>
      </trkpt>
      <trkpt lat="42.77658" lon="1.03135">
        <ele>2135.2</ele>
        <time>2018-11-24T03:08:29Z</time>
      </trkpt>
      <trkpt lat="42.77665" lon="1.03135">
        <ele>2138.2</ele>
        <time>2018-11-24T03:08:31Z</time>
      </trkpt>
      <trkpt lat="42.77669" lon="1.03134">
        <ele>2139.7</ele>
        <time>2018-11-24T03:08:33Z</time>
      </trkpt>
      <trkpt lat="42.77667" lon="1.03142">
        <ele>2142</ele>
        <time>2018-11-24T03:08:36Z</time>
      </trkpt>
      <trkpt lat="42.77672" lon="1.03141">
        <ele>2144</ele>
        <time>2018-11-24T03:08:38Z</time>
      </trkpt>
      <trkpt lat="42.77674" lon="1.03142">
        <ele>2145.3</ele>
        <time>2018-11-24T03:08:39Z</time>
      </trkpt>
      <trkpt lat="42.77674" lon="1.0315">
        <ele>2147.7</ele>
        <time>2018-11-24T03:08:41Z</time>
      </trkpt>
      <trkpt lat="42.77672" lon="1.03157">
        <ele>2150.1</ele>
        <time>2018-11-24T03:08:43Z</time>
      </trkpt>
      <trkpt lat="42.7767" lon="1.03167">
        <ele>2152.2</ele>
        <time>2018-11-24T03:08:46Z</time>
      </trkpt>
      <trkpt lat="42.77672" lon="1.0317">
        <ele>2154.4</ele>
        <time>2018-11-24T03:08:47Z</time>
      </trkpt>
      <trkpt lat="42.77681" lon="1.03167">
        <ele>2156</ele>
        <time>2018-11-24T03:08:51Z</time>
      </trkpt>
      <trkpt lat="42.77687" lon="1.03171">
        <ele>2159.3</ele>
        <time>2018-11-24T03:08:53Z</time>
      </trkpt>
      <trkpt lat="42.7769" lon="1.03174">
        <ele>2161.7</ele>
        <time>2018-11-24T03:08:55Z</time>
      </trkpt>
      <trkpt lat="42.77698" lon="1.03173">
        <ele>2164.1</ele>
        <time>2018-11-24T03:08:58Z</time>
      </trkpt>
      <trkpt lat="42.77704" lon="1.03173">
        <ele>2166.1</ele>
        <time>2018-11-24T03:09:01Z</time>
      </trkpt>
      <trkpt lat="42.77707" lon="1.03176">
        <ele>2169</ele>
        <time>2018-11-24T03:09:02Z</time>
      </trkpt>
      <trkpt lat="42.77708" lon="1.03179">
        <ele>2170.4</ele>
        <time>2018-11-24T03:09:03Z</time>
      </trkpt>
      <trkpt lat="42.77702" lon="1.03191">
        <ele>2173.7</ele>
        <time>2018-11-24T03:09:07Z</time>
      </trkpt>
      <trkpt lat="42.77705" lon="1.03203">
        <ele>2176.2</ele>
        <time>2018-11-24T03:09:11Z</time>
      </trkpt>
      <trkpt lat="42.77704" lon="1.03213">
        <ele>2179.1</ele>
        <time>2018-11-24T03:09:14Z</time>
      </trkpt>
      <trkpt lat="42.77702" lon="1.03222">
        <ele>2181.4</ele>
        <time>2018-11-24T03:09:16Z</time>
      </trkpt>
      <trkpt lat="42.77701" lon="1.03229">
        <ele>2182.8</ele>
        <time>2018-11-24T03:09:19Z</time>
      </trkpt>
      <trkpt lat="42.777" lon="1.0324">
        <ele>2185.7</ele>
        <time>2018-11-24T03:09:22Z</time>
      </trkpt>
      <trkpt lat="42.77694" lon="1.03248">
        <ele>2189.1</ele>
        <time>2018-11-24T03:09:25Z</time>
      </trkpt>
      <trkpt lat="42.77695" lon="1.03259">
        <ele>2191</ele>
        <time>2018-11-24T03:09:28Z</time>
      </trkpt>
      <trkpt lat="42.77696" lon="1.03266">
        <ele>2193.9</ele>
        <time>2018-11-24T03:09:30Z</time>
      </trkpt>
      <trkpt lat="42.77698" lon="1.03274">
        <ele>2196.4</ele>
        <time>2018-11-24T03:09:33Z</time>
      </trkpt>
      <trkpt lat="42.77701" lon="1.0328">
        <ele>2199.7</ele>
        <time>2018-11-24T03:09:35Z</time>
      </trkpt>
      <trkpt lat="42.77705" lon="1.03284">
        <ele>2201.6</ele>
        <time>2018-11-24T03:09:37Z</time>
      </trkpt>
      <trkpt lat="42.77707" lon="1.03288">
        <ele>2204.1</ele>
        <time>2018-11-24T03:09:38Z</time>
      </trkpt>
      <trkpt lat="42.77712" lon="1.03284">
        <ele>2206.8</ele>
        <time>2018-11-24T03:09:41Z</time>
      </trkpt>
      <trkpt lat="42.77717" lon="1.03276">
        <ele>2208.8</ele>
        <time>2018-11-24T03:09:44Z</time>
      </trkpt>
      <trkpt lat="42.77721" lon="1.03278">
        <ele>2210.8</ele>
        <time>2018-11-24T03:09:46Z</time>
      </trkpt>
      <trkpt lat="42.77731" lon="1.03278">
        <ele>2213.1</ele>
        <time>2018-11-24T03:09:49Z</time>
      </trkpt>
      <trkpt lat="42.77741" lon="1.03277">
        <ele>2216.1</ele>
        <time>2018-11-24T03:09:53Z</time>
      </trkpt>
      <trkpt lat="42.77747" lon="1.03275">
        <ele>2218.9</ele>
        <time>2018-11-24T03:09:56Z</time>
      </trkpt>
      <trkpt lat="42.77756" lon="1.03276">
        <ele>2220.8</ele>
        <time>2018-11-24T03:10:00Z</time>
      </trkpt>
      <trkpt lat="42.77763" lon="1.03276">
        <ele>2223.8</ele>
        <time>2018-11-24T03:10:02Z</time>
      </trkpt>
      <trkpt lat="42.7777" lon="1.03277">
        <ele>2226.1</ele>
        <time>2018-11-24T03:10:05Z</time>
      </trkpt>
      <trkpt lat="42.77774" lon="1.0328">
        <ele>2228.9</ele>
        <time>2018-11-24T03:10:07Z</time>
      </trkpt>
      <trkpt lat="42.77775" lon="1.03286">
        <ele>2230.9</ele>
        <time>2018-11-24T03:10:09Z</time>
      </trkpt>
      <trkpt lat="42.77768" lon="1.03294">
        <ele>2234.2</ele>
        <time>2018-11-24T03:10:12Z</time>
      </trkpt>
      <trkpt lat="42.77762" lon="1.03304">
        <ele>2236.3</ele>
        <time>2018-11-24T03:10:16Z</time>
      </trkpt>
      <trkpt lat="42.7776" lon="1.03309">
        <ele>2238.2</ele>
        <time>2018-11-24T03:10:18Z</time>
      </trkpt>
      <trkpt lat="42.77756" lon="1.03318">
        <ele>2241.1</ele>
        <time>2018-11-24T03:10:21Z</time>
      </trkpt>
      <trkpt lat="42.77753" lon="1.03326">
        <ele>2244.4</ele>
        <time>2018-11-24T03:10:23Z</time>
      </trkpt>
      <trkpt lat="42.77748" lon="1.03335">
        <ele>2247.3</ele>
        <time>2018-11-24T03:10:27Z</time>
      </trkpt>
      <trkpt lat="42.77745" lon="1.03345">
        <ele>2250.1</ele>
        <time>2018-11-24T03:10:30Z</time>
      </trkpt>
      <trkpt lat="42.77743" lon="1.03354">
        <ele>2253</ele>
        <time>2018-11-24T03:10:33Z</time>
      </trkpt>
      <trkpt lat="42.77744" lon="1.03362">
        <ele>2255.9</ele>
        <time>2018-11-24T03:10:35Z</time>
      </trkpt>
      <trkpt lat="42.77744" lon="1.0337">
        <ele>2258.4</ele>
        <time>2018-11-24T03:10:37Z</time>
      </trkpt>
      <trkpt lat="42.77741" lon="1.03377">
        <ele>2261.3</ele>
        <time>2018-11-24T03:10:40Z</time>
      </trkpt>
      <trkpt lat="42.77741" lon="1.03384">
        <ele>2263.1</ele>
        <time>2018-11-24T03:10:42Z</time>
      </trkpt>
      <trkpt lat="42.77743" lon="1.03394">
        <ele>2266.4</ele>
        <time>2018-11-24T03:10:45Z</time>
      </trkpt>
      <trkpt lat="42.77743" lon="1.03402">
        <ele>2268.4</ele>
        <time>2018-11-24T03:10:47Z</time>
      </trkpt>
      <trkpt lat="42.77741" lon="1.03408">
        <ele>2271.3</ele>
        <time>2018-11-24T03:10:49Z</time>
      </trkpt>
      <trkpt lat="42.77739" lon="1.03415">
        <ele>2274.1</ele>
        <time>2018-11-24T03:10:51Z</time>
      </trkpt>
      <trkpt lat="42.77747" lon="1.03419">
        <ele>2277</ele>
        <time>2018-11-24T03:10:54Z</time>
      </trkpt>
      <trkpt lat="42.77754" lon="1.03417">
        <ele>2279</ele>
        <time>2018-11-24T03:10:57Z</time>
      </trkpt>
      <trkpt lat="42.77762" lon="1.03416">
        <ele>2281.8</ele>
        <time>2018-11-24T03:11:00Z</time>
      </trkpt>
      <trkpt lat="42.7777" lon="1.03409">
        <ele>2283.8</ele>
        <time>2018-11-24T03:11:04Z</time>
      </trkpt>
      <trkpt lat="42.77772" lon="1.03406">
        <ele>2284.8</ele>
        <time>2018-11-24T03:11:05Z</time>
      </trkpt>
      <trkpt lat="42.77778" lon="1.03402">
        <ele>2287.6</ele>
        <time>2018-11-24T03:11:08Z</time>
      </trkpt>
      <trkpt lat="42.7778" lon="1.03398">
        <ele>2287.6</ele>
        <time>2018-11-24T03:11:09Z</time>
      </trkpt>
      <trkpt lat="42.77789" lon="1.03394">
        <ele>2290.1</ele>
        <time>2018-11-24T03:11:13Z</time>
      </trkpt>
      <trkpt lat="42.77796" lon="1.03394">
        <ele>2292.5</ele>
        <time>2018-11-24T03:11:16Z</time>
      </trkpt>
      <trkpt lat="42.77802" lon="1.03389">
        <ele>2294.9</ele>
        <time>2018-11-24T03:11:19Z</time>
      </trkpt>
      <trkpt lat="42.7781" lon="1.03389">
        <ele>2297.8</ele>
        <time>2018-11-24T03:11:22Z</time>
      </trkpt>
      <trkpt lat="42.7782" lon="1.03386">
        <ele>2300.1</ele>
        <time>2018-11-24T03:11:26Z</time>
      </trkpt>
      <trkpt lat="42.77828" lon="1.0338">
        <ele>2303</ele>
        <time>2018-11-24T03:11:30Z</time>
      </trkpt>
      <trkpt lat="42.77837" lon="1.03378">
        <ele>2305.4</ele>
        <time>2018-11-24T03:11:33Z</time>
      </trkpt>
      <trkpt lat="42.77847" lon="1.03379">
        <ele>2308.3</ele>
        <time>2018-11-24T03:11:37Z</time>
      </trkpt>
      <trkpt lat="42.77855" lon="1.03375">
        <ele>2311.6</ele>
        <time>2018-11-24T03:11:41Z</time>
      </trkpt>
      <trkpt lat="42.77863" lon="1.03372">
        <ele>2314.1</ele>
        <time>2018-11-24T03:11:44Z</time>
      </trkpt>
      <trkpt lat="42.7787" lon="1.03367">
        <ele>2316.9</ele>
        <time>2018-11-24T03:11:47Z</time>
      </trkpt>
      <trkpt lat="42.77876" lon="1.03363">
        <ele>2319.3</ele>
        <time>2018-11-24T03:11:50Z</time>
      </trkpt>
      <trkpt lat="42.77883" lon="1.03362">
        <ele>2321.7</ele>
        <time>2018-11-24T03:11:53Z</time>
      </trkpt>
      <trkpt lat="42.77891" lon="1.03355">
        <ele>2324.1</ele>
        <time>2018-11-24T03:11:57Z</time>
      </trkpt>
      <trkpt lat="42.77896" lon="1.03352">
        <ele>2326.1</ele>
        <time>2018-11-24T03:11:59Z</time>
      </trkpt>
      <trkpt lat="42.77903" lon="1.03347">
        <ele>2327.1</ele>
        <time>2018-11-24T03:12:02Z</time>
      </trkpt>
      <trkpt lat="42.77902" lon="1.03347">
        <ele>2327</ele>
        <time>2018-11-24T03:12:02Z</time>
      </trkpt>
      <trkpt lat="42.77907" lon="1.03349">
        <ele>2329.4</ele>
        <time>2018-11-24T03:12:04Z</time>
      </trkpt>
      <trkpt lat="42.77912" lon="1.03356">
        <ele>2330.5</ele>
        <time>2018-11-24T03:12:07Z</time>
      </trkpt>
      <trkpt lat="42.77911" lon="1.03357">
        <ele>2330.4</ele>
        <time>2018-11-24T03:12:07Z</time>
      </trkpt>
      <trkpt lat="42.77911" lon="1.03383">
        <ele>2330.8</ele>
        <time>2018-11-24T03:12:15Z</time>
      </trkpt>
      <trkpt lat="42.77911" lon="1.03389">
        <ele>2330.9</ele>
        <time>2018-11-24T03:12:17Z</time>
      </trkpt>
      <trkpt lat="42.77914" lon="1.03401">
        <ele>2334.3</ele>
        <time>2018-11-24T03:12:20Z</time>
      </trkpt>
      <trkpt lat="42.77918" lon="1.03406">
        <ele>2338.1</ele>
        <time>2018-11-24T03:12:23Z</time>
      </trkpt>
      <trkpt lat="42.77928" lon="1.03407">
        <ele>2340.5</ele>
        <time>2018-11-24T03:12:26Z</time>
      </trkpt>
      <trkpt lat="42.77934" lon="1.03414">
        <ele>2343.4</ele>
        <time>2018-11-24T03:12:30Z</time>
      </trkpt>
      <trkpt lat="42.77941" lon="1.03418">
        <ele>2345.3</ele>
        <time>2018-11-24T03:12:33Z</time>
      </trkpt>
      <trkpt lat="42.77945" lon="1.03423">
        <ele>2348.6</ele>
        <time>2018-11-24T03:12:35Z</time>
      </trkpt>
      <trkpt lat="42.77942" lon="1.03434">
        <ele>2351</ele>
        <time>2018-11-24T03:12:39Z</time>
      </trkpt>
      <trkpt lat="42.77934" lon="1.03443">
        <ele>2354</ele>
        <time>2018-11-24T03:12:43Z</time>
      </trkpt>
      <trkpt lat="42.77927" lon="1.03456">
        <ele>2356.8</ele>
        <time>2018-11-24T03:12:47Z</time>
      </trkpt>
      <trkpt lat="42.77929" lon="1.03464">
        <ele>2359.7</ele>
        <time>2018-11-24T03:12:50Z</time>
      </trkpt>
      <trkpt lat="42.77924" lon="1.03472">
        <ele>2363.1</ele>
        <time>2018-11-24T03:12:53Z</time>
      </trkpt>
      <trkpt lat="42.77927" lon="1.03476">
        <ele>2365.5</ele>
        <time>2018-11-24T03:12:55Z</time>
      </trkpt>
      <trkpt lat="42.77924" lon="1.03479">
        <ele>2366.9</ele>
        <time>2018-11-24T03:12:56Z</time>
      </trkpt>
      <trkpt lat="42.77921" lon="1.0349">
        <ele>2369.9</ele>
        <time>2018-11-24T03:12:59Z</time>
      </trkpt>
      <trkpt lat="42.77919" lon="1.03499">
        <ele>2373.2</ele>
        <time>2018-11-24T03:13:02Z</time>
      </trkpt>
      <trkpt lat="42.77916" lon="1.03505">
        <ele>2375.1</ele>
        <time>2018-11-24T03:13:04Z</time>
      </trkpt>
      <trkpt lat="42.77911" lon="1.03514">
        <ele>2378.4</ele>
        <time>2018-11-24T03:13:08Z</time>
      </trkpt>
      <trkpt lat="42.7791" lon="1.03522">
        <ele>2381.9</ele>
        <time>2018-11-24T03:13:10Z</time>
      </trkpt>
      <trkpt lat="42.77916" lon="1.03532">
        <ele>2382.9</ele>
        <time>2018-11-24T03:13:14Z</time>
      </trkpt>
      <trkpt lat="42.77923" lon="1.03539">
        <ele>2385.3</ele>
        <time>2018-11-24T03:13:17Z</time>
      </trkpt>
      <trkpt lat="42.77928" lon="1.03547">
        <ele>2389.1</ele>
        <time>2018-11-24T03:13:21Z</time>
      </trkpt>
      <trkpt lat="42.7793" lon="1.03554">
        <ele>2391.4</ele>
        <time>2018-11-24T03:13:23Z</time>
      </trkpt>
      <trkpt lat="42.77927" lon="1.03567">
        <ele>2394.3</ele>
        <time>2018-11-24T03:13:27Z</time>
      </trkpt>
      <trkpt lat="42.77923" lon="1.03575">
        <ele>2397.2</ele>
        <time>2018-11-24T03:13:30Z</time>
      </trkpt>
      <trkpt lat="42.77919" lon="1.03589">
        <ele>2399.7</ele>
        <time>2018-11-24T03:13:34Z</time>
      </trkpt>
      <trkpt lat="42.77922" lon="1.03595">
        <ele>2401.1</ele>
        <time>2018-11-24T03:13:36Z</time>
      </trkpt>
      <trkpt lat="42.77924" lon="1.03609">
        <ele>2404.4</ele>
        <time>2018-11-24T03:13:40Z</time>
      </trkpt>
      <trkpt lat="42.77935" lon="1.03609">
        <ele>2406.8</ele>
        <time>2018-11-24T03:13:45Z</time>
      </trkpt>
      <trkpt lat="42.77941" lon="1.03606">
        <ele>2408.3</ele>
        <time>2018-11-24T03:13:47Z</time>
      </trkpt>
      <trkpt lat="42.77952" lon="1.036">
        <ele>2410.2</ele>
        <time>2018-11-24T03:13:52Z</time>
      </trkpt>
      <trkpt lat="42.7796" lon="1.03595">
        <ele>2413.2</ele>
        <time>2018-11-24T03:13:56Z</time>
      </trkpt>
      <trkpt lat="42.77972" lon="1.03591">
        <ele>2417</ele>
        <time>2018-11-24T03:14:01Z</time>
      </trkpt>
      <trkpt lat="42.77982" lon="1.03586">
        <ele>2419.8</ele>
        <time>2018-11-24T03:14:05Z</time>
      </trkpt>
      <trkpt lat="42.77991" lon="1.03578">
        <ele>2422.7</ele>
        <time>2018-11-24T03:14:09Z</time>
      </trkpt>
      <trkpt lat="42.77994" lon="1.03577">
        <ele>2424.1</ele>
        <time>2018-11-24T03:14:11Z</time>
      </trkpt>
      <trkpt lat="42.78008" lon="1.03571">
        <ele>2427.6</ele>
        <time>2018-11-24T03:14:16Z</time>
      </trkpt>
      <trkpt lat="42.7801" lon="1.0357">
        <ele>2427.5</ele>
        <time>2018-11-24T03:14:17Z</time>
      </trkpt>
      <trkpt lat="42.78013" lon="1.03572">
        <ele>2427.5</ele>
        <time>2018-11-24T03:14:19Z</time>
      </trkpt>
      <trkpt lat="42.78029" lon="1.03572">
        <ele>2428.5</ele>
        <time>2018-11-24T03:14:25Z</time>
      </trkpt>
      <trkpt lat="42.78041" lon="1.03569">
        <ele>2431.9</ele>
        <time>2018-11-24T03:14:30Z</time>
      </trkpt>
      <trkpt lat="42.78047" lon="1.0357">
        <ele>2432.8</ele>
        <time>2018-11-24T03:14:32Z</time>
      </trkpt>
      <trkpt lat="42.78047" lon="1.03571">
        <ele>2433.3</ele>
        <time>2018-11-24T03:14:33Z</time>
      </trkpt>
      <trkpt lat="42.78046" lon="1.03572">
        <ele>2433.3</ele>
        <time>2018-11-24T03:14:33Z</time>
      </trkpt>
      <trkpt lat="42.78048" lon="1.03578">
        <ele>2433.3</ele>
        <time>2018-11-24T03:14:35Z</time>
      </trkpt>
      <trkpt lat="42.78048" lon="1.03579">
        <ele>2433.7</ele>
        <time>2018-11-24T03:14:36Z</time>
      </trkpt>
      <trkpt lat="42.78048" lon="1.03579">
        <ele>2433.7</ele>
        <time>2018-11-24T03:14:36Z</time>
      </trkpt>
      <trkpt lat="42.78046" lon="1.03578">
        <ele>2433.7</ele>
        <time>2018-11-24T03:14:37Z</time>
      </trkpt>
      <trkpt lat="42.78041" lon="1.0358">
        <ele>2434.7</ele>
        <time>2018-11-24T03:14:39Z</time>
      </trkpt>
      <trkpt lat="42.78035" lon="1.03588">
        <ele>2436.2</ele>
        <time>2018-11-24T03:14:42Z</time>
      </trkpt>
      <trkpt lat="42.78032" lon="1.03594">
        <ele>2437.7</ele>
        <time>2018-11-24T03:14:44Z</time>
      </trkpt>
      <trkpt lat="42.78029" lon="1.03598">
        <ele>2438</ele>
        <time>2018-11-24T03:14:46Z</time>
      </trkpt>
      <trkpt lat="42.78022" lon="1.03606">
        <ele>2438.6</ele>
        <time>2018-11-24T03:14:49Z</time>
      </trkpt>
      <trkpt lat="42.78016" lon="1.03618">
        <ele>2441.9</ele>
        <time>2018-11-24T03:14:54Z</time>
      </trkpt>
      <trkpt lat="42.78015" lon="1.03619">
        <ele>2441.9</ele>
        <time>2018-11-24T03:14:54Z</time>
      </trkpt>
      <trkpt lat="42.78014" lon="1.03621">
        <ele>2442.5</ele>
        <time>2018-11-24T03:14:55Z</time>
      </trkpt>
      <trkpt lat="42.78005" lon="1.03634">
        <ele>2444.8</ele>
        <time>2018-11-24T03:15:00Z</time>
      </trkpt>
      <trkpt lat="42.78005" lon="1.03636">
        <ele>2445.4</ele>
        <time>2018-11-24T03:15:01Z</time>
      </trkpt>
      <trkpt lat="42.78003" lon="1.03638">
        <ele>2445.7</ele>
        <time>2018-11-24T03:15:02Z</time>
      </trkpt>
      <trkpt lat="42.78001" lon="1.03643">
        <ele>2446.2</ele>
        <time>2018-11-24T03:15:03Z</time>
      </trkpt>
      <trkpt lat="42.77999" lon="1.03645">
        <ele>2446.3</ele>
        <time>2018-11-24T03:15:04Z</time>
      </trkpt>
      <trkpt lat="42.77998" lon="1.03647">
        <ele>2446.2</ele>
        <time>2018-11-24T03:15:05Z</time>
      </trkpt>
      <trkpt lat="42.77986" lon="1.03655">
        <ele>2446.2</ele>
        <time>2018-11-24T03:15:10Z</time>
      </trkpt>
      <trkpt lat="42.77985" lon="1.03656">
        <ele>2446.3</ele>
        <time>2018-11-24T03:15:11Z</time>
      </trkpt>
      <trkpt lat="42.77982" lon="1.0366">
        <ele>2446.3</ele>
        <time>2018-11-24T03:15:12Z</time>
      </trkpt>
      <trkpt lat="42.77979" lon="1.03666">
        <ele>2446.3</ele>
        <time>2018-11-24T03:15:15Z</time>
      </trkpt>
      <trkpt lat="42.77973" lon="1.03678">
        <ele>2449.1</ele>
        <time>2018-11-24T03:15:19Z</time>
      </trkpt>
      <trkpt lat="42.77968" lon="1.03687">
        <ele>2451.1</ele>
        <time>2018-11-24T03:15:22Z</time>
      </trkpt>
      <trkpt lat="42.77955" lon="1.037">
        <ele>2453.4</ele>
        <time>2018-11-24T03:15:28Z</time>
      </trkpt>
      <trkpt lat="42.77954" lon="1.03701">
        <ele>2454.5</ele>
        <time>2018-11-24T03:15:29Z</time>
      </trkpt>
      <trkpt lat="42.77954" lon="1.037">
        <ele>2454.4</ele>
        <time>2018-11-24T03:15:29Z</time>
      </trkpt>
      <trkpt lat="42.77954" lon="1.03701">
        <ele>2454.9</ele>
        <time>2018-11-24T03:15:30Z</time>
      </trkpt>
      <trkpt lat="42.77952" lon="1.03704">
        <ele>2454.9</ele>
        <time>2018-11-24T03:15:31Z</time>
      </trkpt>
      <trkpt lat="42.77946" lon="1.0371">
        <ele>2457.9</ele>
        <time>2018-11-24T03:15:34Z</time>
      </trkpt>
      <trkpt lat="42.77938" lon="1.03714">
        <ele>2461.2</ele>
        <time>2018-11-24T03:15:37Z</time>
      </trkpt>
      <trkpt lat="42.77934" lon="1.03713">
        <ele>2465.1</ele>
        <time>2018-11-24T03:15:39Z</time>
      </trkpt>
      <trkpt lat="42.7793" lon="1.03715">
        <ele>2465.9</ele>
        <time>2018-11-24T03:15:40Z</time>
      </trkpt>
      <trkpt lat="42.77927" lon="1.0372">
        <ele>2469.4</ele>
        <time>2018-11-24T03:15:42Z</time>
      </trkpt>
      <trkpt lat="42.77921" lon="1.03722">
        <ele>2471.3</ele>
        <time>2018-11-24T03:15:45Z</time>
      </trkpt>
      <trkpt lat="42.77918" lon="1.03728">
        <ele>2474.2</ele>
        <time>2018-11-24T03:15:47Z</time>
      </trkpt>
      <trkpt lat="42.77912" lon="1.03731">
        <ele>2477.5</ele>
        <time>2018-11-24T03:15:49Z</time>
      </trkpt>
      <trkpt lat="42.7791" lon="1.03732">
        <ele>2479.9</ele>
        <time>2018-11-24T03:15:50Z</time>
      </trkpt>
      <trkpt lat="42.77907" lon="1.03734">
        <ele>2480.3</ele>
        <time>2018-11-24T03:15:52Z</time>
      </trkpt>
      <trkpt lat="42.77905" lon="1.03735">
        <ele>2484.2</ele>
        <time>2018-11-24T03:15:53Z</time>
      </trkpt>
      <trkpt lat="42.77902" lon="1.0374">
        <ele>2487.6</ele>
        <time>2018-11-24T03:15:55Z</time>
      </trkpt>
      <trkpt lat="42.77901" lon="1.03741">
        <ele>2488.6</ele>
        <time>2018-11-24T03:15:55Z</time>
      </trkpt>
      <trkpt lat="42.77898" lon="1.03744">
        <ele>2489.9</ele>
        <time>2018-11-24T03:15:57Z</time>
      </trkpt>
      <trkpt lat="42.77893" lon="1.03748">
        <ele>2493.4</ele>
        <time>2018-11-24T03:15:59Z</time>
      </trkpt>
      <trkpt lat="42.77889" lon="1.03752">
        <ele>2496.7</ele>
        <time>2018-11-24T03:16:01Z</time>
      </trkpt>
      <trkpt lat="42.77883" lon="1.03757">
        <ele>2499.6</ele>
        <time>2018-11-24T03:16:04Z</time>
      </trkpt>
      <trkpt lat="42.7788" lon="1.03758">
        <ele>2502.9</ele>
        <time>2018-11-24T03:16:05Z</time>
      </trkpt>
      <trkpt lat="42.77877" lon="1.03756">
        <ele>2503.9</ele>
        <time>2018-11-24T03:16:06Z</time>
      </trkpt>
      <trkpt lat="42.77877" lon="1.03757">
        <ele>2503</ele>
        <time>2018-11-24T03:16:06Z</time>
      </trkpt>
      <trkpt lat="42.77878" lon="1.03751">
        <ele>2503.5</ele>
        <time>2018-11-24T03:16:09Z</time>
      </trkpt>
      <trkpt lat="42.77877" lon="1.03753">
        <ele>2504.8</ele>
        <time>2018-11-24T03:16:09Z</time>
      </trkpt>
      <trkpt lat="42.77877" lon="1.03752">
        <ele>2503.9</ele>
        <time>2018-11-24T03:16:10Z</time>
      </trkpt>
      <trkpt lat="42.77879" lon="1.03753">
        <ele>2503.9</ele>
        <time>2018-11-24T03:16:11Z</time>
      </trkpt>
      <trkpt lat="42.77881" lon="1.03753">
        <ele>2503.9</ele>
        <time>2018-11-24T03:16:12Z</time>
      </trkpt>
      <trkpt lat="42.77883" lon="1.03752">
        <ele>2505.4</ele>
        <time>2018-11-24T03:16:12Z</time>
      </trkpt>
      <trkpt lat="42.77883" lon="1.03752">
        <ele>2505.4</ele>
        <time>2018-11-24T03:16:12Z</time>
      </trkpt>
      <trkpt lat="42.77882" lon="1.03757">
        <ele>2505.9</ele>
        <time>2018-11-24T03:16:14Z</time>
      </trkpt>
      <trkpt lat="42.77883" lon="1.03758">
        <ele>2506.4</ele>
        <time>2018-11-24T03:16:14Z</time>
      </trkpt>
      <trkpt lat="42.77883" lon="1.03759">
        <ele>2506.9</ele>
        <time>2018-11-24T03:16:15Z</time>
      </trkpt>
      <trkpt lat="42.77882" lon="1.03758">
        <ele>2507.3</ele>
        <time>2018-11-24T03:16:15Z</time>
      </trkpt>
      <trkpt lat="42.7788" lon="1.03753">
        <ele>2507.3</ele>
        <time>2018-11-24T03:16:17Z</time>
      </trkpt>
      <trkpt lat="42.77879" lon="1.03752">
        <ele>2507.8</ele>
        <time>2018-11-24T03:16:17Z</time>
      </trkpt>
      <trkpt lat="42.77882" lon="1.03756">
        <ele>2506.3</ele>
        <time>2018-11-24T03:16:19Z</time>
      </trkpt>
      <trkpt lat="42.77888" lon="1.03756">
        <ele>2502.9</ele>
        <time>2018-11-24T03:16:21Z</time>
      </trkpt>
      <trkpt lat="42.77892" lon="1.03756">
        <ele>2500.1</ele>
        <time>2018-11-24T03:16:23Z</time>
      </trkpt>
      <trkpt lat="42.77895" lon="1.03752">
        <ele>2497.3</ele>
        <time>2018-11-24T03:16:24Z</time>
      </trkpt>
      <trkpt lat="42.77904" lon="1.03751">
        <ele>2493.9</ele>
        <time>2018-11-24T03:16:28Z</time>
      </trkpt>
      <trkpt lat="42.77913" lon="1.03752">
        <ele>2490</ele>
        <time>2018-11-24T03:16:31Z</time>
      </trkpt>
      <trkpt lat="42.77922" lon="1.03752">
        <ele>2487.1</ele>
        <time>2018-11-24T03:16:35Z</time>
      </trkpt>
      <trkpt lat="42.77926" lon="1.03753">
        <ele>2485.3</ele>
        <time>2018-11-24T03:16:37Z</time>
      </trkpt>
      <trkpt lat="42.77931" lon="1.03755">
        <ele>2483.7</ele>
        <time>2018-11-24T03:16:39Z</time>
      </trkpt>
      <trkpt lat="42.77944" lon="1.03759">
        <ele>2480.9</ele>
        <time>2018-11-24T03:16:44Z</time>
      </trkpt>
      <trkpt lat="42.77948" lon="1.03756">
        <ele>2478.4</ele>
        <time>2018-11-24T03:16:46Z</time>
      </trkpt>
      <trkpt lat="42.77951" lon="1.03753">
        <ele>2476.6</ele>
        <time>2018-11-24T03:16:47Z</time>
      </trkpt>
      <trkpt lat="42.77952" lon="1.03743">
        <ele>2473.6</ele>
        <time>2018-11-24T03:16:50Z</time>
      </trkpt>
      <trkpt lat="42.77952" lon="1.03741">
        <ele>2473.6</ele>
        <time>2018-11-24T03:16:51Z</time>
      </trkpt>
      <trkpt lat="42.77956" lon="1.03737">
        <ele>2471.8</ele>
        <time>2018-11-24T03:16:53Z</time>
      </trkpt>
      <trkpt lat="42.77959" lon="1.03733">
        <ele>2470.8</ele>
        <time>2018-11-24T03:16:55Z</time>
      </trkpt>
      <trkpt lat="42.77965" lon="1.03729">
        <ele>2469.8</ele>
        <time>2018-11-24T03:16:57Z</time>
      </trkpt>
      <trkpt lat="42.77971" lon="1.03722">
        <ele>2468.4</ele>
        <time>2018-11-24T03:17:00Z</time>
      </trkpt>
      <trkpt lat="42.77976" lon="1.0372">
        <ele>2467.8</ele>
        <time>2018-11-24T03:17:02Z</time>
      </trkpt>
      <trkpt lat="42.77983" lon="1.03707">
        <ele>2466.4</ele>
        <time>2018-11-24T03:17:07Z</time>
      </trkpt>
      <trkpt lat="42.77983" lon="1.03697">
        <ele>2466</ele>
        <time>2018-11-24T03:17:10Z</time>
      </trkpt>
      <trkpt lat="42.77989" lon="1.0368">
        <ele>2462.7</ele>
        <time>2018-11-24T03:17:15Z</time>
      </trkpt>
      <trkpt lat="42.77986" lon="1.03678">
        <ele>2462.2</ele>
        <time>2018-11-24T03:17:17Z</time>
      </trkpt>
      <trkpt lat="42.77997" lon="1.03664">
        <ele>2459.8</ele>
        <time>2018-11-24T03:17:23Z</time>
      </trkpt>
      <trkpt lat="42.78001" lon="1.0366">
        <ele>2458.2</ele>
        <time>2018-11-24T03:17:25Z</time>
      </trkpt>
      <trkpt lat="42.78004" lon="1.03642">
        <ele>2454.9</ele>
        <time>2018-11-24T03:17:30Z</time>
      </trkpt>
      <trkpt lat="42.78007" lon="1.03637">
        <ele>2454.4</ele>
        <time>2018-11-24T03:17:32Z</time>
      </trkpt>
      <trkpt lat="42.78017" lon="1.03627">
        <ele>2453.4</ele>
        <time>2018-11-24T03:17:37Z</time>
      </trkpt>
      <trkpt lat="42.78016" lon="1.03622">
        <ele>2452.1</ele>
        <time>2018-11-24T03:17:39Z</time>
      </trkpt>
      <trkpt lat="42.78014" lon="1.0362">
        <ele>2451.6</ele>
        <time>2018-11-24T03:17:40Z</time>
      </trkpt>
      <trkpt lat="42.78014" lon="1.03616">
        <ele>2451.1</ele>
        <time>2018-11-24T03:17:41Z</time>
      </trkpt>
      <trkpt lat="42.78014" lon="1.03608">
        <ele>2449.2</ele>
        <time>2018-11-24T03:17:43Z</time>
      </trkpt>
      <trkpt lat="42.78013" lon="1.03604">
        <ele>2448.2</ele>
        <time>2018-11-24T03:17:44Z</time>
      </trkpt>
      <trkpt lat="42.78015" lon="1.036">
        <ele>2447.3</ele>
        <time>2018-11-24T03:17:46Z</time>
      </trkpt>
      <trkpt lat="42.78036" lon="1.0359">
        <ele>2445.4</ele>
        <time>2018-11-24T03:17:54Z</time>
      </trkpt>
      <trkpt lat="42.78038" lon="1.03589">
        <ele>2445.4</ele>
        <time>2018-11-24T03:17:55Z</time>
      </trkpt>
      <trkpt lat="42.78047" lon="1.03581">
        <ele>2444.3</ele>
        <time>2018-11-24T03:18:00Z</time>
      </trkpt>
      <trkpt lat="42.78046" lon="1.03578">
        <ele>2443.3</ele>
        <time>2018-11-24T03:18:01Z</time>
      </trkpt>
      <trkpt lat="42.78049" lon="1.03579">
        <ele>2442.8</ele>
        <time>2018-11-24T03:18:02Z</time>
      </trkpt>
      <trkpt lat="42.78049" lon="1.03578">
        <ele>2442.8</ele>
        <time>2018-11-24T03:18:03Z</time>
      </trkpt>
      <trkpt lat="42.78048" lon="1.03577">
        <ele>2442.4</ele>
        <time>2018-11-24T03:18:03Z</time>
      </trkpt>
      <trkpt lat="42.78048" lon="1.03579">
        <ele>2442.4</ele>
        <time>2018-11-24T03:18:03Z</time>
      </trkpt>
      <trkpt lat="42.78052" lon="1.0358">
        <ele>2443.8</ele>
        <time>2018-11-24T03:18:05Z</time>
      </trkpt>
      <trkpt lat="42.7805" lon="1.03579">
        <ele>2443.9</ele>
        <time>2018-11-24T03:18:06Z</time>
      </trkpt>
      <trkpt lat="42.78048" lon="1.03581">
        <ele>2443.9</ele>
        <time>2018-11-24T03:18:07Z</time>
      </trkpt>
      <trkpt lat="42.78049" lon="1.0358">
        <ele>2443.9</ele>
        <time>2018-11-24T03:18:07Z</time>
      </trkpt>
      <trkpt lat="42.78047" lon="1.03576">
        <ele>2443.8</ele>
        <time>2018-11-24T03:18:08Z</time>
      </trkpt>
      <trkpt lat="42.78047" lon="1.03575">
        <ele>2444.4</ele>
        <time>2018-11-24T03:18:08Z</time>
      </trkpt>
      <trkpt lat="42.78048" lon="1.03577">
        <ele>2443.3</ele>
        <time>2018-11-24T03:18:10Z</time>
      </trkpt>
      <trkpt lat="42.78048" lon="1.03576">
        <ele>2443.3</ele>
        <time>2018-11-24T03:18:10Z</time>
      </trkpt>
      <trkpt lat="42.78047" lon="1.03577">
        <ele>2442.9</ele>
        <time>2018-11-24T03:18:11Z</time>
      </trkpt>
      <trkpt lat="42.78048" lon="1.03578">
        <ele>2443.4</ele>
        <time>2018-11-24T03:18:11Z</time>
      </trkpt>
      <trkpt lat="42.78047" lon="1.03578">
        <ele>2443.4</ele>
        <time>2018-11-24T03:18:11Z</time>
      </trkpt>
      <trkpt lat="42.78049" lon="1.03576">
        <ele>2443.9</ele>
        <time>2018-11-24T03:18:12Z</time>
      </trkpt>
      <trkpt lat="42.78047" lon="1.03577">
        <ele>2443.9</ele>
        <time>2018-11-24T03:18:13Z</time>
      </trkpt>
      <trkpt lat="42.78047" lon="1.03578">
        <ele>2442.8</ele>
        <time>2018-11-24T03:18:14Z</time>
      </trkpt>
      <trkpt lat="42.78047" lon="1.03578">
        <ele>2443.3</ele>
        <time>2018-11-24T03:18:14Z</time>
      </trkpt>
      <trkpt lat="42.78047" lon="1.03579">
        <ele>2442.8</ele>
        <time>2018-11-24T03:18:14Z</time>
      </trkpt>
      <trkpt lat="42.78047" lon="1.03579">
        <ele>2444.4</ele>
        <time>2018-11-24T03:18:14Z</time>
      </trkpt>
      <trkpt lat="42.78047" lon="1.03578">
        <ele>2444.4</ele>
        <time>2018-11-24T03:18:14Z</time>
      </trkpt>
      <trkpt lat="42.78047" lon="1.03578">
        <ele>2444.3</ele>
        <time>2018-11-24T03:18:15Z</time>
      </trkpt>
      <trkpt lat="42.78047" lon="1.03577">
        <ele>2445.3</ele>
        <time>2018-11-24T03:18:15Z</time>
      </trkpt>
      <trkpt lat="42.78047" lon="1.03578">
        <ele>2443.9</ele>
        <time>2018-11-24T03:18:15Z</time>
      </trkpt>
      <trkpt lat="42.78047" lon="1.03578">
        <ele>2444.3</ele>
        <time>2018-11-24T03:18:15Z</time>
      </trkpt>
      <trkpt lat="42.78046" lon="1.03577">
        <ele>2444.3</ele>
        <time>2018-11-24T03:18:16Z</time>
      </trkpt>
      <trkpt lat="42.78047" lon="1.03575">
        <ele>2444.8</ele>
        <time>2018-11-24T03:18:16Z</time>
      </trkpt>
      <trkpt lat="42.78047" lon="1.03576">
        <ele>2444.3</ele>
        <time>2018-11-24T03:18:17Z</time>
      </trkpt>
      <trkpt lat="42.78046" lon="1.03577">
        <ele>2444.9</ele>
        <time>2018-11-24T03:18:17Z</time>
      </trkpt>
      <trkpt lat="42.78046" lon="1.03578">
        <ele>2444.8</ele>
        <time>2018-11-24T03:18:17Z</time>
      </trkpt>
      <trkpt lat="42.78047" lon="1.03578">
        <ele>2445.4</ele>
        <time>2018-11-24T03:18:18Z</time>
      </trkpt>
      <trkpt lat="42.78048" lon="1.03577">
        <ele>2445.3</ele>
        <time>2018-11-24T03:18:18Z</time>
      </trkpt>
      <trkpt lat="42.78046" lon="1.03578">
        <ele>2445.3</ele>
        <time>2018-11-24T03:18:18Z</time>
      </trkpt>
      <trkpt lat="42.78047" lon="1.03579">
        <ele>2445.3</ele>
        <time>2018-11-24T03:18:19Z</time>
      </trkpt>
      <trkpt lat="42.78047" lon="1.03578">
        <ele>2446.2</ele>
        <time>2018-11-24T03:18:19Z</time>
      </trkpt>
      <trkpt lat="42.78048" lon="1.0358">
        <ele>2446.2</ele>
        <time>2018-11-24T03:18:20Z</time>
      </trkpt>
      <trkpt lat="42.78047" lon="1.03578">
        <ele>2446.2</ele>
        <time>2018-11-24T03:18:21Z</time>
      </trkpt>
      <trkpt lat="42.78047" lon="1.03579">
        <ele>2446.8</ele>
        <time>2018-11-24T03:18:21Z</time>
      </trkpt>
      <trkpt lat="42.78047" lon="1.03579">
        <ele>2446.8</ele>
        <time>2018-11-24T03:18:22Z</time>
      </trkpt>
      <trkpt lat="42.78049" lon="1.03576">
        <ele>2446.8</ele>
        <time>2018-11-24T03:18:23Z</time>
      </trkpt>
      <trkpt lat="42.78051" lon="1.03576">
        <ele>2445.4</ele>
        <time>2018-11-24T03:18:24Z</time>
      </trkpt>
      <trkpt lat="42.78058" lon="1.03571">
        <ele>2443.4</ele>
        <time>2018-11-24T03:18:26Z</time>
      </trkpt>
      <trkpt lat="42.78056" lon="1.03572">
        <ele>2444.8</ele>
        <time>2018-11-24T03:18:27Z</time>
      </trkpt>
      <trkpt lat="42.78062" lon="1.03572">
        <ele>2442.9</ele>
        <time>2018-11-24T03:18:29Z</time>
      </trkpt>
      <trkpt lat="42.7807" lon="1.03575">
        <ele>2440</ele>
        <time>2018-11-24T03:18:33Z</time>
      </trkpt>
      <trkpt lat="42.78071" lon="1.0358">
        <ele>2438</ele>
        <time>2018-11-24T03:18:34Z</time>
      </trkpt>
      <trkpt lat="42.78071" lon="1.03594">
        <ele>2435.2</ele>
        <time>2018-11-24T03:18:38Z</time>
      </trkpt>
      <trkpt lat="42.7807" lon="1.03609">
        <ele>2435.3</ele>
        <time>2018-11-24T03:18:43Z</time>
      </trkpt>
      <trkpt lat="42.78067" lon="1.03614">
        <ele>2436.6</ele>
        <time>2018-11-24T03:18:45Z</time>
      </trkpt>
      <trkpt lat="42.78066" lon="1.03631">
        <ele>2438.5</ele>
        <time>2018-11-24T03:18:50Z</time>
      </trkpt>
      <trkpt lat="42.78073" lon="1.03649">
        <ele>2438.6</ele>
        <time>2018-11-24T03:18:56Z</time>
      </trkpt>
      <trkpt lat="42.78073" lon="1.03651">
        <ele>2438.6</ele>
        <time>2018-11-24T03:18:56Z</time>
      </trkpt>
      <trkpt lat="42.78075" lon="1.03667">
        <ele>2437.2</ele>
        <time>2018-11-24T03:19:01Z</time>
      </trkpt>
      <trkpt lat="42.78069" lon="1.03683">
        <ele>2434.2</ele>
        <time>2018-11-24T03:19:06Z</time>
      </trkpt>
      <trkpt lat="42.78068" lon="1.03687">
        <ele>2434.3</ele>
        <time>2018-11-24T03:19:08Z</time>
      </trkpt>
      <trkpt lat="42.78075" lon="1.03702">
        <ele>2435.7</ele>
        <time>2018-11-24T03:19:13Z</time>
      </trkpt>
      <trkpt lat="42.78076" lon="1.03703">
        <ele>2435.7</ele>
        <time>2018-11-24T03:19:13Z</time>
      </trkpt>
      <trkpt lat="42.78082" lon="1.03703">
        <ele>2438.5</ele>
        <time>2018-11-24T03:19:16Z</time>
      </trkpt>
      <trkpt lat="42.78089" lon="1.03712">
        <ele>2441.4</ele>
        <time>2018-11-24T03:19:20Z</time>
      </trkpt>
      <trkpt lat="42.78095" lon="1.03718">
        <ele>2443.9</ele>
        <time>2018-11-24T03:19:22Z</time>
      </trkpt>
      <trkpt lat="42.78096" lon="1.03723">
        <ele>2443.8</ele>
        <time>2018-11-24T03:19:24Z</time>
      </trkpt>
      <trkpt lat="42.78097" lon="1.03729">
        <ele>2443.9</ele>
        <time>2018-11-24T03:19:26Z</time>
      </trkpt>
      <trkpt lat="42.78107" lon="1.03729">
        <ele>2443.8</ele>
        <time>2018-11-24T03:19:30Z</time>
      </trkpt>
      <trkpt lat="42.7811" lon="1.0373">
        <ele>2443.8</ele>
        <time>2018-11-24T03:19:31Z</time>
      </trkpt>
      <trkpt lat="42.78129" lon="1.03742">
        <ele>2445.3</ele>
        <time>2018-11-24T03:19:39Z</time>
      </trkpt>
      <trkpt lat="42.78134" lon="1.0375">
        <ele>2446.2</ele>
        <time>2018-11-24T03:19:42Z</time>
      </trkpt>
      <trkpt lat="42.78133" lon="1.03761">
        <ele>2446.8</ele>
        <time>2018-11-24T03:19:45Z</time>
      </trkpt>
      <trkpt lat="42.78134" lon="1.03764">
        <ele>2445.8</ele>
        <time>2018-11-24T03:19:46Z</time>
      </trkpt>
      <trkpt lat="42.78137" lon="1.03774">
        <ele>2447.3</ele>
        <time>2018-11-24T03:19:50Z</time>
      </trkpt>
      <trkpt lat="42.7815" lon="1.03776">
        <ele>2448.1</ele>
        <time>2018-11-24T03:19:55Z</time>
      </trkpt>
      <trkpt lat="42.78168" lon="1.03778">
        <ele>2450.5</ele>
        <time>2018-11-24T03:20:02Z</time>
      </trkpt>
      <trkpt lat="42.78176" lon="1.03781">
        <ele>2452.1</ele>
        <time>2018-11-24T03:20:06Z</time>
      </trkpt>
      <trkpt lat="42.7818" lon="1.03785">
        <ele>2452.5</ele>
        <time>2018-11-24T03:20:08Z</time>
      </trkpt>
      <trkpt lat="42.78182" lon="1.03787">
        <ele>2452.5</ele>
        <time>2018-11-24T03:20:09Z</time>
      </trkpt>
      <trkpt lat="42.78189" lon="1.03791">
        <ele>2452.6</ele>
        <time>2018-11-24T03:20:12Z</time>
      </trkpt>
      <trkpt lat="42.78191" lon="1.03793">
        <ele>2452.5</ele>
        <time>2018-11-24T03:20:12Z</time>
      </trkpt>
      <trkpt lat="42.78209" lon="1.03804">
        <ele>2454.9</ele>
        <time>2018-11-24T03:20:21Z</time>
      </trkpt>
      <trkpt lat="42.78216" lon="1.03805">
        <ele>2457.8</ele>
        <time>2018-11-24T03:20:23Z</time>
      </trkpt>
      <trkpt lat="42.78225" lon="1.03803">
        <ele>2460.3</ele>
        <time>2018-11-24T03:20:27Z</time>
      </trkpt>
      <trkpt lat="42.78225" lon="1.03808">
        <ele>2461.7</ele>
        <time>2018-11-24T03:20:28Z</time>
      </trkpt>
      <trkpt lat="42.7823" lon="1.03817">
        <ele>2463.6</ele>
        <time>2018-11-24T03:20:32Z</time>
      </trkpt>
      <trkpt lat="42.7823" lon="1.03829">
        <ele>2465</ele>
        <time>2018-11-24T03:20:35Z</time>
      </trkpt>
      <trkpt lat="42.78235" lon="1.03836">
        <ele>2466.9</ele>
        <time>2018-11-24T03:20:38Z</time>
      </trkpt>
      <trkpt lat="42.78238" lon="1.03838">
        <ele>2467.4</ele>
        <time>2018-11-24T03:20:40Z</time>
      </trkpt>
      <trkpt lat="42.78245" lon="1.03851">
        <ele>2470.7</ele>
        <time>2018-11-24T03:20:44Z</time>
      </trkpt>
      <trkpt lat="42.78247" lon="1.03849">
        <ele>2471.3</ele>
        <time>2018-11-24T03:20:45Z</time>
      </trkpt>
      <trkpt lat="42.78255" lon="1.03839">
        <ele>2471.3</ele>
        <time>2018-11-24T03:20:50Z</time>
      </trkpt>
      <trkpt lat="42.78262" lon="1.03838">
        <ele>2471.2</ele>
        <time>2018-11-24T03:20:52Z</time>
      </trkpt>
      <trkpt lat="42.78265" lon="1.03842">
        <ele>2469.9</ele>
        <time>2018-11-24T03:20:54Z</time>
      </trkpt>
      <trkpt lat="42.78266" lon="1.03846">
        <ele>2469.4</ele>
        <time>2018-11-24T03:20:55Z</time>
      </trkpt>
      <trkpt lat="42.78273" lon="1.03856">
        <ele>2467</ele>
        <time>2018-11-24T03:21:00Z</time>
      </trkpt>
      <trkpt lat="42.78286" lon="1.03861">
        <ele>2465.4</ele>
        <time>2018-11-24T03:21:05Z</time>
      </trkpt>
      <trkpt lat="42.78294" lon="1.03853">
        <ele>2465.1</ele>
        <time>2018-11-24T03:21:09Z</time>
      </trkpt>
      <trkpt lat="42.78308" lon="1.03849">
        <ele>2466.4</ele>
        <time>2018-11-24T03:21:14Z</time>
      </trkpt>
      <trkpt lat="42.78315" lon="1.03846">
        <ele>2467.8</ele>
        <time>2018-11-24T03:21:17Z</time>
      </trkpt>
      <trkpt lat="42.78327" lon="1.03844">
        <ele>2468.3</ele>
        <time>2018-11-24T03:21:22Z</time>
      </trkpt>
      <trkpt lat="42.78329" lon="1.03843">
        <ele>2468.4</ele>
        <time>2018-11-24T03:21:23Z</time>
      </trkpt>
      <trkpt lat="42.78333" lon="1.03844">
        <ele>2468.3</ele>
        <time>2018-11-24T03:21:25Z</time>
      </trkpt>
      <trkpt lat="42.78343" lon="1.03861">
        <ele>2468.8</ele>
        <time>2018-11-24T03:21:31Z</time>
      </trkpt>
      <trkpt lat="42.78353" lon="1.03877">
        <ele>2470.2</ele>
        <time>2018-11-24T03:21:37Z</time>
      </trkpt>
      <trkpt lat="42.78361" lon="1.03888">
        <ele>2472.7</ele>
        <time>2018-11-24T03:21:42Z</time>
      </trkpt>
      <trkpt lat="42.78371" lon="1.03899">
        <ele>2475.1</ele>
        <time>2018-11-24T03:21:47Z</time>
      </trkpt>
      <trkpt lat="42.7838" lon="1.039">
        <ele>2478</ele>
        <time>2018-11-24T03:21:51Z</time>
      </trkpt>
      <trkpt lat="42.78393" lon="1.03895">
        <ele>2480.3</ele>
        <time>2018-11-24T03:21:56Z</time>
      </trkpt>
      <trkpt lat="42.78402" lon="1.03892">
        <ele>2480.9</ele>
        <time>2018-11-24T03:22:00Z</time>
      </trkpt>
      <trkpt lat="42.78412" lon="1.03875">
        <ele>2480.8</ele>
        <time>2018-11-24T03:22:06Z</time>
      </trkpt>
      <trkpt lat="42.78417" lon="1.03872">
        <ele>2481.8</ele>
        <time>2018-11-24T03:22:09Z</time>
      </trkpt>
      <trkpt lat="42.78432" lon="1.0386">
        <ele>2483.7</ele>
        <time>2018-11-24T03:22:15Z</time>
      </trkpt>
      <trkpt lat="42.78434" lon="1.03858">
        <ele>2484.8</ele>
        <time>2018-11-24T03:22:16Z</time>
      </trkpt>
      <trkpt lat="42.78451" lon="1.03842">
        <ele>2487.6</ele>
        <time>2018-11-24T03:22:25Z</time>
      </trkpt>
      <trkpt lat="42.78457" lon="1.03836">
        <ele>2490.4</ele>
        <time>2018-11-24T03:22:28Z</time>
      </trkpt>
      <trkpt lat="42.78457" lon="1.03836">
        <ele>2490.5</ele>
        <time>2018-11-24T03:22:28Z</time>
      </trkpt>
      <trkpt lat="42.78459" lon="1.03835">
        <ele>2490.5</ele>
        <time>2018-11-24T03:22:29Z</time>
      </trkpt>
      <trkpt lat="42.7848" lon="1.03827">
        <ele>2490.5</ele>
        <time>2018-11-24T03:22:37Z</time>
      </trkpt>
      <trkpt lat="42.78501" lon="1.03825">
        <ele>2490.5</ele>
        <time>2018-11-24T03:22:46Z</time>
      </trkpt>
      <trkpt lat="42.78517" lon="1.03823">
        <ele>2492</ele>
        <time>2018-11-24T03:22:52Z</time>
      </trkpt>
      <trkpt lat="42.78531" lon="1.03814">
        <ele>2494.9</ele>
        <time>2018-11-24T03:22:58Z</time>
      </trkpt>
      <trkpt lat="42.78547" lon="1.03807">
        <ele>2496.2</ele>
        <time>2018-11-24T03:23:05Z</time>
      </trkpt>
      <trkpt lat="42.78559" lon="1.0381">
        <ele>2496.2</ele>
        <time>2018-11-24T03:23:10Z</time>
      </trkpt>
      <trkpt lat="42.78575" lon="1.03809">
        <ele>2497.3</ele>
        <time>2018-11-24T03:23:17Z</time>
      </trkpt>
      <trkpt lat="42.78578" lon="1.03809">
        <ele>2498.6</ele>
        <time>2018-11-24T03:23:18Z</time>
      </trkpt>
      <trkpt lat="42.78584" lon="1.03811">
        <ele>2498.7</ele>
        <time>2018-11-24T03:23:20Z</time>
      </trkpt>
      <trkpt lat="42.78588" lon="1.03813">
        <ele>2497.3</ele>
        <time>2018-11-24T03:23:22Z</time>
      </trkpt>
      <trkpt lat="42.78597" lon="1.03817">
        <ele>2496.8</ele>
        <time>2018-11-24T03:23:25Z</time>
      </trkpt>
      <trkpt lat="42.78618" lon="1.0382">
        <ele>2496.7</ele>
        <time>2018-11-24T03:23:34Z</time>
      </trkpt>
      <trkpt lat="42.78635" lon="1.03823">
        <ele>2497.6</ele>
        <time>2018-11-24T03:23:41Z</time>
      </trkpt>
      <trkpt lat="42.78639" lon="1.03822">
        <ele>2497.6</ele>
        <time>2018-11-24T03:23:42Z</time>
      </trkpt>
      <trkpt lat="42.7865" lon="1.03814">
        <ele>2497.6</ele>
        <time>2018-11-24T03:23:48Z</time>
      </trkpt>
      <trkpt lat="42.78655" lon="1.0381">
        <ele>2497.7</ele>
        <time>2018-11-24T03:23:50Z</time>
      </trkpt>
      <trkpt lat="42.78655" lon="1.03809">
        <ele>2498.1</ele>
        <time>2018-11-24T03:23:50Z</time>
      </trkpt>
      <trkpt lat="42.78655" lon="1.03807">
        <ele>2498.1</ele>
        <time>2018-11-24T03:23:51Z</time>
      </trkpt>
      <trkpt lat="42.78662" lon="1.03809">
        <ele>2498.1</ele>
        <time>2018-11-24T03:23:54Z</time>
      </trkpt>
      <trkpt lat="42.78675" lon="1.03806">
        <ele>2500.2</ele>
        <time>2018-11-24T03:23:59Z</time>
      </trkpt>
      <trkpt lat="42.78678" lon="1.03803">
        <ele>2500.1</ele>
        <time>2018-11-24T03:24:00Z</time>
      </trkpt>
      <trkpt lat="42.7868" lon="1.03802">
        <ele>2500.2</ele>
        <time>2018-11-24T03:24:01Z</time>
      </trkpt>
      <trkpt lat="42.78682" lon="1.038">
        <ele>2500.5</ele>
        <time>2018-11-24T03:24:02Z</time>
      </trkpt>
      <trkpt lat="42.78684" lon="1.03799">
        <ele>2500.6</ele>
        <time>2018-11-24T03:24:03Z</time>
      </trkpt>
      <trkpt lat="42.78693" lon="1.0379">
        <ele>2501</ele>
        <time>2018-11-24T03:24:07Z</time>
      </trkpt>
      <trkpt lat="42.78697" lon="1.03788">
        <ele>2501.6</ele>
        <time>2018-11-24T03:24:09Z</time>
      </trkpt>
      <trkpt lat="42.78696" lon="1.03789">
        <ele>2502.5</ele>
        <time>2018-11-24T03:24:10Z</time>
      </trkpt>
      <trkpt lat="42.78697" lon="1.03788">
        <ele>2502.5</ele>
        <time>2018-11-24T03:24:10Z</time>
      </trkpt>
      <trkpt lat="42.78699" lon="1.03787">
        <ele>2501.5</ele>
        <time>2018-11-24T03:24:11Z</time>
      </trkpt>
      <trkpt lat="42.78707" lon="1.03785">
        <ele>2501.5</ele>
        <time>2018-11-24T03:24:14Z</time>
      </trkpt>
      <trkpt lat="42.78717" lon="1.03781">
        <ele>2500.2</ele>
        <time>2018-11-24T03:24:18Z</time>
      </trkpt>
      <trkpt lat="42.78723" lon="1.0378">
        <ele>2500.2</ele>
        <time>2018-11-24T03:24:21Z</time>
      </trkpt>
      <trkpt lat="42.78739" lon="1.03784">
        <ele>2499.2</ele>
        <time>2018-11-24T03:24:27Z</time>
      </trkpt>
      <trkpt lat="42.78742" lon="1.03788">
        <ele>2498.7</ele>
        <time>2018-11-24T03:24:29Z</time>
      </trkpt>
      <trkpt lat="42.78755" lon="1.03802">
        <ele>2496.3</ele>
        <time>2018-11-24T03:24:36Z</time>
      </trkpt>
      <trkpt lat="42.78761" lon="1.03811">
        <ele>2493.4</ele>
        <time>2018-11-24T03:24:39Z</time>
      </trkpt>
      <trkpt lat="42.78768" lon="1.03819">
        <ele>2489.9</ele>
        <time>2018-11-24T03:24:43Z</time>
      </trkpt>
      <trkpt lat="42.7877" lon="1.03823">
        <ele>2487.7</ele>
        <time>2018-11-24T03:24:44Z</time>
      </trkpt>
      <trkpt lat="42.78771" lon="1.03831">
        <ele>2486.7</ele>
        <time>2018-11-24T03:24:47Z</time>
      </trkpt>
      <trkpt lat="42.78774" lon="1.03839">
        <ele>2485.2</ele>
        <time>2018-11-24T03:24:49Z</time>
      </trkpt>
      <trkpt lat="42.78782" lon="1.03854">
        <ele>2481.3</ele>
        <time>2018-11-24T03:24:55Z</time>
      </trkpt>
      <trkpt lat="42.78782" lon="1.03857">
        <ele>2480.3</ele>
        <time>2018-11-24T03:24:55Z</time>
      </trkpt>
      <trkpt lat="42.78784" lon="1.03862">
        <ele>2480</ele>
        <time>2018-11-24T03:24:57Z</time>
      </trkpt>
      <trkpt lat="42.78788" lon="1.03877">
        <ele>2476.6</ele>
        <time>2018-11-24T03:25:02Z</time>
      </trkpt>
      <trkpt lat="42.78788" lon="1.0389">
        <ele>2474.7</ele>
        <time>2018-11-24T03:25:06Z</time>
      </trkpt>
      <trkpt lat="42.78791" lon="1.03904">
        <ele>2471.2</ele>
        <time>2018-11-24T03:25:10Z</time>
      </trkpt>
      <trkpt lat="42.78796" lon="1.03918">
        <ele>2468.9</ele>
        <time>2018-11-24T03:25:14Z</time>
      </trkpt>
      <trkpt lat="42.78799" lon="1.03928">
        <ele>2465.5</ele>
        <time>2018-11-24T03:25:18Z</time>
      </trkpt>
      <trkpt lat="42.788" lon="1.03934">
        <ele>2464</ele>
        <time>2018-11-24T03:25:20Z</time>
      </trkpt>
      <trkpt lat="42.78799" lon="1.03937">
        <ele>2463.6</ele>
        <time>2018-11-24T03:25:21Z</time>
      </trkpt>
      <trkpt lat="42.78794" lon="1.03952">
        <ele>2460.6</ele>
        <time>2018-11-24T03:25:26Z</time>
      </trkpt>
      <trkpt lat="42.78792" lon="1.03967">
        <ele>2458.8</ele>
        <time>2018-11-24T03:25:30Z</time>
      </trkpt>
      <trkpt lat="42.78791" lon="1.03976">
        <ele>2456.3</ele>
        <time>2018-11-24T03:25:33Z</time>
      </trkpt>
      <trkpt lat="42.78794" lon="1.03982">
        <ele>2452.5</ele>
        <time>2018-11-24T03:25:35Z</time>
      </trkpt>
      <trkpt lat="42.78799" lon="1.03983">
        <ele>2450.6</ele>
        <time>2018-11-24T03:25:37Z</time>
      </trkpt>
      <trkpt lat="42.78799" lon="1.03991">
        <ele>2448.1</ele>
        <time>2018-11-24T03:25:39Z</time>
      </trkpt>
      <trkpt lat="42.788" lon="1.04">
        <ele>2444.9</ele>
        <time>2018-11-24T03:25:42Z</time>
      </trkpt>
      <trkpt lat="42.78805" lon="1.04004">
        <ele>2441.4</ele>
        <time>2018-11-24T03:25:44Z</time>
      </trkpt>
      <trkpt lat="42.7881" lon="1.04001">
        <ele>2438.6</ele>
        <time>2018-11-24T03:25:46Z</time>
      </trkpt>
      <trkpt lat="42.78814" lon="1.03995">
        <ele>2435.2</ele>
        <time>2018-11-24T03:25:49Z</time>
      </trkpt>
      <trkpt lat="42.7882" lon="1.04">
        <ele>2431.9</ele>
        <time>2018-11-24T03:25:51Z</time>
      </trkpt>
      <trkpt lat="42.78823" lon="1.03999">
        <ele>2429.9</ele>
        <time>2018-11-24T03:25:53Z</time>
      </trkpt>
      <trkpt lat="42.78826" lon="1.04002">
        <ele>2429</ele>
        <time>2018-11-24T03:25:54Z</time>
      </trkpt>
      <trkpt lat="42.78822" lon="1.04007">
        <ele>2427.9</ele>
        <time>2018-11-24T03:25:56Z</time>
      </trkpt>
      <trkpt lat="42.78821" lon="1.04017">
        <ele>2426.5</ele>
        <time>2018-11-24T03:25:59Z</time>
      </trkpt>
      <trkpt lat="42.7882" lon="1.04033">
        <ele>2422.7</ele>
        <time>2018-11-24T03:26:04Z</time>
      </trkpt>
      <trkpt lat="42.78819" lon="1.04039">
        <ele>2422.2</ele>
        <time>2018-11-24T03:26:06Z</time>
      </trkpt>
      <trkpt lat="42.78816" lon="1.04043">
        <ele>2421.8</ele>
        <time>2018-11-24T03:26:07Z</time>
      </trkpt>
      <trkpt lat="42.78812" lon="1.04053">
        <ele>2420.4</ele>
        <time>2018-11-24T03:26:11Z</time>
      </trkpt>
      <trkpt lat="42.78811" lon="1.04057">
        <ele>2419.4</ele>
        <time>2018-11-24T03:26:12Z</time>
      </trkpt>
      <trkpt lat="42.78808" lon="1.04062">
        <ele>2419.4</ele>
        <time>2018-11-24T03:26:14Z</time>
      </trkpt>
      <trkpt lat="42.78804" lon="1.04071">
        <ele>2419.4</ele>
        <time>2018-11-24T03:26:17Z</time>
      </trkpt>
      <trkpt lat="42.78802" lon="1.04083">
        <ele>2419.4</ele>
        <time>2018-11-24T03:26:21Z</time>
      </trkpt>
      <trkpt lat="42.78802" lon="1.04086">
        <ele>2418.8</ele>
        <time>2018-11-24T03:26:22Z</time>
      </trkpt>
      <trkpt lat="42.78801" lon="1.04093">
        <ele>2418.8</ele>
        <time>2018-11-24T03:26:24Z</time>
      </trkpt>
      <trkpt lat="42.78803" lon="1.04095">
        <ele>2418.8</ele>
        <time>2018-11-24T03:26:24Z</time>
      </trkpt>
      <trkpt lat="42.78802" lon="1.04099">
        <ele>2418.8</ele>
        <time>2018-11-24T03:26:26Z</time>
      </trkpt>
      <trkpt lat="42.78804" lon="1.04113">
        <ele>2416.4</ele>
        <time>2018-11-24T03:26:30Z</time>
      </trkpt>
      <trkpt lat="42.78808" lon="1.04124">
        <ele>2413.5</ele>
        <time>2018-11-24T03:26:34Z</time>
      </trkpt>
      <trkpt lat="42.78811" lon="1.04137">
        <ele>2412.6</ele>
        <time>2018-11-24T03:26:37Z</time>
      </trkpt>
      <trkpt lat="42.78814" lon="1.04146">
        <ele>2411.6</ele>
        <time>2018-11-24T03:26:40Z</time>
      </trkpt>
      <trkpt lat="42.78815" lon="1.0415">
        <ele>2411.6</ele>
        <time>2018-11-24T03:26:41Z</time>
      </trkpt>
      <trkpt lat="42.7882" lon="1.04166">
        <ele>2411.6</ele>
        <time>2018-11-24T03:26:47Z</time>
      </trkpt>
      <trkpt lat="42.78821" lon="1.04168">
        <ele>2413.1</ele>
        <time>2018-11-24T03:26:47Z</time>
      </trkpt>
      <trkpt lat="42.78824" lon="1.04181">
        <ele>2415</ele>
        <time>2018-11-24T03:26:51Z</time>
      </trkpt>
      <trkpt lat="42.78829" lon="1.04182">
        <ele>2416.5</ele>
        <time>2018-11-24T03:26:53Z</time>
      </trkpt>
      <trkpt lat="42.78834" lon="1.04194">
        <ele>2418.3</ele>
        <time>2018-11-24T03:26:57Z</time>
      </trkpt>
      <trkpt lat="42.78834" lon="1.042">
        <ele>2421.2</ele>
        <time>2018-11-24T03:26:59Z</time>
      </trkpt>
      <trkpt lat="42.78839" lon="1.04209">
        <ele>2422.2</ele>
        <time>2018-11-24T03:27:02Z</time>
      </trkpt>
      <trkpt lat="42.78843" lon="1.04217">
        <ele>2424.1</ele>
        <time>2018-11-24T03:27:05Z</time>
      </trkpt>
      <trkpt lat="42.78848" lon="1.04226">
        <ele>2427.1</ele>
        <time>2018-11-24T03:27:09Z</time>
      </trkpt>
      <trkpt lat="42.78854" lon="1.0423">
        <ele>2429.5</ele>
        <time>2018-11-24T03:27:11Z</time>
      </trkpt>
      <trkpt lat="42.78858" lon="1.0423">
        <ele>2430.8</ele>
        <time>2018-11-24T03:27:13Z</time>
      </trkpt>
      <trkpt lat="42.78864" lon="1.04235">
        <ele>2431.4</ele>
        <time>2018-11-24T03:27:16Z</time>
      </trkpt>
      <trkpt lat="42.78861" lon="1.04239">
        <ele>2431.9</ele>
        <time>2018-11-24T03:27:17Z</time>
      </trkpt>
      <trkpt lat="42.78868" lon="1.04237">
        <ele>2432.3</ele>
        <time>2018-11-24T03:27:20Z</time>
      </trkpt>
      <trkpt lat="42.78872" lon="1.04236">
        <ele>2433.8</ele>
        <time>2018-11-24T03:27:22Z</time>
      </trkpt>
      <trkpt lat="42.78878" lon="1.04235">
        <ele>2432.3</ele>
        <time>2018-11-24T03:27:24Z</time>
      </trkpt>
      <trkpt lat="42.78884" lon="1.04238">
        <ele>2432.4</ele>
        <time>2018-11-24T03:27:27Z</time>
      </trkpt>
      <trkpt lat="42.78892" lon="1.0424">
        <ele>2431.9</ele>
        <time>2018-11-24T03:27:30Z</time>
      </trkpt>
      <trkpt lat="42.78901" lon="1.04242">
        <ele>2431.3</ele>
        <time>2018-11-24T03:27:34Z</time>
      </trkpt>
      <trkpt lat="42.78914" lon="1.04252">
        <ele>2430.4</ele>
        <time>2018-11-24T03:27:39Z</time>
      </trkpt>
      <trkpt lat="42.78918" lon="1.04254">
        <ele>2430.5</ele>
        <time>2018-11-24T03:27:41Z</time>
      </trkpt>
      <trkpt lat="42.78922" lon="1.04256">
        <ele>2430.8</ele>
        <time>2018-11-24T03:27:43Z</time>
      </trkpt>
      <trkpt lat="42.78929" lon="1.04254">
        <ele>2430.5</ele>
        <time>2018-11-24T03:27:46Z</time>
      </trkpt>
      <trkpt lat="42.78926" lon="1.04252">
        <ele>2430.4</ele>
        <time>2018-11-24T03:27:47Z</time>
      </trkpt>
      <trkpt lat="42.78927" lon="1.0425">
        <ele>2430.5</ele>
        <time>2018-11-24T03:27:48Z</time>
      </trkpt>
      <trkpt lat="42.78933" lon="1.04242">
        <ele>2430</ele>
        <time>2018-11-24T03:27:51Z</time>
      </trkpt>
      <trkpt lat="42.78925" lon="1.04243">
        <ele>2430</ele>
        <time>2018-11-24T03:27:55Z</time>
      </trkpt>
      <trkpt lat="42.78922" lon="1.04241">
        <ele>2430.5</ele>
        <time>2018-11-24T03:27:56Z</time>
      </trkpt>
      <trkpt lat="42.78923" lon="1.04237">
        <ele>2430.8</ele>
        <time>2018-11-24T03:27:57Z</time>
      </trkpt>
      <trkpt lat="42.78927" lon="1.04242">
        <ele>2430.9</ele>
        <time>2018-11-24T03:28:00Z</time>
      </trkpt>
      <trkpt lat="42.7893" lon="1.04245">
        <ele>2430.8</ele>
        <time>2018-11-24T03:28:01Z</time>
      </trkpt>
      <trkpt lat="42.78931" lon="1.04246">
        <ele>2430.8</ele>
        <time>2018-11-24T03:28:02Z</time>
      </trkpt>
      <trkpt lat="42.78935" lon="1.04252">
        <ele>2430.4</ele>
        <time>2018-11-24T03:28:04Z</time>
      </trkpt>
      <trkpt lat="42.78939" lon="1.04247">
        <ele>2429</ele>
        <time>2018-11-24T03:28:06Z</time>
      </trkpt>
      <trkpt lat="42.78946" lon="1.04246">
        <ele>2425.2</ele>
        <time>2018-11-24T03:28:09Z</time>
      </trkpt>
      <trkpt lat="42.78948" lon="1.04244">
        <ele>2423.2</ele>
        <time>2018-11-24T03:28:10Z</time>
      </trkpt>
      <trkpt lat="42.78958" lon="1.04247">
        <ele>2421.7</ele>
        <time>2018-11-24T03:28:14Z</time>
      </trkpt>
      <trkpt lat="42.78959" lon="1.04244">
        <ele>2421.8</ele>
        <time>2018-11-24T03:28:15Z</time>
      </trkpt>
      <trkpt lat="42.78958" lon="1.04247">
        <ele>2423.2</ele>
        <time>2018-11-24T03:28:16Z</time>
      </trkpt>
      <trkpt lat="42.78959" lon="1.04249">
        <ele>2423.7</ele>
        <time>2018-11-24T03:28:16Z</time>
      </trkpt>
      <trkpt lat="42.78961" lon="1.04241">
        <ele>2423.6</ele>
        <time>2018-11-24T03:28:19Z</time>
      </trkpt>
      <trkpt lat="42.7896" lon="1.04245">
        <ele>2423.7</ele>
        <time>2018-11-24T03:28:20Z</time>
      </trkpt>
      <trkpt lat="42.78957" lon="1.04252">
        <ele>2422.2</ele>
        <time>2018-11-24T03:28:23Z</time>
      </trkpt>
      <trkpt lat="42.78962" lon="1.04248">
        <ele>2420.3</ele>
        <time>2018-11-24T03:28:25Z</time>
      </trkpt>
      <trkpt lat="42.78968" lon="1.04241">
        <ele>2417.9</ele>
        <time>2018-11-24T03:28:28Z</time>
      </trkpt>
      <trkpt lat="42.78971" lon="1.04239">
        <ele>2415.9</ele>
        <time>2018-11-24T03:28:29Z</time>
      </trkpt>
      <trkpt lat="42.78979" lon="1.04226">
        <ele>2412.2</ele>
        <time>2018-11-24T03:28:34Z</time>
      </trkpt>
      <trkpt lat="42.7898" lon="1.04223">
        <ele>2411.6</ele>
        <time>2018-11-24T03:28:35Z</time>
      </trkpt>
      <trkpt lat="42.78982" lon="1.04216">
        <ele>2410.2</ele>
        <time>2018-11-24T03:28:37Z</time>
      </trkpt>
      <trkpt lat="42.78988" lon="1.04212">
        <ele>2406.9</ele>
        <time>2018-11-24T03:28:40Z</time>
      </trkpt>
      <trkpt lat="42.78999" lon="1.04212">
        <ele>2403.4</ele>
        <time>2018-11-24T03:28:44Z</time>
      </trkpt>
      <trkpt lat="42.78999" lon="1.04213">
        <ele>2403.4</ele>
        <time>2018-11-24T03:28:45Z</time>
      </trkpt>
      <trkpt lat="42.79004" lon="1.04223">
        <ele>2402.5</ele>
        <time>2018-11-24T03:28:48Z</time>
      </trkpt>
      <trkpt lat="42.79006" lon="1.04246">
        <ele>2399.2</ele>
        <time>2018-11-24T03:28:55Z</time>
      </trkpt>
      <trkpt lat="42.79011" lon="1.04257">
        <ele>2396.2</ele>
        <time>2018-11-24T03:28:59Z</time>
      </trkpt>
      <trkpt lat="42.79014" lon="1.04267">
        <ele>2393.3</ele>
        <time>2018-11-24T03:29:02Z</time>
      </trkpt>
      <trkpt lat="42.79014" lon="1.04281">
        <ele>2390.1</ele>
        <time>2018-11-24T03:29:06Z</time>
      </trkpt>
      <trkpt lat="42.79014" lon="1.04282">
        <ele>2390.1</ele>
        <time>2018-11-24T03:29:06Z</time>
      </trkpt>
      <trkpt lat="42.79014" lon="1.04301">
        <ele>2386.7</ele>
        <time>2018-11-24T03:29:12Z</time>
      </trkpt>
      <trkpt lat="42.79014" lon="1.04313">
        <ele>2383.8</ele>
        <time>2018-11-24T03:29:15Z</time>
      </trkpt>
      <trkpt lat="42.79015" lon="1.04327">
        <ele>2380</ele>
        <time>2018-11-24T03:29:20Z</time>
      </trkpt>
      <trkpt lat="42.79014" lon="1.04345">
        <ele>2376.1</ele>
        <time>2018-11-24T03:29:25Z</time>
      </trkpt>
      <trkpt lat="42.79015" lon="1.04358">
        <ele>2373.3</ele>
        <time>2018-11-24T03:29:29Z</time>
      </trkpt>
      <trkpt lat="42.79014" lon="1.04363">
        <ele>2371.8</ele>
        <time>2018-11-24T03:29:30Z</time>
      </trkpt>
      <trkpt lat="42.79014" lon="1.04376">
        <ele>2368.5</ele>
        <time>2018-11-24T03:29:34Z</time>
      </trkpt>
      <trkpt lat="42.79014" lon="1.04391">
        <ele>2365.1</ele>
        <time>2018-11-24T03:29:38Z</time>
      </trkpt>
      <trkpt lat="42.79015" lon="1.04409">
        <ele>2361.6</ele>
        <time>2018-11-24T03:29:44Z</time>
      </trkpt>
      <trkpt lat="42.79015" lon="1.04415">
        <ele>2360.2</ele>
        <time>2018-11-24T03:29:46Z</time>
      </trkpt>
      <trkpt lat="42.79017" lon="1.04435">
        <ele>2356.9</ele>
        <time>2018-11-24T03:29:52Z</time>
      </trkpt>
      <trkpt lat="42.79014" lon="1.04447">
        <ele>2354</ele>
        <time>2018-11-24T03:29:55Z</time>
      </trkpt>
      <trkpt lat="42.79013" lon="1.04468">
        <ele>2350.7</ele>
        <time>2018-11-24T03:30:01Z</time>
      </trkpt>
      <trkpt lat="42.79011" lon="1.04473">
        <ele>2350.1</ele>
        <time>2018-11-24T03:30:03Z</time>
      </trkpt>
      <trkpt lat="42.79008" lon="1.04491">
        <ele>2346.7</ele>
        <time>2018-11-24T03:30:08Z</time>
      </trkpt>
      <trkpt lat="42.79008" lon="1.04499">
        <ele>2345.3</ele>
        <time>2018-11-24T03:30:11Z</time>
      </trkpt>
      <trkpt lat="42.79009" lon="1.04508">
        <ele>2344.4</ele>
        <time>2018-11-24T03:30:13Z</time>
      </trkpt>
      <trkpt lat="42.79006" lon="1.04529">
        <ele>2340.5</ele>
        <time>2018-11-24T03:30:20Z</time>
      </trkpt>
      <trkpt lat="42.79003" lon="1.04542">
        <ele>2338.6</ele>
        <time>2018-11-24T03:30:24Z</time>
      </trkpt>
      <trkpt lat="42.79003" lon="1.04549">
        <ele>2338.5</ele>
        <time>2018-11-24T03:30:26Z</time>
      </trkpt>
      <trkpt lat="42.79001" lon="1.04562">
        <ele>2335.7</ele>
        <time>2018-11-24T03:30:30Z</time>
      </trkpt>
      <trkpt lat="42.79" lon="1.04569">
        <ele>2334.7</ele>
        <time>2018-11-24T03:30:32Z</time>
      </trkpt>
      <trkpt lat="42.78998" lon="1.04587">
        <ele>2333.4</ele>
        <time>2018-11-24T03:30:37Z</time>
      </trkpt>
      <trkpt lat="42.79001" lon="1.04585">
        <ele>2333.3</ele>
        <time>2018-11-24T03:30:39Z</time>
      </trkpt>
      <trkpt lat="42.79005" lon="1.04586">
        <ele>2332.8</ele>
        <time>2018-11-24T03:30:40Z</time>
      </trkpt>
      <trkpt lat="42.79007" lon="1.04589">
        <ele>2332.9</ele>
        <time>2018-11-24T03:30:41Z</time>
      </trkpt>
      <trkpt lat="42.79003" lon="1.04587">
        <ele>2332.9</ele>
        <time>2018-11-24T03:30:43Z</time>
      </trkpt>
      <trkpt lat="42.79006" lon="1.04586">
        <ele>2332.4</ele>
        <time>2018-11-24T03:30:44Z</time>
      </trkpt>
      <trkpt lat="42.79004" lon="1.04586">
        <ele>2333.7</ele>
        <time>2018-11-24T03:30:45Z</time>
      </trkpt>
      <trkpt lat="42.79001" lon="1.04584">
        <ele>2333.3</ele>
        <time>2018-11-24T03:30:46Z</time>
      </trkpt>
      <trkpt lat="42.78999" lon="1.0459">
        <ele>2333.3</ele>
        <time>2018-11-24T03:30:48Z</time>
      </trkpt>
      <trkpt lat="42.78995" lon="1.04592">
        <ele>2331.9</ele>
        <time>2018-11-24T03:30:50Z</time>
      </trkpt>
      <trkpt lat="42.78994" lon="1.04599">
        <ele>2330.8</ele>
        <time>2018-11-24T03:30:52Z</time>
      </trkpt>
      <trkpt lat="42.7899" lon="1.04624">
        <ele>2327.5</ele>
        <time>2018-11-24T03:30:59Z</time>
      </trkpt>
      <trkpt lat="42.78989" lon="1.04627">
        <ele>2327.6</ele>
        <time>2018-11-24T03:31:00Z</time>
      </trkpt>
      <trkpt lat="42.78987" lon="1.04632">
        <ele>2325.2</ele>
        <time>2018-11-24T03:31:02Z</time>
      </trkpt>
      <trkpt lat="42.7898" lon="1.04643">
        <ele>2320.4</ele>
        <time>2018-11-24T03:31:06Z</time>
      </trkpt>
      <trkpt lat="42.78973" lon="1.04652">
        <ele>2317</ele>
        <time>2018-11-24T03:31:10Z</time>
      </trkpt>
      <trkpt lat="42.78973" lon="1.04655">
        <ele>2315.5</ele>
        <time>2018-11-24T03:31:11Z</time>
      </trkpt>
      <trkpt lat="42.78973" lon="1.04656">
        <ele>2315.6</ele>
        <time>2018-11-24T03:31:11Z</time>
      </trkpt>
      <trkpt lat="42.78971" lon="1.04669">
        <ele>2312.2</ele>
        <time>2018-11-24T03:31:15Z</time>
      </trkpt>
      <trkpt lat="42.78971" lon="1.0467">
        <ele>2313.6</ele>
        <time>2018-11-24T03:31:16Z</time>
      </trkpt>
      <trkpt lat="42.78964" lon="1.0468">
        <ele>2308.4</ele>
        <time>2018-11-24T03:31:20Z</time>
      </trkpt>
      <trkpt lat="42.78961" lon="1.04692">
        <ele>2307.3</ele>
        <time>2018-11-24T03:31:23Z</time>
      </trkpt>
      <trkpt lat="42.78961" lon="1.04701">
        <ele>2307.3</ele>
        <time>2018-11-24T03:31:26Z</time>
      </trkpt>
      <trkpt lat="42.7896" lon="1.04715">
        <ele>2305.4</ele>
        <time>2018-11-24T03:31:30Z</time>
      </trkpt>
      <trkpt lat="42.78961" lon="1.04722">
        <ele>2303.5</ele>
        <time>2018-11-24T03:31:32Z</time>
      </trkpt>
      <trkpt lat="42.78965" lon="1.04747">
        <ele>2300.7</ele>
        <time>2018-11-24T03:31:40Z</time>
      </trkpt>
      <trkpt lat="42.78961" lon="1.04758">
        <ele>2298.3</ele>
        <time>2018-11-24T03:31:43Z</time>
      </trkpt>
      <trkpt lat="42.78961" lon="1.04764">
        <ele>2297.2</ele>
        <time>2018-11-24T03:31:45Z</time>
      </trkpt>
      <trkpt lat="42.78958" lon="1.04771">
        <ele>2296.8</ele>
        <time>2018-11-24T03:31:48Z</time>
      </trkpt>
      <trkpt lat="42.78955" lon="1.04792">
        <ele>2294.8</ele>
        <time>2018-11-24T03:31:54Z</time>
      </trkpt>
      <trkpt lat="42.78956" lon="1.04817">
        <ele>2292.4</ele>
        <time>2018-11-24T03:32:01Z</time>
      </trkpt>
      <trkpt lat="42.78959" lon="1.04833">
        <ele>2289.1</ele>
        <time>2018-11-24T03:32:06Z</time>
      </trkpt>
      <trkpt lat="42.78961" lon="1.04846">
        <ele>2287.2</ele>
        <time>2018-11-24T03:32:10Z</time>
      </trkpt>
      <trkpt lat="42.7896" lon="1.04844">
        <ele>2287.2</ele>
        <time>2018-11-24T03:32:11Z</time>
      </trkpt>
      <trkpt lat="42.78962" lon="1.0485">
        <ele>2286.1</ele>
        <time>2018-11-24T03:32:13Z</time>
      </trkpt>
      <trkpt lat="42.78963" lon="1.04853">
        <ele>2286.1</ele>
        <time>2018-11-24T03:32:14Z</time>
      </trkpt>
      <trkpt lat="42.78965" lon="1.04869">
        <ele>2282.8</ele>
        <time>2018-11-24T03:32:19Z</time>
      </trkpt>
      <trkpt lat="42.78964" lon="1.04873">
        <ele>2281.8</ele>
        <time>2018-11-24T03:32:20Z</time>
      </trkpt>
      <trkpt lat="42.7896" lon="1.04881">
        <ele>2279.9</ele>
        <time>2018-11-24T03:32:23Z</time>
      </trkpt>
      <trkpt lat="42.78962" lon="1.04885">
        <ele>2279</ele>
        <time>2018-11-24T03:32:24Z</time>
      </trkpt>
      <trkpt lat="42.78966" lon="1.04898">
        <ele>2277.6</ele>
        <time>2018-11-24T03:32:28Z</time>
      </trkpt>
      <trkpt lat="42.78964" lon="1.04908">
        <ele>2274.7</ele>
        <time>2018-11-24T03:32:31Z</time>
      </trkpt>
      <trkpt lat="42.78962" lon="1.04911">
        <ele>2273.3</ele>
        <time>2018-11-24T03:32:33Z</time>
      </trkpt>
      <trkpt lat="42.78961" lon="1.04925">
        <ele>2270.4</ele>
        <time>2018-11-24T03:32:37Z</time>
      </trkpt>
      <trkpt lat="42.78962" lon="1.04932">
        <ele>2269.3</ele>
        <time>2018-11-24T03:32:39Z</time>
      </trkpt>
      <trkpt lat="42.78963" lon="1.04944">
        <ele>2265.5</ele>
        <time>2018-11-24T03:32:42Z</time>
      </trkpt>
      <trkpt lat="42.78961" lon="1.04955">
        <ele>2262.1</ele>
        <time>2018-11-24T03:32:46Z</time>
      </trkpt>
      <trkpt lat="42.78961" lon="1.04961">
        <ele>2260.2</ele>
        <time>2018-11-24T03:32:48Z</time>
      </trkpt>
      <trkpt lat="42.78961" lon="1.04973">
        <ele>2257.4</ele>
        <time>2018-11-24T03:32:51Z</time>
      </trkpt>
      <trkpt lat="42.78964" lon="1.04984">
        <ele>2254</ele>
        <time>2018-11-24T03:32:55Z</time>
      </trkpt>
      <trkpt lat="42.78966" lon="1.04997">
        <ele>2251.1</ele>
        <time>2018-11-24T03:32:58Z</time>
      </trkpt>
      <trkpt lat="42.78965" lon="1.0501">
        <ele>2247.8</ele>
        <time>2018-11-24T03:33:02Z</time>
      </trkpt>
      <trkpt lat="42.78965" lon="1.05019">
        <ele>2244.4</ele>
        <time>2018-11-24T03:33:05Z</time>
      </trkpt>
      <trkpt lat="42.78959" lon="1.0502">
        <ele>2241.5</ele>
        <time>2018-11-24T03:33:07Z</time>
      </trkpt>
      <trkpt lat="42.78957" lon="1.05026">
        <ele>2238.6</ele>
        <time>2018-11-24T03:33:09Z</time>
      </trkpt>
      <trkpt lat="42.78954" lon="1.05037">
        <ele>2234.3</ele>
        <time>2018-11-24T03:33:13Z</time>
      </trkpt>
      <trkpt lat="42.78954" lon="1.0504">
        <ele>2233.3</ele>
        <time>2018-11-24T03:33:13Z</time>
      </trkpt>
      <trkpt lat="42.78955" lon="1.05044">
        <ele>2231.5</ele>
        <time>2018-11-24T03:33:15Z</time>
      </trkpt>
      <trkpt lat="42.78953" lon="1.05048">
        <ele>2228.9</ele>
        <time>2018-11-24T03:33:16Z</time>
      </trkpt>
      <trkpt lat="42.78952" lon="1.05052">
        <ele>2228</ele>
        <time>2018-11-24T03:33:17Z</time>
      </trkpt>
      <trkpt lat="42.78951" lon="1.05058">
        <ele>2225.6</ele>
        <time>2018-11-24T03:33:19Z</time>
      </trkpt>
      <trkpt lat="42.78952" lon="1.05064">
        <ele>2223.3</ele>
        <time>2018-11-24T03:33:21Z</time>
      </trkpt>
      <trkpt lat="42.78954" lon="1.05072">
        <ele>2221.3</ele>
        <time>2018-11-24T03:33:24Z</time>
      </trkpt>
      <trkpt lat="42.78953" lon="1.0508">
        <ele>2218.4</ele>
        <time>2018-11-24T03:33:26Z</time>
      </trkpt>
      <trkpt lat="42.78952" lon="1.05091">
        <ele>2215.1</ele>
        <time>2018-11-24T03:33:29Z</time>
      </trkpt>
      <trkpt lat="42.78951" lon="1.05093">
        <ele>2214.2</ele>
        <time>2018-11-24T03:33:30Z</time>
      </trkpt>
      <trkpt lat="42.78943" lon="1.05103">
        <ele>2211.6</ele>
        <time>2018-11-24T03:33:34Z</time>
      </trkpt>
      <trkpt lat="42.78945" lon="1.05105">
        <ele>2210.2</ele>
        <time>2018-11-24T03:33:35Z</time>
      </trkpt>
      <trkpt lat="42.78947" lon="1.05105">
        <ele>2209.7</ele>
        <time>2018-11-24T03:33:36Z</time>
      </trkpt>
      <trkpt lat="42.78957" lon="1.05114">
        <ele>2206.9</ele>
        <time>2018-11-24T03:33:41Z</time>
      </trkpt>
      <trkpt lat="42.78956" lon="1.0512">
        <ele>2203.5</ele>
        <time>2018-11-24T03:33:43Z</time>
      </trkpt>
      <trkpt lat="42.78957" lon="1.05125">
        <ele>2202.5</ele>
        <time>2018-11-24T03:33:44Z</time>
      </trkpt>
      <trkpt lat="42.78953" lon="1.05134">
        <ele>2198.7</ele>
        <time>2018-11-24T03:33:47Z</time>
      </trkpt>
      <trkpt lat="42.78952" lon="1.05137">
        <ele>2197.2</ele>
        <time>2018-11-24T03:33:48Z</time>
      </trkpt>
      <trkpt lat="42.78953" lon="1.0514">
        <ele>2195.8</ele>
        <time>2018-11-24T03:33:49Z</time>
      </trkpt>
      <trkpt lat="42.78953" lon="1.05147">
        <ele>2194</ele>
        <time>2018-11-24T03:33:51Z</time>
      </trkpt>
      <trkpt lat="42.78952" lon="1.05155">
        <ele>2190.5</ele>
        <time>2018-11-24T03:33:54Z</time>
      </trkpt>
      <trkpt lat="42.78951" lon="1.05162">
        <ele>2188.2</ele>
        <time>2018-11-24T03:33:56Z</time>
      </trkpt>
      <trkpt lat="42.78952" lon="1.05172">
        <ele>2184.4</ele>
        <time>2018-11-24T03:33:59Z</time>
      </trkpt>
      <trkpt lat="42.7895" lon="1.05175">
        <ele>2182.8</ele>
        <time>2018-11-24T03:34:00Z</time>
      </trkpt>
      <trkpt lat="42.7895" lon="1.05175">
        <ele>2182.4</ele>
        <time>2018-11-24T03:34:00Z</time>
      </trkpt>
      <trkpt lat="42.78947" lon="1.05185">
        <ele>2179</ele>
        <time>2018-11-24T03:34:03Z</time>
      </trkpt>
      <trkpt lat="42.78942" lon="1.05193">
        <ele>2176.1</ele>
        <time>2018-11-24T03:34:06Z</time>
      </trkpt>
      <trkpt lat="42.78937" lon="1.052">
        <ele>2172.7</ele>
        <time>2018-11-24T03:34:09Z</time>
      </trkpt>
      <trkpt lat="42.78936" lon="1.05216">
        <ele>2169.4</ele>
        <time>2018-11-24T03:34:14Z</time>
      </trkpt>
      <trkpt lat="42.78934" lon="1.05227">
        <ele>2166.1</ele>
        <time>2018-11-24T03:34:17Z</time>
      </trkpt>
      <trkpt lat="42.78932" lon="1.05229">
        <ele>2164.6</ele>
        <time>2018-11-24T03:34:18Z</time>
      </trkpt>
      <trkpt lat="42.78932" lon="1.05244">
        <ele>2161.2</ele>
        <time>2018-11-24T03:34:23Z</time>
      </trkpt>
      <trkpt lat="42.78932" lon="1.05258">
        <ele>2157.8</ele>
        <time>2018-11-24T03:34:27Z</time>
      </trkpt>
      <trkpt lat="42.78935" lon="1.05265">
        <ele>2156.9</ele>
        <time>2018-11-24T03:34:29Z</time>
      </trkpt>
      <trkpt lat="42.78936" lon="1.05278">
        <ele>2154</ele>
        <time>2018-11-24T03:34:33Z</time>
      </trkpt>
      <trkpt lat="42.78936" lon="1.05291">
        <ele>2150.7</ele>
        <time>2018-11-24T03:34:37Z</time>
      </trkpt>
      <trkpt lat="42.78936" lon="1.05292">
        <ele>2150.6</ele>
        <time>2018-11-24T03:34:37Z</time>
      </trkpt>
      <trkpt lat="42.78932" lon="1.05309">
        <ele>2147.8</ele>
        <time>2018-11-24T03:34:42Z</time>
      </trkpt>
      <trkpt lat="42.78935" lon="1.05327">
        <ele>2145.3</ele>
        <time>2018-11-24T03:34:48Z</time>
      </trkpt>
      <trkpt lat="42.78936" lon="1.05341">
        <ele>2143.4</ele>
        <time>2018-11-24T03:34:52Z</time>
      </trkpt>
      <trkpt lat="42.78937" lon="1.05361">
        <ele>2141.5</ele>
        <time>2018-11-24T03:34:58Z</time>
      </trkpt>
      <trkpt lat="42.78939" lon="1.0537">
        <ele>2140.5</ele>
        <time>2018-11-24T03:35:00Z</time>
      </trkpt>
      <trkpt lat="42.78938" lon="1.05391">
        <ele>2139.1</ele>
        <time>2018-11-24T03:35:07Z</time>
      </trkpt>
      <trkpt lat="42.78945" lon="1.05407">
        <ele>2137.6</ele>
        <time>2018-11-24T03:35:12Z</time>
      </trkpt>
      <trkpt lat="42.7896" lon="1.05428">
        <ele>2136.8</ele>
        <time>2018-11-24T03:35:21Z</time>
      </trkpt>
      <trkpt lat="42.78962" lon="1.05432">
        <ele>2136.7</ele>
        <time>2018-11-24T03:35:22Z</time>
      </trkpt>
      <trkpt lat="42.78973" lon="1.05444">
        <ele>2134.7</ele>
        <time>2018-11-24T03:35:28Z</time>
      </trkpt>
      <trkpt lat="42.78978" lon="1.05455">
        <ele>2134.8</ele>
        <time>2018-11-24T03:35:31Z</time>
      </trkpt>
      <trkpt lat="42.7898" lon="1.05473">
        <ele>2134.7</ele>
        <time>2018-11-24T03:35:37Z</time>
      </trkpt>
      <trkpt lat="42.7898" lon="1.05483">
        <ele>2134.7</ele>
        <time>2018-11-24T03:35:40Z</time>
      </trkpt>
      <trkpt lat="42.78982" lon="1.05506">
        <ele>2135.7</ele>
        <time>2018-11-24T03:35:47Z</time>
      </trkpt>
      <trkpt lat="42.78979" lon="1.05525">
        <ele>2135.7</ele>
        <time>2018-11-24T03:35:52Z</time>
      </trkpt>
      <trkpt lat="42.78978" lon="1.05535">
        <ele>2134.3</ele>
        <time>2018-11-24T03:35:55Z</time>
      </trkpt>
      <trkpt lat="42.78978" lon="1.05538">
        <ele>2134.3</ele>
        <time>2018-11-24T03:35:56Z</time>
      </trkpt>
      <trkpt lat="42.78977" lon="1.05542">
        <ele>2134.4</ele>
        <time>2018-11-24T03:35:57Z</time>
      </trkpt>
      <trkpt lat="42.78978" lon="1.05552">
        <ele>2135.7</ele>
        <time>2018-11-24T03:36:00Z</time>
      </trkpt>
      <trkpt lat="42.78973" lon="1.05575">
        <ele>2135.7</ele>
        <time>2018-11-24T03:36:07Z</time>
      </trkpt>
      <trkpt lat="42.78937" lon="1.05621">
        <ele>2136.3</ele>
        <time>2018-11-24T03:36:27Z</time>
      </trkpt>
      <trkpt lat="42.78946" lon="1.05628">
        <ele>2136.8</ele>
        <time>2018-11-24T03:36:31Z</time>
      </trkpt>
      <trkpt lat="42.78954" lon="1.05621">
        <ele>2137.7</ele>
        <time>2018-11-24T03:36:35Z</time>
      </trkpt>
      <trkpt lat="42.78955" lon="1.05621">
        <ele>2134.4</ele>
        <time>2018-11-24T03:36:35Z</time>
      </trkpt>
      <trkpt lat="42.78955" lon="1.05627">
        <ele>2134.3</ele>
        <time>2018-11-24T03:36:37Z</time>
      </trkpt>
      <trkpt lat="42.78953" lon="1.05631">
        <ele>2134.3</ele>
        <time>2018-11-24T03:36:38Z</time>
      </trkpt>
      <trkpt lat="42.78948" lon="1.05643">
        <ele>2134.3</ele>
        <time>2018-11-24T03:36:42Z</time>
      </trkpt>
      <trkpt lat="42.7895" lon="1.05639">
        <ele>2133.9</ele>
        <time>2018-11-24T03:36:44Z</time>
      </trkpt>
      <trkpt lat="42.78952" lon="1.05642">
        <ele>2133.8</ele>
        <time>2018-11-24T03:36:45Z</time>
      </trkpt>
      <trkpt lat="42.78949" lon="1.0564">
        <ele>2133.3</ele>
        <time>2018-11-24T03:36:46Z</time>
      </trkpt>
      <trkpt lat="42.78935" lon="1.0565">
        <ele>2134.4</ele>
        <time>2018-11-24T03:36:53Z</time>
      </trkpt>
      <trkpt lat="42.78944" lon="1.05654">
        <ele>2133.8</ele>
        <time>2018-11-24T03:36:56Z</time>
      </trkpt>
      <trkpt lat="42.78939" lon="1.05652">
        <ele>2132.4</ele>
        <time>2018-11-24T03:36:58Z</time>
      </trkpt>
      <trkpt lat="42.78937" lon="1.0566">
        <ele>2131.4</ele>
        <time>2018-11-24T03:37:01Z</time>
      </trkpt>
      <trkpt lat="42.78935" lon="1.05674">
        <ele>2132</ele>
        <time>2018-11-24T03:37:05Z</time>
      </trkpt>
      <trkpt lat="42.78932" lon="1.05678">
        <ele>2132.9</ele>
        <time>2018-11-24T03:37:07Z</time>
      </trkpt>
      <trkpt lat="42.78931" lon="1.0568">
        <ele>2132.8</ele>
        <time>2018-11-24T03:37:07Z</time>
      </trkpt>
      <trkpt lat="42.78934" lon="1.05696">
        <ele>2132.3</ele>
        <time>2018-11-24T03:37:12Z</time>
      </trkpt>
      <trkpt lat="42.7894" lon="1.05703">
        <ele>2132.8</ele>
        <time>2018-11-24T03:37:15Z</time>
      </trkpt>
      <trkpt lat="42.78942" lon="1.05703">
        <ele>2132.8</ele>
        <time>2018-11-24T03:37:16Z</time>
      </trkpt>
      <trkpt lat="42.7895" lon="1.05713">
        <ele>2131</ele>
        <time>2018-11-24T03:37:21Z</time>
      </trkpt>
      <trkpt lat="42.78952" lon="1.05736">
        <ele>2130</ele>
        <time>2018-11-24T03:37:28Z</time>
      </trkpt>
      <trkpt lat="42.78954" lon="1.05743">
        <ele>2130</ele>
        <time>2018-11-24T03:37:30Z</time>
      </trkpt>
      <trkpt lat="42.78954" lon="1.0575">
        <ele>2130.9</ele>
        <time>2018-11-24T03:37:32Z</time>
      </trkpt>
      <trkpt lat="42.78955" lon="1.05762">
        <ele>2132</ele>
        <time>2018-11-24T03:37:35Z</time>
      </trkpt>
      <trkpt lat="42.78955" lon="1.05769">
        <ele>2130.4</ele>
        <time>2018-11-24T03:37:37Z</time>
      </trkpt>
      <trkpt lat="42.78953" lon="1.05783">
        <ele>2130.5</ele>
        <time>2018-11-24T03:37:42Z</time>
      </trkpt>
      <trkpt lat="42.78952" lon="1.0579">
        <ele>2130.4</ele>
        <time>2018-11-24T03:37:44Z</time>
      </trkpt>
      <trkpt lat="42.78948" lon="1.05804">
        <ele>2130</ele>
        <time>2018-11-24T03:37:48Z</time>
      </trkpt>
      <trkpt lat="42.78948" lon="1.05807">
        <ele>2130.9</ele>
        <time>2018-11-24T03:37:49Z</time>
      </trkpt>
      <trkpt lat="42.78946" lon="1.05809">
        <ele>2131.9</ele>
        <time>2018-11-24T03:37:50Z</time>
      </trkpt>
      <trkpt lat="42.78947" lon="1.05819">
        <ele>2132.9</ele>
        <time>2018-11-24T03:37:53Z</time>
      </trkpt>
      <trkpt lat="42.78948" lon="1.0582">
        <ele>2133.4</ele>
        <time>2018-11-24T03:37:54Z</time>
      </trkpt>
      <trkpt lat="42.78951" lon="1.05822">
        <ele>2135.3</ele>
        <time>2018-11-24T03:37:55Z</time>
      </trkpt>
      <trkpt lat="42.78951" lon="1.05824">
        <ele>2135.8</ele>
        <time>2018-11-24T03:37:56Z</time>
      </trkpt>
      <trkpt lat="42.78946" lon="1.05829">
        <ele>2137.6</ele>
        <time>2018-11-24T03:37:58Z</time>
      </trkpt>
      <trkpt lat="42.78941" lon="1.05828">
        <ele>2137.1</ele>
        <time>2018-11-24T03:38:00Z</time>
      </trkpt>
      <trkpt lat="42.78942" lon="1.05825">
        <ele>2137.1</ele>
        <time>2018-11-24T03:38:01Z</time>
      </trkpt>
      <trkpt lat="42.78942" lon="1.05825">
        <ele>2137.2</ele>
        <time>2018-11-24T03:38:02Z</time>
      </trkpt>
      <trkpt lat="42.78939" lon="1.05826">
        <ele>2137.2</ele>
        <time>2018-11-24T03:38:03Z</time>
      </trkpt>
      <trkpt lat="42.78942" lon="1.05831">
        <ele>2137.1</ele>
        <time>2018-11-24T03:38:05Z</time>
      </trkpt>
      <trkpt lat="42.78946" lon="1.05848">
        <ele>2140</ele>
        <time>2018-11-24T03:38:10Z</time>
      </trkpt>
      <trkpt lat="42.78948" lon="1.05855">
        <ele>2141.9</ele>
        <time>2018-11-24T03:38:12Z</time>
      </trkpt>
      <trkpt lat="42.78946" lon="1.05855">
        <ele>2141.9</ele>
        <time>2018-11-24T03:38:12Z</time>
      </trkpt>
      <trkpt lat="42.78949" lon="1.05869">
        <ele>2142.4</ele>
        <time>2018-11-24T03:38:17Z</time>
      </trkpt>
      <trkpt lat="42.78947" lon="1.05895">
        <ele>2139.7</ele>
        <time>2018-11-24T03:38:24Z</time>
      </trkpt>
      <trkpt lat="42.78952" lon="1.05911">
        <ele>2141.1</ele>
        <time>2018-11-24T03:38:29Z</time>
      </trkpt>
      <trkpt lat="42.78955" lon="1.05933">
        <ele>2142.9</ele>
        <time>2018-11-24T03:38:36Z</time>
      </trkpt>
      <trkpt lat="42.78956" lon="1.05935">
        <ele>2144.5</ele>
        <time>2018-11-24T03:38:37Z</time>
      </trkpt>
      <trkpt lat="42.78957" lon="1.05944">
        <ele>2146.3</ele>
        <time>2018-11-24T03:38:40Z</time>
      </trkpt>
      <trkpt lat="42.78958" lon="1.05948">
        <ele>2146.4</ele>
        <time>2018-11-24T03:38:41Z</time>
      </trkpt>
      <trkpt lat="42.78959" lon="1.05969">
        <ele>2146.4</ele>
        <time>2018-11-24T03:38:47Z</time>
      </trkpt>
      <trkpt lat="42.7896" lon="1.05965">
        <ele>2145.9</ele>
        <time>2018-11-24T03:38:48Z</time>
      </trkpt>
      <trkpt lat="42.78963" lon="1.05966">
        <ele>2146.8</ele>
        <time>2018-11-24T03:38:49Z</time>
      </trkpt>
      <trkpt lat="42.78966" lon="1.05973">
        <ele>2148.7</ele>
        <time>2018-11-24T03:38:51Z</time>
      </trkpt>
      <trkpt lat="42.78966" lon="1.0598">
        <ele>2149.3</ele>
        <time>2018-11-24T03:38:53Z</time>
      </trkpt>
      <trkpt lat="42.78975" lon="1.05981">
        <ele>2149.3</ele>
        <time>2018-11-24T03:38:57Z</time>
      </trkpt>
      <trkpt lat="42.78977" lon="1.05998">
        <ele>2147.3</ele>
        <time>2018-11-24T03:39:02Z</time>
      </trkpt>
      <trkpt lat="42.78976" lon="1.06003">
        <ele>2147.3</ele>
        <time>2018-11-24T03:39:04Z</time>
      </trkpt>
      <trkpt lat="42.7897" lon="1.05998">
        <ele>2146.8</ele>
        <time>2018-11-24T03:39:06Z</time>
      </trkpt>
      <trkpt lat="42.78966" lon="1.05998">
        <ele>2146.9</ele>
        <time>2018-11-24T03:39:08Z</time>
      </trkpt>
      <trkpt lat="42.78963" lon="1.06001">
        <ele>2146.9</ele>
        <time>2018-11-24T03:39:09Z</time>
      </trkpt>
      <trkpt lat="42.78963" lon="1.06033">
        <ele>2145.3</ele>
        <time>2018-11-24T03:39:19Z</time>
      </trkpt>
      <trkpt lat="42.78961" lon="1.06044">
        <ele>2144.9</ele>
        <time>2018-11-24T03:39:22Z</time>
      </trkpt>
      <trkpt lat="42.78957" lon="1.06054">
        <ele>2143.5</ele>
        <time>2018-11-24T03:39:26Z</time>
      </trkpt>
      <trkpt lat="42.78959" lon="1.06067">
        <ele>2143.4</ele>
        <time>2018-11-24T03:39:29Z</time>
      </trkpt>
      <trkpt lat="42.7896" lon="1.06073">
        <ele>2142.4</ele>
        <time>2018-11-24T03:39:31Z</time>
      </trkpt>
      <trkpt lat="42.78957" lon="1.061">
        <ele>2141.5</ele>
        <time>2018-11-24T03:39:39Z</time>
      </trkpt>
      <trkpt lat="42.78956" lon="1.06107">
        <ele>2141.1</ele>
        <time>2018-11-24T03:39:41Z</time>
      </trkpt>
      <trkpt lat="42.78951" lon="1.06128">
        <ele>2139.1</ele>
        <time>2018-11-24T03:39:48Z</time>
      </trkpt>
      <trkpt lat="42.78952" lon="1.06127">
        <ele>2139.1</ele>
        <time>2018-11-24T03:39:48Z</time>
      </trkpt>
      <trkpt lat="42.78952" lon="1.06131">
        <ele>2138.6</ele>
        <time>2018-11-24T03:39:49Z</time>
      </trkpt>
      <trkpt lat="42.78947" lon="1.06147">
        <ele>2136.8</ele>
        <time>2018-11-24T03:39:54Z</time>
      </trkpt>
      <trkpt lat="42.78944" lon="1.06152">
        <ele>2134.8</ele>
        <time>2018-11-24T03:39:56Z</time>
      </trkpt>
      <trkpt lat="42.78941" lon="1.06164">
        <ele>2132</ele>
        <time>2018-11-24T03:40:00Z</time>
      </trkpt>
      <trkpt lat="42.78939" lon="1.06165">
        <ele>2131</ele>
        <time>2018-11-24T03:40:01Z</time>
      </trkpt>
      <trkpt lat="42.78933" lon="1.06161">
        <ele>2127.1</ele>
        <time>2018-11-24T03:40:03Z</time>
      </trkpt>
      <trkpt lat="42.78932" lon="1.06161">
        <ele>2127.1</ele>
        <time>2018-11-24T03:40:04Z</time>
      </trkpt>
      <trkpt lat="42.7893" lon="1.06161">
        <ele>2125.6</ele>
        <time>2018-11-24T03:40:05Z</time>
      </trkpt>
      <trkpt lat="42.78927" lon="1.06162">
        <ele>2125.6</ele>
        <time>2018-11-24T03:40:06Z</time>
      </trkpt>
      <trkpt lat="42.78924" lon="1.06166">
        <ele>2128.1</ele>
        <time>2018-11-24T03:40:07Z</time>
      </trkpt>
      <trkpt lat="42.78924" lon="1.06171">
        <ele>2128.1</ele>
        <time>2018-11-24T03:40:09Z</time>
      </trkpt>
      <trkpt lat="42.78925" lon="1.06173">
        <ele>2126.1</ele>
        <time>2018-11-24T03:40:09Z</time>
      </trkpt>
      <trkpt lat="42.78934" lon="1.06191">
        <ele>2125.7</ele>
        <time>2018-11-24T03:40:16Z</time>
      </trkpt>
      <trkpt lat="42.78937" lon="1.06194">
        <ele>2126.6</ele>
        <time>2018-11-24T03:40:17Z</time>
      </trkpt>
      <trkpt lat="42.78944" lon="1.062">
        <ele>2127.1</ele>
        <time>2018-11-24T03:40:21Z</time>
      </trkpt>
      <trkpt lat="42.78947" lon="1.06199">
        <ele>2128.1</ele>
        <time>2018-11-24T03:40:22Z</time>
      </trkpt>
      <trkpt lat="42.78946" lon="1.06197">
        <ele>2128</ele>
        <time>2018-11-24T03:40:22Z</time>
      </trkpt>
      <trkpt lat="42.78948" lon="1.06199">
        <ele>2128</ele>
        <time>2018-11-24T03:40:23Z</time>
      </trkpt>
      <trkpt lat="42.78947" lon="1.06203">
        <ele>2128</ele>
        <time>2018-11-24T03:40:25Z</time>
      </trkpt>
      <trkpt lat="42.78947" lon="1.062">
        <ele>2128</ele>
        <time>2018-11-24T03:40:26Z</time>
      </trkpt>
      <trkpt lat="42.78946" lon="1.06199">
        <ele>2126.6</ele>
        <time>2018-11-24T03:40:26Z</time>
      </trkpt>
      <trkpt lat="42.78946" lon="1.06202">
        <ele>2126.6</ele>
        <time>2018-11-24T03:40:27Z</time>
      </trkpt>
      <trkpt lat="42.78946" lon="1.06203">
        <ele>2126.7</ele>
        <time>2018-11-24T03:40:27Z</time>
      </trkpt>
      <trkpt lat="42.78939" lon="1.06209">
        <ele>2126.6</ele>
        <time>2018-11-24T03:40:31Z</time>
      </trkpt>
      <trkpt lat="42.78937" lon="1.06209">
        <ele>2128.1</ele>
        <time>2018-11-24T03:40:31Z</time>
      </trkpt>
      <trkpt lat="42.78935" lon="1.06214">
        <ele>2128.1</ele>
        <time>2018-11-24T03:40:33Z</time>
      </trkpt>
      <trkpt lat="42.7893" lon="1.06236">
        <ele>2130.4</ele>
        <time>2018-11-24T03:40:40Z</time>
      </trkpt>
      <trkpt lat="42.7893" lon="1.0624">
        <ele>2130.4</ele>
        <time>2018-11-24T03:40:41Z</time>
      </trkpt>
      <trkpt lat="42.78922" lon="1.06259">
        <ele>2133.3</ele>
        <time>2018-11-24T03:40:47Z</time>
      </trkpt>
      <trkpt lat="42.78922" lon="1.0626">
        <ele>2133.4</ele>
        <time>2018-11-24T03:40:47Z</time>
      </trkpt>
      <trkpt lat="42.78923" lon="1.06263">
        <ele>2133.8</ele>
        <time>2018-11-24T03:40:48Z</time>
      </trkpt>
      <trkpt lat="42.7892" lon="1.06292">
        <ele>2135.2</ele>
        <time>2018-11-24T03:40:57Z</time>
      </trkpt>
      <trkpt lat="42.7892" lon="1.06306">
        <ele>2132.4</ele>
        <time>2018-11-24T03:41:01Z</time>
      </trkpt>
      <trkpt lat="42.78919" lon="1.06308">
        <ele>2131.9</ele>
        <time>2018-11-24T03:41:02Z</time>
      </trkpt>
      <trkpt lat="42.78918" lon="1.0631">
        <ele>2131</ele>
        <time>2018-11-24T03:41:03Z</time>
      </trkpt>
      <trkpt lat="42.7892" lon="1.06319">
        <ele>2127.5</ele>
        <time>2018-11-24T03:41:05Z</time>
      </trkpt>
      <trkpt lat="42.78928" lon="1.06323">
        <ele>2124.8</ele>
        <time>2018-11-24T03:41:09Z</time>
      </trkpt>
      <trkpt lat="42.78928" lon="1.06323">
        <ele>2124.7</ele>
        <time>2018-11-24T03:41:09Z</time>
      </trkpt>
      <trkpt lat="42.78931" lon="1.0632">
        <ele>2123.7</ele>
        <time>2018-11-24T03:41:10Z</time>
      </trkpt>
      <trkpt lat="42.78938" lon="1.06314">
        <ele>2120.4</ele>
        <time>2018-11-24T03:41:13Z</time>
      </trkpt>
      <trkpt lat="42.78941" lon="1.0631">
        <ele>2117.1</ele>
        <time>2018-11-24T03:41:15Z</time>
      </trkpt>
      <trkpt lat="42.78941" lon="1.06309">
        <ele>2117</ele>
        <time>2018-11-24T03:41:15Z</time>
      </trkpt>
      <trkpt lat="42.78945" lon="1.06303">
        <ele>2113.1</ele>
        <time>2018-11-24T03:41:18Z</time>
      </trkpt>
      <trkpt lat="42.78953" lon="1.06294">
        <ele>2109.8</ele>
        <time>2018-11-24T03:41:22Z</time>
      </trkpt>
      <trkpt lat="42.78957" lon="1.06286">
        <ele>2106.5</ele>
        <time>2018-11-24T03:41:25Z</time>
      </trkpt>
      <trkpt lat="42.78959" lon="1.0628">
        <ele>2104.5</ele>
        <time>2018-11-24T03:41:26Z</time>
      </trkpt>
      <trkpt lat="42.78959" lon="1.06279">
        <ele>2102.1</ele>
        <time>2018-11-24T03:41:27Z</time>
      </trkpt>
      <trkpt lat="42.78958" lon="1.06278">
        <ele>2102.1</ele>
        <time>2018-11-24T03:41:28Z</time>
      </trkpt>
      <trkpt lat="42.78965" lon="1.06265">
        <ele>2098.7</ele>
        <time>2018-11-24T03:41:32Z</time>
      </trkpt>
      <trkpt lat="42.78967" lon="1.06257">
        <ele>2095.8</ele>
        <time>2018-11-24T03:41:35Z</time>
      </trkpt>
      <trkpt lat="42.7897" lon="1.06248">
        <ele>2093.4</ele>
        <time>2018-11-24T03:41:38Z</time>
      </trkpt>
      <trkpt lat="42.78971" lon="1.06244">
        <ele>2091.6</ele>
        <time>2018-11-24T03:41:39Z</time>
      </trkpt>
      <trkpt lat="42.78974" lon="1.06236">
        <ele>2089.7</ele>
        <time>2018-11-24T03:41:42Z</time>
      </trkpt>
      <trkpt lat="42.78978" lon="1.06227">
        <ele>2086.7</ele>
        <time>2018-11-24T03:41:45Z</time>
      </trkpt>
      <trkpt lat="42.78982" lon="1.0622">
        <ele>2083.3</ele>
        <time>2018-11-24T03:41:47Z</time>
      </trkpt>
      <trkpt lat="42.78983" lon="1.06218">
        <ele>2082.8</ele>
        <time>2018-11-24T03:41:48Z</time>
      </trkpt>
      <trkpt lat="42.78991" lon="1.06211">
        <ele>2079</ele>
        <time>2018-11-24T03:41:52Z</time>
      </trkpt>
      <trkpt lat="42.78995" lon="1.06212">
        <ele>2075.6</ele>
        <time>2018-11-24T03:41:53Z</time>
      </trkpt>
      <trkpt lat="42.78997" lon="1.0621">
        <ele>2073.2</ele>
        <time>2018-11-24T03:41:55Z</time>
      </trkpt>
      <trkpt lat="42.78997" lon="1.06202">
        <ele>2072.4</ele>
        <time>2018-11-24T03:41:57Z</time>
      </trkpt>
      <trkpt lat="42.78998" lon="1.06202">
        <ele>2071.4</ele>
        <time>2018-11-24T03:41:57Z</time>
      </trkpt>
      <trkpt lat="42.78999" lon="1.06202">
        <ele>2070.9</ele>
        <time>2018-11-24T03:41:58Z</time>
      </trkpt>
      <trkpt lat="42.79003" lon="1.06204">
        <ele>2070</ele>
        <time>2018-11-24T03:41:59Z</time>
      </trkpt>
      <trkpt lat="42.79002" lon="1.06207">
        <ele>2068.4</ele>
        <time>2018-11-24T03:42:00Z</time>
      </trkpt>
      <trkpt lat="42.78997" lon="1.06206">
        <ele>2067.5</ele>
        <time>2018-11-24T03:42:02Z</time>
      </trkpt>
      <trkpt lat="42.78996" lon="1.06202">
        <ele>2067.5</ele>
        <time>2018-11-24T03:42:03Z</time>
      </trkpt>
      <trkpt lat="42.79" lon="1.06204">
        <ele>2067.4</ele>
        <time>2018-11-24T03:42:05Z</time>
      </trkpt>
      <trkpt lat="42.79001" lon="1.06202">
        <ele>2067.4</ele>
        <time>2018-11-24T03:42:06Z</time>
      </trkpt>
      <trkpt lat="42.79005" lon="1.06205">
        <ele>2067.5</ele>
        <time>2018-11-24T03:42:07Z</time>
      </trkpt>
      <trkpt lat="42.79011" lon="1.06202">
        <ele>2065.1</ele>
        <time>2018-11-24T03:42:10Z</time>
      </trkpt>
      <trkpt lat="42.79012" lon="1.06203">
        <ele>2064.2</ele>
        <time>2018-11-24T03:42:10Z</time>
      </trkpt>
      <trkpt lat="42.79015" lon="1.06201">
        <ele>2062.8</ele>
        <time>2018-11-24T03:42:11Z</time>
      </trkpt>
      <trkpt lat="42.79016" lon="1.06202">
        <ele>2061.7</ele>
        <time>2018-11-24T03:42:12Z</time>
      </trkpt>
      <trkpt lat="42.79012" lon="1.06211">
        <ele>2058.4</ele>
        <time>2018-11-24T03:42:15Z</time>
      </trkpt>
      <trkpt lat="42.7901" lon="1.06221">
        <ele>2055.4</ele>
        <time>2018-11-24T03:42:18Z</time>
      </trkpt>
      <trkpt lat="42.79011" lon="1.06228">
        <ele>2053.1</ele>
        <time>2018-11-24T03:42:20Z</time>
      </trkpt>
      <trkpt lat="42.79012" lon="1.06242">
        <ele>2049.3</ele>
        <time>2018-11-24T03:42:24Z</time>
      </trkpt>
      <trkpt lat="42.79011" lon="1.06253">
        <ele>2045.3</ele>
        <time>2018-11-24T03:42:28Z</time>
      </trkpt>
      <trkpt lat="42.79012" lon="1.06262">
        <ele>2043.4</ele>
        <time>2018-11-24T03:42:30Z</time>
      </trkpt>
      <trkpt lat="42.79014" lon="1.0626">
        <ele>2042.5</ele>
        <time>2018-11-24T03:42:32Z</time>
      </trkpt>
      <trkpt lat="42.79018" lon="1.0626">
        <ele>2042.1</ele>
        <time>2018-11-24T03:42:33Z</time>
      </trkpt>
      <trkpt lat="42.79019" lon="1.06262">
        <ele>2039.1</ele>
        <time>2018-11-24T03:42:34Z</time>
      </trkpt>
      <trkpt lat="42.79019" lon="1.06264">
        <ele>2037.8</ele>
        <time>2018-11-24T03:42:35Z</time>
      </trkpt>
      <trkpt lat="42.79017" lon="1.06269">
        <ele>2034.4</ele>
        <time>2018-11-24T03:42:36Z</time>
      </trkpt>
      <trkpt lat="42.79018" lon="1.06274">
        <ele>2032.5</ele>
        <time>2018-11-24T03:42:38Z</time>
      </trkpt>
      <trkpt lat="42.79022" lon="1.06281">
        <ele>2029</ele>
        <time>2018-11-24T03:42:40Z</time>
      </trkpt>
      <trkpt lat="42.79022" lon="1.06281">
        <ele>2028.5</ele>
        <time>2018-11-24T03:42:40Z</time>
      </trkpt>
      <trkpt lat="42.79022" lon="1.06288">
        <ele>2026.7</ele>
        <time>2018-11-24T03:42:42Z</time>
      </trkpt>
      <trkpt lat="42.79023" lon="1.06305">
        <ele>2023.3</ele>
        <time>2018-11-24T03:42:47Z</time>
      </trkpt>
      <trkpt lat="42.79021" lon="1.06312">
        <ele>2020</ele>
        <time>2018-11-24T03:42:50Z</time>
      </trkpt>
      <trkpt lat="42.79025" lon="1.06317">
        <ele>2017</ele>
        <time>2018-11-24T03:42:52Z</time>
      </trkpt>
      <trkpt lat="42.79022" lon="1.06321">
        <ele>2015.5</ele>
        <time>2018-11-24T03:42:53Z</time>
      </trkpt>
      <trkpt lat="42.79021" lon="1.06323">
        <ele>2015.2</ele>
        <time>2018-11-24T03:42:54Z</time>
      </trkpt>
      <trkpt lat="42.79023" lon="1.06337">
        <ele>2012.3</ele>
        <time>2018-11-24T03:42:58Z</time>
      </trkpt>
      <trkpt lat="42.79027" lon="1.06336">
        <ele>2010.8</ele>
        <time>2018-11-24T03:43:00Z</time>
      </trkpt>
      <trkpt lat="42.79032" lon="1.06332">
        <ele>2007</ele>
        <time>2018-11-24T03:43:02Z</time>
      </trkpt>
      <trkpt lat="42.79037" lon="1.06333">
        <ele>2003.6</ele>
        <time>2018-11-24T03:43:04Z</time>
      </trkpt>
      <trkpt lat="42.7904" lon="1.06336">
        <ele>2000.3</ele>
        <time>2018-11-24T03:43:06Z</time>
      </trkpt>
      <trkpt lat="42.79041" lon="1.0634">
        <ele>1998.8</ele>
        <time>2018-11-24T03:43:07Z</time>
      </trkpt>
      <trkpt lat="42.79042" lon="1.06348">
        <ele>1995.9</ele>
        <time>2018-11-24T03:43:10Z</time>
      </trkpt>
      <trkpt lat="42.79049" lon="1.0635">
        <ele>1992.9</ele>
        <time>2018-11-24T03:43:12Z</time>
      </trkpt>
      <trkpt lat="42.79051" lon="1.06351">
        <ele>1991.5</ele>
        <time>2018-11-24T03:43:13Z</time>
      </trkpt>
      <trkpt lat="42.79055" lon="1.06358">
        <ele>1988.6</ele>
        <time>2018-11-24T03:43:16Z</time>
      </trkpt>
      <trkpt lat="42.79059" lon="1.06359">
        <ele>1986.2</ele>
        <time>2018-11-24T03:43:17Z</time>
      </trkpt>
      <trkpt lat="42.79061" lon="1.06364">
        <ele>1982.9</ele>
        <time>2018-11-24T03:43:19Z</time>
      </trkpt>
      <trkpt lat="42.79064" lon="1.06362">
        <ele>1979.6</ele>
        <time>2018-11-24T03:43:20Z</time>
      </trkpt>
      <trkpt lat="42.79069" lon="1.06363">
        <ele>1977.2</ele>
        <time>2018-11-24T03:43:22Z</time>
      </trkpt>
      <trkpt lat="42.79072" lon="1.0636">
        <ele>1975.7</ele>
        <time>2018-11-24T03:43:24Z</time>
      </trkpt>
      <trkpt lat="42.79077" lon="1.06362">
        <ele>1971.9</ele>
        <time>2018-11-24T03:43:26Z</time>
      </trkpt>
      <trkpt lat="42.79081" lon="1.06363">
        <ele>1968.4</ele>
        <time>2018-11-24T03:43:28Z</time>
      </trkpt>
      <trkpt lat="42.79088" lon="1.06373">
        <ele>1965.2</ele>
        <time>2018-11-24T03:43:32Z</time>
      </trkpt>
      <trkpt lat="42.79092" lon="1.06377">
        <ele>1963.3</ele>
        <time>2018-11-24T03:43:34Z</time>
      </trkpt>
      <trkpt lat="42.79097" lon="1.06383">
        <ele>1961.3</ele>
        <time>2018-11-24T03:43:36Z</time>
      </trkpt>
      <trkpt lat="42.79104" lon="1.0639">
        <ele>1958</ele>
        <time>2018-11-24T03:43:40Z</time>
      </trkpt>
      <trkpt lat="42.79112" lon="1.06387">
        <ele>1955</ele>
        <time>2018-11-24T03:43:43Z</time>
      </trkpt>
      <trkpt lat="42.79114" lon="1.06388">
        <ele>1954</ele>
        <time>2018-11-24T03:43:44Z</time>
      </trkpt>
      <trkpt lat="42.79116" lon="1.06388">
        <ele>1953.6</ele>
        <time>2018-11-24T03:43:45Z</time>
      </trkpt>
      <trkpt lat="42.7912" lon="1.06399">
        <ele>1954.6</ele>
        <time>2018-11-24T03:43:49Z</time>
      </trkpt>
      <trkpt lat="42.7913" lon="1.06408">
        <ele>1954.5</ele>
        <time>2018-11-24T03:43:53Z</time>
      </trkpt>
      <trkpt lat="42.79138" lon="1.06413">
        <ele>1953.1</ele>
        <time>2018-11-24T03:43:57Z</time>
      </trkpt>
      <trkpt lat="42.79146" lon="1.06421">
        <ele>1952.6</ele>
        <time>2018-11-24T03:44:01Z</time>
      </trkpt>
      <trkpt lat="42.79156" lon="1.06432">
        <ele>1951.2</ele>
        <time>2018-11-24T03:44:06Z</time>
      </trkpt>
      <trkpt lat="42.79169" lon="1.06443">
        <ele>1948.4</ele>
        <time>2018-11-24T03:44:12Z</time>
      </trkpt>
      <trkpt lat="42.79176" lon="1.06451">
        <ele>1946</ele>
        <time>2018-11-24T03:44:16Z</time>
      </trkpt>
      <trkpt lat="42.79179" lon="1.06454">
        <ele>1945.5</ele>
        <time>2018-11-24T03:44:17Z</time>
      </trkpt>
      <trkpt lat="42.79183" lon="1.06466">
        <ele>1944.9</ele>
        <time>2018-11-24T03:44:21Z</time>
      </trkpt>
      <trkpt lat="42.79189" lon="1.06473">
        <ele>1943.4</ele>
        <time>2018-11-24T03:44:24Z</time>
      </trkpt>
      <trkpt lat="42.79196" lon="1.06486">
        <ele>1941</ele>
        <time>2018-11-24T03:44:29Z</time>
      </trkpt>
      <trkpt lat="42.79202" lon="1.06494">
        <ele>1940.1</ele>
        <time>2018-11-24T03:44:33Z</time>
      </trkpt>
      <trkpt lat="42.79212" lon="1.065">
        <ele>1937.2</ele>
        <time>2018-11-24T03:44:37Z</time>
      </trkpt>
      <trkpt lat="42.7922" lon="1.06506">
        <ele>1935.9</ele>
        <time>2018-11-24T03:44:41Z</time>
      </trkpt>
      <trkpt lat="42.79224" lon="1.06508">
        <ele>1935.4</ele>
        <time>2018-11-24T03:44:42Z</time>
      </trkpt>
      <trkpt lat="42.79226" lon="1.06509">
        <ele>1934.8</ele>
        <time>2018-11-24T03:44:43Z</time>
      </trkpt>
      <trkpt lat="42.79234" lon="1.06517">
        <ele>1933</ele>
        <time>2018-11-24T03:44:47Z</time>
      </trkpt>
      <trkpt lat="42.7924" lon="1.06517">
        <ele>1931</ele>
        <time>2018-11-24T03:44:49Z</time>
      </trkpt>
      <trkpt lat="42.7924" lon="1.06512">
        <ele>1929.6</ele>
        <time>2018-11-24T03:44:51Z</time>
      </trkpt>
      <trkpt lat="42.7924" lon="1.06514">
        <ele>1929.1</ele>
        <time>2018-11-24T03:44:51Z</time>
      </trkpt>
      <trkpt lat="42.79242" lon="1.06516">
        <ele>1928.5</ele>
        <time>2018-11-24T03:44:52Z</time>
      </trkpt>
      <trkpt lat="42.79244" lon="1.06515">
        <ele>1928.5</ele>
        <time>2018-11-24T03:44:53Z</time>
      </trkpt>
      <trkpt lat="42.79243" lon="1.06511">
        <ele>1928.5</ele>
        <time>2018-11-24T03:44:54Z</time>
      </trkpt>
      <trkpt lat="42.79245" lon="1.06511">
        <ele>1928.5</ele>
        <time>2018-11-24T03:44:55Z</time>
      </trkpt>
      <trkpt lat="42.79246" lon="1.06513">
        <ele>1928.5</ele>
        <time>2018-11-24T03:44:56Z</time>
      </trkpt>
      <trkpt lat="42.79244" lon="1.06514">
        <ele>1928.5</ele>
        <time>2018-11-24T03:44:56Z</time>
      </trkpt>
      <trkpt lat="42.79245" lon="1.06513">
        <ele>1928.5</ele>
        <time>2018-11-24T03:44:57Z</time>
      </trkpt>
      <trkpt lat="42.79245" lon="1.06514">
        <ele>1928.5</ele>
        <time>2018-11-24T03:44:57Z</time>
      </trkpt>
      <trkpt lat="42.79242" lon="1.06512">
        <ele>1928.6</ele>
        <time>2018-11-24T03:44:58Z</time>
      </trkpt>
      <trkpt lat="42.79243" lon="1.06512">
        <ele>1928.5</ele>
        <time>2018-11-24T03:44:59Z</time>
      </trkpt>
      <trkpt lat="42.79244" lon="1.06514">
        <ele>1928.6</ele>
        <time>2018-11-24T03:44:59Z</time>
      </trkpt>
      <trkpt lat="42.79242" lon="1.06517">
        <ele>1928.5</ele>
        <time>2018-11-24T03:45:00Z</time>
      </trkpt>
      <trkpt lat="42.79247" lon="1.06519">
        <ele>1928.1</ele>
        <time>2018-11-24T03:45:02Z</time>
      </trkpt>
      <trkpt lat="42.79243" lon="1.0652">
        <ele>1928.1</ele>
        <time>2018-11-24T03:45:04Z</time>
      </trkpt>
      <trkpt lat="42.79245" lon="1.06519">
        <ele>1927.6</ele>
        <time>2018-11-24T03:45:04Z</time>
      </trkpt>
      <trkpt lat="42.79242" lon="1.06515">
        <ele>1927.2</ele>
        <time>2018-11-24T03:45:06Z</time>
      </trkpt>
      <trkpt lat="42.79243" lon="1.06518">
        <ele>1928.1</ele>
        <time>2018-11-24T03:45:07Z</time>
      </trkpt>
      <trkpt lat="42.79242" lon="1.06517">
        <ele>1929</ele>
        <time>2018-11-24T03:45:07Z</time>
      </trkpt>
      <trkpt lat="42.79245" lon="1.06516">
        <ele>1929</ele>
        <time>2018-11-24T03:45:08Z</time>
      </trkpt>
      <trkpt lat="42.79258" lon="1.06518">
        <ele>1931.5</ele>
        <time>2018-11-24T03:45:14Z</time>
      </trkpt>
      <trkpt lat="42.79273" lon="1.06516">
        <ele>1932</ele>
        <time>2018-11-24T03:45:20Z</time>
      </trkpt>
      <trkpt lat="42.79291" lon="1.06522">
        <ele>1933.3</ele>
        <time>2018-11-24T03:45:27Z</time>
      </trkpt>
      <trkpt lat="42.79304" lon="1.06528">
        <ele>1933.4</ele>
        <time>2018-11-24T03:45:32Z</time>
      </trkpt>
      <trkpt lat="42.79308" lon="1.0653">
        <ele>1932</ele>
        <time>2018-11-24T03:45:34Z</time>
      </trkpt>
      <trkpt lat="42.79314" lon="1.06532">
        <ele>1933.4</ele>
        <time>2018-11-24T03:45:37Z</time>
      </trkpt>
      <trkpt lat="42.79327" lon="1.0653">
        <ele>1933.8</ele>
        <time>2018-11-24T03:45:42Z</time>
      </trkpt>
      <trkpt lat="42.79338" lon="1.06531">
        <ele>1935.3</ele>
        <time>2018-11-24T03:45:46Z</time>
      </trkpt>
      <trkpt lat="42.79355" lon="1.0653">
        <ele>1936.2</ele>
        <time>2018-11-24T03:45:53Z</time>
      </trkpt>
      <trkpt lat="42.7937" lon="1.0653">
        <ele>1937.2</ele>
        <time>2018-11-24T03:45:59Z</time>
      </trkpt>
      <trkpt lat="42.79372" lon="1.06529">
        <ele>1937.3</ele>
        <time>2018-11-24T03:46:00Z</time>
      </trkpt>
      <trkpt lat="42.79375" lon="1.06527">
        <ele>1937.3</ele>
        <time>2018-11-24T03:46:02Z</time>
      </trkpt>
      <trkpt lat="42.79379" lon="1.06527">
        <ele>1937.3</ele>
        <time>2018-11-24T03:46:03Z</time>
      </trkpt>
      <trkpt lat="42.79391" lon="1.06527">
        <ele>1937.2</ele>
        <time>2018-11-24T03:46:08Z</time>
      </trkpt>
      <trkpt lat="42.79386" lon="1.06525">
        <ele>1936.2</ele>
        <time>2018-11-24T03:46:10Z</time>
      </trkpt>
      <trkpt lat="42.79374" lon="1.06527">
        <ele>1937.2</ele>
        <time>2018-11-24T03:46:15Z</time>
      </trkpt>
      <trkpt lat="42.79373" lon="1.06536">
        <ele>1939.1</ele>
        <time>2018-11-24T03:46:17Z</time>
      </trkpt>
      <trkpt lat="42.79374" lon="1.06545">
        <ele>1941.5</ele>
        <time>2018-11-24T03:46:20Z</time>
      </trkpt>
      <trkpt lat="42.79374" lon="1.06545">
        <ele>1941.5</ele>
        <time>2018-11-24T03:46:20Z</time>
      </trkpt>
      <trkpt lat="42.79364" lon="1.06556">
        <ele>1943.4</ele>
        <time>2018-11-24T03:46:25Z</time>
      </trkpt>
      <trkpt lat="42.79357" lon="1.06562">
        <ele>1944.9</ele>
        <time>2018-11-24T03:46:29Z</time>
      </trkpt>
      <trkpt lat="42.79348" lon="1.06565">
        <ele>1947.4</ele>
        <time>2018-11-24T03:46:32Z</time>
      </trkpt>
      <trkpt lat="42.79342" lon="1.06572">
        <ele>1949.8</ele>
        <time>2018-11-24T03:46:36Z</time>
      </trkpt>
      <trkpt lat="42.79337" lon="1.06579">
        <ele>1953.2</ele>
        <time>2018-11-24T03:46:38Z</time>
      </trkpt>
      <trkpt lat="42.79336" lon="1.06586">
        <ele>1956</ele>
        <time>2018-11-24T03:46:41Z</time>
      </trkpt>
      <trkpt lat="42.7933" lon="1.06591">
        <ele>1958.9</ele>
        <time>2018-11-24T03:46:43Z</time>
      </trkpt>
      <trkpt lat="42.79334" lon="1.06598">
        <ele>1960.4</ele>
        <time>2018-11-24T03:46:46Z</time>
      </trkpt>
      <trkpt lat="42.79333" lon="1.06605">
        <ele>1963.3</ele>
        <time>2018-11-24T03:46:48Z</time>
      </trkpt>
      <trkpt lat="42.79331" lon="1.06613">
        <ele>1966.5</ele>
        <time>2018-11-24T03:46:50Z</time>
      </trkpt>
      <trkpt lat="42.79327" lon="1.06622">
        <ele>1969</ele>
        <time>2018-11-24T03:46:53Z</time>
      </trkpt>
      <trkpt lat="42.79327" lon="1.06629">
        <ele>1971.8</ele>
        <time>2018-11-24T03:46:55Z</time>
      </trkpt>
      <trkpt lat="42.79328" lon="1.06639">
        <ele>1974.2</ele>
        <time>2018-11-24T03:46:59Z</time>
      </trkpt>
      <trkpt lat="42.79328" lon="1.06649">
        <ele>1976.6</ele>
        <time>2018-11-24T03:47:01Z</time>
      </trkpt>
      <trkpt lat="42.79329" lon="1.0666">
        <ele>1980</ele>
        <time>2018-11-24T03:47:05Z</time>
      </trkpt>
      <trkpt lat="42.79329" lon="1.06671">
        <ele>1982.4</ele>
        <time>2018-11-24T03:47:08Z</time>
      </trkpt>
      <trkpt lat="42.79327" lon="1.06679">
        <ele>1985.7</ele>
        <time>2018-11-24T03:47:10Z</time>
      </trkpt>
      <trkpt lat="42.79326" lon="1.06685">
        <ele>1987.7</ele>
        <time>2018-11-24T03:47:12Z</time>
      </trkpt>
      <trkpt lat="42.79321" lon="1.06688">
        <ele>1990.1</ele>
        <time>2018-11-24T03:47:14Z</time>
      </trkpt>
      <trkpt lat="42.79323" lon="1.06686">
        <ele>1992</ele>
        <time>2018-11-24T03:47:15Z</time>
      </trkpt>
      <trkpt lat="42.79324" lon="1.06694">
        <ele>1995</ele>
        <time>2018-11-24T03:47:18Z</time>
      </trkpt>
      <trkpt lat="42.79321" lon="1.06698">
        <ele>1996.9</ele>
        <time>2018-11-24T03:47:20Z</time>
      </trkpt>
      <trkpt lat="42.7932" lon="1.06701">
        <ele>1998.7</ele>
        <time>2018-11-24T03:47:21Z</time>
      </trkpt>
      <trkpt lat="42.79311" lon="1.06701">
        <ele>2001.1</ele>
        <time>2018-11-24T03:47:24Z</time>
      </trkpt>
      <trkpt lat="42.79308" lon="1.06702">
        <ele>2002.6</ele>
        <time>2018-11-24T03:47:26Z</time>
      </trkpt>
      <trkpt lat="42.79304" lon="1.06699">
        <ele>2005.9</ele>
        <time>2018-11-24T03:47:27Z</time>
      </trkpt>
      <trkpt lat="42.793" lon="1.067">
        <ele>2007.5</ele>
        <time>2018-11-24T03:47:29Z</time>
      </trkpt>
      <trkpt lat="42.79297" lon="1.06707">
        <ele>2009.8</ele>
        <time>2018-11-24T03:47:32Z</time>
      </trkpt>
      <trkpt lat="42.79291" lon="1.06711">
        <ele>2011.8</ele>
        <time>2018-11-24T03:47:34Z</time>
      </trkpt>
      <trkpt lat="42.79292" lon="1.06713">
        <ele>2011.8</ele>
        <time>2018-11-24T03:47:35Z</time>
      </trkpt>
      <trkpt lat="42.79289" lon="1.06717">
        <ele>2014.2</ele>
        <time>2018-11-24T03:47:36Z</time>
      </trkpt>
      <trkpt lat="42.79293" lon="1.06722">
        <ele>2016.6</ele>
        <time>2018-11-24T03:47:39Z</time>
      </trkpt>
      <trkpt lat="42.79301" lon="1.06724">
        <ele>2019</ele>
        <time>2018-11-24T03:47:42Z</time>
      </trkpt>
      <trkpt lat="42.793" lon="1.06732">
        <ele>2021.9</ele>
        <time>2018-11-24T03:47:44Z</time>
      </trkpt>
      <trkpt lat="42.79299" lon="1.06737">
        <ele>2023.8</ele>
        <time>2018-11-24T03:47:46Z</time>
      </trkpt>
      <trkpt lat="42.79307" lon="1.06737">
        <ele>2026.6</ele>
        <time>2018-11-24T03:47:49Z</time>
      </trkpt>
      <trkpt lat="42.79311" lon="1.06744">
        <ele>2029.5</ele>
        <time>2018-11-24T03:47:51Z</time>
      </trkpt>
      <trkpt lat="42.79311" lon="1.06752">
        <ele>2031.9</ele>
        <time>2018-11-24T03:47:54Z</time>
      </trkpt>
      <trkpt lat="42.79312" lon="1.06747">
        <ele>2032.5</ele>
        <time>2018-11-24T03:47:55Z</time>
      </trkpt>
      <trkpt lat="42.79315" lon="1.06745">
        <ele>2033.8</ele>
        <time>2018-11-24T03:47:56Z</time>
      </trkpt>
      <trkpt lat="42.79317" lon="1.06753">
        <ele>2035.8</ele>
        <time>2018-11-24T03:47:59Z</time>
      </trkpt>
      <trkpt lat="42.79318" lon="1.06757">
        <ele>2038.7</ele>
        <time>2018-11-24T03:48:00Z</time>
      </trkpt>
      <trkpt lat="42.79323" lon="1.06756">
        <ele>2041.1</ele>
        <time>2018-11-24T03:48:02Z</time>
      </trkpt>
      <trkpt lat="42.79329" lon="1.06755">
        <ele>2042.1</ele>
        <time>2018-11-24T03:48:04Z</time>
      </trkpt>
      <trkpt lat="42.79334" lon="1.06756">
        <ele>2042.9</ele>
        <time>2018-11-24T03:48:07Z</time>
      </trkpt>
      <trkpt lat="42.7934" lon="1.06768">
        <ele>2044.5</ele>
        <time>2018-11-24T03:48:11Z</time>
      </trkpt>
      <trkpt lat="42.7934" lon="1.06777">
        <ele>2045.8</ele>
        <time>2018-11-24T03:48:13Z</time>
      </trkpt>
      <trkpt lat="42.79347" lon="1.06785">
        <ele>2048.2</ele>
        <time>2018-11-24T03:48:17Z</time>
      </trkpt>
      <trkpt lat="42.79355" lon="1.06797">
        <ele>2048.2</ele>
        <time>2018-11-24T03:48:22Z</time>
      </trkpt>
      <trkpt lat="42.79361" lon="1.06809">
        <ele>2050.7</ele>
        <time>2018-11-24T03:48:26Z</time>
      </trkpt>
      <trkpt lat="42.79362" lon="1.06822">
        <ele>2050.1</ele>
        <time>2018-11-24T03:48:30Z</time>
      </trkpt>
      <trkpt lat="42.79362" lon="1.06835">
        <ele>2050.1</ele>
        <time>2018-11-24T03:48:34Z</time>
      </trkpt>
      <trkpt lat="42.79364" lon="1.06846">
        <ele>2052.2</ele>
        <time>2018-11-24T03:48:37Z</time>
      </trkpt>
      <trkpt lat="42.79364" lon="1.06856">
        <ele>2054.6</ele>
        <time>2018-11-24T03:48:40Z</time>
      </trkpt>
      <trkpt lat="42.7937" lon="1.06865">
        <ele>2057</ele>
        <time>2018-11-24T03:48:43Z</time>
      </trkpt>
      <trkpt lat="42.79375" lon="1.06874">
        <ele>2058.8</ele>
        <time>2018-11-24T03:48:47Z</time>
      </trkpt>
      <trkpt lat="42.7938" lon="1.06881">
        <ele>2061.3</ele>
        <time>2018-11-24T03:48:49Z</time>
      </trkpt>
      <trkpt lat="42.79386" lon="1.06892">
        <ele>2064.2</ele>
        <time>2018-11-24T03:48:54Z</time>
      </trkpt>
      <trkpt lat="42.79392" lon="1.06905">
        <ele>2066.6</ele>
        <time>2018-11-24T03:48:58Z</time>
      </trkpt>
      <trkpt lat="42.79397" lon="1.06916">
        <ele>2068.9</ele>
        <time>2018-11-24T03:49:02Z</time>
      </trkpt>
      <trkpt lat="42.79397" lon="1.06925">
        <ele>2071.3</ele>
        <time>2018-11-24T03:49:05Z</time>
      </trkpt>
      <trkpt lat="42.79401" lon="1.06936">
        <ele>2074.3</ele>
        <time>2018-11-24T03:49:08Z</time>
      </trkpt>
      <trkpt lat="42.79406" lon="1.06949">
        <ele>2076.1</ele>
        <time>2018-11-24T03:49:12Z</time>
      </trkpt>
      <trkpt lat="42.79413" lon="1.06958">
        <ele>2079</ele>
        <time>2018-11-24T03:49:17Z</time>
      </trkpt>
      <trkpt lat="42.7942" lon="1.06963">
        <ele>2081.5</ele>
        <time>2018-11-24T03:49:20Z</time>
      </trkpt>
      <trkpt lat="42.79428" lon="1.06968">
        <ele>2083.8</ele>
        <time>2018-11-24T03:49:23Z</time>
      </trkpt>
      <trkpt lat="42.79429" lon="1.06969">
        <ele>2083.9</ele>
        <time>2018-11-24T03:49:23Z</time>
      </trkpt>
      <trkpt lat="42.79438" lon="1.06982">
        <ele>2086.3</ele>
        <time>2018-11-24T03:49:29Z</time>
      </trkpt>
      <trkpt lat="42.79442" lon="1.06991">
        <ele>2089.2</ele>
        <time>2018-11-24T03:49:32Z</time>
      </trkpt>
      <trkpt lat="42.79442" lon="1.06998">
        <ele>2092</ele>
        <time>2018-11-24T03:49:34Z</time>
      </trkpt>
      <trkpt lat="42.79446" lon="1.07002">
        <ele>2094.4</ele>
        <time>2018-11-24T03:49:36Z</time>
      </trkpt>
      <trkpt lat="42.79454" lon="1.07004">
        <ele>2096.8</ele>
        <time>2018-11-24T03:49:39Z</time>
      </trkpt>
      <trkpt lat="42.79459" lon="1.07004">
        <ele>2098.7</ele>
        <time>2018-11-24T03:49:41Z</time>
      </trkpt>
      <trkpt lat="42.79464" lon="1.07003">
        <ele>2101.2</ele>
        <time>2018-11-24T03:49:43Z</time>
      </trkpt>
      <trkpt lat="42.79469" lon="1.07008">
        <ele>2103.6</ele>
        <time>2018-11-24T03:49:46Z</time>
      </trkpt>
      <trkpt lat="42.79472" lon="1.07001">
        <ele>2105.5</ele>
        <time>2018-11-24T03:49:48Z</time>
      </trkpt>
      <trkpt lat="42.79473" lon="1.07">
        <ele>2106.5</ele>
        <time>2018-11-24T03:49:49Z</time>
      </trkpt>
      <trkpt lat="42.79476" lon="1.07003">
        <ele>2107.5</ele>
        <time>2018-11-24T03:49:50Z</time>
      </trkpt>
      <trkpt lat="42.79478" lon="1.06994">
        <ele>2108.8</ele>
        <time>2018-11-24T03:49:53Z</time>
      </trkpt>
      <trkpt lat="42.79483" lon="1.06997">
        <ele>2112.1</ele>
        <time>2018-11-24T03:49:55Z</time>
      </trkpt>
      <trkpt lat="42.79493" lon="1.0699">
        <ele>2113.2</ele>
        <time>2018-11-24T03:50:00Z</time>
      </trkpt>
      <trkpt lat="42.795" lon="1.06992">
        <ele>2114.2</ele>
        <time>2018-11-24T03:50:02Z</time>
      </trkpt>
      <trkpt lat="42.79509" lon="1.06999">
        <ele>2117.4</ele>
        <time>2018-11-24T03:50:07Z</time>
      </trkpt>
      <trkpt lat="42.79517" lon="1.07001">
        <ele>2120.3</ele>
        <time>2018-11-24T03:50:10Z</time>
      </trkpt>
      <trkpt lat="42.79521" lon="1.07007">
        <ele>2121.8</ele>
        <time>2018-11-24T03:50:12Z</time>
      </trkpt>
      <trkpt lat="42.7953" lon="1.07008">
        <ele>2125.7</ele>
        <time>2018-11-24T03:50:16Z</time>
      </trkpt>
      <trkpt lat="42.79536" lon="1.07006">
        <ele>2127.1</ele>
        <time>2018-11-24T03:50:18Z</time>
      </trkpt>
      <trkpt lat="42.79537" lon="1.07006">
        <ele>2127.1</ele>
        <time>2018-11-24T03:50:19Z</time>
      </trkpt>
      <trkpt lat="42.79537" lon="1.07002">
        <ele>2128</ele>
        <time>2018-11-24T03:50:20Z</time>
      </trkpt>
      <trkpt lat="42.79537" lon="1.07">
        <ele>2128.5</ele>
        <time>2018-11-24T03:50:21Z</time>
      </trkpt>
      <trkpt lat="42.79539" lon="1.07001">
        <ele>2128.5</ele>
        <time>2018-11-24T03:50:21Z</time>
      </trkpt>
      <trkpt lat="42.79537" lon="1.07005">
        <ele>2129.6</ele>
        <time>2018-11-24T03:50:23Z</time>
      </trkpt>
      <trkpt lat="42.79535" lon="1.07003">
        <ele>2129.5</ele>
        <time>2018-11-24T03:50:24Z</time>
      </trkpt>
      <trkpt lat="42.79537" lon="1.07001">
        <ele>2129.6</ele>
        <time>2018-11-24T03:50:25Z</time>
      </trkpt>
      <trkpt lat="42.79538" lon="1.07004">
        <ele>2129.6</ele>
        <time>2018-11-24T03:50:25Z</time>
      </trkpt>
      <trkpt lat="42.7954" lon="1.0701">
        <ele>2129.5</ele>
        <time>2018-11-24T03:50:27Z</time>
      </trkpt>
      <trkpt lat="42.79544" lon="1.07013">
        <ele>2128.5</ele>
        <time>2018-11-24T03:50:29Z</time>
      </trkpt>
      <trkpt lat="42.79557" lon="1.07016">
        <ele>2128</ele>
        <time>2018-11-24T03:50:34Z</time>
      </trkpt>
      <trkpt lat="42.79564" lon="1.07017">
        <ele>2127.1</ele>
        <time>2018-11-24T03:50:37Z</time>
      </trkpt>
      <trkpt lat="42.79569" lon="1.07018">
        <ele>2128.5</ele>
        <time>2018-11-24T03:50:39Z</time>
      </trkpt>
      <trkpt lat="42.79577" lon="1.07021">
        <ele>2130.5</ele>
        <time>2018-11-24T03:50:43Z</time>
      </trkpt>
      <trkpt lat="42.79583" lon="1.07026">
        <ele>2133.3</ele>
        <time>2018-11-24T03:50:46Z</time>
      </trkpt>
      <trkpt lat="42.79587" lon="1.07036">
        <ele>2135.7</ele>
        <time>2018-11-24T03:50:49Z</time>
      </trkpt>
      <trkpt lat="42.79593" lon="1.07039">
        <ele>2139.2</ele>
        <time>2018-11-24T03:50:51Z</time>
      </trkpt>
      <trkpt lat="42.79601" lon="1.07044">
        <ele>2142.5</ele>
        <time>2018-11-24T03:50:55Z</time>
      </trkpt>
      <trkpt lat="42.79605" lon="1.07054">
        <ele>2145.8</ele>
        <time>2018-11-24T03:50:58Z</time>
      </trkpt>
      <trkpt lat="42.79611" lon="1.07053">
        <ele>2147.3</ele>
        <time>2018-11-24T03:51:01Z</time>
      </trkpt>
      <trkpt lat="42.79615" lon="1.07061">
        <ele>2150.1</ele>
        <time>2018-11-24T03:51:03Z</time>
      </trkpt>
      <trkpt lat="42.79617" lon="1.07072">
        <ele>2153</ele>
        <time>2018-11-24T03:51:07Z</time>
      </trkpt>
      <trkpt lat="42.79617" lon="1.07085">
        <ele>2155.9</ele>
        <time>2018-11-24T03:51:11Z</time>
      </trkpt>
      <trkpt lat="42.79618" lon="1.07092">
        <ele>2159.4</ele>
        <time>2018-11-24T03:51:13Z</time>
      </trkpt>
      <trkpt lat="42.79622" lon="1.07096">
        <ele>2162.6</ele>
        <time>2018-11-24T03:51:15Z</time>
      </trkpt>
      <trkpt lat="42.79621" lon="1.07089">
        <ele>2162.7</ele>
        <time>2018-11-24T03:51:17Z</time>
      </trkpt>
      <trkpt lat="42.79621" lon="1.07098">
        <ele>2165.1</ele>
        <time>2018-11-24T03:51:20Z</time>
      </trkpt>
      <trkpt lat="42.79616" lon="1.07109">
        <ele>2168</ele>
        <time>2018-11-24T03:51:24Z</time>
      </trkpt>
      <trkpt lat="42.79612" lon="1.07115">
        <ele>2171.3</ele>
        <time>2018-11-24T03:51:26Z</time>
      </trkpt>
      <trkpt lat="42.79606" lon="1.07124">
        <ele>2174.3</ele>
        <time>2018-11-24T03:51:30Z</time>
      </trkpt>
      <trkpt lat="42.79605" lon="1.0712">
        <ele>2174.3</ele>
        <time>2018-11-24T03:51:31Z</time>
      </trkpt>
      <trkpt lat="42.79603" lon="1.07116">
        <ele>2174.2</ele>
        <time>2018-11-24T03:51:32Z</time>
      </trkpt>
      <trkpt lat="42.79601" lon="1.07125">
        <ele>2177</ele>
        <time>2018-11-24T03:51:35Z</time>
      </trkpt>
      <trkpt lat="42.79597" lon="1.0713">
        <ele>2180.4</ele>
        <time>2018-11-24T03:51:37Z</time>
      </trkpt>
      <trkpt lat="42.79595" lon="1.07128">
        <ele>2180.9</ele>
        <time>2018-11-24T03:51:38Z</time>
      </trkpt>
      <trkpt lat="42.79596" lon="1.07126">
        <ele>2181.4</ele>
        <time>2018-11-24T03:51:39Z</time>
      </trkpt>
      <trkpt lat="42.79596" lon="1.07134">
        <ele>2183.8</ele>
        <time>2018-11-24T03:51:41Z</time>
      </trkpt>
      <trkpt lat="42.79595" lon="1.07136">
        <ele>2185.8</ele>
        <time>2018-11-24T03:51:42Z</time>
      </trkpt>
      <trkpt lat="42.79599" lon="1.07143">
        <ele>2188.1</ele>
        <time>2018-11-24T03:51:44Z</time>
      </trkpt>
      <trkpt lat="42.796" lon="1.0715">
        <ele>2191.6</ele>
        <time>2018-11-24T03:51:46Z</time>
      </trkpt>
      <trkpt lat="42.79598" lon="1.0715">
        <ele>2192</ele>
        <time>2018-11-24T03:51:47Z</time>
      </trkpt>
      <trkpt lat="42.796" lon="1.07152">
        <ele>2192</ele>
        <time>2018-11-24T03:51:48Z</time>
      </trkpt>
      <trkpt lat="42.796" lon="1.07146">
        <ele>2193</ele>
        <time>2018-11-24T03:51:50Z</time>
      </trkpt>
      <trkpt lat="42.79599" lon="1.07145">
        <ele>2193.4</ele>
        <time>2018-11-24T03:51:51Z</time>
      </trkpt>
      <trkpt lat="42.79599" lon="1.07143">
        <ele>2193.9</ele>
        <time>2018-11-24T03:51:51Z</time>
      </trkpt>
      <trkpt lat="42.79599" lon="1.07145">
        <ele>2194.8</ele>
        <time>2018-11-24T03:51:51Z</time>
      </trkpt>
      <trkpt lat="42.796" lon="1.07142">
        <ele>2194.9</ele>
        <time>2018-11-24T03:51:52Z</time>
      </trkpt>
      <trkpt lat="42.79601" lon="1.0714">
        <ele>2195.9</ele>
        <time>2018-11-24T03:51:53Z</time>
      </trkpt>
      <trkpt lat="42.79597" lon="1.07144">
        <ele>2197.2</ele>
        <time>2018-11-24T03:51:55Z</time>
      </trkpt>
      <trkpt lat="42.79598" lon="1.07168">
        <ele>2199.7</ele>
        <time>2018-11-24T03:52:02Z</time>
      </trkpt>
      <trkpt lat="42.796" lon="1.07174">
        <ele>2201.1</ele>
        <time>2018-11-24T03:52:04Z</time>
      </trkpt>
      <trkpt lat="42.79608" lon="1.07181">
        <ele>2204.4</ele>
        <time>2018-11-24T03:52:08Z</time>
      </trkpt>
      <trkpt lat="42.79616" lon="1.07178">
        <ele>2207.4</ele>
        <time>2018-11-24T03:52:11Z</time>
      </trkpt>
      <trkpt lat="42.79621" lon="1.07181">
        <ele>2209.4</ele>
        <time>2018-11-24T03:52:14Z</time>
      </trkpt>
      <trkpt lat="42.79629" lon="1.07183">
        <ele>2211.7</ele>
        <time>2018-11-24T03:52:17Z</time>
      </trkpt>
      <trkpt lat="42.79632" lon="1.07186">
        <ele>2215.1</ele>
        <time>2018-11-24T03:52:18Z</time>
      </trkpt>
      <trkpt lat="42.79638" lon="1.07192">
        <ele>2217.4</ele>
        <time>2018-11-24T03:52:21Z</time>
      </trkpt>
      <trkpt lat="42.79641" lon="1.07196">
        <ele>2219.3</ele>
        <time>2018-11-24T03:52:23Z</time>
      </trkpt>
      <trkpt lat="42.79645" lon="1.07206">
        <ele>2222.2</ele>
        <time>2018-11-24T03:52:26Z</time>
      </trkpt>
      <trkpt lat="42.79654" lon="1.0721">
        <ele>2223.2</ele>
        <time>2018-11-24T03:52:30Z</time>
      </trkpt>
      <trkpt lat="42.79661" lon="1.07213">
        <ele>2223.7</ele>
        <time>2018-11-24T03:52:33Z</time>
      </trkpt>
      <trkpt lat="42.79669" lon="1.07221">
        <ele>2223.8</ele>
        <time>2018-11-24T03:52:37Z</time>
      </trkpt>
      <trkpt lat="42.79681" lon="1.07227">
        <ele>2226.7</ele>
        <time>2018-11-24T03:52:42Z</time>
      </trkpt>
      <trkpt lat="42.79687" lon="1.07231">
        <ele>2228.6</ele>
        <time>2018-11-24T03:52:45Z</time>
      </trkpt>
      <trkpt lat="42.79689" lon="1.07232">
        <ele>2228.6</ele>
        <time>2018-11-24T03:52:46Z</time>
      </trkpt>
      <trkpt lat="42.79696" lon="1.0723">
        <ele>2230.5</ele>
        <time>2018-11-24T03:52:48Z</time>
      </trkpt>
      <trkpt lat="42.79701" lon="1.07236">
        <ele>2231.9</ele>
        <time>2018-11-24T03:52:51Z</time>
      </trkpt>
      <trkpt lat="42.79706" lon="1.07236">
        <ele>2233.3</ele>
        <time>2018-11-24T03:52:53Z</time>
      </trkpt>
      <trkpt lat="42.79721" lon="1.07234">
        <ele>2233.8</ele>
        <time>2018-11-24T03:52:59Z</time>
      </trkpt>
      <trkpt lat="42.79728" lon="1.07236">
        <ele>2235.7</ele>
        <time>2018-11-24T03:53:02Z</time>
      </trkpt>
      <trkpt lat="42.7973" lon="1.07243">
        <ele>2237.6</ele>
        <time>2018-11-24T03:53:04Z</time>
      </trkpt>
      <trkpt lat="42.79731" lon="1.0724">
        <ele>2237.7</ele>
        <time>2018-11-24T03:53:05Z</time>
      </trkpt>
      <trkpt lat="42.79734" lon="1.0724">
        <ele>2238.1</ele>
        <time>2018-11-24T03:53:06Z</time>
      </trkpt>
      <trkpt lat="42.79733" lon="1.0724">
        <ele>2238.6</ele>
        <time>2018-11-24T03:53:06Z</time>
      </trkpt>
      <trkpt lat="42.79734" lon="1.0724">
        <ele>2238.6</ele>
        <time>2018-11-24T03:53:06Z</time>
      </trkpt>
      <trkpt lat="42.79733" lon="1.0724">
        <ele>2239.2</ele>
        <time>2018-11-24T03:53:07Z</time>
      </trkpt>
      <trkpt lat="42.79734" lon="1.0724">
        <ele>2239.2</ele>
        <time>2018-11-24T03:53:07Z</time>
      </trkpt>
      <trkpt lat="42.79732" lon="1.0724">
        <ele>2239.6</ele>
        <time>2018-11-24T03:53:07Z</time>
      </trkpt>
      <trkpt lat="42.79732" lon="1.07241">
        <ele>2240.1</ele>
        <time>2018-11-24T03:53:08Z</time>
      </trkpt>
      <trkpt lat="42.79732" lon="1.07241">
        <ele>2240</ele>
        <time>2018-11-24T03:53:08Z</time>
      </trkpt>
      <trkpt lat="42.79732" lon="1.07241">
        <ele>2240.5</ele>
        <time>2018-11-24T03:53:08Z</time>
      </trkpt>
      <trkpt lat="42.79732" lon="1.0724">
        <ele>2240.5</ele>
        <time>2018-11-24T03:53:08Z</time>
      </trkpt>
      <trkpt lat="42.79732" lon="1.0724">
        <ele>2241</ele>
        <time>2018-11-24T03:53:09Z</time>
      </trkpt>
      <trkpt lat="42.79731" lon="1.07239">
        <ele>2241.1</ele>
        <time>2018-11-24T03:53:09Z</time>
      </trkpt>
      <trkpt lat="42.7973" lon="1.07239">
        <ele>2240.1</ele>
        <time>2018-11-24T03:53:09Z</time>
      </trkpt>
      <trkpt lat="42.79731" lon="1.0724">
        <ele>2240.5</ele>
        <time>2018-11-24T03:53:09Z</time>
      </trkpt>
      <trkpt lat="42.79731" lon="1.07238">
        <ele>2240.5</ele>
        <time>2018-11-24T03:53:10Z</time>
      </trkpt>
      <trkpt lat="42.79732" lon="1.07241">
        <ele>2241.1</ele>
        <time>2018-11-24T03:53:11Z</time>
      </trkpt>
      <trkpt lat="42.7973" lon="1.0724">
        <ele>2241</ele>
        <time>2018-11-24T03:53:11Z</time>
      </trkpt>
      <trkpt lat="42.79731" lon="1.07239">
        <ele>2241.4</ele>
        <time>2018-11-24T03:53:12Z</time>
      </trkpt>
      <trkpt lat="42.79731" lon="1.07239">
        <ele>2241.4</ele>
        <time>2018-11-24T03:53:12Z</time>
      </trkpt>
      <trkpt lat="42.79731" lon="1.07236">
        <ele>2242</ele>
        <time>2018-11-24T03:53:13Z</time>
      </trkpt>
      <trkpt lat="42.79731" lon="1.07237">
        <ele>2242.4</ele>
        <time>2018-11-24T03:53:13Z</time>
      </trkpt>
      <trkpt lat="42.79732" lon="1.07239">
        <ele>2242.4</ele>
        <time>2018-11-24T03:53:14Z</time>
      </trkpt>
      <trkpt lat="42.79733" lon="1.0724">
        <ele>2242.5</ele>
        <time>2018-11-24T03:53:14Z</time>
      </trkpt>
      <trkpt lat="42.79732" lon="1.07238">
        <ele>2243</ele>
        <time>2018-11-24T03:53:15Z</time>
      </trkpt>
      <trkpt lat="42.79732" lon="1.07238">
        <ele>2242.9</ele>
        <time>2018-11-24T03:53:15Z</time>
      </trkpt>
      <trkpt lat="42.79731" lon="1.07236">
        <ele>2243.4</ele>
        <time>2018-11-24T03:53:16Z</time>
      </trkpt>
      <trkpt lat="42.7973" lon="1.07239">
        <ele>2243.5</ele>
        <time>2018-11-24T03:53:16Z</time>
      </trkpt>
      <trkpt lat="42.7973" lon="1.07238">
        <ele>2243.8</ele>
        <time>2018-11-24T03:53:17Z</time>
      </trkpt>
      <trkpt lat="42.79731" lon="1.07238">
        <ele>2244.3</ele>
        <time>2018-11-24T03:53:17Z</time>
      </trkpt>
      <trkpt lat="42.7973" lon="1.07237">
        <ele>2244.4</ele>
        <time>2018-11-24T03:53:17Z</time>
      </trkpt>
      <trkpt lat="42.7973" lon="1.07237">
        <ele>2244.9</ele>
        <time>2018-11-24T03:53:18Z</time>
      </trkpt>
      <trkpt lat="42.79728" lon="1.07238">
        <ele>2244.9</ele>
        <time>2018-11-24T03:53:19Z</time>
      </trkpt>
      <trkpt lat="42.79728" lon="1.0724">
        <ele>2245.3</ele>
        <time>2018-11-24T03:53:19Z</time>
      </trkpt>
      <trkpt lat="42.79729" lon="1.0724">
        <ele>2245.3</ele>
        <time>2018-11-24T03:53:19Z</time>
      </trkpt>
      <trkpt lat="42.79726" lon="1.07238">
        <ele>2245.4</ele>
        <time>2018-11-24T03:53:21Z</time>
      </trkpt>
      <trkpt lat="42.79725" lon="1.07238">
        <ele>2245.9</ele>
        <time>2018-11-24T03:53:21Z</time>
      </trkpt>
      <trkpt lat="42.79725" lon="1.07239">
        <ele>2245.9</ele>
        <time>2018-11-24T03:53:21Z</time>
      </trkpt>
      <trkpt lat="42.79727" lon="1.07236">
        <ele>2245.8</ele>
        <time>2018-11-24T03:53:23Z</time>
      </trkpt>
      <trkpt lat="42.7973" lon="1.07237">
        <ele>2247.2</ele>
        <time>2018-11-24T03:53:24Z</time>
      </trkpt>
      <trkpt lat="42.7973" lon="1.07239">
        <ele>2247.3</ele>
        <time>2018-11-24T03:53:24Z</time>
      </trkpt>
      <trkpt lat="42.7973" lon="1.07239">
        <ele>2247.8</ele>
        <time>2018-11-24T03:53:24Z</time>
      </trkpt>
      <trkpt lat="42.7973" lon="1.07238">
        <ele>2248.3</ele>
        <time>2018-11-24T03:53:24Z</time>
      </trkpt>
      <trkpt lat="42.7973" lon="1.07239">
        <ele>2248.2</ele>
        <time>2018-11-24T03:53:24Z</time>
      </trkpt>
      <trkpt lat="42.79729" lon="1.07239">
        <ele>2248.3</ele>
        <time>2018-11-24T03:53:25Z</time>
      </trkpt>
      <trkpt lat="42.79729" lon="1.07239">
        <ele>2248.2</ele>
        <time>2018-11-24T03:53:25Z</time>
      </trkpt>
      <trkpt lat="42.79729" lon="1.07239">
        <ele>2248.2</ele>
        <time>2018-11-24T03:53:25Z</time>
      </trkpt>
      <trkpt lat="42.79729" lon="1.07239">
        <ele>2248.3</ele>
        <time>2018-11-24T03:53:25Z</time>
      </trkpt>
      <trkpt lat="42.7973" lon="1.07239">
        <ele>2248.7</ele>
        <time>2018-11-24T03:53:25Z</time>
      </trkpt>
      <trkpt lat="42.79731" lon="1.07239">
        <ele>2248.7</ele>
        <time>2018-11-24T03:53:26Z</time>
      </trkpt>
      <trkpt lat="42.79731" lon="1.07239">
        <ele>2248.8</ele>
        <time>2018-11-24T03:53:26Z</time>
      </trkpt>
      <trkpt lat="42.79731" lon="1.07239">
        <ele>2248.8</ele>
        <time>2018-11-24T03:53:26Z</time>
      </trkpt>
      <trkpt lat="42.79729" lon="1.07239">
        <ele>2249.1</ele>
        <time>2018-11-24T03:53:27Z</time>
      </trkpt>
      <trkpt lat="42.79728" lon="1.07238">
        <ele>2249.1</ele>
        <time>2018-11-24T03:53:27Z</time>
      </trkpt>
      <trkpt lat="42.79729" lon="1.07239">
        <ele>2249.2</ele>
        <time>2018-11-24T03:53:28Z</time>
      </trkpt>
      <trkpt lat="42.7973" lon="1.0724">
        <ele>2249.7</ele>
        <time>2018-11-24T03:53:28Z</time>
      </trkpt>
      <trkpt lat="42.79727" lon="1.07239">
        <ele>2250.2</ele>
        <time>2018-11-24T03:53:29Z</time>
      </trkpt>
      <trkpt lat="42.79726" lon="1.07239">
        <ele>2250.1</ele>
        <time>2018-11-24T03:53:30Z</time>
      </trkpt>
      <trkpt lat="42.79727" lon="1.07239">
        <ele>2250.1</ele>
        <time>2018-11-24T03:53:30Z</time>
      </trkpt>
      <trkpt lat="42.7973" lon="1.0724">
        <ele>2250.2</ele>
        <time>2018-11-24T03:53:31Z</time>
      </trkpt>
      <trkpt lat="42.79731" lon="1.0724">
        <ele>2250.1</ele>
        <time>2018-11-24T03:53:32Z</time>
      </trkpt>
      <trkpt lat="42.79732" lon="1.07241">
        <ele>2250.2</ele>
        <time>2018-11-24T03:53:32Z</time>
      </trkpt>
      <trkpt lat="42.79733" lon="1.07241">
        <ele>2250.2</ele>
        <time>2018-11-24T03:53:33Z</time>
      </trkpt>
      <trkpt lat="42.79733" lon="1.07241">
        <ele>2250.2</ele>
        <time>2018-11-24T03:53:33Z</time>
      </trkpt>
      <trkpt lat="42.79732" lon="1.0724">
        <ele>2250.2</ele>
        <time>2018-11-24T03:53:33Z</time>
      </trkpt>
      <trkpt lat="42.79732" lon="1.07241">
        <ele>2249.7</ele>
        <time>2018-11-24T03:53:33Z</time>
      </trkpt>
      <trkpt lat="42.79731" lon="1.0724">
        <ele>2249.6</ele>
        <time>2018-11-24T03:53:34Z</time>
      </trkpt>
      <trkpt lat="42.79731" lon="1.0724">
        <ele>2249.7</ele>
        <time>2018-11-24T03:53:34Z</time>
      </trkpt>
      <trkpt lat="42.79731" lon="1.0724">
        <ele>2249.7</ele>
        <time>2018-11-24T03:53:34Z</time>
      </trkpt>
      <trkpt lat="42.79731" lon="1.07239">
        <ele>2249.6</ele>
        <time>2018-11-24T03:53:34Z</time>
      </trkpt>
      <trkpt lat="42.79731" lon="1.0724">
        <ele>2249.6</ele>
        <time>2018-11-24T03:53:34Z</time>
      </trkpt>
      <trkpt lat="42.79731" lon="1.0724">
        <ele>2249.6</ele>
        <time>2018-11-24T03:53:35Z</time>
      </trkpt>
      <trkpt lat="42.79731" lon="1.0724">
        <ele>2249.7</ele>
        <time>2018-11-24T03:53:35Z</time>
      </trkpt>
      <trkpt lat="42.79731" lon="1.0724">
        <ele>2249.6</ele>
        <time>2018-11-24T03:53:35Z</time>
      </trkpt>
      <trkpt lat="42.79731" lon="1.07239">
        <ele>2249.6</ele>
        <time>2018-11-24T03:53:36Z</time>
      </trkpt>
      <trkpt lat="42.79731" lon="1.0724">
        <ele>2249.7</ele>
        <time>2018-11-24T03:53:36Z</time>
      </trkpt>
      <trkpt lat="42.7973" lon="1.07241">
        <ele>2249.7</ele>
        <time>2018-11-24T03:53:36Z</time>
      </trkpt>
      <trkpt lat="42.79729" lon="1.07241">
        <ele>2249.7</ele>
        <time>2018-11-24T03:53:37Z</time>
      </trkpt>
      <trkpt lat="42.7973" lon="1.0724">
        <ele>2249.6</ele>
        <time>2018-11-24T03:53:37Z</time>
      </trkpt>
      <trkpt lat="42.7973" lon="1.07241">
        <ele>2249.7</ele>
        <time>2018-11-24T03:53:37Z</time>
      </trkpt>
      <trkpt lat="42.79731" lon="1.0724">
        <ele>2249.6</ele>
        <time>2018-11-24T03:53:38Z</time>
      </trkpt>
      <trkpt lat="42.79731" lon="1.07237">
        <ele>2248.2</ele>
        <time>2018-11-24T03:53:39Z</time>
      </trkpt>
      <trkpt lat="42.79731" lon="1.07241">
        <ele>2249.1</ele>
        <time>2018-11-24T03:53:40Z</time>
      </trkpt>
      <trkpt lat="42.79729" lon="1.07239">
        <ele>2249.2</ele>
        <time>2018-11-24T03:53:41Z</time>
      </trkpt>
      <trkpt lat="42.79729" lon="1.07238">
        <ele>2249.2</ele>
        <time>2018-11-24T03:53:41Z</time>
      </trkpt>
      <trkpt lat="42.79728" lon="1.07237">
        <ele>2249.1</ele>
        <time>2018-11-24T03:53:41Z</time>
      </trkpt>
      <trkpt lat="42.79727" lon="1.07236">
        <ele>2249.1</ele>
        <time>2018-11-24T03:53:42Z</time>
      </trkpt>
      <trkpt lat="42.79727" lon="1.07235">
        <ele>2249.1</ele>
        <time>2018-11-24T03:53:42Z</time>
      </trkpt>
      <trkpt lat="42.79722" lon="1.07226">
        <ele>2245.8</ele>
        <time>2018-11-24T03:53:45Z</time>
      </trkpt>
      <trkpt lat="42.7972" lon="1.07224">
        <ele>2244.8</ele>
        <time>2018-11-24T03:53:46Z</time>
      </trkpt>
      <trkpt lat="42.79717" lon="1.07222">
        <ele>2244.3</ele>
        <time>2018-11-24T03:53:48Z</time>
      </trkpt>
      <trkpt lat="42.79718" lon="1.07219">
        <ele>2242.4</ele>
        <time>2018-11-24T03:53:49Z</time>
      </trkpt>
      <trkpt lat="42.79719" lon="1.07209">
        <ele>2239.6</ele>
        <time>2018-11-24T03:53:52Z</time>
      </trkpt>
      <trkpt lat="42.79715" lon="1.07195">
        <ele>2236.6</ele>
        <time>2018-11-24T03:53:56Z</time>
      </trkpt>
      <trkpt lat="42.79716" lon="1.07185">
        <ele>2234.7</ele>
        <time>2018-11-24T03:53:59Z</time>
      </trkpt>
      <trkpt lat="42.79707" lon="1.07176">
        <ele>2231.9</ele>
        <time>2018-11-24T03:54:04Z</time>
      </trkpt>
      <trkpt lat="42.79711" lon="1.07175">
        <ele>2229.9</ele>
        <time>2018-11-24T03:54:05Z</time>
      </trkpt>
      <trkpt lat="42.79717" lon="1.07167">
        <ele>2227.1</ele>
        <time>2018-11-24T03:54:09Z</time>
      </trkpt>
      <trkpt lat="42.79723" lon="1.0716">
        <ele>2224.2</ele>
        <time>2018-11-24T03:54:12Z</time>
      </trkpt>
      <trkpt lat="42.79725" lon="1.07154">
        <ele>2223.8</ele>
        <time>2018-11-24T03:54:14Z</time>
      </trkpt>
      <trkpt lat="42.79717" lon="1.07142">
        <ele>2220.3</ele>
        <time>2018-11-24T03:54:18Z</time>
      </trkpt>
      <trkpt lat="42.79711" lon="1.07141">
        <ele>2218.5</ele>
        <time>2018-11-24T03:54:21Z</time>
      </trkpt>
      <trkpt lat="42.7971" lon="1.07132">
        <ele>2217</ele>
        <time>2018-11-24T03:54:24Z</time>
      </trkpt>
      <trkpt lat="42.79722" lon="1.07125">
        <ele>2214.2</ele>
        <time>2018-11-24T03:54:29Z</time>
      </trkpt>
      <trkpt lat="42.79722" lon="1.07116">
        <ele>2212.2</ele>
        <time>2018-11-24T03:54:31Z</time>
      </trkpt>
      <trkpt lat="42.79722" lon="1.07111">
        <ele>2209.7</ele>
        <time>2018-11-24T03:54:33Z</time>
      </trkpt>
      <trkpt lat="42.7972" lon="1.071">
        <ele>2206.4</ele>
        <time>2018-11-24T03:54:36Z</time>
      </trkpt>
      <trkpt lat="42.79722" lon="1.07095">
        <ele>2206</ele>
        <time>2018-11-24T03:54:38Z</time>
      </trkpt>
      <trkpt lat="42.7972" lon="1.07088">
        <ele>2203</ele>
        <time>2018-11-24T03:54:40Z</time>
      </trkpt>
      <trkpt lat="42.79726" lon="1.07079">
        <ele>2199.6</ele>
        <time>2018-11-24T03:54:44Z</time>
      </trkpt>
      <trkpt lat="42.79729" lon="1.07067">
        <ele>2197.3</ele>
        <time>2018-11-24T03:54:48Z</time>
      </trkpt>
      <trkpt lat="42.79733" lon="1.07055">
        <ele>2194.9</ele>
        <time>2018-11-24T03:54:51Z</time>
      </trkpt>
      <trkpt lat="42.79733" lon="1.07053">
        <ele>2194.4</ele>
        <time>2018-11-24T03:54:52Z</time>
      </trkpt>
      <trkpt lat="42.79734" lon="1.0705">
        <ele>2193.5</ele>
        <time>2018-11-24T03:54:53Z</time>
      </trkpt>
      <trkpt lat="42.79738" lon="1.07044">
        <ele>2191.9</ele>
        <time>2018-11-24T03:54:55Z</time>
      </trkpt>
      <trkpt lat="42.79738" lon="1.0704">
        <ele>2191.6</ele>
        <time>2018-11-24T03:54:56Z</time>
      </trkpt>
      <trkpt lat="42.79742" lon="1.0703">
        <ele>2188.7</ele>
        <time>2018-11-24T03:55:00Z</time>
      </trkpt>
      <trkpt lat="42.79742" lon="1.07029">
        <ele>2187.6</ele>
        <time>2018-11-24T03:55:00Z</time>
      </trkpt>
      <trkpt lat="42.79743" lon="1.07023">
        <ele>2186.7</ele>
        <time>2018-11-24T03:55:02Z</time>
      </trkpt>
      <trkpt lat="42.79748" lon="1.0702">
        <ele>2186.3</ele>
        <time>2018-11-24T03:55:04Z</time>
      </trkpt>
      <trkpt lat="42.79749" lon="1.07018">
        <ele>2186.2</ele>
        <time>2018-11-24T03:55:05Z</time>
      </trkpt>
      <trkpt lat="42.79757" lon="1.07012">
        <ele>2185.2</ele>
        <time>2018-11-24T03:55:08Z</time>
      </trkpt>
      <trkpt lat="42.79758" lon="1.07008">
        <ele>2184.3</ele>
        <time>2018-11-24T03:55:10Z</time>
      </trkpt>
      <trkpt lat="42.79764" lon="1.06997">
        <ele>2181.4</ele>
        <time>2018-11-24T03:55:13Z</time>
      </trkpt>
      <trkpt lat="42.79765" lon="1.06995">
        <ele>2179.9</ele>
        <time>2018-11-24T03:55:14Z</time>
      </trkpt>
      <trkpt lat="42.79766" lon="1.06992">
        <ele>2179.5</ele>
        <time>2018-11-24T03:55:15Z</time>
      </trkpt>
      <trkpt lat="42.79772" lon="1.06987">
        <ele>2175.6</ele>
        <time>2018-11-24T03:55:18Z</time>
      </trkpt>
      <trkpt lat="42.79776" lon="1.06979">
        <ele>2172.7</ele>
        <time>2018-11-24T03:55:21Z</time>
      </trkpt>
      <trkpt lat="42.79781" lon="1.06971">
        <ele>2170.9</ele>
        <time>2018-11-24T03:55:24Z</time>
      </trkpt>
      <trkpt lat="42.79787" lon="1.06965">
        <ele>2168.4</ele>
        <time>2018-11-24T03:55:27Z</time>
      </trkpt>
      <trkpt lat="42.79793" lon="1.06956">
        <ele>2165.5</ele>
        <time>2018-11-24T03:55:31Z</time>
      </trkpt>
      <trkpt lat="42.79797" lon="1.06949">
        <ele>2164.1</ele>
        <time>2018-11-24T03:55:33Z</time>
      </trkpt>
      <trkpt lat="42.79798" lon="1.06938">
        <ele>2162.1</ele>
        <time>2018-11-24T03:55:36Z</time>
      </trkpt>
      <trkpt lat="42.79804" lon="1.06932">
        <ele>2159.4</ele>
        <time>2018-11-24T03:55:39Z</time>
      </trkpt>
      <trkpt lat="42.79812" lon="1.06928">
        <ele>2157.3</ele>
        <time>2018-11-24T03:55:43Z</time>
      </trkpt>
      <trkpt lat="42.79818" lon="1.06925">
        <ele>2155.4</ele>
        <time>2018-11-24T03:55:45Z</time>
      </trkpt>
      <trkpt lat="42.79818" lon="1.06923">
        <ele>2155</ele>
        <time>2018-11-24T03:55:46Z</time>
      </trkpt>
      <trkpt lat="42.79823" lon="1.06916">
        <ele>2153.6</ele>
        <time>2018-11-24T03:55:49Z</time>
      </trkpt>
      <trkpt lat="42.79829" lon="1.06908">
        <ele>2150.7</ele>
        <time>2018-11-24T03:55:52Z</time>
      </trkpt>
      <trkpt lat="42.79829" lon="1.06899">
        <ele>2148.8</ele>
        <time>2018-11-24T03:55:55Z</time>
      </trkpt>
      <trkpt lat="42.79831" lon="1.06893">
        <ele>2147.3</ele>
        <time>2018-11-24T03:55:57Z</time>
      </trkpt>
      <trkpt lat="42.79832" lon="1.06889">
        <ele>2145.8</ele>
        <time>2018-11-24T03:55:58Z</time>
      </trkpt>
      <trkpt lat="42.79835" lon="1.06886">
        <ele>2144.4</ele>
        <time>2018-11-24T03:56:00Z</time>
      </trkpt>
      <trkpt lat="42.79832" lon="1.06881">
        <ele>2142</ele>
        <time>2018-11-24T03:56:02Z</time>
      </trkpt>
      <trkpt lat="42.79833" lon="1.06875">
        <ele>2139.1</ele>
        <time>2018-11-24T03:56:03Z</time>
      </trkpt>
      <trkpt lat="42.79832" lon="1.06867">
        <ele>2136.7</ele>
        <time>2018-11-24T03:56:06Z</time>
      </trkpt>
      <trkpt lat="42.79837" lon="1.06863">
        <ele>2134.3</ele>
        <time>2018-11-24T03:56:08Z</time>
      </trkpt>
      <trkpt lat="42.79832" lon="1.06855">
        <ele>2132</ele>
        <time>2018-11-24T03:56:11Z</time>
      </trkpt>
      <trkpt lat="42.79829" lon="1.06848">
        <ele>2129.9</ele>
        <time>2018-11-24T03:56:13Z</time>
      </trkpt>
      <trkpt lat="42.79826" lon="1.06844">
        <ele>2129.5</ele>
        <time>2018-11-24T03:56:15Z</time>
      </trkpt>
      <trkpt lat="42.79829" lon="1.06843">
        <ele>2127.1</ele>
        <time>2018-11-24T03:56:16Z</time>
      </trkpt>
      <trkpt lat="42.79834" lon="1.06838">
        <ele>2125.7</ele>
        <time>2018-11-24T03:56:18Z</time>
      </trkpt>
      <trkpt lat="42.79828" lon="1.06829">
        <ele>2123.3</ele>
        <time>2018-11-24T03:56:22Z</time>
      </trkpt>
      <trkpt lat="42.79824" lon="1.06825">
        <ele>2121.8</ele>
        <time>2018-11-24T03:56:24Z</time>
      </trkpt>
      <trkpt lat="42.79819" lon="1.0682">
        <ele>2118.9</ele>
        <time>2018-11-24T03:56:26Z</time>
      </trkpt>
      <trkpt lat="42.79815" lon="1.06815">
        <ele>2117.5</ele>
        <time>2018-11-24T03:56:29Z</time>
      </trkpt>
      <trkpt lat="42.79813" lon="1.06812">
        <ele>2116.1</ele>
        <time>2018-11-24T03:56:30Z</time>
      </trkpt>
      <trkpt lat="42.79813" lon="1.06812">
        <ele>2114.7</ele>
        <time>2018-11-24T03:56:30Z</time>
      </trkpt>
      <trkpt lat="42.79812" lon="1.06812">
        <ele>2114.6</ele>
        <time>2018-11-24T03:56:30Z</time>
      </trkpt>
      <trkpt lat="42.79805" lon="1.06802">
        <ele>2111.7</ele>
        <time>2018-11-24T03:56:34Z</time>
      </trkpt>
      <trkpt lat="42.79812" lon="1.06796">
        <ele>2108.4</ele>
        <time>2018-11-24T03:56:37Z</time>
      </trkpt>
      <trkpt lat="42.7981" lon="1.06786">
        <ele>2105.4</ele>
        <time>2018-11-24T03:56:40Z</time>
      </trkpt>
      <trkpt lat="42.79804" lon="1.06785">
        <ele>2103</ele>
        <time>2018-11-24T03:56:43Z</time>
      </trkpt>
      <trkpt lat="42.79803" lon="1.06779">
        <ele>2100.6</ele>
        <time>2018-11-24T03:56:44Z</time>
      </trkpt>
      <trkpt lat="42.79803" lon="1.06777">
        <ele>2099.7</ele>
        <time>2018-11-24T03:56:45Z</time>
      </trkpt>
      <trkpt lat="42.79805" lon="1.06777">
        <ele>2099.2</ele>
        <time>2018-11-24T03:56:46Z</time>
      </trkpt>
      <trkpt lat="42.79808" lon="1.06775">
        <ele>2099.2</ele>
        <time>2018-11-24T03:56:47Z</time>
      </trkpt>
      <trkpt lat="42.79808" lon="1.06765">
        <ele>2097.8</ele>
        <time>2018-11-24T03:56:50Z</time>
      </trkpt>
      <trkpt lat="42.79812" lon="1.06756">
        <ele>2094.5</ele>
        <time>2018-11-24T03:56:53Z</time>
      </trkpt>
      <trkpt lat="42.79812" lon="1.06744">
        <ele>2091.1</ele>
        <time>2018-11-24T03:56:56Z</time>
      </trkpt>
      <trkpt lat="42.79809" lon="1.06736">
        <ele>2088.2</ele>
        <time>2018-11-24T03:56:59Z</time>
      </trkpt>
      <trkpt lat="42.79798" lon="1.0673">
        <ele>2084.9</ele>
        <time>2018-11-24T03:57:04Z</time>
      </trkpt>
      <trkpt lat="42.79798" lon="1.06724">
        <ele>2082.8</ele>
        <time>2018-11-24T03:57:05Z</time>
      </trkpt>
      <trkpt lat="42.79797" lon="1.0672">
        <ele>2082</ele>
        <time>2018-11-24T03:57:07Z</time>
      </trkpt>
      <trkpt lat="42.79794" lon="1.06715">
        <ele>2081.5</ele>
        <time>2018-11-24T03:57:08Z</time>
      </trkpt>
      <trkpt lat="42.79796" lon="1.06717">
        <ele>2081.4</ele>
        <time>2018-11-24T03:57:09Z</time>
      </trkpt>
      <trkpt lat="42.79796" lon="1.06717">
        <ele>2081.5</ele>
        <time>2018-11-24T03:57:09Z</time>
      </trkpt>
      <trkpt lat="42.79793" lon="1.06714">
        <ele>2081.4</ele>
        <time>2018-11-24T03:57:11Z</time>
      </trkpt>
      <trkpt lat="42.79794" lon="1.06709">
        <ele>2079.9</ele>
        <time>2018-11-24T03:57:12Z</time>
      </trkpt>
      <trkpt lat="42.79795" lon="1.06701">
        <ele>2076.6</ele>
        <time>2018-11-24T03:57:15Z</time>
      </trkpt>
      <trkpt lat="42.79796" lon="1.06692">
        <ele>2073.8</ele>
        <time>2018-11-24T03:57:17Z</time>
      </trkpt>
      <trkpt lat="42.79796" lon="1.06686">
        <ele>2070.4</ele>
        <time>2018-11-24T03:57:19Z</time>
      </trkpt>
      <trkpt lat="42.79793" lon="1.06676">
        <ele>2066.6</ele>
        <time>2018-11-24T03:57:22Z</time>
      </trkpt>
      <trkpt lat="42.79794" lon="1.06674">
        <ele>2066</ele>
        <time>2018-11-24T03:57:23Z</time>
      </trkpt>
      <trkpt lat="42.79793" lon="1.06675">
        <ele>2066.1</ele>
        <time>2018-11-24T03:57:23Z</time>
      </trkpt>
      <trkpt lat="42.79787" lon="1.06666">
        <ele>2063.2</ele>
        <time>2018-11-24T03:57:26Z</time>
      </trkpt>
      <trkpt lat="42.79787" lon="1.06666">
        <ele>2062.7</ele>
        <time>2018-11-24T03:57:27Z</time>
      </trkpt>
      <trkpt lat="42.79782" lon="1.06662">
        <ele>2060.7</ele>
        <time>2018-11-24T03:57:29Z</time>
      </trkpt>
      <trkpt lat="42.79784" lon="1.06652">
        <ele>2057.5</ele>
        <time>2018-11-24T03:57:32Z</time>
      </trkpt>
      <trkpt lat="42.79785" lon="1.06644">
        <ele>2054.5</ele>
        <time>2018-11-24T03:57:34Z</time>
      </trkpt>
      <trkpt lat="42.79789" lon="1.06638">
        <ele>2051.6</ele>
        <time>2018-11-24T03:57:37Z</time>
      </trkpt>
      <trkpt lat="42.79793" lon="1.0663">
        <ele>2048.7</ele>
        <time>2018-11-24T03:57:40Z</time>
      </trkpt>
      <trkpt lat="42.79796" lon="1.06622">
        <ele>2045.4</ele>
        <time>2018-11-24T03:57:42Z</time>
      </trkpt>
      <trkpt lat="42.798" lon="1.06615">
        <ele>2043</ele>
        <time>2018-11-24T03:57:45Z</time>
      </trkpt>
      <trkpt lat="42.79805" lon="1.06611">
        <ele>2040.6</ele>
        <time>2018-11-24T03:57:47Z</time>
      </trkpt>
      <trkpt lat="42.79807" lon="1.06611">
        <ele>2039.6</ele>
        <time>2018-11-24T03:57:48Z</time>
      </trkpt>
      <trkpt lat="42.79811" lon="1.06609">
        <ele>2038.1</ele>
        <time>2018-11-24T03:57:50Z</time>
      </trkpt>
      <trkpt lat="42.79816" lon="1.06604">
        <ele>2034.8</ele>
        <time>2018-11-24T03:57:52Z</time>
      </trkpt>
      <trkpt lat="42.79817" lon="1.06596">
        <ele>2032</ele>
        <time>2018-11-24T03:57:55Z</time>
      </trkpt>
      <trkpt lat="42.79817" lon="1.06595">
        <ele>2031.4</ele>
        <time>2018-11-24T03:57:55Z</time>
      </trkpt>
      <trkpt lat="42.79817" lon="1.06588">
        <ele>2028.1</ele>
        <time>2018-11-24T03:57:57Z</time>
      </trkpt>
      <trkpt lat="42.79817" lon="1.06577">
        <ele>2025.2</ele>
        <time>2018-11-24T03:58:00Z</time>
      </trkpt>
      <trkpt lat="42.79821" lon="1.06572">
        <ele>2022.3</ele>
        <time>2018-11-24T03:58:02Z</time>
      </trkpt>
      <trkpt lat="42.79822" lon="1.06567">
        <ele>2020.3</ele>
        <time>2018-11-24T03:58:04Z</time>
      </trkpt>
      <trkpt lat="42.79824" lon="1.0656">
        <ele>2017.9</ele>
        <time>2018-11-24T03:58:06Z</time>
      </trkpt>
      <trkpt lat="42.79828" lon="1.06558">
        <ele>2016.1</ele>
        <time>2018-11-24T03:58:08Z</time>
      </trkpt>
      <trkpt lat="42.79831" lon="1.06555">
        <ele>2013.7</ele>
        <time>2018-11-24T03:58:09Z</time>
      </trkpt>
      <trkpt lat="42.79826" lon="1.06543">
        <ele>2010.7</ele>
        <time>2018-11-24T03:58:13Z</time>
      </trkpt>
      <trkpt lat="42.7983" lon="1.06538">
        <ele>2008</ele>
        <time>2018-11-24T03:58:15Z</time>
      </trkpt>
      <trkpt lat="42.79832" lon="1.06535">
        <ele>2007.4</ele>
        <time>2018-11-24T03:58:16Z</time>
      </trkpt>
      <trkpt lat="42.79837" lon="1.0653">
        <ele>2004.5</ele>
        <time>2018-11-24T03:58:19Z</time>
      </trkpt>
      <trkpt lat="42.79843" lon="1.06524">
        <ele>2001.6</ele>
        <time>2018-11-24T03:58:22Z</time>
      </trkpt>
      <trkpt lat="42.79845" lon="1.06522">
        <ele>2000.2</ele>
        <time>2018-11-24T03:58:23Z</time>
      </trkpt>
      <trkpt lat="42.7985" lon="1.06517">
        <ele>1997.8</ele>
        <time>2018-11-24T03:58:25Z</time>
      </trkpt>
      <trkpt lat="42.79851" lon="1.06515">
        <ele>1996.8</ele>
        <time>2018-11-24T03:58:26Z</time>
      </trkpt>
      <trkpt lat="42.79855" lon="1.06507">
        <ele>1994.5</ele>
        <time>2018-11-24T03:58:29Z</time>
      </trkpt>
      <trkpt lat="42.79854" lon="1.06504">
        <ele>1994</ele>
        <time>2018-11-24T03:58:30Z</time>
      </trkpt>
      <trkpt lat="42.79849" lon="1.06496">
        <ele>1991.6</ele>
        <time>2018-11-24T03:58:33Z</time>
      </trkpt>
      <trkpt lat="42.79851" lon="1.0649">
        <ele>1988.7</ele>
        <time>2018-11-24T03:58:35Z</time>
      </trkpt>
      <trkpt lat="42.79845" lon="1.06476">
        <ele>1985.3</ele>
        <time>2018-11-24T03:58:40Z</time>
      </trkpt>
      <trkpt lat="42.79842" lon="1.06465">
        <ele>1982.9</ele>
        <time>2018-11-24T03:58:43Z</time>
      </trkpt>
      <trkpt lat="42.79839" lon="1.06459">
        <ele>1982</ele>
        <time>2018-11-24T03:58:45Z</time>
      </trkpt>
      <trkpt lat="42.79843" lon="1.06452">
        <ele>1979</ele>
        <time>2018-11-24T03:58:48Z</time>
      </trkpt>
      <trkpt lat="42.79845" lon="1.06442">
        <ele>1976.1</ele>
        <time>2018-11-24T03:58:51Z</time>
      </trkpt>
      <trkpt lat="42.7985" lon="1.06436">
        <ele>1973.3</ele>
        <time>2018-11-24T03:58:53Z</time>
      </trkpt>
      <trkpt lat="42.79852" lon="1.06431">
        <ele>1970.8</ele>
        <time>2018-11-24T03:58:55Z</time>
      </trkpt>
      <trkpt lat="42.79853" lon="1.06431">
        <ele>1970.8</ele>
        <time>2018-11-24T03:58:55Z</time>
      </trkpt>
      <trkpt lat="42.79858" lon="1.0642">
        <ele>1968.5</ele>
        <time>2018-11-24T03:58:59Z</time>
      </trkpt>
      <trkpt lat="42.79861" lon="1.06416">
        <ele>1968</ele>
        <time>2018-11-24T03:59:01Z</time>
      </trkpt>
      <trkpt lat="42.79862" lon="1.06414">
        <ele>1967.5</ele>
        <time>2018-11-24T03:59:02Z</time>
      </trkpt>
      <trkpt lat="42.7987" lon="1.06407">
        <ele>1967.1</ele>
        <time>2018-11-24T03:59:05Z</time>
      </trkpt>
      <trkpt lat="42.7987" lon="1.06404">
        <ele>1966.5</ele>
        <time>2018-11-24T03:59:06Z</time>
      </trkpt>
      <trkpt lat="42.7987" lon="1.06404">
        <ele>1966.6</ele>
        <time>2018-11-24T03:59:06Z</time>
      </trkpt>
      <trkpt lat="42.79876" lon="1.06406">
        <ele>1966</ele>
        <time>2018-11-24T03:59:09Z</time>
      </trkpt>
      <trkpt lat="42.79883" lon="1.06404">
        <ele>1965.1</ele>
        <time>2018-11-24T03:59:12Z</time>
      </trkpt>
      <trkpt lat="42.79887" lon="1.06394">
        <ele>1962.8</ele>
        <time>2018-11-24T03:59:15Z</time>
      </trkpt>
      <trkpt lat="42.7989" lon="1.06387">
        <ele>1958.9</ele>
        <time>2018-11-24T03:59:17Z</time>
      </trkpt>
      <trkpt lat="42.79891" lon="1.06377">
        <ele>1955.5</ele>
        <time>2018-11-24T03:59:20Z</time>
      </trkpt>
      <trkpt lat="42.79894" lon="1.06372">
        <ele>1954</ele>
        <time>2018-11-24T03:59:22Z</time>
      </trkpt>
      <trkpt lat="42.799" lon="1.06367">
        <ele>1952.6</ele>
        <time>2018-11-24T03:59:25Z</time>
      </trkpt>
      <trkpt lat="42.79904" lon="1.06356">
        <ele>1949.7</ele>
        <time>2018-11-24T03:59:28Z</time>
      </trkpt>
      <trkpt lat="42.79908" lon="1.06351">
        <ele>1948.8</ele>
        <time>2018-11-24T03:59:31Z</time>
      </trkpt>
      <trkpt lat="42.79911" lon="1.06348">
        <ele>1948.3</ele>
        <time>2018-11-24T03:59:32Z</time>
      </trkpt>
      <trkpt lat="42.79913" lon="1.06341">
        <ele>1946.9</ele>
        <time>2018-11-24T03:59:34Z</time>
      </trkpt>
      <trkpt lat="42.79919" lon="1.06332">
        <ele>1945</ele>
        <time>2018-11-24T03:59:38Z</time>
      </trkpt>
      <trkpt lat="42.79921" lon="1.06329">
        <ele>1943.9</ele>
        <time>2018-11-24T03:59:39Z</time>
      </trkpt>
      <trkpt lat="42.79927" lon="1.06317">
        <ele>1941.6</ele>
        <time>2018-11-24T03:59:43Z</time>
      </trkpt>
      <trkpt lat="42.79928" lon="1.06313">
        <ele>1939.2</ele>
        <time>2018-11-24T03:59:44Z</time>
      </trkpt>
      <trkpt lat="42.79928" lon="1.06313">
        <ele>1939.1</ele>
        <time>2018-11-24T03:59:45Z</time>
      </trkpt>
      <trkpt lat="42.79936" lon="1.06299">
        <ele>1936.2</ele>
        <time>2018-11-24T03:59:50Z</time>
      </trkpt>
      <trkpt lat="42.79936" lon="1.06295">
        <ele>1934.8</ele>
        <time>2018-11-24T03:59:51Z</time>
      </trkpt>
      <trkpt lat="42.79934" lon="1.06288">
        <ele>1931.5</ele>
        <time>2018-11-24T03:59:53Z</time>
      </trkpt>
      <trkpt lat="42.79934" lon="1.06284">
        <ele>1930.5</ele>
        <time>2018-11-24T03:59:54Z</time>
      </trkpt>
      <trkpt lat="42.79936" lon="1.06278">
        <ele>1928.1</ele>
        <time>2018-11-24T03:59:56Z</time>
      </trkpt>
      <trkpt lat="42.79938" lon="1.06275">
        <ele>1927.6</ele>
        <time>2018-11-24T03:59:57Z</time>
      </trkpt>
      <trkpt lat="42.7994" lon="1.06271">
        <ele>1926.7</ele>
        <time>2018-11-24T03:59:59Z</time>
      </trkpt>
      <trkpt lat="42.79944" lon="1.06265">
        <ele>1926.1</ele>
        <time>2018-11-24T04:00:01Z</time>
      </trkpt>
      <trkpt lat="42.79947" lon="1.06254">
        <ele>1923.4</ele>
        <time>2018-11-24T04:00:05Z</time>
      </trkpt>
      <trkpt lat="42.79952" lon="1.06244">
        <ele>1922.9</ele>
        <time>2018-11-24T04:00:08Z</time>
      </trkpt>
      <trkpt lat="42.79956" lon="1.0623">
        <ele>1920</ele>
        <time>2018-11-24T04:00:12Z</time>
      </trkpt>
      <trkpt lat="42.7996" lon="1.06225">
        <ele>1918.6</ele>
        <time>2018-11-24T04:00:15Z</time>
      </trkpt>
      <trkpt lat="42.79962" lon="1.06219">
        <ele>1917</ele>
        <time>2018-11-24T04:00:17Z</time>
      </trkpt>
      <trkpt lat="42.79967" lon="1.06212">
        <ele>1916</ele>
        <time>2018-11-24T04:00:20Z</time>
      </trkpt>
      <trkpt lat="42.79977" lon="1.06194">
        <ele>1912.7</ele>
        <time>2018-11-24T04:00:26Z</time>
      </trkpt>
      <trkpt lat="42.7998" lon="1.06186">
        <ele>1911.2</ele>
        <time>2018-11-24T04:00:29Z</time>
      </trkpt>
      <trkpt lat="42.79983" lon="1.06178">
        <ele>1909.8</ele>
        <time>2018-11-24T04:00:31Z</time>
      </trkpt>
      <trkpt lat="42.79993" lon="1.06162">
        <ele>1906.5</ele>
        <time>2018-11-24T04:00:38Z</time>
      </trkpt>
      <trkpt lat="42.79997" lon="1.0615">
        <ele>1904.5</ele>
        <time>2018-11-24T04:00:42Z</time>
      </trkpt>
      <trkpt lat="42.80003" lon="1.06135">
        <ele>1901.6</ele>
        <time>2018-11-24T04:00:46Z</time>
      </trkpt>
      <trkpt lat="42.80005" lon="1.06128">
        <ele>1901.6</ele>
        <time>2018-11-24T04:00:49Z</time>
      </trkpt>
      <trkpt lat="42.80007" lon="1.06123">
        <ele>1899.7</ele>
        <time>2018-11-24T04:00:50Z</time>
      </trkpt>
      <trkpt lat="42.80007" lon="1.06121">
        <ele>1899.3</ele>
        <time>2018-11-24T04:00:51Z</time>
      </trkpt>
      <trkpt lat="42.80008" lon="1.0611">
        <ele>1896.8</ele>
        <time>2018-11-24T04:00:54Z</time>
      </trkpt>
      <trkpt lat="42.80011" lon="1.06101">
        <ele>1895.9</ele>
        <time>2018-11-24T04:00:57Z</time>
      </trkpt>
      <trkpt lat="42.80012" lon="1.06095">
        <ele>1893.9</ele>
        <time>2018-11-24T04:00:59Z</time>
      </trkpt>
      <trkpt lat="42.80015" lon="1.06087">
        <ele>1893.1</ele>
        <time>2018-11-24T04:01:02Z</time>
      </trkpt>
      <trkpt lat="42.80021" lon="1.06072">
        <ele>1890.1</ele>
        <time>2018-11-24T04:01:07Z</time>
      </trkpt>
      <trkpt lat="42.80023" lon="1.06063">
        <ele>1887.3</ele>
        <time>2018-11-24T04:01:09Z</time>
      </trkpt>
      <trkpt lat="42.80023" lon="1.06051">
        <ele>1883.4</ele>
        <time>2018-11-24T04:01:13Z</time>
      </trkpt>
      <trkpt lat="42.80027" lon="1.0604">
        <ele>1880</ele>
        <time>2018-11-24T04:01:16Z</time>
      </trkpt>
      <trkpt lat="42.80028" lon="1.0603">
        <ele>1879</ele>
        <time>2018-11-24T04:01:19Z</time>
      </trkpt>
      <trkpt lat="42.80037" lon="1.06019">
        <ele>1875.2</ele>
        <time>2018-11-24T04:01:24Z</time>
      </trkpt>
      <trkpt lat="42.80038" lon="1.06018">
        <ele>1874.8</ele>
        <time>2018-11-24T04:01:25Z</time>
      </trkpt>
      <trkpt lat="42.80042" lon="1.06011">
        <ele>1873.3</ele>
        <time>2018-11-24T04:01:27Z</time>
      </trkpt>
      <trkpt lat="42.80045" lon="1.06004">
        <ele>1871.8</ele>
        <time>2018-11-24T04:01:30Z</time>
      </trkpt>
      <trkpt lat="42.8005" lon="1.05992">
        <ele>1869.4</ele>
        <time>2018-11-24T04:01:34Z</time>
      </trkpt>
      <trkpt lat="42.80045" lon="1.05986">
        <ele>1868</ele>
        <time>2018-11-24T04:01:36Z</time>
      </trkpt>
      <trkpt lat="42.80039" lon="1.05981">
        <ele>1864.7</ele>
        <time>2018-11-24T04:01:39Z</time>
      </trkpt>
      <trkpt lat="42.80039" lon="1.05978">
        <ele>1864.2</ele>
        <time>2018-11-24T04:01:40Z</time>
      </trkpt>
      <trkpt lat="42.80039" lon="1.05976">
        <ele>1863.8</ele>
        <time>2018-11-24T04:01:41Z</time>
      </trkpt>
      <trkpt lat="42.80036" lon="1.05965">
        <ele>1860.8</ele>
        <time>2018-11-24T04:01:44Z</time>
      </trkpt>
      <trkpt lat="42.80033" lon="1.05959">
        <ele>1858.8</ele>
        <time>2018-11-24T04:01:46Z</time>
      </trkpt>
      <trkpt lat="42.80033" lon="1.05959">
        <ele>1858.5</ele>
        <time>2018-11-24T04:01:46Z</time>
      </trkpt>
      <trkpt lat="42.80034" lon="1.05958">
        <ele>1858</ele>
        <time>2018-11-24T04:01:47Z</time>
      </trkpt>
      <trkpt lat="42.80039" lon="1.05952">
        <ele>1856.4</ele>
        <time>2018-11-24T04:01:49Z</time>
      </trkpt>
      <trkpt lat="42.8004" lon="1.05947">
        <ele>1854.1</ele>
        <time>2018-11-24T04:01:51Z</time>
      </trkpt>
      <trkpt lat="42.80042" lon="1.05937">
        <ele>1851.3</ele>
        <time>2018-11-24T04:01:54Z</time>
      </trkpt>
      <trkpt lat="42.80042" lon="1.05937">
        <ele>1850.7</ele>
        <time>2018-11-24T04:01:54Z</time>
      </trkpt>
      <trkpt lat="42.80046" lon="1.05931">
        <ele>1849.2</ele>
        <time>2018-11-24T04:01:57Z</time>
      </trkpt>
      <trkpt lat="42.80047" lon="1.05924">
        <ele>1846.9</ele>
        <time>2018-11-24T04:01:59Z</time>
      </trkpt>
      <trkpt lat="42.80051" lon="1.05914">
        <ele>1845.4</ele>
        <time>2018-11-24T04:02:02Z</time>
      </trkpt>
      <trkpt lat="42.80052" lon="1.05915">
        <ele>1844.9</ele>
        <time>2018-11-24T04:02:03Z</time>
      </trkpt>
      <trkpt lat="42.80049" lon="1.05909">
        <ele>1844.4</ele>
        <time>2018-11-24T04:02:05Z</time>
      </trkpt>
      <trkpt lat="42.8005" lon="1.05908">
        <ele>1844</ele>
        <time>2018-11-24T04:02:05Z</time>
      </trkpt>
      <trkpt lat="42.8005" lon="1.05897">
        <ele>1841.6</ele>
        <time>2018-11-24T04:02:08Z</time>
      </trkpt>
      <trkpt lat="42.8005" lon="1.05894">
        <ele>1841.2</ele>
        <time>2018-11-24T04:02:09Z</time>
      </trkpt>
      <trkpt lat="42.80052" lon="1.05879">
        <ele>1838.2</ele>
        <time>2018-11-24T04:02:14Z</time>
      </trkpt>
      <trkpt lat="42.80053" lon="1.05867">
        <ele>1836.3</ele>
        <time>2018-11-24T04:02:17Z</time>
      </trkpt>
      <trkpt lat="42.80053" lon="1.05855">
        <ele>1833.9</ele>
        <time>2018-11-24T04:02:21Z</time>
      </trkpt>
      <trkpt lat="42.80053" lon="1.0585">
        <ele>1832.9</ele>
        <time>2018-11-24T04:02:22Z</time>
      </trkpt>
      <trkpt lat="42.80058" lon="1.05839">
        <ele>1829.1</ele>
        <time>2018-11-24T04:02:26Z</time>
      </trkpt>
      <trkpt lat="42.8006" lon="1.05832">
        <ele>1827.7</ele>
        <time>2018-11-24T04:02:28Z</time>
      </trkpt>
      <trkpt lat="42.80064" lon="1.05826">
        <ele>1826.7</ele>
        <time>2018-11-24T04:02:31Z</time>
      </trkpt>
      <trkpt lat="42.80065" lon="1.05822">
        <ele>1825.3</ele>
        <time>2018-11-24T04:02:32Z</time>
      </trkpt>
      <trkpt lat="42.80065" lon="1.05818">
        <ele>1824.3</ele>
        <time>2018-11-24T04:02:33Z</time>
      </trkpt>
      <trkpt lat="42.80076" lon="1.05806">
        <ele>1820.5</ele>
        <time>2018-11-24T04:02:38Z</time>
      </trkpt>
      <trkpt lat="42.80081" lon="1.05796">
        <ele>1817.5</ele>
        <time>2018-11-24T04:02:42Z</time>
      </trkpt>
      <trkpt lat="42.80083" lon="1.05795">
        <ele>1816.2</ele>
        <time>2018-11-24T04:02:43Z</time>
      </trkpt>
      <trkpt lat="42.80086" lon="1.05793">
        <ele>1815.7</ele>
        <time>2018-11-24T04:02:44Z</time>
      </trkpt>
      <trkpt lat="42.80092" lon="1.05783">
        <ele>1812.7</ele>
        <time>2018-11-24T04:02:48Z</time>
      </trkpt>
      <trkpt lat="42.80096" lon="1.05772">
        <ele>1809.4</ele>
        <time>2018-11-24T04:02:51Z</time>
      </trkpt>
      <trkpt lat="42.80097" lon="1.05763">
        <ele>1806</ele>
        <time>2018-11-24T04:02:54Z</time>
      </trkpt>
      <trkpt lat="42.80096" lon="1.0576">
        <ele>1805</ele>
        <time>2018-11-24T04:02:55Z</time>
      </trkpt>
      <trkpt lat="42.80098" lon="1.0575">
        <ele>1801.7</ele>
        <time>2018-11-24T04:02:58Z</time>
      </trkpt>
      <trkpt lat="42.801" lon="1.05746">
        <ele>1799.7</ele>
        <time>2018-11-24T04:03:00Z</time>
      </trkpt>
      <trkpt lat="42.80103" lon="1.05742">
        <ele>1798.8</ele>
        <time>2018-11-24T04:03:01Z</time>
      </trkpt>
      <trkpt lat="42.80105" lon="1.05735">
        <ele>1797.9</ele>
        <time>2018-11-24T04:03:03Z</time>
      </trkpt>
      <trkpt lat="42.80103" lon="1.05725">
        <ele>1795.4</ele>
        <time>2018-11-24T04:03:06Z</time>
      </trkpt>
      <trkpt lat="42.80104" lon="1.05718">
        <ele>1793.5</ele>
        <time>2018-11-24T04:03:08Z</time>
      </trkpt>
      <trkpt lat="42.80108" lon="1.05705">
        <ele>1790.7</ele>
        <time>2018-11-24T04:03:13Z</time>
      </trkpt>
      <trkpt lat="42.80113" lon="1.05692">
        <ele>1787.8</ele>
        <time>2018-11-24T04:03:17Z</time>
      </trkpt>
      <trkpt lat="42.80124" lon="1.05683">
        <ele>1785.4</ele>
        <time>2018-11-24T04:03:22Z</time>
      </trkpt>
      <trkpt lat="42.80125" lon="1.05681">
        <ele>1784.8</ele>
        <time>2018-11-24T04:03:23Z</time>
      </trkpt>
      <trkpt lat="42.8013" lon="1.05677">
        <ele>1782.9</ele>
        <time>2018-11-24T04:03:25Z</time>
      </trkpt>
      <trkpt lat="42.80136" lon="1.05673">
        <ele>1781.9</ele>
        <time>2018-11-24T04:03:28Z</time>
      </trkpt>
      <trkpt lat="42.80138" lon="1.0567">
        <ele>1781.6</ele>
        <time>2018-11-24T04:03:29Z</time>
      </trkpt>
      <trkpt lat="42.80144" lon="1.05656">
        <ele>1777.6</ele>
        <time>2018-11-24T04:03:34Z</time>
      </trkpt>
      <trkpt lat="42.80148" lon="1.05649">
        <ele>1776.3</ele>
        <time>2018-11-24T04:03:36Z</time>
      </trkpt>
      <trkpt lat="42.80154" lon="1.05643">
        <ele>1774.3</ele>
        <time>2018-11-24T04:03:39Z</time>
      </trkpt>
      <trkpt lat="42.80158" lon="1.05638">
        <ele>1772.9</ele>
        <time>2018-11-24T04:03:42Z</time>
      </trkpt>
      <trkpt lat="42.80169" lon="1.05637">
        <ele>1771</ele>
        <time>2018-11-24T04:03:46Z</time>
      </trkpt>
      <trkpt lat="42.80177" lon="1.05635">
        <ele>1768.5</ele>
        <time>2018-11-24T04:03:49Z</time>
      </trkpt>
      <trkpt lat="42.80182" lon="1.05634">
        <ele>1768.1</ele>
        <time>2018-11-24T04:03:51Z</time>
      </trkpt>
      <trkpt lat="42.80187" lon="1.05631">
        <ele>1766.6</ele>
        <time>2018-11-24T04:03:54Z</time>
      </trkpt>
      <trkpt lat="42.80195" lon="1.05632">
        <ele>1763.2</ele>
        <time>2018-11-24T04:03:57Z</time>
      </trkpt>
      <trkpt lat="42.80199" lon="1.05626">
        <ele>1761.3</ele>
        <time>2018-11-24T04:03:59Z</time>
      </trkpt>
      <trkpt lat="42.80205" lon="1.05626">
        <ele>1758.9</ele>
        <time>2018-11-24T04:04:01Z</time>
      </trkpt>
      <trkpt lat="42.80213" lon="1.05627">
        <ele>1756.6</ele>
        <time>2018-11-24T04:04:04Z</time>
      </trkpt>
      <trkpt lat="42.80225" lon="1.0563">
        <ele>1754.2</ele>
        <time>2018-11-24T04:04:09Z</time>
      </trkpt>
      <trkpt lat="42.80233" lon="1.05633">
        <ele>1752.2</ele>
        <time>2018-11-24T04:04:13Z</time>
      </trkpt>
      <trkpt lat="42.80238" lon="1.05636">
        <ele>1751.3</ele>
        <time>2018-11-24T04:04:15Z</time>
      </trkpt>
      <trkpt lat="42.80251" lon="1.05634">
        <ele>1748.3</ele>
        <time>2018-11-24T04:04:20Z</time>
      </trkpt>
      <trkpt lat="42.80258" lon="1.05631">
        <ele>1746.9</ele>
        <time>2018-11-24T04:04:23Z</time>
      </trkpt>
      <trkpt lat="42.8026" lon="1.0563">
        <ele>1745.5</ele>
        <time>2018-11-24T04:04:24Z</time>
      </trkpt>
      <trkpt lat="42.80274" lon="1.05623">
        <ele>1743.5</ele>
        <time>2018-11-24T04:04:30Z</time>
      </trkpt>
      <trkpt lat="42.8028" lon="1.05621">
        <ele>1742.1</ele>
        <time>2018-11-24T04:04:33Z</time>
      </trkpt>
      <trkpt lat="42.8029" lon="1.05616">
        <ele>1739.6</ele>
        <time>2018-11-24T04:04:37Z</time>
      </trkpt>
      <trkpt lat="42.80294" lon="1.05614">
        <ele>1739.6</ele>
        <time>2018-11-24T04:04:38Z</time>
      </trkpt>
      <trkpt lat="42.80301" lon="1.0561">
        <ele>1738.2</ele>
        <time>2018-11-24T04:04:41Z</time>
      </trkpt>
      <trkpt lat="42.80304" lon="1.05607">
        <ele>1737.7</ele>
        <time>2018-11-24T04:04:43Z</time>
      </trkpt>
      <trkpt lat="42.8031" lon="1.05602">
        <ele>1736.4</ele>
        <time>2018-11-24T04:04:46Z</time>
      </trkpt>
      <trkpt lat="42.80318" lon="1.05587">
        <ele>1733.9</ele>
        <time>2018-11-24T04:04:51Z</time>
      </trkpt>
      <trkpt lat="42.80322" lon="1.05586">
        <ele>1732.4</ele>
        <time>2018-11-24T04:04:53Z</time>
      </trkpt>
      <trkpt lat="42.80329" lon="1.05584">
        <ele>1732</ele>
        <time>2018-11-24T04:04:55Z</time>
      </trkpt>
      <trkpt lat="42.80334" lon="1.05578">
        <ele>1730.5</ele>
        <time>2018-11-24T04:04:58Z</time>
      </trkpt>
      <trkpt lat="42.80341" lon="1.05575">
        <ele>1728.1</ele>
        <time>2018-11-24T04:05:01Z</time>
      </trkpt>
      <trkpt lat="42.80348" lon="1.0557">
        <ele>1725.3</ele>
        <time>2018-11-24T04:05:04Z</time>
      </trkpt>
      <trkpt lat="42.80359" lon="1.05568">
        <ele>1722</ele>
        <time>2018-11-24T04:05:09Z</time>
      </trkpt>
      <trkpt lat="42.80365" lon="1.05566">
        <ele>1719.9</ele>
        <time>2018-11-24T04:05:11Z</time>
      </trkpt>
      <trkpt lat="42.80368" lon="1.05565">
        <ele>1718.5</ele>
        <time>2018-11-24T04:05:13Z</time>
      </trkpt>
      <trkpt lat="42.8037" lon="1.05565">
        <ele>1718.5</ele>
        <time>2018-11-24T04:05:13Z</time>
      </trkpt>
      <trkpt lat="42.80383" lon="1.0556">
        <ele>1715.1</ele>
        <time>2018-11-24T04:05:19Z</time>
      </trkpt>
      <trkpt lat="42.80388" lon="1.05558">
        <ele>1713.8</ele>
        <time>2018-11-24T04:05:21Z</time>
      </trkpt>
      <trkpt lat="42.80399" lon="1.05555">
        <ele>1710.9</ele>
        <time>2018-11-24T04:05:25Z</time>
      </trkpt>
      <trkpt lat="42.80408" lon="1.05552">
        <ele>1708.5</ele>
        <time>2018-11-24T04:05:29Z</time>
      </trkpt>
      <trkpt lat="42.80413" lon="1.05545">
        <ele>1706.6</ele>
        <time>2018-11-24T04:05:32Z</time>
      </trkpt>
      <trkpt lat="42.80422" lon="1.05538">
        <ele>1704.5</ele>
        <time>2018-11-24T04:05:36Z</time>
      </trkpt>
      <trkpt lat="42.80428" lon="1.05527">
        <ele>1701.3</ele>
        <time>2018-11-24T04:05:40Z</time>
      </trkpt>
      <trkpt lat="42.80433" lon="1.05517">
        <ele>1697.9</ele>
        <time>2018-11-24T04:05:44Z</time>
      </trkpt>
      <trkpt lat="42.80439" lon="1.05503">
        <ele>1694.9</ele>
        <time>2018-11-24T04:05:48Z</time>
      </trkpt>
      <trkpt lat="42.8044" lon="1.05499">
        <ele>1693.6</ele>
        <time>2018-11-24T04:05:50Z</time>
      </trkpt>
      <trkpt lat="42.80442" lon="1.05486">
        <ele>1690.6</ele>
        <time>2018-11-24T04:05:53Z</time>
      </trkpt>
      <trkpt lat="42.80434" lon="1.05484">
        <ele>1687.7</ele>
        <time>2018-11-24T04:05:56Z</time>
      </trkpt>
      <trkpt lat="42.80432" lon="1.05482">
        <ele>1686.8</ele>
        <time>2018-11-24T04:05:57Z</time>
      </trkpt>
      <trkpt lat="42.80426" lon="1.05481">
        <ele>1685.4</ele>
        <time>2018-11-24T04:06:00Z</time>
      </trkpt>
      <trkpt lat="42.80425" lon="1.05472">
        <ele>1682.1</ele>
        <time>2018-11-24T04:06:03Z</time>
      </trkpt>
      <trkpt lat="42.80425" lon="1.05471">
        <ele>1681.5</ele>
        <time>2018-11-24T04:06:03Z</time>
      </trkpt>
      <trkpt lat="42.80427" lon="1.05466">
        <ele>1680.1</ele>
        <time>2018-11-24T04:06:04Z</time>
      </trkpt>
      <trkpt lat="42.80435" lon="1.05458">
        <ele>1677.6</ele>
        <time>2018-11-24T04:06:08Z</time>
      </trkpt>
      <trkpt lat="42.80438" lon="1.05453">
        <ele>1676.3</ele>
        <time>2018-11-24T04:06:11Z</time>
      </trkpt>
      <trkpt lat="42.80449" lon="1.05446">
        <ele>1673.4</ele>
        <time>2018-11-24T04:06:15Z</time>
      </trkpt>
      <trkpt lat="42.80456" lon="1.05445">
        <ele>1672.3</ele>
        <time>2018-11-24T04:06:18Z</time>
      </trkpt>
      <trkpt lat="42.80462" lon="1.05441">
        <ele>1669.6</ele>
        <time>2018-11-24T04:06:21Z</time>
      </trkpt>
      <trkpt lat="42.8047" lon="1.0544">
        <ele>1667.1</ele>
        <time>2018-11-24T04:06:24Z</time>
      </trkpt>
      <trkpt lat="42.8047" lon="1.05435">
        <ele>1664.2</ele>
        <time>2018-11-24T04:06:25Z</time>
      </trkpt>
      <trkpt lat="42.80465" lon="1.0543">
        <ele>1661.8</ele>
        <time>2018-11-24T04:06:28Z</time>
      </trkpt>
      <trkpt lat="42.80464" lon="1.05425">
        <ele>1657.9</ele>
        <time>2018-11-24T04:06:30Z</time>
      </trkpt>
      <trkpt lat="42.80464" lon="1.05425">
        <ele>1657.6</ele>
        <time>2018-11-24T04:06:30Z</time>
      </trkpt>
      <trkpt lat="42.80473" lon="1.0542">
        <ele>1654.2</ele>
        <time>2018-11-24T04:06:33Z</time>
      </trkpt>
      <trkpt lat="42.80473" lon="1.05418">
        <ele>1654.1</ele>
        <time>2018-11-24T04:06:34Z</time>
      </trkpt>
      <trkpt lat="42.80472" lon="1.05416">
        <ele>1653.6</ele>
        <time>2018-11-24T04:06:34Z</time>
      </trkpt>
      <trkpt lat="42.80472" lon="1.05411">
        <ele>1650.2</ele>
        <time>2018-11-24T04:06:36Z</time>
      </trkpt>
      <trkpt lat="42.80479" lon="1.05405">
        <ele>1647.5</ele>
        <time>2018-11-24T04:06:39Z</time>
      </trkpt>
      <trkpt lat="42.80482" lon="1.05401">
        <ele>1647.5</ele>
        <time>2018-11-24T04:06:41Z</time>
      </trkpt>
      <trkpt lat="42.80486" lon="1.05396">
        <ele>1646</ele>
        <time>2018-11-24T04:06:43Z</time>
      </trkpt>
      <trkpt lat="42.80489" lon="1.05389">
        <ele>1642.1</ele>
        <time>2018-11-24T04:06:45Z</time>
      </trkpt>
      <trkpt lat="42.80492" lon="1.05381">
        <ele>1639.7</ele>
        <time>2018-11-24T04:06:48Z</time>
      </trkpt>
      <trkpt lat="42.80492" lon="1.05376">
        <ele>1637.3</ele>
        <time>2018-11-24T04:06:49Z</time>
      </trkpt>
      <trkpt lat="42.80495" lon="1.05371">
        <ele>1634.5</ele>
        <time>2018-11-24T04:06:51Z</time>
      </trkpt>
      <trkpt lat="42.80506" lon="1.05366">
        <ele>1631</ele>
        <time>2018-11-24T04:06:56Z</time>
      </trkpt>
      <trkpt lat="42.80509" lon="1.05363">
        <ele>1630.1</ele>
        <time>2018-11-24T04:06:58Z</time>
      </trkpt>
      <trkpt lat="42.80518" lon="1.05359">
        <ele>1628.7</ele>
        <time>2018-11-24T04:07:01Z</time>
      </trkpt>
      <trkpt lat="42.80526" lon="1.05353">
        <ele>1625.7</ele>
        <time>2018-11-24T04:07:05Z</time>
      </trkpt>
      <trkpt lat="42.80527" lon="1.05346">
        <ele>1624.9</ele>
        <time>2018-11-24T04:07:07Z</time>
      </trkpt>
      <trkpt lat="42.80523" lon="1.0534">
        <ele>1621.4</ele>
        <time>2018-11-24T04:07:09Z</time>
      </trkpt>
      <trkpt lat="42.80522" lon="1.05337">
        <ele>1620.5</ele>
        <time>2018-11-24T04:07:10Z</time>
      </trkpt>
      <trkpt lat="42.8052" lon="1.05334">
        <ele>1619.1</ele>
        <time>2018-11-24T04:07:11Z</time>
      </trkpt>
      <trkpt lat="42.80512" lon="1.05331">
        <ele>1616.1</ele>
        <time>2018-11-24T04:07:15Z</time>
      </trkpt>
      <trkpt lat="42.805" lon="1.05328">
        <ele>1613.7</ele>
        <time>2018-11-24T04:07:19Z</time>
      </trkpt>
      <trkpt lat="42.80492" lon="1.05324">
        <ele>1611.3</ele>
        <time>2018-11-24T04:07:23Z</time>
      </trkpt>
      <trkpt lat="42.80482" lon="1.0532">
        <ele>1608.4</ele>
        <time>2018-11-24T04:07:27Z</time>
      </trkpt>
      <trkpt lat="42.80479" lon="1.05321">
        <ele>1608.4</ele>
        <time>2018-11-24T04:07:28Z</time>
      </trkpt>
      <trkpt lat="42.80478" lon="1.05321">
        <ele>1608.4</ele>
        <time>2018-11-24T04:07:29Z</time>
      </trkpt>
      <trkpt lat="42.80478" lon="1.0532">
        <ele>1608</ele>
        <time>2018-11-24T04:07:29Z</time>
      </trkpt>
      <trkpt lat="42.80477" lon="1.0532">
        <ele>1607.9</ele>
        <time>2018-11-24T04:07:30Z</time>
      </trkpt>
      <trkpt lat="42.80471" lon="1.05321">
        <ele>1607.6</ele>
        <time>2018-11-24T04:07:32Z</time>
      </trkpt>
      <trkpt lat="42.80462" lon="1.05319">
        <ele>1607.1</ele>
        <time>2018-11-24T04:07:36Z</time>
      </trkpt>
      <trkpt lat="42.80456" lon="1.05313">
        <ele>1604.1</ele>
        <time>2018-11-24T04:07:38Z</time>
      </trkpt>
      <trkpt lat="42.80457" lon="1.05309">
        <ele>1602.3</ele>
        <time>2018-11-24T04:07:40Z</time>
      </trkpt>
      <trkpt lat="42.80457" lon="1.05304">
        <ele>1600.3</ele>
        <time>2018-11-24T04:07:41Z</time>
      </trkpt>
      <trkpt lat="42.8046" lon="1.05299">
        <ele>1598.3</ele>
        <time>2018-11-24T04:07:43Z</time>
      </trkpt>
      <trkpt lat="42.80458" lon="1.05298">
        <ele>1598.4</ele>
        <time>2018-11-24T04:07:44Z</time>
      </trkpt>
      <trkpt lat="42.80439" lon="1.05299">
        <ele>1596.4</ele>
        <time>2018-11-24T04:07:52Z</time>
      </trkpt>
      <trkpt lat="42.8044" lon="1.053">
        <ele>1596</ele>
        <time>2018-11-24T04:07:52Z</time>
      </trkpt>
      <trkpt lat="42.80436" lon="1.05297">
        <ele>1595.9</ele>
        <time>2018-11-24T04:07:54Z</time>
      </trkpt>
      <trkpt lat="42.8043" lon="1.05302">
        <ele>1595.5</ele>
        <time>2018-11-24T04:07:57Z</time>
      </trkpt>
      <trkpt lat="42.80418" lon="1.05302">
        <ele>1594.1</ele>
        <time>2018-11-24T04:08:01Z</time>
      </trkpt>
      <trkpt lat="42.80412" lon="1.05302">
        <ele>1591.2</ele>
        <time>2018-11-24T04:08:04Z</time>
      </trkpt>
      <trkpt lat="42.80411" lon="1.05302">
        <ele>1590.6</ele>
        <time>2018-11-24T04:08:04Z</time>
      </trkpt>
      <trkpt lat="42.80417" lon="1.053">
        <ele>1587.7</ele>
        <time>2018-11-24T04:08:06Z</time>
      </trkpt>
      <trkpt lat="42.80412" lon="1.05296">
        <ele>1584.9</ele>
        <time>2018-11-24T04:08:09Z</time>
      </trkpt>
      <trkpt lat="42.80416" lon="1.05293">
        <ele>1582</ele>
        <time>2018-11-24T04:08:11Z</time>
      </trkpt>
      <trkpt lat="42.80411" lon="1.05289">
        <ele>1579.1</ele>
        <time>2018-11-24T04:08:13Z</time>
      </trkpt>
      <trkpt lat="42.80411" lon="1.0528">
        <ele>1575.7</ele>
        <time>2018-11-24T04:08:16Z</time>
      </trkpt>
      <trkpt lat="42.80414" lon="1.05275">
        <ele>1572.8</ele>
        <time>2018-11-24T04:08:18Z</time>
      </trkpt>
      <trkpt lat="42.8041" lon="1.05269">
        <ele>1570.9</ele>
        <time>2018-11-24T04:08:20Z</time>
      </trkpt>
      <trkpt lat="42.80404" lon="1.05261">
        <ele>1567.7</ele>
        <time>2018-11-24T04:08:24Z</time>
      </trkpt>
      <trkpt lat="42.80407" lon="1.05256">
        <ele>1565.3</ele>
        <time>2018-11-24T04:08:26Z</time>
      </trkpt>
      <trkpt lat="42.80414" lon="1.05251">
        <ele>1561.9</ele>
        <time>2018-11-24T04:08:29Z</time>
      </trkpt>
      <trkpt lat="42.80418" lon="1.05243">
        <ele>1559.5</ele>
        <time>2018-11-24T04:08:32Z</time>
      </trkpt>
      <trkpt lat="42.80412" lon="1.05234">
        <ele>1556.5</ele>
        <time>2018-11-24T04:08:35Z</time>
      </trkpt>
      <trkpt lat="42.80421" lon="1.05225">
        <ele>1553.2</ele>
        <time>2018-11-24T04:08:39Z</time>
      </trkpt>
      <trkpt lat="42.80428" lon="1.05224">
        <ele>1552.2</ele>
        <time>2018-11-24T04:08:42Z</time>
      </trkpt>
      <trkpt lat="42.8043" lon="1.05223">
        <ele>1551.7</ele>
        <time>2018-11-24T04:08:43Z</time>
      </trkpt>
      <trkpt lat="42.80442" lon="1.0522">
        <ele>1549.8</ele>
        <time>2018-11-24T04:08:48Z</time>
      </trkpt>
      <trkpt lat="42.80452" lon="1.05215">
        <ele>1548.8</ele>
        <time>2018-11-24T04:08:53Z</time>
      </trkpt>
      <trkpt lat="42.80459" lon="1.05205">
        <ele>1546.5</ele>
        <time>2018-11-24T04:08:56Z</time>
      </trkpt>
      <trkpt lat="42.8046" lon="1.05203">
        <ele>1545.9</ele>
        <time>2018-11-24T04:08:57Z</time>
      </trkpt>
      <trkpt lat="42.80472" lon="1.05196">
        <ele>1547</ele>
        <time>2018-11-24T04:09:02Z</time>
      </trkpt>
      <trkpt lat="42.80477" lon="1.05196">
        <ele>1548.3</ele>
        <time>2018-11-24T04:09:04Z</time>
      </trkpt>
      <trkpt lat="42.80479" lon="1.05191">
        <ele>1548.9</ele>
        <time>2018-11-24T04:09:06Z</time>
      </trkpt>
      <trkpt lat="42.80484" lon="1.05192">
        <ele>1548</ele>
        <time>2018-11-24T04:09:08Z</time>
      </trkpt>
      <trkpt lat="42.80485" lon="1.05193">
        <ele>1547.5</ele>
        <time>2018-11-24T04:09:09Z</time>
      </trkpt>
      <trkpt lat="42.80489" lon="1.05195">
        <ele>1547</ele>
        <time>2018-11-24T04:09:10Z</time>
      </trkpt>
      <trkpt lat="42.80488" lon="1.05195">
        <ele>1546</ele>
        <time>2018-11-24T04:09:10Z</time>
      </trkpt>
      <trkpt lat="42.80491" lon="1.05193">
        <ele>1545.9</ele>
        <time>2018-11-24T04:09:12Z</time>
      </trkpt>
      <trkpt lat="42.805" lon="1.05182">
        <ele>1543.1</ele>
        <time>2018-11-24T04:09:17Z</time>
      </trkpt>
      <trkpt lat="42.80502" lon="1.05179">
        <ele>1542.6</ele>
        <time>2018-11-24T04:09:18Z</time>
      </trkpt>
      <trkpt lat="42.80503" lon="1.05174">
        <ele>1541.2</ele>
        <time>2018-11-24T04:09:19Z</time>
      </trkpt>
      <trkpt lat="42.80507" lon="1.05166">
        <ele>1538.8</ele>
        <time>2018-11-24T04:09:22Z</time>
      </trkpt>
      <trkpt lat="42.80509" lon="1.05162">
        <ele>1537.9</ele>
        <time>2018-11-24T04:09:23Z</time>
      </trkpt>
      <trkpt lat="42.80514" lon="1.05158">
        <ele>1537.3</ele>
        <time>2018-11-24T04:09:26Z</time>
      </trkpt>
      <trkpt lat="42.80529" lon="1.05154">
        <ele>1534.9</ele>
        <time>2018-11-24T04:09:32Z</time>
      </trkpt>
      <trkpt lat="42.80538" lon="1.05149">
        <ele>1533.5</ele>
        <time>2018-11-24T04:09:36Z</time>
      </trkpt>
      <trkpt lat="42.80546" lon="1.05146">
        <ele>1530.7</ele>
        <time>2018-11-24T04:09:39Z</time>
      </trkpt>
      <trkpt lat="42.80555" lon="1.05138">
        <ele>1528.2</ele>
        <time>2018-11-24T04:09:43Z</time>
      </trkpt>
      <trkpt lat="42.80563" lon="1.05133">
        <ele>1524.9</ele>
        <time>2018-11-24T04:09:47Z</time>
      </trkpt>
      <trkpt lat="42.80571" lon="1.05126">
        <ele>1521.4</ele>
        <time>2018-11-24T04:09:51Z</time>
      </trkpt>
      <trkpt lat="42.80578" lon="1.05123">
        <ele>1518.5</ele>
        <time>2018-11-24T04:09:54Z</time>
      </trkpt>
      <trkpt lat="42.80586" lon="1.0512">
        <ele>1515.3</ele>
        <time>2018-11-24T04:09:57Z</time>
      </trkpt>
      <trkpt lat="42.80589" lon="1.05117">
        <ele>1513.8</ele>
        <time>2018-11-24T04:09:58Z</time>
      </trkpt>
      <trkpt lat="42.80592" lon="1.05116">
        <ele>1510.9</ele>
        <time>2018-11-24T04:10:00Z</time>
      </trkpt>
      <trkpt lat="42.80594" lon="1.05121">
        <ele>1507</ele>
        <time>2018-11-24T04:10:01Z</time>
      </trkpt>
      <trkpt lat="42.80598" lon="1.05126">
        <ele>1505.7</ele>
        <time>2018-11-24T04:10:04Z</time>
      </trkpt>
      <trkpt lat="42.80602" lon="1.0512">
        <ele>1502.7</ele>
        <time>2018-11-24T04:10:06Z</time>
      </trkpt>
      <trkpt lat="42.80605" lon="1.05119">
        <ele>1499.3</ele>
        <time>2018-11-24T04:10:07Z</time>
      </trkpt>
      <trkpt lat="42.8061" lon="1.0511">
        <ele>1496</ele>
        <time>2018-11-24T04:10:10Z</time>
      </trkpt>
      <trkpt lat="42.80615" lon="1.05103">
        <ele>1492.6</ele>
        <time>2018-11-24T04:10:13Z</time>
      </trkpt>
      <trkpt lat="42.80616" lon="1.05098">
        <ele>1492.7</ele>
        <time>2018-11-24T04:10:15Z</time>
      </trkpt>
      <trkpt lat="42.80622" lon="1.05094">
        <ele>1488.3</ele>
        <time>2018-11-24T04:10:17Z</time>
      </trkpt>
      <trkpt lat="42.80623" lon="1.05097">
        <ele>1485.8</ele>
        <time>2018-11-24T04:10:19Z</time>
      </trkpt>
      <trkpt lat="42.80624" lon="1.051">
        <ele>1484.9</ele>
        <time>2018-11-24T04:10:19Z</time>
      </trkpt>
      <trkpt lat="42.80623" lon="1.05105">
        <ele>1484.5</ele>
        <time>2018-11-24T04:10:21Z</time>
      </trkpt>
      <trkpt lat="42.80623" lon="1.0511">
        <ele>1482.6</ele>
        <time>2018-11-24T04:10:22Z</time>
      </trkpt>
      <trkpt lat="42.80633" lon="1.05112">
        <ele>1480.2</ele>
        <time>2018-11-24T04:10:26Z</time>
      </trkpt>
      <trkpt lat="42.80637" lon="1.05112">
        <ele>1479.7</ele>
        <time>2018-11-24T04:10:28Z</time>
      </trkpt>
      <trkpt lat="42.80637" lon="1.05108">
        <ele>1478.8</ele>
        <time>2018-11-24T04:10:29Z</time>
      </trkpt>
      <trkpt lat="42.80639" lon="1.05111">
        <ele>1475.8</ele>
        <time>2018-11-24T04:10:31Z</time>
      </trkpt>
      <trkpt lat="42.80642" lon="1.05121">
        <ele>1473.5</ele>
        <time>2018-11-24T04:10:34Z</time>
      </trkpt>
      <trkpt lat="42.80653" lon="1.05132">
        <ele>1471.1</ele>
        <time>2018-11-24T04:10:39Z</time>
      </trkpt>
      <trkpt lat="42.80655" lon="1.05134">
        <ele>1471.1</ele>
        <time>2018-11-24T04:10:40Z</time>
      </trkpt>
      <trkpt lat="42.80664" lon="1.05142">
        <ele>1468.1</ele>
        <time>2018-11-24T04:10:44Z</time>
      </trkpt>
      <trkpt lat="42.80669" lon="1.05147">
        <ele>1465.2</ele>
        <time>2018-11-24T04:10:47Z</time>
      </trkpt>
      <trkpt lat="42.80671" lon="1.05149">
        <ele>1464.8</ele>
        <time>2018-11-24T04:10:48Z</time>
      </trkpt>
      <trkpt lat="42.80683" lon="1.05161">
        <ele>1462.4</ele>
        <time>2018-11-24T04:10:54Z</time>
      </trkpt>
      <trkpt lat="42.80693" lon="1.05168">
        <ele>1459.4</ele>
        <time>2018-11-24T04:10:58Z</time>
      </trkpt>
      <trkpt lat="42.80694" lon="1.05169">
        <ele>1458.6</ele>
        <time>2018-11-24T04:10:59Z</time>
      </trkpt>
      <trkpt lat="42.80702" lon="1.05175">
        <ele>1455.7</ele>
        <time>2018-11-24T04:11:02Z</time>
      </trkpt>
      <trkpt lat="42.80706" lon="1.05174">
        <ele>1452.7</ele>
        <time>2018-11-24T04:11:04Z</time>
      </trkpt>
      <trkpt lat="42.80707" lon="1.05172">
        <ele>1451.8</ele>
        <time>2018-11-24T04:11:05Z</time>
      </trkpt>
      <trkpt lat="42.80703" lon="1.05166">
        <ele>1448.8</ele>
        <time>2018-11-24T04:11:07Z</time>
      </trkpt>
      <trkpt lat="42.80702" lon="1.05161">
        <ele>1447.5</ele>
        <time>2018-11-24T04:11:09Z</time>
      </trkpt>
      <trkpt lat="42.80702" lon="1.05153">
        <ele>1445</ele>
        <time>2018-11-24T04:11:11Z</time>
      </trkpt>
      <trkpt lat="42.80705" lon="1.05159">
        <ele>1442.6</ele>
        <time>2018-11-24T04:11:13Z</time>
      </trkpt>
      <trkpt lat="42.80709" lon="1.05161">
        <ele>1439.2</ele>
        <time>2018-11-24T04:11:14Z</time>
      </trkpt>
      <trkpt lat="42.80716" lon="1.05158">
        <ele>1436.9</ele>
        <time>2018-11-24T04:11:17Z</time>
      </trkpt>
      <trkpt lat="42.8072" lon="1.05156">
        <ele>1433.9</ele>
        <time>2018-11-24T04:11:19Z</time>
      </trkpt>
      <trkpt lat="42.80722" lon="1.05153">
        <ele>1432.5</ele>
        <time>2018-11-24T04:11:20Z</time>
      </trkpt>
      <trkpt lat="42.8072" lon="1.05152">
        <ele>1432</ele>
        <time>2018-11-24T04:11:21Z</time>
      </trkpt>
      <trkpt lat="42.80721" lon="1.05148">
        <ele>1431.5</ele>
        <time>2018-11-24T04:11:22Z</time>
      </trkpt>
      <trkpt lat="42.80717" lon="1.05142">
        <ele>1431.6</ele>
        <time>2018-11-24T04:11:24Z</time>
      </trkpt>
      <trkpt lat="42.80722" lon="1.05142">
        <ele>1428.2</ele>
        <time>2018-11-24T04:11:27Z</time>
      </trkpt>
      <trkpt lat="42.80727" lon="1.05147">
        <ele>1424.8</ele>
        <time>2018-11-24T04:11:29Z</time>
      </trkpt>
      <trkpt lat="42.80732" lon="1.05147">
        <ele>1423.8</ele>
        <time>2018-11-24T04:11:31Z</time>
      </trkpt>
      <trkpt lat="42.80746" lon="1.05151">
        <ele>1419.6</ele>
        <time>2018-11-24T04:11:37Z</time>
      </trkpt>
      <trkpt lat="42.80755" lon="1.05152">
        <ele>1416.6</ele>
        <time>2018-11-24T04:11:40Z</time>
      </trkpt>
      <trkpt lat="42.80763" lon="1.05151">
        <ele>1413.3</ele>
        <time>2018-11-24T04:11:43Z</time>
      </trkpt>
      <trkpt lat="42.80769" lon="1.0515">
        <ele>1411.8</ele>
        <time>2018-11-24T04:11:46Z</time>
      </trkpt>
      <trkpt lat="42.80769" lon="1.05156">
        <ele>1411.5</ele>
        <time>2018-11-24T04:11:48Z</time>
      </trkpt>
      <trkpt lat="42.8077" lon="1.05156">
        <ele>1411</ele>
        <time>2018-11-24T04:11:48Z</time>
      </trkpt>
      <trkpt lat="42.80772" lon="1.05159">
        <ele>1410.9</ele>
        <time>2018-11-24T04:11:49Z</time>
      </trkpt>
      <trkpt lat="42.80773" lon="1.05161">
        <ele>1410.4</ele>
        <time>2018-11-24T04:11:50Z</time>
      </trkpt>
      <trkpt lat="42.80772" lon="1.05159">
        <ele>1409.9</ele>
        <time>2018-11-24T04:11:51Z</time>
      </trkpt>
      <trkpt lat="42.80772" lon="1.05159">
        <ele>1409.4</ele>
        <time>2018-11-24T04:11:51Z</time>
      </trkpt>
      <trkpt lat="42.80772" lon="1.05159">
        <ele>1409.1</ele>
        <time>2018-11-24T04:11:51Z</time>
      </trkpt>
      <trkpt lat="42.80775" lon="1.0515">
        <ele>1407.5</ele>
        <time>2018-11-24T04:11:54Z</time>
      </trkpt>
      <trkpt lat="42.80777" lon="1.05146">
        <ele>1406.7</ele>
        <time>2018-11-24T04:11:56Z</time>
      </trkpt>
      <trkpt lat="42.80783" lon="1.05135">
        <ele>1403.7</ele>
        <time>2018-11-24T04:12:00Z</time>
      </trkpt>
      <trkpt lat="42.80789" lon="1.05128">
        <ele>1400.8</ele>
        <time>2018-11-24T04:12:03Z</time>
      </trkpt>
      <trkpt lat="42.80792" lon="1.05122">
        <ele>1398.9</ele>
        <time>2018-11-24T04:12:05Z</time>
      </trkpt>
      <trkpt lat="42.80788" lon="1.05118">
        <ele>1396.5</ele>
        <time>2018-11-24T04:12:07Z</time>
      </trkpt>
      <trkpt lat="42.80787" lon="1.05117">
        <ele>1396.5</ele>
        <time>2018-11-24T04:12:07Z</time>
      </trkpt>
      <trkpt lat="42.80777" lon="1.05106">
        <ele>1392.6</ele>
        <time>2018-11-24T04:12:12Z</time>
      </trkpt>
      <trkpt lat="42.8077" lon="1.05099">
        <ele>1391.2</ele>
        <time>2018-11-24T04:12:16Z</time>
      </trkpt>
      <trkpt lat="42.80768" lon="1.05097">
        <ele>1390.7</ele>
        <time>2018-11-24T04:12:17Z</time>
      </trkpt>
      <trkpt lat="42.80765" lon="1.05092">
        <ele>1389.8</ele>
        <time>2018-11-24T04:12:19Z</time>
      </trkpt>
      <trkpt lat="42.80759" lon="1.05081">
        <ele>1386.8</ele>
        <time>2018-11-24T04:12:23Z</time>
      </trkpt>
      <trkpt lat="42.8076" lon="1.0508">
        <ele>1386.4</ele>
        <time>2018-11-24T04:12:23Z</time>
      </trkpt>
      <trkpt lat="42.80771" lon="1.05081">
        <ele>1383</ele>
        <time>2018-11-24T04:12:28Z</time>
      </trkpt>
      <trkpt lat="42.80782" lon="1.05077">
        <ele>1379.6</ele>
        <time>2018-11-24T04:12:32Z</time>
      </trkpt>
      <trkpt lat="42.8079" lon="1.05073">
        <ele>1376.8</ele>
        <time>2018-11-24T04:12:36Z</time>
      </trkpt>
      <trkpt lat="42.80797" lon="1.05068">
        <ele>1374.4</ele>
        <time>2018-11-24T04:12:39Z</time>
      </trkpt>
      <trkpt lat="42.80799" lon="1.05065">
        <ele>1372.5</ele>
        <time>2018-11-24T04:12:40Z</time>
      </trkpt>
      <trkpt lat="42.80804" lon="1.0506">
        <ele>1369.1</ele>
        <time>2018-11-24T04:12:43Z</time>
      </trkpt>
      <trkpt lat="42.80815" lon="1.05059">
        <ele>1366.2</ele>
        <time>2018-11-24T04:12:47Z</time>
      </trkpt>
      <trkpt lat="42.80825" lon="1.05056">
        <ele>1363.4</ele>
        <time>2018-11-24T04:12:51Z</time>
      </trkpt>
      <trkpt lat="42.8082" lon="1.05049">
        <ele>1360.9</ele>
        <time>2018-11-24T04:12:54Z</time>
      </trkpt>
      <trkpt lat="42.80806" lon="1.05042">
        <ele>1359</ele>
        <time>2018-11-24T04:13:00Z</time>
      </trkpt>
      <trkpt lat="42.80802" lon="1.05038">
        <ele>1358</ele>
        <time>2018-11-24T04:13:01Z</time>
      </trkpt>
      <trkpt lat="42.80799" lon="1.05036">
        <ele>1357.6</ele>
        <time>2018-11-24T04:13:03Z</time>
      </trkpt>
      <trkpt lat="42.80798" lon="1.05033">
        <ele>1357.1</ele>
        <time>2018-11-24T04:13:04Z</time>
      </trkpt>
      <trkpt lat="42.8079" lon="1.05023">
        <ele>1355.1</ele>
        <time>2018-11-24T04:13:08Z</time>
      </trkpt>
      <trkpt lat="42.80786" lon="1.0501">
        <ele>1354.2</ele>
        <time>2018-11-24T04:13:12Z</time>
      </trkpt>
      <trkpt lat="42.80782" lon="1.04996">
        <ele>1352.3</ele>
        <time>2018-11-24T04:13:17Z</time>
      </trkpt>
      <trkpt lat="42.80778" lon="1.04992">
        <ele>1351.4</ele>
        <time>2018-11-24T04:13:19Z</time>
      </trkpt>
      <trkpt lat="42.80775" lon="1.04987">
        <ele>1349.4</ele>
        <time>2018-11-24T04:13:20Z</time>
      </trkpt>
      <trkpt lat="42.80765" lon="1.04977">
        <ele>1349</ele>
        <time>2018-11-24T04:13:25Z</time>
      </trkpt>
      <trkpt lat="42.8076" lon="1.04971">
        <ele>1350.9</ele>
        <time>2018-11-24T04:13:28Z</time>
      </trkpt>
      <trkpt lat="42.8076" lon="1.0497">
        <ele>1350.9</ele>
        <time>2018-11-24T04:13:29Z</time>
      </trkpt>
      <trkpt lat="42.8076" lon="1.04972">
        <ele>1350.9</ele>
        <time>2018-11-24T04:13:29Z</time>
      </trkpt>
      <trkpt lat="42.80761" lon="1.04971">
        <ele>1350.3</ele>
        <time>2018-11-24T04:13:30Z</time>
      </trkpt>
      <trkpt lat="42.80764" lon="1.04962">
        <ele>1350.4</ele>
        <time>2018-11-24T04:13:33Z</time>
      </trkpt>
      <trkpt lat="42.80765" lon="1.04958">
        <ele>1348.9</ele>
        <time>2018-11-24T04:13:34Z</time>
      </trkpt>
      <trkpt lat="42.80764" lon="1.04951">
        <ele>1350.3</ele>
        <time>2018-11-24T04:13:36Z</time>
      </trkpt>
      <trkpt lat="42.80762" lon="1.04947">
        <ele>1350.3</ele>
        <time>2018-11-24T04:13:37Z</time>
      </trkpt>
      <trkpt lat="42.80763" lon="1.04947">
        <ele>1348.9</ele>
        <time>2018-11-24T04:13:38Z</time>
      </trkpt>
      <trkpt lat="42.80766" lon="1.04946">
        <ele>1348.9</ele>
        <time>2018-11-24T04:13:39Z</time>
      </trkpt>
      <trkpt lat="42.80763" lon="1.04941">
        <ele>1348.9</ele>
        <time>2018-11-24T04:13:41Z</time>
      </trkpt>
      <trkpt lat="42.80765" lon="1.04943">
        <ele>1348.9</ele>
        <time>2018-11-24T04:13:42Z</time>
      </trkpt>
      <trkpt lat="42.80763" lon="1.04945">
        <ele>1348.9</ele>
        <time>2018-11-24T04:13:43Z</time>
      </trkpt>
      <trkpt lat="42.80763" lon="1.04944">
        <ele>1349.5</ele>
        <time>2018-11-24T04:13:43Z</time>
      </trkpt>
      <trkpt lat="42.80762" lon="1.04943">
        <ele>1349.5</ele>
        <time>2018-11-24T04:13:44Z</time>
      </trkpt>
      <trkpt lat="42.80761" lon="1.04941">
        <ele>1349.8</ele>
        <time>2018-11-24T04:13:44Z</time>
      </trkpt>
      <trkpt lat="42.80763" lon="1.04942">
        <ele>1349.8</ele>
        <time>2018-11-24T04:13:45Z</time>
      </trkpt>
      <trkpt lat="42.80763" lon="1.04938">
        <ele>1350.3</ele>
        <time>2018-11-24T04:13:46Z</time>
      </trkpt>
      <trkpt lat="42.8076" lon="1.04945">
        <ele>1350.3</ele>
        <time>2018-11-24T04:13:49Z</time>
      </trkpt>
      <trkpt lat="42.8076" lon="1.0494">
        <ele>1350.8</ele>
        <time>2018-11-24T04:13:51Z</time>
      </trkpt>
      <trkpt lat="42.8076" lon="1.04946">
        <ele>1351.3</ele>
        <time>2018-11-24T04:13:52Z</time>
      </trkpt>
      <trkpt lat="42.80762" lon="1.04947">
        <ele>1351.9</ele>
        <time>2018-11-24T04:13:53Z</time>
      </trkpt>
      <trkpt lat="42.80762" lon="1.04946">
        <ele>1354.2</ele>
        <time>2018-11-24T04:13:54Z</time>
      </trkpt>
      <trkpt lat="42.80765" lon="1.04951">
        <ele>1352.3</ele>
        <time>2018-11-24T04:13:56Z</time>
      </trkpt>
      <trkpt lat="42.80769" lon="1.04952">
        <ele>1351.4</ele>
        <time>2018-11-24T04:13:57Z</time>
      </trkpt>
      <trkpt lat="42.80774" lon="1.04951">
        <ele>1350.4</ele>
        <time>2018-11-24T04:13:59Z</time>
      </trkpt>
      <trkpt lat="42.80782" lon="1.04942">
        <ele>1350.9</ele>
        <time>2018-11-24T04:14:03Z</time>
      </trkpt>
      <trkpt lat="42.80782" lon="1.04938">
        <ele>1350.8</ele>
        <time>2018-11-24T04:14:05Z</time>
      </trkpt>
      <trkpt lat="42.80785" lon="1.04939">
        <ele>1351.9</ele>
        <time>2018-11-24T04:14:06Z</time>
      </trkpt>
      <trkpt lat="42.80797" lon="1.0493">
        <ele>1352.8</ele>
        <time>2018-11-24T04:14:11Z</time>
      </trkpt>
      <trkpt lat="42.80807" lon="1.04925">
        <ele>1351.3</ele>
        <time>2018-11-24T04:14:16Z</time>
      </trkpt>
      <trkpt lat="42.80811" lon="1.04923">
        <ele>1349.8</ele>
        <time>2018-11-24T04:14:17Z</time>
      </trkpt>
      <trkpt lat="42.80815" lon="1.04921">
        <ele>1349.5</ele>
        <time>2018-11-24T04:14:19Z</time>
      </trkpt>
      <trkpt lat="42.80817" lon="1.04902">
        <ele>1348.4</ele>
        <time>2018-11-24T04:14:25Z</time>
      </trkpt>
      <trkpt lat="42.80822" lon="1.04902">
        <ele>1347.4</ele>
        <time>2018-11-24T04:14:27Z</time>
      </trkpt>
      <trkpt lat="42.80829" lon="1.04899">
        <ele>1344.1</ele>
        <time>2018-11-24T04:14:30Z</time>
      </trkpt>
      <trkpt lat="42.8083" lon="1.04899">
        <ele>1344.2</ele>
        <time>2018-11-24T04:14:30Z</time>
      </trkpt>
      <trkpt lat="42.80835" lon="1.04899">
        <ele>1342.2</ele>
        <time>2018-11-24T04:14:32Z</time>
      </trkpt>
      <trkpt lat="42.80845" lon="1.04893">
        <ele>1339.4</ele>
        <time>2018-11-24T04:14:37Z</time>
      </trkpt>
      <trkpt lat="42.80846" lon="1.04897">
        <ele>1338.4</ele>
        <time>2018-11-24T04:14:38Z</time>
      </trkpt>
      <trkpt lat="42.80851" lon="1.04897">
        <ele>1335.4</ele>
        <time>2018-11-24T04:14:40Z</time>
      </trkpt>
      <trkpt lat="42.80861" lon="1.04895">
        <ele>1331.6</ele>
        <time>2018-11-24T04:14:44Z</time>
      </trkpt>
      <trkpt lat="42.80862" lon="1.04894">
        <ele>1329.6</ele>
        <time>2018-11-24T04:14:44Z</time>
      </trkpt>
      <trkpt lat="42.80869" lon="1.04891">
        <ele>1326.8</ele>
        <time>2018-11-24T04:14:47Z</time>
      </trkpt>
      <trkpt lat="42.80876" lon="1.04885">
        <ele>1323.9</ele>
        <time>2018-11-24T04:14:50Z</time>
      </trkpt>
      <trkpt lat="42.80883" lon="1.04885">
        <ele>1321.6</ele>
        <time>2018-11-24T04:14:53Z</time>
      </trkpt>
      <trkpt lat="42.80885" lon="1.04884">
        <ele>1321</ele>
        <time>2018-11-24T04:14:54Z</time>
      </trkpt>
      <trkpt lat="42.80887" lon="1.04882">
        <ele>1321.1</ele>
        <time>2018-11-24T04:14:55Z</time>
      </trkpt>
      <trkpt lat="42.80901" lon="1.0487">
        <ele>1317.7</ele>
        <time>2018-11-24T04:15:02Z</time>
      </trkpt>
      <trkpt lat="42.80914" lon="1.04865">
        <ele>1315.2</ele>
        <time>2018-11-24T04:15:07Z</time>
      </trkpt>
      <trkpt lat="42.80922" lon="1.04857">
        <ele>1312</ele>
        <time>2018-11-24T04:15:11Z</time>
      </trkpt>
      <trkpt lat="42.80929" lon="1.04849">
        <ele>1311</ele>
        <time>2018-11-24T04:15:15Z</time>
      </trkpt>
      <trkpt lat="42.80944" lon="1.0484">
        <ele>1308.1</ele>
        <time>2018-11-24T04:15:21Z</time>
      </trkpt>
      <trkpt lat="42.80957" lon="1.04833">
        <ele>1305.7</ele>
        <time>2018-11-24T04:15:27Z</time>
      </trkpt>
      <trkpt lat="42.80968" lon="1.04836">
        <ele>1302.2</ele>
        <time>2018-11-24T04:15:31Z</time>
      </trkpt>
      <trkpt lat="42.80976" lon="1.04834">
        <ele>1301.3</ele>
        <time>2018-11-24T04:15:35Z</time>
      </trkpt>
      <trkpt lat="42.80981" lon="1.04821">
        <ele>1298</ele>
        <time>2018-11-24T04:15:39Z</time>
      </trkpt>
      <trkpt lat="42.80985" lon="1.04816">
        <ele>1297</ele>
        <time>2018-11-24T04:15:41Z</time>
      </trkpt>
      <trkpt lat="42.80994" lon="1.04804">
        <ele>1295.1</ele>
        <time>2018-11-24T04:15:46Z</time>
      </trkpt>
      <trkpt lat="42.81" lon="1.04796">
        <ele>1293.7</ele>
        <time>2018-11-24T04:15:50Z</time>
      </trkpt>
      <trkpt lat="42.81006" lon="1.0479">
        <ele>1291.8</ele>
        <time>2018-11-24T04:15:53Z</time>
      </trkpt>
      <trkpt lat="42.81007" lon="1.0478">
        <ele>1291.3</ele>
        <time>2018-11-24T04:15:56Z</time>
      </trkpt>
      <trkpt lat="42.8101" lon="1.04775">
        <ele>1289.9</ele>
        <time>2018-11-24T04:15:58Z</time>
      </trkpt>
      <trkpt lat="42.81012" lon="1.0477">
        <ele>1289.3</ele>
        <time>2018-11-24T04:15:59Z</time>
      </trkpt>
      <trkpt lat="42.81025" lon="1.04758">
        <ele>1288.4</ele>
        <time>2018-11-24T04:16:06Z</time>
      </trkpt>
      <trkpt lat="42.81033" lon="1.04751">
        <ele>1287.3</ele>
        <time>2018-11-24T04:16:09Z</time>
      </trkpt>
      <trkpt lat="42.81038" lon="1.04748">
        <ele>1286.9</ele>
        <time>2018-11-24T04:16:12Z</time>
      </trkpt>
      <trkpt lat="42.81049" lon="1.04747">
        <ele>1284</ele>
        <time>2018-11-24T04:16:16Z</time>
      </trkpt>
      <trkpt lat="42.81062" lon="1.04746">
        <ele>1282.1</ele>
        <time>2018-11-24T04:16:21Z</time>
      </trkpt>
      <trkpt lat="42.81075" lon="1.04739">
        <ele>1278.7</ele>
        <time>2018-11-24T04:16:27Z</time>
      </trkpt>
      <trkpt lat="42.81086" lon="1.04743">
        <ele>1275.4</ele>
        <time>2018-11-24T04:16:31Z</time>
      </trkpt>
      <trkpt lat="42.81084" lon="1.04741">
        <ele>1273.9</ele>
        <time>2018-11-24T04:16:32Z</time>
      </trkpt>
      <trkpt lat="42.81081" lon="1.04744">
        <ele>1273.5</ele>
        <time>2018-11-24T04:16:34Z</time>
      </trkpt>
      <trkpt lat="42.81089" lon="1.04731">
        <ele>1271.5</ele>
        <time>2018-11-24T04:16:39Z</time>
      </trkpt>
      <trkpt lat="42.811" lon="1.04727">
        <ele>1267.7</ele>
        <time>2018-11-24T04:16:43Z</time>
      </trkpt>
      <trkpt lat="42.81101" lon="1.04725">
        <ele>1267.6</ele>
        <time>2018-11-24T04:16:44Z</time>
      </trkpt>
      <trkpt lat="42.8111" lon="1.04714">
        <ele>1263.8</ele>
        <time>2018-11-24T04:16:49Z</time>
      </trkpt>
      <trkpt lat="42.81111" lon="1.04714">
        <ele>1263.8</ele>
        <time>2018-11-24T04:16:49Z</time>
      </trkpt>
      <trkpt lat="42.81118" lon="1.04702">
        <ele>1259.9</ele>
        <time>2018-11-24T04:16:54Z</time>
      </trkpt>
      <trkpt lat="42.81124" lon="1.04696">
        <ele>1257.1</ele>
        <time>2018-11-24T04:16:57Z</time>
      </trkpt>
      <trkpt lat="42.81132" lon="1.04691">
        <ele>1253.7</ele>
        <time>2018-11-24T04:17:00Z</time>
      </trkpt>
      <trkpt lat="42.81139" lon="1.04683">
        <ele>1251.8</ele>
        <time>2018-11-24T04:17:04Z</time>
      </trkpt>
      <trkpt lat="42.81137" lon="1.04676">
        <ele>1250.3</ele>
        <time>2018-11-24T04:17:06Z</time>
      </trkpt>
      <trkpt lat="42.81144" lon="1.04677">
        <ele>1250.4</ele>
        <time>2018-11-24T04:17:08Z</time>
      </trkpt>
      <trkpt lat="42.81146" lon="1.04668">
        <ele>1249.9</ele>
        <time>2018-11-24T04:17:11Z</time>
      </trkpt>
      <trkpt lat="42.81152" lon="1.04676">
        <ele>1246</ele>
        <time>2018-11-24T04:17:14Z</time>
      </trkpt>
      <trkpt lat="42.8116" lon="1.04676">
        <ele>1242.6</ele>
        <time>2018-11-24T04:17:18Z</time>
      </trkpt>
      <trkpt lat="42.81162" lon="1.04675">
        <ele>1242.2</ele>
        <time>2018-11-24T04:17:19Z</time>
      </trkpt>
      <trkpt lat="42.81171" lon="1.04678">
        <ele>1239.4</ele>
        <time>2018-11-24T04:17:23Z</time>
      </trkpt>
      <trkpt lat="42.81173" lon="1.04666">
        <ele>1235.4</ele>
        <time>2018-11-24T04:17:26Z</time>
      </trkpt>
      <trkpt lat="42.81177" lon="1.04657">
        <ele>1232.6</ele>
        <time>2018-11-24T04:17:29Z</time>
      </trkpt>
      <trkpt lat="42.81177" lon="1.04647">
        <ele>1231.1</ele>
        <time>2018-11-24T04:17:32Z</time>
      </trkpt>
      <trkpt lat="42.81172" lon="1.04641">
        <ele>1230.2</ele>
        <time>2018-11-24T04:17:35Z</time>
      </trkpt>
      <trkpt lat="42.81181" lon="1.04642">
        <ele>1229.3</ele>
        <time>2018-11-24T04:17:39Z</time>
      </trkpt>
      <trkpt lat="42.81181" lon="1.04637">
        <ele>1228.8</ele>
        <time>2018-11-24T04:17:40Z</time>
      </trkpt>
      <trkpt lat="42.81182" lon="1.04624">
        <ele>1226.9</ele>
        <time>2018-11-24T04:17:44Z</time>
      </trkpt>
      <trkpt lat="42.81181" lon="1.04608">
        <ele>1225.3</ele>
        <time>2018-11-24T04:17:49Z</time>
      </trkpt>
      <trkpt lat="42.81197" lon="1.04601">
        <ele>1223</ele>
        <time>2018-11-24T04:17:55Z</time>
      </trkpt>
      <trkpt lat="42.81204" lon="1.04596">
        <ele>1222.6</ele>
        <time>2018-11-24T04:17:58Z</time>
      </trkpt>
      <trkpt lat="42.81217" lon="1.04589">
        <ele>1220.6</ele>
        <time>2018-11-24T04:18:04Z</time>
      </trkpt>
      <trkpt lat="42.81226" lon="1.04584">
        <ele>1216.7</ele>
        <time>2018-11-24T04:18:08Z</time>
      </trkpt>
      <trkpt lat="42.81229" lon="1.04583">
        <ele>1216.3</ele>
        <time>2018-11-24T04:18:09Z</time>
      </trkpt>
      <trkpt lat="42.81233" lon="1.04571">
        <ele>1213.8</ele>
        <time>2018-11-24T04:18:13Z</time>
      </trkpt>
      <trkpt lat="42.81239" lon="1.04566">
        <ele>1212.4</ele>
        <time>2018-11-24T04:18:16Z</time>
      </trkpt>
      <trkpt lat="42.81243" lon="1.04554">
        <ele>1211.5</ele>
        <time>2018-11-24T04:18:20Z</time>
      </trkpt>
      <trkpt lat="42.8124" lon="1.04545">
        <ele>1211</ele>
        <time>2018-11-24T04:18:22Z</time>
      </trkpt>
      <trkpt lat="42.81243" lon="1.04538">
        <ele>1209.5</ele>
        <time>2018-11-24T04:18:25Z</time>
      </trkpt>
      <trkpt lat="42.8125" lon="1.04535">
        <ele>1207.6</ele>
        <time>2018-11-24T04:18:28Z</time>
      </trkpt>
      <trkpt lat="42.81252" lon="1.04534">
        <ele>1206.6</ele>
        <time>2018-11-24T04:18:29Z</time>
      </trkpt>
      <trkpt lat="42.81255" lon="1.04524">
        <ele>1205.7</ele>
        <time>2018-11-24T04:18:32Z</time>
      </trkpt>
      <trkpt lat="42.81255" lon="1.04527">
        <ele>1205.7</ele>
        <time>2018-11-24T04:18:32Z</time>
      </trkpt>
      <trkpt lat="42.81262" lon="1.0453">
        <ele>1204.7</ele>
        <time>2018-11-24T04:18:35Z</time>
      </trkpt>
      <trkpt lat="42.81265" lon="1.04525">
        <ele>1202.9</ele>
        <time>2018-11-24T04:18:37Z</time>
      </trkpt>
      <trkpt lat="42.81273" lon="1.04507">
        <ele>1199.9</ele>
        <time>2018-11-24T04:18:43Z</time>
      </trkpt>
      <trkpt lat="42.81272" lon="1.04494">
        <ele>1198.9</ele>
        <time>2018-11-24T04:18:47Z</time>
      </trkpt>
      <trkpt lat="42.81284" lon="1.04481">
        <ele>1197.9</ele>
        <time>2018-11-24T04:18:53Z</time>
      </trkpt>
      <trkpt lat="42.81278" lon="1.04472">
        <ele>1196.1</ele>
        <time>2018-11-24T04:18:57Z</time>
      </trkpt>
      <trkpt lat="42.8126" lon="1.04455">
        <ele>1196</ele>
        <time>2018-11-24T04:19:06Z</time>
      </trkpt>
      <trkpt lat="42.81277" lon="1.04462">
        <ele>1196.1</ele>
        <time>2018-11-24T04:19:13Z</time>
      </trkpt>
      <trkpt lat="42.81307" lon="1.04461">
        <ele>1195.5</ele>
        <time>2018-11-24T04:19:24Z</time>
      </trkpt>
      <trkpt lat="42.81318" lon="1.04461">
        <ele>1195.5</ele>
        <time>2018-11-24T04:19:29Z</time>
      </trkpt>
      <trkpt lat="42.81327" lon="1.04447">
        <ele>1194.1</ele>
        <time>2018-11-24T04:19:34Z</time>
      </trkpt>
      <trkpt lat="42.81327" lon="1.04446">
        <ele>1194.2</ele>
        <time>2018-11-24T04:19:35Z</time>
      </trkpt>
      <trkpt lat="42.81338" lon="1.04432">
        <ele>1194.2</ele>
        <time>2018-11-24T04:19:41Z</time>
      </trkpt>
      <trkpt lat="42.81346" lon="1.04424">
        <ele>1193.7</ele>
        <time>2018-11-24T04:19:45Z</time>
      </trkpt>
      <trkpt lat="42.81356" lon="1.04424">
        <ele>1190.7</ele>
        <time>2018-11-24T04:19:49Z</time>
      </trkpt>
      <trkpt lat="42.81365" lon="1.04418">
        <ele>1187.8</ele>
        <time>2018-11-24T04:19:53Z</time>
      </trkpt>
      <trkpt lat="42.81376" lon="1.04407">
        <ele>1185.9</ele>
        <time>2018-11-24T04:19:58Z</time>
      </trkpt>
      <trkpt lat="42.81388" lon="1.04401">
        <ele>1183.6</ele>
        <time>2018-11-24T04:20:03Z</time>
      </trkpt>
      <trkpt lat="42.81399" lon="1.04389">
        <ele>1181.1</ele>
        <time>2018-11-24T04:20:09Z</time>
      </trkpt>
      <trkpt lat="42.81402" lon="1.04387">
        <ele>1180.7</ele>
        <time>2018-11-24T04:20:10Z</time>
      </trkpt>
      <trkpt lat="42.81407" lon="1.04384">
        <ele>1179.3</ele>
        <time>2018-11-24T04:20:12Z</time>
      </trkpt>
      <trkpt lat="42.81416" lon="1.04365">
        <ele>1176.4</ele>
        <time>2018-11-24T04:20:19Z</time>
      </trkpt>
      <trkpt lat="42.81431" lon="1.04361">
        <ele>1174</ele>
        <time>2018-11-24T04:20:25Z</time>
      </trkpt>
      <trkpt lat="42.81437" lon="1.04365">
        <ele>1171.5</ele>
        <time>2018-11-24T04:20:28Z</time>
      </trkpt>
      <trkpt lat="42.81436" lon="1.04376">
        <ele>1169.1</ele>
        <time>2018-11-24T04:20:31Z</time>
      </trkpt>
      <trkpt lat="42.81443" lon="1.04384">
        <ele>1169.2</ele>
        <time>2018-11-24T04:20:35Z</time>
      </trkpt>
      <trkpt lat="42.81452" lon="1.04386">
        <ele>1169.2</ele>
        <time>2018-11-24T04:20:38Z</time>
      </trkpt>
      <trkpt lat="42.81456" lon="1.04398">
        <ele>1169.1</ele>
        <time>2018-11-24T04:20:42Z</time>
      </trkpt>
      <trkpt lat="42.81459" lon="1.04394">
        <ele>1169.1</ele>
        <time>2018-11-24T04:20:44Z</time>
      </trkpt>
      <trkpt lat="42.81466" lon="1.04392">
        <ele>1168.2</ele>
        <time>2018-11-24T04:20:46Z</time>
      </trkpt>
      <trkpt lat="42.81482" lon="1.04392">
        <ele>1165.8</ele>
        <time>2018-11-24T04:20:53Z</time>
      </trkpt>
      <trkpt lat="42.81489" lon="1.0439">
        <ele>1163.8</ele>
        <time>2018-11-24T04:20:56Z</time>
      </trkpt>
      <trkpt lat="42.81491" lon="1.04387">
        <ele>1163.3</ele>
        <time>2018-11-24T04:20:57Z</time>
      </trkpt>
      <trkpt lat="42.81496" lon="1.04384">
        <ele>1162.5</ele>
        <time>2018-11-24T04:20:59Z</time>
      </trkpt>
      <trkpt lat="42.81504" lon="1.04373">
        <ele>1161.4</ele>
        <time>2018-11-24T04:21:04Z</time>
      </trkpt>
      <trkpt lat="42.81507" lon="1.04373">
        <ele>1161</ele>
        <time>2018-11-24T04:21:05Z</time>
      </trkpt>
      <trkpt lat="42.81519" lon="1.04365">
        <ele>1158.6</ele>
        <time>2018-11-24T04:21:10Z</time>
      </trkpt>
      <trkpt lat="42.81525" lon="1.04364">
        <ele>1157.6</ele>
        <time>2018-11-24T04:21:13Z</time>
      </trkpt>
      <trkpt lat="42.81538" lon="1.04359">
        <ele>1155.3</ele>
        <time>2018-11-24T04:21:18Z</time>
      </trkpt>
      <trkpt lat="42.81541" lon="1.04354">
        <ele>1153.7</ele>
        <time>2018-11-24T04:21:20Z</time>
      </trkpt>
      <trkpt lat="42.81549" lon="1.04353">
        <ele>1153.2</ele>
        <time>2018-11-24T04:21:23Z</time>
      </trkpt>
      <trkpt lat="42.81557" lon="1.04358">
        <ele>1151.9</ele>
        <time>2018-11-24T04:21:26Z</time>
      </trkpt>
      <trkpt lat="42.81556" lon="1.04357">
        <ele>1153.7</ele>
        <time>2018-11-24T04:21:27Z</time>
      </trkpt>
      <trkpt lat="42.81556" lon="1.04357">
        <ele>1152.4</ele>
        <time>2018-11-24T04:21:27Z</time>
      </trkpt>
      <trkpt lat="42.81559" lon="1.04356">
        <ele>1153.3</ele>
        <time>2018-11-24T04:21:28Z</time>
      </trkpt>
      <trkpt lat="42.81563" lon="1.04358">
        <ele>1151.9</ele>
        <time>2018-11-24T04:21:30Z</time>
      </trkpt>
      <trkpt lat="42.8157" lon="1.0436">
        <ele>1151.9</ele>
        <time>2018-11-24T04:21:33Z</time>
      </trkpt>
      <trkpt lat="42.81573" lon="1.0436">
        <ele>1151.4</ele>
        <time>2018-11-24T04:21:34Z</time>
      </trkpt>
      <trkpt lat="42.81578" lon="1.04355">
        <ele>1150.3</ele>
        <time>2018-11-24T04:21:36Z</time>
      </trkpt>
      <trkpt lat="42.81579" lon="1.04353">
        <ele>1150.4</ele>
        <time>2018-11-24T04:21:37Z</time>
      </trkpt>
      <trkpt lat="42.81585" lon="1.04342">
        <ele>1149.4</ele>
        <time>2018-11-24T04:21:41Z</time>
      </trkpt>
      <trkpt lat="42.81591" lon="1.04327">
        <ele>1147.5</ele>
        <time>2018-11-24T04:21:46Z</time>
      </trkpt>
      <trkpt lat="42.81602" lon="1.04312">
        <ele>1146.5</ele>
        <time>2018-11-24T04:21:53Z</time>
      </trkpt>
      <trkpt lat="42.81616" lon="1.04298">
        <ele>1146</ele>
        <time>2018-11-24T04:21:59Z</time>
      </trkpt>
      <trkpt lat="42.81625" lon="1.0429">
        <ele>1148.4</ele>
        <time>2018-11-24T04:22:04Z</time>
      </trkpt>
      <trkpt lat="42.81637" lon="1.04276">
        <ele>1145.7</ele>
        <time>2018-11-24T04:22:10Z</time>
      </trkpt>
      <trkpt lat="42.81646" lon="1.04271">
        <ele>1144.6</ele>
        <time>2018-11-24T04:22:14Z</time>
      </trkpt>
      <trkpt lat="42.81648" lon="1.04268">
        <ele>1144.7</ele>
        <time>2018-11-24T04:22:15Z</time>
      </trkpt>
      <trkpt lat="42.81654" lon="1.04261">
        <ele>1143.7</ele>
        <time>2018-11-24T04:22:18Z</time>
      </trkpt>
      <trkpt lat="42.81656" lon="1.04259">
        <ele>1142.8</ele>
        <time>2018-11-24T04:22:19Z</time>
      </trkpt>
      <trkpt lat="42.81658" lon="1.04239">
        <ele>1140.7</ele>
        <time>2018-11-24T04:22:25Z</time>
      </trkpt>
      <trkpt lat="42.81677" lon="1.04232">
        <ele>1138.4</ele>
        <time>2018-11-24T04:22:34Z</time>
      </trkpt>
      <trkpt lat="42.81687" lon="1.04224">
        <ele>1136.9</ele>
        <time>2018-11-24T04:22:38Z</time>
      </trkpt>
      <trkpt lat="42.81693" lon="1.04218">
        <ele>1135</ele>
        <time>2018-11-24T04:22:41Z</time>
      </trkpt>
      <trkpt lat="42.8171" lon="1.0421">
        <ele>1133.5</ele>
        <time>2018-11-24T04:22:48Z</time>
      </trkpt>
      <trkpt lat="42.81728" lon="1.04206">
        <ele>1130.2</ele>
        <time>2018-11-24T04:22:56Z</time>
      </trkpt>
      <trkpt lat="42.81729" lon="1.04204">
        <ele>1129.7</ele>
        <time>2018-11-24T04:22:56Z</time>
      </trkpt>
      <trkpt lat="42.81731" lon="1.042">
        <ele>1128.8</ele>
        <time>2018-11-24T04:22:58Z</time>
      </trkpt>
      <trkpt lat="42.81745" lon="1.04205">
        <ele>1125</ele>
        <time>2018-11-24T04:23:04Z</time>
      </trkpt>
      <trkpt lat="42.81751" lon="1.04208">
        <ele>1123.5</ele>
        <time>2018-11-24T04:23:06Z</time>
      </trkpt>
      <trkpt lat="42.81754" lon="1.04192">
        <ele>1120.1</ele>
        <time>2018-11-24T04:23:11Z</time>
      </trkpt>
      <trkpt lat="42.81769" lon="1.04192">
        <ele>1116.8</ele>
        <time>2018-11-24T04:23:17Z</time>
      </trkpt>
      <trkpt lat="42.81773" lon="1.04191">
        <ele>1116.2</ele>
        <time>2018-11-24T04:23:18Z</time>
      </trkpt>
      <trkpt lat="42.81778" lon="1.04194">
        <ele>1115.4</ele>
        <time>2018-11-24T04:23:20Z</time>
      </trkpt>
      <trkpt lat="42.81783" lon="1.042">
        <ele>1111.9</ele>
        <time>2018-11-24T04:23:23Z</time>
      </trkpt>
      <trkpt lat="42.8178" lon="1.04192">
        <ele>1110</ele>
        <time>2018-11-24T04:23:26Z</time>
      </trkpt>
      <trkpt lat="42.81774" lon="1.04175">
        <ele>1107.1</ele>
        <time>2018-11-24T04:23:31Z</time>
      </trkpt>
      <trkpt lat="42.81764" lon="1.04155">
        <ele>1104.2</ele>
        <time>2018-11-24T04:23:38Z</time>
      </trkpt>
      <trkpt lat="42.81774" lon="1.04158">
        <ele>1100.8</ele>
        <time>2018-11-24T04:23:42Z</time>
      </trkpt>
      <trkpt lat="42.81785" lon="1.0416">
        <ele>1098</ele>
        <time>2018-11-24T04:23:47Z</time>
      </trkpt>
      <trkpt lat="42.81788" lon="1.04159">
        <ele>1098.4</ele>
        <time>2018-11-24T04:23:48Z</time>
      </trkpt>
      <trkpt lat="42.81791" lon="1.04157">
        <ele>1097.1</ele>
        <time>2018-11-24T04:23:50Z</time>
      </trkpt>
      <trkpt lat="42.81806" lon="1.04154">
        <ele>1093.7</ele>
        <time>2018-11-24T04:23:55Z</time>
      </trkpt>
      <trkpt lat="42.81815" lon="1.04157">
        <ele>1090.3</ele>
        <time>2018-11-24T04:23:59Z</time>
      </trkpt>
      <trkpt lat="42.81817" lon="1.04154">
        <ele>1087.5</ele>
        <time>2018-11-24T04:24:00Z</time>
      </trkpt>
      <trkpt lat="42.81811" lon="1.04139">
        <ele>1084</ele>
        <time>2018-11-24T04:24:06Z</time>
      </trkpt>
      <trkpt lat="42.81815" lon="1.04126">
        <ele>1080.8</ele>
        <time>2018-11-24T04:24:10Z</time>
      </trkpt>
      <trkpt lat="42.81833" lon="1.04132">
        <ele>1077.3</ele>
        <time>2018-11-24T04:24:18Z</time>
      </trkpt>
      <trkpt lat="42.81846" lon="1.04128">
        <ele>1074.9</ele>
        <time>2018-11-24T04:24:23Z</time>
      </trkpt>
      <trkpt lat="42.81857" lon="1.04131">
        <ele>1072</ele>
        <time>2018-11-24T04:24:27Z</time>
      </trkpt>
      <trkpt lat="42.81872" lon="1.04133">
        <ele>1069.1</ele>
        <time>2018-11-24T04:24:33Z</time>
      </trkpt>
      <trkpt lat="42.81887" lon="1.0412">
        <ele>1066.7</ele>
        <time>2018-11-24T04:24:40Z</time>
      </trkpt>
      <trkpt lat="42.81897" lon="1.04118">
        <ele>1064.3</ele>
        <time>2018-11-24T04:24:45Z</time>
      </trkpt>
      <trkpt lat="42.81907" lon="1.04113">
        <ele>1061.1</ele>
        <time>2018-11-24T04:24:49Z</time>
      </trkpt>
      <trkpt lat="42.81923" lon="1.04117">
        <ele>1060.6</ele>
        <time>2018-11-24T04:24:55Z</time>
      </trkpt>
      <trkpt lat="42.8192" lon="1.04115">
        <ele>1060.5</ele>
        <time>2018-11-24T04:24:56Z</time>
      </trkpt>
      <trkpt lat="42.81932" lon="1.04105">
        <ele>1061</ele>
        <time>2018-11-24T04:25:02Z</time>
      </trkpt>
      <trkpt lat="42.81947" lon="1.04093">
        <ele>1059.6</ele>
        <time>2018-11-24T04:25:09Z</time>
      </trkpt>
      <trkpt lat="42.8196" lon="1.04073">
        <ele>1058.6</ele>
        <time>2018-11-24T04:25:17Z</time>
      </trkpt>
      <trkpt lat="42.81972" lon="1.04056">
        <ele>1057.1</ele>
        <time>2018-11-24T04:25:24Z</time>
      </trkpt>
      <trkpt lat="42.81984" lon="1.04054">
        <ele>1055.2</ele>
        <time>2018-11-24T04:25:29Z</time>
      </trkpt>
      <trkpt lat="42.81995" lon="1.04044">
        <ele>1053.3</ele>
        <time>2018-11-24T04:25:34Z</time>
      </trkpt>
      <trkpt lat="42.8202" lon="1.04038">
        <ele>1051</ele>
        <time>2018-11-24T04:25:44Z</time>
      </trkpt>
      <trkpt lat="42.82029" lon="1.04029">
        <ele>1048.5</ele>
        <time>2018-11-24T04:25:48Z</time>
      </trkpt>
      <trkpt lat="42.82048" lon="1.04032">
        <ele>1047.6</ele>
        <time>2018-11-24T04:25:56Z</time>
      </trkpt>
      <trkpt lat="42.82063" lon="1.04026">
        <ele>1048.9</ele>
        <time>2018-11-24T04:26:02Z</time>
      </trkpt>
      <trkpt lat="42.82066" lon="1.04026">
        <ele>1047.6</ele>
        <time>2018-11-24T04:26:04Z</time>
      </trkpt>
      <trkpt lat="42.82084" lon="1.04032">
        <ele>1044.7</ele>
        <time>2018-11-24T04:26:11Z</time>
      </trkpt>
      <trkpt lat="42.82095" lon="1.04019">
        <ele>1043.8</ele>
        <time>2018-11-24T04:26:17Z</time>
      </trkpt>
      <trkpt lat="42.82105" lon="1.04015">
        <ele>1040.9</ele>
        <time>2018-11-24T04:26:21Z</time>
      </trkpt>
      <trkpt lat="42.82117" lon="1.04015">
        <ele>1037.9</ele>
        <time>2018-11-24T04:26:26Z</time>
      </trkpt>
      <trkpt lat="42.8214" lon="1.04019">
        <ele>1036</ele>
        <time>2018-11-24T04:26:35Z</time>
      </trkpt>
      <trkpt lat="42.82149" lon="1.04017">
        <ele>1032.1</ele>
        <time>2018-11-24T04:26:39Z</time>
      </trkpt>
      <trkpt lat="42.82159" lon="1.04015">
        <ele>1028.9</ele>
        <time>2018-11-24T04:26:43Z</time>
      </trkpt>
      <trkpt lat="42.82169" lon="1.04021">
        <ele>1025.9</ele>
        <time>2018-11-24T04:26:47Z</time>
      </trkpt>
      <trkpt lat="42.82167" lon="1.04002">
        <ele>1024</ele>
        <time>2018-11-24T04:26:53Z</time>
      </trkpt>
      <trkpt lat="42.82186" lon="1.0401">
        <ele>1022.1</ele>
        <time>2018-11-24T04:27:01Z</time>
      </trkpt>
      <trkpt lat="42.82188" lon="1.04005">
        <ele>1020.6</ele>
        <time>2018-11-24T04:27:03Z</time>
      </trkpt>
      <trkpt lat="42.82189" lon="1.04006">
        <ele>1020.7</ele>
        <time>2018-11-24T04:27:03Z</time>
      </trkpt>
      <trkpt lat="42.82191" lon="1.04006">
        <ele>1020.7</ele>
        <time>2018-11-24T04:27:04Z</time>
      </trkpt>
      <trkpt lat="42.82196" lon="1.04006">
        <ele>1020.7</ele>
        <time>2018-11-24T04:27:06Z</time>
      </trkpt>
      <trkpt lat="42.82204" lon="1.04006">
        <ele>1020.2</ele>
        <time>2018-11-24T04:27:09Z</time>
      </trkpt>
      <trkpt lat="42.82225" lon="1.04004">
        <ele>1017.8</ele>
        <time>2018-11-24T04:27:17Z</time>
      </trkpt>
      <trkpt lat="42.82241" lon="1.03991">
        <ele>1016.3</ele>
        <time>2018-11-24T04:27:25Z</time>
      </trkpt>
      <trkpt lat="42.82255" lon="1.03987">
        <ele>1014.3</ele>
        <time>2018-11-24T04:27:31Z</time>
      </trkpt>
      <trkpt lat="42.82269" lon="1.03982">
        <ele>1013.4</ele>
        <time>2018-11-24T04:27:36Z</time>
      </trkpt>
      <trkpt lat="42.82282" lon="1.03982">
        <ele>1013.4</ele>
        <time>2018-11-24T04:27:42Z</time>
      </trkpt>
      <trkpt lat="42.82304" lon="1.03991">
        <ele>1012.5</ele>
        <time>2018-11-24T04:27:51Z</time>
      </trkpt>
      <trkpt lat="42.82311" lon="1.03994">
        <ele>1012.5</ele>
        <time>2018-11-24T04:27:54Z</time>
      </trkpt>
      <trkpt lat="42.82328" lon="1.03993">
        <ele>1011.5</ele>
        <time>2018-11-24T04:28:01Z</time>
      </trkpt>
      <trkpt lat="42.82337" lon="1.03983">
        <ele>1010</ele>
        <time>2018-11-24T04:28:05Z</time>
      </trkpt>
      <trkpt lat="42.82345" lon="1.03981">
        <ele>1010.1</ele>
        <time>2018-11-24T04:28:08Z</time>
      </trkpt>
      <trkpt lat="42.82358" lon="1.03969">
        <ele>1008.7</ele>
        <time>2018-11-24T04:28:15Z</time>
      </trkpt>
      <trkpt lat="42.8237" lon="1.03972">
        <ele>1007.1</ele>
        <time>2018-11-24T04:28:20Z</time>
      </trkpt>
      <trkpt lat="42.82373" lon="1.03972">
        <ele>1006.7</ele>
        <time>2018-11-24T04:28:21Z</time>
      </trkpt>
      <trkpt lat="42.82382" lon="1.03964">
        <ele>1005.7</ele>
        <time>2018-11-24T04:28:25Z</time>
      </trkpt>
      <trkpt lat="42.82388" lon="1.03956">
        <ele>1005.7</ele>
        <time>2018-11-24T04:28:29Z</time>
      </trkpt>
      <trkpt lat="42.82395" lon="1.03946">
        <ele>1007.2</ele>
        <time>2018-11-24T04:28:33Z</time>
      </trkpt>
      <trkpt lat="42.82396" lon="1.03937">
        <ele>1005.7</ele>
        <time>2018-11-24T04:28:35Z</time>
      </trkpt>
      <trkpt lat="42.82399" lon="1.0392">
        <ele>1005.2</ele>
        <time>2018-11-24T04:28:40Z</time>
      </trkpt>
      <trkpt lat="42.82402" lon="1.03918">
        <ele>1004.8</ele>
        <time>2018-11-24T04:28:42Z</time>
      </trkpt>
      <trkpt lat="42.82411" lon="1.03916">
        <ele>1004.2</ele>
        <time>2018-11-24T04:28:45Z</time>
      </trkpt>
      <trkpt lat="42.82418" lon="1.03915">
        <ele>1003.8</ele>
        <time>2018-11-24T04:28:48Z</time>
      </trkpt>
      <trkpt lat="42.82426" lon="1.03917">
        <ele>1003.8</ele>
        <time>2018-11-24T04:28:51Z</time>
      </trkpt>
      <trkpt lat="42.82437" lon="1.03917">
        <ele>1003.9</ele>
        <time>2018-11-24T04:28:56Z</time>
      </trkpt>
      <trkpt lat="42.82448" lon="1.03917">
        <ele>1003.4</ele>
        <time>2018-11-24T04:29:00Z</time>
      </trkpt>
      <trkpt lat="42.82463" lon="1.03919">
        <ele>1002.8</ele>
        <time>2018-11-24T04:29:06Z</time>
      </trkpt>
      <trkpt lat="42.82471" lon="1.03918">
        <ele>1002.3</ele>
        <time>2018-11-24T04:29:09Z</time>
      </trkpt>
      <trkpt lat="42.8248" lon="1.03918">
        <ele>1001.8</ele>
        <time>2018-11-24T04:29:13Z</time>
      </trkpt>
      <trkpt lat="42.82495" lon="1.03915">
        <ele>1001.3</ele>
        <time>2018-11-24T04:29:19Z</time>
      </trkpt>
      <trkpt lat="42.82504" lon="1.03919">
        <ele>1000.4</ele>
        <time>2018-11-24T04:29:23Z</time>
      </trkpt>
      <trkpt lat="42.82506" lon="1.03921">
        <ele>1000.4</ele>
        <time>2018-11-24T04:29:24Z</time>
      </trkpt>
      <trkpt lat="42.8251" lon="1.03921">
        <ele>999.9</ele>
        <time>2018-11-24T04:29:25Z</time>
      </trkpt>
      <trkpt lat="42.82519" lon="1.03927">
        <ele>999.4</ele>
        <time>2018-11-24T04:29:29Z</time>
      </trkpt>
      <trkpt lat="42.82521" lon="1.03928">
        <ele>999</ele>
        <time>2018-11-24T04:29:30Z</time>
      </trkpt>
      <trkpt lat="42.82531" lon="1.03931">
        <ele>998.5</ele>
        <time>2018-11-24T04:29:34Z</time>
      </trkpt>
      <trkpt lat="42.8254" lon="1.03932">
        <ele>998.6</ele>
        <time>2018-11-24T04:29:38Z</time>
      </trkpt>
      <trkpt lat="42.82558" lon="1.03931">
        <ele>997.6</ele>
        <time>2018-11-24T04:29:45Z</time>
      </trkpt>
      <trkpt lat="42.82575" lon="1.03934">
        <ele>996.6</ele>
        <time>2018-11-24T04:29:52Z</time>
      </trkpt>
      <trkpt lat="42.82586" lon="1.03933">
        <ele>995.1</ele>
        <time>2018-11-24T04:29:57Z</time>
      </trkpt>
      <trkpt lat="42.82605" lon="1.03925">
        <ele>994.1</ele>
        <time>2018-11-24T04:30:05Z</time>
      </trkpt>
      <trkpt lat="42.82623" lon="1.03911">
        <ele>992.3</ele>
        <time>2018-11-24T04:30:13Z</time>
      </trkpt>
      <trkpt lat="42.82632" lon="1.03909">
        <ele>993.7</ele>
        <time>2018-11-24T04:30:16Z</time>
      </trkpt>
      <trkpt lat="42.82641" lon="1.03903">
        <ele>992.3</ele>
        <time>2018-11-24T04:30:20Z</time>
      </trkpt>
      <trkpt lat="42.82655" lon="1.03895">
        <ele>988</ele>
        <time>2018-11-24T04:30:27Z</time>
      </trkpt>
      <trkpt lat="42.82672" lon="1.03886">
        <ele>985</ele>
        <time>2018-11-24T04:30:34Z</time>
      </trkpt>
      <trkpt lat="42.82686" lon="1.0387">
        <ele>984.1</ele>
        <time>2018-11-24T04:30:41Z</time>
      </trkpt>
      <trkpt lat="42.82696" lon="1.03859">
        <ele>983.7</ele>
        <time>2018-11-24T04:30:46Z</time>
      </trkpt>
      <trkpt lat="42.82701" lon="1.03827">
        <ele>981.6</ele>
        <time>2018-11-24T04:30:56Z</time>
      </trkpt>
      <trkpt lat="42.82686" lon="1.03778">
        <ele>980.2</ele>
        <time>2018-11-24T04:31:11Z</time>
      </trkpt>
      <trkpt lat="42.82687" lon="1.03774">
        <ele>980.3</ele>
        <time>2018-11-24T04:31:13Z</time>
      </trkpt>
      <trkpt lat="42.8268" lon="1.03758">
        <ele>980.2</ele>
        <time>2018-11-24T04:31:18Z</time>
      </trkpt>
      <trkpt lat="42.82672" lon="1.03713">
        <ele>979.7</ele>
        <time>2018-11-24T04:31:32Z</time>
      </trkpt>
      <trkpt lat="42.8267" lon="1.03703">
        <ele>979.8</ele>
        <time>2018-11-24T04:31:34Z</time>
      </trkpt>
      <trkpt lat="42.82671" lon="1.037">
        <ele>979.7</ele>
        <time>2018-11-24T04:31:35Z</time>
      </trkpt>
      <trkpt lat="42.82674" lon="1.03694">
        <ele>979.7</ele>
        <time>2018-11-24T04:31:38Z</time>
      </trkpt>
      <trkpt lat="42.82674" lon="1.0366">
        <ele>978.8</ele>
        <time>2018-11-24T04:31:48Z</time>
      </trkpt>
      <trkpt lat="42.82674" lon="1.03659">
        <ele>978.8</ele>
        <time>2018-11-24T04:31:48Z</time>
      </trkpt>
      <trkpt lat="42.82678" lon="1.03633">
        <ele>978.4</ele>
        <time>2018-11-24T04:31:56Z</time>
      </trkpt>
      <trkpt lat="42.82688" lon="1.0361">
        <ele>977.4</ele>
        <time>2018-11-24T04:32:03Z</time>
      </trkpt>
      <trkpt lat="42.82689" lon="1.03608">
        <ele>977.3</ele>
        <time>2018-11-24T04:32:04Z</time>
      </trkpt>
      <trkpt lat="42.82691" lon="1.036">
        <ele>977.4</ele>
        <time>2018-11-24T04:32:07Z</time>
      </trkpt>
      <trkpt lat="42.82707" lon="1.03574">
        <ele>976.8</ele>
        <time>2018-11-24T04:32:17Z</time>
      </trkpt>
      <trkpt lat="42.8271" lon="1.03564">
        <ele>976.8</ele>
        <time>2018-11-24T04:32:20Z</time>
      </trkpt>
      <trkpt lat="42.82715" lon="1.03558">
        <ele>976.4</ele>
        <time>2018-11-24T04:32:23Z</time>
      </trkpt>
      <trkpt lat="42.8272" lon="1.03551">
        <ele>976</ele>
        <time>2018-11-24T04:32:25Z</time>
      </trkpt>
      <trkpt lat="42.82726" lon="1.03547">
        <ele>975.4</ele>
        <time>2018-11-24T04:32:28Z</time>
      </trkpt>
      <trkpt lat="42.82731" lon="1.03539">
        <ele>975</ele>
        <time>2018-11-24T04:32:31Z</time>
      </trkpt>
      <trkpt lat="42.82733" lon="1.03535">
        <ele>975</ele>
        <time>2018-11-24T04:32:33Z</time>
      </trkpt>
      <trkpt lat="42.82741" lon="1.0352">
        <ele>973.5</ele>
        <time>2018-11-24T04:32:38Z</time>
      </trkpt>
      <trkpt lat="42.82751" lon="1.03514">
        <ele>973.1</ele>
        <time>2018-11-24T04:32:42Z</time>
      </trkpt>
      <trkpt lat="42.82756" lon="1.03502">
        <ele>972.1</ele>
        <time>2018-11-24T04:32:46Z</time>
      </trkpt>
      <trkpt lat="42.82771" lon="1.03485">
        <ele>970.2</ele>
        <time>2018-11-24T04:32:54Z</time>
      </trkpt>
      <trkpt lat="42.82779" lon="1.03481">
        <ele>969.6</ele>
        <time>2018-11-24T04:32:57Z</time>
      </trkpt>
      <trkpt lat="42.82787" lon="1.03471">
        <ele>969.3</ele>
        <time>2018-11-24T04:33:02Z</time>
      </trkpt>
      <trkpt lat="42.82792" lon="1.03469">
        <ele>969.2</ele>
        <time>2018-11-24T04:33:04Z</time>
      </trkpt>
      <trkpt lat="42.82807" lon="1.03463">
        <ele>968.2</ele>
        <time>2018-11-24T04:33:10Z</time>
      </trkpt>
      <trkpt lat="42.82828" lon="1.0347">
        <ele>967.8</ele>
        <time>2018-11-24T04:33:19Z</time>
      </trkpt>
      <trkpt lat="42.82851" lon="1.03479">
        <ele>966.7</ele>
        <time>2018-11-24T04:33:28Z</time>
      </trkpt>
      <trkpt lat="42.82852" lon="1.03479">
        <ele>966.7</ele>
        <time>2018-11-24T04:33:29Z</time>
      </trkpt>
      <trkpt lat="42.82854" lon="1.03478">
        <ele>966.7</ele>
        <time>2018-11-24T04:33:30Z</time>
      </trkpt>
      <trkpt lat="42.82857" lon="1.03477">
        <ele>966.4</ele>
        <time>2018-11-24T04:33:31Z</time>
      </trkpt>
      <trkpt lat="42.82874" lon="1.03465">
        <ele>965.9</ele>
        <time>2018-11-24T04:33:39Z</time>
      </trkpt>
      <trkpt lat="42.82875" lon="1.03462">
        <ele>965.9</ele>
        <time>2018-11-24T04:33:40Z</time>
      </trkpt>
      <trkpt lat="42.82877" lon="1.0346">
        <ele>965.8</ele>
        <time>2018-11-24T04:33:40Z</time>
      </trkpt>
      <trkpt lat="42.82882" lon="1.03455">
        <ele>965.8</ele>
        <time>2018-11-24T04:33:43Z</time>
      </trkpt>
      <trkpt lat="42.82883" lon="1.03453">
        <ele>965.9</ele>
        <time>2018-11-24T04:33:44Z</time>
      </trkpt>
      <trkpt lat="42.82887" lon="1.0345">
        <ele>965.8</ele>
        <time>2018-11-24T04:33:46Z</time>
      </trkpt>
      <trkpt lat="42.82889" lon="1.03449">
        <ele>965.8</ele>
        <time>2018-11-24T04:33:46Z</time>
      </trkpt>
      <trkpt lat="42.8289" lon="1.03446">
        <ele>965.9</ele>
        <time>2018-11-24T04:33:48Z</time>
      </trkpt>
      <trkpt lat="42.82896" lon="1.03436">
        <ele>965.4</ele>
        <time>2018-11-24T04:33:51Z</time>
      </trkpt>
      <trkpt lat="42.82902" lon="1.03428">
        <ele>961</ele>
        <time>2018-11-24T04:33:55Z</time>
      </trkpt>
      <trkpt lat="42.82903" lon="1.03426">
        <ele>961</ele>
        <time>2018-11-24T04:33:55Z</time>
      </trkpt>
      <trkpt lat="42.82904" lon="1.03425">
        <ele>967.7</ele>
        <time>2018-11-24T04:33:56Z</time>
      </trkpt>
      <trkpt lat="42.82905" lon="1.03424">
        <ele>965.4</ele>
        <time>2018-11-24T04:33:56Z</time>
      </trkpt>
      <trkpt lat="42.82907" lon="1.03422">
        <ele>965.9</ele>
        <time>2018-11-24T04:33:57Z</time>
      </trkpt>
      <trkpt lat="42.82915" lon="1.03412">
        <ele>964.4</ele>
        <time>2018-11-24T04:34:02Z</time>
      </trkpt>
      <trkpt lat="42.82925" lon="1.03399">
        <ele>964.4</ele>
        <time>2018-11-24T04:34:07Z</time>
      </trkpt>
      <trkpt lat="42.82941" lon="1.03383">
        <ele>963.9</ele>
        <time>2018-11-24T04:34:15Z</time>
      </trkpt>
      <trkpt lat="42.82944" lon="1.03381">
        <ele>963.4</ele>
        <time>2018-11-24T04:34:17Z</time>
      </trkpt>
      <trkpt lat="42.82945" lon="1.03379">
        <ele>963.4</ele>
        <time>2018-11-24T04:34:17Z</time>
      </trkpt>
      <trkpt lat="42.82968" lon="1.03357">
        <ele>962.4</ele>
        <time>2018-11-24T04:34:28Z</time>
      </trkpt>
      <trkpt lat="42.82978" lon="1.03339">
        <ele>962</ele>
        <time>2018-11-24T04:34:35Z</time>
      </trkpt>
      <trkpt lat="42.82993" lon="1.03325">
        <ele>961.1</ele>
        <time>2018-11-24T04:34:42Z</time>
      </trkpt>
      <trkpt lat="42.82995" lon="1.03323">
        <ele>961</ele>
        <time>2018-11-24T04:34:43Z</time>
      </trkpt>
      <trkpt lat="42.83014" lon="1.03304">
        <ele>960.6</ele>
        <time>2018-11-24T04:34:53Z</time>
      </trkpt>
      <trkpt lat="42.83023" lon="1.03295">
        <ele>960.6</ele>
        <time>2018-11-24T04:34:57Z</time>
      </trkpt>
      <trkpt lat="42.83016" lon="1.03274">
        <ele>959.6</ele>
        <time>2018-11-24T04:35:04Z</time>
      </trkpt>
      <trkpt lat="42.83024" lon="1.03267">
        <ele>959.1</ele>
        <time>2018-11-24T04:35:08Z</time>
      </trkpt>
      <trkpt lat="42.83072" lon="1.03252">
        <ele>958.1</ele>
        <time>2018-11-24T04:35:28Z</time>
      </trkpt>
      <trkpt lat="42.83079" lon="1.03241">
        <ele>958.1</ele>
        <time>2018-11-24T04:35:32Z</time>
      </trkpt>
      <trkpt lat="42.83084" lon="1.03235">
        <ele>958.1</ele>
        <time>2018-11-24T04:35:34Z</time>
      </trkpt>
      <trkpt lat="42.83085" lon="1.03224">
        <ele>957.6</ele>
        <time>2018-11-24T04:35:38Z</time>
      </trkpt>
      <trkpt lat="42.83086" lon="1.03212">
        <ele>957.6</ele>
        <time>2018-11-24T04:35:41Z</time>
      </trkpt>
      <trkpt lat="42.83086" lon="1.03198">
        <ele>957.7</ele>
        <time>2018-11-24T04:35:45Z</time>
      </trkpt>
      <trkpt lat="42.83088" lon="1.03194">
        <ele>957.2</ele>
        <time>2018-11-24T04:35:47Z</time>
      </trkpt>
      <trkpt lat="42.83091" lon="1.03181">
        <ele>957.2</ele>
        <time>2018-11-24T04:35:51Z</time>
      </trkpt>
      <trkpt lat="42.83089" lon="1.03182">
        <ele>956.8</ele>
        <time>2018-11-24T04:35:52Z</time>
      </trkpt>
      <trkpt lat="42.83079" lon="1.03204">
        <ele>953.4</ele>
        <time>2018-11-24T04:35:59Z</time>
      </trkpt>
      <trkpt lat="42.83079" lon="1.03231">
        <ele>949.9</ele>
        <time>2018-11-24T04:36:07Z</time>
      </trkpt>
      <trkpt lat="42.83084" lon="1.03238">
        <ele>949.4</ele>
        <time>2018-11-24T04:36:10Z</time>
      </trkpt>
      <trkpt lat="42.83105" lon="1.03233">
        <ele>949</ele>
        <time>2018-11-24T04:36:18Z</time>
      </trkpt>
      <trkpt lat="42.83094" lon="1.03267">
        <ele>924.9</ele>
        <time>2018-11-24T04:36:29Z</time>
      </trkpt>
      <trkpt lat="42.83093" lon="1.03247">
        <ele>924.9</ele>
        <time>2018-11-24T04:36:35Z</time>
      </trkpt>
      <trkpt lat="42.83088" lon="1.03243">
        <ele>924.9</ele>
        <time>2018-11-24T04:36:38Z</time>
      </trkpt>
      <trkpt lat="42.83084" lon="1.03229">
        <ele>925.4</ele>
        <time>2018-11-24T04:36:42Z</time>
      </trkpt>
      <trkpt lat="42.83086" lon="1.03213">
        <ele>925.5</ele>
        <time>2018-11-24T04:36:47Z</time>
      </trkpt>
      <trkpt lat="42.83093" lon="1.03188">
        <ele>926.9</ele>
        <time>2018-11-24T04:36:55Z</time>
      </trkpt>
      <trkpt lat="42.83096" lon="1.03163">
        <ele>927.4</ele>
        <time>2018-11-24T04:37:02Z</time>
      </trkpt>
      <trkpt lat="42.83099" lon="1.03143">
        <ele>927.4</ele>
        <time>2018-11-24T04:37:08Z</time>
      </trkpt>
      <trkpt lat="42.831" lon="1.0314">
        <ele>927.4</ele>
        <time>2018-11-24T04:37:09Z</time>
      </trkpt>
      <trkpt lat="42.83103" lon="1.03132">
        <ele>928.4</ele>
        <time>2018-11-24T04:37:12Z</time>
      </trkpt>
      <trkpt lat="42.83127" lon="1.03109">
        <ele>928.4</ele>
        <time>2018-11-24T04:37:23Z</time>
      </trkpt>
      <trkpt lat="42.83143" lon="1.03103">
        <ele>928.3</ele>
        <time>2018-11-24T04:37:30Z</time>
      </trkpt>
      <trkpt lat="42.83151" lon="1.03107">
        <ele>928.4</ele>
        <time>2018-11-24T04:37:34Z</time>
      </trkpt>
      <trkpt lat="42.83168" lon="1.03103">
        <ele>928.3</ele>
        <time>2018-11-24T04:37:41Z</time>
      </trkpt>
      <trkpt lat="42.83182" lon="1.03102">
        <ele>928.3</ele>
        <time>2018-11-24T04:37:46Z</time>
      </trkpt>
      <trkpt lat="42.83204" lon="1.03083">
        <ele>928.4</ele>
        <time>2018-11-24T04:37:57Z</time>
      </trkpt>
      <trkpt lat="42.83212" lon="1.0308">
        <ele>927.4</ele>
        <time>2018-11-24T04:38:00Z</time>
      </trkpt>
      <trkpt lat="42.83213" lon="1.0308">
        <ele>927.4</ele>
        <time>2018-11-24T04:38:00Z</time>
      </trkpt>
      <trkpt lat="42.8323" lon="1.03074">
        <ele>926.8</ele>
        <time>2018-11-24T04:38:07Z</time>
      </trkpt>
      <trkpt lat="42.8324" lon="1.03071">
        <ele>926.5</ele>
        <time>2018-11-24T04:38:11Z</time>
      </trkpt>
      <trkpt lat="42.83259" lon="1.0307">
        <ele>925.9</ele>
        <time>2018-11-24T04:38:19Z</time>
      </trkpt>
      <trkpt lat="42.83266" lon="1.0307">
        <ele>925.5</ele>
        <time>2018-11-24T04:38:22Z</time>
      </trkpt>
      <trkpt lat="42.8327" lon="1.03065">
        <ele>926</ele>
        <time>2018-11-24T04:38:24Z</time>
      </trkpt>
      <trkpt lat="42.83276" lon="1.03059">
        <ele>928.9</ele>
        <time>2018-11-24T04:38:27Z</time>
      </trkpt>
      <trkpt lat="42.83281" lon="1.03056">
        <ele>928.8</ele>
        <time>2018-11-24T04:38:29Z</time>
      </trkpt>
      <trkpt lat="42.83275" lon="1.03053">
        <ele>928.8</ele>
        <time>2018-11-24T04:38:31Z</time>
      </trkpt>
      <trkpt lat="42.83271" lon="1.03045">
        <ele>932.6</ele>
        <time>2018-11-24T04:38:34Z</time>
      </trkpt>
      <trkpt lat="42.8327" lon="1.03032">
        <ele>936</ele>
        <time>2018-11-24T04:38:38Z</time>
      </trkpt>
      <trkpt lat="42.83274" lon="1.03023">
        <ele>938.4</ele>
        <time>2018-11-24T04:38:41Z</time>
      </trkpt>
      <trkpt lat="42.83272" lon="1.03009">
        <ele>940.9</ele>
        <time>2018-11-24T04:38:45Z</time>
      </trkpt>
      <trkpt lat="42.83272" lon="1.02993">
        <ele>942.8</ele>
        <time>2018-11-24T04:38:50Z</time>
      </trkpt>
      <trkpt lat="42.83267" lon="1.02977">
        <ele>945.2</ele>
        <time>2018-11-24T04:38:55Z</time>
      </trkpt>
      <trkpt lat="42.83255" lon="1.02971">
        <ele>947.1</ele>
        <time>2018-11-24T04:39:00Z</time>
      </trkpt>
      <trkpt lat="42.83255" lon="1.02952">
        <ele>950.4</ele>
        <time>2018-11-24T04:39:05Z</time>
      </trkpt>
      <trkpt lat="42.83261" lon="1.02943">
        <ele>951.4</ele>
        <time>2018-11-24T04:39:09Z</time>
      </trkpt>
      <trkpt lat="42.83251" lon="1.02921">
        <ele>954.7</ele>
        <time>2018-11-24T04:39:17Z</time>
      </trkpt>
      <trkpt lat="42.83248" lon="1.02905">
        <ele>958.1</ele>
        <time>2018-11-24T04:39:21Z</time>
      </trkpt>
      <trkpt lat="42.83239" lon="1.02896">
        <ele>960</ele>
        <time>2018-11-24T04:39:26Z</time>
      </trkpt>
      <trkpt lat="42.83234" lon="1.02894">
        <ele>960.5</ele>
        <time>2018-11-24T04:39:28Z</time>
      </trkpt>
      <trkpt lat="42.83229" lon="1.02878">
        <ele>964</ele>
        <time>2018-11-24T04:39:33Z</time>
      </trkpt>
      <trkpt lat="42.8323" lon="1.02879">
        <ele>964.9</ele>
        <time>2018-11-24T04:39:34Z</time>
      </trkpt>
      <trkpt lat="42.83222" lon="1.02876">
        <ele>963.5</ele>
        <time>2018-11-24T04:39:37Z</time>
      </trkpt>
      <trkpt lat="42.83222" lon="1.02875">
        <ele>963.5</ele>
        <time>2018-11-24T04:39:37Z</time>
      </trkpt>
      <trkpt lat="42.83216" lon="1.02876">
        <ele>963.4</ele>
        <time>2018-11-24T04:39:40Z</time>
      </trkpt>
      <trkpt lat="42.83223" lon="1.02873">
        <ele>963.5</ele>
        <time>2018-11-24T04:39:43Z</time>
      </trkpt>
      <trkpt lat="42.83221" lon="1.02874">
        <ele>964.8</ele>
        <time>2018-11-24T04:39:44Z</time>
      </trkpt>
      <trkpt lat="42.8322" lon="1.02867">
        <ele>967.3</ele>
        <time>2018-11-24T04:39:46Z</time>
      </trkpt>
      <trkpt lat="42.8322" lon="1.02855">
        <ele>969.6</ele>
        <time>2018-11-24T04:39:49Z</time>
      </trkpt>
      <trkpt lat="42.83223" lon="1.0284">
        <ele>972.5</ele>
        <time>2018-11-24T04:39:54Z</time>
      </trkpt>
      <trkpt lat="42.83224" lon="1.02828">
        <ele>975.4</ele>
        <time>2018-11-24T04:39:57Z</time>
      </trkpt>
      <trkpt lat="42.83227" lon="1.02808">
        <ele>978.3</ele>
        <time>2018-11-24T04:40:03Z</time>
      </trkpt>
      <trkpt lat="42.83225" lon="1.02794">
        <ele>980.8</ele>
        <time>2018-11-24T04:40:08Z</time>
      </trkpt>
      <trkpt lat="42.83222" lon="1.02786">
        <ele>980.7</ele>
        <time>2018-11-24T04:40:11Z</time>
      </trkpt>
      <trkpt lat="42.83224" lon="1.02776">
        <ele>982.6</ele>
        <time>2018-11-24T04:40:14Z</time>
      </trkpt>
      <trkpt lat="42.83225" lon="1.0276">
        <ele>986</ele>
        <time>2018-11-24T04:40:18Z</time>
      </trkpt>
      <trkpt lat="42.83231" lon="1.02744">
        <ele>988.9</ele>
        <time>2018-11-24T04:40:24Z</time>
      </trkpt>
      <trkpt lat="42.83232" lon="1.02728">
        <ele>991.7</ele>
        <time>2018-11-24T04:40:28Z</time>
      </trkpt>
      <trkpt lat="42.83237" lon="1.02719">
        <ele>994.6</ele>
        <time>2018-11-24T04:40:31Z</time>
      </trkpt>
      <trkpt lat="42.83239" lon="1.02709">
        <ele>997</ele>
        <time>2018-11-24T04:40:34Z</time>
      </trkpt>
      <trkpt lat="42.83243" lon="1.02702">
        <ele>999</ele>
        <time>2018-11-24T04:40:37Z</time>
      </trkpt>
      <trkpt lat="42.83236" lon="1.02695">
        <ele>999.1</ele>
        <time>2018-11-24T04:40:40Z</time>
      </trkpt>
      <trkpt lat="42.83239" lon="1.02697">
        <ele>999.9</ele>
        <time>2018-11-24T04:40:42Z</time>
      </trkpt>
      <trkpt lat="42.83238" lon="1.02707">
        <ele>1001.3</ele>
        <time>2018-11-24T04:40:45Z</time>
      </trkpt>
      <trkpt lat="42.83251" lon="1.02708">
        <ele>1004.3</ele>
        <time>2018-11-24T04:40:50Z</time>
      </trkpt>
      <trkpt lat="42.83257" lon="1.02707">
        <ele>1007.7</ele>
        <time>2018-11-24T04:40:52Z</time>
      </trkpt>
      <trkpt lat="42.83255" lon="1.02704">
        <ele>1010.6</ele>
        <time>2018-11-24T04:40:54Z</time>
      </trkpt>
      <trkpt lat="42.83259" lon="1.02706">
        <ele>1013</ele>
        <time>2018-11-24T04:40:55Z</time>
      </trkpt>
      <trkpt lat="42.83261" lon="1.02706">
        <ele>1014.4</ele>
        <time>2018-11-24T04:40:56Z</time>
      </trkpt>
      <trkpt lat="42.83268" lon="1.027">
        <ele>1016.7</ele>
        <time>2018-11-24T04:41:00Z</time>
      </trkpt>
      <trkpt lat="42.83269" lon="1.02697">
        <ele>1020.2</ele>
        <time>2018-11-24T04:41:00Z</time>
      </trkpt>
      <trkpt lat="42.83267" lon="1.027">
        <ele>1020.7</ele>
        <time>2018-11-24T04:41:02Z</time>
      </trkpt>
      <trkpt lat="42.83267" lon="1.02707">
        <ele>1020.6</ele>
        <time>2018-11-24T04:41:04Z</time>
      </trkpt>
      <trkpt lat="42.83261" lon="1.02695">
        <ele>1022.6</ele>
        <time>2018-11-24T04:41:08Z</time>
      </trkpt>
      <trkpt lat="42.83257" lon="1.02683">
        <ele>1025.4</ele>
        <time>2018-11-24T04:41:12Z</time>
      </trkpt>
      <trkpt lat="42.8326" lon="1.02681">
        <ele>1028.3</ele>
        <time>2018-11-24T04:41:14Z</time>
      </trkpt>
      <trkpt lat="42.83252" lon="1.02666">
        <ele>1031.6</ele>
        <time>2018-11-24T04:41:19Z</time>
      </trkpt>
      <trkpt lat="42.83252" lon="1.02661">
        <ele>1033.2</ele>
        <time>2018-11-24T04:41:21Z</time>
      </trkpt>
      <trkpt lat="42.83247" lon="1.02653">
        <ele>1034.6</ele>
        <time>2018-11-24T04:41:23Z</time>
      </trkpt>
      <trkpt lat="42.83245" lon="1.02645">
        <ele>1038</ele>
        <time>2018-11-24T04:41:26Z</time>
      </trkpt>
      <trkpt lat="42.83242" lon="1.02635">
        <ele>1040.3</ele>
        <time>2018-11-24T04:41:29Z</time>
      </trkpt>
      <trkpt lat="42.83238" lon="1.02622">
        <ele>1043.7</ele>
        <time>2018-11-24T04:41:33Z</time>
      </trkpt>
      <trkpt lat="42.83235" lon="1.02612">
        <ele>1047</ele>
        <time>2018-11-24T04:41:37Z</time>
      </trkpt>
      <trkpt lat="42.83229" lon="1.026">
        <ele>1049.9</ele>
        <time>2018-11-24T04:41:41Z</time>
      </trkpt>
      <trkpt lat="42.83222" lon="1.02606">
        <ele>1051.9</ele>
        <time>2018-11-24T04:41:44Z</time>
      </trkpt>
      <trkpt lat="42.8322" lon="1.02589">
        <ele>1053.8</ele>
        <time>2018-11-24T04:41:49Z</time>
      </trkpt>
      <trkpt lat="42.83216" lon="1.02578">
        <ele>1057.1</ele>
        <time>2018-11-24T04:41:52Z</time>
      </trkpt>
      <trkpt lat="42.83209" lon="1.02563">
        <ele>1059.5</ele>
        <time>2018-11-24T04:41:58Z</time>
      </trkpt>
      <trkpt lat="42.83205" lon="1.0255">
        <ele>1063</ele>
        <time>2018-11-24T04:42:02Z</time>
      </trkpt>
      <trkpt lat="42.83202" lon="1.02547">
        <ele>1066.3</ele>
        <time>2018-11-24T04:42:03Z</time>
      </trkpt>
      <trkpt lat="42.83207" lon="1.02546">
        <ele>1067.2</ele>
        <time>2018-11-24T04:42:05Z</time>
      </trkpt>
      <trkpt lat="42.83196" lon="1.02534">
        <ele>1067.3</ele>
        <time>2018-11-24T04:42:11Z</time>
      </trkpt>
      <trkpt lat="42.83193" lon="1.02535">
        <ele>1067.3</ele>
        <time>2018-11-24T04:42:12Z</time>
      </trkpt>
      <trkpt lat="42.83188" lon="1.02543">
        <ele>1068.3</ele>
        <time>2018-11-24T04:42:15Z</time>
      </trkpt>
      <trkpt lat="42.83182" lon="1.0254">
        <ele>1070.7</ele>
        <time>2018-11-24T04:42:18Z</time>
      </trkpt>
      <trkpt lat="42.83175" lon="1.0253">
        <ele>1073.9</ele>
        <time>2018-11-24T04:42:22Z</time>
      </trkpt>
      <trkpt lat="42.83166" lon="1.02519">
        <ele>1077.3</ele>
        <time>2018-11-24T04:42:27Z</time>
      </trkpt>
      <trkpt lat="42.83163" lon="1.02511">
        <ele>1080.2</ele>
        <time>2018-11-24T04:42:29Z</time>
      </trkpt>
      <trkpt lat="42.83156" lon="1.02505">
        <ele>1082.1</ele>
        <time>2018-11-24T04:42:32Z</time>
      </trkpt>
      <trkpt lat="42.83153" lon="1.02493">
        <ele>1085</ele>
        <time>2018-11-24T04:42:36Z</time>
      </trkpt>
      <trkpt lat="42.83147" lon="1.02497">
        <ele>1087.5</ele>
        <time>2018-11-24T04:42:39Z</time>
      </trkpt>
      <trkpt lat="42.8315" lon="1.02491">
        <ele>1089.4</ele>
        <time>2018-11-24T04:42:41Z</time>
      </trkpt>
      <trkpt lat="42.83144" lon="1.0248">
        <ele>1090.8</ele>
        <time>2018-11-24T04:42:46Z</time>
      </trkpt>
      <trkpt lat="42.83137" lon="1.02489">
        <ele>1091.7</ele>
        <time>2018-11-24T04:42:50Z</time>
      </trkpt>
      <trkpt lat="42.83133" lon="1.0248">
        <ele>1091.8</ele>
        <time>2018-11-24T04:42:53Z</time>
      </trkpt>
      <trkpt lat="42.83128" lon="1.02476">
        <ele>1095.2</ele>
        <time>2018-11-24T04:42:55Z</time>
      </trkpt>
      <trkpt lat="42.83126" lon="1.02477">
        <ele>1095.2</ele>
        <time>2018-11-24T04:42:56Z</time>
      </trkpt>
      <trkpt lat="42.83125" lon="1.02473">
        <ele>1096.5</ele>
        <time>2018-11-24T04:42:57Z</time>
      </trkpt>
      <trkpt lat="42.83117" lon="1.0248">
        <ele>1098.4</ele>
        <time>2018-11-24T04:43:01Z</time>
      </trkpt>
      <trkpt lat="42.83113" lon="1.02479">
        <ele>1101.4</ele>
        <time>2018-11-24T04:43:03Z</time>
      </trkpt>
      <trkpt lat="42.83102" lon="1.02468">
        <ele>1102.3</ele>
        <time>2018-11-24T04:43:08Z</time>
      </trkpt>
      <trkpt lat="42.83098" lon="1.02461">
        <ele>1102.8</ele>
        <time>2018-11-24T04:43:10Z</time>
      </trkpt>
      <trkpt lat="42.83093" lon="1.0245">
        <ele>1104.8</ele>
        <time>2018-11-24T04:43:14Z</time>
      </trkpt>
      <trkpt lat="42.83084" lon="1.02439">
        <ele>1106.7</ele>
        <time>2018-11-24T04:43:19Z</time>
      </trkpt>
      <trkpt lat="42.83081" lon="1.02427">
        <ele>1108.2</ele>
        <time>2018-11-24T04:43:23Z</time>
      </trkpt>
      <trkpt lat="42.83076" lon="1.02412">
        <ele>1108.6</ele>
        <time>2018-11-24T04:43:28Z</time>
      </trkpt>
      <trkpt lat="42.8307" lon="1.02399">
        <ele>1109.6</ele>
        <time>2018-11-24T04:43:32Z</time>
      </trkpt>
      <trkpt lat="42.83066" lon="1.02388">
        <ele>1111.9</ele>
        <time>2018-11-24T04:43:36Z</time>
      </trkpt>
      <trkpt lat="42.83059" lon="1.02378">
        <ele>1114.9</ele>
        <time>2018-11-24T04:43:40Z</time>
      </trkpt>
      <trkpt lat="42.83047" lon="1.02379">
        <ele>1116.8</ele>
        <time>2018-11-24T04:43:45Z</time>
      </trkpt>
      <trkpt lat="42.83038" lon="1.02387">
        <ele>1116.7</ele>
        <time>2018-11-24T04:43:49Z</time>
      </trkpt>
      <trkpt lat="42.83028" lon="1.02384">
        <ele>1119.2</ele>
        <time>2018-11-24T04:43:53Z</time>
      </trkpt>
      <trkpt lat="42.8302" lon="1.0238">
        <ele>1121</ele>
        <time>2018-11-24T04:43:56Z</time>
      </trkpt>
      <trkpt lat="42.83019" lon="1.02372">
        <ele>1121.5</ele>
        <time>2018-11-24T04:43:59Z</time>
      </trkpt>
      <trkpt lat="42.83014" lon="1.02362">
        <ele>1123.1</ele>
        <time>2018-11-24T04:44:03Z</time>
      </trkpt>
      <trkpt lat="42.83009" lon="1.02348">
        <ele>1126.4</ele>
        <time>2018-11-24T04:44:07Z</time>
      </trkpt>
      <trkpt lat="42.83001" lon="1.02342">
        <ele>1129.3</ele>
        <time>2018-11-24T04:44:11Z</time>
      </trkpt>
      <trkpt lat="42.82999" lon="1.02335">
        <ele>1131.2</ele>
        <time>2018-11-24T04:44:13Z</time>
      </trkpt>
      <trkpt lat="42.82996" lon="1.02333">
        <ele>1133.6</ele>
        <time>2018-11-24T04:44:14Z</time>
      </trkpt>
      <trkpt lat="42.82995" lon="1.02327">
        <ele>1137</ele>
        <time>2018-11-24T04:44:16Z</time>
      </trkpt>
      <trkpt lat="42.82989" lon="1.02323">
        <ele>1138.9</ele>
        <time>2018-11-24T04:44:19Z</time>
      </trkpt>
      <trkpt lat="42.8299" lon="1.02327">
        <ele>1139.3</ele>
        <time>2018-11-24T04:44:20Z</time>
      </trkpt>
      <trkpt lat="42.82983" lon="1.02319">
        <ele>1140.8</ele>
        <time>2018-11-24T04:44:23Z</time>
      </trkpt>
      <trkpt lat="42.82975" lon="1.02311">
        <ele>1143.7</ele>
        <time>2018-11-24T04:44:27Z</time>
      </trkpt>
      <trkpt lat="42.82973" lon="1.02296">
        <ele>1146</ele>
        <time>2018-11-24T04:44:32Z</time>
      </trkpt>
      <trkpt lat="42.82972" lon="1.02293">
        <ele>1147</ele>
        <time>2018-11-24T04:44:33Z</time>
      </trkpt>
      <trkpt lat="42.82972" lon="1.02289">
        <ele>1147.5</ele>
        <time>2018-11-24T04:44:34Z</time>
      </trkpt>
      <trkpt lat="42.82969" lon="1.0228">
        <ele>1150</ele>
        <time>2018-11-24T04:44:37Z</time>
      </trkpt>
      <trkpt lat="42.82965" lon="1.02273">
        <ele>1153.2</ele>
        <time>2018-11-24T04:44:39Z</time>
      </trkpt>
      <trkpt lat="42.82961" lon="1.02269">
        <ele>1155.2</ele>
        <time>2018-11-24T04:44:42Z</time>
      </trkpt>
      <trkpt lat="42.82957" lon="1.02268">
        <ele>1157.6</ele>
        <time>2018-11-24T04:44:43Z</time>
      </trkpt>
      <trkpt lat="42.82957" lon="1.02262">
        <ele>1160</ele>
        <time>2018-11-24T04:44:45Z</time>
      </trkpt>
      <trkpt lat="42.82944" lon="1.02264">
        <ele>1162.4</ele>
        <time>2018-11-24T04:44:50Z</time>
      </trkpt>
      <trkpt lat="42.8294" lon="1.02262">
        <ele>1165.8</ele>
        <time>2018-11-24T04:44:52Z</time>
      </trkpt>
      <trkpt lat="42.82935" lon="1.02255">
        <ele>1169.1</ele>
        <time>2018-11-24T04:44:54Z</time>
      </trkpt>
      <trkpt lat="42.82938" lon="1.02247">
        <ele>1170.6</ele>
        <time>2018-11-24T04:44:57Z</time>
      </trkpt>
      <trkpt lat="42.82939" lon="1.02245">
        <ele>1173.4</ele>
        <time>2018-11-24T04:44:58Z</time>
      </trkpt>
      <trkpt lat="42.82936" lon="1.02253">
        <ele>1173.4</ele>
        <time>2018-11-24T04:45:00Z</time>
      </trkpt>
      <trkpt lat="42.82936" lon="1.02249">
        <ele>1173.9</ele>
        <time>2018-11-24T04:45:02Z</time>
      </trkpt>
      <trkpt lat="42.82942" lon="1.02247">
        <ele>1175.8</ele>
        <time>2018-11-24T04:45:04Z</time>
      </trkpt>
      <trkpt lat="42.82945" lon="1.02248">
        <ele>1177.9</ele>
        <time>2018-11-24T04:45:05Z</time>
      </trkpt>
      <trkpt lat="42.82951" lon="1.02247">
        <ele>1178.8</ele>
        <time>2018-11-24T04:45:08Z</time>
      </trkpt>
      <trkpt lat="42.82946" lon="1.02237">
        <ele>1182.2</ele>
        <time>2018-11-24T04:45:11Z</time>
      </trkpt>
      <trkpt lat="42.82936" lon="1.02239">
        <ele>1183.6</ele>
        <time>2018-11-24T04:45:16Z</time>
      </trkpt>
      <trkpt lat="42.82936" lon="1.02222">
        <ele>1186.4</ele>
        <time>2018-11-24T04:45:20Z</time>
      </trkpt>
      <trkpt lat="42.82938" lon="1.0221">
        <ele>1188.8</ele>
        <time>2018-11-24T04:45:24Z</time>
      </trkpt>
      <trkpt lat="42.82946" lon="1.02205">
        <ele>1191.7</ele>
        <time>2018-11-24T04:45:28Z</time>
      </trkpt>
      <trkpt lat="42.82954" lon="1.022">
        <ele>1195.2</ele>
        <time>2018-11-24T04:45:31Z</time>
      </trkpt>
      <trkpt lat="42.82948" lon="1.02198">
        <ele>1196</ele>
        <time>2018-11-24T04:45:34Z</time>
      </trkpt>
      <trkpt lat="42.82955" lon="1.02189">
        <ele>1199.4</ele>
        <time>2018-11-24T04:45:38Z</time>
      </trkpt>
      <trkpt lat="42.82956" lon="1.02187">
        <ele>1201.3</ele>
        <time>2018-11-24T04:45:38Z</time>
      </trkpt>
      <trkpt lat="42.82971" lon="1.02182">
        <ele>1204.8</ele>
        <time>2018-11-24T04:45:44Z</time>
      </trkpt>
      <trkpt lat="42.82971" lon="1.02181">
        <ele>1206.1</ele>
        <time>2018-11-24T04:45:45Z</time>
      </trkpt>
      <trkpt lat="42.82967" lon="1.02171">
        <ele>1209.6</ele>
        <time>2018-11-24T04:45:48Z</time>
      </trkpt>
      <trkpt lat="42.82969" lon="1.02165">
        <ele>1211.9</ele>
        <time>2018-11-24T04:45:50Z</time>
      </trkpt>
      <trkpt lat="42.82966" lon="1.02156">
        <ele>1214.8</ele>
        <time>2018-11-24T04:45:53Z</time>
      </trkpt>
      <trkpt lat="42.82968" lon="1.02149">
        <ele>1218.2</ele>
        <time>2018-11-24T04:45:55Z</time>
      </trkpt>
      <trkpt lat="42.82967" lon="1.0215">
        <ele>1219.1</ele>
        <time>2018-11-24T04:45:56Z</time>
      </trkpt>
      <trkpt lat="42.82959" lon="1.02156">
        <ele>1220.5</ele>
        <time>2018-11-24T04:45:59Z</time>
      </trkpt>
      <trkpt lat="42.82957" lon="1.0216">
        <ele>1221</ele>
        <time>2018-11-24T04:46:01Z</time>
      </trkpt>
      <trkpt lat="42.82954" lon="1.02155">
        <ele>1222.5</ele>
        <time>2018-11-24T04:46:03Z</time>
      </trkpt>
      <trkpt lat="42.82955" lon="1.02142">
        <ele>1223.9</ele>
        <time>2018-11-24T04:46:07Z</time>
      </trkpt>
      <trkpt lat="42.82968" lon="1.02132">
        <ele>1225.9</ele>
        <time>2018-11-24T04:46:12Z</time>
      </trkpt>
      <trkpt lat="42.82968" lon="1.02136">
        <ele>1227.4</ele>
        <time>2018-11-24T04:46:13Z</time>
      </trkpt>
      <trkpt lat="42.82972" lon="1.02134">
        <ele>1228.8</ele>
        <time>2018-11-24T04:46:15Z</time>
      </trkpt>
      <trkpt lat="42.82971" lon="1.02127">
        <ele>1232.2</ele>
        <time>2018-11-24T04:46:17Z</time>
      </trkpt>
      <trkpt lat="42.82963" lon="1.02132">
        <ele>1232.7</ele>
        <time>2018-11-24T04:46:20Z</time>
      </trkpt>
      <trkpt lat="42.82963" lon="1.02115">
        <ele>1235.9</ele>
        <time>2018-11-24T04:46:25Z</time>
      </trkpt>
      <trkpt lat="42.82963" lon="1.02119">
        <ele>1237</ele>
        <time>2018-11-24T04:46:26Z</time>
      </trkpt>
      <trkpt lat="42.82968" lon="1.02114">
        <ele>1238.4</ele>
        <time>2018-11-24T04:46:29Z</time>
      </trkpt>
      <trkpt lat="42.8297" lon="1.02117">
        <ele>1240.3</ele>
        <time>2018-11-24T04:46:30Z</time>
      </trkpt>
      <trkpt lat="42.82977" lon="1.02119">
        <ele>1243.1</ele>
        <time>2018-11-24T04:46:33Z</time>
      </trkpt>
      <trkpt lat="42.82979" lon="1.02106">
        <ele>1246.5</ele>
        <time>2018-11-24T04:46:37Z</time>
      </trkpt>
      <trkpt lat="42.82978" lon="1.02096">
        <ele>1248.9</ele>
        <time>2018-11-24T04:46:40Z</time>
      </trkpt>
      <trkpt lat="42.82976" lon="1.02093">
        <ele>1249.9</ele>
        <time>2018-11-24T04:46:41Z</time>
      </trkpt>
      <trkpt lat="42.82972" lon="1.02096">
        <ele>1249.9</ele>
        <time>2018-11-24T04:46:43Z</time>
      </trkpt>
      <trkpt lat="42.82977" lon="1.02088">
        <ele>1251.9</ele>
        <time>2018-11-24T04:46:46Z</time>
      </trkpt>
      <trkpt lat="42.82983" lon="1.02095">
        <ele>1255.2</ele>
        <time>2018-11-24T04:46:49Z</time>
      </trkpt>
      <trkpt lat="42.82982" lon="1.02081">
        <ele>1258</ele>
        <time>2018-11-24T04:46:53Z</time>
      </trkpt>
      <trkpt lat="42.82981" lon="1.02074">
        <ele>1261</ele>
        <time>2018-11-24T04:46:55Z</time>
      </trkpt>
      <trkpt lat="42.82986" lon="1.02073">
        <ele>1264.4</ele>
        <time>2018-11-24T04:46:57Z</time>
      </trkpt>
      <trkpt lat="42.82991" lon="1.02069">
        <ele>1267.3</ele>
        <time>2018-11-24T04:46:59Z</time>
      </trkpt>
      <trkpt lat="42.82993" lon="1.02059">
        <ele>1270.5</ele>
        <time>2018-11-24T04:47:02Z</time>
      </trkpt>
      <trkpt lat="42.82984" lon="1.02063">
        <ele>1270.6</ele>
        <time>2018-11-24T04:47:06Z</time>
      </trkpt>
      <trkpt lat="42.82981" lon="1.02055">
        <ele>1270.5</ele>
        <time>2018-11-24T04:47:09Z</time>
      </trkpt>
      <trkpt lat="42.82982" lon="1.02046">
        <ele>1273.9</ele>
        <time>2018-11-24T04:47:11Z</time>
      </trkpt>
      <trkpt lat="42.82987" lon="1.0204">
        <ele>1277.8</ele>
        <time>2018-11-24T04:47:14Z</time>
      </trkpt>
      <trkpt lat="42.82987" lon="1.02036">
        <ele>1277.8</ele>
        <time>2018-11-24T04:47:15Z</time>
      </trkpt>
      <trkpt lat="42.82987" lon="1.02029">
        <ele>1280.7</ele>
        <time>2018-11-24T04:47:17Z</time>
      </trkpt>
      <trkpt lat="42.82988" lon="1.02022">
        <ele>1284.5</ele>
        <time>2018-11-24T04:47:19Z</time>
      </trkpt>
      <trkpt lat="42.82988" lon="1.02014">
        <ele>1287</ele>
        <time>2018-11-24T04:47:22Z</time>
      </trkpt>
      <trkpt lat="42.82991" lon="1.02005">
        <ele>1288.3</ele>
        <time>2018-11-24T04:47:25Z</time>
      </trkpt>
      <trkpt lat="42.8299" lon="1.0201">
        <ele>1289.3</ele>
        <time>2018-11-24T04:47:26Z</time>
      </trkpt>
      <trkpt lat="42.82989" lon="1.02018">
        <ele>1289.3</ele>
        <time>2018-11-24T04:47:28Z</time>
      </trkpt>
      <trkpt lat="42.82989" lon="1.02021">
        <ele>1289.9</ele>
        <time>2018-11-24T04:47:29Z</time>
      </trkpt>
      <trkpt lat="42.82995" lon="1.02012">
        <ele>1292.2</ele>
        <time>2018-11-24T04:47:33Z</time>
      </trkpt>
      <trkpt lat="42.82997" lon="1.02011">
        <ele>1293.1</ele>
        <time>2018-11-24T04:47:34Z</time>
      </trkpt>
      <trkpt lat="42.83007" lon="1.02015">
        <ele>1296</ele>
        <time>2018-11-24T04:47:38Z</time>
      </trkpt>
      <trkpt lat="42.83012" lon="1.02016">
        <ele>1299.5</ele>
        <time>2018-11-24T04:47:40Z</time>
      </trkpt>
      <trkpt lat="42.83013" lon="1.02005">
        <ele>1302.3</ele>
        <time>2018-11-24T04:47:43Z</time>
      </trkpt>
      <trkpt lat="42.83012" lon="1.01995">
        <ele>1305.6</ele>
        <time>2018-11-24T04:47:46Z</time>
      </trkpt>
      <trkpt lat="42.83008" lon="1.01983">
        <ele>1308.6</ele>
        <time>2018-11-24T04:47:50Z</time>
      </trkpt>
      <trkpt lat="42.83001" lon="1.01987">
        <ele>1309.1</ele>
        <time>2018-11-24T04:47:53Z</time>
      </trkpt>
      <trkpt lat="42.83001" lon="1.01985">
        <ele>1309.1</ele>
        <time>2018-11-24T04:47:54Z</time>
      </trkpt>
      <trkpt lat="42.83001" lon="1.01988">
        <ele>1309.4</ele>
        <time>2018-11-24T04:47:55Z</time>
      </trkpt>
      <trkpt lat="42.83001" lon="1.0198">
        <ele>1310.9</ele>
        <time>2018-11-24T04:47:57Z</time>
      </trkpt>
      <trkpt lat="42.83004" lon="1.01969">
        <ele>1314.4</ele>
        <time>2018-11-24T04:48:00Z</time>
      </trkpt>
      <trkpt lat="42.83003" lon="1.01958">
        <ele>1316.2</ele>
        <time>2018-11-24T04:48:04Z</time>
      </trkpt>
      <trkpt lat="42.83002" lon="1.01945">
        <ele>1316.2</ele>
        <time>2018-11-24T04:48:07Z</time>
      </trkpt>
      <trkpt lat="42.82999" lon="1.01932">
        <ele>1317.1</ele>
        <time>2018-11-24T04:48:11Z</time>
      </trkpt>
      <trkpt lat="42.83001" lon="1.01923">
        <ele>1317.6</ele>
        <time>2018-11-24T04:48:14Z</time>
      </trkpt>
      <trkpt lat="42.83002" lon="1.01908">
        <ele>1320.6</ele>
        <time>2018-11-24T04:48:18Z</time>
      </trkpt>
      <trkpt lat="42.83005" lon="1.01896">
        <ele>1321.6</ele>
        <time>2018-11-24T04:48:22Z</time>
      </trkpt>
      <trkpt lat="42.83009" lon="1.01888">
        <ele>1320.6</ele>
        <time>2018-11-24T04:48:25Z</time>
      </trkpt>
      <trkpt lat="42.83012" lon="1.01874">
        <ele>1321.6</ele>
        <time>2018-11-24T04:48:29Z</time>
      </trkpt>
      <trkpt lat="42.83015" lon="1.01867">
        <ele>1321.6</ele>
        <time>2018-11-24T04:48:32Z</time>
      </trkpt>
      <trkpt lat="42.83017" lon="1.01847">
        <ele>1323</ele>
        <time>2018-11-24T04:48:38Z</time>
      </trkpt>
      <trkpt lat="42.83019" lon="1.01838">
        <ele>1324.8</ele>
        <time>2018-11-24T04:48:41Z</time>
      </trkpt>
      <trkpt lat="42.83015" lon="1.01822">
        <ele>1326.8</ele>
        <time>2018-11-24T04:48:45Z</time>
      </trkpt>
      <trkpt lat="42.83011" lon="1.01811">
        <ele>1327.8</ele>
        <time>2018-11-24T04:48:49Z</time>
      </trkpt>
      <trkpt lat="42.83001" lon="1.01795">
        <ele>1329.2</ele>
        <time>2018-11-24T04:48:55Z</time>
      </trkpt>
      <trkpt lat="42.82999" lon="1.01798">
        <ele>1329.6</ele>
        <time>2018-11-24T04:48:56Z</time>
      </trkpt>
      <trkpt lat="42.82992" lon="1.01806">
        <ele>1331.1</ele>
        <time>2018-11-24T04:49:00Z</time>
      </trkpt>
      <trkpt lat="42.82985" lon="1.01812">
        <ele>1333.1</ele>
        <time>2018-11-24T04:49:03Z</time>
      </trkpt>
      <trkpt lat="42.82974" lon="1.01808">
        <ele>1334.4</ele>
        <time>2018-11-24T04:49:08Z</time>
      </trkpt>
      <trkpt lat="42.82962" lon="1.01803">
        <ele>1337.3</ele>
        <time>2018-11-24T04:49:13Z</time>
      </trkpt>
      <trkpt lat="42.82958" lon="1.01798">
        <ele>1338.9</ele>
        <time>2018-11-24T04:49:15Z</time>
      </trkpt>
      <trkpt lat="42.82952" lon="1.01793">
        <ele>1340.3</ele>
        <time>2018-11-24T04:49:18Z</time>
      </trkpt>
      <trkpt lat="42.82952" lon="1.01788">
        <ele>1340.8</ele>
        <time>2018-11-24T04:49:19Z</time>
      </trkpt>
      <trkpt lat="42.8295" lon="1.01782">
        <ele>1342.1</ele>
        <time>2018-11-24T04:49:21Z</time>
      </trkpt>
      <trkpt lat="42.82942" lon="1.01773">
        <ele>1345</ele>
        <time>2018-11-24T04:49:25Z</time>
      </trkpt>
      <trkpt lat="42.82937" lon="1.01768">
        <ele>1347.4</ele>
        <time>2018-11-24T04:49:28Z</time>
      </trkpt>
      <trkpt lat="42.82929" lon="1.01761">
        <ele>1349.8</ele>
        <time>2018-11-24T04:49:32Z</time>
      </trkpt>
      <trkpt lat="42.8293" lon="1.01756">
        <ele>1351.3</ele>
        <time>2018-11-24T04:49:33Z</time>
      </trkpt>
      <trkpt lat="42.82945" lon="1.01754">
        <ele>1353.8</ele>
        <time>2018-11-24T04:49:39Z</time>
      </trkpt>
      <trkpt lat="42.82948" lon="1.01765">
        <ele>1354.3</ele>
        <time>2018-11-24T04:49:43Z</time>
      </trkpt>
      <trkpt lat="42.8295" lon="1.01758">
        <ele>1355.1</ele>
        <time>2018-11-24T04:49:45Z</time>
      </trkpt>
      <trkpt lat="42.82954" lon="1.01753">
        <ele>1356.7</ele>
        <time>2018-11-24T04:49:47Z</time>
      </trkpt>
      <trkpt lat="42.82963" lon="1.01752">
        <ele>1358</ele>
        <time>2018-11-24T04:49:51Z</time>
      </trkpt>
      <trkpt lat="42.82976" lon="1.01753">
        <ele>1360.9</ele>
        <time>2018-11-24T04:49:56Z</time>
      </trkpt>
      <trkpt lat="42.82981" lon="1.01749">
        <ele>1362.8</ele>
        <time>2018-11-24T04:49:58Z</time>
      </trkpt>
      <trkpt lat="42.82977" lon="1.01749">
        <ele>1363.8</ele>
        <time>2018-11-24T04:49:59Z</time>
      </trkpt>
      <trkpt lat="42.82976" lon="1.01744">
        <ele>1364.7</ele>
        <time>2018-11-24T04:50:01Z</time>
      </trkpt>
      <trkpt lat="42.82971" lon="1.01733">
        <ele>1367.2</ele>
        <time>2018-11-24T04:50:05Z</time>
      </trkpt>
      <trkpt lat="42.82972" lon="1.0172">
        <ele>1370</ele>
        <time>2018-11-24T04:50:08Z</time>
      </trkpt>
      <trkpt lat="42.82976" lon="1.01723">
        <ele>1371</ele>
        <time>2018-11-24T04:50:10Z</time>
      </trkpt>
      <trkpt lat="42.82979" lon="1.01714">
        <ele>1374</ele>
        <time>2018-11-24T04:50:13Z</time>
      </trkpt>
      <trkpt lat="42.82974" lon="1.01708">
        <ele>1374.4</ele>
        <time>2018-11-24T04:50:16Z</time>
      </trkpt>
      <trkpt lat="42.82967" lon="1.01698">
        <ele>1376.9</ele>
        <time>2018-11-24T04:50:20Z</time>
      </trkpt>
      <trkpt lat="42.82958" lon="1.01689">
        <ele>1379.2</ele>
        <time>2018-11-24T04:50:24Z</time>
      </trkpt>
      <trkpt lat="42.8296" lon="1.01677">
        <ele>1381.6</ele>
        <time>2018-11-24T04:50:28Z</time>
      </trkpt>
      <trkpt lat="42.8297" lon="1.01673">
        <ele>1383.1</ele>
        <time>2018-11-24T04:50:31Z</time>
      </trkpt>
      <trkpt lat="42.82973" lon="1.0167">
        <ele>1384</ele>
        <time>2018-11-24T04:50:33Z</time>
      </trkpt>
      <trkpt lat="42.82977" lon="1.01661">
        <ele>1386</ele>
        <time>2018-11-24T04:50:36Z</time>
      </trkpt>
      <trkpt lat="42.82974" lon="1.01648">
        <ele>1388.4</ele>
        <time>2018-11-24T04:50:40Z</time>
      </trkpt>
      <trkpt lat="42.82973" lon="1.01646">
        <ele>1389.2</ele>
        <time>2018-11-24T04:50:41Z</time>
      </trkpt>
      <trkpt lat="42.82971" lon="1.0164">
        <ele>1391.2</ele>
        <time>2018-11-24T04:50:43Z</time>
      </trkpt>
      <trkpt lat="42.82971" lon="1.01631">
        <ele>1392.1</ele>
        <time>2018-11-24T04:50:46Z</time>
      </trkpt>
      <trkpt lat="42.82967" lon="1.01621">
        <ele>1395.6</ele>
        <time>2018-11-24T04:50:49Z</time>
      </trkpt>
      <trkpt lat="42.8296" lon="1.0161">
        <ele>1398</ele>
        <time>2018-11-24T04:50:53Z</time>
      </trkpt>
      <trkpt lat="42.82957" lon="1.01607">
        <ele>1399</ele>
        <time>2018-11-24T04:50:54Z</time>
      </trkpt>
      <trkpt lat="42.82955" lon="1.01606">
        <ele>1399</ele>
        <time>2018-11-24T04:50:56Z</time>
      </trkpt>
      <trkpt lat="42.82959" lon="1.01608">
        <ele>1399</ele>
        <time>2018-11-24T04:50:58Z</time>
      </trkpt>
      <trkpt lat="42.82963" lon="1.01611">
        <ele>1399.8</ele>
        <time>2018-11-24T04:50:59Z</time>
      </trkpt>
      <trkpt lat="42.82955" lon="1.01599">
        <ele>1399.8</ele>
        <time>2018-11-24T04:51:04Z</time>
      </trkpt>
      <trkpt lat="42.82949" lon="1.01612">
        <ele>1399.9</ele>
        <time>2018-11-24T04:51:09Z</time>
      </trkpt>
      <trkpt lat="42.82954" lon="1.01615">
        <ele>1400.4</ele>
        <time>2018-11-24T04:51:11Z</time>
      </trkpt>
      <trkpt lat="42.82958" lon="1.01606">
        <ele>1400.3</ele>
        <time>2018-11-24T04:51:14Z</time>
      </trkpt>
      <trkpt lat="42.82951" lon="1.01609">
        <ele>1400.3</ele>
        <time>2018-11-24T04:51:17Z</time>
      </trkpt>
      <trkpt lat="42.82946" lon="1.01668">
        <ele>1400.3</ele>
        <time>2018-11-24T04:51:34Z</time>
      </trkpt>
      <trkpt lat="42.82952" lon="1.01696">
        <ele>1400.3</ele>
        <time>2018-11-24T04:51:43Z</time>
      </trkpt>
      <trkpt lat="42.82947" lon="1.01685">
        <ele>1400.3</ele>
        <time>2018-11-24T04:51:47Z</time>
      </trkpt>
      <trkpt lat="42.82953" lon="1.01657">
        <ele>1399.3</ele>
        <time>2018-11-24T04:51:55Z</time>
      </trkpt>
      <trkpt lat="42.82962" lon="1.01623">
        <ele>1399.4</ele>
        <time>2018-11-24T04:52:06Z</time>
      </trkpt>
      <trkpt lat="42.82967" lon="1.01616">
        <ele>1399.4</ele>
        <time>2018-11-24T04:52:09Z</time>
      </trkpt>
      <trkpt lat="42.82965" lon="1.01607">
        <ele>1399.4</ele>
        <time>2018-11-24T04:52:12Z</time>
      </trkpt>
      <trkpt lat="42.82959" lon="1.01606">
        <ele>1399.4</ele>
        <time>2018-11-24T04:52:14Z</time>
      </trkpt>
      <trkpt lat="42.8295" lon="1.01603">
        <ele>1399.4</ele>
        <time>2018-11-24T04:52:18Z</time>
      </trkpt>
      <trkpt lat="42.82955" lon="1.01603">
        <ele>1399.4</ele>
        <time>2018-11-24T04:52:20Z</time>
      </trkpt>
      <trkpt lat="42.82957" lon="1.01603">
        <ele>1398.4</ele>
        <time>2018-11-24T04:52:20Z</time>
      </trkpt>
      <trkpt lat="42.82952" lon="1.01601">
        <ele>1398.4</ele>
        <time>2018-11-24T04:52:22Z</time>
      </trkpt>
      <trkpt lat="42.82953" lon="1.01603">
        <ele>1399.3</ele>
        <time>2018-11-24T04:52:23Z</time>
      </trkpt>
      <trkpt lat="42.82952" lon="1.01598">
        <ele>1399.3</ele>
        <time>2018-11-24T04:52:24Z</time>
      </trkpt>
      <trkpt lat="42.82952" lon="1.01609">
        <ele>1399.4</ele>
        <time>2018-11-24T04:52:28Z</time>
      </trkpt>
      <trkpt lat="42.82954" lon="1.01607">
        <ele>1399.9</ele>
        <time>2018-11-24T04:52:29Z</time>
      </trkpt>
      <trkpt lat="42.82956" lon="1.01605">
        <ele>1399.8</ele>
        <time>2018-11-24T04:52:30Z</time>
      </trkpt>
      <trkpt lat="42.82956" lon="1.01604">
        <ele>1399.8</ele>
        <time>2018-11-24T04:52:30Z</time>
      </trkpt>
      <trkpt lat="42.8296" lon="1.01605">
        <ele>1399.8</ele>
        <time>2018-11-24T04:52:32Z</time>
      </trkpt>
      <trkpt lat="42.8296" lon="1.01606">
        <ele>1400.4</ele>
        <time>2018-11-24T04:52:32Z</time>
      </trkpt>
      <trkpt lat="42.82953" lon="1.01603">
        <ele>1400.3</ele>
        <time>2018-11-24T04:52:36Z</time>
      </trkpt>
      <trkpt lat="42.82952" lon="1.01594">
        <ele>1403.8</ele>
        <time>2018-11-24T04:52:38Z</time>
      </trkpt>
      <trkpt lat="42.82941" lon="1.01584">
        <ele>1406.7</ele>
        <time>2018-11-24T04:52:43Z</time>
      </trkpt>
      <trkpt lat="42.82927" lon="1.01578">
        <ele>1409.4</ele>
        <time>2018-11-24T04:52:49Z</time>
      </trkpt>
      <trkpt lat="42.82925" lon="1.01571">
        <ele>1411.8</ele>
        <time>2018-11-24T04:52:52Z</time>
      </trkpt>
      <trkpt lat="42.82939" lon="1.01561">
        <ele>1415.2</ele>
        <time>2018-11-24T04:52:58Z</time>
      </trkpt>
      <trkpt lat="42.82942" lon="1.0156">
        <ele>1415.7</ele>
        <time>2018-11-24T04:52:59Z</time>
      </trkpt>
      <trkpt lat="42.82955" lon="1.0155">
        <ele>1418.7</ele>
        <time>2018-11-24T04:53:05Z</time>
      </trkpt>
      <trkpt lat="42.82948" lon="1.01545">
        <ele>1421.1</ele>
        <time>2018-11-24T04:53:08Z</time>
      </trkpt>
      <trkpt lat="42.82939" lon="1.01544">
        <ele>1421.9</ele>
        <time>2018-11-24T04:53:12Z</time>
      </trkpt>
      <trkpt lat="42.82935" lon="1.01543">
        <ele>1422.4</ele>
        <time>2018-11-24T04:53:13Z</time>
      </trkpt>
      <trkpt lat="42.82913" lon="1.01539">
        <ele>1425.3</ele>
        <time>2018-11-24T04:53:22Z</time>
      </trkpt>
      <trkpt lat="42.82897" lon="1.01534">
        <ele>1428.3</ele>
        <time>2018-11-24T04:53:29Z</time>
      </trkpt>
      <trkpt lat="42.8288" lon="1.01536">
        <ele>1431.2</ele>
        <time>2018-11-24T04:53:36Z</time>
      </trkpt>
      <trkpt lat="42.82861" lon="1.01539">
        <ele>1433.9</ele>
        <time>2018-11-24T04:53:43Z</time>
      </trkpt>
      <trkpt lat="42.82847" lon="1.01548">
        <ele>1436.4</ele>
        <time>2018-11-24T04:53:50Z</time>
      </trkpt>
      <trkpt lat="42.82841" lon="1.01552">
        <ele>1439.7</ele>
        <time>2018-11-24T04:53:52Z</time>
      </trkpt>
      <trkpt lat="42.8284" lon="1.01553">
        <ele>1439.3</ele>
        <time>2018-11-24T04:53:53Z</time>
      </trkpt>
      <trkpt lat="42.82818" lon="1.01567">
        <ele>1441.2</ele>
        <time>2018-11-24T04:54:02Z</time>
      </trkpt>
      <trkpt lat="42.82795" lon="1.01576">
        <ele>1443.6</ele>
        <time>2018-11-24T04:54:12Z</time>
      </trkpt>
      <trkpt lat="42.82788" lon="1.01579">
        <ele>1444.6</ele>
        <time>2018-11-24T04:54:15Z</time>
      </trkpt>
      <trkpt lat="42.82783" lon="1.01597">
        <ele>1447.5</ele>
        <time>2018-11-24T04:54:21Z</time>
      </trkpt>
      <trkpt lat="42.82778" lon="1.01611">
        <ele>1450.4</ele>
        <time>2018-11-24T04:54:25Z</time>
      </trkpt>
      <trkpt lat="42.82773" lon="1.0162">
        <ele>1452.2</ele>
        <time>2018-11-24T04:54:29Z</time>
      </trkpt>
      <trkpt lat="42.82771" lon="1.0163">
        <ele>1452.8</ele>
        <time>2018-11-24T04:54:32Z</time>
      </trkpt>
      <trkpt lat="42.8277" lon="1.01636">
        <ele>1453.7</ele>
        <time>2018-11-24T04:54:33Z</time>
      </trkpt>
      <trkpt lat="42.82765" lon="1.0165">
        <ele>1455.6</ele>
        <time>2018-11-24T04:54:38Z</time>
      </trkpt>
      <trkpt lat="42.82761" lon="1.01667">
        <ele>1458</ele>
        <time>2018-11-24T04:54:43Z</time>
      </trkpt>
      <trkpt lat="42.82756" lon="1.01667">
        <ele>1460.9</ele>
        <time>2018-11-24T04:54:45Z</time>
      </trkpt>
      <trkpt lat="42.82753" lon="1.01653">
        <ele>1462.8</ele>
        <time>2018-11-24T04:54:50Z</time>
      </trkpt>
      <trkpt lat="42.82749" lon="1.01644">
        <ele>1464.3</ele>
        <time>2018-11-24T04:54:53Z</time>
      </trkpt>
      <trkpt lat="42.82746" lon="1.01626">
        <ele>1466.7</ele>
        <time>2018-11-24T04:54:58Z</time>
      </trkpt>
      <trkpt lat="42.82744" lon="1.01611">
        <ele>1468.6</ele>
        <time>2018-11-24T04:55:03Z</time>
      </trkpt>
      <trkpt lat="42.8274" lon="1.01597">
        <ele>1471.5</ele>
        <time>2018-11-24T04:55:07Z</time>
      </trkpt>
      <trkpt lat="42.82736" lon="1.01612">
        <ele>1472.9</ele>
        <time>2018-11-24T04:55:11Z</time>
      </trkpt>
      <trkpt lat="42.82734" lon="1.01632">
        <ele>1474.3</ele>
        <time>2018-11-24T04:55:17Z</time>
      </trkpt>
      <trkpt lat="42.82732" lon="1.01651">
        <ele>1476.8</ele>
        <time>2018-11-24T04:55:23Z</time>
      </trkpt>
      <trkpt lat="42.82727" lon="1.01639">
        <ele>1478.8</ele>
        <time>2018-11-24T04:55:27Z</time>
      </trkpt>
      <trkpt lat="42.82725" lon="1.01631">
        <ele>1479.7</ele>
        <time>2018-11-24T04:55:30Z</time>
      </trkpt>
      <trkpt lat="42.82724" lon="1.01627">
        <ele>1480.1</ele>
        <time>2018-11-24T04:55:31Z</time>
      </trkpt>
      <trkpt lat="42.82722" lon="1.01609">
        <ele>1483</ele>
        <time>2018-11-24T04:55:36Z</time>
      </trkpt>
      <trkpt lat="42.8272" lon="1.01595">
        <ele>1484.4</ele>
        <time>2018-11-24T04:55:40Z</time>
      </trkpt>
      <trkpt lat="42.8272" lon="1.01583">
        <ele>1486.4</ele>
        <time>2018-11-24T04:55:44Z</time>
      </trkpt>
      <trkpt lat="42.82716" lon="1.01583">
        <ele>1488.8</ele>
        <time>2018-11-24T04:55:46Z</time>
      </trkpt>
      <trkpt lat="42.82712" lon="1.01592">
        <ele>1490.8</ele>
        <time>2018-11-24T04:55:49Z</time>
      </trkpt>
      <trkpt lat="42.82707" lon="1.01607">
        <ele>1492.6</ele>
        <time>2018-11-24T04:55:53Z</time>
      </trkpt>
      <trkpt lat="42.82703" lon="1.01621">
        <ele>1494.5</ele>
        <time>2018-11-24T04:55:58Z</time>
      </trkpt>
      <trkpt lat="42.82702" lon="1.01632">
        <ele>1495.5</ele>
        <time>2018-11-24T04:56:01Z</time>
      </trkpt>
      <trkpt lat="42.82699" lon="1.01636">
        <ele>1498.4</ele>
        <time>2018-11-24T04:56:03Z</time>
      </trkpt>
      <trkpt lat="42.82696" lon="1.01629">
        <ele>1498.8</ele>
        <time>2018-11-24T04:56:05Z</time>
      </trkpt>
      <trkpt lat="42.82696" lon="1.01628">
        <ele>1498.9</ele>
        <time>2018-11-24T04:56:05Z</time>
      </trkpt>
      <trkpt lat="42.8269" lon="1.01613">
        <ele>1500.8</ele>
        <time>2018-11-24T04:56:11Z</time>
      </trkpt>
      <trkpt lat="42.82686" lon="1.01598">
        <ele>1503.2</ele>
        <time>2018-11-24T04:56:15Z</time>
      </trkpt>
      <trkpt lat="42.82687" lon="1.0158">
        <ele>1506</ele>
        <time>2018-11-24T04:56:21Z</time>
      </trkpt>
      <trkpt lat="42.82691" lon="1.01567">
        <ele>1508.1</ele>
        <time>2018-11-24T04:56:25Z</time>
      </trkpt>
      <trkpt lat="42.82689" lon="1.01568">
        <ele>1510</ele>
        <time>2018-11-24T04:56:26Z</time>
      </trkpt>
      <trkpt lat="42.82682" lon="1.01581">
        <ele>1511.8</ele>
        <time>2018-11-24T04:56:30Z</time>
      </trkpt>
      <trkpt lat="42.82677" lon="1.01588">
        <ele>1513.8</ele>
        <time>2018-11-24T04:56:33Z</time>
      </trkpt>
      <trkpt lat="42.82672" lon="1.01601">
        <ele>1516.1</ele>
        <time>2018-11-24T04:56:38Z</time>
      </trkpt>
      <trkpt lat="42.8267" lon="1.01618">
        <ele>1518.2</ele>
        <time>2018-11-24T04:56:43Z</time>
      </trkpt>
      <trkpt lat="42.82666" lon="1.0162">
        <ele>1520.9</ele>
        <time>2018-11-24T04:56:44Z</time>
      </trkpt>
      <trkpt lat="42.82658" lon="1.01608">
        <ele>1523.8</ele>
        <time>2018-11-24T04:56:49Z</time>
      </trkpt>
      <trkpt lat="42.82654" lon="1.01595">
        <ele>1526.8</ele>
        <time>2018-11-24T04:56:53Z</time>
      </trkpt>
      <trkpt lat="42.8265" lon="1.01581">
        <ele>1529.1</ele>
        <time>2018-11-24T04:56:58Z</time>
      </trkpt>
      <trkpt lat="42.82652" lon="1.01572">
        <ele>1529.6</ele>
        <time>2018-11-24T04:57:01Z</time>
      </trkpt>
      <trkpt lat="42.82651" lon="1.01571">
        <ele>1529.7</ele>
        <time>2018-11-24T04:57:01Z</time>
      </trkpt>
      <trkpt lat="42.82651" lon="1.0157">
        <ele>1529.6</ele>
        <time>2018-11-24T04:57:01Z</time>
      </trkpt>
      <trkpt lat="42.82654" lon="1.01556">
        <ele>1528.7</ele>
        <time>2018-11-24T04:57:06Z</time>
      </trkpt>
      <trkpt lat="42.82654" lon="1.01553">
        <ele>1528.7</ele>
        <time>2018-11-24T04:57:07Z</time>
      </trkpt>
      <trkpt lat="42.82652" lon="1.01547">
        <ele>1530.2</ele>
        <time>2018-11-24T04:57:08Z</time>
      </trkpt>
      <trkpt lat="42.82654" lon="1.01539">
        <ele>1529.2</ele>
        <time>2018-11-24T04:57:11Z</time>
      </trkpt>
      <trkpt lat="42.82654" lon="1.01538">
        <ele>1529.2</ele>
        <time>2018-11-24T04:57:11Z</time>
      </trkpt>
      <trkpt lat="42.82651" lon="1.01529">
        <ele>1527.3</ele>
        <time>2018-11-24T04:57:14Z</time>
      </trkpt>
      <trkpt lat="42.82651" lon="1.01528">
        <ele>1527.2</ele>
        <time>2018-11-24T04:57:15Z</time>
      </trkpt>
      <trkpt lat="42.82653" lon="1.01529">
        <ele>1527.3</ele>
        <time>2018-11-24T04:57:15Z</time>
      </trkpt>
      <trkpt lat="42.82647" lon="1.01528">
        <ele>1527.2</ele>
        <time>2018-11-24T04:57:18Z</time>
      </trkpt>
      <trkpt lat="42.82648" lon="1.01529">
        <ele>1527.7</ele>
        <time>2018-11-24T04:57:19Z</time>
      </trkpt>
      <trkpt lat="42.82648" lon="1.01532">
        <ele>1529.1</ele>
        <time>2018-11-24T04:57:20Z</time>
      </trkpt>
      <trkpt lat="42.82641" lon="1.01532">
        <ele>1532.1</ele>
        <time>2018-11-24T04:57:22Z</time>
      </trkpt>
      <trkpt lat="42.82631" lon="1.01522">
        <ele>1535</ele>
        <time>2018-11-24T04:57:27Z</time>
      </trkpt>
      <trkpt lat="42.82631" lon="1.01533">
        <ele>1537.9</ele>
        <time>2018-11-24T04:57:31Z</time>
      </trkpt>
      <trkpt lat="42.82632" lon="1.01552">
        <ele>1540.7</ele>
        <time>2018-11-24T04:57:36Z</time>
      </trkpt>
      <trkpt lat="42.82632" lon="1.01557">
        <ele>1540.7</ele>
        <time>2018-11-24T04:57:38Z</time>
      </trkpt>
      <trkpt lat="42.82627" lon="1.01559">
        <ele>1543.2</ele>
        <time>2018-11-24T04:57:40Z</time>
      </trkpt>
      <trkpt lat="42.82619" lon="1.01541">
        <ele>1546.4</ele>
        <time>2018-11-24T04:57:46Z</time>
      </trkpt>
      <trkpt lat="42.82609" lon="1.01531">
        <ele>1548.9</ele>
        <time>2018-11-24T04:57:51Z</time>
      </trkpt>
      <trkpt lat="42.82608" lon="1.0153">
        <ele>1549.8</ele>
        <time>2018-11-24T04:57:51Z</time>
      </trkpt>
      <trkpt lat="42.82592" lon="1.01511">
        <ele>1552.7</ele>
        <time>2018-11-24T04:58:00Z</time>
      </trkpt>
      <trkpt lat="42.82589" lon="1.01508">
        <ele>1553.2</ele>
        <time>2018-11-24T04:58:01Z</time>
      </trkpt>
      <trkpt lat="42.82581" lon="1.01487">
        <ele>1555.1</ele>
        <time>2018-11-24T04:58:08Z</time>
      </trkpt>
      <trkpt lat="42.82576" lon="1.01468">
        <ele>1558.5</ele>
        <time>2018-11-24T04:58:14Z</time>
      </trkpt>
      <trkpt lat="42.82571" lon="1.01443">
        <ele>1561.3</ele>
        <time>2018-11-24T04:58:22Z</time>
      </trkpt>
      <trkpt lat="42.82568" lon="1.01419">
        <ele>1564.2</ele>
        <time>2018-11-24T04:58:29Z</time>
      </trkpt>
      <trkpt lat="42.82568" lon="1.014">
        <ele>1567.1</ele>
        <time>2018-11-24T04:58:34Z</time>
      </trkpt>
      <trkpt lat="42.82568" lon="1.01384">
        <ele>1570.5</ele>
        <time>2018-11-24T04:58:39Z</time>
      </trkpt>
      <trkpt lat="42.82569" lon="1.0137">
        <ele>1573.4</ele>
        <time>2018-11-24T04:58:43Z</time>
      </trkpt>
      <trkpt lat="42.82574" lon="1.01349">
        <ele>1576.8</ele>
        <time>2018-11-24T04:58:50Z</time>
      </trkpt>
      <trkpt lat="42.82578" lon="1.01336">
        <ele>1579.6</ele>
        <time>2018-11-24T04:58:54Z</time>
      </trkpt>
      <trkpt lat="42.82581" lon="1.01329">
        <ele>1580.6</ele>
        <time>2018-11-24T04:58:56Z</time>
      </trkpt>
      <trkpt lat="42.82582" lon="1.01325">
        <ele>1581</ele>
        <time>2018-11-24T04:58:58Z</time>
      </trkpt>
      <trkpt lat="42.82582" lon="1.01316">
        <ele>1582</ele>
        <time>2018-11-24T04:59:00Z</time>
      </trkpt>
      <trkpt lat="42.82594" lon="1.0129">
        <ele>1585.8</ele>
        <time>2018-11-24T04:59:09Z</time>
      </trkpt>
      <trkpt lat="42.826" lon="1.01272">
        <ele>1589.3</ele>
        <time>2018-11-24T04:59:15Z</time>
      </trkpt>
      <trkpt lat="42.826" lon="1.01261">
        <ele>1592.1</ele>
        <time>2018-11-24T04:59:18Z</time>
      </trkpt>
      <trkpt lat="42.82573" lon="1.01263">
        <ele>1595</ele>
        <time>2018-11-24T04:59:29Z</time>
      </trkpt>
      <trkpt lat="42.82568" lon="1.01264">
        <ele>1595.9</ele>
        <time>2018-11-24T04:59:31Z</time>
      </trkpt>
      <trkpt lat="42.82557" lon="1.01267">
        <ele>1599.8</ele>
        <time>2018-11-24T04:59:36Z</time>
      </trkpt>
      <trkpt lat="42.82556" lon="1.01267">
        <ele>1600.4</ele>
        <time>2018-11-24T04:59:36Z</time>
      </trkpt>
      <trkpt lat="42.8256" lon="1.01254">
        <ele>1603.2</ele>
        <time>2018-11-24T04:59:40Z</time>
      </trkpt>
      <trkpt lat="42.82569" lon="1.01231">
        <ele>1606.6</ele>
        <time>2018-11-24T04:59:48Z</time>
      </trkpt>
      <trkpt lat="42.82579" lon="1.01211">
        <ele>1609.5</ele>
        <time>2018-11-24T04:59:55Z</time>
      </trkpt>
      <trkpt lat="42.82581" lon="1.01204">
        <ele>1611.3</ele>
        <time>2018-11-24T04:59:57Z</time>
      </trkpt>
      <trkpt lat="42.82554" lon="1.01213">
        <ele>1613.7</ele>
        <time>2018-11-24T05:00:09Z</time>
      </trkpt>
      <trkpt lat="42.82536" lon="1.01232">
        <ele>1616.1</ele>
        <time>2018-11-24T05:00:18Z</time>
      </trkpt>
      <trkpt lat="42.82535" lon="1.01234">
        <ele>1617.2</ele>
        <time>2018-11-24T05:00:18Z</time>
      </trkpt>
      <trkpt lat="42.82523" lon="1.01251">
        <ele>1620.4</ele>
        <time>2018-11-24T05:00:26Z</time>
      </trkpt>
      <trkpt lat="42.82519" lon="1.01269">
        <ele>1623.4</ele>
        <time>2018-11-24T05:00:31Z</time>
      </trkpt>
      <trkpt lat="42.82518" lon="1.01276">
        <ele>1624.3</ele>
        <time>2018-11-24T05:00:33Z</time>
      </trkpt>
      <trkpt lat="42.82513" lon="1.01291">
        <ele>1626.3</ele>
        <time>2018-11-24T05:00:38Z</time>
      </trkpt>
      <trkpt lat="42.82508" lon="1.01291">
        <ele>1629.2</ele>
        <time>2018-11-24T05:00:40Z</time>
      </trkpt>
      <trkpt lat="42.82506" lon="1.01285">
        <ele>1631.6</ele>
        <time>2018-11-24T05:00:42Z</time>
      </trkpt>
      <trkpt lat="42.825" lon="1.01283">
        <ele>1634.5</ele>
        <time>2018-11-24T05:00:45Z</time>
      </trkpt>
      <trkpt lat="42.82497" lon="1.01288">
        <ele>1635</ele>
        <time>2018-11-24T05:00:47Z</time>
      </trkpt>
      <trkpt lat="42.82494" lon="1.01285">
        <ele>1636.3</ele>
        <time>2018-11-24T05:00:48Z</time>
      </trkpt>
      <trkpt lat="42.82495" lon="1.01285">
        <ele>1636.3</ele>
        <time>2018-11-24T05:00:48Z</time>
      </trkpt>
      <trkpt lat="42.82494" lon="1.01281">
        <ele>1637.7</ele>
        <time>2018-11-24T05:00:49Z</time>
      </trkpt>
      <trkpt lat="42.82492" lon="1.01269">
        <ele>1640.7</ele>
        <time>2018-11-24T05:00:53Z</time>
      </trkpt>
      <trkpt lat="42.82494" lon="1.01252">
        <ele>1644.1</ele>
        <time>2018-11-24T05:00:58Z</time>
      </trkpt>
      <trkpt lat="42.82491" lon="1.01246">
        <ele>1645.9</ele>
        <time>2018-11-24T05:01:00Z</time>
      </trkpt>
      <trkpt lat="42.8249" lon="1.01244">
        <ele>1646.9</ele>
        <time>2018-11-24T05:01:01Z</time>
      </trkpt>
      <trkpt lat="42.82491" lon="1.01245">
        <ele>1647.4</ele>
        <time>2018-11-24T05:01:01Z</time>
      </trkpt>
      <trkpt lat="42.82488" lon="1.01237">
        <ele>1648.8</ele>
        <time>2018-11-24T05:01:04Z</time>
      </trkpt>
      <trkpt lat="42.82484" lon="1.01227">
        <ele>1651.3</ele>
        <time>2018-11-24T05:01:07Z</time>
      </trkpt>
      <trkpt lat="42.82483" lon="1.01219">
        <ele>1653.7</ele>
        <time>2018-11-24T05:01:10Z</time>
      </trkpt>
      <trkpt lat="42.8248" lon="1.01207">
        <ele>1656.6</ele>
        <time>2018-11-24T05:01:13Z</time>
      </trkpt>
      <trkpt lat="42.82478" lon="1.01201">
        <ele>1658.4</ele>
        <time>2018-11-24T05:01:15Z</time>
      </trkpt>
      <trkpt lat="42.8248" lon="1.01199">
        <ele>1659.4</ele>
        <time>2018-11-24T05:01:16Z</time>
      </trkpt>
      <trkpt lat="42.82482" lon="1.01185">
        <ele>1662.7</ele>
        <time>2018-11-24T05:01:20Z</time>
      </trkpt>
      <trkpt lat="42.82481" lon="1.01182">
        <ele>1663.7</ele>
        <time>2018-11-24T05:01:21Z</time>
      </trkpt>
      <trkpt lat="42.82478" lon="1.01182">
        <ele>1664.2</ele>
        <time>2018-11-24T05:01:22Z</time>
      </trkpt>
      <trkpt lat="42.82475" lon="1.01183">
        <ele>1664.2</ele>
        <time>2018-11-24T05:01:23Z</time>
      </trkpt>
      <trkpt lat="42.82473" lon="1.01191">
        <ele>1665.7</ele>
        <time>2018-11-24T05:01:26Z</time>
      </trkpt>
      <trkpt lat="42.82472" lon="1.01189">
        <ele>1665.6</ele>
        <time>2018-11-24T05:01:27Z</time>
      </trkpt>
      <trkpt lat="42.82474" lon="1.01187">
        <ele>1665.7</ele>
        <time>2018-11-24T05:01:27Z</time>
      </trkpt>
      <trkpt lat="42.82472" lon="1.0119">
        <ele>1666.1</ele>
        <time>2018-11-24T05:01:29Z</time>
      </trkpt>
      <trkpt lat="42.82465" lon="1.01197">
        <ele>1668.5</ele>
        <time>2018-11-24T05:01:32Z</time>
      </trkpt>
      <trkpt lat="42.82459" lon="1.01203">
        <ele>1669.9</ele>
        <time>2018-11-24T05:01:35Z</time>
      </trkpt>
      <trkpt lat="42.82455" lon="1.01211">
        <ele>1670.9</ele>
        <time>2018-11-24T05:01:38Z</time>
      </trkpt>
      <trkpt lat="42.82452" lon="1.01217">
        <ele>1671.9</ele>
        <time>2018-11-24T05:01:40Z</time>
      </trkpt>
      <trkpt lat="42.82452" lon="1.01218">
        <ele>1672.3</ele>
        <time>2018-11-24T05:01:40Z</time>
      </trkpt>
      <trkpt lat="42.8245" lon="1.01219">
        <ele>1672.4</ele>
        <time>2018-11-24T05:01:41Z</time>
      </trkpt>
      <trkpt lat="42.82445" lon="1.01224">
        <ele>1672.3</ele>
        <time>2018-11-24T05:01:44Z</time>
      </trkpt>
      <trkpt lat="42.82443" lon="1.01228">
        <ele>1672.8</ele>
        <time>2018-11-24T05:01:45Z</time>
      </trkpt>
      <trkpt lat="42.82433" lon="1.01245">
        <ele>1675.2</ele>
        <time>2018-11-24T05:01:52Z</time>
      </trkpt>
      <trkpt lat="42.82432" lon="1.0125">
        <ele>1676.3</ele>
        <time>2018-11-24T05:01:53Z</time>
      </trkpt>
      <trkpt lat="42.82431" lon="1.01254">
        <ele>1677.3</ele>
        <time>2018-11-24T05:01:54Z</time>
      </trkpt>
      <trkpt lat="42.82427" lon="1.01258">
        <ele>1678.1</ele>
        <time>2018-11-24T05:01:56Z</time>
      </trkpt>
      <trkpt lat="42.82426" lon="1.01255">
        <ele>1678.7</ele>
        <time>2018-11-24T05:01:57Z</time>
      </trkpt>
      <trkpt lat="42.82427" lon="1.01243">
        <ele>1680.1</ele>
        <time>2018-11-24T05:02:01Z</time>
      </trkpt>
      <trkpt lat="42.82428" lon="1.01235">
        <ele>1681.5</ele>
        <time>2018-11-24T05:02:03Z</time>
      </trkpt>
      <trkpt lat="42.82429" lon="1.0122">
        <ele>1684.4</ele>
        <time>2018-11-24T05:02:08Z</time>
      </trkpt>
      <trkpt lat="42.82428" lon="1.01207">
        <ele>1687.4</ele>
        <time>2018-11-24T05:02:11Z</time>
      </trkpt>
      <trkpt lat="42.8243" lon="1.01201">
        <ele>1688.2</ele>
        <time>2018-11-24T05:02:13Z</time>
      </trkpt>
      <trkpt lat="42.8243" lon="1.01193">
        <ele>1689.8</ele>
        <time>2018-11-24T05:02:16Z</time>
      </trkpt>
      <trkpt lat="42.82431" lon="1.01182">
        <ele>1691.6</ele>
        <time>2018-11-24T05:02:19Z</time>
      </trkpt>
      <trkpt lat="42.82431" lon="1.01184">
        <ele>1692.1</ele>
        <time>2018-11-24T05:02:19Z</time>
      </trkpt>
      <trkpt lat="42.8243" lon="1.01183">
        <ele>1693.1</ele>
        <time>2018-11-24T05:02:20Z</time>
      </trkpt>
      <trkpt lat="42.82434" lon="1.01168">
        <ele>1694</ele>
        <time>2018-11-24T05:02:25Z</time>
      </trkpt>
      <trkpt lat="42.82437" lon="1.01161">
        <ele>1694.9</ele>
        <time>2018-11-24T05:02:27Z</time>
      </trkpt>
      <trkpt lat="42.82443" lon="1.01147">
        <ele>1697.4</ele>
        <time>2018-11-24T05:02:32Z</time>
      </trkpt>
      <trkpt lat="42.82452" lon="1.01131">
        <ele>1700.2</ele>
        <time>2018-11-24T05:02:38Z</time>
      </trkpt>
      <trkpt lat="42.82454" lon="1.01114">
        <ele>1703.1</ele>
        <time>2018-11-24T05:02:43Z</time>
      </trkpt>
      <trkpt lat="42.82453" lon="1.01105">
        <ele>1704.1</ele>
        <time>2018-11-24T05:02:45Z</time>
      </trkpt>
      <trkpt lat="42.82454" lon="1.01096">
        <ele>1704.6</ele>
        <time>2018-11-24T05:02:48Z</time>
      </trkpt>
      <trkpt lat="42.82455" lon="1.01094">
        <ele>1704.5</ele>
        <time>2018-11-24T05:02:49Z</time>
      </trkpt>
      <trkpt lat="42.82456" lon="1.01093">
        <ele>1705.1</ele>
        <time>2018-11-24T05:02:49Z</time>
      </trkpt>
      <trkpt lat="42.82455" lon="1.01093">
        <ele>1705</ele>
        <time>2018-11-24T05:02:49Z</time>
      </trkpt>
      <trkpt lat="42.82454" lon="1.0108">
        <ele>1705.1</ele>
        <time>2018-11-24T05:02:53Z</time>
      </trkpt>
      <trkpt lat="42.82451" lon="1.01073">
        <ele>1705.1</ele>
        <time>2018-11-24T05:02:56Z</time>
      </trkpt>
      <trkpt lat="42.82449" lon="1.01061">
        <ele>1707.4</ele>
        <time>2018-11-24T05:02:59Z</time>
      </trkpt>
      <trkpt lat="42.82451" lon="1.01045">
        <ele>1710.3</ele>
        <time>2018-11-24T05:03:04Z</time>
      </trkpt>
      <trkpt lat="42.82454" lon="1.01032">
        <ele>1713.8</ele>
        <time>2018-11-24T05:03:08Z</time>
      </trkpt>
      <trkpt lat="42.82451" lon="1.01027">
        <ele>1714.2</ele>
        <time>2018-11-24T05:03:10Z</time>
      </trkpt>
      <trkpt lat="42.82439" lon="1.01036">
        <ele>1717.1</ele>
        <time>2018-11-24T05:03:15Z</time>
      </trkpt>
      <trkpt lat="42.82435" lon="1.01045">
        <ele>1717.5</ele>
        <time>2018-11-24T05:03:18Z</time>
      </trkpt>
      <trkpt lat="42.82428" lon="1.01064">
        <ele>1720</ele>
        <time>2018-11-24T05:03:24Z</time>
      </trkpt>
      <trkpt lat="42.82425" lon="1.0107">
        <ele>1721</ele>
        <time>2018-11-24T05:03:27Z</time>
      </trkpt>
      <trkpt lat="42.82417" lon="1.01081">
        <ele>1722.4</ele>
        <time>2018-11-24T05:03:31Z</time>
      </trkpt>
      <trkpt lat="42.82407" lon="1.01094">
        <ele>1724.8</ele>
        <time>2018-11-24T05:03:37Z</time>
      </trkpt>
      <trkpt lat="42.82399" lon="1.01101">
        <ele>1727.7</ele>
        <time>2018-11-24T05:03:40Z</time>
      </trkpt>
      <trkpt lat="42.82396" lon="1.01103">
        <ele>1728.7</ele>
        <time>2018-11-24T05:03:42Z</time>
      </trkpt>
      <trkpt lat="42.82395" lon="1.01105">
        <ele>1730</ele>
        <time>2018-11-24T05:03:43Z</time>
      </trkpt>
      <trkpt lat="42.82392" lon="1.01107">
        <ele>1730.1</ele>
        <time>2018-11-24T05:03:44Z</time>
      </trkpt>
      <trkpt lat="42.82379" lon="1.01114">
        <ele>1733</ele>
        <time>2018-11-24T05:03:49Z</time>
      </trkpt>
      <trkpt lat="42.82378" lon="1.01116">
        <ele>1732.9</ele>
        <time>2018-11-24T05:03:50Z</time>
      </trkpt>
      <trkpt lat="42.82366" lon="1.01126">
        <ele>1734.8</ele>
        <time>2018-11-24T05:03:56Z</time>
      </trkpt>
      <trkpt lat="42.82363" lon="1.01129">
        <ele>1735.8</ele>
        <time>2018-11-24T05:03:57Z</time>
      </trkpt>
      <trkpt lat="42.82366" lon="1.01129">
        <ele>1736.3</ele>
        <time>2018-11-24T05:03:59Z</time>
      </trkpt>
      <trkpt lat="42.82369" lon="1.01121">
        <ele>1737.3</ele>
        <time>2018-11-24T05:04:01Z</time>
      </trkpt>
      <trkpt lat="42.82374" lon="1.01108">
        <ele>1738.8</ele>
        <time>2018-11-24T05:04:06Z</time>
      </trkpt>
      <trkpt lat="42.82375" lon="1.01103">
        <ele>1738.7</ele>
        <time>2018-11-24T05:04:07Z</time>
      </trkpt>
      <trkpt lat="42.82376" lon="1.011">
        <ele>1738.7</ele>
        <time>2018-11-24T05:04:08Z</time>
      </trkpt>
      <trkpt lat="42.82378" lon="1.01095">
        <ele>1740.2</ele>
        <time>2018-11-24T05:04:10Z</time>
      </trkpt>
      <trkpt lat="42.82383" lon="1.01076">
        <ele>1742.6</ele>
        <time>2018-11-24T05:04:16Z</time>
      </trkpt>
      <trkpt lat="42.82386" lon="1.01056">
        <ele>1744.5</ele>
        <time>2018-11-24T05:04:22Z</time>
      </trkpt>
      <trkpt lat="42.82388" lon="1.0104">
        <ele>1746</ele>
        <time>2018-11-24T05:04:27Z</time>
      </trkpt>
      <trkpt lat="42.82392" lon="1.01019">
        <ele>1746.9</ele>
        <time>2018-11-24T05:04:33Z</time>
      </trkpt>
      <trkpt lat="42.82392" lon="1.00998">
        <ele>1748.8</ele>
        <time>2018-11-24T05:04:39Z</time>
      </trkpt>
      <trkpt lat="42.82394" lon="1.00991">
        <ele>1749.7</ele>
        <time>2018-11-24T05:04:41Z</time>
      </trkpt>
      <trkpt lat="42.82396" lon="1.00991">
        <ele>1749.7</ele>
        <time>2018-11-24T05:04:42Z</time>
      </trkpt>
      <trkpt lat="42.82396" lon="1.00992">
        <ele>1750.7</ele>
        <time>2018-11-24T05:04:43Z</time>
      </trkpt>
      <trkpt lat="42.82398" lon="1.00987">
        <ele>1751.8</ele>
        <time>2018-11-24T05:04:44Z</time>
      </trkpt>
      <trkpt lat="42.824" lon="1.00972">
        <ele>1754.5</ele>
        <time>2018-11-24T05:04:49Z</time>
      </trkpt>
      <trkpt lat="42.82403" lon="1.00963">
        <ele>1756.6</ele>
        <time>2018-11-24T05:04:51Z</time>
      </trkpt>
      <trkpt lat="42.82414" lon="1.00954">
        <ele>1759.8</ele>
        <time>2018-11-24T05:04:57Z</time>
      </trkpt>
      <trkpt lat="42.82419" lon="1.00944">
        <ele>1761.9</ele>
        <time>2018-11-24T05:05:00Z</time>
      </trkpt>
      <trkpt lat="42.82423" lon="1.00928">
        <ele>1762.8</ele>
        <time>2018-11-24T05:05:05Z</time>
      </trkpt>
      <trkpt lat="42.82432" lon="1.00907">
        <ele>1763.7</ele>
        <time>2018-11-24T05:05:12Z</time>
      </trkpt>
      <trkpt lat="42.82434" lon="1.00903">
        <ele>1764.6</ele>
        <time>2018-11-24T05:05:14Z</time>
      </trkpt>
      <trkpt lat="42.82438" lon="1.009">
        <ele>1765.1</ele>
        <time>2018-11-24T05:05:16Z</time>
      </trkpt>
      <trkpt lat="42.8244" lon="1.00891">
        <ele>1767</ele>
        <time>2018-11-24T05:05:18Z</time>
      </trkpt>
      <trkpt lat="42.82444" lon="1.00879">
        <ele>1769.4</ele>
        <time>2018-11-24T05:05:22Z</time>
      </trkpt>
      <trkpt lat="42.82448" lon="1.00873">
        <ele>1771.4</ele>
        <time>2018-11-24T05:05:24Z</time>
      </trkpt>
      <trkpt lat="42.82448" lon="1.00866">
        <ele>1773.3</ele>
        <time>2018-11-24T05:05:27Z</time>
      </trkpt>
      <trkpt lat="42.82455" lon="1.00857">
        <ele>1776.3</ele>
        <time>2018-11-24T05:05:31Z</time>
      </trkpt>
      <trkpt lat="42.82461" lon="1.00855">
        <ele>1777.2</ele>
        <time>2018-11-24T05:05:33Z</time>
      </trkpt>
      <trkpt lat="42.82461" lon="1.00853">
        <ele>1777.2</ele>
        <time>2018-11-24T05:05:33Z</time>
      </trkpt>
      <trkpt lat="42.8246" lon="1.00853">
        <ele>1778.2</ele>
        <time>2018-11-24T05:05:33Z</time>
      </trkpt>
      <trkpt lat="42.8246" lon="1.00853">
        <ele>1778.2</ele>
        <time>2018-11-24T05:05:34Z</time>
      </trkpt>
      <trkpt lat="42.82463" lon="1.00851">
        <ele>1779.5</ele>
        <time>2018-11-24T05:05:35Z</time>
      </trkpt>
      <trkpt lat="42.82469" lon="1.00846">
        <ele>1781.9</ele>
        <time>2018-11-24T05:05:38Z</time>
      </trkpt>
      <trkpt lat="42.82477" lon="1.00839">
        <ele>1784.8</ele>
        <time>2018-11-24T05:05:41Z</time>
      </trkpt>
      <trkpt lat="42.82479" lon="1.00835">
        <ele>1786.3</ele>
        <time>2018-11-24T05:05:43Z</time>
      </trkpt>
      <trkpt lat="42.82483" lon="1.00831">
        <ele>1787.3</ele>
        <time>2018-11-24T05:05:45Z</time>
      </trkpt>
      <trkpt lat="42.82485" lon="1.0083">
        <ele>1787.7</ele>
        <time>2018-11-24T05:05:46Z</time>
      </trkpt>
      <trkpt lat="42.82504" lon="1.00824">
        <ele>1789.7</ele>
        <time>2018-11-24T05:05:54Z</time>
      </trkpt>
      <trkpt lat="42.8251" lon="1.00822">
        <ele>1790.7</ele>
        <time>2018-11-24T05:05:56Z</time>
      </trkpt>
      <trkpt lat="42.82511" lon="1.00822">
        <ele>1790.7</ele>
        <time>2018-11-24T05:05:56Z</time>
      </trkpt>
      <trkpt lat="42.82523" lon="1.00825">
        <ele>1792.1</ele>
        <time>2018-11-24T05:06:02Z</time>
      </trkpt>
      <trkpt lat="42.82528" lon="1.00825">
        <ele>1792.6</ele>
        <time>2018-11-24T05:06:03Z</time>
      </trkpt>
      <trkpt lat="42.82533" lon="1.00826">
        <ele>1793.5</ele>
        <time>2018-11-24T05:06:05Z</time>
      </trkpt>
      <trkpt lat="42.82538" lon="1.00829">
        <ele>1794.4</ele>
        <time>2018-11-24T05:06:08Z</time>
      </trkpt>
      <trkpt lat="42.82544" lon="1.00831">
        <ele>1796</ele>
        <time>2018-11-24T05:06:10Z</time>
      </trkpt>
      <trkpt lat="42.8256" lon="1.00838">
        <ele>1797.3</ele>
        <time>2018-11-24T05:06:17Z</time>
      </trkpt>
      <trkpt lat="42.82568" lon="1.00849">
        <ele>1799.7</ele>
        <time>2018-11-24T05:06:21Z</time>
      </trkpt>
      <trkpt lat="42.82573" lon="1.00866">
        <ele>1801.2</ele>
        <time>2018-11-24T05:06:27Z</time>
      </trkpt>
      <trkpt lat="42.82585" lon="1.00881">
        <ele>1804.5</ele>
        <time>2018-11-24T05:06:33Z</time>
      </trkpt>
      <trkpt lat="42.82595" lon="1.00885">
        <ele>1806.6</ele>
        <time>2018-11-24T05:06:37Z</time>
      </trkpt>
      <trkpt lat="42.82605" lon="1.00887">
        <ele>1809.8</ele>
        <time>2018-11-24T05:06:41Z</time>
      </trkpt>
      <trkpt lat="42.82605" lon="1.00888">
        <ele>1809.9</ele>
        <time>2018-11-24T05:06:42Z</time>
      </trkpt>
      <trkpt lat="42.8261" lon="1.0089">
        <ele>1810.9</ele>
        <time>2018-11-24T05:06:43Z</time>
      </trkpt>
      <trkpt lat="42.82612" lon="1.0089">
        <ele>1810.9</ele>
        <time>2018-11-24T05:06:44Z</time>
      </trkpt>
      <trkpt lat="42.82614" lon="1.00888">
        <ele>1811.4</ele>
        <time>2018-11-24T05:06:45Z</time>
      </trkpt>
      <trkpt lat="42.82619" lon="1.00886">
        <ele>1811.8</ele>
        <time>2018-11-24T05:06:47Z</time>
      </trkpt>
      <trkpt lat="42.82625" lon="1.00879">
        <ele>1813.2</ele>
        <time>2018-11-24T05:06:50Z</time>
      </trkpt>
      <trkpt lat="42.82638" lon="1.00863">
        <ele>1813.7</ele>
        <time>2018-11-24T05:06:57Z</time>
      </trkpt>
      <trkpt lat="42.8264" lon="1.00861">
        <ele>1812.2</ele>
        <time>2018-11-24T05:06:58Z</time>
      </trkpt>
      <trkpt lat="42.82644" lon="1.0085">
        <ele>1812.7</ele>
        <time>2018-11-24T05:07:02Z</time>
      </trkpt>
      <trkpt lat="42.82648" lon="1.00845">
        <ele>1813.8</ele>
        <time>2018-11-24T05:07:04Z</time>
      </trkpt>
      <trkpt lat="42.82656" lon="1.00836">
        <ele>1812.3</ele>
        <time>2018-11-24T05:07:08Z</time>
      </trkpt>
      <trkpt lat="42.82661" lon="1.00825">
        <ele>1811.7</ele>
        <time>2018-11-24T05:07:12Z</time>
      </trkpt>
      <trkpt lat="42.82665" lon="1.0082">
        <ele>1810.9</ele>
        <time>2018-11-24T05:07:14Z</time>
      </trkpt>
      <trkpt lat="42.82674" lon="1.00801">
        <ele>1809.9</ele>
        <time>2018-11-24T05:07:21Z</time>
      </trkpt>
      <trkpt lat="42.82681" lon="1.0079">
        <ele>1809.9</ele>
        <time>2018-11-24T05:07:25Z</time>
      </trkpt>
      <trkpt lat="42.82683" lon="1.00788">
        <ele>1809.8</ele>
        <time>2018-11-24T05:07:26Z</time>
      </trkpt>
      <trkpt lat="42.82698" lon="1.00776">
        <ele>1806.6</ele>
        <time>2018-11-24T05:07:33Z</time>
      </trkpt>
      <trkpt lat="42.82709" lon="1.00766">
        <ele>1803.7</ele>
        <time>2018-11-24T05:07:38Z</time>
      </trkpt>
      <trkpt lat="42.82711" lon="1.00764">
        <ele>1803.1</ele>
        <time>2018-11-24T05:07:40Z</time>
      </trkpt>
      <trkpt lat="42.82729" lon="1.0074">
        <ele>1799.7</ele>
        <time>2018-11-24T05:07:50Z</time>
      </trkpt>
      <trkpt lat="42.82734" lon="1.00732">
        <ele>1799.8</ele>
        <time>2018-11-24T05:07:53Z</time>
      </trkpt>
      <trkpt lat="42.82745" lon="1.00716">
        <ele>1797.8</ele>
        <time>2018-11-24T05:07:59Z</time>
      </trkpt>
      <trkpt lat="42.82749" lon="1.0071">
        <ele>1796.8</ele>
        <time>2018-11-24T05:08:02Z</time>
      </trkpt>
      <trkpt lat="42.82758" lon="1.00695">
        <ele>1793.5</ele>
        <time>2018-11-24T05:08:07Z</time>
      </trkpt>
      <trkpt lat="42.82763" lon="1.00683">
        <ele>1791.6</ele>
        <time>2018-11-24T05:08:11Z</time>
      </trkpt>
      <trkpt lat="42.82772" lon="1.00661">
        <ele>1789.1</ele>
        <time>2018-11-24T05:08:19Z</time>
      </trkpt>
      <trkpt lat="42.82781" lon="1.00646">
        <ele>1788.2</ele>
        <time>2018-11-24T05:08:24Z</time>
      </trkpt>
      <trkpt lat="42.82804" lon="1.00617">
        <ele>1786.3</ele>
        <time>2018-11-24T05:08:37Z</time>
      </trkpt>
      <trkpt lat="42.82822" lon="1.00596">
        <ele>1783.5</ele>
        <time>2018-11-24T05:08:46Z</time>
      </trkpt>
      <trkpt lat="42.82843" lon="1.00574">
        <ele>1782.4</ele>
        <time>2018-11-24T05:08:57Z</time>
      </trkpt>
      <trkpt lat="42.82864" lon="1.00562">
        <ele>1783.4</ele>
        <time>2018-11-24T05:09:06Z</time>
      </trkpt>
      <trkpt lat="42.82886" lon="1.00552">
        <ele>1785.3</ele>
        <time>2018-11-24T05:09:15Z</time>
      </trkpt>
      <trkpt lat="42.82894" lon="1.00546">
        <ele>1788.2</ele>
        <time>2018-11-24T05:09:19Z</time>
      </trkpt>
      <trkpt lat="42.82897" lon="1.00545">
        <ele>1789.2</ele>
        <time>2018-11-24T05:09:20Z</time>
      </trkpt>
      <trkpt lat="42.82901" lon="1.00542">
        <ele>1789.7</ele>
        <time>2018-11-24T05:09:22Z</time>
      </trkpt>
      <trkpt lat="42.82917" lon="1.00538">
        <ele>1792.5</ele>
        <time>2018-11-24T05:09:28Z</time>
      </trkpt>
      <trkpt lat="42.82922" lon="1.00534">
        <ele>1794.1</ele>
        <time>2018-11-24T05:09:31Z</time>
      </trkpt>
      <trkpt lat="42.82924" lon="1.00525">
        <ele>1797.4</ele>
        <time>2018-11-24T05:09:34Z</time>
      </trkpt>
      <trkpt lat="42.82916" lon="1.00517">
        <ele>1798.9</ele>
        <time>2018-11-24T05:09:38Z</time>
      </trkpt>
      <trkpt lat="42.82909" lon="1.00515">
        <ele>1800.8</ele>
        <time>2018-11-24T05:09:40Z</time>
      </trkpt>
      <trkpt lat="42.82903" lon="1.00507">
        <ele>1803.2</ele>
        <time>2018-11-24T05:09:44Z</time>
      </trkpt>
      <trkpt lat="42.82898" lon="1.005">
        <ele>1806</ele>
        <time>2018-11-24T05:09:47Z</time>
      </trkpt>
      <trkpt lat="42.82904" lon="1.00492">
        <ele>1808.4</ele>
        <time>2018-11-24T05:09:50Z</time>
      </trkpt>
      <trkpt lat="42.82909" lon="1.00481">
        <ele>1810.3</ele>
        <time>2018-11-24T05:09:54Z</time>
      </trkpt>
      <trkpt lat="42.8291" lon="1.0047">
        <ele>1812.3</ele>
        <time>2018-11-24T05:09:57Z</time>
      </trkpt>
      <trkpt lat="42.82912" lon="1.00459">
        <ele>1812.3</ele>
        <time>2018-11-24T05:10:01Z</time>
      </trkpt>
      <trkpt lat="42.82905" lon="1.00453">
        <ele>1813.2</ele>
        <time>2018-11-24T05:10:04Z</time>
      </trkpt>
      <trkpt lat="42.82901" lon="1.00453">
        <ele>1813.2</ele>
        <time>2018-11-24T05:10:05Z</time>
      </trkpt>
      <trkpt lat="42.82896" lon="1.0045">
        <ele>1813.2</ele>
        <time>2018-11-24T05:10:08Z</time>
      </trkpt>
      <trkpt lat="42.82892" lon="1.00449">
        <ele>1811.8</ele>
        <time>2018-11-24T05:10:09Z</time>
      </trkpt>
      <trkpt lat="42.82893" lon="1.00449">
        <ele>1811.8</ele>
        <time>2018-11-24T05:10:10Z</time>
      </trkpt>
      <trkpt lat="42.82901" lon="1.00454">
        <ele>1812.8</ele>
        <time>2018-11-24T05:10:13Z</time>
      </trkpt>
      <trkpt lat="42.82897" lon="1.00451">
        <ele>1813.3</ele>
        <time>2018-11-24T05:10:15Z</time>
      </trkpt>
      <trkpt lat="42.82893" lon="1.0045">
        <ele>1813.2</ele>
        <time>2018-11-24T05:10:17Z</time>
      </trkpt>
      <trkpt lat="42.82901" lon="1.00453">
        <ele>1813.7</ele>
        <time>2018-11-24T05:10:20Z</time>
      </trkpt>
      <trkpt lat="42.82899" lon="1.00453">
        <ele>1813.7</ele>
        <time>2018-11-24T05:10:20Z</time>
      </trkpt>
      <trkpt lat="42.82902" lon="1.00454">
        <ele>1813.7</ele>
        <time>2018-11-24T05:10:21Z</time>
      </trkpt>
      <trkpt lat="42.82896" lon="1.00447">
        <ele>1813.7</ele>
        <time>2018-11-24T05:10:24Z</time>
      </trkpt>
      <trkpt lat="42.82891" lon="1.00438">
        <ele>1812.7</ele>
        <time>2018-11-24T05:10:28Z</time>
      </trkpt>
      <trkpt lat="42.82876" lon="1.00418">
        <ele>1811.7</ele>
        <time>2018-11-24T05:10:36Z</time>
      </trkpt>
      <trkpt lat="42.82875" lon="1.00417">
        <ele>1811.8</ele>
        <time>2018-11-24T05:10:37Z</time>
      </trkpt>
      <trkpt lat="42.82864" lon="1.0041">
        <ele>1811.7</ele>
        <time>2018-11-24T05:10:41Z</time>
      </trkpt>
      <trkpt lat="42.82864" lon="1.00409">
        <ele>1811.8</ele>
        <time>2018-11-24T05:10:42Z</time>
      </trkpt>
      <trkpt lat="42.8286" lon="1.00408">
        <ele>1813.3</ele>
        <time>2018-11-24T05:10:43Z</time>
      </trkpt>
      <trkpt lat="42.82859" lon="1.00406">
        <ele>1813.7</ele>
        <time>2018-11-24T05:10:44Z</time>
      </trkpt>
      <trkpt lat="42.82858" lon="1.00407">
        <ele>1813.2</ele>
        <time>2018-11-24T05:10:45Z</time>
      </trkpt>
      <trkpt lat="42.82859" lon="1.00406">
        <ele>1813.2</ele>
        <time>2018-11-24T05:10:45Z</time>
      </trkpt>
      <trkpt lat="42.82859" lon="1.00406">
        <ele>1813.7</ele>
        <time>2018-11-24T05:10:45Z</time>
      </trkpt>
      <trkpt lat="42.82859" lon="1.00405">
        <ele>1813.7</ele>
        <time>2018-11-24T05:10:45Z</time>
      </trkpt>
      <trkpt lat="42.82859" lon="1.00406">
        <ele>1814.2</ele>
        <time>2018-11-24T05:10:46Z</time>
      </trkpt>
      <trkpt lat="42.82859" lon="1.00405">
        <ele>1814.1</ele>
        <time>2018-11-24T05:10:46Z</time>
      </trkpt>
      <trkpt lat="42.8286" lon="1.00406">
        <ele>1814.1</ele>
        <time>2018-11-24T05:10:46Z</time>
      </trkpt>
      <trkpt lat="42.82859" lon="1.00406">
        <ele>1814.7</ele>
        <time>2018-11-24T05:10:46Z</time>
      </trkpt>
      <trkpt lat="42.82859" lon="1.00405">
        <ele>1814.7</ele>
        <time>2018-11-24T05:10:46Z</time>
      </trkpt>
      <trkpt lat="42.82859" lon="1.00405">
        <ele>1815.1</ele>
        <time>2018-11-24T05:10:47Z</time>
      </trkpt>
      <trkpt lat="42.82859" lon="1.00406">
        <ele>1815.2</ele>
        <time>2018-11-24T05:10:47Z</time>
      </trkpt>
      <trkpt lat="42.82859" lon="1.00406">
        <ele>1815.2</ele>
        <time>2018-11-24T05:10:47Z</time>
      </trkpt>
      <trkpt lat="42.82859" lon="1.00405">
        <ele>1815.6</ele>
        <time>2018-11-24T05:10:47Z</time>
      </trkpt>
      <trkpt lat="42.82859" lon="1.00406">
        <ele>1815.6</ele>
        <time>2018-11-24T05:10:48Z</time>
      </trkpt>
      <trkpt lat="42.8286" lon="1.00405">
        <ele>1816.1</ele>
        <time>2018-11-24T05:10:48Z</time>
      </trkpt>
      <trkpt lat="42.82859" lon="1.00406">
        <ele>1816.1</ele>
        <time>2018-11-24T05:10:48Z</time>
      </trkpt>
      <trkpt lat="42.82859" lon="1.00405">
        <ele>1816.5</ele>
        <time>2018-11-24T05:10:49Z</time>
      </trkpt>
      <trkpt lat="42.82858" lon="1.00406">
        <ele>1816.5</ele>
        <time>2018-11-24T05:10:49Z</time>
      </trkpt>
      <trkpt lat="42.82858" lon="1.00406">
        <ele>1816.6</ele>
        <time>2018-11-24T05:10:49Z</time>
      </trkpt>
      <trkpt lat="42.8286" lon="1.00406">
        <ele>1816.5</ele>
        <time>2018-11-24T05:10:50Z</time>
      </trkpt>
      <trkpt lat="42.82859" lon="1.00405">
        <ele>1817</ele>
        <time>2018-11-24T05:10:50Z</time>
      </trkpt>
      <trkpt lat="42.82859" lon="1.00406">
        <ele>1817</ele>
        <time>2018-11-24T05:10:50Z</time>
      </trkpt>
      <trkpt lat="42.82859" lon="1.00406">
        <ele>1818.5</ele>
        <time>2018-11-24T05:10:50Z</time>
      </trkpt>
      <trkpt lat="42.82859" lon="1.00406">
        <ele>1818.9</ele>
        <time>2018-11-24T05:10:51Z</time>
      </trkpt>
      <trkpt lat="42.8286" lon="1.00405">
        <ele>1819</ele>
        <time>2018-11-24T05:10:51Z</time>
      </trkpt>
      <trkpt lat="42.82859" lon="1.00406">
        <ele>1818</ele>
        <time>2018-11-24T05:10:51Z</time>
      </trkpt>
      <trkpt lat="42.82862" lon="1.00407">
        <ele>1818.9</ele>
        <time>2018-11-24T05:10:53Z</time>
      </trkpt>
      <trkpt lat="42.82863" lon="1.00405">
        <ele>1816.6</ele>
        <time>2018-11-24T05:10:54Z</time>
      </trkpt>
      <trkpt lat="42.82867" lon="1.00396">
        <ele>1813.3</ele>
        <time>2018-11-24T05:10:57Z</time>
      </trkpt>
      <trkpt lat="42.82869" lon="1.00392">
        <ele>1812.3</ele>
        <time>2018-11-24T05:10:58Z</time>
      </trkpt>
      <trkpt lat="42.82875" lon="1.00382">
        <ele>1809.4</ele>
        <time>2018-11-24T05:11:02Z</time>
      </trkpt>
      <trkpt lat="42.82876" lon="1.0038">
        <ele>1809.3</ele>
        <time>2018-11-24T05:11:03Z</time>
      </trkpt>
      <trkpt lat="42.82878" lon="1.00378">
        <ele>1808.4</ele>
        <time>2018-11-24T05:11:04Z</time>
      </trkpt>
      <trkpt lat="42.82882" lon="1.0037">
        <ele>1806.9</ele>
        <time>2018-11-24T05:11:07Z</time>
      </trkpt>
      <trkpt lat="42.82876" lon="1.00368">
        <ele>1806.6</ele>
        <time>2018-11-24T05:11:09Z</time>
      </trkpt>
      <trkpt lat="42.8288" lon="1.0036">
        <ele>1802.7</ele>
        <time>2018-11-24T05:11:12Z</time>
      </trkpt>
      <trkpt lat="42.82882" lon="1.00352">
        <ele>1801.2</ele>
        <time>2018-11-24T05:11:15Z</time>
      </trkpt>
      <trkpt lat="42.82885" lon="1.00343">
        <ele>1799.7</ele>
        <time>2018-11-24T05:11:17Z</time>
      </trkpt>
      <trkpt lat="42.82892" lon="1.00326">
        <ele>1796.4</ele>
        <time>2018-11-24T05:11:23Z</time>
      </trkpt>
      <trkpt lat="42.82899" lon="1.00307">
        <ele>1793</ele>
        <time>2018-11-24T05:11:29Z</time>
      </trkpt>
      <trkpt lat="42.829" lon="1.00304">
        <ele>1793.1</ele>
        <time>2018-11-24T05:11:30Z</time>
      </trkpt>
      <trkpt lat="42.82903" lon="1.0029">
        <ele>1790.7</ele>
        <time>2018-11-24T05:11:35Z</time>
      </trkpt>
      <trkpt lat="42.82904" lon="1.00287">
        <ele>1789.6</ele>
        <time>2018-11-24T05:11:35Z</time>
      </trkpt>
      <trkpt lat="42.8291" lon="1.00278">
        <ele>1787.2</ele>
        <time>2018-11-24T05:11:39Z</time>
      </trkpt>
      <trkpt lat="42.82917" lon="1.00268">
        <ele>1783.9</ele>
        <time>2018-11-24T05:11:43Z</time>
      </trkpt>
      <trkpt lat="42.82922" lon="1.00263">
        <ele>1782</ele>
        <time>2018-11-24T05:11:45Z</time>
      </trkpt>
      <trkpt lat="42.82931" lon="1.00249">
        <ele>1778.2</ele>
        <time>2018-11-24T05:11:51Z</time>
      </trkpt>
      <trkpt lat="42.82935" lon="1.00244">
        <ele>1777.6</ele>
        <time>2018-11-24T05:11:53Z</time>
      </trkpt>
      <trkpt lat="42.82942" lon="1.00231">
        <ele>1773.9</ele>
        <time>2018-11-24T05:11:58Z</time>
      </trkpt>
      <trkpt lat="42.82953" lon="1.00212">
        <ele>1769.9</ele>
        <time>2018-11-24T05:12:05Z</time>
      </trkpt>
      <trkpt lat="42.82963" lon="1.00199">
        <ele>1766.6</ele>
        <time>2018-11-24T05:12:11Z</time>
      </trkpt>
      <trkpt lat="42.82968" lon="1.00193">
        <ele>1764.3</ele>
        <time>2018-11-24T05:12:13Z</time>
      </trkpt>
      <trkpt lat="42.82974" lon="1.00183">
        <ele>1761.4</ele>
        <time>2018-11-24T05:12:17Z</time>
      </trkpt>
      <trkpt lat="42.82981" lon="1.00176">
        <ele>1758</ele>
        <time>2018-11-24T05:12:20Z</time>
      </trkpt>
      <trkpt lat="42.82988" lon="1.00165">
        <ele>1755</ele>
        <time>2018-11-24T05:12:25Z</time>
      </trkpt>
      <trkpt lat="42.82981" lon="1.00158">
        <ele>1751.8</ele>
        <time>2018-11-24T05:12:28Z</time>
      </trkpt>
      <trkpt lat="42.8298" lon="1.00158">
        <ele>1751.7</ele>
        <time>2018-11-24T05:12:28Z</time>
      </trkpt>
      <trkpt lat="42.82978" lon="1.00158">
        <ele>1751.2</ele>
        <time>2018-11-24T05:12:29Z</time>
      </trkpt>
      <trkpt lat="42.82964" lon="1.00156">
        <ele>1747.9</ele>
        <time>2018-11-24T05:12:35Z</time>
      </trkpt>
      <trkpt lat="42.82956" lon="1.00153">
        <ele>1744.6</ele>
        <time>2018-11-24T05:12:38Z</time>
      </trkpt>
      <trkpt lat="42.82957" lon="1.00151">
        <ele>1743</ele>
        <time>2018-11-24T05:12:39Z</time>
      </trkpt>
      <trkpt lat="42.82957" lon="1.00141">
        <ele>1740.6</ele>
        <time>2018-11-24T05:12:42Z</time>
      </trkpt>
      <trkpt lat="42.8295" lon="1.0014">
        <ele>1737.7</ele>
        <time>2018-11-24T05:12:45Z</time>
      </trkpt>
      <trkpt lat="42.82941" lon="1.00137">
        <ele>1734.5</ele>
        <time>2018-11-24T05:12:48Z</time>
      </trkpt>
      <trkpt lat="42.82931" lon="1.00134">
        <ele>1731.6</ele>
        <time>2018-11-24T05:12:53Z</time>
      </trkpt>
      <trkpt lat="42.82925" lon="1.00127">
        <ele>1728.1</ele>
        <time>2018-11-24T05:12:56Z</time>
      </trkpt>
      <trkpt lat="42.82932" lon="1.00118">
        <ele>1724.8</ele>
        <time>2018-11-24T05:12:59Z</time>
      </trkpt>
      <trkpt lat="42.82938" lon="1.0011">
        <ele>1721.9</ele>
        <time>2018-11-24T05:13:02Z</time>
      </trkpt>
      <trkpt lat="42.82943" lon="1.00098">
        <ele>1718.5</ele>
        <time>2018-11-24T05:13:07Z</time>
      </trkpt>
      <trkpt lat="42.82946" lon="1.00088">
        <ele>1715.1</ele>
        <time>2018-11-24T05:13:10Z</time>
      </trkpt>
      <trkpt lat="42.82952" lon="1.00078">
        <ele>1711.9</ele>
        <time>2018-11-24T05:13:14Z</time>
      </trkpt>
      <trkpt lat="42.82962" lon="1.00066">
        <ele>1708.4</ele>
        <time>2018-11-24T05:13:19Z</time>
      </trkpt>
      <trkpt lat="42.8297" lon="1.00056">
        <ele>1705.1</ele>
        <time>2018-11-24T05:13:23Z</time>
      </trkpt>
      <trkpt lat="42.82978" lon="1.00048">
        <ele>1702.1</ele>
        <time>2018-11-24T05:13:27Z</time>
      </trkpt>
      <trkpt lat="42.82981" lon="1.00042">
        <ele>1700.2</ele>
        <time>2018-11-24T05:13:29Z</time>
      </trkpt>
      <trkpt lat="42.82982" lon="1.00043">
        <ele>1700.2</ele>
        <time>2018-11-24T05:13:30Z</time>
      </trkpt>
      <trkpt lat="42.82984" lon="1.00044">
        <ele>1699.9</ele>
        <time>2018-11-24T05:13:31Z</time>
      </trkpt>
      <trkpt lat="42.82986" lon="1.00043">
        <ele>1699.3</ele>
        <time>2018-11-24T05:13:31Z</time>
      </trkpt>
      <trkpt lat="42.82984" lon="1.00042">
        <ele>1699.4</ele>
        <time>2018-11-24T05:13:32Z</time>
      </trkpt>
      <trkpt lat="42.82986" lon="1.00041">
        <ele>1698.4</ele>
        <time>2018-11-24T05:13:33Z</time>
      </trkpt>
      <trkpt lat="42.8298" lon="1.00031">
        <ele>1696</ele>
        <time>2018-11-24T05:13:37Z</time>
      </trkpt>
      <trkpt lat="42.8297" lon="1.00023">
        <ele>1693.1</ele>
        <time>2018-11-24T05:13:42Z</time>
      </trkpt>
      <trkpt lat="42.82961" lon="1.00016">
        <ele>1689.8</ele>
        <time>2018-11-24T05:13:46Z</time>
      </trkpt>
      <trkpt lat="42.82952" lon="1.00006">
        <ele>1686.3</ele>
        <time>2018-11-24T05:13:50Z</time>
      </trkpt>
      <trkpt lat="42.82956" lon="0.99999">
        <ele>1684.4</ele>
        <time>2018-11-24T05:13:53Z</time>
      </trkpt>
      <trkpt lat="42.82965" lon="0.9999">
        <ele>1681</ele>
        <time>2018-11-24T05:13:57Z</time>
      </trkpt>
      <trkpt lat="42.82969" lon="0.99984">
        <ele>1679.1</ele>
        <time>2018-11-24T05:14:00Z</time>
      </trkpt>
      <trkpt lat="42.82962" lon="0.99974">
        <ele>1675.7</ele>
        <time>2018-11-24T05:14:04Z</time>
      </trkpt>
      <trkpt lat="42.82958" lon="0.99964">
        <ele>1673.4</ele>
        <time>2018-11-24T05:14:07Z</time>
      </trkpt>
      <trkpt lat="42.82953" lon="0.99953">
        <ele>1670</ele>
        <time>2018-11-24T05:14:11Z</time>
      </trkpt>
      <trkpt lat="42.82947" lon="0.99941">
        <ele>1666.2</ele>
        <time>2018-11-24T05:14:15Z</time>
      </trkpt>
      <trkpt lat="42.82939" lon="0.99935">
        <ele>1663.3</ele>
        <time>2018-11-24T05:14:19Z</time>
      </trkpt>
      <trkpt lat="42.8293" lon="0.99929">
        <ele>1659.9</ele>
        <time>2018-11-24T05:14:23Z</time>
      </trkpt>
      <trkpt lat="42.82919" lon="0.99928">
        <ele>1656.5</ele>
        <time>2018-11-24T05:14:27Z</time>
      </trkpt>
      <trkpt lat="42.8292" lon="0.9992">
        <ele>1653.2</ele>
        <time>2018-11-24T05:14:30Z</time>
      </trkpt>
      <trkpt lat="42.82925" lon="0.99908">
        <ele>1649.8</ele>
        <time>2018-11-24T05:14:34Z</time>
      </trkpt>
      <trkpt lat="42.82923" lon="0.99903">
        <ele>1648.8</ele>
        <time>2018-11-24T05:14:35Z</time>
      </trkpt>
      <trkpt lat="42.82915" lon="0.999">
        <ele>1645.9</ele>
        <time>2018-11-24T05:14:39Z</time>
      </trkpt>
      <trkpt lat="42.82903" lon="0.99899">
        <ele>1642.1</ele>
        <time>2018-11-24T05:14:44Z</time>
      </trkpt>
      <trkpt lat="42.82889" lon="0.99898">
        <ele>1639.3</ele>
        <time>2018-11-24T05:14:49Z</time>
      </trkpt>
      <trkpt lat="42.82885" lon="0.99898">
        <ele>1638.3</ele>
        <time>2018-11-24T05:14:51Z</time>
      </trkpt>
      <trkpt lat="42.82871" lon="0.99896">
        <ele>1635.3</ele>
        <time>2018-11-24T05:14:56Z</time>
      </trkpt>
      <trkpt lat="42.82872" lon="0.99889">
        <ele>1632</ele>
        <time>2018-11-24T05:14:59Z</time>
      </trkpt>
      <trkpt lat="42.82877" lon="0.99879">
        <ele>1628.7</ele>
        <time>2018-11-24T05:15:02Z</time>
      </trkpt>
      <trkpt lat="42.82866" lon="0.99874">
        <ele>1625.3</ele>
        <time>2018-11-24T05:15:06Z</time>
      </trkpt>
      <trkpt lat="42.82857" lon="0.9987">
        <ele>1621.9</ele>
        <time>2018-11-24T05:15:10Z</time>
      </trkpt>
      <trkpt lat="42.82846" lon="0.99865">
        <ele>1618</ele>
        <time>2018-11-24T05:15:15Z</time>
      </trkpt>
      <trkpt lat="42.82848" lon="0.9986">
        <ele>1616.2</ele>
        <time>2018-11-24T05:15:17Z</time>
      </trkpt>
      <trkpt lat="42.82858" lon="0.99852">
        <ele>1612.7</ele>
        <time>2018-11-24T05:15:21Z</time>
      </trkpt>
      <trkpt lat="42.82864" lon="0.9984">
        <ele>1608.9</ele>
        <time>2018-11-24T05:15:26Z</time>
      </trkpt>
      <trkpt lat="42.82871" lon="0.99831">
        <ele>1606</ele>
        <time>2018-11-24T05:15:30Z</time>
      </trkpt>
      <trkpt lat="42.82877" lon="0.99825">
        <ele>1604.2</ele>
        <time>2018-11-24T05:15:32Z</time>
      </trkpt>
      <trkpt lat="42.82887" lon="0.99811">
        <ele>1600.8</ele>
        <time>2018-11-24T05:15:38Z</time>
      </trkpt>
      <trkpt lat="42.82893" lon="0.99803">
        <ele>1598.4</ele>
        <time>2018-11-24T05:15:41Z</time>
      </trkpt>
      <trkpt lat="42.82901" lon="0.99791">
        <ele>1595.1</ele>
        <time>2018-11-24T05:15:46Z</time>
      </trkpt>
      <trkpt lat="42.8291" lon="0.99779">
        <ele>1592.7</ele>
        <time>2018-11-24T05:15:51Z</time>
      </trkpt>
      <trkpt lat="42.82917" lon="0.9977">
        <ele>1589.3</ele>
        <time>2018-11-24T05:15:55Z</time>
      </trkpt>
      <trkpt lat="42.82923" lon="0.9976">
        <ele>1586.4</ele>
        <time>2018-11-24T05:15:59Z</time>
      </trkpt>
      <trkpt lat="42.82928" lon="0.9975">
        <ele>1582.9</ele>
        <time>2018-11-24T05:16:02Z</time>
      </trkpt>
      <trkpt lat="42.82929" lon="0.99743">
        <ele>1580.1</ele>
        <time>2018-11-24T05:16:05Z</time>
      </trkpt>
      <trkpt lat="42.82935" lon="0.99732">
        <ele>1576.8</ele>
        <time>2018-11-24T05:16:09Z</time>
      </trkpt>
      <trkpt lat="42.8294" lon="0.99722">
        <ele>1573.8</ele>
        <time>2018-11-24T05:16:12Z</time>
      </trkpt>
      <trkpt lat="42.82946" lon="0.99712">
        <ele>1570.4</ele>
        <time>2018-11-24T05:16:16Z</time>
      </trkpt>
      <trkpt lat="42.82947" lon="0.9971">
        <ele>1570.1</ele>
        <time>2018-11-24T05:16:17Z</time>
      </trkpt>
      <trkpt lat="42.82953" lon="0.997">
        <ele>1566.2</ele>
        <time>2018-11-24T05:16:21Z</time>
      </trkpt>
      <trkpt lat="42.82959" lon="0.99691">
        <ele>1563.3</ele>
        <time>2018-11-24T05:16:24Z</time>
      </trkpt>
      <trkpt lat="42.82964" lon="0.99681">
        <ele>1560</ele>
        <time>2018-11-24T05:16:28Z</time>
      </trkpt>
      <trkpt lat="42.82969" lon="0.99669">
        <ele>1557</ele>
        <time>2018-11-24T05:16:32Z</time>
      </trkpt>
      <trkpt lat="42.82971" lon="0.99664">
        <ele>1556</ele>
        <time>2018-11-24T05:16:33Z</time>
      </trkpt>
      <trkpt lat="42.82974" lon="0.99656">
        <ele>1553.2</ele>
        <time>2018-11-24T05:16:36Z</time>
      </trkpt>
      <trkpt lat="42.82977" lon="0.99645">
        <ele>1549.9</ele>
        <time>2018-11-24T05:16:39Z</time>
      </trkpt>
      <trkpt lat="42.82977" lon="0.99638">
        <ele>1547.4</ele>
        <time>2018-11-24T05:16:42Z</time>
      </trkpt>
      <trkpt lat="42.82979" lon="0.99634">
        <ele>1545.5</ele>
        <time>2018-11-24T05:16:43Z</time>
      </trkpt>
      <trkpt lat="42.82979" lon="0.99623">
        <ele>1542.6</ele>
        <time>2018-11-24T05:16:46Z</time>
      </trkpt>
      <trkpt lat="42.82974" lon="0.99612">
        <ele>1538.7</ele>
        <time>2018-11-24T05:16:51Z</time>
      </trkpt>
      <trkpt lat="42.82971" lon="0.99603">
        <ele>1536.4</ele>
        <time>2018-11-24T05:16:53Z</time>
      </trkpt>
      <trkpt lat="42.82972" lon="0.996">
        <ele>1535</ele>
        <time>2018-11-24T05:16:54Z</time>
      </trkpt>
      <trkpt lat="42.82974" lon="0.99599">
        <ele>1534.9</ele>
        <time>2018-11-24T05:16:55Z</time>
      </trkpt>
      <trkpt lat="42.82978" lon="0.99599">
        <ele>1535</ele>
        <time>2018-11-24T05:16:57Z</time>
      </trkpt>
      <trkpt lat="42.82984" lon="0.99598">
        <ele>1533.9</ele>
        <time>2018-11-24T05:16:59Z</time>
      </trkpt>
      <trkpt lat="42.8298" lon="0.99599">
        <ele>1534</ele>
        <time>2018-11-24T05:17:01Z</time>
      </trkpt>
      <trkpt lat="42.82978" lon="0.99597">
        <ele>1534</ele>
        <time>2018-11-24T05:17:02Z</time>
      </trkpt>
      <trkpt lat="42.82978" lon="0.99594">
        <ele>1533.1</ele>
        <time>2018-11-24T05:17:03Z</time>
      </trkpt>
      <trkpt lat="42.82978" lon="0.99597">
        <ele>1533.1</ele>
        <time>2018-11-24T05:17:04Z</time>
      </trkpt>
      <trkpt lat="42.82977" lon="0.99599">
        <ele>1532.6</ele>
        <time>2018-11-24T05:17:04Z</time>
      </trkpt>
      <trkpt lat="42.82978" lon="0.996">
        <ele>1532.5</ele>
        <time>2018-11-24T05:17:05Z</time>
      </trkpt>
      <trkpt lat="42.82977" lon="0.99601">
        <ele>1532.5</ele>
        <time>2018-11-24T05:17:05Z</time>
      </trkpt>
      <trkpt lat="42.82972" lon="0.99594">
        <ele>1531</ele>
        <time>2018-11-24T05:17:08Z</time>
      </trkpt>
      <trkpt lat="42.82975" lon="0.99588">
        <ele>1530.1</ele>
        <time>2018-11-24T05:17:11Z</time>
      </trkpt>
      <trkpt lat="42.82979" lon="0.9958">
        <ele>1528.6</ele>
        <time>2018-11-24T05:17:13Z</time>
      </trkpt>
      <trkpt lat="42.82981" lon="0.99587">
        <ele>1530.2</ele>
        <time>2018-11-24T05:17:16Z</time>
      </trkpt>
      <trkpt lat="42.82982" lon="0.99588">
        <ele>1529.6</ele>
        <time>2018-11-24T05:17:16Z</time>
      </trkpt>
      <trkpt lat="42.82979" lon="0.99579">
        <ele>1529.6</ele>
        <time>2018-11-24T05:17:19Z</time>
      </trkpt>
      <trkpt lat="42.82981" lon="0.99576">
        <ele>1528.2</ele>
        <time>2018-11-24T05:17:20Z</time>
      </trkpt>
      <trkpt lat="42.82994" lon="0.99566">
        <ele>1525.4</ele>
        <time>2018-11-24T05:17:26Z</time>
      </trkpt>
      <trkpt lat="42.83002" lon="0.99557">
        <ele>1522.5</ele>
        <time>2018-11-24T05:17:30Z</time>
      </trkpt>
      <trkpt lat="42.8301" lon="0.99552">
        <ele>1519.1</ele>
        <time>2018-11-24T05:17:34Z</time>
      </trkpt>
      <trkpt lat="42.83019" lon="0.99545">
        <ele>1515.2</ele>
        <time>2018-11-24T05:17:38Z</time>
      </trkpt>
      <trkpt lat="42.83027" lon="0.9954">
        <ele>1511.8</ele>
        <time>2018-11-24T05:17:42Z</time>
      </trkpt>
      <trkpt lat="42.83038" lon="0.9954">
        <ele>1509</ele>
        <time>2018-11-24T05:17:46Z</time>
      </trkpt>
      <trkpt lat="42.83048" lon="0.99538">
        <ele>1505.6</ele>
        <time>2018-11-24T05:17:50Z</time>
      </trkpt>
      <trkpt lat="42.83055" lon="0.99535">
        <ele>1503.2</ele>
        <time>2018-11-24T05:17:53Z</time>
      </trkpt>
      <trkpt lat="42.83063" lon="0.99534">
        <ele>1501.7</ele>
        <time>2018-11-24T05:17:56Z</time>
      </trkpt>
      <trkpt lat="42.83067" lon="0.9953">
        <ele>1498.9</ele>
        <time>2018-11-24T05:17:58Z</time>
      </trkpt>
      <trkpt lat="42.83062" lon="0.9952">
        <ele>1496.1</ele>
        <time>2018-11-24T05:18:02Z</time>
      </trkpt>
      <trkpt lat="42.83059" lon="0.99514">
        <ele>1495.1</ele>
        <time>2018-11-24T05:18:03Z</time>
      </trkpt>
      <trkpt lat="42.83049" lon="0.99502">
        <ele>1492.1</ele>
        <time>2018-11-24T05:18:09Z</time>
      </trkpt>
      <trkpt lat="42.83042" lon="0.99498">
        <ele>1491.2</ele>
        <time>2018-11-24T05:18:12Z</time>
      </trkpt>
      <trkpt lat="42.83034" lon="0.99487">
        <ele>1487.9</ele>
        <time>2018-11-24T05:18:17Z</time>
      </trkpt>
      <trkpt lat="42.83028" lon="0.99479">
        <ele>1486.3</ele>
        <time>2018-11-24T05:18:20Z</time>
      </trkpt>
      <trkpt lat="42.83018" lon="0.99473">
        <ele>1485.4</ele>
        <time>2018-11-24T05:18:24Z</time>
      </trkpt>
      <trkpt lat="42.83011" lon="0.99471">
        <ele>1483.4</ele>
        <time>2018-11-24T05:18:27Z</time>
      </trkpt>
      <trkpt lat="42.83009" lon="0.9947">
        <ele>1483.5</ele>
        <time>2018-11-24T05:18:28Z</time>
      </trkpt>
      <trkpt lat="42.83007" lon="0.99469">
        <ele>1482.5</ele>
        <time>2018-11-24T05:18:29Z</time>
      </trkpt>
      <trkpt lat="42.82996" lon="0.99466">
        <ele>1481.1</ele>
        <time>2018-11-24T05:18:34Z</time>
      </trkpt>
      <trkpt lat="42.82986" lon="0.99456">
        <ele>1478.3</ele>
        <time>2018-11-24T05:18:38Z</time>
      </trkpt>
      <trkpt lat="42.82981" lon="0.99453">
        <ele>1477.2</ele>
        <time>2018-11-24T05:18:41Z</time>
      </trkpt>
      <trkpt lat="42.82965" lon="0.99452">
        <ele>1475.4</ele>
        <time>2018-11-24T05:18:47Z</time>
      </trkpt>
      <trkpt lat="42.82961" lon="0.99453">
        <ele>1474.4</ele>
        <time>2018-11-24T05:18:49Z</time>
      </trkpt>
      <trkpt lat="42.82952" lon="0.99457">
        <ele>1471.9</ele>
        <time>2018-11-24T05:18:52Z</time>
      </trkpt>
      <trkpt lat="42.82942" lon="0.99459">
        <ele>1469.1</ele>
        <time>2018-11-24T05:18:56Z</time>
      </trkpt>
      <trkpt lat="42.82934" lon="0.99464">
        <ele>1468.1</ele>
        <time>2018-11-24T05:19:00Z</time>
      </trkpt>
      <trkpt lat="42.82914" lon="0.99471">
        <ele>1465.7</ele>
        <time>2018-11-24T05:19:08Z</time>
      </trkpt>
      <trkpt lat="42.82895" lon="0.99477">
        <ele>1462.9</ele>
        <time>2018-11-24T05:19:16Z</time>
      </trkpt>
      <trkpt lat="42.82889" lon="0.99479">
        <ele>1461.8</ele>
        <time>2018-11-24T05:19:18Z</time>
      </trkpt>
      <trkpt lat="42.82877" lon="0.99479">
        <ele>1459</ele>
        <time>2018-11-24T05:19:23Z</time>
      </trkpt>
      <trkpt lat="42.82868" lon="0.99474">
        <ele>1455.2</ele>
        <time>2018-11-24T05:19:27Z</time>
      </trkpt>
      <trkpt lat="42.8286" lon="0.99469">
        <ele>1452.3</ele>
        <time>2018-11-24T05:19:31Z</time>
      </trkpt>
      <trkpt lat="42.82849" lon="0.99462">
        <ele>1448.4</ele>
        <time>2018-11-24T05:19:35Z</time>
      </trkpt>
      <trkpt lat="42.82836" lon="0.99453">
        <ele>1445.1</ele>
        <time>2018-11-24T05:19:41Z</time>
      </trkpt>
      <trkpt lat="42.82831" lon="0.99446">
        <ele>1441.7</ele>
        <time>2018-11-24T05:19:44Z</time>
      </trkpt>
      <trkpt lat="42.82832" lon="0.99446">
        <ele>1441.6</ele>
        <time>2018-11-24T05:19:44Z</time>
      </trkpt>
      <trkpt lat="42.82837" lon="0.99445">
        <ele>1440.3</ele>
        <time>2018-11-24T05:19:47Z</time>
      </trkpt>
      <trkpt lat="42.82846" lon="0.99443">
        <ele>1437.8</ele>
        <time>2018-11-24T05:19:50Z</time>
      </trkpt>
      <trkpt lat="42.82838" lon="0.99437">
        <ele>1434.4</ele>
        <time>2018-11-24T05:19:54Z</time>
      </trkpt>
      <trkpt lat="42.82828" lon="0.99434">
        <ele>1431.2</ele>
        <time>2018-11-24T05:19:58Z</time>
      </trkpt>
      <trkpt lat="42.82821" lon="0.9943">
        <ele>1427.2</ele>
        <time>2018-11-24T05:20:01Z</time>
      </trkpt>
      <trkpt lat="42.82825" lon="0.99424">
        <ele>1424.4</ele>
        <time>2018-11-24T05:20:03Z</time>
      </trkpt>
      <trkpt lat="42.82822" lon="0.99421">
        <ele>1421.1</ele>
        <time>2018-11-24T05:20:05Z</time>
      </trkpt>
      <trkpt lat="42.82812" lon="0.99413">
        <ele>1417.7</ele>
        <time>2018-11-24T05:20:09Z</time>
      </trkpt>
      <trkpt lat="42.82805" lon="0.99409">
        <ele>1414.3</ele>
        <time>2018-11-24T05:20:12Z</time>
      </trkpt>
      <trkpt lat="42.82807" lon="0.99395">
        <ele>1411</ele>
        <time>2018-11-24T05:20:16Z</time>
      </trkpt>
      <trkpt lat="42.82803" lon="0.99395">
        <ele>1409.4</ele>
        <time>2018-11-24T05:20:18Z</time>
      </trkpt>
      <trkpt lat="42.82793" lon="0.99406">
        <ele>1407.5</ele>
        <time>2018-11-24T05:20:23Z</time>
      </trkpt>
      <trkpt lat="42.82774" lon="0.99412">
        <ele>1404.1</ele>
        <time>2018-11-24T05:20:31Z</time>
      </trkpt>
      <trkpt lat="42.8276" lon="0.99416">
        <ele>1401.3</ele>
        <time>2018-11-24T05:20:37Z</time>
      </trkpt>
      <trkpt lat="42.82761" lon="0.99407">
        <ele>1397.9</ele>
        <time>2018-11-24T05:20:39Z</time>
      </trkpt>
      <trkpt lat="42.82758" lon="0.99402">
        <ele>1394.6</ele>
        <time>2018-11-24T05:20:41Z</time>
      </trkpt>
      <trkpt lat="42.82752" lon="0.99401">
        <ele>1391.8</ele>
        <time>2018-11-24T05:20:43Z</time>
      </trkpt>
      <trkpt lat="42.82752" lon="0.99396">
        <ele>1388.9</ele>
        <time>2018-11-24T05:20:45Z</time>
      </trkpt>
      <trkpt lat="42.82745" lon="0.994">
        <ele>1385.5</ele>
        <time>2018-11-24T05:20:48Z</time>
      </trkpt>
      <trkpt lat="42.82745" lon="0.99392">
        <ele>1382.1</ele>
        <time>2018-11-24T05:20:50Z</time>
      </trkpt>
      <trkpt lat="42.82749" lon="0.99383">
        <ele>1379.2</ele>
        <time>2018-11-24T05:20:53Z</time>
      </trkpt>
      <trkpt lat="42.82755" lon="0.99372">
        <ele>1375.8</ele>
        <time>2018-11-24T05:20:57Z</time>
      </trkpt>
      <trkpt lat="42.82755" lon="0.99369">
        <ele>1374</ele>
        <time>2018-11-24T05:20:58Z</time>
      </trkpt>
      <trkpt lat="42.82742" lon="0.99381">
        <ele>1370.6</ele>
        <time>2018-11-24T05:21:04Z</time>
      </trkpt>
      <trkpt lat="42.82747" lon="0.99364">
        <ele>1366.7</ele>
        <time>2018-11-24T05:21:10Z</time>
      </trkpt>
      <trkpt lat="42.82749" lon="0.99356">
        <ele>1363.3</ele>
        <time>2018-11-24T05:21:12Z</time>
      </trkpt>
      <trkpt lat="42.82741" lon="0.99355">
        <ele>1359.9</ele>
        <time>2018-11-24T05:21:15Z</time>
      </trkpt>
      <trkpt lat="42.82732" lon="0.99356">
        <ele>1356.6</ele>
        <time>2018-11-24T05:21:19Z</time>
      </trkpt>
      <trkpt lat="42.82721" lon="0.99358">
        <ele>1353.2</ele>
        <time>2018-11-24T05:21:24Z</time>
      </trkpt>
      <trkpt lat="42.8271" lon="0.99361">
        <ele>1349.4</ele>
        <time>2018-11-24T05:21:28Z</time>
      </trkpt>
      <trkpt lat="42.82704" lon="0.99368">
        <ele>1346.5</ele>
        <time>2018-11-24T05:21:31Z</time>
      </trkpt>
      <trkpt lat="42.82698" lon="0.99381">
        <ele>1343.2</ele>
        <time>2018-11-24T05:21:36Z</time>
      </trkpt>
      <trkpt lat="42.82689" lon="0.99391">
        <ele>1340.3</ele>
        <time>2018-11-24T05:21:40Z</time>
      </trkpt>
      <trkpt lat="42.82687" lon="0.99389">
        <ele>1339.3</ele>
        <time>2018-11-24T05:21:41Z</time>
      </trkpt>
      <trkpt lat="42.82687" lon="0.99389">
        <ele>1338.8</ele>
        <time>2018-11-24T05:21:41Z</time>
      </trkpt>
      <trkpt lat="42.82668" lon="0.99422">
        <ele>1336.4</ele>
        <time>2018-11-24T05:21:54Z</time>
      </trkpt>
      <trkpt lat="42.82653" lon="0.99452">
        <ele>1333</ele>
        <time>2018-11-24T05:22:04Z</time>
      </trkpt>
      <trkpt lat="42.82658" lon="0.99429">
        <ele>1330.6</ele>
        <time>2018-11-24T05:22:11Z</time>
      </trkpt>
      <trkpt lat="42.82659" lon="0.99408">
        <ele>1329.2</ele>
        <time>2018-11-24T05:22:17Z</time>
      </trkpt>
      <trkpt lat="42.82659" lon="0.99407">
        <ele>1326.9</ele>
        <time>2018-11-24T05:22:18Z</time>
      </trkpt>
      <trkpt lat="42.82654" lon="0.99423">
        <ele>1323.4</ele>
        <time>2018-11-24T05:22:23Z</time>
      </trkpt>
      <trkpt lat="42.82646" lon="0.9943">
        <ele>1320.6</ele>
        <time>2018-11-24T05:22:26Z</time>
      </trkpt>
      <trkpt lat="42.82642" lon="0.99423">
        <ele>1318.1</ele>
        <time>2018-11-24T05:22:29Z</time>
      </trkpt>
      <trkpt lat="42.82642" lon="0.99409">
        <ele>1314.8</ele>
        <time>2018-11-24T05:22:33Z</time>
      </trkpt>
      <trkpt lat="42.8264" lon="0.99406">
        <ele>1312.4</ele>
        <time>2018-11-24T05:22:34Z</time>
      </trkpt>
      <trkpt lat="42.82637" lon="0.99412">
        <ele>1309.4</ele>
        <time>2018-11-24T05:22:36Z</time>
      </trkpt>
      <trkpt lat="42.8262" lon="0.99443">
        <ele>1306.1</ele>
        <time>2018-11-24T05:22:48Z</time>
      </trkpt>
      <trkpt lat="42.82617" lon="0.99433">
        <ele>1303.3</ele>
        <time>2018-11-24T05:22:51Z</time>
      </trkpt>
      <trkpt lat="42.82617" lon="0.99412">
        <ele>1299.9</ele>
        <time>2018-11-24T05:22:57Z</time>
      </trkpt>
      <trkpt lat="42.82618" lon="0.99394">
        <ele>1297</ele>
        <time>2018-11-24T05:23:02Z</time>
      </trkpt>
      <trkpt lat="42.8262" lon="0.99387">
        <ele>1295.5</ele>
        <time>2018-11-24T05:23:04Z</time>
      </trkpt>
      <trkpt lat="42.82621" lon="0.99382">
        <ele>1292.3</ele>
        <time>2018-11-24T05:23:06Z</time>
      </trkpt>
      <trkpt lat="42.82616" lon="0.99382">
        <ele>1289.4</ele>
        <time>2018-11-24T05:23:08Z</time>
      </trkpt>
      <trkpt lat="42.82605" lon="0.99408">
        <ele>1285.9</ele>
        <time>2018-11-24T05:23:17Z</time>
      </trkpt>
      <trkpt lat="42.82601" lon="0.99401">
        <ele>1283.6</ele>
        <time>2018-11-24T05:23:19Z</time>
      </trkpt>
      <trkpt lat="42.82599" lon="0.99379">
        <ele>1279.8</ele>
        <time>2018-11-24T05:23:26Z</time>
      </trkpt>
      <trkpt lat="42.82602" lon="0.99368">
        <ele>1277.3</ele>
        <time>2018-11-24T05:23:29Z</time>
      </trkpt>
      <trkpt lat="42.82612" lon="0.9935">
        <ele>1274</ele>
        <time>2018-11-24T05:23:36Z</time>
      </trkpt>
      <trkpt lat="42.82605" lon="0.99355">
        <ele>1273</ele>
        <time>2018-11-24T05:23:39Z</time>
      </trkpt>
      <trkpt lat="42.82594" lon="0.99369">
        <ele>1271.1</ele>
        <time>2018-11-24T05:23:45Z</time>
      </trkpt>
      <trkpt lat="42.82589" lon="0.99379">
        <ele>1271</ele>
        <time>2018-11-24T05:23:49Z</time>
      </trkpt>
      <trkpt lat="42.82587" lon="0.99381">
        <ele>1269.6</ele>
        <time>2018-11-24T05:23:50Z</time>
      </trkpt>
      <trkpt lat="42.82585" lon="0.9937">
        <ele>1266.7</ele>
        <time>2018-11-24T05:23:53Z</time>
      </trkpt>
      <trkpt lat="42.82589" lon="0.99355">
        <ele>1263.4</ele>
        <time>2018-11-24T05:23:58Z</time>
      </trkpt>
      <trkpt lat="42.82597" lon="0.99341">
        <ele>1260.4</ele>
        <time>2018-11-24T05:24:03Z</time>
      </trkpt>
      <trkpt lat="42.82586" lon="0.99342">
        <ele>1259.1</ele>
        <time>2018-11-24T05:24:07Z</time>
      </trkpt>
      <trkpt lat="42.82588" lon="0.99329">
        <ele>1257.6</ele>
        <time>2018-11-24T05:24:11Z</time>
      </trkpt>
      <trkpt lat="42.82593" lon="0.99321">
        <ele>1254.8</ele>
        <time>2018-11-24T05:24:14Z</time>
      </trkpt>
      <trkpt lat="42.82587" lon="0.9932">
        <ele>1251.9</ele>
        <time>2018-11-24T05:24:16Z</time>
      </trkpt>
      <trkpt lat="42.82594" lon="0.99309">
        <ele>1249.4</ele>
        <time>2018-11-24T05:24:20Z</time>
      </trkpt>
      <trkpt lat="42.82604" lon="0.99289">
        <ele>1246.1</ele>
        <time>2018-11-24T05:24:28Z</time>
      </trkpt>
      <trkpt lat="42.82595" lon="0.99291">
        <ele>1242.6</ele>
        <time>2018-11-24T05:24:31Z</time>
      </trkpt>
      <trkpt lat="42.8259" lon="0.99286">
        <ele>1239.3</ele>
        <time>2018-11-24T05:24:34Z</time>
      </trkpt>
      <trkpt lat="42.82587" lon="0.99283">
        <ele>1237.3</ele>
        <time>2018-11-24T05:24:35Z</time>
      </trkpt>
      <trkpt lat="42.82591" lon="0.99274">
        <ele>1233.5</ele>
        <time>2018-11-24T05:24:38Z</time>
      </trkpt>
      <trkpt lat="42.8258" lon="0.99275">
        <ele>1231.2</ele>
        <time>2018-11-24T05:24:43Z</time>
      </trkpt>
      <trkpt lat="42.82584" lon="0.99263">
        <ele>1227.8</ele>
        <time>2018-11-24T05:24:47Z</time>
      </trkpt>
      <trkpt lat="42.82576" lon="0.99264">
        <ele>1224.4</ele>
        <time>2018-11-24T05:24:50Z</time>
      </trkpt>
      <trkpt lat="42.82582" lon="0.9925">
        <ele>1221</ele>
        <time>2018-11-24T05:24:54Z</time>
      </trkpt>
      <trkpt lat="42.82588" lon="0.99239">
        <ele>1218.6</ele>
        <time>2018-11-24T05:24:58Z</time>
      </trkpt>
      <trkpt lat="42.82594" lon="0.99223">
        <ele>1215.2</ele>
        <time>2018-11-24T05:25:03Z</time>
      </trkpt>
      <trkpt lat="42.82602" lon="0.99205">
        <ele>1212</ele>
        <time>2018-11-24T05:25:10Z</time>
      </trkpt>
      <trkpt lat="42.82606" lon="0.99193">
        <ele>1208.5</ele>
        <time>2018-11-24T05:25:14Z</time>
      </trkpt>
      <trkpt lat="42.82596" lon="0.99195">
        <ele>1206.2</ele>
        <time>2018-11-24T05:25:18Z</time>
      </trkpt>
      <trkpt lat="42.82587" lon="0.99199">
        <ele>1202.8</ele>
        <time>2018-11-24T05:25:21Z</time>
      </trkpt>
      <trkpt lat="42.82568" lon="0.99211">
        <ele>1199.4</ele>
        <time>2018-11-24T05:25:30Z</time>
      </trkpt>
      <trkpt lat="42.82547" lon="0.9922">
        <ele>1196.5</ele>
        <time>2018-11-24T05:25:39Z</time>
      </trkpt>
      <trkpt lat="42.82539" lon="0.9922">
        <ele>1193.7</ele>
        <time>2018-11-24T05:25:42Z</time>
      </trkpt>
      <trkpt lat="42.8254" lon="0.99218">
        <ele>1193.7</ele>
        <time>2018-11-24T05:25:42Z</time>
      </trkpt>
      <trkpt lat="42.82548" lon="0.99205">
        <ele>1190.4</ele>
        <time>2018-11-24T05:25:47Z</time>
      </trkpt>
      <trkpt lat="42.82555" lon="0.99195">
        <ele>1187</ele>
        <time>2018-11-24T05:25:52Z</time>
      </trkpt>
      <trkpt lat="42.82564" lon="0.99188">
        <ele>1185.1</ele>
        <time>2018-11-24T05:25:56Z</time>
      </trkpt>
      <trkpt lat="42.82545" lon="0.99191">
        <ele>1181.7</ele>
        <time>2018-11-24T05:26:04Z</time>
      </trkpt>
      <trkpt lat="42.82524" lon="0.99198">
        <ele>1178.2</ele>
        <time>2018-11-24T05:26:12Z</time>
      </trkpt>
      <trkpt lat="42.82518" lon="0.99188">
        <ele>1174.9</ele>
        <time>2018-11-24T05:26:16Z</time>
      </trkpt>
      <trkpt lat="42.82525" lon="0.99179">
        <ele>1172.1</ele>
        <time>2018-11-24T05:26:20Z</time>
      </trkpt>
      <trkpt lat="42.82537" lon="0.99169">
        <ele>1168.7</ele>
        <time>2018-11-24T05:26:26Z</time>
      </trkpt>
      <trkpt lat="42.82552" lon="0.99159">
        <ele>1165.7</ele>
        <time>2018-11-24T05:26:32Z</time>
      </trkpt>
      <trkpt lat="42.82547" lon="0.9915">
        <ele>1163.8</ele>
        <time>2018-11-24T05:26:36Z</time>
      </trkpt>
      <trkpt lat="42.82543" lon="0.99147">
        <ele>1161.5</ele>
        <time>2018-11-24T05:26:38Z</time>
      </trkpt>
      <trkpt lat="42.82527" lon="0.99151">
        <ele>1159.5</ele>
        <time>2018-11-24T05:26:44Z</time>
      </trkpt>
      <trkpt lat="42.82516" lon="0.99151">
        <ele>1157.2</ele>
        <time>2018-11-24T05:26:49Z</time>
      </trkpt>
      <trkpt lat="42.82523" lon="0.99141">
        <ele>1153.8</ele>
        <time>2018-11-24T05:26:53Z</time>
      </trkpt>
      <trkpt lat="42.8253" lon="0.99137">
        <ele>1152.8</ele>
        <time>2018-11-24T05:26:56Z</time>
      </trkpt>
      <trkpt lat="42.82538" lon="0.99135">
        <ele>1152.9</ele>
        <time>2018-11-24T05:26:59Z</time>
      </trkpt>
      <trkpt lat="42.82541" lon="0.99124">
        <ele>1149.5</ele>
        <time>2018-11-24T05:27:03Z</time>
      </trkpt>
      <trkpt lat="42.82541" lon="0.99124">
        <ele>1149.4</ele>
        <time>2018-11-24T05:27:03Z</time>
      </trkpt>
      <trkpt lat="42.82549" lon="0.99115">
        <ele>1145.6</ele>
        <time>2018-11-24T05:27:07Z</time>
      </trkpt>
      <trkpt lat="42.82537" lon="0.99114">
        <ele>1142.7</ele>
        <time>2018-11-24T05:27:12Z</time>
      </trkpt>
      <trkpt lat="42.82532" lon="0.99115">
        <ele>1141.2</ele>
        <time>2018-11-24T05:27:14Z</time>
      </trkpt>
      <trkpt lat="42.82518" lon="0.99116">
        <ele>1138.8</ele>
        <time>2018-11-24T05:27:20Z</time>
      </trkpt>
      <trkpt lat="42.82497" lon="0.99124">
        <ele>1136.4</ele>
        <time>2018-11-24T05:27:28Z</time>
      </trkpt>
      <trkpt lat="42.82494" lon="0.99117">
        <ele>1134.6</ele>
        <time>2018-11-24T05:27:31Z</time>
      </trkpt>
      <trkpt lat="42.82505" lon="0.99104">
        <ele>1131.7</ele>
        <time>2018-11-24T05:27:36Z</time>
      </trkpt>
      <trkpt lat="42.82516" lon="0.99095">
        <ele>1128.3</ele>
        <time>2018-11-24T05:27:41Z</time>
      </trkpt>
      <trkpt lat="42.82527" lon="0.99089">
        <ele>1125.5</ele>
        <time>2018-11-24T05:27:46Z</time>
      </trkpt>
      <trkpt lat="42.82546" lon="0.99078">
        <ele>1122.1</ele>
        <time>2018-11-24T05:27:54Z</time>
      </trkpt>
      <trkpt lat="42.82547" lon="0.99074">
        <ele>1119.2</ele>
        <time>2018-11-24T05:27:56Z</time>
      </trkpt>
      <trkpt lat="42.82538" lon="0.99068">
        <ele>1117.3</ele>
        <time>2018-11-24T05:28:00Z</time>
      </trkpt>
      <trkpt lat="42.82524" lon="0.99064">
        <ele>1115.8</ele>
        <time>2018-11-24T05:28:05Z</time>
      </trkpt>
      <trkpt lat="42.82514" lon="0.99062">
        <ele>1113.8</ele>
        <time>2018-11-24T05:28:09Z</time>
      </trkpt>
      <trkpt lat="42.82494" lon="0.99062">
        <ele>1110.9</ele>
        <time>2018-11-24T05:28:18Z</time>
      </trkpt>
      <trkpt lat="42.82484" lon="0.99062">
        <ele>1109.5</ele>
        <time>2018-11-24T05:28:22Z</time>
      </trkpt>
      <trkpt lat="42.82464" lon="0.99078">
        <ele>1106.7</ele>
        <time>2018-11-24T05:28:31Z</time>
      </trkpt>
      <trkpt lat="42.82446" lon="0.99099">
        <ele>1103.8</ele>
        <time>2018-11-24T05:28:40Z</time>
      </trkpt>
      <trkpt lat="42.82444" lon="0.99089">
        <ele>1100.4</ele>
        <time>2018-11-24T05:28:43Z</time>
      </trkpt>
      <trkpt lat="42.82452" lon="0.99066">
        <ele>1097.6</ele>
        <time>2018-11-24T05:28:51Z</time>
      </trkpt>
      <trkpt lat="42.82454" lon="0.99058">
        <ele>1095.2</ele>
        <time>2018-11-24T05:28:53Z</time>
      </trkpt>
      <trkpt lat="42.82459" lon="0.99049">
        <ele>1094.1</ele>
        <time>2018-11-24T05:28:57Z</time>
      </trkpt>
      <trkpt lat="42.82463" lon="0.99039">
        <ele>1091.8</ele>
        <time>2018-11-24T05:29:00Z</time>
      </trkpt>
      <trkpt lat="42.82467" lon="0.99031">
        <ele>1090.9</ele>
        <time>2018-11-24T05:29:03Z</time>
      </trkpt>
      <trkpt lat="42.82475" lon="0.99021">
        <ele>1089.3</ele>
        <time>2018-11-24T05:29:07Z</time>
      </trkpt>
      <trkpt lat="42.82485" lon="0.9901">
        <ele>1086</ele>
        <time>2018-11-24T05:29:12Z</time>
      </trkpt>
      <trkpt lat="42.82493" lon="0.99002">
        <ele>1082.6</ele>
        <time>2018-11-24T05:29:16Z</time>
      </trkpt>
      <trkpt lat="42.82483" lon="0.98993">
        <ele>1079.2</ele>
        <time>2018-11-24T05:29:21Z</time>
      </trkpt>
      <trkpt lat="42.82472" lon="0.98984">
        <ele>1075.8</ele>
        <time>2018-11-24T05:29:26Z</time>
      </trkpt>
      <trkpt lat="42.82457" lon="0.98983">
        <ele>1072.6</ele>
        <time>2018-11-24T05:29:32Z</time>
      </trkpt>
      <trkpt lat="42.82446" lon="0.98976">
        <ele>1070.1</ele>
        <time>2018-11-24T05:29:37Z</time>
      </trkpt>
      <trkpt lat="42.8243" lon="0.98956">
        <ele>1067.3</ele>
        <time>2018-11-24T05:29:46Z</time>
      </trkpt>
      <trkpt lat="42.82425" lon="0.98965">
        <ele>1065.3</ele>
        <time>2018-11-24T05:29:49Z</time>
      </trkpt>
      <trkpt lat="42.82419" lon="0.98974">
        <ele>1064.3</ele>
        <time>2018-11-24T05:29:53Z</time>
      </trkpt>
      <trkpt lat="42.82411" lon="0.99003">
        <ele>1063.9</ele>
        <time>2018-11-24T05:30:02Z</time>
      </trkpt>
      <trkpt lat="42.82422" lon="0.98998">
        <ele>1063.4</ele>
        <time>2018-11-24T05:30:07Z</time>
      </trkpt>
      <trkpt lat="42.82421" lon="0.98986">
        <ele>1060.6</ele>
        <time>2018-11-24T05:30:10Z</time>
      </trkpt>
      <trkpt lat="42.82423" lon="0.98966">
        <ele>1056.6</ele>
        <time>2018-11-24T05:30:16Z</time>
      </trkpt>
      <trkpt lat="42.82421" lon="0.98962">
        <ele>1061</ele>
        <time>2018-11-24T05:30:18Z</time>
      </trkpt>
      <trkpt lat="42.82419" lon="0.98974">
        <ele>1062.4</ele>
        <time>2018-11-24T05:30:21Z</time>
      </trkpt>
      <trkpt lat="42.82422" lon="0.98989">
        <ele>1063.9</ele>
        <time>2018-11-24T05:30:26Z</time>
      </trkpt>
      <trkpt lat="42.82422" lon="0.98992">
        <ele>1064.4</ele>
        <time>2018-11-24T05:30:27Z</time>
      </trkpt>
      <trkpt lat="42.82424" lon="0.98999">
        <ele>1064.4</ele>
        <time>2018-11-24T05:30:29Z</time>
      </trkpt>
      <trkpt lat="42.82421" lon="0.99005">
        <ele>1062.9</ele>
        <time>2018-11-24T05:30:31Z</time>
      </trkpt>
      <trkpt lat="42.82421" lon="0.99005">
        <ele>1064.9</ele>
        <time>2018-11-24T05:30:31Z</time>
      </trkpt>
      <trkpt lat="42.82423" lon="0.99004">
        <ele>1063.9</ele>
        <time>2018-11-24T05:30:32Z</time>
      </trkpt>
      <trkpt lat="42.82425" lon="0.99008">
        <ele>1065.4</ele>
        <time>2018-11-24T05:30:34Z</time>
      </trkpt>
      <trkpt lat="42.82417" lon="0.99025">
        <ele>1065.4</ele>
        <time>2018-11-24T05:30:40Z</time>
      </trkpt>
      <trkpt lat="42.82415" lon="0.99024">
        <ele>1063.8</ele>
        <time>2018-11-24T05:30:40Z</time>
      </trkpt>
      <trkpt lat="42.82408" lon="0.99014">
        <ele>1063.5</ele>
        <time>2018-11-24T05:30:44Z</time>
      </trkpt>
      <trkpt lat="42.82399" lon="0.99007">
        <ele>1064.8</ele>
        <time>2018-11-24T05:30:49Z</time>
      </trkpt>
      <trkpt lat="42.82396" lon="0.99008">
        <ele>1068.2</ele>
        <time>2018-11-24T05:30:50Z</time>
      </trkpt>
      <trkpt lat="42.82393" lon="0.99018">
        <ele>1070.1</ele>
        <time>2018-11-24T05:30:53Z</time>
      </trkpt>
      <trkpt lat="42.82381" lon="0.99011">
        <ele>1071.1</ele>
        <time>2018-11-24T05:30:58Z</time>
      </trkpt>
      <trkpt lat="42.82377" lon="0.99002">
        <ele>1071.2</ele>
        <time>2018-11-24T05:31:01Z</time>
      </trkpt>
      <trkpt lat="42.82373" lon="0.98996">
        <ele>1069.7</ele>
        <time>2018-11-24T05:31:04Z</time>
      </trkpt>
      <trkpt lat="42.82373" lon="0.98996">
        <ele>1070.6</ele>
        <time>2018-11-24T05:31:04Z</time>
      </trkpt>
      <trkpt lat="42.82368" lon="0.98992">
        <ele>1071.6</ele>
        <time>2018-11-24T05:31:07Z</time>
      </trkpt>
      <trkpt lat="42.82357" lon="0.99005">
        <ele>1072.1</ele>
        <time>2018-11-24T05:31:12Z</time>
      </trkpt>
      <trkpt lat="42.82357" lon="0.98999">
        <ele>1072.1</ele>
        <time>2018-11-24T05:31:14Z</time>
      </trkpt>
      <trkpt lat="42.82361" lon="0.98997">
        <ele>1072.1</ele>
        <time>2018-11-24T05:31:15Z</time>
      </trkpt>
      <trkpt lat="42.82371" lon="0.98992">
        <ele>1071.1</ele>
        <time>2018-11-24T05:31:20Z</time>
      </trkpt>
      <trkpt lat="42.82375" lon="0.98995">
        <ele>1070.6</ele>
        <time>2018-11-24T05:31:22Z</time>
      </trkpt>
      <trkpt lat="42.82377" lon="0.98998">
        <ele>1070.6</ele>
        <time>2018-11-24T05:31:23Z</time>
      </trkpt>
      <trkpt lat="42.82371" lon="0.98988">
        <ele>1070.7</ele>
        <time>2018-11-24T05:31:27Z</time>
      </trkpt>
      <trkpt lat="42.82367" lon="0.98985">
        <ele>1072</ele>
        <time>2018-11-24T05:31:29Z</time>
      </trkpt>
      <trkpt lat="42.82354" lon="0.98976">
        <ele>1073.1</ele>
        <time>2018-11-24T05:31:35Z</time>
      </trkpt>
      <trkpt lat="42.82337" lon="0.98979">
        <ele>1075</ele>
        <time>2018-11-24T05:31:42Z</time>
      </trkpt>
      <trkpt lat="42.82328" lon="0.98973">
        <ele>1075.8</ele>
        <time>2018-11-24T05:31:45Z</time>
      </trkpt>
      <trkpt lat="42.8231" lon="0.98974">
        <ele>1078.4</ele>
        <time>2018-11-24T05:31:53Z</time>
      </trkpt>
      <trkpt lat="42.82297" lon="0.98972">
        <ele>1080.2</ele>
        <time>2018-11-24T05:31:58Z</time>
      </trkpt>
      <trkpt lat="42.82287" lon="0.98972">
        <ele>1082.2</ele>
        <time>2018-11-24T05:32:02Z</time>
      </trkpt>
      <trkpt lat="42.82276" lon="0.98974">
        <ele>1084.6</ele>
        <time>2018-11-24T05:32:07Z</time>
      </trkpt>
      <trkpt lat="42.82268" lon="0.98974">
        <ele>1086</ele>
        <time>2018-11-24T05:32:10Z</time>
      </trkpt>
      <trkpt lat="42.82259" lon="0.98973">
        <ele>1086.4</ele>
        <time>2018-11-24T05:32:13Z</time>
      </trkpt>
      <trkpt lat="42.82249" lon="0.98975">
        <ele>1088.8</ele>
        <time>2018-11-24T05:32:17Z</time>
      </trkpt>
      <trkpt lat="42.82232" lon="0.98982">
        <ele>1089.3</ele>
        <time>2018-11-24T05:32:25Z</time>
      </trkpt>
      <trkpt lat="42.82228" lon="0.98987">
        <ele>1088</ele>
        <time>2018-11-24T05:32:27Z</time>
      </trkpt>
      <trkpt lat="42.8222" lon="0.98986">
        <ele>1088</ele>
        <time>2018-11-24T05:32:30Z</time>
      </trkpt>
      <trkpt lat="42.82222" lon="0.98981">
        <ele>1088</ele>
        <time>2018-11-24T05:32:32Z</time>
      </trkpt>
      <trkpt lat="42.8223" lon="0.98985">
        <ele>1088.8</ele>
        <time>2018-11-24T05:32:35Z</time>
      </trkpt>
      <trkpt lat="42.8223" lon="0.98981">
        <ele>1088.8</ele>
        <time>2018-11-24T05:32:37Z</time>
      </trkpt>
      <trkpt lat="42.82229" lon="0.98979">
        <ele>1089.9</ele>
        <time>2018-11-24T05:32:37Z</time>
      </trkpt>
      <trkpt lat="42.82232" lon="0.98973">
        <ele>1090.9</ele>
        <time>2018-11-24T05:32:39Z</time>
      </trkpt>
      <trkpt lat="42.82224" lon="0.98972">
        <ele>1091.7</ele>
        <time>2018-11-24T05:32:42Z</time>
      </trkpt>
      <trkpt lat="42.82206" lon="0.9896">
        <ele>1093.7</ele>
        <time>2018-11-24T05:32:51Z</time>
      </trkpt>
      <trkpt lat="42.82188" lon="0.98949">
        <ele>1095.1</ele>
        <time>2018-11-24T05:32:58Z</time>
      </trkpt>
      <trkpt lat="42.82173" lon="0.98937">
        <ele>1097.5</ele>
        <time>2018-11-24T05:33:05Z</time>
      </trkpt>
      <trkpt lat="42.82171" lon="0.98934">
        <ele>1097.5</ele>
        <time>2018-11-24T05:33:07Z</time>
      </trkpt>
      <trkpt lat="42.82167" lon="0.98929">
        <ele>1097.6</ele>
        <time>2018-11-24T05:33:09Z</time>
      </trkpt>
      <trkpt lat="42.82146" lon="0.98912">
        <ele>1099.5</ele>
        <time>2018-11-24T05:33:18Z</time>
      </trkpt>
      <trkpt lat="42.82131" lon="0.98898">
        <ele>1100.8</ele>
        <time>2018-11-24T05:33:26Z</time>
      </trkpt>
      <trkpt lat="42.82119" lon="0.98885">
        <ele>1101.4</ele>
        <time>2018-11-24T05:33:32Z</time>
      </trkpt>
      <trkpt lat="42.82119" lon="0.98882">
        <ele>1100.8</ele>
        <time>2018-11-24T05:33:33Z</time>
      </trkpt>
      <trkpt lat="42.82119" lon="0.9888">
        <ele>1100.8</ele>
        <time>2018-11-24T05:33:33Z</time>
      </trkpt>
      <trkpt lat="42.82108" lon="0.98857">
        <ele>1100.9</ele>
        <time>2018-11-24T05:33:41Z</time>
      </trkpt>
      <trkpt lat="42.82097" lon="0.9885">
        <ele>1100.9</ele>
        <time>2018-11-24T05:33:46Z</time>
      </trkpt>
      <trkpt lat="42.82094" lon="0.98851">
        <ele>1100.9</ele>
        <time>2018-11-24T05:33:48Z</time>
      </trkpt>
      <trkpt lat="42.82081" lon="0.98849">
        <ele>1101.3</ele>
        <time>2018-11-24T05:33:53Z</time>
      </trkpt>
      <trkpt lat="42.8208" lon="0.98842">
        <ele>1101.3</ele>
        <time>2018-11-24T05:33:55Z</time>
      </trkpt>
      <trkpt lat="42.82079" lon="0.98839">
        <ele>1101.4</ele>
        <time>2018-11-24T05:33:56Z</time>
      </trkpt>
      <trkpt lat="42.82074" lon="0.9883">
        <ele>1101.8</ele>
        <time>2018-11-24T05:33:59Z</time>
      </trkpt>
      <trkpt lat="42.82058" lon="0.98807">
        <ele>1100.5</ele>
        <time>2018-11-24T05:34:08Z</time>
      </trkpt>
      <trkpt lat="42.82037" lon="0.98797">
        <ele>1099.9</ele>
        <time>2018-11-24T05:34:17Z</time>
      </trkpt>
      <trkpt lat="42.82028" lon="0.98797">
        <ele>1096.6</ele>
        <time>2018-11-24T05:34:21Z</time>
      </trkpt>
      <trkpt lat="42.82024" lon="0.98797">
        <ele>1096</ele>
        <time>2018-11-24T05:34:22Z</time>
      </trkpt>
      <trkpt lat="42.82022" lon="0.98797">
        <ele>1096.1</ele>
        <time>2018-11-24T05:34:23Z</time>
      </trkpt>
      <trkpt lat="42.82021" lon="0.98794">
        <ele>1095.6</ele>
        <time>2018-11-24T05:34:24Z</time>
      </trkpt>
      <trkpt lat="42.82022" lon="0.98789">
        <ele>1095.6</ele>
        <time>2018-11-24T05:34:26Z</time>
      </trkpt>
      <trkpt lat="42.82022" lon="0.98775">
        <ele>1097</ele>
        <time>2018-11-24T05:34:30Z</time>
      </trkpt>
      <trkpt lat="42.82022" lon="0.98773">
        <ele>1097</ele>
        <time>2018-11-24T05:34:31Z</time>
      </trkpt>
      <trkpt lat="42.82016" lon="0.98761">
        <ele>1098.9</ele>
        <time>2018-11-24T05:34:35Z</time>
      </trkpt>
      <trkpt lat="42.82003" lon="0.98757">
        <ele>1098.4</ele>
        <time>2018-11-24T05:34:40Z</time>
      </trkpt>
      <trkpt lat="42.81981" lon="0.98748">
        <ele>1097.1</ele>
        <time>2018-11-24T05:34:50Z</time>
      </trkpt>
      <trkpt lat="42.81962" lon="0.9873">
        <ele>1097.5</ele>
        <time>2018-11-24T05:34:59Z</time>
      </trkpt>
      <trkpt lat="42.81945" lon="0.98715">
        <ele>1097.6</ele>
        <time>2018-11-24T05:35:07Z</time>
      </trkpt>
      <trkpt lat="42.81929" lon="0.98702">
        <ele>1097.5</ele>
        <time>2018-11-24T05:35:14Z</time>
      </trkpt>
      <trkpt lat="42.81918" lon="0.98681">
        <ele>1098.1</ele>
        <time>2018-11-24T05:35:22Z</time>
      </trkpt>
      <trkpt lat="42.81916" lon="0.98676">
        <ele>1098.4</ele>
        <time>2018-11-24T05:35:24Z</time>
      </trkpt>
      <trkpt lat="42.81916" lon="0.9866">
        <ele>1098.5</ele>
        <time>2018-11-24T05:35:28Z</time>
      </trkpt>
      <trkpt lat="42.81911" lon="0.98632">
        <ele>1100.8</ele>
        <time>2018-11-24T05:35:37Z</time>
      </trkpt>
      <trkpt lat="42.81904" lon="0.98616">
        <ele>1103.3</ele>
        <time>2018-11-24T05:35:42Z</time>
      </trkpt>
      <trkpt lat="42.81901" lon="0.98601">
        <ele>1105.7</ele>
        <time>2018-11-24T05:35:47Z</time>
      </trkpt>
      <trkpt lat="42.81907" lon="0.98593">
        <ele>1105.2</ele>
        <time>2018-11-24T05:35:50Z</time>
      </trkpt>
      <trkpt lat="42.81897" lon="0.98589">
        <ele>1103.7</ele>
        <time>2018-11-24T05:35:54Z</time>
      </trkpt>
      <trkpt lat="42.81889" lon="0.98595">
        <ele>1104.8</ele>
        <time>2018-11-24T05:35:58Z</time>
      </trkpt>
      <trkpt lat="42.81888" lon="0.98589">
        <ele>1104.7</ele>
        <time>2018-11-24T05:36:00Z</time>
      </trkpt>
      <trkpt lat="42.81894" lon="0.98585">
        <ele>1104.7</ele>
        <time>2018-11-24T05:36:02Z</time>
      </trkpt>
      <trkpt lat="42.81895" lon="0.98581">
        <ele>1104.8</ele>
        <time>2018-11-24T05:36:04Z</time>
      </trkpt>
      <trkpt lat="42.819" lon="0.98566">
        <ele>1105.2</ele>
        <time>2018-11-24T05:36:09Z</time>
      </trkpt>
      <trkpt lat="42.81905" lon="0.98557">
        <ele>1107.7</ele>
        <time>2018-11-24T05:36:12Z</time>
      </trkpt>
      <trkpt lat="42.81913" lon="0.98546">
        <ele>1109.6</ele>
        <time>2018-11-24T05:36:17Z</time>
      </trkpt>
      <trkpt lat="42.81899" lon="0.98543">
        <ele>1111.9</ele>
        <time>2018-11-24T05:36:23Z</time>
      </trkpt>
      <trkpt lat="42.81906" lon="0.98534">
        <ele>1113.3</ele>
        <time>2018-11-24T05:36:27Z</time>
      </trkpt>
      <trkpt lat="42.81921" lon="0.98528">
        <ele>1115.3</ele>
        <time>2018-11-24T05:36:33Z</time>
      </trkpt>
      <trkpt lat="42.81937" lon="0.98519">
        <ele>1117.7</ele>
        <time>2018-11-24T05:36:40Z</time>
      </trkpt>
      <trkpt lat="42.81953" lon="0.98513">
        <ele>1119.2</ele>
        <time>2018-11-24T05:36:47Z</time>
      </trkpt>
      <trkpt lat="42.81966" lon="0.98506">
        <ele>1121.1</ele>
        <time>2018-11-24T05:36:52Z</time>
      </trkpt>
      <trkpt lat="42.81982" lon="0.98501">
        <ele>1123.9</ele>
        <time>2018-11-24T05:36:58Z</time>
      </trkpt>
      <trkpt lat="42.81994" lon="0.98496">
        <ele>1127.4</ele>
        <time>2018-11-24T05:37:04Z</time>
      </trkpt>
      <trkpt lat="42.82002" lon="0.98498">
        <ele>1128.3</ele>
        <time>2018-11-24T05:37:07Z</time>
      </trkpt>
      <trkpt lat="42.82006" lon="0.98492">
        <ele>1130.2</ele>
        <time>2018-11-24T05:37:09Z</time>
      </trkpt>
      <trkpt lat="42.82004" lon="0.98491">
        <ele>1129.2</ele>
        <time>2018-11-24T05:37:10Z</time>
      </trkpt>
      <trkpt lat="42.82013" lon="0.98489">
        <ele>1132.1</ele>
        <time>2018-11-24T05:37:14Z</time>
      </trkpt>
      <trkpt lat="42.82022" lon="0.98492">
        <ele>1134.5</ele>
        <time>2018-11-24T05:37:18Z</time>
      </trkpt>
      <trkpt lat="42.82034" lon="0.98493">
        <ele>1138</ele>
        <time>2018-11-24T05:37:22Z</time>
      </trkpt>
      <trkpt lat="42.82048" lon="0.98491">
        <ele>1140.3</ele>
        <time>2018-11-24T05:37:28Z</time>
      </trkpt>
      <trkpt lat="42.82051" lon="0.98496">
        <ele>1140.7</ele>
        <time>2018-11-24T05:37:30Z</time>
      </trkpt>
      <trkpt lat="42.82049" lon="0.985">
        <ele>1140.8</ele>
        <time>2018-11-24T05:37:31Z</time>
      </trkpt>
      <trkpt lat="42.82055" lon="0.98506">
        <ele>1141.8</ele>
        <time>2018-11-24T05:37:34Z</time>
      </trkpt>
      <trkpt lat="42.82065" lon="0.9851">
        <ele>1145.1</ele>
        <time>2018-11-24T05:37:38Z</time>
      </trkpt>
      <trkpt lat="42.82074" lon="0.98514">
        <ele>1147.6</ele>
        <time>2018-11-24T05:37:42Z</time>
      </trkpt>
      <trkpt lat="42.82083" lon="0.98521">
        <ele>1148.9</ele>
        <time>2018-11-24T05:37:46Z</time>
      </trkpt>
      <trkpt lat="42.82085" lon="0.98525">
        <ele>1147.6</ele>
        <time>2018-11-24T05:37:47Z</time>
      </trkpt>
      <trkpt lat="42.82097" lon="0.98542">
        <ele>1147.1</ele>
        <time>2018-11-24T05:37:54Z</time>
      </trkpt>
      <trkpt lat="42.821" lon="0.98544">
        <ele>1148.5</ele>
        <time>2018-11-24T05:37:56Z</time>
      </trkpt>
      <trkpt lat="42.82106" lon="0.9855">
        <ele>1151.4</ele>
        <time>2018-11-24T05:37:58Z</time>
      </trkpt>
      <trkpt lat="42.82111" lon="0.98561">
        <ele>1153.3</ele>
        <time>2018-11-24T05:38:02Z</time>
      </trkpt>
      <trkpt lat="42.82125" lon="0.98569">
        <ele>1153.7</ele>
        <time>2018-11-24T05:38:09Z</time>
      </trkpt>
      <trkpt lat="42.82136" lon="0.98576">
        <ele>1155.6</ele>
        <time>2018-11-24T05:38:13Z</time>
      </trkpt>
      <trkpt lat="42.82144" lon="0.98583">
        <ele>1156.7</ele>
        <time>2018-11-24T05:38:17Z</time>
      </trkpt>
      <trkpt lat="42.8216" lon="0.98574">
        <ele>1159.6</ele>
        <time>2018-11-24T05:38:24Z</time>
      </trkpt>
      <trkpt lat="42.82171" lon="0.98567">
        <ele>1162</ele>
        <time>2018-11-24T05:38:29Z</time>
      </trkpt>
      <trkpt lat="42.82186" lon="0.98574">
        <ele>1164.9</ele>
        <time>2018-11-24T05:38:35Z</time>
      </trkpt>
      <trkpt lat="42.82195" lon="0.98583">
        <ele>1166.8</ele>
        <time>2018-11-24T05:38:40Z</time>
      </trkpt>
      <trkpt lat="42.82207" lon="0.98588">
        <ele>1169.6</ele>
        <time>2018-11-24T05:38:45Z</time>
      </trkpt>
      <trkpt lat="42.82217" lon="0.98591">
        <ele>1172.6</ele>
        <time>2018-11-24T05:38:49Z</time>
      </trkpt>
      <trkpt lat="42.82229" lon="0.98598">
        <ele>1175.9</ele>
        <time>2018-11-24T05:38:54Z</time>
      </trkpt>
      <trkpt lat="42.82235" lon="0.98587">
        <ele>1178.3</ele>
        <time>2018-11-24T05:38:58Z</time>
      </trkpt>
      <trkpt lat="42.82228" lon="0.98568">
        <ele>1181.1</ele>
        <time>2018-11-24T05:39:05Z</time>
      </trkpt>
      <trkpt lat="42.82219" lon="0.98555">
        <ele>1182.6</ele>
        <time>2018-11-24T05:39:10Z</time>
      </trkpt>
      <trkpt lat="42.82215" lon="0.98552">
        <ele>1184</ele>
        <time>2018-11-24T05:39:12Z</time>
      </trkpt>
      <trkpt lat="42.82212" lon="0.98547">
        <ele>1185.1</ele>
        <time>2018-11-24T05:39:13Z</time>
      </trkpt>
      <trkpt lat="42.8222" lon="0.98546">
        <ele>1185</ele>
        <time>2018-11-24T05:39:16Z</time>
      </trkpt>
      <trkpt lat="42.82216" lon="0.98548">
        <ele>1175.9</ele>
        <time>2018-11-24T05:39:18Z</time>
      </trkpt>
      <trkpt lat="42.82216" lon="0.98548">
        <ele>1180.7</ele>
        <time>2018-11-24T05:39:18Z</time>
      </trkpt>
      <trkpt lat="42.82216" lon="0.98548">
        <ele>1193.1</ele>
        <time>2018-11-24T05:39:18Z</time>
      </trkpt>
      <trkpt lat="42.82217" lon="0.98549">
        <ele>1188.4</ele>
        <time>2018-11-24T05:39:19Z</time>
      </trkpt>
      <trkpt lat="42.82217" lon="0.9855">
        <ele>1184.5</ele>
        <time>2018-11-24T05:39:19Z</time>
      </trkpt>
      <trkpt lat="42.82217" lon="0.98551">
        <ele>1184.5</ele>
        <time>2018-11-24T05:39:19Z</time>
      </trkpt>
      <trkpt lat="42.82216" lon="0.98552">
        <ele>1184</ele>
        <time>2018-11-24T05:39:20Z</time>
      </trkpt>
      <trkpt lat="42.82218" lon="0.98551">
        <ele>1184.1</ele>
        <time>2018-11-24T05:39:21Z</time>
      </trkpt>
      <trkpt lat="42.82214" lon="0.98552">
        <ele>1184</ele>
        <time>2018-11-24T05:39:22Z</time>
      </trkpt>
      <trkpt lat="42.82219" lon="0.98558">
        <ele>1184.5</ele>
        <time>2018-11-24T05:39:25Z</time>
      </trkpt>
      <trkpt lat="42.82221" lon="0.98556">
        <ele>1184.6</ele>
        <time>2018-11-24T05:39:26Z</time>
      </trkpt>
      <trkpt lat="42.82215" lon="0.98554">
        <ele>1184.6</ele>
        <time>2018-11-24T05:39:28Z</time>
      </trkpt>
      <trkpt lat="42.82215" lon="0.98562">
        <ele>1185</ele>
        <time>2018-11-24T05:39:31Z</time>
      </trkpt>
      <trkpt lat="42.82215" lon="0.98562">
        <ele>1185.5</ele>
        <time>2018-11-24T05:39:31Z</time>
      </trkpt>
      <trkpt lat="42.82217" lon="0.98564">
        <ele>1185.4</ele>
        <time>2018-11-24T05:39:31Z</time>
      </trkpt>
      <trkpt lat="42.82218" lon="0.98566">
        <ele>1186</ele>
        <time>2018-11-24T05:39:32Z</time>
      </trkpt>
      <trkpt lat="42.82218" lon="0.9857">
        <ele>1186.5</ele>
        <time>2018-11-24T05:39:33Z</time>
      </trkpt>
      <trkpt lat="42.82218" lon="0.98565">
        <ele>1186.9</ele>
        <time>2018-11-24T05:39:35Z</time>
      </trkpt>
      <trkpt lat="42.82215" lon="0.98564">
        <ele>1187.5</ele>
        <time>2018-11-24T05:39:36Z</time>
      </trkpt>
      <trkpt lat="42.82216" lon="0.98567">
        <ele>1187.9</ele>
        <time>2018-11-24T05:39:37Z</time>
      </trkpt>
      <trkpt lat="42.82218" lon="0.9857">
        <ele>1188.3</ele>
        <time>2018-11-24T05:39:38Z</time>
      </trkpt>
      <trkpt lat="42.82212" lon="0.98575">
        <ele>1189.8</ele>
        <time>2018-11-24T05:39:41Z</time>
      </trkpt>
      <trkpt lat="42.82197" lon="0.98552">
        <ele>1191.2</ele>
        <time>2018-11-24T05:39:50Z</time>
      </trkpt>
      <trkpt lat="42.82187" lon="0.9854">
        <ele>1194.2</ele>
        <time>2018-11-24T05:39:56Z</time>
      </trkpt>
      <trkpt lat="42.82176" lon="0.98529">
        <ele>1197.5</ele>
        <time>2018-11-24T05:40:01Z</time>
      </trkpt>
      <trkpt lat="42.82176" lon="0.98524">
        <ele>1200.4</ele>
        <time>2018-11-24T05:40:02Z</time>
      </trkpt>
      <trkpt lat="42.82193" lon="0.98522">
        <ele>1203.8</ele>
        <time>2018-11-24T05:40:09Z</time>
      </trkpt>
      <trkpt lat="42.82195" lon="0.98514">
        <ele>1206.7</ele>
        <time>2018-11-24T05:40:12Z</time>
      </trkpt>
      <trkpt lat="42.82181" lon="0.98508">
        <ele>1209.5</ele>
        <time>2018-11-24T05:40:17Z</time>
      </trkpt>
      <trkpt lat="42.82172" lon="0.98502">
        <ele>1212.4</ele>
        <time>2018-11-24T05:40:21Z</time>
      </trkpt>
      <trkpt lat="42.82177" lon="0.98497">
        <ele>1215.7</ele>
        <time>2018-11-24T05:40:24Z</time>
      </trkpt>
      <trkpt lat="42.82181" lon="0.98488">
        <ele>1218.6</ele>
        <time>2018-11-24T05:40:27Z</time>
      </trkpt>
      <trkpt lat="42.82171" lon="0.98478">
        <ele>1220.5</ele>
        <time>2018-11-24T05:40:31Z</time>
      </trkpt>
      <trkpt lat="42.82163" lon="0.98479">
        <ele>1223.4</ele>
        <time>2018-11-24T05:40:35Z</time>
      </trkpt>
      <trkpt lat="42.82158" lon="0.98468">
        <ele>1226.4</ele>
        <time>2018-11-24T05:40:39Z</time>
      </trkpt>
      <trkpt lat="42.82151" lon="0.9845">
        <ele>1228.3</ele>
        <time>2018-11-24T05:40:44Z</time>
      </trkpt>
      <trkpt lat="42.82161" lon="0.98461">
        <ele>1231.1</ele>
        <time>2018-11-24T05:40:50Z</time>
      </trkpt>
      <trkpt lat="42.82167" lon="0.9845">
        <ele>1234.6</ele>
        <time>2018-11-24T05:40:53Z</time>
      </trkpt>
      <trkpt lat="42.82177" lon="0.98428">
        <ele>1234.5</ele>
        <time>2018-11-24T05:41:01Z</time>
      </trkpt>
      <trkpt lat="42.82181" lon="0.98412">
        <ele>1237.3</ele>
        <time>2018-11-24T05:41:06Z</time>
      </trkpt>
      <trkpt lat="42.82177" lon="0.98394">
        <ele>1236.9</ele>
        <time>2018-11-24T05:41:11Z</time>
      </trkpt>
      <trkpt lat="42.82173" lon="0.98372">
        <ele>1238.4</ele>
        <time>2018-11-24T05:41:18Z</time>
      </trkpt>
      <trkpt lat="42.82171" lon="0.98353">
        <ele>1241.3</ele>
        <time>2018-11-24T05:41:23Z</time>
      </trkpt>
      <trkpt lat="42.82173" lon="0.98336">
        <ele>1245</ele>
        <time>2018-11-24T05:41:29Z</time>
      </trkpt>
      <trkpt lat="42.82176" lon="0.98325">
        <ele>1247.9</ele>
        <time>2018-11-24T05:41:32Z</time>
      </trkpt>
      <trkpt lat="42.82174" lon="0.98311">
        <ele>1251.3</ele>
        <time>2018-11-24T05:41:36Z</time>
      </trkpt>
      <trkpt lat="42.82169" lon="0.98304">
        <ele>1254.7</ele>
        <time>2018-11-24T05:41:39Z</time>
      </trkpt>
      <trkpt lat="42.82173" lon="0.98296">
        <ele>1257.6</ele>
        <time>2018-11-24T05:41:42Z</time>
      </trkpt>
      <trkpt lat="42.82181" lon="0.9828">
        <ele>1261</ele>
        <time>2018-11-24T05:41:48Z</time>
      </trkpt>
      <trkpt lat="42.82186" lon="0.98271">
        <ele>1264.3</ele>
        <time>2018-11-24T05:41:51Z</time>
      </trkpt>
      <trkpt lat="42.82194" lon="0.98259">
        <ele>1266.8</ele>
        <time>2018-11-24T05:41:56Z</time>
      </trkpt>
      <trkpt lat="42.82204" lon="0.98241">
        <ele>1268.7</ele>
        <time>2018-11-24T05:42:02Z</time>
      </trkpt>
      <trkpt lat="42.82209" lon="0.9823">
        <ele>1268.1</ele>
        <time>2018-11-24T05:42:06Z</time>
      </trkpt>
      <trkpt lat="42.82219" lon="0.9821">
        <ele>1265.2</ele>
        <time>2018-11-24T05:42:13Z</time>
      </trkpt>
      <trkpt lat="42.82228" lon="0.98193">
        <ele>1263.9</ele>
        <time>2018-11-24T05:42:19Z</time>
      </trkpt>
      <trkpt lat="42.82243" lon="0.98168">
        <ele>1265.7</ele>
        <time>2018-11-24T05:42:29Z</time>
      </trkpt>
      <trkpt lat="42.82252" lon="0.98159">
        <ele>1268.6</ele>
        <time>2018-11-24T05:42:33Z</time>
      </trkpt>
      <trkpt lat="42.8226" lon="0.98144">
        <ele>1272</ele>
        <time>2018-11-24T05:42:39Z</time>
      </trkpt>
      <trkpt lat="42.82269" lon="0.98129">
        <ele>1274.4</ele>
        <time>2018-11-24T05:42:44Z</time>
      </trkpt>
      <trkpt lat="42.82274" lon="0.98106">
        <ele>1276.4</ele>
        <time>2018-11-24T05:42:52Z</time>
      </trkpt>
      <trkpt lat="42.82272" lon="0.98091">
        <ele>1278.2</ele>
        <time>2018-11-24T05:42:56Z</time>
      </trkpt>
      <trkpt lat="42.82273" lon="0.98077">
        <ele>1280.7</ele>
        <time>2018-11-24T05:43:00Z</time>
      </trkpt>
      <trkpt lat="42.82294" lon="0.98061">
        <ele>1284</ele>
        <time>2018-11-24T05:43:10Z</time>
      </trkpt>
      <trkpt lat="42.82306" lon="0.98057">
        <ele>1287.3</ele>
        <time>2018-11-24T05:43:15Z</time>
      </trkpt>
      <trkpt lat="42.82314" lon="0.98044">
        <ele>1288.9</ele>
        <time>2018-11-24T05:43:20Z</time>
      </trkpt>
      <trkpt lat="42.82325" lon="0.98032">
        <ele>1290.8</ele>
        <time>2018-11-24T05:43:25Z</time>
      </trkpt>
      <trkpt lat="42.82339" lon="0.9802">
        <ele>1294.1</ele>
        <time>2018-11-24T05:43:32Z</time>
      </trkpt>
      <trkpt lat="42.82348" lon="0.98004">
        <ele>1296</ele>
        <time>2018-11-24T05:43:38Z</time>
      </trkpt>
      <trkpt lat="42.82359" lon="0.97994">
        <ele>1297.4</ele>
        <time>2018-11-24T05:43:43Z</time>
      </trkpt>
      <trkpt lat="42.82364" lon="0.97986">
        <ele>1299.8</ele>
        <time>2018-11-24T05:43:46Z</time>
      </trkpt>
      <trkpt lat="42.82375" lon="0.97973">
        <ele>1302.8</ele>
        <time>2018-11-24T05:43:52Z</time>
      </trkpt>
      <trkpt lat="42.82383" lon="0.97967">
        <ele>1306.1</ele>
        <time>2018-11-24T05:43:56Z</time>
      </trkpt>
      <trkpt lat="42.82391" lon="0.97961">
        <ele>1308.6</ele>
        <time>2018-11-24T05:43:59Z</time>
      </trkpt>
      <trkpt lat="42.82399" lon="0.9795">
        <ele>1311.5</ele>
        <time>2018-11-24T05:44:04Z</time>
      </trkpt>
      <trkpt lat="42.82409" lon="0.97938">
        <ele>1312.8</ele>
        <time>2018-11-24T05:44:09Z</time>
      </trkpt>
      <trkpt lat="42.82419" lon="0.97926">
        <ele>1315.2</ele>
        <time>2018-11-24T05:44:15Z</time>
      </trkpt>
      <trkpt lat="42.82429" lon="0.97914">
        <ele>1318.6</ele>
        <time>2018-11-24T05:44:20Z</time>
      </trkpt>
      <trkpt lat="42.82435" lon="0.97903">
        <ele>1321.6</ele>
        <time>2018-11-24T05:44:24Z</time>
      </trkpt>
      <trkpt lat="42.8244" lon="0.97896">
        <ele>1324</ele>
        <time>2018-11-24T05:44:27Z</time>
      </trkpt>
      <trkpt lat="42.82446" lon="0.97884">
        <ele>1325.3</ele>
        <time>2018-11-24T05:44:31Z</time>
      </trkpt>
      <trkpt lat="42.82457" lon="0.9787">
        <ele>1327.7</ele>
        <time>2018-11-24T05:44:37Z</time>
      </trkpt>
      <trkpt lat="42.82474" lon="0.97857">
        <ele>1329.6</ele>
        <time>2018-11-24T05:44:45Z</time>
      </trkpt>
      <trkpt lat="42.82482" lon="0.97844">
        <ele>1330.7</ele>
        <time>2018-11-24T05:44:50Z</time>
      </trkpt>
      <trkpt lat="42.82491" lon="0.97826">
        <ele>1332.5</ele>
        <time>2018-11-24T05:44:56Z</time>
      </trkpt>
      <trkpt lat="42.82498" lon="0.97811">
        <ele>1331.7</ele>
        <time>2018-11-24T05:45:02Z</time>
      </trkpt>
      <trkpt lat="42.82504" lon="0.97803">
        <ele>1331.2</ele>
        <time>2018-11-24T05:45:05Z</time>
      </trkpt>
      <trkpt lat="42.82522" lon="0.97786">
        <ele>1331.2</ele>
        <time>2018-11-24T05:45:14Z</time>
      </trkpt>
      <trkpt lat="42.82526" lon="0.97781">
        <ele>1331.2</ele>
        <time>2018-11-24T05:45:16Z</time>
      </trkpt>
      <trkpt lat="42.82539" lon="0.9776">
        <ele>1328.7</ele>
        <time>2018-11-24T05:45:24Z</time>
      </trkpt>
      <trkpt lat="42.82543" lon="0.97742">
        <ele>1328.3</ele>
        <time>2018-11-24T05:45:29Z</time>
      </trkpt>
      <trkpt lat="42.82543" lon="0.97735">
        <ele>1328.7</ele>
        <time>2018-11-24T05:45:32Z</time>
      </trkpt>
      <trkpt lat="42.82542" lon="0.97735">
        <ele>1328.8</ele>
        <time>2018-11-24T05:45:32Z</time>
      </trkpt>
      <trkpt lat="42.82545" lon="0.9774">
        <ele>1329.2</ele>
        <time>2018-11-24T05:45:34Z</time>
      </trkpt>
      <trkpt lat="42.82537" lon="0.97748">
        <ele>1329.6</ele>
        <time>2018-11-24T05:45:38Z</time>
      </trkpt>
      <trkpt lat="42.82536" lon="0.97749">
        <ele>1330.7</ele>
        <time>2018-11-24T05:45:38Z</time>
      </trkpt>
      <trkpt lat="42.82532" lon="0.9776">
        <ele>1333.6</ele>
        <time>2018-11-24T05:45:42Z</time>
      </trkpt>
      <trkpt lat="42.82524" lon="0.97775">
        <ele>1336.5</ele>
        <time>2018-11-24T05:45:47Z</time>
      </trkpt>
      <trkpt lat="42.82513" lon="0.97772">
        <ele>1338.8</ele>
        <time>2018-11-24T05:45:52Z</time>
      </trkpt>
      <trkpt lat="42.8251" lon="0.97777">
        <ele>1339.8</ele>
        <time>2018-11-24T05:45:54Z</time>
      </trkpt>
      <trkpt lat="42.82509" lon="0.97781">
        <ele>1338.4</ele>
        <time>2018-11-24T05:45:55Z</time>
      </trkpt>
      <trkpt lat="42.82505" lon="0.97771">
        <ele>1338.3</ele>
        <time>2018-11-24T05:45:58Z</time>
      </trkpt>
      <trkpt lat="42.82506" lon="0.97775">
        <ele>1338.4</ele>
        <time>2018-11-24T05:45:59Z</time>
      </trkpt>
      <trkpt lat="42.82507" lon="0.97779">
        <ele>1338.9</ele>
        <time>2018-11-24T05:46:00Z</time>
      </trkpt>
      <trkpt lat="42.8251" lon="0.97777">
        <ele>1338.9</ele>
        <time>2018-11-24T05:46:02Z</time>
      </trkpt>
      <trkpt lat="42.82509" lon="0.97775">
        <ele>1338.3</ele>
        <time>2018-11-24T05:46:03Z</time>
      </trkpt>
      <trkpt lat="42.82512" lon="0.97779">
        <ele>1338.8</ele>
        <time>2018-11-24T05:46:05Z</time>
      </trkpt>
      <trkpt lat="42.82515" lon="0.97786">
        <ele>1338.9</ele>
        <time>2018-11-24T05:46:07Z</time>
      </trkpt>
      <trkpt lat="42.82519" lon="0.97785">
        <ele>1337.3</ele>
        <time>2018-11-24T05:46:09Z</time>
      </trkpt>
      <trkpt lat="42.82529" lon="0.97783">
        <ele>1334.5</ele>
        <time>2018-11-24T05:46:13Z</time>
      </trkpt>
      <trkpt lat="42.82533" lon="0.97769">
        <ele>1332</ele>
        <time>2018-11-24T05:46:17Z</time>
      </trkpt>
      <trkpt lat="42.82537" lon="0.97752">
        <ele>1331.2</ele>
        <time>2018-11-24T05:46:22Z</time>
      </trkpt>
      <trkpt lat="42.82535" lon="0.9775">
        <ele>1329.7</ele>
        <time>2018-11-24T05:46:23Z</time>
      </trkpt>
      <trkpt lat="42.82535" lon="0.9775">
        <ele>1330.2</ele>
        <time>2018-11-24T05:46:23Z</time>
      </trkpt>
      <trkpt lat="42.82537" lon="0.97751">
        <ele>1331.1</ele>
        <time>2018-11-24T05:46:24Z</time>
      </trkpt>
      <trkpt lat="42.82541" lon="0.97765">
        <ele>1332.6</ele>
        <time>2018-11-24T05:46:29Z</time>
      </trkpt>
      <trkpt lat="42.82544" lon="0.97778">
        <ele>1333</ele>
        <time>2018-11-24T05:46:33Z</time>
      </trkpt>
      <trkpt lat="42.8255" lon="0.97801">
        <ele>1334.4</ele>
        <time>2018-11-24T05:46:40Z</time>
      </trkpt>
      <trkpt lat="42.82556" lon="0.97816">
        <ele>1334.9</ele>
        <time>2018-11-24T05:46:45Z</time>
      </trkpt>
      <trkpt lat="42.8256" lon="0.97843">
        <ele>1335</ele>
        <time>2018-11-24T05:46:53Z</time>
      </trkpt>
      <trkpt lat="42.8256" lon="0.97855">
        <ele>1334.9</ele>
        <time>2018-11-24T05:46:57Z</time>
      </trkpt>
      <trkpt lat="42.82562" lon="0.97885">
        <ele>1334.9</ele>
        <time>2018-11-24T05:47:05Z</time>
      </trkpt>
      <trkpt lat="42.82564" lon="0.97909">
        <ele>1335.4</ele>
        <time>2018-11-24T05:47:12Z</time>
      </trkpt>
      <trkpt lat="42.82564" lon="0.97916">
        <ele>1335.5</ele>
        <time>2018-11-24T05:47:14Z</time>
      </trkpt>
      <trkpt lat="42.82565" lon="0.97931">
        <ele>1336.5</ele>
        <time>2018-11-24T05:47:19Z</time>
      </trkpt>
      <trkpt lat="42.82572" lon="0.97931">
        <ele>1338.4</ele>
        <time>2018-11-24T05:47:22Z</time>
      </trkpt>
      <trkpt lat="42.82579" lon="0.97922">
        <ele>1341.3</ele>
        <time>2018-11-24T05:47:26Z</time>
      </trkpt>
      <trkpt lat="42.82585" lon="0.97915">
        <ele>1343.2</ele>
        <time>2018-11-24T05:47:29Z</time>
      </trkpt>
      <trkpt lat="42.8259" lon="0.97907">
        <ele>1346.6</ele>
        <time>2018-11-24T05:47:32Z</time>
      </trkpt>
      <trkpt lat="42.82599" lon="0.97896">
        <ele>1349.4</ele>
        <time>2018-11-24T05:47:37Z</time>
      </trkpt>
      <trkpt lat="42.82603" lon="0.97889">
        <ele>1351.8</ele>
        <time>2018-11-24T05:47:39Z</time>
      </trkpt>
      <trkpt lat="42.82609" lon="0.97879">
        <ele>1354.7</ele>
        <time>2018-11-24T05:47:43Z</time>
      </trkpt>
      <trkpt lat="42.82606" lon="0.97869">
        <ele>1356.7</ele>
        <time>2018-11-24T05:47:46Z</time>
      </trkpt>
      <trkpt lat="42.82602" lon="0.97851">
        <ele>1356.6</ele>
        <time>2018-11-24T05:47:52Z</time>
      </trkpt>
      <trkpt lat="42.826" lon="0.97833">
        <ele>1357.6</ele>
        <time>2018-11-24T05:47:57Z</time>
      </trkpt>
      <trkpt lat="42.8261" lon="0.97846">
        <ele>1359.4</ele>
        <time>2018-11-24T05:48:03Z</time>
      </trkpt>
      <trkpt lat="42.82619" lon="0.97858">
        <ele>1361.8</ele>
        <time>2018-11-24T05:48:08Z</time>
      </trkpt>
      <trkpt lat="42.82617" lon="0.9785">
        <ele>1362.4</ele>
        <time>2018-11-24T05:48:10Z</time>
      </trkpt>
      <trkpt lat="42.82615" lon="0.97838">
        <ele>1363.8</ele>
        <time>2018-11-24T05:48:14Z</time>
      </trkpt>
      <trkpt lat="42.82623" lon="0.97841">
        <ele>1366.8</ele>
        <time>2018-11-24T05:48:17Z</time>
      </trkpt>
      <trkpt lat="42.82622" lon="0.9784">
        <ele>1366.7</ele>
        <time>2018-11-24T05:48:17Z</time>
      </trkpt>
      <trkpt lat="42.82621" lon="0.97836">
        <ele>1367.1</ele>
        <time>2018-11-24T05:48:19Z</time>
      </trkpt>
      <trkpt lat="42.82626" lon="0.97827">
        <ele>1370.5</ele>
        <time>2018-11-24T05:48:22Z</time>
      </trkpt>
      <trkpt lat="42.82629" lon="0.97821">
        <ele>1373</ele>
        <time>2018-11-24T05:48:24Z</time>
      </trkpt>
      <trkpt lat="42.82631" lon="0.97812">
        <ele>1374.3</ele>
        <time>2018-11-24T05:48:27Z</time>
      </trkpt>
      <trkpt lat="42.82638" lon="0.9782">
        <ele>1376.9</ele>
        <time>2018-11-24T05:48:31Z</time>
      </trkpt>
      <trkpt lat="42.82641" lon="0.97825">
        <ele>1376.9</ele>
        <time>2018-11-24T05:48:33Z</time>
      </trkpt>
      <trkpt lat="42.82642" lon="0.9782">
        <ele>1377.8</ele>
        <time>2018-11-24T05:48:34Z</time>
      </trkpt>
      <trkpt lat="42.82641" lon="0.97808">
        <ele>1380.1</ele>
        <time>2018-11-24T05:48:38Z</time>
      </trkpt>
      <trkpt lat="42.82645" lon="0.97808">
        <ele>1382.5</ele>
        <time>2018-11-24T05:48:39Z</time>
      </trkpt>
      <trkpt lat="42.8264" lon="0.97787">
        <ele>1384.4</ele>
        <time>2018-11-24T05:48:46Z</time>
      </trkpt>
      <trkpt lat="42.82645" lon="0.97788">
        <ele>1386</ele>
        <time>2018-11-24T05:48:48Z</time>
      </trkpt>
      <trkpt lat="42.82649" lon="0.97786">
        <ele>1388.8</ele>
        <time>2018-11-24T05:48:50Z</time>
      </trkpt>
      <trkpt lat="42.82647" lon="0.97774">
        <ele>1390.2</ele>
        <time>2018-11-24T05:48:53Z</time>
      </trkpt>
      <trkpt lat="42.82651" lon="0.97768">
        <ele>1393.1</ele>
        <time>2018-11-24T05:48:56Z</time>
      </trkpt>
      <trkpt lat="42.82648" lon="0.97754">
        <ele>1394.6</ele>
        <time>2018-11-24T05:49:00Z</time>
      </trkpt>
      <trkpt lat="42.8265" lon="0.97748">
        <ele>1396.9</ele>
        <time>2018-11-24T05:49:02Z</time>
      </trkpt>
      <trkpt lat="42.82654" lon="0.97746">
        <ele>1398.5</ele>
        <time>2018-11-24T05:49:04Z</time>
      </trkpt>
      <trkpt lat="42.82654" lon="0.9774">
        <ele>1401.3</ele>
        <time>2018-11-24T05:49:06Z</time>
      </trkpt>
      <trkpt lat="42.82655" lon="0.97734">
        <ele>1403.3</ele>
        <time>2018-11-24T05:49:08Z</time>
      </trkpt>
      <trkpt lat="42.82658" lon="0.97727">
        <ele>1404.7</ele>
        <time>2018-11-24T05:49:10Z</time>
      </trkpt>
      <trkpt lat="42.8266" lon="0.9772">
        <ele>1407.5</ele>
        <time>2018-11-24T05:49:12Z</time>
      </trkpt>
      <trkpt lat="42.82658" lon="0.97713">
        <ele>1409.9</ele>
        <time>2018-11-24T05:49:14Z</time>
      </trkpt>
      <trkpt lat="42.82663" lon="0.97713">
        <ele>1411.8</ele>
        <time>2018-11-24T05:49:16Z</time>
      </trkpt>
      <trkpt lat="42.82669" lon="0.97713">
        <ele>1413.9</ele>
        <time>2018-11-24T05:49:18Z</time>
      </trkpt>
      <trkpt lat="42.82657" lon="0.97696">
        <ele>1415.2</ele>
        <time>2018-11-24T05:49:25Z</time>
      </trkpt>
      <trkpt lat="42.82664" lon="0.97696">
        <ele>1417.1</ele>
        <time>2018-11-24T05:49:28Z</time>
      </trkpt>
      <trkpt lat="42.82673" lon="0.97697">
        <ele>1420.5</ele>
        <time>2018-11-24T05:49:32Z</time>
      </trkpt>
      <trkpt lat="42.82659" lon="0.97681">
        <ele>1421.1</ele>
        <time>2018-11-24T05:49:39Z</time>
      </trkpt>
      <trkpt lat="42.82664" lon="0.97676">
        <ele>1423.4</ele>
        <time>2018-11-24T05:49:42Z</time>
      </trkpt>
      <trkpt lat="42.82675" lon="0.97678">
        <ele>1426.3</ele>
        <time>2018-11-24T05:49:46Z</time>
      </trkpt>
      <trkpt lat="42.82668" lon="0.97668">
        <ele>1429.2</ele>
        <time>2018-11-24T05:49:50Z</time>
      </trkpt>
      <trkpt lat="42.82665" lon="0.97657">
        <ele>1430.6</ele>
        <time>2018-11-24T05:49:53Z</time>
      </trkpt>
      <trkpt lat="42.82673" lon="0.97653">
        <ele>1432.1</ele>
        <time>2018-11-24T05:49:57Z</time>
      </trkpt>
      <trkpt lat="42.82682" lon="0.97659">
        <ele>1435</ele>
        <time>2018-11-24T05:50:01Z</time>
      </trkpt>
      <trkpt lat="42.82682" lon="0.97654">
        <ele>1435.9</ele>
        <time>2018-11-24T05:50:02Z</time>
      </trkpt>
      <trkpt lat="42.82672" lon="0.9764">
        <ele>1438.9</ele>
        <time>2018-11-24T05:50:08Z</time>
      </trkpt>
      <trkpt lat="42.82677" lon="0.97635">
        <ele>1440.2</ele>
        <time>2018-11-24T05:50:10Z</time>
      </trkpt>
      <trkpt lat="42.82683" lon="0.97635">
        <ele>1442.6</ele>
        <time>2018-11-24T05:50:13Z</time>
      </trkpt>
      <trkpt lat="42.82676" lon="0.97622">
        <ele>1444</ele>
        <time>2018-11-24T05:50:18Z</time>
      </trkpt>
      <trkpt lat="42.82683" lon="0.97619">
        <ele>1447.5</ele>
        <time>2018-11-24T05:50:21Z</time>
      </trkpt>
      <trkpt lat="42.82687" lon="0.97614">
        <ele>1449.3</ele>
        <time>2018-11-24T05:50:23Z</time>
      </trkpt>
      <trkpt lat="42.82684" lon="0.97606">
        <ele>1451.7</ele>
        <time>2018-11-24T05:50:25Z</time>
      </trkpt>
      <trkpt lat="42.82679" lon="0.9759">
        <ele>1453.7</ele>
        <time>2018-11-24T05:50:31Z</time>
      </trkpt>
      <trkpt lat="42.82687" lon="0.97591">
        <ele>1455.7</ele>
        <time>2018-11-24T05:50:34Z</time>
      </trkpt>
      <trkpt lat="42.82693" lon="0.9759">
        <ele>1457</ele>
        <time>2018-11-24T05:50:36Z</time>
      </trkpt>
      <trkpt lat="42.82692" lon="0.97586">
        <ele>1457.5</ele>
        <time>2018-11-24T05:50:37Z</time>
      </trkpt>
      <trkpt lat="42.82691" lon="0.97582">
        <ele>1458</ele>
        <time>2018-11-24T05:50:39Z</time>
      </trkpt>
      <trkpt lat="42.82693" lon="0.97576">
        <ele>1460.5</ele>
        <time>2018-11-24T05:50:40Z</time>
      </trkpt>
      <trkpt lat="42.82693" lon="0.9757">
        <ele>1463.7</ele>
        <time>2018-11-24T05:50:42Z</time>
      </trkpt>
      <trkpt lat="42.82692" lon="0.97558">
        <ele>1466.2</ele>
        <time>2018-11-24T05:50:46Z</time>
      </trkpt>
      <trkpt lat="42.82696" lon="0.97556">
        <ele>1469</ele>
        <time>2018-11-24T05:50:48Z</time>
      </trkpt>
      <trkpt lat="42.82694" lon="0.9755">
        <ele>1469.6</ele>
        <time>2018-11-24T05:50:50Z</time>
      </trkpt>
      <trkpt lat="42.82693" lon="0.9754">
        <ele>1471.9</ele>
        <time>2018-11-24T05:50:53Z</time>
      </trkpt>
      <trkpt lat="42.82698" lon="0.97537">
        <ele>1474.3</ele>
        <time>2018-11-24T05:50:55Z</time>
      </trkpt>
      <trkpt lat="42.82707" lon="0.97537">
        <ele>1475.9</ele>
        <time>2018-11-24T05:50:59Z</time>
      </trkpt>
      <trkpt lat="42.82709" lon="0.9753">
        <ele>1479.2</ele>
        <time>2018-11-24T05:51:01Z</time>
      </trkpt>
      <trkpt lat="42.82703" lon="0.97518">
        <ele>1482.1</ele>
        <time>2018-11-24T05:51:05Z</time>
      </trkpt>
      <trkpt lat="42.8271" lon="0.97515">
        <ele>1484.5</ele>
        <time>2018-11-24T05:51:08Z</time>
      </trkpt>
      <trkpt lat="42.82705" lon="0.97506">
        <ele>1486.3</ele>
        <time>2018-11-24T05:51:11Z</time>
      </trkpt>
      <trkpt lat="42.82705" lon="0.97499">
        <ele>1489.3</ele>
        <time>2018-11-24T05:51:14Z</time>
      </trkpt>
      <trkpt lat="42.82715" lon="0.97495">
        <ele>1492.1</ele>
        <time>2018-11-24T05:51:17Z</time>
      </trkpt>
      <trkpt lat="42.82707" lon="0.97486">
        <ele>1494</ele>
        <time>2018-11-24T05:51:21Z</time>
      </trkpt>
      <trkpt lat="42.82714" lon="0.97484">
        <ele>1496</ele>
        <time>2018-11-24T05:51:24Z</time>
      </trkpt>
      <trkpt lat="42.82707" lon="0.97473">
        <ele>1499.3</ele>
        <time>2018-11-24T05:51:29Z</time>
      </trkpt>
      <trkpt lat="42.82713" lon="0.97471">
        <ele>1501.7</ele>
        <time>2018-11-24T05:51:32Z</time>
      </trkpt>
      <trkpt lat="42.8272" lon="0.97465">
        <ele>1503.6</ele>
        <time>2018-11-24T05:51:35Z</time>
      </trkpt>
      <trkpt lat="42.82714" lon="0.97458">
        <ele>1506.6</ele>
        <time>2018-11-24T05:51:38Z</time>
      </trkpt>
      <trkpt lat="42.82708" lon="0.97448">
        <ele>1508.9</ele>
        <time>2018-11-24T05:51:42Z</time>
      </trkpt>
      <trkpt lat="42.82708" lon="0.97441">
        <ele>1511.8</ele>
        <time>2018-11-24T05:51:44Z</time>
      </trkpt>
      <trkpt lat="42.82717" lon="0.9744">
        <ele>1513.7</ele>
        <time>2018-11-24T05:51:48Z</time>
      </trkpt>
      <trkpt lat="42.82721" lon="0.97437">
        <ele>1514.3</ele>
        <time>2018-11-24T05:51:50Z</time>
      </trkpt>
      <trkpt lat="42.82719" lon="0.9743">
        <ele>1516.6</ele>
        <time>2018-11-24T05:51:52Z</time>
      </trkpt>
      <trkpt lat="42.82714" lon="0.97423">
        <ele>1519.5</ele>
        <time>2018-11-24T05:51:55Z</time>
      </trkpt>
      <trkpt lat="42.82709" lon="0.97414">
        <ele>1522.4</ele>
        <time>2018-11-24T05:51:58Z</time>
      </trkpt>
      <trkpt lat="42.82704" lon="0.97401">
        <ele>1524.9</ele>
        <time>2018-11-24T05:52:02Z</time>
      </trkpt>
      <trkpt lat="42.827" lon="0.97395">
        <ele>1526.2</ele>
        <time>2018-11-24T05:52:05Z</time>
      </trkpt>
      <trkpt lat="42.82712" lon="0.97401">
        <ele>1529.2</ele>
        <time>2018-11-24T05:52:10Z</time>
      </trkpt>
      <trkpt lat="42.8272" lon="0.97401">
        <ele>1530.7</ele>
        <time>2018-11-24T05:52:13Z</time>
      </trkpt>
      <trkpt lat="42.82721" lon="0.97398">
        <ele>1531.1</ele>
        <time>2018-11-24T05:52:14Z</time>
      </trkpt>
      <trkpt lat="42.82726" lon="0.97393">
        <ele>1531.6</ele>
        <time>2018-11-24T05:52:17Z</time>
      </trkpt>
      <trkpt lat="42.82716" lon="0.97386">
        <ele>1534.9</ele>
        <time>2018-11-24T05:52:21Z</time>
      </trkpt>
      <trkpt lat="42.82715" lon="0.97378">
        <ele>1537.8</ele>
        <time>2018-11-24T05:52:23Z</time>
      </trkpt>
      <trkpt lat="42.82724" lon="0.97378">
        <ele>1541.2</ele>
        <time>2018-11-24T05:52:27Z</time>
      </trkpt>
      <trkpt lat="42.82726" lon="0.97372">
        <ele>1543.5</ele>
        <time>2018-11-24T05:52:29Z</time>
      </trkpt>
      <trkpt lat="42.82729" lon="0.97372">
        <ele>1543.5</ele>
        <time>2018-11-24T05:52:30Z</time>
      </trkpt>
      <trkpt lat="42.82731" lon="0.97372">
        <ele>1543.5</ele>
        <time>2018-11-24T05:52:30Z</time>
      </trkpt>
      <trkpt lat="42.82727" lon="0.97371">
        <ele>1543.6</ele>
        <time>2018-11-24T05:52:32Z</time>
      </trkpt>
      <trkpt lat="42.82726" lon="0.9737">
        <ele>1543.6</ele>
        <time>2018-11-24T05:52:32Z</time>
      </trkpt>
      <trkpt lat="42.82724" lon="0.97371">
        <ele>1543.5</ele>
        <time>2018-11-24T05:52:33Z</time>
      </trkpt>
      <trkpt lat="42.82724" lon="0.97373">
        <ele>1544.5</ele>
        <time>2018-11-24T05:52:34Z</time>
      </trkpt>
      <trkpt lat="42.82724" lon="0.97372">
        <ele>1545.1</ele>
        <time>2018-11-24T05:52:34Z</time>
      </trkpt>
      <trkpt lat="42.82725" lon="0.97372">
        <ele>1543.5</ele>
        <time>2018-11-24T05:52:35Z</time>
      </trkpt>
      <trkpt lat="42.82724" lon="0.97371">
        <ele>1543.6</ele>
        <time>2018-11-24T05:52:36Z</time>
      </trkpt>
      <trkpt lat="42.82723" lon="0.97372">
        <ele>1544</ele>
        <time>2018-11-24T05:52:36Z</time>
      </trkpt>
      <trkpt lat="42.82723" lon="0.97377">
        <ele>1544</ele>
        <time>2018-11-24T05:52:37Z</time>
      </trkpt>
      <trkpt lat="42.82729" lon="0.97376">
        <ele>1544.1</ele>
        <time>2018-11-24T05:52:40Z</time>
      </trkpt>
      <trkpt lat="42.82727" lon="0.97371">
        <ele>1544</ele>
        <time>2018-11-24T05:52:41Z</time>
      </trkpt>
      <trkpt lat="42.82725" lon="0.97369">
        <ele>1544</ele>
        <time>2018-11-24T05:52:42Z</time>
      </trkpt>
      <trkpt lat="42.82721" lon="0.97361">
        <ele>1545.6</ele>
        <time>2018-11-24T05:52:45Z</time>
      </trkpt>
      <trkpt lat="42.82716" lon="0.97342">
        <ele>1548</ele>
        <time>2018-11-24T05:52:51Z</time>
      </trkpt>
      <trkpt lat="42.82708" lon="0.97323">
        <ele>1550.8</ele>
        <time>2018-11-24T05:52:58Z</time>
      </trkpt>
      <trkpt lat="42.82701" lon="0.97308">
        <ele>1553.3</ele>
        <time>2018-11-24T05:53:03Z</time>
      </trkpt>
      <trkpt lat="42.827" lon="0.97303">
        <ele>1554.2</ele>
        <time>2018-11-24T05:53:04Z</time>
      </trkpt>
      <trkpt lat="42.82695" lon="0.97284">
        <ele>1556</ele>
        <time>2018-11-24T05:53:11Z</time>
      </trkpt>
      <trkpt lat="42.8269" lon="0.97266">
        <ele>1557.5</ele>
        <time>2018-11-24T05:53:16Z</time>
      </trkpt>
      <trkpt lat="42.82691" lon="0.97265">
        <ele>1558</ele>
        <time>2018-11-24T05:53:16Z</time>
      </trkpt>
      <trkpt lat="42.82689" lon="0.97258">
        <ele>1558.5</ele>
        <time>2018-11-24T05:53:18Z</time>
      </trkpt>
      <trkpt lat="42.82687" lon="0.9725">
        <ele>1560.4</ele>
        <time>2018-11-24T05:53:21Z</time>
      </trkpt>
      <trkpt lat="42.82684" lon="0.97236">
        <ele>1561.8</ele>
        <time>2018-11-24T05:53:25Z</time>
      </trkpt>
      <trkpt lat="42.82683" lon="0.97216">
        <ele>1563.7</ele>
        <time>2018-11-24T05:53:31Z</time>
      </trkpt>
      <trkpt lat="42.82682" lon="0.97207">
        <ele>1564.8</ele>
        <time>2018-11-24T05:53:34Z</time>
      </trkpt>
      <trkpt lat="42.82675" lon="0.97189">
        <ele>1567.2</ele>
        <time>2018-11-24T05:53:40Z</time>
      </trkpt>
      <trkpt lat="42.82676" lon="0.97174">
        <ele>1568.1</ele>
        <time>2018-11-24T05:53:44Z</time>
      </trkpt>
      <trkpt lat="42.82685" lon="0.97159">
        <ele>1570.5</ele>
        <time>2018-11-24T05:53:50Z</time>
      </trkpt>
      <trkpt lat="42.82689" lon="0.97152">
        <ele>1571.9</ele>
        <time>2018-11-24T05:53:53Z</time>
      </trkpt>
      <trkpt lat="42.8269" lon="0.97149">
        <ele>1571.9</ele>
        <time>2018-11-24T05:53:53Z</time>
      </trkpt>
      <trkpt lat="42.82697" lon="0.97133">
        <ele>1574.4</ele>
        <time>2018-11-24T05:53:59Z</time>
      </trkpt>
      <trkpt lat="42.82704" lon="0.97122">
        <ele>1576.3</ele>
        <time>2018-11-24T05:54:03Z</time>
      </trkpt>
      <trkpt lat="42.82707" lon="0.97102">
        <ele>1578.2</ele>
        <time>2018-11-24T05:54:09Z</time>
      </trkpt>
      <trkpt lat="42.82703" lon="0.97083">
        <ele>1580.1</ele>
        <time>2018-11-24T05:54:15Z</time>
      </trkpt>
      <trkpt lat="42.82703" lon="0.97083">
        <ele>1580.1</ele>
        <time>2018-11-24T05:54:15Z</time>
      </trkpt>
      <trkpt lat="42.82702" lon="0.9708">
        <ele>1580.1</ele>
        <time>2018-11-24T05:54:16Z</time>
      </trkpt>
      <trkpt lat="42.8269" lon="0.97063">
        <ele>1582.5</ele>
        <time>2018-11-24T05:54:23Z</time>
      </trkpt>
      <trkpt lat="42.82683" lon="0.97054">
        <ele>1584</ele>
        <time>2018-11-24T05:54:27Z</time>
      </trkpt>
      <trkpt lat="42.82672" lon="0.97038">
        <ele>1586.3</ele>
        <time>2018-11-24T05:54:34Z</time>
      </trkpt>
      <trkpt lat="42.82663" lon="0.97021">
        <ele>1588.7</ele>
        <time>2018-11-24T05:54:40Z</time>
      </trkpt>
      <trkpt lat="42.82658" lon="0.97009">
        <ele>1590.7</ele>
        <time>2018-11-24T05:54:44Z</time>
      </trkpt>
      <trkpt lat="42.82654" lon="0.9699">
        <ele>1593.1</ele>
        <time>2018-11-24T05:54:49Z</time>
      </trkpt>
      <trkpt lat="42.82654" lon="0.9699">
        <ele>1593</ele>
        <time>2018-11-24T05:54:50Z</time>
      </trkpt>
      <trkpt lat="42.82651" lon="0.96983">
        <ele>1593.6</ele>
        <time>2018-11-24T05:54:52Z</time>
      </trkpt>
      <trkpt lat="42.82648" lon="0.96967">
        <ele>1596.5</ele>
        <time>2018-11-24T05:54:57Z</time>
      </trkpt>
      <trkpt lat="42.82644" lon="0.9695">
        <ele>1597.9</ele>
        <time>2018-11-24T05:55:02Z</time>
      </trkpt>
      <trkpt lat="42.82641" lon="0.96932">
        <ele>1600.3</ele>
        <time>2018-11-24T05:55:07Z</time>
      </trkpt>
      <trkpt lat="42.82637" lon="0.96911">
        <ele>1602.7</ele>
        <time>2018-11-24T05:55:14Z</time>
      </trkpt>
      <trkpt lat="42.82633" lon="0.96891">
        <ele>1605.1</ele>
        <time>2018-11-24T05:55:20Z</time>
      </trkpt>
      <trkpt lat="42.8263" lon="0.96877">
        <ele>1607.1</ele>
        <time>2018-11-24T05:55:24Z</time>
      </trkpt>
      <trkpt lat="42.8263" lon="0.96869">
        <ele>1608.4</ele>
        <time>2018-11-24T05:55:26Z</time>
      </trkpt>
      <trkpt lat="42.82628" lon="0.96858">
        <ele>1609.5</ele>
        <time>2018-11-24T05:55:30Z</time>
      </trkpt>
      <trkpt lat="42.82624" lon="0.96839">
        <ele>1611.9</ele>
        <time>2018-11-24T05:55:36Z</time>
      </trkpt>
      <trkpt lat="42.82624" lon="0.96836">
        <ele>1612.3</ele>
        <time>2018-11-24T05:55:37Z</time>
      </trkpt>
      <trkpt lat="42.8263" lon="0.96819">
        <ele>1614.8</ele>
        <time>2018-11-24T05:55:42Z</time>
      </trkpt>
      <trkpt lat="42.82633" lon="0.96819">
        <ele>1615.2</ele>
        <time>2018-11-24T05:55:43Z</time>
      </trkpt>
      <trkpt lat="42.82643" lon="0.96815">
        <ele>1616.2</ele>
        <time>2018-11-24T05:55:47Z</time>
      </trkpt>
      <trkpt lat="42.82647" lon="0.96809">
        <ele>1617.2</ele>
        <time>2018-11-24T05:55:50Z</time>
      </trkpt>
      <trkpt lat="42.82648" lon="0.9681">
        <ele>1617.6</ele>
        <time>2018-11-24T05:55:50Z</time>
      </trkpt>
      <trkpt lat="42.82646" lon="0.96809">
        <ele>1617.6</ele>
        <time>2018-11-24T05:55:51Z</time>
      </trkpt>
      <trkpt lat="42.82643" lon="0.96807">
        <ele>1617.6</ele>
        <time>2018-11-24T05:55:52Z</time>
      </trkpt>
      <trkpt lat="42.82645" lon="0.9681">
        <ele>1617.6</ele>
        <time>2018-11-24T05:55:53Z</time>
      </trkpt>
      <trkpt lat="42.82647" lon="0.96811">
        <ele>1617.7</ele>
        <time>2018-11-24T05:55:54Z</time>
      </trkpt>
      <trkpt lat="42.82649" lon="0.96811">
        <ele>1618</ele>
        <time>2018-11-24T05:55:55Z</time>
      </trkpt>
      <trkpt lat="42.82647" lon="0.96811">
        <ele>1617.6</ele>
        <time>2018-11-24T05:55:56Z</time>
      </trkpt>
      <trkpt lat="42.82646" lon="0.9681">
        <ele>1617.7</ele>
        <time>2018-11-24T05:55:56Z</time>
      </trkpt>
      <trkpt lat="42.82645" lon="0.96808">
        <ele>1617.1</ele>
        <time>2018-11-24T05:55:57Z</time>
      </trkpt>
      <trkpt lat="42.82646" lon="0.96807">
        <ele>1619.5</ele>
        <time>2018-11-24T05:55:57Z</time>
      </trkpt>
      <trkpt lat="42.82645" lon="0.96807">
        <ele>1617.6</ele>
        <time>2018-11-24T05:55:57Z</time>
      </trkpt>
      <trkpt lat="42.82652" lon="0.96815">
        <ele>1618</ele>
        <time>2018-11-24T05:56:01Z</time>
      </trkpt>
      <trkpt lat="42.82655" lon="0.96813">
        <ele>1618</ele>
        <time>2018-11-24T05:56:02Z</time>
      </trkpt>
      <trkpt lat="42.82656" lon="0.96817">
        <ele>1618.5</ele>
        <time>2018-11-24T05:56:03Z</time>
      </trkpt>
      <trkpt lat="42.82655" lon="0.96819">
        <ele>1619</ele>
        <time>2018-11-24T05:56:04Z</time>
      </trkpt>
      <trkpt lat="42.82647" lon="0.96812">
        <ele>1619.5</ele>
        <time>2018-11-24T05:56:08Z</time>
      </trkpt>
      <trkpt lat="42.82648" lon="0.96811">
        <ele>1619.6</ele>
        <time>2018-11-24T05:56:09Z</time>
      </trkpt>
      <trkpt lat="42.82648" lon="0.96809">
        <ele>1619.5</ele>
        <time>2018-11-24T05:56:09Z</time>
      </trkpt>
      <trkpt lat="42.82647" lon="0.96808">
        <ele>1620</ele>
        <time>2018-11-24T05:56:09Z</time>
      </trkpt>
      <trkpt lat="42.82647" lon="0.96814">
        <ele>1619.6</ele>
        <time>2018-11-24T05:56:11Z</time>
      </trkpt>
      <trkpt lat="42.82648" lon="0.96816">
        <ele>1619.6</ele>
        <time>2018-11-24T05:56:12Z</time>
      </trkpt>
      <trkpt lat="42.82657" lon="0.96834">
        <ele>1621</ele>
        <time>2018-11-24T05:56:18Z</time>
      </trkpt>
      <trkpt lat="42.82666" lon="0.96847">
        <ele>1622.5</ele>
        <time>2018-11-24T05:56:23Z</time>
      </trkpt>
      <trkpt lat="42.8267" lon="0.9684">
        <ele>1623.9</ele>
        <time>2018-11-24T05:56:26Z</time>
      </trkpt>
      <trkpt lat="42.82672" lon="0.96834">
        <ele>1625.3</ele>
        <time>2018-11-24T05:56:28Z</time>
      </trkpt>
      <trkpt lat="42.82671" lon="0.96831">
        <ele>1625.3</ele>
        <time>2018-11-24T05:56:29Z</time>
      </trkpt>
      <trkpt lat="42.82668" lon="0.96813">
        <ele>1626.8</ele>
        <time>2018-11-24T05:56:34Z</time>
      </trkpt>
      <trkpt lat="42.82667" lon="0.96815">
        <ele>1626.7</ele>
        <time>2018-11-24T05:56:35Z</time>
      </trkpt>
      <trkpt lat="42.82667" lon="0.96814">
        <ele>1627.3</ele>
        <time>2018-11-24T05:56:35Z</time>
      </trkpt>
      <trkpt lat="42.82667" lon="0.96815">
        <ele>1627.3</ele>
        <time>2018-11-24T05:56:36Z</time>
      </trkpt>
      <trkpt lat="42.82664" lon="0.9681">
        <ele>1626.3</ele>
        <time>2018-11-24T05:56:37Z</time>
      </trkpt>
      <trkpt lat="42.82659" lon="0.96798">
        <ele>1625.3</ele>
        <time>2018-11-24T05:56:41Z</time>
      </trkpt>
      <trkpt lat="42.82648" lon="0.96781">
        <ele>1625.3</ele>
        <time>2018-11-24T05:56:48Z</time>
      </trkpt>
      <trkpt lat="42.82648" lon="0.96781">
        <ele>1625.4</ele>
        <time>2018-11-24T05:56:48Z</time>
      </trkpt>
      <trkpt lat="42.82637" lon="0.9677">
        <ele>1625.4</ele>
        <time>2018-11-24T05:56:54Z</time>
      </trkpt>
      <trkpt lat="42.82631" lon="0.96764">
        <ele>1626.7</ele>
        <time>2018-11-24T05:56:56Z</time>
      </trkpt>
      <trkpt lat="42.82623" lon="0.96752">
        <ele>1628.1</ele>
        <time>2018-11-24T05:57:01Z</time>
      </trkpt>
      <trkpt lat="42.82621" lon="0.96752">
        <ele>1628.1</ele>
        <time>2018-11-24T05:57:02Z</time>
      </trkpt>
      <trkpt lat="42.82606" lon="0.96749">
        <ele>1631</ele>
        <time>2018-11-24T05:57:08Z</time>
      </trkpt>
      <trkpt lat="42.82596" lon="0.96744">
        <ele>1633.9</ele>
        <time>2018-11-24T05:57:12Z</time>
      </trkpt>
      <trkpt lat="42.82587" lon="0.96739">
        <ele>1636.8</ele>
        <time>2018-11-24T05:57:16Z</time>
      </trkpt>
      <trkpt lat="42.82581" lon="0.96736">
        <ele>1639.7</ele>
        <time>2018-11-24T05:57:19Z</time>
      </trkpt>
      <trkpt lat="42.82574" lon="0.96731">
        <ele>1641.6</ele>
        <time>2018-11-24T05:57:22Z</time>
      </trkpt>
      <trkpt lat="42.82568" lon="0.96722">
        <ele>1644.5</ele>
        <time>2018-11-24T05:57:26Z</time>
      </trkpt>
      <trkpt lat="42.82561" lon="0.9671">
        <ele>1646.9</ele>
        <time>2018-11-24T05:57:30Z</time>
      </trkpt>
      <trkpt lat="42.82552" lon="0.96698">
        <ele>1649.9</ele>
        <time>2018-11-24T05:57:35Z</time>
      </trkpt>
      <trkpt lat="42.8254" lon="0.9669">
        <ele>1652.3</ele>
        <time>2018-11-24T05:57:40Z</time>
      </trkpt>
      <trkpt lat="42.82532" lon="0.96684">
        <ele>1654.6</ele>
        <time>2018-11-24T05:57:44Z</time>
      </trkpt>
      <trkpt lat="42.82526" lon="0.9668">
        <ele>1657.5</ele>
        <time>2018-11-24T05:57:47Z</time>
      </trkpt>
      <trkpt lat="42.82521" lon="0.96672">
        <ele>1660.8</ele>
        <time>2018-11-24T05:57:50Z</time>
      </trkpt>
      <trkpt lat="42.82516" lon="0.96663">
        <ele>1662.8</ele>
        <time>2018-11-24T05:57:53Z</time>
      </trkpt>
      <trkpt lat="42.8251" lon="0.96654">
        <ele>1666.1</ele>
        <time>2018-11-24T05:57:57Z</time>
      </trkpt>
      <trkpt lat="42.82508" lon="0.96652">
        <ele>1667.6</ele>
        <time>2018-11-24T05:57:58Z</time>
      </trkpt>
      <trkpt lat="42.82501" lon="0.96648">
        <ele>1669.6</ele>
        <time>2018-11-24T05:58:01Z</time>
      </trkpt>
      <trkpt lat="42.82492" lon="0.96647">
        <ele>1671.5</ele>
        <time>2018-11-24T05:58:04Z</time>
      </trkpt>
      <trkpt lat="42.82488" lon="0.96641">
        <ele>1673.4</ele>
        <time>2018-11-24T05:58:07Z</time>
      </trkpt>
      <trkpt lat="42.82482" lon="0.96636">
        <ele>1675.7</ele>
        <time>2018-11-24T05:58:09Z</time>
      </trkpt>
      <trkpt lat="42.82477" lon="0.96633">
        <ele>1678.1</ele>
        <time>2018-11-24T05:58:12Z</time>
      </trkpt>
      <trkpt lat="42.8247" lon="0.96626">
        <ele>1681.5</ele>
        <time>2018-11-24T05:58:15Z</time>
      </trkpt>
      <trkpt lat="42.82473" lon="0.96622">
        <ele>1682.4</ele>
        <time>2018-11-24T05:58:17Z</time>
      </trkpt>
      <trkpt lat="42.82477" lon="0.96615">
        <ele>1684.4</ele>
        <time>2018-11-24T05:58:20Z</time>
      </trkpt>
      <trkpt lat="42.82492" lon="0.96611">
        <ele>1685.8</ele>
        <time>2018-11-24T05:58:25Z</time>
      </trkpt>
      <trkpt lat="42.82506" lon="0.96611">
        <ele>1686.8</ele>
        <time>2018-11-24T05:58:31Z</time>
      </trkpt>
      <trkpt lat="42.82516" lon="0.96612">
        <ele>1687.4</ele>
        <time>2018-11-24T05:58:35Z</time>
      </trkpt>
      <trkpt lat="42.82531" lon="0.9661">
        <ele>1690.1</ele>
        <time>2018-11-24T05:58:41Z</time>
      </trkpt>
      <trkpt lat="42.82542" lon="0.9661">
        <ele>1692.5</ele>
        <time>2018-11-24T05:58:45Z</time>
      </trkpt>
      <trkpt lat="42.82552" lon="0.9661">
        <ele>1694</ele>
        <time>2018-11-24T05:58:49Z</time>
      </trkpt>
      <trkpt lat="42.82567" lon="0.96612">
        <ele>1694.9</ele>
        <time>2018-11-24T05:58:56Z</time>
      </trkpt>
      <trkpt lat="42.82583" lon="0.96616">
        <ele>1696.5</ele>
        <time>2018-11-24T05:59:02Z</time>
      </trkpt>
      <trkpt lat="42.82584" lon="0.96616">
        <ele>1696.4</ele>
        <time>2018-11-24T05:59:02Z</time>
      </trkpt>
      <trkpt lat="42.82596" lon="0.96613">
        <ele>1699.4</ele>
        <time>2018-11-24T05:59:07Z</time>
      </trkpt>
      <trkpt lat="42.8261" lon="0.96614">
        <ele>1700.7</ele>
        <time>2018-11-24T05:59:13Z</time>
      </trkpt>
      <trkpt lat="42.8262" lon="0.96614">
        <ele>1702.1</ele>
        <time>2018-11-24T05:59:17Z</time>
      </trkpt>
      <trkpt lat="42.82632" lon="0.96612">
        <ele>1700.7</ele>
        <time>2018-11-24T05:59:22Z</time>
      </trkpt>
      <trkpt lat="42.82638" lon="0.9661">
        <ele>1702.2</ele>
        <time>2018-11-24T05:59:24Z</time>
      </trkpt>
      <trkpt lat="42.82639" lon="0.96611">
        <ele>1702.6</ele>
        <time>2018-11-24T05:59:25Z</time>
      </trkpt>
      <trkpt lat="42.82651" lon="0.96613">
        <ele>1704.2</ele>
        <time>2018-11-24T05:59:29Z</time>
      </trkpt>
      <trkpt lat="42.82654" lon="0.96613">
        <ele>1704.6</ele>
        <time>2018-11-24T05:59:31Z</time>
      </trkpt>
      <trkpt lat="42.82669" lon="0.96619">
        <ele>1706</ele>
        <time>2018-11-24T05:59:37Z</time>
      </trkpt>
      <trkpt lat="42.82682" lon="0.96626">
        <ele>1707.1</ele>
        <time>2018-11-24T05:59:43Z</time>
      </trkpt>
      <trkpt lat="42.82695" lon="0.96631">
        <ele>1709.4</ele>
        <time>2018-11-24T05:59:48Z</time>
      </trkpt>
      <trkpt lat="42.82709" lon="0.96638">
        <ele>1711.8</ele>
        <time>2018-11-24T05:59:54Z</time>
      </trkpt>
      <trkpt lat="42.82722" lon="0.96646">
        <ele>1715.1</ele>
        <time>2018-11-24T05:59:59Z</time>
      </trkpt>
      <trkpt lat="42.82727" lon="0.9665">
        <ele>1717.1</ele>
        <time>2018-11-24T06:00:02Z</time>
      </trkpt>
      <trkpt lat="42.82725" lon="0.9665">
        <ele>1717.1</ele>
        <time>2018-11-24T06:00:03Z</time>
      </trkpt>
      <trkpt lat="42.82725" lon="0.96651">
        <ele>1717.5</ele>
        <time>2018-11-24T06:00:03Z</time>
      </trkpt>
      <trkpt lat="42.82736" lon="0.96656">
        <ele>1719.6</ele>
        <time>2018-11-24T06:00:08Z</time>
      </trkpt>
      <trkpt lat="42.82742" lon="0.96659">
        <ele>1719.9</ele>
        <time>2018-11-24T06:00:10Z</time>
      </trkpt>
      <trkpt lat="42.82744" lon="0.9666">
        <ele>1721</ele>
        <time>2018-11-24T06:00:11Z</time>
      </trkpt>
      <trkpt lat="42.82759" lon="0.96665">
        <ele>1722.8</ele>
        <time>2018-11-24T06:00:17Z</time>
      </trkpt>
      <trkpt lat="42.82766" lon="0.96668">
        <ele>1722.9</ele>
        <time>2018-11-24T06:00:20Z</time>
      </trkpt>
      <trkpt lat="42.82784" lon="0.96679">
        <ele>1724.3</ele>
        <time>2018-11-24T06:00:28Z</time>
      </trkpt>
      <trkpt lat="42.82794" lon="0.9668">
        <ele>1727.2</ele>
        <time>2018-11-24T06:00:32Z</time>
      </trkpt>
      <trkpt lat="42.82809" lon="0.96692">
        <ele>1728.6</ele>
        <time>2018-11-24T06:00:39Z</time>
      </trkpt>
      <trkpt lat="42.82818" lon="0.96697">
        <ele>1731.6</ele>
        <time>2018-11-24T06:00:43Z</time>
      </trkpt>
      <trkpt lat="42.82829" lon="0.96705">
        <ele>1733.4</ele>
        <time>2018-11-24T06:00:48Z</time>
      </trkpt>
      <trkpt lat="42.82839" lon="0.96714">
        <ele>1736.3</ele>
        <time>2018-11-24T06:00:53Z</time>
      </trkpt>
      <trkpt lat="42.82848" lon="0.96722">
        <ele>1737.7</ele>
        <time>2018-11-24T06:00:57Z</time>
      </trkpt>
      <trkpt lat="42.82857" lon="0.96737">
        <ele>1739.6</ele>
        <time>2018-11-24T06:01:03Z</time>
      </trkpt>
      <trkpt lat="42.82863" lon="0.9675">
        <ele>1739.6</ele>
        <time>2018-11-24T06:01:07Z</time>
      </trkpt>
      <trkpt lat="42.82866" lon="0.96753">
        <ele>1740.2</ele>
        <time>2018-11-24T06:01:09Z</time>
      </trkpt>
      <trkpt lat="42.82872" lon="0.96762">
        <ele>1740.7</ele>
        <time>2018-11-24T06:01:12Z</time>
      </trkpt>
      <trkpt lat="42.82875" lon="0.96771">
        <ele>1740.6</ele>
        <time>2018-11-24T06:01:15Z</time>
      </trkpt>
      <trkpt lat="42.82884" lon="0.96789">
        <ele>1743</ele>
        <time>2018-11-24T06:01:21Z</time>
      </trkpt>
      <trkpt lat="42.82893" lon="0.9681">
        <ele>1744.6</ele>
        <time>2018-11-24T06:01:29Z</time>
      </trkpt>
      <trkpt lat="42.82899" lon="0.96818">
        <ele>1745.9</ele>
        <time>2018-11-24T06:01:32Z</time>
      </trkpt>
      <trkpt lat="42.82912" lon="0.96834">
        <ele>1749.3</ele>
        <time>2018-11-24T06:01:39Z</time>
      </trkpt>
      <trkpt lat="42.82914" lon="0.96837">
        <ele>1750.2</ele>
        <time>2018-11-24T06:01:40Z</time>
      </trkpt>
      <trkpt lat="42.82919" lon="0.96839">
        <ele>1752.1</ele>
        <time>2018-11-24T06:01:42Z</time>
      </trkpt>
      <trkpt lat="42.82925" lon="0.96831">
        <ele>1754.5</ele>
        <time>2018-11-24T06:01:46Z</time>
      </trkpt>
      <trkpt lat="42.82931" lon="0.96818">
        <ele>1756.9</ele>
        <time>2018-11-24T06:01:50Z</time>
      </trkpt>
      <trkpt lat="42.82929" lon="0.96804">
        <ele>1759.9</ele>
        <time>2018-11-24T06:01:54Z</time>
      </trkpt>
      <trkpt lat="42.82928" lon="0.96796">
        <ele>1762.2</ele>
        <time>2018-11-24T06:01:57Z</time>
      </trkpt>
      <trkpt lat="42.82928" lon="0.96784">
        <ele>1764.6</ele>
        <time>2018-11-24T06:02:00Z</time>
      </trkpt>
      <trkpt lat="42.82926" lon="0.96774">
        <ele>1767.6</ele>
        <time>2018-11-24T06:02:03Z</time>
      </trkpt>
      <trkpt lat="42.82924" lon="0.96763">
        <ele>1770.4</ele>
        <time>2018-11-24T06:02:06Z</time>
      </trkpt>
      <trkpt lat="42.82924" lon="0.96752">
        <ele>1772.3</ele>
        <time>2018-11-24T06:02:10Z</time>
      </trkpt>
      <trkpt lat="42.82922" lon="0.9674">
        <ele>1775.8</ele>
        <time>2018-11-24T06:02:13Z</time>
      </trkpt>
      <trkpt lat="42.8292" lon="0.96728">
        <ele>1778.7</ele>
        <time>2018-11-24T06:02:17Z</time>
      </trkpt>
      <trkpt lat="42.82917" lon="0.96714">
        <ele>1781</ele>
        <time>2018-11-24T06:02:21Z</time>
      </trkpt>
      <trkpt lat="42.82915" lon="0.96699">
        <ele>1784.3</ele>
        <time>2018-11-24T06:02:26Z</time>
      </trkpt>
      <trkpt lat="42.82915" lon="0.96683">
        <ele>1786.8</ele>
        <time>2018-11-24T06:02:30Z</time>
      </trkpt>
      <trkpt lat="42.82913" lon="0.96671">
        <ele>1789.1</ele>
        <time>2018-11-24T06:02:34Z</time>
      </trkpt>
      <trkpt lat="42.82912" lon="0.96656">
        <ele>1791.2</ele>
        <time>2018-11-24T06:02:38Z</time>
      </trkpt>
      <trkpt lat="42.82911" lon="0.96644">
        <ele>1794.5</ele>
        <time>2018-11-24T06:02:42Z</time>
      </trkpt>
      <trkpt lat="42.82908" lon="0.96629">
        <ele>1795.9</ele>
        <time>2018-11-24T06:02:46Z</time>
      </trkpt>
      <trkpt lat="42.82906" lon="0.96627">
        <ele>1796.5</ele>
        <time>2018-11-24T06:02:47Z</time>
      </trkpt>
      <trkpt lat="42.82898" lon="0.96611">
        <ele>1798.8</ele>
        <time>2018-11-24T06:02:53Z</time>
      </trkpt>
      <trkpt lat="42.82895" lon="0.96599">
        <ele>1801.2</ele>
        <time>2018-11-24T06:02:57Z</time>
      </trkpt>
      <trkpt lat="42.82886" lon="0.96586">
        <ele>1802.2</ele>
        <time>2018-11-24T06:03:02Z</time>
      </trkpt>
      <trkpt lat="42.82878" lon="0.96576">
        <ele>1803.7</ele>
        <time>2018-11-24T06:03:06Z</time>
      </trkpt>
      <trkpt lat="42.82867" lon="0.96559">
        <ele>1803.7</ele>
        <time>2018-11-24T06:03:13Z</time>
      </trkpt>
      <trkpt lat="42.8285" lon="0.96542">
        <ele>1801.2</ele>
        <time>2018-11-24T06:03:21Z</time>
      </trkpt>
      <trkpt lat="42.82844" lon="0.9654">
        <ele>1800.2</ele>
        <time>2018-11-24T06:03:24Z</time>
      </trkpt>
      <trkpt lat="42.82831" lon="0.96534">
        <ele>1798.8</ele>
        <time>2018-11-24T06:03:30Z</time>
      </trkpt>
      <trkpt lat="42.82823" lon="0.96531">
        <ele>1797.9</ele>
        <time>2018-11-24T06:03:33Z</time>
      </trkpt>
      <trkpt lat="42.828" lon="0.96514">
        <ele>1795.9</ele>
        <time>2018-11-24T06:03:43Z</time>
      </trkpt>
      <trkpt lat="42.82788" lon="0.9651">
        <ele>1794.5</ele>
        <time>2018-11-24T06:03:48Z</time>
      </trkpt>
      <trkpt lat="42.82786" lon="0.96507">
        <ele>1794</ele>
        <time>2018-11-24T06:03:49Z</time>
      </trkpt>
      <trkpt lat="42.82774" lon="0.96498">
        <ele>1790.6</ele>
        <time>2018-11-24T06:03:55Z</time>
      </trkpt>
      <trkpt lat="42.8276" lon="0.96499">
        <ele>1788.8</ele>
        <time>2018-11-24T06:04:00Z</time>
      </trkpt>
      <trkpt lat="42.82751" lon="0.96502">
        <ele>1788.7</ele>
        <time>2018-11-24T06:04:04Z</time>
      </trkpt>
      <trkpt lat="42.82754" lon="0.965">
        <ele>1787.3</ele>
        <time>2018-11-24T06:04:05Z</time>
      </trkpt>
      <trkpt lat="42.82758" lon="0.96501">
        <ele>1787.7</ele>
        <time>2018-11-24T06:04:07Z</time>
      </trkpt>
      <trkpt lat="42.82757" lon="0.96501">
        <ele>1787.7</ele>
        <time>2018-11-24T06:04:07Z</time>
      </trkpt>
      <trkpt lat="42.82757" lon="0.96501">
        <ele>1787.7</ele>
        <time>2018-11-24T06:04:07Z</time>
      </trkpt>
      <trkpt lat="42.82757" lon="0.96501">
        <ele>1788.2</ele>
        <time>2018-11-24T06:04:07Z</time>
      </trkpt>
      <trkpt lat="42.82757" lon="0.96501">
        <ele>1788.3</ele>
        <time>2018-11-24T06:04:07Z</time>
      </trkpt>
      <trkpt lat="42.82758" lon="0.96501">
        <ele>1788.7</ele>
        <time>2018-11-24T06:04:07Z</time>
      </trkpt>
      <trkpt lat="42.82758" lon="0.96501">
        <ele>1788.7</ele>
        <time>2018-11-24T06:04:08Z</time>
      </trkpt>
      <trkpt lat="42.82757" lon="0.96501">
        <ele>1788.7</ele>
        <time>2018-11-24T06:04:08Z</time>
      </trkpt>
      <trkpt lat="42.82757" lon="0.965">
        <ele>1789.2</ele>
        <time>2018-11-24T06:04:08Z</time>
      </trkpt>
      <trkpt lat="42.82757" lon="0.96501">
        <ele>1789.2</ele>
        <time>2018-11-24T06:04:08Z</time>
      </trkpt>
      <trkpt lat="42.82756" lon="0.96501">
        <ele>1789.7</ele>
        <time>2018-11-24T06:04:09Z</time>
      </trkpt>
      <trkpt lat="42.82757" lon="0.96501">
        <ele>1789.6</ele>
        <time>2018-11-24T06:04:09Z</time>
      </trkpt>
      <trkpt lat="42.82757" lon="0.96501">
        <ele>1789.7</ele>
        <time>2018-11-24T06:04:09Z</time>
      </trkpt>
      <trkpt lat="42.82756" lon="0.96501">
        <ele>1790.1</ele>
        <time>2018-11-24T06:04:09Z</time>
      </trkpt>
      <trkpt lat="42.82757" lon="0.96501">
        <ele>1790.1</ele>
        <time>2018-11-24T06:04:10Z</time>
      </trkpt>
      <trkpt lat="42.82758" lon="0.965">
        <ele>1792.1</ele>
        <time>2018-11-24T06:04:10Z</time>
      </trkpt>
      <trkpt lat="42.82758" lon="0.96501">
        <ele>1792.5</ele>
        <time>2018-11-24T06:04:10Z</time>
      </trkpt>
      <trkpt lat="42.82757" lon="0.96501">
        <ele>1791.2</ele>
        <time>2018-11-24T06:04:10Z</time>
      </trkpt>
      <trkpt lat="42.82758" lon="0.965">
        <ele>1792.5</ele>
        <time>2018-11-24T06:04:11Z</time>
      </trkpt>
      <trkpt lat="42.82757" lon="0.965">
        <ele>1790.7</ele>
        <time>2018-11-24T06:04:11Z</time>
      </trkpt>
      <trkpt lat="42.82755" lon="0.965">
        <ele>1790.7</ele>
        <time>2018-11-24T06:04:12Z</time>
      </trkpt>
      <trkpt lat="42.82754" lon="0.965">
        <ele>1791.2</ele>
        <time>2018-11-24T06:04:13Z</time>
      </trkpt>
      <trkpt lat="42.82755" lon="0.96501">
        <ele>1791.2</ele>
        <time>2018-11-24T06:04:13Z</time>
      </trkpt>
      <trkpt lat="42.82754" lon="0.965">
        <ele>1791.1</ele>
        <time>2018-11-24T06:04:14Z</time>
      </trkpt>
      <trkpt lat="42.82755" lon="0.96501">
        <ele>1791.5</ele>
        <time>2018-11-24T06:04:14Z</time>
      </trkpt>
      <trkpt lat="42.82754" lon="0.96502">
        <ele>1791.5</ele>
        <time>2018-11-24T06:04:14Z</time>
      </trkpt>
      <trkpt lat="42.82754" lon="0.96502">
        <ele>1791.5</ele>
        <time>2018-11-24T06:04:14Z</time>
      </trkpt>
      <trkpt lat="42.82752" lon="0.96499">
        <ele>1791.6</ele>
        <time>2018-11-24T06:04:16Z</time>
      </trkpt>
      <trkpt lat="42.82752" lon="0.96499">
        <ele>1793.6</ele>
        <time>2018-11-24T06:04:16Z</time>
      </trkpt>
      <trkpt lat="42.82754" lon="0.9648">
        <ele>1791.5</ele>
        <time>2018-11-24T06:04:21Z</time>
      </trkpt>
      <trkpt lat="42.82743" lon="0.96455">
        <ele>1792.5</ele>
        <time>2018-11-24T06:04:30Z</time>
      </trkpt>
      <trkpt lat="42.8274" lon="0.96438">
        <ele>1796</ele>
        <time>2018-11-24T06:04:35Z</time>
      </trkpt>
      <trkpt lat="42.82732" lon="0.96436">
        <ele>1799.3</ele>
        <time>2018-11-24T06:04:38Z</time>
      </trkpt>
      <trkpt lat="42.82727" lon="0.96441">
        <ele>1802.2</ele>
        <time>2018-11-24T06:04:40Z</time>
      </trkpt>
      <trkpt lat="42.82722" lon="0.96447">
        <ele>1804.1</ele>
        <time>2018-11-24T06:04:43Z</time>
      </trkpt>
      <trkpt lat="42.82715" lon="0.96448">
        <ele>1805</ele>
        <time>2018-11-24T06:04:46Z</time>
      </trkpt>
      <trkpt lat="42.82713" lon="0.96447">
        <ele>1803.7</ele>
        <time>2018-11-24T06:04:47Z</time>
      </trkpt>
      <trkpt lat="42.82703" lon="0.96445">
        <ele>1802.6</ele>
        <time>2018-11-24T06:04:51Z</time>
      </trkpt>
      <trkpt lat="42.82701" lon="0.96445">
        <ele>1802.6</ele>
        <time>2018-11-24T06:04:52Z</time>
      </trkpt>
      <trkpt lat="42.82676" lon="0.96437">
        <ele>1802.7</ele>
        <time>2018-11-24T06:05:02Z</time>
      </trkpt>
      <trkpt lat="42.8267" lon="0.96434">
        <ele>1804.2</ele>
        <time>2018-11-24T06:05:05Z</time>
      </trkpt>
      <trkpt lat="42.82648" lon="0.96422">
        <ele>1805.5</ele>
        <time>2018-11-24T06:05:14Z</time>
      </trkpt>
      <trkpt lat="42.82626" lon="0.9641">
        <ele>1806.9</ele>
        <time>2018-11-24T06:05:24Z</time>
      </trkpt>
      <trkpt lat="42.82605" lon="0.96399">
        <ele>1808.5</ele>
        <time>2018-11-24T06:05:33Z</time>
      </trkpt>
      <trkpt lat="42.82586" lon="0.96386">
        <ele>1810.3</ele>
        <time>2018-11-24T06:05:41Z</time>
      </trkpt>
      <trkpt lat="42.82564" lon="0.9638">
        <ele>1810.8</ele>
        <time>2018-11-24T06:05:50Z</time>
      </trkpt>
      <trkpt lat="42.82541" lon="0.96375">
        <ele>1811.4</ele>
        <time>2018-11-24T06:05:59Z</time>
      </trkpt>
      <trkpt lat="42.82531" lon="0.96371">
        <ele>1811.7</ele>
        <time>2018-11-24T06:06:04Z</time>
      </trkpt>
      <trkpt lat="42.82516" lon="0.96368">
        <ele>1811.8</ele>
        <time>2018-11-24T06:06:09Z</time>
      </trkpt>
      <trkpt lat="42.82493" lon="0.96363">
        <ele>1813.2</ele>
        <time>2018-11-24T06:06:19Z</time>
      </trkpt>
      <trkpt lat="42.82483" lon="0.96357">
        <ele>1814.6</ele>
        <time>2018-11-24T06:06:23Z</time>
      </trkpt>
      <trkpt lat="42.82477" lon="0.96352">
        <ele>1815.1</ele>
        <time>2018-11-24T06:06:26Z</time>
      </trkpt>
      <trkpt lat="42.82478" lon="0.96351">
        <ele>1815.2</ele>
        <time>2018-11-24T06:06:27Z</time>
      </trkpt>
      <trkpt lat="42.82478" lon="0.96351">
        <ele>1815.2</ele>
        <time>2018-11-24T06:06:27Z</time>
      </trkpt>
      <trkpt lat="42.82478" lon="0.96351">
        <ele>1813.7</ele>
        <time>2018-11-24T06:06:27Z</time>
      </trkpt>
      <trkpt lat="42.82478" lon="0.96353">
        <ele>1814.1</ele>
        <time>2018-11-24T06:06:27Z</time>
      </trkpt>
      <trkpt lat="42.8248" lon="0.96352">
        <ele>1814.2</ele>
        <time>2018-11-24T06:06:28Z</time>
      </trkpt>
      <trkpt lat="42.82481" lon="0.96351">
        <ele>1814.2</ele>
        <time>2018-11-24T06:06:29Z</time>
      </trkpt>
      <trkpt lat="42.82482" lon="0.96352">
        <ele>1814.2</ele>
        <time>2018-11-24T06:06:29Z</time>
      </trkpt>
      <trkpt lat="42.82481" lon="0.96352">
        <ele>1814.1</ele>
        <time>2018-11-24T06:06:29Z</time>
      </trkpt>
      <trkpt lat="42.82481" lon="0.96352">
        <ele>1814.6</ele>
        <time>2018-11-24T06:06:29Z</time>
      </trkpt>
      <trkpt lat="42.82481" lon="0.96352">
        <ele>1814.6</ele>
        <time>2018-11-24T06:06:30Z</time>
      </trkpt>
      <trkpt lat="42.82481" lon="0.96351">
        <ele>1814.6</ele>
        <time>2018-11-24T06:06:30Z</time>
      </trkpt>
      <trkpt lat="42.8248" lon="0.96352">
        <ele>1814.7</ele>
        <time>2018-11-24T06:06:30Z</time>
      </trkpt>
      <trkpt lat="42.8248" lon="0.96352">
        <ele>1814.7</ele>
        <time>2018-11-24T06:06:30Z</time>
      </trkpt>
      <trkpt lat="42.82479" lon="0.96352">
        <ele>1814.7</ele>
        <time>2018-11-24T06:06:31Z</time>
      </trkpt>
      <trkpt lat="42.82479" lon="0.96352">
        <ele>1815.1</ele>
        <time>2018-11-24T06:06:31Z</time>
      </trkpt>
      <trkpt lat="42.82479" lon="0.96352">
        <ele>1815.1</ele>
        <time>2018-11-24T06:06:31Z</time>
      </trkpt>
      <trkpt lat="42.82479" lon="0.96352">
        <ele>1815.1</ele>
        <time>2018-11-24T06:06:31Z</time>
      </trkpt>
      <trkpt lat="42.82479" lon="0.96352">
        <ele>1815.1</ele>
        <time>2018-11-24T06:06:31Z</time>
      </trkpt>
      <trkpt lat="42.82479" lon="0.96352">
        <ele>1815.7</ele>
        <time>2018-11-24T06:06:31Z</time>
      </trkpt>
      <trkpt lat="42.82479" lon="0.96353">
        <ele>1815.2</ele>
        <time>2018-11-24T06:06:31Z</time>
      </trkpt>
      <trkpt lat="42.82479" lon="0.96353">
        <ele>1815.1</ele>
        <time>2018-11-24T06:06:31Z</time>
      </trkpt>
      <trkpt lat="42.8248" lon="0.96353">
        <ele>1815.6</ele>
        <time>2018-11-24T06:06:31Z</time>
      </trkpt>
      <trkpt lat="42.8248" lon="0.96353">
        <ele>1815.6</ele>
        <time>2018-11-24T06:06:32Z</time>
      </trkpt>
      <trkpt lat="42.82479" lon="0.96353">
        <ele>1816.1</ele>
        <time>2018-11-24T06:06:32Z</time>
      </trkpt>
      <trkpt lat="42.82476" lon="0.96352">
        <ele>1816.2</ele>
        <time>2018-11-24T06:06:33Z</time>
      </trkpt>
      <trkpt lat="42.82478" lon="0.96353">
        <ele>1816.1</ele>
        <time>2018-11-24T06:06:35Z</time>
      </trkpt>
      <trkpt lat="42.82479" lon="0.96353">
        <ele>1816.5</ele>
        <time>2018-11-24T06:06:35Z</time>
      </trkpt>
      <trkpt lat="42.82479" lon="0.96353">
        <ele>1816.6</ele>
        <time>2018-11-24T06:06:35Z</time>
      </trkpt>
      <trkpt lat="42.82479" lon="0.96353">
        <ele>1817.1</ele>
        <time>2018-11-24T06:06:35Z</time>
      </trkpt>
      <trkpt lat="42.82479" lon="0.96353">
        <ele>1817.1</ele>
        <time>2018-11-24T06:06:35Z</time>
      </trkpt>
      <trkpt lat="42.82478" lon="0.96352">
        <ele>1817.6</ele>
        <time>2018-11-24T06:06:35Z</time>
      </trkpt>
      <trkpt lat="42.82478" lon="0.96352">
        <ele>1817.5</ele>
        <time>2018-11-24T06:06:35Z</time>
      </trkpt>
      <trkpt lat="42.82479" lon="0.96353">
        <ele>1818.1</ele>
        <time>2018-11-24T06:06:36Z</time>
      </trkpt>
      <trkpt lat="42.82481" lon="0.96353">
        <ele>1818</ele>
        <time>2018-11-24T06:06:37Z</time>
      </trkpt>
      <trkpt lat="42.82481" lon="0.96353">
        <ele>1818.5</ele>
        <time>2018-11-24T06:06:37Z</time>
      </trkpt>
      <trkpt lat="42.82482" lon="0.96353">
        <ele>1820.9</ele>
        <time>2018-11-24T06:06:37Z</time>
      </trkpt>
      <trkpt lat="42.82487" lon="0.96356">
        <ele>1819.5</ele>
        <time>2018-11-24T06:06:40Z</time>
      </trkpt>
      <trkpt lat="42.82489" lon="0.96357">
        <ele>1819.4</ele>
        <time>2018-11-24T06:06:40Z</time>
      </trkpt>
      <trkpt lat="42.82502" lon="0.96346">
        <ele>1816.2</ele>
        <time>2018-11-24T06:06:46Z</time>
      </trkpt>
      <trkpt lat="42.8251" lon="0.96335">
        <ele>1812.7</ele>
        <time>2018-11-24T06:06:51Z</time>
      </trkpt>
      <trkpt lat="42.82519" lon="0.96327">
        <ele>1809.4</ele>
        <time>2018-11-24T06:06:55Z</time>
      </trkpt>
      <trkpt lat="42.82519" lon="0.96327">
        <ele>1809.4</ele>
        <time>2018-11-24T06:06:55Z</time>
      </trkpt>
      <trkpt lat="42.82521" lon="0.96329">
        <ele>1809.4</ele>
        <time>2018-11-24T06:06:56Z</time>
      </trkpt>
      <trkpt lat="42.82525" lon="0.96325">
        <ele>1808.9</ele>
        <time>2018-11-24T06:06:58Z</time>
      </trkpt>
      <trkpt lat="42.82518" lon="0.96307">
        <ele>1804.5</ele>
        <time>2018-11-24T06:07:04Z</time>
      </trkpt>
      <trkpt lat="42.82511" lon="0.96289">
        <ele>1802.6</ele>
        <time>2018-11-24T06:07:10Z</time>
      </trkpt>
      <trkpt lat="42.82508" lon="0.96269">
        <ele>1798.8</ele>
        <time>2018-11-24T06:07:16Z</time>
      </trkpt>
      <trkpt lat="42.82507" lon="0.96263">
        <ele>1798.4</ele>
        <time>2018-11-24T06:07:18Z</time>
      </trkpt>
      <trkpt lat="42.82506" lon="0.96261">
        <ele>1798.3</ele>
        <time>2018-11-24T06:07:19Z</time>
      </trkpt>
      <trkpt lat="42.82502" lon="0.9624">
        <ele>1795.4</ele>
        <time>2018-11-24T06:07:25Z</time>
      </trkpt>
      <trkpt lat="42.82502" lon="0.96237">
        <ele>1795</ele>
        <time>2018-11-24T06:07:26Z</time>
      </trkpt>
      <trkpt lat="42.82501" lon="0.96231">
        <ele>1794</ele>
        <time>2018-11-24T06:07:28Z</time>
      </trkpt>
      <trkpt lat="42.82499" lon="0.96214">
        <ele>1791.2</ele>
        <time>2018-11-24T06:07:33Z</time>
      </trkpt>
      <trkpt lat="42.82505" lon="0.96215">
        <ele>1789.1</ele>
        <time>2018-11-24T06:07:35Z</time>
      </trkpt>
      <trkpt lat="42.82503" lon="0.962">
        <ele>1786.8</ele>
        <time>2018-11-24T06:07:39Z</time>
      </trkpt>
      <trkpt lat="42.82499" lon="0.96173">
        <ele>1783.9</ele>
        <time>2018-11-24T06:07:47Z</time>
      </trkpt>
      <trkpt lat="42.82498" lon="0.96145">
        <ele>1780</ele>
        <time>2018-11-24T06:07:56Z</time>
      </trkpt>
      <trkpt lat="42.82496" lon="0.96116">
        <ele>1778.6</ele>
        <time>2018-11-24T06:08:04Z</time>
      </trkpt>
      <trkpt lat="42.82496" lon="0.96088">
        <ele>1775.7</ele>
        <time>2018-11-24T06:08:12Z</time>
      </trkpt>
      <trkpt lat="42.82499" lon="0.96057">
        <ele>1773.4</ele>
        <time>2018-11-24T06:08:22Z</time>
      </trkpt>
      <trkpt lat="42.82499" lon="0.96037">
        <ele>1769.5</ele>
        <time>2018-11-24T06:08:27Z</time>
      </trkpt>
      <trkpt lat="42.82499" lon="0.96014">
        <ele>1766.1</ele>
        <time>2018-11-24T06:08:34Z</time>
      </trkpt>
      <trkpt lat="42.82497" lon="0.95994">
        <ele>1762.7</ele>
        <time>2018-11-24T06:08:40Z</time>
      </trkpt>
      <trkpt lat="42.82492" lon="0.95972">
        <ele>1759.8</ele>
        <time>2018-11-24T06:08:47Z</time>
      </trkpt>
      <trkpt lat="42.82488" lon="0.95949">
        <ele>1756.9</ele>
        <time>2018-11-24T06:08:54Z</time>
      </trkpt>
      <trkpt lat="42.82483" lon="0.95927">
        <ele>1753.7</ele>
        <time>2018-11-24T06:09:01Z</time>
      </trkpt>
      <trkpt lat="42.82477" lon="0.95902">
        <ele>1750.7</ele>
        <time>2018-11-24T06:09:08Z</time>
      </trkpt>
      <trkpt lat="42.82477" lon="0.95893">
        <ele>1747.8</ele>
        <time>2018-11-24T06:09:11Z</time>
      </trkpt>
      <trkpt lat="42.82476" lon="0.95889">
        <ele>1746.5</ele>
        <time>2018-11-24T06:09:12Z</time>
      </trkpt>
      <trkpt lat="42.82474" lon="0.95885">
        <ele>1745.9</ele>
        <time>2018-11-24T06:09:13Z</time>
      </trkpt>
      <trkpt lat="42.82469" lon="0.95878">
        <ele>1745.9</ele>
        <time>2018-11-24T06:09:16Z</time>
      </trkpt>
      <trkpt lat="42.82467" lon="0.95874">
        <ele>1744.5</ele>
        <time>2018-11-24T06:09:18Z</time>
      </trkpt>
      <trkpt lat="42.82461" lon="0.95864">
        <ele>1743</ele>
        <time>2018-11-24T06:09:22Z</time>
      </trkpt>
      <trkpt lat="42.82461" lon="0.9586">
        <ele>1742.6</ele>
        <time>2018-11-24T06:09:23Z</time>
      </trkpt>
      <trkpt lat="42.82455" lon="0.95846">
        <ele>1738.7</ele>
        <time>2018-11-24T06:09:27Z</time>
      </trkpt>
      <trkpt lat="42.82449" lon="0.95829">
        <ele>1735.3</ele>
        <time>2018-11-24T06:09:33Z</time>
      </trkpt>
      <trkpt lat="42.82448" lon="0.95825">
        <ele>1734.5</ele>
        <time>2018-11-24T06:09:34Z</time>
      </trkpt>
      <trkpt lat="42.82447" lon="0.95801">
        <ele>1731</ele>
        <time>2018-11-24T06:09:41Z</time>
      </trkpt>
      <trkpt lat="42.82444" lon="0.95787">
        <ele>1729.6</ele>
        <time>2018-11-24T06:09:46Z</time>
      </trkpt>
      <trkpt lat="42.8244" lon="0.95776">
        <ele>1726.7</ele>
        <time>2018-11-24T06:09:49Z</time>
      </trkpt>
      <trkpt lat="42.82435" lon="0.95765">
        <ele>1724.7</ele>
        <time>2018-11-24T06:09:53Z</time>
      </trkpt>
      <trkpt lat="42.82437" lon="0.95755">
        <ele>1721.9</ele>
        <time>2018-11-24T06:09:56Z</time>
      </trkpt>
      <trkpt lat="42.82439" lon="0.95749">
        <ele>1719.9</ele>
        <time>2018-11-24T06:09:58Z</time>
      </trkpt>
      <trkpt lat="42.82435" lon="0.95748">
        <ele>1719.1</ele>
        <time>2018-11-24T06:10:00Z</time>
      </trkpt>
      <trkpt lat="42.82437" lon="0.9575">
        <ele>1719.1</ele>
        <time>2018-11-24T06:10:00Z</time>
      </trkpt>
      <trkpt lat="42.82437" lon="0.95749">
        <ele>1718.6</ele>
        <time>2018-11-24T06:10:01Z</time>
      </trkpt>
      <trkpt lat="42.82438" lon="0.9575">
        <ele>1718.6</ele>
        <time>2018-11-24T06:10:01Z</time>
      </trkpt>
      <trkpt lat="42.82437" lon="0.95751">
        <ele>1718.5</ele>
        <time>2018-11-24T06:10:01Z</time>
      </trkpt>
      <trkpt lat="42.82436" lon="0.9575">
        <ele>1718.6</ele>
        <time>2018-11-24T06:10:02Z</time>
      </trkpt>
      <trkpt lat="42.82435" lon="0.95751">
        <ele>1718.6</ele>
        <time>2018-11-24T06:10:02Z</time>
      </trkpt>
      <trkpt lat="42.82435" lon="0.95748">
        <ele>1718.6</ele>
        <time>2018-11-24T06:10:03Z</time>
      </trkpt>
      <trkpt lat="42.82443" lon="0.95741">
        <ele>1718</ele>
        <time>2018-11-24T06:10:07Z</time>
      </trkpt>
      <trkpt lat="42.82448" lon="0.95733">
        <ele>1715.2</ele>
        <time>2018-11-24T06:10:10Z</time>
      </trkpt>
      <trkpt lat="42.82453" lon="0.95725">
        <ele>1712.3</ele>
        <time>2018-11-24T06:10:13Z</time>
      </trkpt>
      <trkpt lat="42.8246" lon="0.95714">
        <ele>1709.4</ele>
        <time>2018-11-24T06:10:17Z</time>
      </trkpt>
      <trkpt lat="42.82464" lon="0.95714">
        <ele>1706.5</ele>
        <time>2018-11-24T06:10:19Z</time>
      </trkpt>
      <trkpt lat="42.82471" lon="0.95711">
        <ele>1702.7</ele>
        <time>2018-11-24T06:10:22Z</time>
      </trkpt>
      <trkpt lat="42.82477" lon="0.95706">
        <ele>1699.3</ele>
        <time>2018-11-24T06:10:25Z</time>
      </trkpt>
      <trkpt lat="42.82484" lon="0.95704">
        <ele>1695.9</ele>
        <time>2018-11-24T06:10:28Z</time>
      </trkpt>
      <trkpt lat="42.82491" lon="0.95699">
        <ele>1693</ele>
        <time>2018-11-24T06:10:31Z</time>
      </trkpt>
      <trkpt lat="42.82498" lon="0.95695">
        <ele>1689.8</ele>
        <time>2018-11-24T06:10:34Z</time>
      </trkpt>
      <trkpt lat="42.82505" lon="0.95689">
        <ele>1688.2</ele>
        <time>2018-11-24T06:10:37Z</time>
      </trkpt>
      <trkpt lat="42.82506" lon="0.95686">
        <ele>1687.7</ele>
        <time>2018-11-24T06:10:38Z</time>
      </trkpt>
      <trkpt lat="42.82511" lon="0.9568">
        <ele>1687.8</ele>
        <time>2018-11-24T06:10:41Z</time>
      </trkpt>
      <trkpt lat="42.82513" lon="0.95677">
        <ele>1687.8</ele>
        <time>2018-11-24T06:10:42Z</time>
      </trkpt>
      <trkpt lat="42.82517" lon="0.9567">
        <ele>1687.3</ele>
        <time>2018-11-24T06:10:45Z</time>
      </trkpt>
      <trkpt lat="42.82526" lon="0.95662">
        <ele>1685.8</ele>
        <time>2018-11-24T06:10:49Z</time>
      </trkpt>
      <trkpt lat="42.82542" lon="0.9565">
        <ele>1683.5</ele>
        <time>2018-11-24T06:10:56Z</time>
      </trkpt>
      <trkpt lat="42.82546" lon="0.95643">
        <ele>1683.5</ele>
        <time>2018-11-24T06:10:59Z</time>
      </trkpt>
      <trkpt lat="42.82554" lon="0.95634">
        <ele>1682.1</ele>
        <time>2018-11-24T06:11:03Z</time>
      </trkpt>
      <trkpt lat="42.82556" lon="0.95629">
        <ele>1681.5</ele>
        <time>2018-11-24T06:11:05Z</time>
      </trkpt>
      <trkpt lat="42.82567" lon="0.9561">
        <ele>1680.6</ele>
        <time>2018-11-24T06:11:12Z</time>
      </trkpt>
      <trkpt lat="42.82581" lon="0.95595">
        <ele>1679.1</ele>
        <time>2018-11-24T06:11:19Z</time>
      </trkpt>
      <trkpt lat="42.82584" lon="0.9559">
        <ele>1678.7</ele>
        <time>2018-11-24T06:11:21Z</time>
      </trkpt>
      <trkpt lat="42.82587" lon="0.95571">
        <ele>1676.3</ele>
        <time>2018-11-24T06:11:26Z</time>
      </trkpt>
      <trkpt lat="42.82589" lon="0.95558">
        <ele>1672.4</ele>
        <time>2018-11-24T06:11:30Z</time>
      </trkpt>
      <trkpt lat="42.82593" lon="0.95556">
        <ele>1670.5</ele>
        <time>2018-11-24T06:11:32Z</time>
      </trkpt>
      <trkpt lat="42.82598" lon="0.95559">
        <ele>1667.5</ele>
        <time>2018-11-24T06:11:34Z</time>
      </trkpt>
      <trkpt lat="42.826" lon="0.95546">
        <ele>1666.1</ele>
        <time>2018-11-24T06:11:38Z</time>
      </trkpt>
      <trkpt lat="42.826" lon="0.95541">
        <ele>1665.2</ele>
        <time>2018-11-24T06:11:40Z</time>
      </trkpt>
      <trkpt lat="42.82601" lon="0.95531">
        <ele>1663.7</ele>
        <time>2018-11-24T06:11:43Z</time>
      </trkpt>
      <trkpt lat="42.82606" lon="0.95513">
        <ele>1659.9</ele>
        <time>2018-11-24T06:11:48Z</time>
      </trkpt>
      <trkpt lat="42.82607" lon="0.95511">
        <ele>1659.5</ele>
        <time>2018-11-24T06:11:49Z</time>
      </trkpt>
      <trkpt lat="42.82608" lon="0.95503">
        <ele>1658</ele>
        <time>2018-11-24T06:11:51Z</time>
      </trkpt>
      <trkpt lat="42.82611" lon="0.95498">
        <ele>1656.5</ele>
        <time>2018-11-24T06:11:53Z</time>
      </trkpt>
      <trkpt lat="42.82613" lon="0.9548">
        <ele>1653.2</ele>
        <time>2018-11-24T06:11:58Z</time>
      </trkpt>
      <trkpt lat="42.82613" lon="0.95479">
        <ele>1653.2</ele>
        <time>2018-11-24T06:11:59Z</time>
      </trkpt>
      <trkpt lat="42.82614" lon="0.95476">
        <ele>1652.2</ele>
        <time>2018-11-24T06:12:00Z</time>
      </trkpt>
      <trkpt lat="42.82611" lon="0.9546">
        <ele>1650.8</ele>
        <time>2018-11-24T06:12:04Z</time>
      </trkpt>
      <trkpt lat="42.82618" lon="0.95475">
        <ele>1648.3</ele>
        <time>2018-11-24T06:12:10Z</time>
      </trkpt>
      <trkpt lat="42.82622" lon="0.95479">
        <ele>1648.3</ele>
        <time>2018-11-24T06:12:12Z</time>
      </trkpt>
      <trkpt lat="42.82627" lon="0.95485">
        <ele>1647</ele>
        <time>2018-11-24T06:12:14Z</time>
      </trkpt>
      <trkpt lat="42.82632" lon="0.95489">
        <ele>1645.5</ele>
        <time>2018-11-24T06:12:17Z</time>
      </trkpt>
      <trkpt lat="42.82634" lon="0.95483">
        <ele>1644.6</ele>
        <time>2018-11-24T06:12:19Z</time>
      </trkpt>
      <trkpt lat="42.82632" lon="0.9547">
        <ele>1642.1</ele>
        <time>2018-11-24T06:12:23Z</time>
      </trkpt>
      <trkpt lat="42.82632" lon="0.95463">
        <ele>1641.7</ele>
        <time>2018-11-24T06:12:25Z</time>
      </trkpt>
      <trkpt lat="42.82633" lon="0.95454">
        <ele>1640.1</ele>
        <time>2018-11-24T06:12:27Z</time>
      </trkpt>
      <trkpt lat="42.82633" lon="0.95445">
        <ele>1638.3</ele>
        <time>2018-11-24T06:12:30Z</time>
      </trkpt>
      <trkpt lat="42.82649" lon="0.95455">
        <ele>1635</ele>
        <time>2018-11-24T06:12:37Z</time>
      </trkpt>
      <trkpt lat="42.82651" lon="0.95455">
        <ele>1634.4</ele>
        <time>2018-11-24T06:12:38Z</time>
      </trkpt>
      <trkpt lat="42.82658" lon="0.9545">
        <ele>1631.1</ele>
        <time>2018-11-24T06:12:41Z</time>
      </trkpt>
      <trkpt lat="42.82659" lon="0.95443">
        <ele>1630.1</ele>
        <time>2018-11-24T06:12:43Z</time>
      </trkpt>
      <trkpt lat="42.8265" lon="0.95421">
        <ele>1626.7</ele>
        <time>2018-11-24T06:12:50Z</time>
      </trkpt>
      <trkpt lat="42.82649" lon="0.95414">
        <ele>1625.8</ele>
        <time>2018-11-24T06:12:52Z</time>
      </trkpt>
      <trkpt lat="42.82651" lon="0.95413">
        <ele>1625.4</ele>
        <time>2018-11-24T06:12:53Z</time>
      </trkpt>
      <trkpt lat="42.82653" lon="0.95413">
        <ele>1624.3</ele>
        <time>2018-11-24T06:12:54Z</time>
      </trkpt>
      <trkpt lat="42.82657" lon="0.95413">
        <ele>1622.9</ele>
        <time>2018-11-24T06:12:56Z</time>
      </trkpt>
      <trkpt lat="42.82662" lon="0.95415">
        <ele>1622.9</ele>
        <time>2018-11-24T06:12:58Z</time>
      </trkpt>
      <trkpt lat="42.82672" lon="0.95422">
        <ele>1621.5</ele>
        <time>2018-11-24T06:13:02Z</time>
      </trkpt>
      <trkpt lat="42.82678" lon="0.9543">
        <ele>1620.1</ele>
        <time>2018-11-24T06:13:06Z</time>
      </trkpt>
      <trkpt lat="42.8268" lon="0.9543">
        <ele>1618.6</ele>
        <time>2018-11-24T06:13:07Z</time>
      </trkpt>
      <trkpt lat="42.82683" lon="0.95424">
        <ele>1617.7</ele>
        <time>2018-11-24T06:13:09Z</time>
      </trkpt>
      <trkpt lat="42.82681" lon="0.95416">
        <ele>1616.2</ele>
        <time>2018-11-24T06:13:11Z</time>
      </trkpt>
      <trkpt lat="42.82676" lon="0.954">
        <ele>1615.6</ele>
        <time>2018-11-24T06:13:16Z</time>
      </trkpt>
      <trkpt lat="42.82669" lon="0.95387">
        <ele>1612.7</ele>
        <time>2018-11-24T06:13:21Z</time>
      </trkpt>
      <trkpt lat="42.82686" lon="0.95392">
        <ele>1610</ele>
        <time>2018-11-24T06:13:28Z</time>
      </trkpt>
      <trkpt lat="42.82691" lon="0.95396">
        <ele>1609</ele>
        <time>2018-11-24T06:13:30Z</time>
      </trkpt>
      <trkpt lat="42.82696" lon="0.95404">
        <ele>1607.9</ele>
        <time>2018-11-24T06:13:33Z</time>
      </trkpt>
      <trkpt lat="42.82701" lon="0.95399">
        <ele>1606</ele>
        <time>2018-11-24T06:13:35Z</time>
      </trkpt>
      <trkpt lat="42.82698" lon="0.95378">
        <ele>1602.7</ele>
        <time>2018-11-24T06:13:41Z</time>
      </trkpt>
      <trkpt lat="42.82697" lon="0.95377">
        <ele>1602.2</ele>
        <time>2018-11-24T06:13:42Z</time>
      </trkpt>
      <trkpt lat="42.82691" lon="0.95368">
        <ele>1601.3</ele>
        <time>2018-11-24T06:13:45Z</time>
      </trkpt>
      <trkpt lat="42.82687" lon="0.95364">
        <ele>1600.3</ele>
        <time>2018-11-24T06:13:47Z</time>
      </trkpt>
      <trkpt lat="42.82688" lon="0.95357">
        <ele>1598.8</ele>
        <time>2018-11-24T06:13:49Z</time>
      </trkpt>
      <trkpt lat="42.82697" lon="0.95358">
        <ele>1597.5</ele>
        <time>2018-11-24T06:13:53Z</time>
      </trkpt>
      <trkpt lat="42.82702" lon="0.95358">
        <ele>1595.4</ele>
        <time>2018-11-24T06:13:55Z</time>
      </trkpt>
      <trkpt lat="42.82707" lon="0.95357">
        <ele>1594</ele>
        <time>2018-11-24T06:13:57Z</time>
      </trkpt>
      <trkpt lat="42.82722" lon="0.95373">
        <ele>1590.6</ele>
        <time>2018-11-24T06:14:05Z</time>
      </trkpt>
      <trkpt lat="42.82731" lon="0.95367">
        <ele>1587.7</ele>
        <time>2018-11-24T06:14:08Z</time>
      </trkpt>
      <trkpt lat="42.82731" lon="0.95361">
        <ele>1586.9</ele>
        <time>2018-11-24T06:14:10Z</time>
      </trkpt>
      <trkpt lat="42.82728" lon="0.9535">
        <ele>1585.9</ele>
        <time>2018-11-24T06:14:14Z</time>
      </trkpt>
      <trkpt lat="42.82726" lon="0.95337">
        <ele>1583.5</ele>
        <time>2018-11-24T06:14:18Z</time>
      </trkpt>
      <trkpt lat="42.82728" lon="0.95338">
        <ele>1582.5</ele>
        <time>2018-11-24T06:14:18Z</time>
      </trkpt>
      <trkpt lat="42.82736" lon="0.95349">
        <ele>1581</ele>
        <time>2018-11-24T06:14:23Z</time>
      </trkpt>
      <trkpt lat="42.82743" lon="0.95358">
        <ele>1579.6</ele>
        <time>2018-11-24T06:14:27Z</time>
      </trkpt>
      <trkpt lat="42.82742" lon="0.95358">
        <ele>1580.1</ele>
        <time>2018-11-24T06:14:27Z</time>
      </trkpt>
      <trkpt lat="42.82744" lon="0.95357">
        <ele>1578.6</ele>
        <time>2018-11-24T06:14:28Z</time>
      </trkpt>
      <trkpt lat="42.82745" lon="0.95346">
        <ele>1577.2</ele>
        <time>2018-11-24T06:14:31Z</time>
      </trkpt>
      <trkpt lat="42.82744" lon="0.95333">
        <ele>1574.8</ele>
        <time>2018-11-24T06:14:35Z</time>
      </trkpt>
      <trkpt lat="42.82739" lon="0.95322">
        <ele>1573.9</ele>
        <time>2018-11-24T06:14:39Z</time>
      </trkpt>
      <trkpt lat="42.82731" lon="0.95311">
        <ele>1571.9</ele>
        <time>2018-11-24T06:14:43Z</time>
      </trkpt>
      <trkpt lat="42.82729" lon="0.9531">
        <ele>1571</ele>
        <time>2018-11-24T06:14:44Z</time>
      </trkpt>
      <trkpt lat="42.82728" lon="0.95308">
        <ele>1570.5</ele>
        <time>2018-11-24T06:14:45Z</time>
      </trkpt>
      <trkpt lat="42.82725" lon="0.95301">
        <ele>1568.6</ele>
        <time>2018-11-24T06:14:47Z</time>
      </trkpt>
      <trkpt lat="42.82729" lon="0.95299">
        <ele>1567.1</ele>
        <time>2018-11-24T06:14:49Z</time>
      </trkpt>
      <trkpt lat="42.82746" lon="0.95297">
        <ele>1564.8</ele>
        <time>2018-11-24T06:14:55Z</time>
      </trkpt>
      <trkpt lat="42.82746" lon="0.95297">
        <ele>1564.8</ele>
        <time>2018-11-24T06:14:56Z</time>
      </trkpt>
      <trkpt lat="42.82755" lon="0.95297">
        <ele>1561.9</ele>
        <time>2018-11-24T06:14:59Z</time>
      </trkpt>
      <trkpt lat="42.82766" lon="0.95297">
        <ele>1560</ele>
        <time>2018-11-24T06:15:04Z</time>
      </trkpt>
      <trkpt lat="42.82765" lon="0.95292">
        <ele>1558.4</ele>
        <time>2018-11-24T06:15:05Z</time>
      </trkpt>
      <trkpt lat="42.82758" lon="0.95286">
        <ele>1557.5</ele>
        <time>2018-11-24T06:15:08Z</time>
      </trkpt>
      <trkpt lat="42.82746" lon="0.95273">
        <ele>1555.1</ele>
        <time>2018-11-24T06:15:14Z</time>
      </trkpt>
      <trkpt lat="42.82733" lon="0.95268">
        <ele>1552.7</ele>
        <time>2018-11-24T06:15:20Z</time>
      </trkpt>
      <trkpt lat="42.82732" lon="0.95267">
        <ele>1552.8</ele>
        <time>2018-11-24T06:15:20Z</time>
      </trkpt>
      <trkpt lat="42.82722" lon="0.95264">
        <ele>1551.3</ele>
        <time>2018-11-24T06:15:24Z</time>
      </trkpt>
      <trkpt lat="42.8271" lon="0.95259">
        <ele>1549.4</ele>
        <time>2018-11-24T06:15:29Z</time>
      </trkpt>
      <trkpt lat="42.82715" lon="0.95253">
        <ele>1547.4</ele>
        <time>2018-11-24T06:15:32Z</time>
      </trkpt>
      <trkpt lat="42.82723" lon="0.95248">
        <ele>1544.6</ele>
        <time>2018-11-24T06:15:35Z</time>
      </trkpt>
      <trkpt lat="42.82724" lon="0.95248">
        <ele>1544.5</ele>
        <time>2018-11-24T06:15:36Z</time>
      </trkpt>
      <trkpt lat="42.82741" lon="0.95241">
        <ele>1541.2</ele>
        <time>2018-11-24T06:15:43Z</time>
      </trkpt>
      <trkpt lat="42.82751" lon="0.95236">
        <ele>1537.8</ele>
        <time>2018-11-24T06:15:47Z</time>
      </trkpt>
      <trkpt lat="42.82754" lon="0.95231">
        <ele>1535.4</ele>
        <time>2018-11-24T06:15:49Z</time>
      </trkpt>
      <trkpt lat="42.82752" lon="0.9523">
        <ele>1534.4</ele>
        <time>2018-11-24T06:15:50Z</time>
      </trkpt>
      <trkpt lat="42.82761" lon="0.95221">
        <ele>1530.6</ele>
        <time>2018-11-24T06:15:54Z</time>
      </trkpt>
      <trkpt lat="42.82769" lon="0.95221">
        <ele>1528.7</ele>
        <time>2018-11-24T06:15:57Z</time>
      </trkpt>
      <trkpt lat="42.82777" lon="0.95226">
        <ele>1526.8</ele>
        <time>2018-11-24T06:16:01Z</time>
      </trkpt>
      <trkpt lat="42.82785" lon="0.95234">
        <ele>1523.5</ele>
        <time>2018-11-24T06:16:05Z</time>
      </trkpt>
      <trkpt lat="42.82791" lon="0.95243">
        <ele>1520</ele>
        <time>2018-11-24T06:16:08Z</time>
      </trkpt>
      <trkpt lat="42.82795" lon="0.95239">
        <ele>1516.7</ele>
        <time>2018-11-24T06:16:10Z</time>
      </trkpt>
      <trkpt lat="42.82796" lon="0.95227">
        <ele>1513.7</ele>
        <time>2018-11-24T06:16:14Z</time>
      </trkpt>
      <trkpt lat="42.82795" lon="0.95219">
        <ele>1511.9</ele>
        <time>2018-11-24T06:16:16Z</time>
      </trkpt>
      <trkpt lat="42.82793" lon="0.95208">
        <ele>1508.1</ele>
        <time>2018-11-24T06:16:20Z</time>
      </trkpt>
      <trkpt lat="42.82796" lon="0.95201">
        <ele>1504.6</ele>
        <time>2018-11-24T06:16:22Z</time>
      </trkpt>
      <trkpt lat="42.82796" lon="0.9519">
        <ele>1501.7</ele>
        <time>2018-11-24T06:16:25Z</time>
      </trkpt>
      <trkpt lat="42.82803" lon="0.95188">
        <ele>1498.4</ele>
        <time>2018-11-24T06:16:28Z</time>
      </trkpt>
      <trkpt lat="42.82812" lon="0.95184">
        <ele>1495</ele>
        <time>2018-11-24T06:16:32Z</time>
      </trkpt>
      <trkpt lat="42.82808" lon="0.95175">
        <ele>1493.2</ele>
        <time>2018-11-24T06:16:35Z</time>
      </trkpt>
      <trkpt lat="42.82799" lon="0.95169">
        <ele>1490.8</ele>
        <time>2018-11-24T06:16:39Z</time>
      </trkpt>
      <trkpt lat="42.82792" lon="0.95156">
        <ele>1487.4</ele>
        <time>2018-11-24T06:16:43Z</time>
      </trkpt>
      <trkpt lat="42.82804" lon="0.95156">
        <ele>1484.5</ele>
        <time>2018-11-24T06:16:48Z</time>
      </trkpt>
      <trkpt lat="42.82814" lon="0.95156">
        <ele>1483</ele>
        <time>2018-11-24T06:16:52Z</time>
      </trkpt>
      <trkpt lat="42.82827" lon="0.95163">
        <ele>1482</ele>
        <time>2018-11-24T06:16:58Z</time>
      </trkpt>
      <trkpt lat="42.82833" lon="0.95185">
        <ele>1479.2</ele>
        <time>2018-11-24T06:17:05Z</time>
      </trkpt>
      <trkpt lat="42.8284" lon="0.95201">
        <ele>1476.2</ele>
        <time>2018-11-24T06:17:10Z</time>
      </trkpt>
      <trkpt lat="42.82844" lon="0.95212">
        <ele>1473.5</ele>
        <time>2018-11-24T06:17:14Z</time>
      </trkpt>
      <trkpt lat="42.8285" lon="0.95218">
        <ele>1471</ele>
        <time>2018-11-24T06:17:16Z</time>
      </trkpt>
      <trkpt lat="42.8285" lon="0.9522">
        <ele>1470</ele>
        <time>2018-11-24T06:17:17Z</time>
      </trkpt>
      <trkpt lat="42.82849" lon="0.95217">
        <ele>1468.7</ele>
        <time>2018-11-24T06:17:18Z</time>
      </trkpt>
      <trkpt lat="42.82849" lon="0.95205">
        <ele>1466.2</ele>
        <time>2018-11-24T06:17:22Z</time>
      </trkpt>
      <trkpt lat="42.82851" lon="0.95188">
        <ele>1463.4</ele>
        <time>2018-11-24T06:17:27Z</time>
      </trkpt>
      <trkpt lat="42.82863" lon="0.95194">
        <ele>1460</ele>
        <time>2018-11-24T06:17:32Z</time>
      </trkpt>
      <trkpt lat="42.82871" lon="0.95213">
        <ele>1457.1</ele>
        <time>2018-11-24T06:17:38Z</time>
      </trkpt>
      <trkpt lat="42.82876" lon="0.95227">
        <ele>1453.8</ele>
        <time>2018-11-24T06:17:43Z</time>
      </trkpt>
      <trkpt lat="42.82883" lon="0.9524">
        <ele>1450.9</ele>
        <time>2018-11-24T06:17:48Z</time>
      </trkpt>
      <trkpt lat="42.82884" lon="0.95251">
        <ele>1447.4</ele>
        <time>2018-11-24T06:17:51Z</time>
      </trkpt>
      <trkpt lat="42.82886" lon="0.95246">
        <ele>1444.5</ele>
        <time>2018-11-24T06:17:52Z</time>
      </trkpt>
      <trkpt lat="42.82891" lon="0.95232">
        <ele>1441.3</ele>
        <time>2018-11-24T06:17:57Z</time>
      </trkpt>
      <trkpt lat="42.82893" lon="0.9522">
        <ele>1437.8</ele>
        <time>2018-11-24T06:18:01Z</time>
      </trkpt>
      <trkpt lat="42.82898" lon="0.95221">
        <ele>1436.8</ele>
        <time>2018-11-24T06:18:02Z</time>
      </trkpt>
      <trkpt lat="42.82896" lon="0.95222">
        <ele>1436.5</ele>
        <time>2018-11-24T06:18:03Z</time>
      </trkpt>
      <trkpt lat="42.82891" lon="0.95211">
        <ele>1435.5</ele>
        <time>2018-11-24T06:18:07Z</time>
      </trkpt>
      <trkpt lat="42.82898" lon="0.95216">
        <ele>1435.4</ele>
        <time>2018-11-24T06:18:10Z</time>
      </trkpt>
      <trkpt lat="42.829" lon="0.95218">
        <ele>1434.5</ele>
        <time>2018-11-24T06:18:11Z</time>
      </trkpt>
      <trkpt lat="42.82902" lon="0.9522">
        <ele>1434</ele>
        <time>2018-11-24T06:18:12Z</time>
      </trkpt>
      <trkpt lat="42.82909" lon="0.95219">
        <ele>1432.1</ele>
        <time>2018-11-24T06:18:15Z</time>
      </trkpt>
      <trkpt lat="42.82907" lon="0.9523">
        <ele>1429.6</ele>
        <time>2018-11-24T06:18:18Z</time>
      </trkpt>
      <trkpt lat="42.82913" lon="0.95241">
        <ele>1426.8</ele>
        <time>2018-11-24T06:18:22Z</time>
      </trkpt>
      <trkpt lat="42.82916" lon="0.95237">
        <ele>1423</ele>
        <time>2018-11-24T06:18:24Z</time>
      </trkpt>
      <trkpt lat="42.82922" lon="0.95243">
        <ele>1420</ele>
        <time>2018-11-24T06:18:27Z</time>
      </trkpt>
      <trkpt lat="42.82934" lon="0.95257">
        <ele>1416.6</ele>
        <time>2018-11-24T06:18:33Z</time>
      </trkpt>
      <trkpt lat="42.82934" lon="0.9527">
        <ele>1413.8</ele>
        <time>2018-11-24T06:18:37Z</time>
      </trkpt>
      <trkpt lat="42.82939" lon="0.95287">
        <ele>1410.4</ele>
        <time>2018-11-24T06:18:42Z</time>
      </trkpt>
      <trkpt lat="42.82943" lon="0.95303">
        <ele>1407.6</ele>
        <time>2018-11-24T06:18:47Z</time>
      </trkpt>
      <trkpt lat="42.82947" lon="0.9532">
        <ele>1404.1</ele>
        <time>2018-11-24T06:18:53Z</time>
      </trkpt>
      <trkpt lat="42.82948" lon="0.95338">
        <ele>1400.9</ele>
        <time>2018-11-24T06:18:58Z</time>
      </trkpt>
      <trkpt lat="42.82953" lon="0.95326">
        <ele>1397.5</ele>
        <time>2018-11-24T06:19:02Z</time>
      </trkpt>
      <trkpt lat="42.82954" lon="0.95322">
        <ele>1396</ele>
        <time>2018-11-24T06:19:03Z</time>
      </trkpt>
      <trkpt lat="42.82959" lon="0.95323">
        <ele>1392.7</ele>
        <time>2018-11-24T06:19:05Z</time>
      </trkpt>
      <trkpt lat="42.82966" lon="0.95338">
        <ele>1389.2</ele>
        <time>2018-11-24T06:19:10Z</time>
      </trkpt>
      <trkpt lat="42.82966" lon="0.95349">
        <ele>1386</ele>
        <time>2018-11-24T06:19:14Z</time>
      </trkpt>
      <trkpt lat="42.82964" lon="0.95349">
        <ele>1385.4</ele>
        <time>2018-11-24T06:19:14Z</time>
      </trkpt>
      <trkpt lat="42.82966" lon="0.95348">
        <ele>1384.9</ele>
        <time>2018-11-24T06:19:15Z</time>
      </trkpt>
      <trkpt lat="42.82963" lon="0.95348">
        <ele>1384.4</ele>
        <time>2018-11-24T06:19:16Z</time>
      </trkpt>
      <trkpt lat="42.8297" lon="0.95361">
        <ele>1384.1</ele>
        <time>2018-11-24T06:19:21Z</time>
      </trkpt>
      <trkpt lat="42.82975" lon="0.9536">
        <ele>1381.1</ele>
        <time>2018-11-24T06:19:23Z</time>
      </trkpt>
      <trkpt lat="42.82977" lon="0.9537">
        <ele>1377.8</ele>
        <time>2018-11-24T06:19:26Z</time>
      </trkpt>
      <trkpt lat="42.82977" lon="0.95389">
        <ele>1374.4</ele>
        <time>2018-11-24T06:19:32Z</time>
      </trkpt>
      <trkpt lat="42.82977" lon="0.95397">
        <ele>1371.1</ele>
        <time>2018-11-24T06:19:34Z</time>
      </trkpt>
      <trkpt lat="42.82978" lon="0.95411">
        <ele>1367.7</ele>
        <time>2018-11-24T06:19:38Z</time>
      </trkpt>
      <trkpt lat="42.82979" lon="0.95413">
        <ele>1367.7</ele>
        <time>2018-11-24T06:19:39Z</time>
      </trkpt>
      <trkpt lat="42.82988" lon="0.95425">
        <ele>1364.3</ele>
        <time>2018-11-24T06:19:44Z</time>
      </trkpt>
      <trkpt lat="42.82996" lon="0.95428">
        <ele>1361</ele>
        <time>2018-11-24T06:19:47Z</time>
      </trkpt>
      <trkpt lat="42.83" lon="0.95431">
        <ele>1360</ele>
        <time>2018-11-24T06:19:49Z</time>
      </trkpt>
      <trkpt lat="42.83005" lon="0.95441">
        <ele>1356.6</ele>
        <time>2018-11-24T06:19:53Z</time>
      </trkpt>
      <trkpt lat="42.83014" lon="0.95446">
        <ele>1353.7</ele>
        <time>2018-11-24T06:19:57Z</time>
      </trkpt>
      <trkpt lat="42.83022" lon="0.9545">
        <ele>1350.4</ele>
        <time>2018-11-24T06:20:00Z</time>
      </trkpt>
      <trkpt lat="42.83031" lon="0.95455">
        <ele>1347</ele>
        <time>2018-11-24T06:20:04Z</time>
      </trkpt>
      <trkpt lat="42.83028" lon="0.95452">
        <ele>1346.6</ele>
        <time>2018-11-24T06:20:05Z</time>
      </trkpt>
      <trkpt lat="42.8303" lon="0.95448">
        <ele>1345.6</ele>
        <time>2018-11-24T06:20:07Z</time>
      </trkpt>
      <trkpt lat="42.83029" lon="0.95433">
        <ele>1343.2</ele>
        <time>2018-11-24T06:20:11Z</time>
      </trkpt>
      <trkpt lat="42.83034" lon="0.95417">
        <ele>1339.4</ele>
        <time>2018-11-24T06:20:16Z</time>
      </trkpt>
      <trkpt lat="42.83041" lon="0.95427">
        <ele>1336</ele>
        <time>2018-11-24T06:20:20Z</time>
      </trkpt>
      <trkpt lat="42.83051" lon="0.95431">
        <ele>1333.5</ele>
        <time>2018-11-24T06:20:25Z</time>
      </trkpt>
      <trkpt lat="42.83049" lon="0.95415">
        <ele>1330.2</ele>
        <time>2018-11-24T06:20:29Z</time>
      </trkpt>
      <trkpt lat="42.83054" lon="0.95408">
        <ele>1327.2</ele>
        <time>2018-11-24T06:20:32Z</time>
      </trkpt>
      <trkpt lat="42.83061" lon="0.95414">
        <ele>1325.8</ele>
        <time>2018-11-24T06:20:35Z</time>
      </trkpt>
      <trkpt lat="42.83078" lon="0.95422">
        <ele>1322.4</ele>
        <time>2018-11-24T06:20:43Z</time>
      </trkpt>
      <trkpt lat="42.83089" lon="0.9542">
        <ele>1319.2</ele>
        <time>2018-11-24T06:20:47Z</time>
      </trkpt>
      <trkpt lat="42.83083" lon="0.95405">
        <ele>1316.2</ele>
        <time>2018-11-24T06:20:52Z</time>
      </trkpt>
      <trkpt lat="42.83081" lon="0.95393">
        <ele>1313.4</ele>
        <time>2018-11-24T06:20:56Z</time>
      </trkpt>
      <trkpt lat="42.83094" lon="0.95396">
        <ele>1310.5</ele>
        <time>2018-11-24T06:21:01Z</time>
      </trkpt>
      <trkpt lat="42.83099" lon="0.95398">
        <ele>1309.9</ele>
        <time>2018-11-24T06:21:03Z</time>
      </trkpt>
      <trkpt lat="42.83104" lon="0.95401">
        <ele>1309.5</ele>
        <time>2018-11-24T06:21:05Z</time>
      </trkpt>
      <trkpt lat="42.83111" lon="0.95398">
        <ele>1307.5</ele>
        <time>2018-11-24T06:21:08Z</time>
      </trkpt>
      <trkpt lat="42.83106" lon="0.95381">
        <ele>1303.7</ele>
        <time>2018-11-24T06:21:14Z</time>
      </trkpt>
      <trkpt lat="42.83101" lon="0.95364">
        <ele>1301.9</ele>
        <time>2018-11-24T06:21:19Z</time>
      </trkpt>
      <trkpt lat="42.8311" lon="0.95364">
        <ele>1299</ele>
        <time>2018-11-24T06:21:22Z</time>
      </trkpt>
      <trkpt lat="42.83116" lon="0.95365">
        <ele>1297.4</ele>
        <time>2018-11-24T06:21:25Z</time>
      </trkpt>
      <trkpt lat="42.83119" lon="0.95364">
        <ele>1297</ele>
        <time>2018-11-24T06:21:26Z</time>
      </trkpt>
      <trkpt lat="42.83123" lon="0.95359">
        <ele>1294.7</ele>
        <time>2018-11-24T06:21:28Z</time>
      </trkpt>
      <trkpt lat="42.8312" lon="0.95346">
        <ele>1292.7</ele>
        <time>2018-11-24T06:21:32Z</time>
      </trkpt>
      <trkpt lat="42.83113" lon="0.9533">
        <ele>1290.3</ele>
        <time>2018-11-24T06:21:38Z</time>
      </trkpt>
      <trkpt lat="42.83115" lon="0.95329">
        <ele>1288.9</ele>
        <time>2018-11-24T06:21:39Z</time>
      </trkpt>
      <trkpt lat="42.83123" lon="0.95329">
        <ele>1287.3</ele>
        <time>2018-11-24T06:21:42Z</time>
      </trkpt>
      <trkpt lat="42.83131" lon="0.95333">
        <ele>1286.4</ele>
        <time>2018-11-24T06:21:45Z</time>
      </trkpt>
      <trkpt lat="42.83134" lon="0.95332">
        <ele>1286</ele>
        <time>2018-11-24T06:21:47Z</time>
      </trkpt>
      <trkpt lat="42.83137" lon="0.95333">
        <ele>1285.4</ele>
        <time>2018-11-24T06:21:48Z</time>
      </trkpt>
      <trkpt lat="42.83132" lon="0.95322">
        <ele>1283</ele>
        <time>2018-11-24T06:21:52Z</time>
      </trkpt>
      <trkpt lat="42.83124" lon="0.95309">
        <ele>1280.6</ele>
        <time>2018-11-24T06:21:57Z</time>
      </trkpt>
      <trkpt lat="42.83123" lon="0.953">
        <ele>1278.2</ele>
        <time>2018-11-24T06:22:00Z</time>
      </trkpt>
      <trkpt lat="42.83133" lon="0.95301">
        <ele>1275.3</ele>
        <time>2018-11-24T06:22:03Z</time>
      </trkpt>
      <trkpt lat="42.83154" lon="0.95298">
        <ele>1272.5</ele>
        <time>2018-11-24T06:22:12Z</time>
      </trkpt>
      <trkpt lat="42.83159" lon="0.95298">
        <ele>1271.6</ele>
        <time>2018-11-24T06:22:14Z</time>
      </trkpt>
      <trkpt lat="42.83159" lon="0.9529">
        <ele>1269.2</ele>
        <time>2018-11-24T06:22:16Z</time>
      </trkpt>
      <trkpt lat="42.83151" lon="0.95275">
        <ele>1265.8</ele>
        <time>2018-11-24T06:22:22Z</time>
      </trkpt>
      <trkpt lat="42.83144" lon="0.95262">
        <ele>1264.3</ele>
        <time>2018-11-24T06:22:26Z</time>
      </trkpt>
      <trkpt lat="42.83138" lon="0.95248">
        <ele>1262</ele>
        <time>2018-11-24T06:22:31Z</time>
      </trkpt>
      <trkpt lat="42.83137" lon="0.95235">
        <ele>1259.1</ele>
        <time>2018-11-24T06:22:35Z</time>
      </trkpt>
      <trkpt lat="42.83146" lon="0.95235">
        <ele>1258.1</ele>
        <time>2018-11-24T06:22:38Z</time>
      </trkpt>
      <trkpt lat="42.83154" lon="0.95237">
        <ele>1255.6</ele>
        <time>2018-11-24T06:22:42Z</time>
      </trkpt>
      <trkpt lat="42.83166" lon="0.95239">
        <ele>1252.8</ele>
        <time>2018-11-24T06:22:47Z</time>
      </trkpt>
      <trkpt lat="42.83167" lon="0.95224">
        <ele>1249.8</ele>
        <time>2018-11-24T06:22:51Z</time>
      </trkpt>
      <trkpt lat="42.83159" lon="0.95211">
        <ele>1248.9</ele>
        <time>2018-11-24T06:22:56Z</time>
      </trkpt>
      <trkpt lat="42.83151" lon="0.95199">
        <ele>1246.1</ele>
        <time>2018-11-24T06:23:01Z</time>
      </trkpt>
      <trkpt lat="42.83151" lon="0.95197">
        <ele>1246.1</ele>
        <time>2018-11-24T06:23:01Z</time>
      </trkpt>
      <trkpt lat="42.83145" lon="0.95182">
        <ele>1243.6</ele>
        <time>2018-11-24T06:23:06Z</time>
      </trkpt>
      <trkpt lat="42.83136" lon="0.95155">
        <ele>1240.2</ele>
        <time>2018-11-24T06:23:15Z</time>
      </trkpt>
      <trkpt lat="42.83134" lon="0.95141">
        <ele>1238.3</ele>
        <time>2018-11-24T06:23:19Z</time>
      </trkpt>
      <trkpt lat="42.8313" lon="0.95123">
        <ele>1236</ele>
        <time>2018-11-24T06:23:25Z</time>
      </trkpt>
      <trkpt lat="42.8313" lon="0.95121">
        <ele>1235.5</ele>
        <time>2018-11-24T06:23:25Z</time>
      </trkpt>
      <trkpt lat="42.8313" lon="0.95114">
        <ele>1234.6</ele>
        <time>2018-11-24T06:23:27Z</time>
      </trkpt>
      <trkpt lat="42.83126" lon="0.95094">
        <ele>1231.6</ele>
        <time>2018-11-24T06:23:33Z</time>
      </trkpt>
      <trkpt lat="42.83121" lon="0.95076">
        <ele>1229.7</ele>
        <time>2018-11-24T06:23:39Z</time>
      </trkpt>
      <trkpt lat="42.83122" lon="0.9506">
        <ele>1228.2</ele>
        <time>2018-11-24T06:23:44Z</time>
      </trkpt>
      <trkpt lat="42.83123" lon="0.95036">
        <ele>1226.3</ele>
        <time>2018-11-24T06:23:51Z</time>
      </trkpt>
      <trkpt lat="42.83121" lon="0.95019">
        <ele>1224.5</ele>
        <time>2018-11-24T06:23:56Z</time>
      </trkpt>
      <trkpt lat="42.83121" lon="0.94996">
        <ele>1221.1</ele>
        <time>2018-11-24T06:24:02Z</time>
      </trkpt>
      <trkpt lat="42.83119" lon="0.94977">
        <ele>1220.1</ele>
        <time>2018-11-24T06:24:08Z</time>
      </trkpt>
      <trkpt lat="42.83122" lon="0.9496">
        <ele>1218.1</ele>
        <time>2018-11-24T06:24:13Z</time>
      </trkpt>
      <trkpt lat="42.83121" lon="0.94943">
        <ele>1217.3</ele>
        <time>2018-11-24T06:24:18Z</time>
      </trkpt>
      <trkpt lat="42.83124" lon="0.94926">
        <ele>1215.3</ele>
        <time>2018-11-24T06:24:23Z</time>
      </trkpt>
      <trkpt lat="42.83126" lon="0.94914">
        <ele>1213.9</ele>
        <time>2018-11-24T06:24:27Z</time>
      </trkpt>
      <trkpt lat="42.83128" lon="0.94893">
        <ele>1210.9</ele>
        <time>2018-11-24T06:24:33Z</time>
      </trkpt>
      <trkpt lat="42.83132" lon="0.94868">
        <ele>1209</ele>
        <time>2018-11-24T06:24:40Z</time>
      </trkpt>
      <trkpt lat="42.83137" lon="0.94852">
        <ele>1207.1</ele>
        <time>2018-11-24T06:24:46Z</time>
      </trkpt>
      <trkpt lat="42.83139" lon="0.94848">
        <ele>1206.6</ele>
        <time>2018-11-24T06:24:47Z</time>
      </trkpt>
      <trkpt lat="42.83142" lon="0.94834">
        <ele>1206.6</ele>
        <time>2018-11-24T06:24:51Z</time>
      </trkpt>
      <trkpt lat="42.83146" lon="0.94819">
        <ele>1205.7</ele>
        <time>2018-11-24T06:24:56Z</time>
      </trkpt>
      <trkpt lat="42.83149" lon="0.94792">
        <ele>1203.2</ele>
        <time>2018-11-24T06:25:04Z</time>
      </trkpt>
      <trkpt lat="42.83149" lon="0.94786">
        <ele>1202.9</ele>
        <time>2018-11-24T06:25:06Z</time>
      </trkpt>
      <trkpt lat="42.83153" lon="0.94752">
        <ele>1200.4</ele>
        <time>2018-11-24T06:25:16Z</time>
      </trkpt>
      <trkpt lat="42.83152" lon="0.94719">
        <ele>1199</ele>
        <time>2018-11-24T06:25:26Z</time>
      </trkpt>
      <trkpt lat="42.83151" lon="0.94702">
        <ele>1197.1</ele>
        <time>2018-11-24T06:25:31Z</time>
      </trkpt>
      <trkpt lat="42.83152" lon="0.94672">
        <ele>1196.1</ele>
        <time>2018-11-24T06:25:40Z</time>
      </trkpt>
      <trkpt lat="42.83154" lon="0.94642">
        <ele>1194.6</ele>
        <time>2018-11-24T06:25:48Z</time>
      </trkpt>
      <trkpt lat="42.83154" lon="0.94614">
        <ele>1193.7</ele>
        <time>2018-11-24T06:25:56Z</time>
      </trkpt>
      <trkpt lat="42.83148" lon="0.94596">
        <ele>1193.2</ele>
        <time>2018-11-24T06:26:02Z</time>
      </trkpt>
      <trkpt lat="42.83143" lon="0.94594">
        <ele>1192.2</ele>
        <time>2018-11-24T06:26:04Z</time>
      </trkpt>
      <trkpt lat="42.83133" lon="0.94586">
        <ele>1191.2</ele>
        <time>2018-11-24T06:26:09Z</time>
      </trkpt>
      <trkpt lat="42.83133" lon="0.94586">
        <ele>1191.3</ele>
        <time>2018-11-24T06:26:10Z</time>
      </trkpt>
      <trkpt lat="42.83132" lon="0.94582">
        <ele>1191.3</ele>
        <time>2018-11-24T06:26:11Z</time>
      </trkpt>
      <trkpt lat="42.83134" lon="0.94581">
        <ele>1192.2</ele>
        <time>2018-11-24T06:26:12Z</time>
      </trkpt>
      <trkpt lat="42.83135" lon="0.94585">
        <ele>1192.3</ele>
        <time>2018-11-24T06:26:13Z</time>
      </trkpt>
      <trkpt lat="42.83134" lon="0.94587">
        <ele>1191.8</ele>
        <time>2018-11-24T06:26:14Z</time>
      </trkpt>
      <trkpt lat="42.83134" lon="0.94584">
        <ele>1191.8</ele>
        <time>2018-11-24T06:26:15Z</time>
      </trkpt>
      <trkpt lat="42.83135" lon="0.94585">
        <ele>1191.8</ele>
        <time>2018-11-24T06:26:15Z</time>
      </trkpt>
      <trkpt lat="42.83135" lon="0.94583">
        <ele>1191.7</ele>
        <time>2018-11-24T06:26:16Z</time>
      </trkpt>
      <trkpt lat="42.83138" lon="0.94581">
        <ele>1191.2</ele>
        <time>2018-11-24T06:26:17Z</time>
      </trkpt>
      <trkpt lat="42.83141" lon="0.9458">
        <ele>1189.9</ele>
        <time>2018-11-24T06:26:18Z</time>
      </trkpt>
      <trkpt lat="42.83149" lon="0.94575">
        <ele>1186.9</ele>
        <time>2018-11-24T06:26:22Z</time>
      </trkpt>
      <trkpt lat="42.83156" lon="0.94572">
        <ele>1184.5</ele>
        <time>2018-11-24T06:26:25Z</time>
      </trkpt>
      <trkpt lat="42.83164" lon="0.94567">
        <ele>1181.7</ele>
        <time>2018-11-24T06:26:28Z</time>
      </trkpt>
      <trkpt lat="42.83171" lon="0.94556">
        <ele>1178.2</ele>
        <time>2018-11-24T06:26:32Z</time>
      </trkpt>
      <trkpt lat="42.83174" lon="0.94551">
        <ele>1177.4</ele>
        <time>2018-11-24T06:26:34Z</time>
      </trkpt>
      <trkpt lat="42.83183" lon="0.94537">
        <ele>1176.9</ele>
        <time>2018-11-24T06:26:40Z</time>
      </trkpt>
      <trkpt lat="42.83187" lon="0.94519">
        <ele>1174.5</ele>
        <time>2018-11-24T06:26:45Z</time>
      </trkpt>
      <trkpt lat="42.83186" lon="0.94515">
        <ele>1173.9</ele>
        <time>2018-11-24T06:26:47Z</time>
      </trkpt>
      <trkpt lat="42.83189" lon="0.94488">
        <ele>1171.1</ele>
        <time>2018-11-24T06:26:55Z</time>
      </trkpt>
      <trkpt lat="42.83201" lon="0.94461">
        <ele>1169.2</ele>
        <time>2018-11-24T06:27:04Z</time>
      </trkpt>
      <trkpt lat="42.83219" lon="0.94433">
        <ele>1166.8</ele>
        <time>2018-11-24T06:27:15Z</time>
      </trkpt>
      <trkpt lat="42.83238" lon="0.94412">
        <ele>1164.4</ele>
        <time>2018-11-24T06:27:25Z</time>
      </trkpt>
      <trkpt lat="42.83256" lon="0.94386">
        <ele>1160.9</ele>
        <time>2018-11-24T06:27:35Z</time>
      </trkpt>
      <trkpt lat="42.83269" lon="0.94357">
        <ele>1158.5</ele>
        <time>2018-11-24T06:27:45Z</time>
      </trkpt>
      <trkpt lat="42.83275" lon="0.9433">
        <ele>1156.1</ele>
        <time>2018-11-24T06:27:53Z</time>
      </trkpt>
      <trkpt lat="42.8328" lon="0.94301">
        <ele>1152.8</ele>
        <time>2018-11-24T06:28:02Z</time>
      </trkpt>
      <trkpt lat="42.83281" lon="0.94294">
        <ele>1152.4</ele>
        <time>2018-11-24T06:28:04Z</time>
      </trkpt>
      <trkpt lat="42.83284" lon="0.9427">
        <ele>1150.4</ele>
        <time>2018-11-24T06:28:11Z</time>
      </trkpt>
      <trkpt lat="42.8328" lon="0.94236">
        <ele>1147</ele>
        <time>2018-11-24T06:28:21Z</time>
      </trkpt>
      <trkpt lat="42.83281" lon="0.94235">
        <ele>1147</ele>
        <time>2018-11-24T06:28:22Z</time>
      </trkpt>
      <trkpt lat="42.83284" lon="0.9423">
        <ele>1144.1</ele>
        <time>2018-11-24T06:28:24Z</time>
      </trkpt>
      <trkpt lat="42.83286" lon="0.94221">
        <ele>1141.2</ele>
        <time>2018-11-24T06:28:27Z</time>
      </trkpt>
      <trkpt lat="42.83289" lon="0.94216">
        <ele>1138.9</ele>
        <time>2018-11-24T06:28:29Z</time>
      </trkpt>
      <trkpt lat="42.83285" lon="0.94195">
        <ele>1135</ele>
        <time>2018-11-24T06:28:35Z</time>
      </trkpt>
      <trkpt lat="42.83287" lon="0.94186">
        <ele>1132.1</ele>
        <time>2018-11-24T06:28:38Z</time>
      </trkpt>
      <trkpt lat="42.83283" lon="0.94182">
        <ele>1131.1</ele>
        <time>2018-11-24T06:28:40Z</time>
      </trkpt>
      <trkpt lat="42.83283" lon="0.94182">
        <ele>1131.2</ele>
        <time>2018-11-24T06:28:40Z</time>
      </trkpt>
      <trkpt lat="42.83282" lon="0.94173">
        <ele>1129.7</ele>
        <time>2018-11-24T06:28:42Z</time>
      </trkpt>
      <trkpt lat="42.83278" lon="0.94166">
        <ele>1127.4</ele>
        <time>2018-11-24T06:28:45Z</time>
      </trkpt>
      <trkpt lat="42.83276" lon="0.94155">
        <ele>1123.9</ele>
        <time>2018-11-24T06:28:48Z</time>
      </trkpt>
      <trkpt lat="42.83278" lon="0.94157">
        <ele>1123.4</ele>
        <time>2018-11-24T06:28:49Z</time>
      </trkpt>
      <trkpt lat="42.83277" lon="0.94148">
        <ele>1120.7</ele>
        <time>2018-11-24T06:28:51Z</time>
      </trkpt>
      <trkpt lat="42.83275" lon="0.94137">
        <ele>1117.2</ele>
        <time>2018-11-24T06:28:55Z</time>
      </trkpt>
      <trkpt lat="42.83268" lon="0.94129">
        <ele>1113.8</ele>
        <time>2018-11-24T06:28:58Z</time>
      </trkpt>
      <trkpt lat="42.83275" lon="0.94126">
        <ele>1110.9</ele>
        <time>2018-11-24T06:29:01Z</time>
      </trkpt>
      <trkpt lat="42.8327" lon="0.94117">
        <ele>1108.5</ele>
        <time>2018-11-24T06:29:04Z</time>
      </trkpt>
      <trkpt lat="42.83261" lon="0.94109">
        <ele>1105.2</ele>
        <time>2018-11-24T06:29:09Z</time>
      </trkpt>
      <trkpt lat="42.83249" lon="0.94098">
        <ele>1103.3</ele>
        <time>2018-11-24T06:29:15Z</time>
      </trkpt>
      <trkpt lat="42.83239" lon="0.9409">
        <ele>1100.5</ele>
        <time>2018-11-24T06:29:19Z</time>
      </trkpt>
      <trkpt lat="42.83231" lon="0.94082">
        <ele>1099.5</ele>
        <time>2018-11-24T06:29:23Z</time>
      </trkpt>
      <trkpt lat="42.83219" lon="0.94063">
        <ele>1096.6</ele>
        <time>2018-11-24T06:29:31Z</time>
      </trkpt>
      <trkpt lat="42.83217" lon="0.94064">
        <ele>1096</ele>
        <time>2018-11-24T06:29:31Z</time>
      </trkpt>
      <trkpt lat="42.83216" lon="0.94061">
        <ele>1093.3</ele>
        <time>2018-11-24T06:29:32Z</time>
      </trkpt>
      <trkpt lat="42.83235" lon="0.94071">
        <ele>1090.9</ele>
        <time>2018-11-24T06:29:40Z</time>
      </trkpt>
      <trkpt lat="42.83248" lon="0.94072">
        <ele>1088.8</ele>
        <time>2018-11-24T06:29:46Z</time>
      </trkpt>
      <trkpt lat="42.8326" lon="0.94073">
        <ele>1085.6</ele>
        <time>2018-11-24T06:29:50Z</time>
      </trkpt>
      <trkpt lat="42.83266" lon="0.94065">
        <ele>1083.1</ele>
        <time>2018-11-24T06:29:54Z</time>
      </trkpt>
      <trkpt lat="42.8326" lon="0.94061">
        <ele>1080.7</ele>
        <time>2018-11-24T06:29:56Z</time>
      </trkpt>
      <trkpt lat="42.83253" lon="0.94051">
        <ele>1078.7</ele>
        <time>2018-11-24T06:30:00Z</time>
      </trkpt>
      <trkpt lat="42.83243" lon="0.94039">
        <ele>1076.8</ele>
        <time>2018-11-24T06:30:06Z</time>
      </trkpt>
      <trkpt lat="42.83239" lon="0.94034">
        <ele>1076.4</ele>
        <time>2018-11-24T06:30:08Z</time>
      </trkpt>
      <trkpt lat="42.83235" lon="0.94027">
        <ele>1075.4</ele>
        <time>2018-11-24T06:30:10Z</time>
      </trkpt>
      <trkpt lat="42.83225" lon="0.9401">
        <ele>1071.6</ele>
        <time>2018-11-24T06:30:17Z</time>
      </trkpt>
      <trkpt lat="42.83226" lon="0.94006">
        <ele>1068.2</ele>
        <time>2018-11-24T06:30:18Z</time>
      </trkpt>
      <trkpt lat="42.83239" lon="0.94013">
        <ele>1065.3</ele>
        <time>2018-11-24T06:30:24Z</time>
      </trkpt>
      <trkpt lat="42.83245" lon="0.94006">
        <ele>1062</ele>
        <time>2018-11-24T06:30:27Z</time>
      </trkpt>
      <trkpt lat="42.83239" lon="0.93994">
        <ele>1058.6</ele>
        <time>2018-11-24T06:30:31Z</time>
      </trkpt>
      <trkpt lat="42.83237" lon="0.93989">
        <ele>1055.8</ele>
        <time>2018-11-24T06:30:33Z</time>
      </trkpt>
      <trkpt lat="42.83243" lon="0.93985">
        <ele>1052.9</ele>
        <time>2018-11-24T06:30:35Z</time>
      </trkpt>
      <trkpt lat="42.83246" lon="0.9398">
        <ele>1049.4</ele>
        <time>2018-11-24T06:30:37Z</time>
      </trkpt>
      <trkpt lat="42.83243" lon="0.93973">
        <ele>1046.1</ele>
        <time>2018-11-24T06:30:40Z</time>
      </trkpt>
      <trkpt lat="42.83237" lon="0.93961">
        <ele>1043.2</ele>
        <time>2018-11-24T06:30:44Z</time>
      </trkpt>
      <trkpt lat="42.83232" lon="0.93952">
        <ele>1039.9</ele>
        <time>2018-11-24T06:30:47Z</time>
      </trkpt>
      <trkpt lat="42.83224" lon="0.93941">
        <ele>1036.4</ele>
        <time>2018-11-24T06:30:52Z</time>
      </trkpt>
      <trkpt lat="42.83218" lon="0.93932">
        <ele>1034</ele>
        <time>2018-11-24T06:30:55Z</time>
      </trkpt>
      <trkpt lat="42.83221" lon="0.93928">
        <ele>1031.2</ele>
        <time>2018-11-24T06:30:57Z</time>
      </trkpt>
      <trkpt lat="42.83219" lon="0.93922">
        <ele>1027.8</ele>
        <time>2018-11-24T06:30:59Z</time>
      </trkpt>
      <trkpt lat="42.83216" lon="0.93909">
        <ele>1025</ele>
        <time>2018-11-24T06:31:03Z</time>
      </trkpt>
      <trkpt lat="42.83216" lon="0.93903">
        <ele>1022</ele>
        <time>2018-11-24T06:31:05Z</time>
      </trkpt>
      <trkpt lat="42.83212" lon="0.93893">
        <ele>1018.7</ele>
        <time>2018-11-24T06:31:08Z</time>
      </trkpt>
      <trkpt lat="42.83207" lon="0.93881">
        <ele>1015.8</ele>
        <time>2018-11-24T06:31:12Z</time>
      </trkpt>
      <trkpt lat="42.83204" lon="0.93874">
        <ele>1013</ele>
        <time>2018-11-24T06:31:14Z</time>
      </trkpt>
      <trkpt lat="42.83191" lon="0.93858">
        <ele>1009.5</ele>
        <time>2018-11-24T06:31:21Z</time>
      </trkpt>
      <trkpt lat="42.83174" lon="0.93844">
        <ele>1006.2</ele>
        <time>2018-11-24T06:31:29Z</time>
      </trkpt>
      <trkpt lat="42.83171" lon="0.93828">
        <ele>1003.3</ele>
        <time>2018-11-24T06:31:34Z</time>
      </trkpt>
      <trkpt lat="42.83173" lon="0.93815">
        <ele>1001.4</ele>
        <time>2018-11-24T06:31:38Z</time>
      </trkpt>
      <trkpt lat="42.83167" lon="0.93818">
        <ele>1000.9</ele>
        <time>2018-11-24T06:31:41Z</time>
      </trkpt>
      <trkpt lat="42.83169" lon="0.93813">
        <ele>1000.9</ele>
        <time>2018-11-24T06:31:42Z</time>
      </trkpt>
      <trkpt lat="42.83171" lon="0.93817">
        <ele>1001.9</ele>
        <time>2018-11-24T06:31:44Z</time>
      </trkpt>
      <trkpt lat="42.83171" lon="0.93817">
        <ele>993.2</ele>
        <time>2018-11-24T06:31:44Z</time>
      </trkpt>
      <trkpt lat="42.83171" lon="0.93817">
        <ele>1008.7</ele>
        <time>2018-11-24T06:31:44Z</time>
      </trkpt>
      <trkpt lat="42.8317" lon="0.93816">
        <ele>1001.3</ele>
        <time>2018-11-24T06:31:44Z</time>
      </trkpt>
      <trkpt lat="42.83169" lon="0.93801">
        <ele>999.4</ele>
        <time>2018-11-24T06:31:49Z</time>
      </trkpt>
      <trkpt lat="42.83167" lon="0.93785">
        <ele>996.5</ele>
        <time>2018-11-24T06:31:53Z</time>
      </trkpt>
      <trkpt lat="42.83155" lon="0.93778">
        <ele>993.2</ele>
        <time>2018-11-24T06:31:58Z</time>
      </trkpt>
      <trkpt lat="42.83139" lon="0.93773">
        <ele>990.3</ele>
        <time>2018-11-24T06:32:05Z</time>
      </trkpt>
      <trkpt lat="42.83122" lon="0.93761">
        <ele>986.9</ele>
        <time>2018-11-24T06:32:13Z</time>
      </trkpt>
      <trkpt lat="42.83111" lon="0.93754">
        <ele>983.7</ele>
        <time>2018-11-24T06:32:17Z</time>
      </trkpt>
      <trkpt lat="42.83102" lon="0.9374">
        <ele>980.2</ele>
        <time>2018-11-24T06:32:23Z</time>
      </trkpt>
      <trkpt lat="42.83099" lon="0.93731">
        <ele>979.8</ele>
        <time>2018-11-24T06:32:26Z</time>
      </trkpt>
      <trkpt lat="42.83108" lon="0.93735">
        <ele>979.2</ele>
        <time>2018-11-24T06:32:30Z</time>
      </trkpt>
      <trkpt lat="42.83124" lon="0.93729">
        <ele>976.8</ele>
        <time>2018-11-24T06:32:37Z</time>
      </trkpt>
      <trkpt lat="42.83146" lon="0.93733">
        <ele>974.9</ele>
        <time>2018-11-24T06:32:45Z</time>
      </trkpt>
      <trkpt lat="42.83154" lon="0.93735">
        <ele>974.5</ele>
        <time>2018-11-24T06:32:49Z</time>
      </trkpt>
      <trkpt lat="42.83164" lon="0.93738">
        <ele>974.1</ele>
        <time>2018-11-24T06:32:53Z</time>
      </trkpt>
      <trkpt lat="42.83172" lon="0.93746">
        <ele>973</ele>
        <time>2018-11-24T06:32:57Z</time>
      </trkpt>
      <trkpt lat="42.83177" lon="0.93754">
        <ele>973</ele>
        <time>2018-11-24T06:33:00Z</time>
      </trkpt>
      <trkpt lat="42.83182" lon="0.93761">
        <ele>972.5</ele>
        <time>2018-11-24T06:33:03Z</time>
      </trkpt>
      <trkpt lat="42.83205" lon="0.93784">
        <ele>970.1</ele>
        <time>2018-11-24T06:33:14Z</time>
      </trkpt>
      <trkpt lat="42.83225" lon="0.93789">
        <ele>969.3</ele>
        <time>2018-11-24T06:33:22Z</time>
      </trkpt>
      <trkpt lat="42.83234" lon="0.93793">
        <ele>967.8</ele>
        <time>2018-11-24T06:33:26Z</time>
      </trkpt>
      <trkpt lat="42.83239" lon="0.93796">
        <ele>967.7</ele>
        <time>2018-11-24T06:33:28Z</time>
      </trkpt>
      <trkpt lat="42.83246" lon="0.93799">
        <ele>966.4</ele>
        <time>2018-11-24T06:33:31Z</time>
      </trkpt>
      <trkpt lat="42.83263" lon="0.93804">
        <ele>965.9</ele>
        <time>2018-11-24T06:33:38Z</time>
      </trkpt>
      <trkpt lat="42.83275" lon="0.93805">
        <ele>963.5</ele>
        <time>2018-11-24T06:33:43Z</time>
      </trkpt>
      <trkpt lat="42.83277" lon="0.93805">
        <ele>961.5</ele>
        <time>2018-11-24T06:33:44Z</time>
      </trkpt>
      <trkpt lat="42.83285" lon="0.93796">
        <ele>959.1</ele>
        <time>2018-11-24T06:33:48Z</time>
      </trkpt>
      <trkpt lat="42.83289" lon="0.93787">
        <ele>957.7</ele>
        <time>2018-11-24T06:33:51Z</time>
      </trkpt>
      <trkpt lat="42.8329" lon="0.93784">
        <ele>957.1</ele>
        <time>2018-11-24T06:33:52Z</time>
      </trkpt>
      <trkpt lat="42.83291" lon="0.93772">
        <ele>956.7</ele>
        <time>2018-11-24T06:33:56Z</time>
      </trkpt>
      <trkpt lat="42.83297" lon="0.93764">
        <ele>955.8</ele>
        <time>2018-11-24T06:33:59Z</time>
      </trkpt>
      <trkpt lat="42.83297" lon="0.93763">
        <ele>955.8</ele>
        <time>2018-11-24T06:33:59Z</time>
      </trkpt>
      <trkpt lat="42.83292" lon="0.93753">
        <ele>956.8</ele>
        <time>2018-11-24T06:34:03Z</time>
      </trkpt>
      <trkpt lat="42.83287" lon="0.93746">
        <ele>956.7</ele>
        <time>2018-11-24T06:34:06Z</time>
      </trkpt>
      <trkpt lat="42.8329" lon="0.93745">
        <ele>956.3</ele>
        <time>2018-11-24T06:34:07Z</time>
      </trkpt>
      <trkpt lat="42.83285" lon="0.93737">
        <ele>957.7</ele>
        <time>2018-11-24T06:34:10Z</time>
      </trkpt>
      <trkpt lat="42.83279" lon="0.93732">
        <ele>960</ele>
        <time>2018-11-24T06:34:13Z</time>
      </trkpt>
      <trkpt lat="42.83283" lon="0.93718">
        <ele>962.9</ele>
        <time>2018-11-24T06:34:17Z</time>
      </trkpt>
      <trkpt lat="42.83274" lon="0.93717">
        <ele>966.4</ele>
        <time>2018-11-24T06:34:21Z</time>
      </trkpt>
      <trkpt lat="42.83269" lon="0.93714">
        <ele>968.7</ele>
        <time>2018-11-24T06:34:23Z</time>
      </trkpt>
      <trkpt lat="42.8327" lon="0.93704">
        <ele>970.1</ele>
        <time>2018-11-24T06:34:26Z</time>
      </trkpt>
      <trkpt lat="42.83277" lon="0.93698">
        <ele>970.6</ele>
        <time>2018-11-24T06:34:30Z</time>
      </trkpt>
      <trkpt lat="42.83274" lon="0.93693">
        <ele>973</ele>
        <time>2018-11-24T06:34:32Z</time>
      </trkpt>
      <trkpt lat="42.83272" lon="0.93684">
        <ele>975.4</ele>
        <time>2018-11-24T06:34:34Z</time>
      </trkpt>
      <trkpt lat="42.83277" lon="0.9368">
        <ele>977.4</ele>
        <time>2018-11-24T06:34:37Z</time>
      </trkpt>
      <trkpt lat="42.83281" lon="0.93677">
        <ele>977.9</ele>
        <time>2018-11-24T06:34:38Z</time>
      </trkpt>
      <trkpt lat="42.8329" lon="0.9367">
        <ele>980.3</ele>
        <time>2018-11-24T06:34:43Z</time>
      </trkpt>
      <trkpt lat="42.83291" lon="0.93662">
        <ele>983.6</ele>
        <time>2018-11-24T06:34:45Z</time>
      </trkpt>
      <trkpt lat="42.83298" lon="0.93662">
        <ele>983.1</ele>
        <time>2018-11-24T06:34:48Z</time>
      </trkpt>
      <trkpt lat="42.83299" lon="0.93658">
        <ele>983.2</ele>
        <time>2018-11-24T06:34:49Z</time>
      </trkpt>
      <trkpt lat="42.83311" lon="0.93645">
        <ele>984.6</ele>
        <time>2018-11-24T06:34:55Z</time>
      </trkpt>
      <trkpt lat="42.83327" lon="0.93635">
        <ele>986.1</ele>
        <time>2018-11-24T06:35:02Z</time>
      </trkpt>
      <trkpt lat="42.83327" lon="0.93636">
        <ele>986.5</ele>
        <time>2018-11-24T06:35:02Z</time>
      </trkpt>
      <trkpt lat="42.8333" lon="0.93629">
        <ele>986.9</ele>
        <time>2018-11-24T06:35:05Z</time>
      </trkpt>
      <trkpt lat="42.83334" lon="0.93623">
        <ele>987.9</ele>
        <time>2018-11-24T06:35:07Z</time>
      </trkpt>
      <trkpt lat="42.8334" lon="0.93616">
        <ele>990.4</ele>
        <time>2018-11-24T06:35:10Z</time>
      </trkpt>
      <trkpt lat="42.83343" lon="0.93612">
        <ele>993.7</ele>
        <time>2018-11-24T06:35:12Z</time>
      </trkpt>
      <trkpt lat="42.83345" lon="0.93607">
        <ele>995.7</ele>
        <time>2018-11-24T06:35:14Z</time>
      </trkpt>
      <trkpt lat="42.83352" lon="0.93602">
        <ele>995.2</ele>
        <time>2018-11-24T06:35:17Z</time>
      </trkpt>
      <trkpt lat="42.83363" lon="0.93617">
        <ele>995.6</ele>
        <time>2018-11-24T06:35:23Z</time>
      </trkpt>
      <trkpt lat="42.83382" lon="0.93612">
        <ele>996.2</ele>
        <time>2018-11-24T06:35:31Z</time>
      </trkpt>
      <trkpt lat="42.83379" lon="0.93612">
        <ele>995.6</ele>
        <time>2018-11-24T06:35:32Z</time>
      </trkpt>
      <trkpt lat="42.83383" lon="0.93592">
        <ele>997.5</ele>
        <time>2018-11-24T06:35:38Z</time>
      </trkpt>
      <trkpt lat="42.83384" lon="0.93569">
        <ele>998</ele>
        <time>2018-11-24T06:35:45Z</time>
      </trkpt>
      <trkpt lat="42.8339" lon="0.93555">
        <ele>998</ele>
        <time>2018-11-24T06:35:50Z</time>
      </trkpt>
      <trkpt lat="42.83395" lon="0.93545">
        <ele>998</ele>
        <time>2018-11-24T06:35:53Z</time>
      </trkpt>
      <trkpt lat="42.83399" lon="0.93534">
        <ele>999</ele>
        <time>2018-11-24T06:35:57Z</time>
      </trkpt>
      <trkpt lat="42.83402" lon="0.93534">
        <ele>999</ele>
        <time>2018-11-24T06:35:58Z</time>
      </trkpt>
      <trkpt lat="42.83415" lon="0.93506">
        <ele>999.1</ele>
        <time>2018-11-24T06:36:08Z</time>
      </trkpt>
      <trkpt lat="42.83421" lon="0.9349">
        <ele>999.1</ele>
        <time>2018-11-24T06:36:13Z</time>
      </trkpt>
      <trkpt lat="42.83423" lon="0.93484">
        <ele>999</ele>
        <time>2018-11-24T06:36:15Z</time>
      </trkpt>
      <trkpt lat="42.83431" lon="0.93471">
        <ele>999.5</ele>
        <time>2018-11-24T06:36:20Z</time>
      </trkpt>
      <trkpt lat="42.8344" lon="0.93456">
        <ele>1001.4</ele>
        <time>2018-11-24T06:36:26Z</time>
      </trkpt>
      <trkpt lat="42.8344" lon="0.93452">
        <ele>1001</ele>
        <time>2018-11-24T06:36:27Z</time>
      </trkpt>
      <trkpt lat="42.83442" lon="0.93455">
        <ele>1001</ele>
        <time>2018-11-24T06:36:28Z</time>
      </trkpt>
      <trkpt lat="42.83447" lon="0.93454">
        <ele>1000.9</ele>
        <time>2018-11-24T06:36:30Z</time>
      </trkpt>
      <trkpt lat="42.83443" lon="0.93456">
        <ele>1000.9</ele>
        <time>2018-11-24T06:36:32Z</time>
      </trkpt>
      <trkpt lat="42.83444" lon="0.93454">
        <ele>1001.3</ele>
        <time>2018-11-24T06:36:33Z</time>
      </trkpt>
      <trkpt lat="42.83517" lon="0.93492">
        <ele>1005.2</ele>
        <time>2018-11-24T06:37:04Z</time>
      </trkpt>
      <trkpt lat="42.83505" lon="0.9349">
        <ele>1003.4</ele>
        <time>2018-11-24T06:37:09Z</time>
      </trkpt>
      <trkpt lat="42.83498" lon="0.93494">
        <ele>1000.4</ele>
        <time>2018-11-24T06:37:12Z</time>
      </trkpt>
      <trkpt lat="42.83491" lon="0.93493">
        <ele>997.6</ele>
        <time>2018-11-24T06:37:15Z</time>
      </trkpt>
      <trkpt lat="42.83483" lon="0.93482">
        <ele>995.1</ele>
        <time>2018-11-24T06:37:19Z</time>
      </trkpt>
      <trkpt lat="42.83473" lon="0.93464">
        <ele>993.2</ele>
        <time>2018-11-24T06:37:26Z</time>
      </trkpt>
      <trkpt lat="42.83471" lon="0.93457">
        <ele>992.8</ele>
        <time>2018-11-24T06:37:28Z</time>
      </trkpt>
      <trkpt lat="42.83463" lon="0.93433">
        <ele>990.4</ele>
        <time>2018-11-24T06:37:36Z</time>
      </trkpt>
      <trkpt lat="42.83457" lon="0.93423">
        <ele>990.3</ele>
        <time>2018-11-24T06:37:39Z</time>
      </trkpt>
      <trkpt lat="42.83452" lon="0.93408">
        <ele>990.4</ele>
        <time>2018-11-24T06:37:44Z</time>
      </trkpt>
      <trkpt lat="42.83452" lon="0.93406">
        <ele>991.3</ele>
        <time>2018-11-24T06:37:45Z</time>
      </trkpt>
      <trkpt lat="42.83446" lon="0.93397">
        <ele>994.1</ele>
        <time>2018-11-24T06:37:49Z</time>
      </trkpt>
      <trkpt lat="42.83444" lon="0.93377">
        <ele>996.2</ele>
        <time>2018-11-24T06:37:54Z</time>
      </trkpt>
      <trkpt lat="42.83446" lon="0.93364">
        <ele>997.6</ele>
        <time>2018-11-24T06:37:58Z</time>
      </trkpt>
      <trkpt lat="42.83447" lon="0.93354">
        <ele>999.1</ele>
        <time>2018-11-24T06:38:01Z</time>
      </trkpt>
      <trkpt lat="42.83446" lon="0.93339">
        <ele>1001</ele>
        <time>2018-11-24T06:38:06Z</time>
      </trkpt>
      <trkpt lat="42.83442" lon="0.9333">
        <ele>1003.8</ele>
        <time>2018-11-24T06:38:09Z</time>
      </trkpt>
      <trkpt lat="42.83437" lon="0.93321">
        <ele>1006.6</ele>
        <time>2018-11-24T06:38:12Z</time>
      </trkpt>
      <trkpt lat="42.83437" lon="0.93322">
        <ele>1009.1</ele>
        <time>2018-11-24T06:38:12Z</time>
      </trkpt>
      <trkpt lat="42.83429" lon="0.93325">
        <ele>1012.4</ele>
        <time>2018-11-24T06:38:16Z</time>
      </trkpt>
      <trkpt lat="42.83421" lon="0.9333">
        <ele>1015.3</ele>
        <time>2018-11-24T06:38:19Z</time>
      </trkpt>
      <trkpt lat="42.83416" lon="0.93331">
        <ele>1017.7</ele>
        <time>2018-11-24T06:38:21Z</time>
      </trkpt>
      <trkpt lat="42.83412" lon="0.93333">
        <ele>1020.1</ele>
        <time>2018-11-24T06:38:23Z</time>
      </trkpt>
      <trkpt lat="42.83409" lon="0.93326">
        <ele>1022</ele>
        <time>2018-11-24T06:38:25Z</time>
      </trkpt>
      <trkpt lat="42.83407" lon="0.93322">
        <ele>1024.5</ele>
        <time>2018-11-24T06:38:27Z</time>
      </trkpt>
      <trkpt lat="42.83413" lon="0.93315">
        <ele>1027.4</ele>
        <time>2018-11-24T06:38:30Z</time>
      </trkpt>
      <trkpt lat="42.8341" lon="0.93305">
        <ele>1030.7</ele>
        <time>2018-11-24T06:38:33Z</time>
      </trkpt>
      <trkpt lat="42.8341" lon="0.93296">
        <ele>1033.7</ele>
        <time>2018-11-24T06:38:35Z</time>
      </trkpt>
      <trkpt lat="42.83411" lon="0.93281">
        <ele>1036.5</ele>
        <time>2018-11-24T06:38:39Z</time>
      </trkpt>
      <trkpt lat="42.83416" lon="0.93264">
        <ele>1039.9</ele>
        <time>2018-11-24T06:38:45Z</time>
      </trkpt>
      <trkpt lat="42.83417" lon="0.93253">
        <ele>1042.3</ele>
        <time>2018-11-24T06:38:48Z</time>
      </trkpt>
      <trkpt lat="42.83414" lon="0.93241">
        <ele>1045.2</ele>
        <time>2018-11-24T06:38:52Z</time>
      </trkpt>
      <trkpt lat="42.83412" lon="0.93225">
        <ele>1048</ele>
        <time>2018-11-24T06:38:57Z</time>
      </trkpt>
      <trkpt lat="42.83405" lon="0.93214">
        <ele>1050.9</ele>
        <time>2018-11-24T06:39:01Z</time>
      </trkpt>
      <trkpt lat="42.83397" lon="0.932">
        <ele>1054.2</ele>
        <time>2018-11-24T06:39:06Z</time>
      </trkpt>
      <trkpt lat="42.83391" lon="0.93188">
        <ele>1056.2</ele>
        <time>2018-11-24T06:39:10Z</time>
      </trkpt>
      <trkpt lat="42.83385" lon="0.93186">
        <ele>1058.7</ele>
        <time>2018-11-24T06:39:13Z</time>
      </trkpt>
      <trkpt lat="42.83374" lon="0.93187">
        <ele>1060</ele>
        <time>2018-11-24T06:39:17Z</time>
      </trkpt>
      <trkpt lat="42.83365" lon="0.93191">
        <ele>1062</ele>
        <time>2018-11-24T06:39:21Z</time>
      </trkpt>
      <trkpt lat="42.83353" lon="0.93199">
        <ele>1065.4</ele>
        <time>2018-11-24T06:39:27Z</time>
      </trkpt>
      <trkpt lat="42.83344" lon="0.93199">
        <ele>1068.2</ele>
        <time>2018-11-24T06:39:30Z</time>
      </trkpt>
      <trkpt lat="42.83335" lon="0.93196">
        <ele>1070.6</ele>
        <time>2018-11-24T06:39:34Z</time>
      </trkpt>
      <trkpt lat="42.83329" lon="0.9319">
        <ele>1073</ele>
        <time>2018-11-24T06:39:37Z</time>
      </trkpt>
      <trkpt lat="42.83323" lon="0.9318">
        <ele>1075.8</ele>
        <time>2018-11-24T06:39:41Z</time>
      </trkpt>
      <trkpt lat="42.83321" lon="0.93168">
        <ele>1078.4</ele>
        <time>2018-11-24T06:39:44Z</time>
      </trkpt>
      <trkpt lat="42.83315" lon="0.93159">
        <ele>1081.2</ele>
        <time>2018-11-24T06:39:48Z</time>
      </trkpt>
      <trkpt lat="42.83311" lon="0.93151">
        <ele>1084</ele>
        <time>2018-11-24T06:39:51Z</time>
      </trkpt>
      <trkpt lat="42.83306" lon="0.93141">
        <ele>1086.9</ele>
        <time>2018-11-24T06:39:54Z</time>
      </trkpt>
      <trkpt lat="42.83305" lon="0.93132">
        <ele>1088.4</ele>
        <time>2018-11-24T06:39:57Z</time>
      </trkpt>
      <trkpt lat="42.833" lon="0.93127">
        <ele>1091.7</ele>
        <time>2018-11-24T06:40:00Z</time>
      </trkpt>
      <trkpt lat="42.83297" lon="0.93132">
        <ele>1094.6</ele>
        <time>2018-11-24T06:40:02Z</time>
      </trkpt>
      <trkpt lat="42.83289" lon="0.93132">
        <ele>1096.5</ele>
        <time>2018-11-24T06:40:05Z</time>
      </trkpt>
      <trkpt lat="42.83285" lon="0.93126">
        <ele>1099</ele>
        <time>2018-11-24T06:40:07Z</time>
      </trkpt>
      <trkpt lat="42.83275" lon="0.93123">
        <ele>1101.9</ele>
        <time>2018-11-24T06:40:11Z</time>
      </trkpt>
      <trkpt lat="42.8327" lon="0.9313">
        <ele>1103.8</ele>
        <time>2018-11-24T06:40:14Z</time>
      </trkpt>
      <trkpt lat="42.83264" lon="0.93126">
        <ele>1106.1</ele>
        <time>2018-11-24T06:40:17Z</time>
      </trkpt>
      <trkpt lat="42.83262" lon="0.93112">
        <ele>1109</ele>
        <time>2018-11-24T06:40:21Z</time>
      </trkpt>
      <trkpt lat="42.83255" lon="0.93103">
        <ele>1111.4</ele>
        <time>2018-11-24T06:40:25Z</time>
      </trkpt>
      <trkpt lat="42.83246" lon="0.93094">
        <ele>1115.3</ele>
        <time>2018-11-24T06:40:29Z</time>
      </trkpt>
      <trkpt lat="42.8324" lon="0.93086">
        <ele>1118.6</ele>
        <time>2018-11-24T06:40:33Z</time>
      </trkpt>
      <trkpt lat="42.83231" lon="0.93077">
        <ele>1121</ele>
        <time>2018-11-24T06:40:37Z</time>
      </trkpt>
      <trkpt lat="42.83228" lon="0.93063">
        <ele>1124</ele>
        <time>2018-11-24T06:40:41Z</time>
      </trkpt>
      <trkpt lat="42.83219" lon="0.93044">
        <ele>1126.8</ele>
        <time>2018-11-24T06:40:48Z</time>
      </trkpt>
      <trkpt lat="42.83218" lon="0.93031">
        <ele>1130.2</ele>
        <time>2018-11-24T06:40:52Z</time>
      </trkpt>
      <trkpt lat="42.83217" lon="0.93016">
        <ele>1132.7</ele>
        <time>2018-11-24T06:40:56Z</time>
      </trkpt>
      <trkpt lat="42.83216" lon="0.93002">
        <ele>1135.1</ele>
        <time>2018-11-24T06:41:01Z</time>
      </trkpt>
      <trkpt lat="42.8321" lon="0.9299">
        <ele>1137.4</ele>
        <time>2018-11-24T06:41:05Z</time>
      </trkpt>
      <trkpt lat="42.83202" lon="0.9298">
        <ele>1140.8</ele>
        <time>2018-11-24T06:41:09Z</time>
      </trkpt>
      <trkpt lat="42.83194" lon="0.9296">
        <ele>1143.2</ele>
        <time>2018-11-24T06:41:16Z</time>
      </trkpt>
      <trkpt lat="42.83192" lon="0.92954">
        <ele>1145.1</ele>
        <time>2018-11-24T06:41:18Z</time>
      </trkpt>
      <trkpt lat="42.83186" lon="0.92931">
        <ele>1148</ele>
        <time>2018-11-24T06:41:25Z</time>
      </trkpt>
      <trkpt lat="42.8318" lon="0.92921">
        <ele>1150.8</ele>
        <time>2018-11-24T06:41:29Z</time>
      </trkpt>
      <trkpt lat="42.83185" lon="0.9291">
        <ele>1152.8</ele>
        <time>2018-11-24T06:41:33Z</time>
      </trkpt>
      <trkpt lat="42.83182" lon="0.92906">
        <ele>1155.3</ele>
        <time>2018-11-24T06:41:34Z</time>
      </trkpt>
      <trkpt lat="42.83182" lon="0.92896">
        <ele>1157.6</ele>
        <time>2018-11-24T06:41:37Z</time>
      </trkpt>
      <trkpt lat="42.83178" lon="0.92902">
        <ele>1161</ele>
        <time>2018-11-24T06:41:39Z</time>
      </trkpt>
      <trkpt lat="42.83177" lon="0.92911">
        <ele>1163.4</ele>
        <time>2018-11-24T06:41:42Z</time>
      </trkpt>
      <trkpt lat="42.83174" lon="0.92922">
        <ele>1165.8</ele>
        <time>2018-11-24T06:41:45Z</time>
      </trkpt>
      <trkpt lat="42.83172" lon="0.92931">
        <ele>1168.2</ele>
        <time>2018-11-24T06:41:48Z</time>
      </trkpt>
      <trkpt lat="42.83166" lon="0.92926">
        <ele>1171.1</ele>
        <time>2018-11-24T06:41:51Z</time>
      </trkpt>
      <trkpt lat="42.83157" lon="0.92909">
        <ele>1174</ele>
        <time>2018-11-24T06:41:57Z</time>
      </trkpt>
      <trkpt lat="42.83154" lon="0.92902">
        <ele>1176.9</ele>
        <time>2018-11-24T06:41:59Z</time>
      </trkpt>
      <trkpt lat="42.83147" lon="0.92894">
        <ele>1179.7</ele>
        <time>2018-11-24T06:42:03Z</time>
      </trkpt>
      <trkpt lat="42.8314" lon="0.92886">
        <ele>1182.6</ele>
        <time>2018-11-24T06:42:06Z</time>
      </trkpt>
      <trkpt lat="42.83131" lon="0.92874">
        <ele>1185.4</ele>
        <time>2018-11-24T06:42:11Z</time>
      </trkpt>
      <trkpt lat="42.83137" lon="0.92885">
        <ele>1188.3</ele>
        <time>2018-11-24T06:42:15Z</time>
      </trkpt>
      <trkpt lat="42.83131" lon="0.92896">
        <ele>1190.4</ele>
        <time>2018-11-24T06:42:19Z</time>
      </trkpt>
      <trkpt lat="42.83124" lon="0.92905">
        <ele>1192.2</ele>
        <time>2018-11-24T06:42:23Z</time>
      </trkpt>
      <trkpt lat="42.8312" lon="0.92914">
        <ele>1194.7</ele>
        <time>2018-11-24T06:42:26Z</time>
      </trkpt>
      <trkpt lat="42.83111" lon="0.92899">
        <ele>1197.6</ele>
        <time>2018-11-24T06:42:32Z</time>
      </trkpt>
      <trkpt lat="42.83097" lon="0.92881">
        <ele>1200.9</ele>
        <time>2018-11-24T06:42:39Z</time>
      </trkpt>
      <trkpt lat="42.83109" lon="0.92884">
        <ele>1202.3</ele>
        <time>2018-11-24T06:42:44Z</time>
      </trkpt>
      <trkpt lat="42.8311" lon="0.9286">
        <ele>1204.7</ele>
        <time>2018-11-24T06:42:51Z</time>
      </trkpt>
      <trkpt lat="42.8311" lon="0.92854">
        <ele>1207.1</ele>
        <time>2018-11-24T06:42:53Z</time>
      </trkpt>
      <trkpt lat="42.83104" lon="0.92834">
        <ele>1210</ele>
        <time>2018-11-24T06:42:59Z</time>
      </trkpt>
      <trkpt lat="42.83106" lon="0.92826">
        <ele>1213.3</ele>
        <time>2018-11-24T06:43:02Z</time>
      </trkpt>
      <trkpt lat="42.83114" lon="0.92814">
        <ele>1215.8</ele>
        <time>2018-11-24T06:43:06Z</time>
      </trkpt>
      <trkpt lat="42.83115" lon="0.92805">
        <ele>1218.1</ele>
        <time>2018-11-24T06:43:09Z</time>
      </trkpt>
      <trkpt lat="42.83123" lon="0.92791">
        <ele>1220.1</ele>
        <time>2018-11-24T06:43:14Z</time>
      </trkpt>
      <trkpt lat="42.83119" lon="0.92783">
        <ele>1222.1</ele>
        <time>2018-11-24T06:43:17Z</time>
      </trkpt>
      <trkpt lat="42.83104" lon="0.92781">
        <ele>1222.1</ele>
        <time>2018-11-24T06:43:23Z</time>
      </trkpt>
      <trkpt lat="42.83117" lon="0.92792">
        <ele>1222.5</ele>
        <time>2018-11-24T06:43:29Z</time>
      </trkpt>
      <trkpt lat="42.83111" lon="0.92777">
        <ele>1225.9</ele>
        <time>2018-11-24T06:43:34Z</time>
      </trkpt>
      <trkpt lat="42.83112" lon="0.92768">
        <ele>1228.8</ele>
        <time>2018-11-24T06:43:37Z</time>
      </trkpt>
      <trkpt lat="42.8311" lon="0.92758">
        <ele>1231.7</ele>
        <time>2018-11-24T06:43:40Z</time>
      </trkpt>
      <trkpt lat="42.83106" lon="0.92756">
        <ele>1231.6</ele>
        <time>2018-11-24T06:43:42Z</time>
      </trkpt>
      <trkpt lat="42.83101" lon="0.92746">
        <ele>1235</ele>
        <time>2018-11-24T06:43:45Z</time>
      </trkpt>
      <trkpt lat="42.83104" lon="0.92737">
        <ele>1237.3</ele>
        <time>2018-11-24T06:43:48Z</time>
      </trkpt>
      <trkpt lat="42.83102" lon="0.92723">
        <ele>1238.8</ele>
        <time>2018-11-24T06:43:52Z</time>
      </trkpt>
      <trkpt lat="42.83099" lon="0.92719">
        <ele>1239.4</ele>
        <time>2018-11-24T06:43:54Z</time>
      </trkpt>
      <trkpt lat="42.83096" lon="0.92724">
        <ele>1240.7</ele>
        <time>2018-11-24T06:43:56Z</time>
      </trkpt>
      <trkpt lat="42.83096" lon="0.92719">
        <ele>1243.1</ele>
        <time>2018-11-24T06:43:57Z</time>
      </trkpt>
      <trkpt lat="42.83099" lon="0.92707">
        <ele>1245.5</ele>
        <time>2018-11-24T06:44:01Z</time>
      </trkpt>
      <trkpt lat="42.83104" lon="0.92704">
        <ele>1248</ele>
        <time>2018-11-24T06:44:03Z</time>
      </trkpt>
      <trkpt lat="42.831" lon="0.92697">
        <ele>1248.4</ele>
        <time>2018-11-24T06:44:06Z</time>
      </trkpt>
      <trkpt lat="42.83105" lon="0.92703">
        <ele>1245</ele>
        <time>2018-11-24T06:44:08Z</time>
      </trkpt>
      <trkpt lat="42.83105" lon="0.92704">
        <ele>1245.1</ele>
        <time>2018-11-24T06:44:08Z</time>
      </trkpt>
      <trkpt lat="42.83104" lon="0.92706">
        <ele>1248</ele>
        <time>2018-11-24T06:44:09Z</time>
      </trkpt>
      <trkpt lat="42.83104" lon="0.92706">
        <ele>1247.9</ele>
        <time>2018-11-24T06:44:09Z</time>
      </trkpt>
      <trkpt lat="42.83108" lon="0.92706">
        <ele>1247</ele>
        <time>2018-11-24T06:44:11Z</time>
      </trkpt>
      <trkpt lat="42.83104" lon="0.92707">
        <ele>1247.9</ele>
        <time>2018-11-24T06:44:12Z</time>
      </trkpt>
      <trkpt lat="42.83107" lon="0.92538">
        <ele>1248</ele>
        <time>2018-11-24T06:45:02Z</time>
      </trkpt>
      <trkpt lat="42.83108" lon="0.92702">
        <ele>1249</ele>
        <time>2018-11-24T06:45:50Z</time>
      </trkpt>
      <trkpt lat="42.83104" lon="0.92712">
        <ele>1250.4</ele>
        <time>2018-11-24T06:45:54Z</time>
      </trkpt>
      <trkpt lat="42.83105" lon="0.92704">
        <ele>1252.8</ele>
        <time>2018-11-24T06:45:56Z</time>
      </trkpt>
      <trkpt lat="42.83106" lon="0.92695">
        <ele>1256.1</ele>
        <time>2018-11-24T06:45:59Z</time>
      </trkpt>
      <trkpt lat="42.83096" lon="0.92687">
        <ele>1258</ele>
        <time>2018-11-24T06:46:04Z</time>
      </trkpt>
      <trkpt lat="42.83101" lon="0.92683">
        <ele>1259.5</ele>
        <time>2018-11-24T06:46:06Z</time>
      </trkpt>
      <trkpt lat="42.83102" lon="0.92672">
        <ele>1262</ele>
        <time>2018-11-24T06:46:09Z</time>
      </trkpt>
      <trkpt lat="42.831" lon="0.92665">
        <ele>1264.9</ele>
        <time>2018-11-24T06:46:11Z</time>
      </trkpt>
      <trkpt lat="42.83094" lon="0.92666">
        <ele>1267.2</ele>
        <time>2018-11-24T06:46:14Z</time>
      </trkpt>
      <trkpt lat="42.83089" lon="0.92658">
        <ele>1268.6</ele>
        <time>2018-11-24T06:46:17Z</time>
      </trkpt>
      <trkpt lat="42.83088" lon="0.92654">
        <ele>1272</ele>
        <time>2018-11-24T06:46:18Z</time>
      </trkpt>
      <trkpt lat="42.83092" lon="0.92649">
        <ele>1274</ele>
        <time>2018-11-24T06:46:20Z</time>
      </trkpt>
      <trkpt lat="42.83101" lon="0.92645">
        <ele>1277.4</ele>
        <time>2018-11-24T06:46:24Z</time>
      </trkpt>
      <trkpt lat="42.8311" lon="0.92642">
        <ele>1279.8</ele>
        <time>2018-11-24T06:46:28Z</time>
      </trkpt>
      <trkpt lat="42.83113" lon="0.92635">
        <ele>1282.5</ele>
        <time>2018-11-24T06:46:30Z</time>
      </trkpt>
      <trkpt lat="42.83115" lon="0.92622">
        <ele>1284.9</ele>
        <time>2018-11-24T06:46:34Z</time>
      </trkpt>
      <trkpt lat="42.83116" lon="0.92617">
        <ele>1287</ele>
        <time>2018-11-24T06:46:36Z</time>
      </trkpt>
      <trkpt lat="42.83124" lon="0.92626">
        <ele>1287.4</ele>
        <time>2018-11-24T06:46:40Z</time>
      </trkpt>
      <trkpt lat="42.83128" lon="0.92629">
        <ele>1287.3</ele>
        <time>2018-11-24T06:46:42Z</time>
      </trkpt>
      <trkpt lat="42.83129" lon="0.92634">
        <ele>1287.4</ele>
        <time>2018-11-24T06:46:43Z</time>
      </trkpt>
      <trkpt lat="42.83125" lon="0.92634">
        <ele>1287.3</ele>
        <time>2018-11-24T06:46:45Z</time>
      </trkpt>
      <trkpt lat="42.83114" lon="0.92623">
        <ele>1290.2</ele>
        <time>2018-11-24T06:46:50Z</time>
      </trkpt>
      <trkpt lat="42.83103" lon="0.92619">
        <ele>1291.8</ele>
        <time>2018-11-24T06:46:55Z</time>
      </trkpt>
      <trkpt lat="42.8309" lon="0.92603">
        <ele>1292.6</ele>
        <time>2018-11-24T06:47:02Z</time>
      </trkpt>
      <trkpt lat="42.83082" lon="0.92592">
        <ele>1295.6</ele>
        <time>2018-11-24T06:47:07Z</time>
      </trkpt>
      <trkpt lat="42.83078" lon="0.92582">
        <ele>1297.5</ele>
        <time>2018-11-24T06:47:10Z</time>
      </trkpt>
      <trkpt lat="42.83084" lon="0.92577">
        <ele>1299.9</ele>
        <time>2018-11-24T06:47:13Z</time>
      </trkpt>
      <trkpt lat="42.83083" lon="0.92571">
        <ele>1303.2</ele>
        <time>2018-11-24T06:47:15Z</time>
      </trkpt>
      <trkpt lat="42.8308" lon="0.92563">
        <ele>1305.7</ele>
        <time>2018-11-24T06:47:18Z</time>
      </trkpt>
      <trkpt lat="42.83082" lon="0.92564">
        <ele>1306.7</ele>
        <time>2018-11-24T06:47:18Z</time>
      </trkpt>
      <trkpt lat="42.83077" lon="0.92553">
        <ele>1309.4</ele>
        <time>2018-11-24T06:47:22Z</time>
      </trkpt>
      <trkpt lat="42.8308" lon="0.92546">
        <ele>1312.8</ele>
        <time>2018-11-24T06:47:24Z</time>
      </trkpt>
      <trkpt lat="42.83081" lon="0.92537">
        <ele>1315.2</ele>
        <time>2018-11-24T06:47:27Z</time>
      </trkpt>
      <trkpt lat="42.83074" lon="0.9253">
        <ele>1318.1</ele>
        <time>2018-11-24T06:47:31Z</time>
      </trkpt>
      <trkpt lat="42.83067" lon="0.92511">
        <ele>1319.7</ele>
        <time>2018-11-24T06:47:37Z</time>
      </trkpt>
      <trkpt lat="42.83067" lon="0.92511">
        <ele>1322.4</ele>
        <time>2018-11-24T06:47:37Z</time>
      </trkpt>
      <trkpt lat="42.8307" lon="0.92508">
        <ele>1325.9</ele>
        <time>2018-11-24T06:47:38Z</time>
      </trkpt>
      <trkpt lat="42.83068" lon="0.92512">
        <ele>1327.2</ele>
        <time>2018-11-24T06:47:40Z</time>
      </trkpt>
      <trkpt lat="42.83067" lon="0.92508">
        <ele>1330.1</ele>
        <time>2018-11-24T06:47:41Z</time>
      </trkpt>
      <trkpt lat="42.83066" lon="0.925">
        <ele>1331.1</ele>
        <time>2018-11-24T06:47:43Z</time>
      </trkpt>
      <trkpt lat="42.83069" lon="0.92493">
        <ele>1334</ele>
        <time>2018-11-24T06:47:46Z</time>
      </trkpt>
      <trkpt lat="42.83063" lon="0.9249">
        <ele>1336.5</ele>
        <time>2018-11-24T06:47:48Z</time>
      </trkpt>
      <trkpt lat="42.83054" lon="0.92481">
        <ele>1338.4</ele>
        <time>2018-11-24T06:47:53Z</time>
      </trkpt>
      <trkpt lat="42.83048" lon="0.92475">
        <ele>1341.3</ele>
        <time>2018-11-24T06:47:56Z</time>
      </trkpt>
      <trkpt lat="42.8305" lon="0.92466">
        <ele>1341.7</ele>
        <time>2018-11-24T06:47:59Z</time>
      </trkpt>
      <trkpt lat="42.83055" lon="0.92463">
        <ele>1343.6</ele>
        <time>2018-11-24T06:48:01Z</time>
      </trkpt>
      <trkpt lat="42.83059" lon="0.9246">
        <ele>1346.5</ele>
        <time>2018-11-24T06:48:03Z</time>
      </trkpt>
      <trkpt lat="42.83059" lon="0.92454">
        <ele>1349</ele>
        <time>2018-11-24T06:48:05Z</time>
      </trkpt>
      <trkpt lat="42.83065" lon="0.92457">
        <ele>1349.9</ele>
        <time>2018-11-24T06:48:07Z</time>
      </trkpt>
      <trkpt lat="42.83063" lon="0.92448">
        <ele>1351.3</ele>
        <time>2018-11-24T06:48:10Z</time>
      </trkpt>
      <trkpt lat="42.83058" lon="0.92444">
        <ele>1352.3</ele>
        <time>2018-11-24T06:48:13Z</time>
      </trkpt>
      <trkpt lat="42.83053" lon="0.92441">
        <ele>1354.6</ele>
        <time>2018-11-24T06:48:15Z</time>
      </trkpt>
      <trkpt lat="42.83063" lon="0.92439">
        <ele>1357.5</ele>
        <time>2018-11-24T06:48:19Z</time>
      </trkpt>
      <trkpt lat="42.83067" lon="0.9244">
        <ele>1358.6</ele>
        <time>2018-11-24T06:48:20Z</time>
      </trkpt>
      <trkpt lat="42.8307" lon="0.92433">
        <ele>1360.4</ele>
        <time>2018-11-24T06:48:23Z</time>
      </trkpt>
      <trkpt lat="42.83062" lon="0.92423">
        <ele>1361.9</ele>
        <time>2018-11-24T06:48:27Z</time>
      </trkpt>
      <trkpt lat="42.83067" lon="0.92421">
        <ele>1363.8</ele>
        <time>2018-11-24T06:48:29Z</time>
      </trkpt>
      <trkpt lat="42.83074" lon="0.9242">
        <ele>1365.7</ele>
        <time>2018-11-24T06:48:32Z</time>
      </trkpt>
      <trkpt lat="42.83068" lon="0.92409">
        <ele>1367.7</ele>
        <time>2018-11-24T06:48:36Z</time>
      </trkpt>
      <trkpt lat="42.83068" lon="0.92403">
        <ele>1368.7</ele>
        <time>2018-11-24T06:48:38Z</time>
      </trkpt>
      <trkpt lat="42.83065" lon="0.92403">
        <ele>1370.6</ele>
        <time>2018-11-24T06:48:39Z</time>
      </trkpt>
      <trkpt lat="42.83064" lon="0.92407">
        <ele>1371.1</ele>
        <time>2018-11-24T06:48:40Z</time>
      </trkpt>
      <trkpt lat="42.83067" lon="0.92406">
        <ele>1371</ele>
        <time>2018-11-24T06:48:41Z</time>
      </trkpt>
      <trkpt lat="42.83071" lon="0.92415">
        <ele>1371.1</ele>
        <time>2018-11-24T06:48:44Z</time>
      </trkpt>
      <trkpt lat="42.8307" lon="0.92418">
        <ele>1370.5</ele>
        <time>2018-11-24T06:48:45Z</time>
      </trkpt>
      <trkpt lat="42.83071" lon="0.92421">
        <ele>1370.6</ele>
        <time>2018-11-24T06:48:46Z</time>
      </trkpt>
      <trkpt lat="42.8307" lon="0.9242">
        <ele>1371.1</ele>
        <time>2018-11-24T06:48:47Z</time>
      </trkpt>
      <trkpt lat="42.83071" lon="0.92436">
        <ele>1371.5</ele>
        <time>2018-11-24T06:48:51Z</time>
      </trkpt>
      <trkpt lat="42.83073" lon="0.92425">
        <ele>1371.5</ele>
        <time>2018-11-24T06:48:55Z</time>
      </trkpt>
      <trkpt lat="42.83074" lon="0.92414">
        <ele>1374.3</ele>
        <time>2018-11-24T06:48:58Z</time>
      </trkpt>
      <trkpt lat="42.83073" lon="0.92404">
        <ele>1377.7</ele>
        <time>2018-11-24T06:49:01Z</time>
      </trkpt>
      <trkpt lat="42.83075" lon="0.92398">
        <ele>1380.2</ele>
        <time>2018-11-24T06:49:03Z</time>
      </trkpt>
      <trkpt lat="42.83084" lon="0.92397">
        <ele>1383</ele>
        <time>2018-11-24T06:49:07Z</time>
      </trkpt>
      <trkpt lat="42.83089" lon="0.92396">
        <ele>1386.5</ele>
        <time>2018-11-24T06:49:09Z</time>
      </trkpt>
      <trkpt lat="42.83101" lon="0.924">
        <ele>1388.8</ele>
        <time>2018-11-24T06:49:14Z</time>
      </trkpt>
      <trkpt lat="42.83108" lon="0.92403">
        <ele>1390.7</ele>
        <time>2018-11-24T06:49:17Z</time>
      </trkpt>
      <trkpt lat="42.83116" lon="0.92404">
        <ele>1394.1</ele>
        <time>2018-11-24T06:49:20Z</time>
      </trkpt>
      <trkpt lat="42.83116" lon="0.92408">
        <ele>1395</ele>
        <time>2018-11-24T06:49:21Z</time>
      </trkpt>
      <trkpt lat="42.83114" lon="0.92411">
        <ele>1395.1</ele>
        <time>2018-11-24T06:49:22Z</time>
      </trkpt>
      <trkpt lat="42.83112" lon="0.9241">
        <ele>1393.7</ele>
        <time>2018-11-24T06:49:23Z</time>
      </trkpt>
      <trkpt lat="42.83111" lon="0.92405">
        <ele>1394</ele>
        <time>2018-11-24T06:49:24Z</time>
      </trkpt>
      <trkpt lat="42.83111" lon="0.92406">
        <ele>1393.6</ele>
        <time>2018-11-24T06:49:25Z</time>
      </trkpt>
      <trkpt lat="42.83112" lon="0.92406">
        <ele>1395.1</ele>
        <time>2018-11-24T06:49:25Z</time>
      </trkpt>
      <trkpt lat="42.83113" lon="0.92406">
        <ele>1395.5</ele>
        <time>2018-11-24T06:49:25Z</time>
      </trkpt>
      <trkpt lat="42.83111" lon="0.92405">
        <ele>1394.5</ele>
        <time>2018-11-24T06:49:26Z</time>
      </trkpt>
      <trkpt lat="42.83114" lon="0.92403">
        <ele>1394.6</ele>
        <time>2018-11-24T06:49:28Z</time>
      </trkpt>
      <trkpt lat="42.83115" lon="0.92408">
        <ele>1396</ele>
        <time>2018-11-24T06:49:29Z</time>
      </trkpt>
      <trkpt lat="42.83116" lon="0.92408">
        <ele>1396.1</ele>
        <time>2018-11-24T06:49:30Z</time>
      </trkpt>
      <trkpt lat="42.83118" lon="0.92409">
        <ele>1398</ele>
        <time>2018-11-24T06:49:30Z</time>
      </trkpt>
      <trkpt lat="42.83119" lon="0.92405">
        <ele>1398.5</ele>
        <time>2018-11-24T06:49:32Z</time>
      </trkpt>
      <trkpt lat="42.83121" lon="0.92392">
        <ele>1401.3</ele>
        <time>2018-11-24T06:49:36Z</time>
      </trkpt>
      <trkpt lat="42.83122" lon="0.92383">
        <ele>1404.1</ele>
        <time>2018-11-24T06:49:38Z</time>
      </trkpt>
      <trkpt lat="42.8312" lon="0.92379">
        <ele>1407</ele>
        <time>2018-11-24T06:49:40Z</time>
      </trkpt>
      <trkpt lat="42.83123" lon="0.92372">
        <ele>1409.4</ele>
        <time>2018-11-24T06:49:42Z</time>
      </trkpt>
      <trkpt lat="42.83128" lon="0.92361">
        <ele>1412.4</ele>
        <time>2018-11-24T06:49:46Z</time>
      </trkpt>
      <trkpt lat="42.83131" lon="0.9235">
        <ele>1415.2</ele>
        <time>2018-11-24T06:49:49Z</time>
      </trkpt>
      <trkpt lat="42.83133" lon="0.92341">
        <ele>1418.2</ele>
        <time>2018-11-24T06:49:52Z</time>
      </trkpt>
      <trkpt lat="42.83132" lon="0.92337">
        <ele>1421.4</ele>
        <time>2018-11-24T06:49:54Z</time>
      </trkpt>
      <trkpt lat="42.83127" lon="0.92332">
        <ele>1424.9</ele>
        <time>2018-11-24T06:49:56Z</time>
      </trkpt>
      <trkpt lat="42.8313" lon="0.9232">
        <ele>1427.8</ele>
        <time>2018-11-24T06:50:00Z</time>
      </trkpt>
      <trkpt lat="42.8313" lon="0.92312">
        <ele>1430.6</ele>
        <time>2018-11-24T06:50:02Z</time>
      </trkpt>
      <trkpt lat="42.83125" lon="0.92317">
        <ele>1433.5</ele>
        <time>2018-11-24T06:50:05Z</time>
      </trkpt>
      <trkpt lat="42.83121" lon="0.92311">
        <ele>1436.4</ele>
        <time>2018-11-24T06:50:07Z</time>
      </trkpt>
      <trkpt lat="42.83122" lon="0.92301">
        <ele>1439.3</ele>
        <time>2018-11-24T06:50:09Z</time>
      </trkpt>
      <trkpt lat="42.83123" lon="0.92292">
        <ele>1442.1</ele>
        <time>2018-11-24T06:50:12Z</time>
      </trkpt>
      <trkpt lat="42.83126" lon="0.9228">
        <ele>1445</ele>
        <time>2018-11-24T06:50:16Z</time>
      </trkpt>
      <trkpt lat="42.83124" lon="0.92269">
        <ele>1448</ele>
        <time>2018-11-24T06:50:19Z</time>
      </trkpt>
      <trkpt lat="42.83118" lon="0.92273">
        <ele>1449.4</ele>
        <time>2018-11-24T06:50:22Z</time>
      </trkpt>
      <trkpt lat="42.83112" lon="0.92278">
        <ele>1452.7</ele>
        <time>2018-11-24T06:50:25Z</time>
      </trkpt>
      <trkpt lat="42.8311" lon="0.92273">
        <ele>1455.7</ele>
        <time>2018-11-24T06:50:27Z</time>
      </trkpt>
      <trkpt lat="42.83109" lon="0.92266">
        <ele>1458.5</ele>
        <time>2018-11-24T06:50:29Z</time>
      </trkpt>
      <trkpt lat="42.83108" lon="0.92262">
        <ele>1460.4</ele>
        <time>2018-11-24T06:50:30Z</time>
      </trkpt>
      <trkpt lat="42.83107" lon="0.92258">
        <ele>1462.4</ele>
        <time>2018-11-24T06:50:31Z</time>
      </trkpt>
      <trkpt lat="42.83106" lon="0.92255">
        <ele>1462.8</ele>
        <time>2018-11-24T06:50:32Z</time>
      </trkpt>
      <trkpt lat="42.83106" lon="0.92248">
        <ele>1465.8</ele>
        <time>2018-11-24T06:50:34Z</time>
      </trkpt>
      <trkpt lat="42.83109" lon="0.92246">
        <ele>1466.3</ele>
        <time>2018-11-24T06:50:36Z</time>
      </trkpt>
      <trkpt lat="42.83105" lon="0.92238">
        <ele>1469.5</ele>
        <time>2018-11-24T06:50:39Z</time>
      </trkpt>
      <trkpt lat="42.83103" lon="0.92236">
        <ele>1470</ele>
        <time>2018-11-24T06:50:40Z</time>
      </trkpt>
      <trkpt lat="42.83101" lon="0.92225">
        <ele>1472.4</ele>
        <time>2018-11-24T06:50:43Z</time>
      </trkpt>
      <trkpt lat="42.83099" lon="0.92213">
        <ele>1474.9</ele>
        <time>2018-11-24T06:50:47Z</time>
      </trkpt>
      <trkpt lat="42.83096" lon="0.92206">
        <ele>1477.3</ele>
        <time>2018-11-24T06:50:49Z</time>
      </trkpt>
      <trkpt lat="42.83096" lon="0.92192">
        <ele>1480.6</ele>
        <time>2018-11-24T06:50:53Z</time>
      </trkpt>
      <trkpt lat="42.83094" lon="0.92183">
        <ele>1482</ele>
        <time>2018-11-24T06:50:56Z</time>
      </trkpt>
      <trkpt lat="42.83093" lon="0.92181">
        <ele>1481.1</ele>
        <time>2018-11-24T06:50:57Z</time>
      </trkpt>
      <trkpt lat="42.83089" lon="0.9218">
        <ele>1484.4</ele>
        <time>2018-11-24T06:50:58Z</time>
      </trkpt>
      <trkpt lat="42.83088" lon="0.92177">
        <ele>1485.9</ele>
        <time>2018-11-24T06:50:59Z</time>
      </trkpt>
      <trkpt lat="42.8308" lon="0.92171">
        <ele>1487.8</ele>
        <time>2018-11-24T06:51:03Z</time>
      </trkpt>
      <trkpt lat="42.83073" lon="0.92178">
        <ele>1490.2</ele>
        <time>2018-11-24T06:51:07Z</time>
      </trkpt>
      <trkpt lat="42.83066" lon="0.92176">
        <ele>1492.6</ele>
        <time>2018-11-24T06:51:10Z</time>
      </trkpt>
      <trkpt lat="42.83062" lon="0.92169">
        <ele>1496</ele>
        <time>2018-11-24T06:51:12Z</time>
      </trkpt>
      <trkpt lat="42.83058" lon="0.92161">
        <ele>1498.4</ele>
        <time>2018-11-24T06:51:15Z</time>
      </trkpt>
      <trkpt lat="42.83053" lon="0.92151">
        <ele>1500.9</ele>
        <time>2018-11-24T06:51:19Z</time>
      </trkpt>
      <trkpt lat="42.8305" lon="0.92143">
        <ele>1503.7</ele>
        <time>2018-11-24T06:51:21Z</time>
      </trkpt>
      <trkpt lat="42.83044" lon="0.92143">
        <ele>1505.6</ele>
        <time>2018-11-24T06:51:23Z</time>
      </trkpt>
      <trkpt lat="42.8304" lon="0.92137">
        <ele>1508.5</ele>
        <time>2018-11-24T06:51:26Z</time>
      </trkpt>
      <trkpt lat="42.83032" lon="0.92136">
        <ele>1511.8</ele>
        <time>2018-11-24T06:51:29Z</time>
      </trkpt>
      <trkpt lat="42.83028" lon="0.9213">
        <ele>1514.2</ele>
        <time>2018-11-24T06:51:31Z</time>
      </trkpt>
      <trkpt lat="42.83024" lon="0.92121">
        <ele>1516.7</ele>
        <time>2018-11-24T06:51:35Z</time>
      </trkpt>
      <trkpt lat="42.83019" lon="0.92112">
        <ele>1519.1</ele>
        <time>2018-11-24T06:51:38Z</time>
      </trkpt>
      <trkpt lat="42.83016" lon="0.92105">
        <ele>1521.4</ele>
        <time>2018-11-24T06:51:40Z</time>
      </trkpt>
      <trkpt lat="42.83011" lon="0.92095">
        <ele>1524.3</ele>
        <time>2018-11-24T06:51:44Z</time>
      </trkpt>
      <trkpt lat="42.83005" lon="0.92093">
        <ele>1527.2</ele>
        <time>2018-11-24T06:51:46Z</time>
      </trkpt>
      <trkpt lat="42.83" lon="0.92092">
        <ele>1529.1</ele>
        <time>2018-11-24T06:51:48Z</time>
      </trkpt>
      <trkpt lat="42.83002" lon="0.92094">
        <ele>1530.1</ele>
        <time>2018-11-24T06:51:49Z</time>
      </trkpt>
      <trkpt lat="42.83001" lon="0.92093">
        <ele>1530.7</ele>
        <time>2018-11-24T06:51:50Z</time>
      </trkpt>
      <trkpt lat="42.82994" lon="0.92093">
        <ele>1532.6</ele>
        <time>2018-11-24T06:51:52Z</time>
      </trkpt>
      <trkpt lat="42.82991" lon="0.92088">
        <ele>1535.5</ele>
        <time>2018-11-24T06:51:54Z</time>
      </trkpt>
      <trkpt lat="42.82983" lon="0.92083">
        <ele>1537.8</ele>
        <time>2018-11-24T06:51:58Z</time>
      </trkpt>
      <trkpt lat="42.82982" lon="0.92079">
        <ele>1539.8</ele>
        <time>2018-11-24T06:51:59Z</time>
      </trkpt>
      <trkpt lat="42.82973" lon="0.92078">
        <ele>1542.1</ele>
        <time>2018-11-24T06:52:02Z</time>
      </trkpt>
      <trkpt lat="42.82968" lon="0.92072">
        <ele>1544.5</ele>
        <time>2018-11-24T06:52:05Z</time>
      </trkpt>
      <trkpt lat="42.82962" lon="0.92063">
        <ele>1547.9</ele>
        <time>2018-11-24T06:52:09Z</time>
      </trkpt>
      <trkpt lat="42.82958" lon="0.92056">
        <ele>1549.3</ele>
        <time>2018-11-24T06:52:12Z</time>
      </trkpt>
      <trkpt lat="42.82953" lon="0.92048">
        <ele>1551.2</ele>
        <time>2018-11-24T06:52:15Z</time>
      </trkpt>
      <trkpt lat="42.82951" lon="0.92043">
        <ele>1553.7</ele>
        <time>2018-11-24T06:52:16Z</time>
      </trkpt>
      <trkpt lat="42.82949" lon="0.92033">
        <ele>1554.6</ele>
        <time>2018-11-24T06:52:19Z</time>
      </trkpt>
      <trkpt lat="42.82949" lon="0.92031">
        <ele>1556.1</ele>
        <time>2018-11-24T06:52:20Z</time>
      </trkpt>
      <trkpt lat="42.82948" lon="0.9203">
        <ele>1557.5</ele>
        <time>2018-11-24T06:52:20Z</time>
      </trkpt>
      <trkpt lat="42.82943" lon="0.92022">
        <ele>1558.5</ele>
        <time>2018-11-24T06:52:23Z</time>
      </trkpt>
      <trkpt lat="42.82941" lon="0.92017">
        <ele>1560.5</ele>
        <time>2018-11-24T06:52:25Z</time>
      </trkpt>
      <trkpt lat="42.82937" lon="0.9201">
        <ele>1561.9</ele>
        <time>2018-11-24T06:52:28Z</time>
      </trkpt>
      <trkpt lat="42.82933" lon="0.92">
        <ele>1564.7</ele>
        <time>2018-11-24T06:52:31Z</time>
      </trkpt>
      <trkpt lat="42.8293" lon="0.91993">
        <ele>1567.2</ele>
        <time>2018-11-24T06:52:33Z</time>
      </trkpt>
      <trkpt lat="42.82925" lon="0.91987">
        <ele>1569</ele>
        <time>2018-11-24T06:52:36Z</time>
      </trkpt>
      <trkpt lat="42.82925" lon="0.91987">
        <ele>1570</ele>
        <time>2018-11-24T06:52:36Z</time>
      </trkpt>
      <trkpt lat="42.8292" lon="0.91981">
        <ele>1571.9</ele>
        <time>2018-11-24T06:52:39Z</time>
      </trkpt>
      <trkpt lat="42.82917" lon="0.91976">
        <ele>1574.3</ele>
        <time>2018-11-24T06:52:41Z</time>
      </trkpt>
      <trkpt lat="42.82914" lon="0.91971">
        <ele>1577.7</ele>
        <time>2018-11-24T06:52:43Z</time>
      </trkpt>
      <trkpt lat="42.82907" lon="0.91971">
        <ele>1579.7</ele>
        <time>2018-11-24T06:52:45Z</time>
      </trkpt>
      <trkpt lat="42.82901" lon="0.9197">
        <ele>1583</ele>
        <time>2018-11-24T06:52:48Z</time>
      </trkpt>
      <trkpt lat="42.82895" lon="0.91977">
        <ele>1584.9</ele>
        <time>2018-11-24T06:52:51Z</time>
      </trkpt>
      <trkpt lat="42.82889" lon="0.91983">
        <ele>1586.9</ele>
        <time>2018-11-24T06:52:54Z</time>
      </trkpt>
      <trkpt lat="42.8288" lon="0.91993">
        <ele>1589.3</ele>
        <time>2018-11-24T06:52:59Z</time>
      </trkpt>
      <trkpt lat="42.82873" lon="0.92">
        <ele>1592.2</ele>
        <time>2018-11-24T06:53:02Z</time>
      </trkpt>
      <trkpt lat="42.82865" lon="0.92008">
        <ele>1595.1</ele>
        <time>2018-11-24T06:53:06Z</time>
      </trkpt>
      <trkpt lat="42.82858" lon="0.92008">
        <ele>1598.3</ele>
        <time>2018-11-24T06:53:09Z</time>
      </trkpt>
      <trkpt lat="42.82859" lon="0.91995">
        <ele>1599.8</ele>
        <time>2018-11-24T06:53:13Z</time>
      </trkpt>
      <trkpt lat="42.8286" lon="0.9198">
        <ele>1601.2</ele>
        <time>2018-11-24T06:53:17Z</time>
      </trkpt>
      <trkpt lat="42.82861" lon="0.91965">
        <ele>1604.2</ele>
        <time>2018-11-24T06:53:21Z</time>
      </trkpt>
      <trkpt lat="42.82862" lon="0.9195">
        <ele>1606.6</ele>
        <time>2018-11-24T06:53:26Z</time>
      </trkpt>
      <trkpt lat="42.82862" lon="0.91935">
        <ele>1608.9</ele>
        <time>2018-11-24T06:53:30Z</time>
      </trkpt>
      <trkpt lat="42.82863" lon="0.9193">
        <ele>1609.9</ele>
        <time>2018-11-24T06:53:32Z</time>
      </trkpt>
      <trkpt lat="42.82865" lon="0.91919">
        <ele>1611.8</ele>
        <time>2018-11-24T06:53:35Z</time>
      </trkpt>
      <trkpt lat="42.82866" lon="0.91906">
        <ele>1613.8</ele>
        <time>2018-11-24T06:53:39Z</time>
      </trkpt>
      <trkpt lat="42.82866" lon="0.91893">
        <ele>1616.1</ele>
        <time>2018-11-24T06:53:43Z</time>
      </trkpt>
      <trkpt lat="42.82867" lon="0.91888">
        <ele>1616.1</ele>
        <time>2018-11-24T06:53:44Z</time>
      </trkpt>
      <trkpt lat="42.82864" lon="0.9189">
        <ele>1617.7</ele>
        <time>2018-11-24T06:53:46Z</time>
      </trkpt>
      <trkpt lat="42.82863" lon="0.91896">
        <ele>1619.1</ele>
        <time>2018-11-24T06:53:47Z</time>
      </trkpt>
      <trkpt lat="42.82861" lon="0.91887">
        <ele>1622.8</ele>
        <time>2018-11-24T06:53:50Z</time>
      </trkpt>
      <trkpt lat="42.8286" lon="0.91879">
        <ele>1624.3</ele>
        <time>2018-11-24T06:53:52Z</time>
      </trkpt>
      <trkpt lat="42.82859" lon="0.91878">
        <ele>1625.3</ele>
        <time>2018-11-24T06:53:53Z</time>
      </trkpt>
      <trkpt lat="42.82857" lon="0.91877">
        <ele>1625.8</ele>
        <time>2018-11-24T06:53:54Z</time>
      </trkpt>
      <trkpt lat="42.82857" lon="0.91876">
        <ele>1625.7</ele>
        <time>2018-11-24T06:53:54Z</time>
      </trkpt>
      <trkpt lat="42.82858" lon="0.9187">
        <ele>1626.8</ele>
        <time>2018-11-24T06:53:56Z</time>
      </trkpt>
      <trkpt lat="42.82859" lon="0.91863">
        <ele>1628.2</ele>
        <time>2018-11-24T06:53:58Z</time>
      </trkpt>
      <trkpt lat="42.8286" lon="0.91859">
        <ele>1628.7</ele>
        <time>2018-11-24T06:53:59Z</time>
      </trkpt>
      <trkpt lat="42.82859" lon="0.91858">
        <ele>1630.1</ele>
        <time>2018-11-24T06:54:00Z</time>
      </trkpt>
      <trkpt lat="42.82856" lon="0.91851">
        <ele>1631.5</ele>
        <time>2018-11-24T06:54:02Z</time>
      </trkpt>
      <trkpt lat="42.82858" lon="0.91844">
        <ele>1632.6</ele>
        <time>2018-11-24T06:54:04Z</time>
      </trkpt>
      <trkpt lat="42.82862" lon="0.91834">
        <ele>1633</ele>
        <time>2018-11-24T06:54:07Z</time>
      </trkpt>
      <trkpt lat="42.82866" lon="0.91822">
        <ele>1634.4</ele>
        <time>2018-11-24T06:54:11Z</time>
      </trkpt>
      <trkpt lat="42.82872" lon="0.91805">
        <ele>1635.8</ele>
        <time>2018-11-24T06:54:17Z</time>
      </trkpt>
      <trkpt lat="42.82873" lon="0.91795">
        <ele>1636.3</ele>
        <time>2018-11-24T06:54:20Z</time>
      </trkpt>
      <trkpt lat="42.82873" lon="0.91794">
        <ele>1636.3</ele>
        <time>2018-11-24T06:54:20Z</time>
      </trkpt>
      <trkpt lat="42.82876" lon="0.91784">
        <ele>1637.3</ele>
        <time>2018-11-24T06:54:23Z</time>
      </trkpt>
      <trkpt lat="42.82878" lon="0.91777">
        <ele>1637.8</ele>
        <time>2018-11-24T06:54:25Z</time>
      </trkpt>
      <trkpt lat="42.82881" lon="0.91772">
        <ele>1637.8</ele>
        <time>2018-11-24T06:54:27Z</time>
      </trkpt>
      <trkpt lat="42.82881" lon="0.91763">
        <ele>1639.3</ele>
        <time>2018-11-24T06:54:30Z</time>
      </trkpt>
      <trkpt lat="42.82884" lon="0.91763">
        <ele>1639.2</ele>
        <time>2018-11-24T06:54:31Z</time>
      </trkpt>
      <trkpt lat="42.82887" lon="0.91747">
        <ele>1640.2</ele>
        <time>2018-11-24T06:54:36Z</time>
      </trkpt>
      <trkpt lat="42.82891" lon="0.91739">
        <ele>1640.1</ele>
        <time>2018-11-24T06:54:39Z</time>
      </trkpt>
      <trkpt lat="42.82894" lon="0.91728">
        <ele>1640.6</ele>
        <time>2018-11-24T06:54:42Z</time>
      </trkpt>
      <trkpt lat="42.82896" lon="0.91713">
        <ele>1642.1</ele>
        <time>2018-11-24T06:54:47Z</time>
      </trkpt>
      <trkpt lat="42.82896" lon="0.91701">
        <ele>1644.5</ele>
        <time>2018-11-24T06:54:50Z</time>
      </trkpt>
      <trkpt lat="42.82899" lon="0.91688">
        <ele>1646</ele>
        <time>2018-11-24T06:54:54Z</time>
      </trkpt>
      <trkpt lat="42.829" lon="0.91682">
        <ele>1645</ele>
        <time>2018-11-24T06:54:56Z</time>
      </trkpt>
      <trkpt lat="42.82901" lon="0.91675">
        <ele>1646.5</ele>
        <time>2018-11-24T06:54:58Z</time>
      </trkpt>
      <trkpt lat="42.82902" lon="0.91666">
        <ele>1645</ele>
        <time>2018-11-24T06:55:01Z</time>
      </trkpt>
      <trkpt lat="42.82905" lon="0.91651">
        <ele>1647.9</ele>
        <time>2018-11-24T06:55:05Z</time>
      </trkpt>
      <trkpt lat="42.8291" lon="0.91644">
        <ele>1649.3</ele>
        <time>2018-11-24T06:55:08Z</time>
      </trkpt>
      <trkpt lat="42.8291" lon="0.91638">
        <ele>1651.2</ele>
        <time>2018-11-24T06:55:10Z</time>
      </trkpt>
      <trkpt lat="42.8291" lon="0.91638">
        <ele>1652.3</ele>
        <time>2018-11-24T06:55:10Z</time>
      </trkpt>
      <trkpt lat="42.82911" lon="0.91635">
        <ele>1650.8</ele>
        <time>2018-11-24T06:55:11Z</time>
      </trkpt>
      <trkpt lat="42.82913" lon="0.91633">
        <ele>1651.7</ele>
        <time>2018-11-24T06:55:12Z</time>
      </trkpt>
      <trkpt lat="42.82916" lon="0.91631">
        <ele>1655.1</ele>
        <time>2018-11-24T06:55:13Z</time>
      </trkpt>
      <trkpt lat="42.82917" lon="0.91631">
        <ele>1655.1</ele>
        <time>2018-11-24T06:55:13Z</time>
      </trkpt>
      <trkpt lat="42.82918" lon="0.91631">
        <ele>1653.2</ele>
        <time>2018-11-24T06:55:14Z</time>
      </trkpt>
      <trkpt lat="42.82921" lon="0.9163">
        <ele>1654.6</ele>
        <time>2018-11-24T06:55:15Z</time>
      </trkpt>
      <trkpt lat="42.82922" lon="0.9163">
        <ele>1654.7</ele>
        <time>2018-11-24T06:55:15Z</time>
      </trkpt>
      <trkpt lat="42.82924" lon="0.91628">
        <ele>1652.6</ele>
        <time>2018-11-24T06:55:17Z</time>
      </trkpt>
      <trkpt lat="42.82928" lon="0.91624">
        <ele>1654.2</ele>
        <time>2018-11-24T06:55:19Z</time>
      </trkpt>
      <trkpt lat="42.82931" lon="0.9162">
        <ele>1655.6</ele>
        <time>2018-11-24T06:55:20Z</time>
      </trkpt>
      <trkpt lat="42.82932" lon="0.91619">
        <ele>1653.1</ele>
        <time>2018-11-24T06:55:21Z</time>
      </trkpt>
      <trkpt lat="42.82934" lon="0.91616">
        <ele>1654.6</ele>
        <time>2018-11-24T06:55:22Z</time>
      </trkpt>
      <trkpt lat="42.82936" lon="0.91614">
        <ele>1656.6</ele>
        <time>2018-11-24T06:55:23Z</time>
      </trkpt>
      <trkpt lat="42.82936" lon="0.91613">
        <ele>1655.2</ele>
        <time>2018-11-24T06:55:23Z</time>
      </trkpt>
      <trkpt lat="42.82936" lon="0.91613">
        <ele>1656.5</ele>
        <time>2018-11-24T06:55:23Z</time>
      </trkpt>
      <trkpt lat="42.82935" lon="0.91613">
        <ele>1654.6</ele>
        <time>2018-11-24T06:55:24Z</time>
      </trkpt>
      <trkpt lat="42.82936" lon="0.91614">
        <ele>1655.2</ele>
        <time>2018-11-24T06:55:25Z</time>
      </trkpt>
      <trkpt lat="42.82935" lon="0.91614">
        <ele>1655.6</ele>
        <time>2018-11-24T06:55:25Z</time>
      </trkpt>
      <trkpt lat="42.82937" lon="0.91612">
        <ele>1656.6</ele>
        <time>2018-11-24T06:55:26Z</time>
      </trkpt>
      <trkpt lat="42.82942" lon="0.91601">
        <ele>1657</ele>
        <time>2018-11-24T06:55:30Z</time>
      </trkpt>
      <trkpt lat="42.82945" lon="0.91579">
        <ele>1659</ele>
        <time>2018-11-24T06:55:36Z</time>
      </trkpt>
      <trkpt lat="42.8295" lon="0.91559">
        <ele>1661.3</ele>
        <time>2018-11-24T06:55:43Z</time>
      </trkpt>
      <trkpt lat="42.82957" lon="0.91543">
        <ele>1663.8</ele>
        <time>2018-11-24T06:55:48Z</time>
      </trkpt>
      <trkpt lat="42.82962" lon="0.91525">
        <ele>1666.2</ele>
        <time>2018-11-24T06:55:54Z</time>
      </trkpt>
      <trkpt lat="42.8297" lon="0.91512">
        <ele>1669</ele>
        <time>2018-11-24T06:55:59Z</time>
      </trkpt>
      <trkpt lat="42.82974" lon="0.91502">
        <ele>1670.5</ele>
        <time>2018-11-24T06:56:02Z</time>
      </trkpt>
      <trkpt lat="42.82973" lon="0.91497">
        <ele>1672.3</ele>
        <time>2018-11-24T06:56:04Z</time>
      </trkpt>
      <trkpt lat="42.82971" lon="0.91494">
        <ele>1669.9</ele>
        <time>2018-11-24T06:56:05Z</time>
      </trkpt>
      <trkpt lat="42.82971" lon="0.91482">
        <ele>1673.3</ele>
        <time>2018-11-24T06:56:08Z</time>
      </trkpt>
      <trkpt lat="42.8297" lon="0.9147">
        <ele>1675.8</ele>
        <time>2018-11-24T06:56:12Z</time>
      </trkpt>
      <trkpt lat="42.82968" lon="0.9146">
        <ele>1678.7</ele>
        <time>2018-11-24T06:56:15Z</time>
      </trkpt>
      <trkpt lat="42.82967" lon="0.9145">
        <ele>1681.1</ele>
        <time>2018-11-24T06:56:18Z</time>
      </trkpt>
      <trkpt lat="42.82965" lon="0.91444">
        <ele>1682.4</ele>
        <time>2018-11-24T06:56:20Z</time>
      </trkpt>
      <trkpt lat="42.82963" lon="0.91431">
        <ele>1685.4</ele>
        <time>2018-11-24T06:56:24Z</time>
      </trkpt>
      <trkpt lat="42.82958" lon="0.91417">
        <ele>1687.3</ele>
        <time>2018-11-24T06:56:28Z</time>
      </trkpt>
      <trkpt lat="42.82958" lon="0.91413">
        <ele>1691.1</ele>
        <time>2018-11-24T06:56:29Z</time>
      </trkpt>
      <trkpt lat="42.82957" lon="0.91412">
        <ele>1692.2</ele>
        <time>2018-11-24T06:56:30Z</time>
      </trkpt>
      <trkpt lat="42.82956" lon="0.91414">
        <ele>1691.1</ele>
        <time>2018-11-24T06:56:31Z</time>
      </trkpt>
      <trkpt lat="42.82952" lon="0.9141">
        <ele>1692.1</ele>
        <time>2018-11-24T06:56:33Z</time>
      </trkpt>
      <trkpt lat="42.82948" lon="0.91404">
        <ele>1693</ele>
        <time>2018-11-24T06:56:35Z</time>
      </trkpt>
      <trkpt lat="42.82938" lon="0.91399">
        <ele>1695.5</ele>
        <time>2018-11-24T06:56:39Z</time>
      </trkpt>
      <trkpt lat="42.82931" lon="0.91397">
        <ele>1697.3</ele>
        <time>2018-11-24T06:56:42Z</time>
      </trkpt>
      <trkpt lat="42.82927" lon="0.91396">
        <ele>1699.9</ele>
        <time>2018-11-24T06:56:44Z</time>
      </trkpt>
      <trkpt lat="42.8292" lon="0.91391">
        <ele>1703.1</ele>
        <time>2018-11-24T06:56:47Z</time>
      </trkpt>
      <trkpt lat="42.82913" lon="0.91387">
        <ele>1706.1</ele>
        <time>2018-11-24T06:56:50Z</time>
      </trkpt>
      <trkpt lat="42.82914" lon="0.91382">
        <ele>1707.1</ele>
        <time>2018-11-24T06:56:51Z</time>
      </trkpt>
      <trkpt lat="42.82916" lon="0.91379">
        <ele>1708.9</ele>
        <time>2018-11-24T06:56:53Z</time>
      </trkpt>
      <trkpt lat="42.82913" lon="0.91379">
        <ele>1709.9</ele>
        <time>2018-11-24T06:56:54Z</time>
      </trkpt>
      <trkpt lat="42.82913" lon="0.9138">
        <ele>1709.8</ele>
        <time>2018-11-24T06:56:54Z</time>
      </trkpt>
      <trkpt lat="42.82913" lon="0.9138">
        <ele>1710.3</ele>
        <time>2018-11-24T06:56:54Z</time>
      </trkpt>
      <trkpt lat="42.82914" lon="0.91373">
        <ele>1711.8</ele>
        <time>2018-11-24T06:56:57Z</time>
      </trkpt>
      <trkpt lat="42.82911" lon="0.91371">
        <ele>1715.1</ele>
        <time>2018-11-24T06:56:58Z</time>
      </trkpt>
      <trkpt lat="42.82914" lon="0.91373">
        <ele>1713.8</ele>
        <time>2018-11-24T06:56:59Z</time>
      </trkpt>
      <trkpt lat="42.82912" lon="0.91369">
        <ele>1715.1</ele>
        <time>2018-11-24T06:57:01Z</time>
      </trkpt>
      <trkpt lat="42.82915" lon="0.91364">
        <ele>1718.6</ele>
        <time>2018-11-24T06:57:03Z</time>
      </trkpt>
      <trkpt lat="42.82919" lon="0.91362">
        <ele>1720.5</ele>
        <time>2018-11-24T06:57:04Z</time>
      </trkpt>
      <trkpt lat="42.82922" lon="0.91357">
        <ele>1722.8</ele>
        <time>2018-11-24T06:57:06Z</time>
      </trkpt>
      <trkpt lat="42.82919" lon="0.91352">
        <ele>1725.3</ele>
        <time>2018-11-24T06:57:08Z</time>
      </trkpt>
      <trkpt lat="42.82922" lon="0.9135">
        <ele>1727.6</ele>
        <time>2018-11-24T06:57:09Z</time>
      </trkpt>
      <trkpt lat="42.82924" lon="0.91345">
        <ele>1727.7</ele>
        <time>2018-11-24T06:57:11Z</time>
      </trkpt>
      <trkpt lat="42.82926" lon="0.91343">
        <ele>1729.1</ele>
        <time>2018-11-24T06:57:12Z</time>
      </trkpt>
      <trkpt lat="42.82927" lon="0.91338">
        <ele>1732.5</ele>
        <time>2018-11-24T06:57:13Z</time>
      </trkpt>
      <trkpt lat="42.8293" lon="0.91332">
        <ele>1735.8</ele>
        <time>2018-11-24T06:57:16Z</time>
      </trkpt>
      <trkpt lat="42.82933" lon="0.91328">
        <ele>1738.2</ele>
        <time>2018-11-24T06:57:17Z</time>
      </trkpt>
      <trkpt lat="42.82931" lon="0.91326">
        <ele>1740.7</ele>
        <time>2018-11-24T06:57:19Z</time>
      </trkpt>
      <trkpt lat="42.82931" lon="0.91329">
        <ele>1741.2</ele>
        <time>2018-11-24T06:57:20Z</time>
      </trkpt>
      <trkpt lat="42.82929" lon="0.91324">
        <ele>1740.1</ele>
        <time>2018-11-24T06:57:21Z</time>
      </trkpt>
      <trkpt lat="42.8293" lon="0.91321">
        <ele>1742.2</ele>
        <time>2018-11-24T06:57:22Z</time>
      </trkpt>
      <trkpt lat="42.82929" lon="0.91319">
        <ele>1744.5</ele>
        <time>2018-11-24T06:57:23Z</time>
      </trkpt>
      <trkpt lat="42.82929" lon="0.91318">
        <ele>1744.9</ele>
        <time>2018-11-24T06:57:24Z</time>
      </trkpt>
      <trkpt lat="42.8293" lon="0.91318">
        <ele>1745.4</ele>
        <time>2018-11-24T06:57:24Z</time>
      </trkpt>
      <trkpt lat="42.82927" lon="0.91314">
        <ele>1746.8</ele>
        <time>2018-11-24T06:57:26Z</time>
      </trkpt>
      <trkpt lat="42.82924" lon="0.91309">
        <ele>1749.4</ele>
        <time>2018-11-24T06:57:28Z</time>
      </trkpt>
      <trkpt lat="42.82921" lon="0.91305">
        <ele>1751.3</ele>
        <time>2018-11-24T06:57:29Z</time>
      </trkpt>
      <trkpt lat="42.82919" lon="0.91303">
        <ele>1751.7</ele>
        <time>2018-11-24T06:57:30Z</time>
      </trkpt>
      <trkpt lat="42.82917" lon="0.913">
        <ele>1752.1</ele>
        <time>2018-11-24T06:57:32Z</time>
      </trkpt>
      <trkpt lat="42.82914" lon="0.91295">
        <ele>1754.1</ele>
        <time>2018-11-24T06:57:34Z</time>
      </trkpt>
      <trkpt lat="42.82917" lon="0.91295">
        <ele>1754.1</ele>
        <time>2018-11-24T06:57:35Z</time>
      </trkpt>
      <trkpt lat="42.82915" lon="0.91293">
        <ele>1754.5</ele>
        <time>2018-11-24T06:57:36Z</time>
      </trkpt>
      <trkpt lat="42.82914" lon="0.91283">
        <ele>1755</ele>
        <time>2018-11-24T06:57:39Z</time>
      </trkpt>
      <trkpt lat="42.82912" lon="0.91279">
        <ele>1756</ele>
        <time>2018-11-24T06:57:40Z</time>
      </trkpt>
      <trkpt lat="42.82911" lon="0.91267">
        <ele>1757.5</ele>
        <time>2018-11-24T06:57:44Z</time>
      </trkpt>
      <trkpt lat="42.82911" lon="0.91262">
        <ele>1757.9</ele>
        <time>2018-11-24T06:57:45Z</time>
      </trkpt>
      <trkpt lat="42.82911" lon="0.91253">
        <ele>1758.4</ele>
        <time>2018-11-24T06:57:48Z</time>
      </trkpt>
      <trkpt lat="42.82917" lon="0.91242">
        <ele>1759.9</ele>
        <time>2018-11-24T06:57:52Z</time>
      </trkpt>
      <trkpt lat="42.8292" lon="0.91246">
        <ele>1761.9</ele>
        <time>2018-11-24T06:57:54Z</time>
      </trkpt>
      <trkpt lat="42.82925" lon="0.91255">
        <ele>1763.2</ele>
        <time>2018-11-24T06:57:57Z</time>
      </trkpt>
      <trkpt lat="42.82926" lon="0.91257">
        <ele>1763.7</ele>
        <time>2018-11-24T06:57:58Z</time>
      </trkpt>
      <trkpt lat="42.82929" lon="0.91263">
        <ele>1766.2</ele>
        <time>2018-11-24T06:58:00Z</time>
      </trkpt>
      <trkpt lat="42.8294" lon="0.91268">
        <ele>1769.4</ele>
        <time>2018-11-24T06:58:04Z</time>
      </trkpt>
      <trkpt lat="42.82946" lon="0.91263">
        <ele>1771.5</ele>
        <time>2018-11-24T06:58:07Z</time>
      </trkpt>
      <trkpt lat="42.82943" lon="0.91256">
        <ele>1774.8</ele>
        <time>2018-11-24T06:58:09Z</time>
      </trkpt>
      <trkpt lat="42.82943" lon="0.91257">
        <ele>1774.7</ele>
        <time>2018-11-24T06:58:10Z</time>
      </trkpt>
      <trkpt lat="42.82944" lon="0.91257">
        <ele>1775.3</ele>
        <time>2018-11-24T06:58:10Z</time>
      </trkpt>
      <trkpt lat="42.82947" lon="0.91254">
        <ele>1777.1</ele>
        <time>2018-11-24T06:58:11Z</time>
      </trkpt>
      <trkpt lat="42.82951" lon="0.9125">
        <ele>1779.6</ele>
        <time>2018-11-24T06:58:13Z</time>
      </trkpt>
      <trkpt lat="42.82948" lon="0.9125">
        <ele>1779.5</ele>
        <time>2018-11-24T06:58:15Z</time>
      </trkpt>
      <trkpt lat="42.82951" lon="0.91247">
        <ele>1779.5</ele>
        <time>2018-11-24T06:58:16Z</time>
      </trkpt>
      <trkpt lat="42.82955" lon="0.9124">
        <ele>1782.4</ele>
        <time>2018-11-24T06:58:19Z</time>
      </trkpt>
      <trkpt lat="42.82957" lon="0.91234">
        <ele>1785.3</ele>
        <time>2018-11-24T06:58:21Z</time>
      </trkpt>
      <trkpt lat="42.82964" lon="0.91223">
        <ele>1788.3</ele>
        <time>2018-11-24T06:58:25Z</time>
      </trkpt>
      <trkpt lat="42.82966" lon="0.91217">
        <ele>1791.1</ele>
        <time>2018-11-24T06:58:27Z</time>
      </trkpt>
      <trkpt lat="42.82966" lon="0.91211">
        <ele>1793.6</ele>
        <time>2018-11-24T06:58:29Z</time>
      </trkpt>
      <trkpt lat="42.8297" lon="0.91206">
        <ele>1795.5</ele>
        <time>2018-11-24T06:58:31Z</time>
      </trkpt>
      <trkpt lat="42.82975" lon="0.912">
        <ele>1798.8</ele>
        <time>2018-11-24T06:58:34Z</time>
      </trkpt>
      <trkpt lat="42.82976" lon="0.91191">
        <ele>1802.2</ele>
        <time>2018-11-24T06:58:36Z</time>
      </trkpt>
      <trkpt lat="42.82971" lon="0.91192">
        <ele>1803.7</ele>
        <time>2018-11-24T06:58:38Z</time>
      </trkpt>
      <trkpt lat="42.82972" lon="0.91192">
        <ele>1803.6</ele>
        <time>2018-11-24T06:58:39Z</time>
      </trkpt>
      <trkpt lat="42.82972" lon="0.91192">
        <ele>1803.6</ele>
        <time>2018-11-24T06:58:39Z</time>
      </trkpt>
      <trkpt lat="42.82972" lon="0.9119">
        <ele>1804.2</ele>
        <time>2018-11-24T06:58:39Z</time>
      </trkpt>
      <trkpt lat="42.82971" lon="0.91191">
        <ele>1804.1</ele>
        <time>2018-11-24T06:58:40Z</time>
      </trkpt>
      <trkpt lat="42.82967" lon="0.91187">
        <ele>1805.5</ele>
        <time>2018-11-24T06:58:42Z</time>
      </trkpt>
      <trkpt lat="42.82966" lon="0.91181">
        <ele>1808.4</ele>
        <time>2018-11-24T06:58:43Z</time>
      </trkpt>
      <trkpt lat="42.82967" lon="0.91175">
        <ele>1810.9</ele>
        <time>2018-11-24T06:58:45Z</time>
      </trkpt>
      <trkpt lat="42.82971" lon="0.91169">
        <ele>1813.8</ele>
        <time>2018-11-24T06:58:48Z</time>
      </trkpt>
      <trkpt lat="42.82973" lon="0.91166">
        <ele>1814.2</ele>
        <time>2018-11-24T06:58:49Z</time>
      </trkpt>
      <trkpt lat="42.82971" lon="0.91165">
        <ele>1814.7</ele>
        <time>2018-11-24T06:58:50Z</time>
      </trkpt>
      <trkpt lat="42.82971" lon="0.91164">
        <ele>1815.2</ele>
        <time>2018-11-24T06:58:50Z</time>
      </trkpt>
      <trkpt lat="42.82977" lon="0.91156">
        <ele>1815.6</ele>
        <time>2018-11-24T06:58:54Z</time>
      </trkpt>
      <trkpt lat="42.8298" lon="0.91148">
        <ele>1818.5</ele>
        <time>2018-11-24T06:58:57Z</time>
      </trkpt>
      <trkpt lat="42.82982" lon="0.9114">
        <ele>1820.4</ele>
        <time>2018-11-24T06:58:59Z</time>
      </trkpt>
      <trkpt lat="42.82985" lon="0.91131">
        <ele>1823.9</ele>
        <time>2018-11-24T06:59:02Z</time>
      </trkpt>
      <trkpt lat="42.82987" lon="0.91119">
        <ele>1826.6</ele>
        <time>2018-11-24T06:59:06Z</time>
      </trkpt>
      <trkpt lat="42.8299" lon="0.91108">
        <ele>1830</ele>
        <time>2018-11-24T06:59:09Z</time>
      </trkpt>
      <trkpt lat="42.82995" lon="0.91096">
        <ele>1833</ele>
        <time>2018-11-24T06:59:13Z</time>
      </trkpt>
      <trkpt lat="42.82999" lon="0.91087">
        <ele>1836.4</ele>
        <time>2018-11-24T06:59:16Z</time>
      </trkpt>
      <trkpt lat="42.83005" lon="0.91074">
        <ele>1839.2</ele>
        <time>2018-11-24T06:59:21Z</time>
      </trkpt>
      <trkpt lat="42.83008" lon="0.91068">
        <ele>1840.2</ele>
        <time>2018-11-24T06:59:23Z</time>
      </trkpt>
      <trkpt lat="42.83008" lon="0.91066">
        <ele>1839.7</ele>
        <time>2018-11-24T06:59:24Z</time>
      </trkpt>
      <trkpt lat="42.83008" lon="0.91065">
        <ele>1839.6</ele>
        <time>2018-11-24T06:59:24Z</time>
      </trkpt>
      <trkpt lat="42.83017" lon="0.91057">
        <ele>1838.8</ele>
        <time>2018-11-24T06:59:28Z</time>
      </trkpt>
      <trkpt lat="42.83016" lon="0.91054">
        <ele>1840.2</ele>
        <time>2018-11-24T06:59:29Z</time>
      </trkpt>
      <trkpt lat="42.83016" lon="0.91036">
        <ele>1843.6</ele>
        <time>2018-11-24T06:59:34Z</time>
      </trkpt>
      <trkpt lat="42.83015" lon="0.91019">
        <ele>1845.5</ele>
        <time>2018-11-24T06:59:39Z</time>
      </trkpt>
      <trkpt lat="42.83015" lon="0.9101">
        <ele>1846.8</ele>
        <time>2018-11-24T06:59:42Z</time>
      </trkpt>
      <trkpt lat="42.83014" lon="0.91001">
        <ele>1847.3</ele>
        <time>2018-11-24T06:59:45Z</time>
      </trkpt>
      <trkpt lat="42.83012" lon="0.90987">
        <ele>1847.3</ele>
        <time>2018-11-24T06:59:49Z</time>
      </trkpt>
      <trkpt lat="42.83007" lon="0.90975">
        <ele>1847.8</ele>
        <time>2018-11-24T06:59:53Z</time>
      </trkpt>
      <trkpt lat="42.83007" lon="0.90977">
        <ele>1847.8</ele>
        <time>2018-11-24T06:59:54Z</time>
      </trkpt>
      <trkpt lat="42.83006" lon="0.90979">
        <ele>1846.8</ele>
        <time>2018-11-24T06:59:54Z</time>
      </trkpt>
      <trkpt lat="42.83007" lon="0.90977">
        <ele>1847.3</ele>
        <time>2018-11-24T06:59:55Z</time>
      </trkpt>
      <trkpt lat="42.83008" lon="0.90975">
        <ele>1846.3</ele>
        <time>2018-11-24T06:59:56Z</time>
      </trkpt>
      <trkpt lat="42.83008" lon="0.90977">
        <ele>1846.8</ele>
        <time>2018-11-24T06:59:56Z</time>
      </trkpt>
      <trkpt lat="42.83008" lon="0.90975">
        <ele>1847.4</ele>
        <time>2018-11-24T06:59:57Z</time>
      </trkpt>
      <trkpt lat="42.83008" lon="0.90977">
        <ele>1847.4</ele>
        <time>2018-11-24T06:59:57Z</time>
      </trkpt>
      <trkpt lat="42.83008" lon="0.90975">
        <ele>1847.8</ele>
        <time>2018-11-24T06:59:58Z</time>
      </trkpt>
      <trkpt lat="42.83007" lon="0.90976">
        <ele>1849.2</ele>
        <time>2018-11-24T06:59:58Z</time>
      </trkpt>
      <trkpt lat="42.83006" lon="0.90978">
        <ele>1849.2</ele>
        <time>2018-11-24T06:59:59Z</time>
      </trkpt>
      <trkpt lat="42.83005" lon="0.9097">
        <ele>1849.7</ele>
        <time>2018-11-24T07:00:01Z</time>
      </trkpt>
      <trkpt lat="42.83003" lon="0.90954">
        <ele>1850.2</ele>
        <time>2018-11-24T07:00:06Z</time>
      </trkpt>
      <trkpt lat="42.82998" lon="0.90927">
        <ele>1850.2</ele>
        <time>2018-11-24T07:00:14Z</time>
      </trkpt>
      <trkpt lat="42.82997" lon="0.90919">
        <ele>1850.3</ele>
        <time>2018-11-24T07:00:17Z</time>
      </trkpt>
      <trkpt lat="42.82993" lon="0.90912">
        <ele>1850.3</ele>
        <time>2018-11-24T07:00:19Z</time>
      </trkpt>
      <trkpt lat="42.8299" lon="0.90885">
        <ele>1850.2</ele>
        <time>2018-11-24T07:00:27Z</time>
      </trkpt>
      <trkpt lat="42.82989" lon="0.90863">
        <ele>1850.3</ele>
        <time>2018-11-24T07:00:34Z</time>
      </trkpt>
      <trkpt lat="42.8299" lon="0.9084">
        <ele>1850.2</ele>
        <time>2018-11-24T07:00:40Z</time>
      </trkpt>
      <trkpt lat="42.82991" lon="0.90828">
        <ele>1850.3</ele>
        <time>2018-11-24T07:00:44Z</time>
      </trkpt>
      <trkpt lat="42.82994" lon="0.90803">
        <ele>1850.7</ele>
        <time>2018-11-24T07:00:51Z</time>
      </trkpt>
      <trkpt lat="42.82995" lon="0.90793">
        <ele>1850.7</ele>
        <time>2018-11-24T07:00:54Z</time>
      </trkpt>
      <trkpt lat="42.82996" lon="0.90782">
        <ele>1850.7</ele>
        <time>2018-11-24T07:00:57Z</time>
      </trkpt>
      <trkpt lat="42.82995" lon="0.90769">
        <ele>1850.7</ele>
        <time>2018-11-24T07:01:01Z</time>
      </trkpt>
      <trkpt lat="42.82992" lon="0.90756">
        <ele>1850.7</ele>
        <time>2018-11-24T07:01:05Z</time>
      </trkpt>
      <trkpt lat="42.82991" lon="0.90754">
        <ele>1850.8</ele>
        <time>2018-11-24T07:01:06Z</time>
      </trkpt>
      <trkpt lat="42.8299" lon="0.90749">
        <ele>1850.8</ele>
        <time>2018-11-24T07:01:08Z</time>
      </trkpt>
      <trkpt lat="42.82986" lon="0.90737">
        <ele>1850.7</ele>
        <time>2018-11-24T07:01:12Z</time>
      </trkpt>
      <trkpt lat="42.82984" lon="0.90715">
        <ele>1850.8</ele>
        <time>2018-11-24T07:01:18Z</time>
      </trkpt>
      <trkpt lat="42.82983" lon="0.9071">
        <ele>1850.8</ele>
        <time>2018-11-24T07:01:20Z</time>
      </trkpt>
      <trkpt lat="42.82971" lon="0.90697">
        <ele>1850.7</ele>
        <time>2018-11-24T07:01:26Z</time>
      </trkpt>
      <trkpt lat="42.82955" lon="0.90677">
        <ele>1851.2</ele>
        <time>2018-11-24T07:01:34Z</time>
      </trkpt>
      <trkpt lat="42.8295" lon="0.90664">
        <ele>1851.2</ele>
        <time>2018-11-24T07:01:39Z</time>
      </trkpt>
      <trkpt lat="42.8295" lon="0.90659">
        <ele>1851.2</ele>
        <time>2018-11-24T07:01:40Z</time>
      </trkpt>
      <trkpt lat="42.8295" lon="0.90655">
        <ele>1851.2</ele>
        <time>2018-11-24T07:01:41Z</time>
      </trkpt>
      <trkpt lat="42.82951" lon="0.90651">
        <ele>1851.2</ele>
        <time>2018-11-24T07:01:43Z</time>
      </trkpt>
      <trkpt lat="42.82954" lon="0.90623">
        <ele>1851.3</ele>
        <time>2018-11-24T07:01:51Z</time>
      </trkpt>
      <trkpt lat="42.82953" lon="0.90616">
        <ele>1851.3</ele>
        <time>2018-11-24T07:01:53Z</time>
      </trkpt>
      <trkpt lat="42.82951" lon="0.90596">
        <ele>1851.3</ele>
        <time>2018-11-24T07:01:59Z</time>
      </trkpt>
      <trkpt lat="42.82952" lon="0.90595">
        <ele>1851.3</ele>
        <time>2018-11-24T07:01:59Z</time>
      </trkpt>
      <trkpt lat="42.82952" lon="0.90589">
        <ele>1851.2</ele>
        <time>2018-11-24T07:02:01Z</time>
      </trkpt>
      <trkpt lat="42.8295" lon="0.90581">
        <ele>1851.6</ele>
        <time>2018-11-24T07:02:03Z</time>
      </trkpt>
      <trkpt lat="42.82946" lon="0.90561">
        <ele>1851.7</ele>
        <time>2018-11-24T07:02:10Z</time>
      </trkpt>
      <trkpt lat="42.82946" lon="0.90559">
        <ele>1851.6</ele>
        <time>2018-11-24T07:02:10Z</time>
      </trkpt>
      <trkpt lat="42.8294" lon="0.90545">
        <ele>1851.6</ele>
        <time>2018-11-24T07:02:15Z</time>
      </trkpt>
      <trkpt lat="42.82938" lon="0.90532">
        <ele>1851.6</ele>
        <time>2018-11-24T07:02:19Z</time>
      </trkpt>
      <trkpt lat="42.82936" lon="0.90526">
        <ele>1851.6</ele>
        <time>2018-11-24T07:02:20Z</time>
      </trkpt>
      <trkpt lat="42.8293" lon="0.90513">
        <ele>1851.6</ele>
        <time>2018-11-24T07:02:25Z</time>
      </trkpt>
      <trkpt lat="42.82924" lon="0.90493">
        <ele>1851.7</ele>
        <time>2018-11-24T07:02:31Z</time>
      </trkpt>
      <trkpt lat="42.82922" lon="0.90476">
        <ele>1851.7</ele>
        <time>2018-11-24T07:02:36Z</time>
      </trkpt>
      <trkpt lat="42.82913" lon="0.90466">
        <ele>1850.8</ele>
        <time>2018-11-24T07:02:41Z</time>
      </trkpt>
      <trkpt lat="42.82909" lon="0.90464">
        <ele>1851.6</ele>
        <time>2018-11-24T07:02:43Z</time>
      </trkpt>
      <trkpt lat="42.82902" lon="0.90456">
        <ele>1852.2</ele>
        <time>2018-11-24T07:02:47Z</time>
      </trkpt>
      <trkpt lat="42.82893" lon="0.90449">
        <ele>1852.7</ele>
        <time>2018-11-24T07:02:51Z</time>
      </trkpt>
      <trkpt lat="42.82888" lon="0.90447">
        <ele>1852.7</ele>
        <time>2018-11-24T07:02:53Z</time>
      </trkpt>
      <trkpt lat="42.82866" lon="0.90438">
        <ele>1852.7</ele>
        <time>2018-11-24T07:03:02Z</time>
      </trkpt>
      <trkpt lat="42.82861" lon="0.90432">
        <ele>1852.6</ele>
        <time>2018-11-24T07:03:05Z</time>
      </trkpt>
      <trkpt lat="42.82857" lon="0.90427">
        <ele>1852.6</ele>
        <time>2018-11-24T07:03:07Z</time>
      </trkpt>
      <trkpt lat="42.82842" lon="0.90409">
        <ele>1852.6</ele>
        <time>2018-11-24T07:03:15Z</time>
      </trkpt>
      <trkpt lat="42.82839" lon="0.90405">
        <ele>1852.6</ele>
        <time>2018-11-24T07:03:17Z</time>
      </trkpt>
      <trkpt lat="42.8283" lon="0.90386">
        <ele>1854</ele>
        <time>2018-11-24T07:03:23Z</time>
      </trkpt>
      <trkpt lat="42.82829" lon="0.90375">
        <ele>1855.6</ele>
        <time>2018-11-24T07:03:26Z</time>
      </trkpt>
      <trkpt lat="42.8282" lon="0.90369">
        <ele>1854</ele>
        <time>2018-11-24T07:03:31Z</time>
      </trkpt>
      <trkpt lat="42.8281" lon="0.90355">
        <ele>1852.6</ele>
        <time>2018-11-24T07:03:36Z</time>
      </trkpt>
      <trkpt lat="42.82806" lon="0.90354">
        <ele>1853.1</ele>
        <time>2018-11-24T07:03:38Z</time>
      </trkpt>
      <trkpt lat="42.82794" lon="0.90347">
        <ele>1853.1</ele>
        <time>2018-11-24T07:03:43Z</time>
      </trkpt>
      <trkpt lat="42.82785" lon="0.90343">
        <ele>1853.1</ele>
        <time>2018-11-24T07:03:47Z</time>
      </trkpt>
      <trkpt lat="42.82783" lon="0.90344">
        <ele>1853.2</ele>
        <time>2018-11-24T07:03:48Z</time>
      </trkpt>
      <trkpt lat="42.8278" lon="0.90347">
        <ele>1853.1</ele>
        <time>2018-11-24T07:03:49Z</time>
      </trkpt>
      <trkpt lat="42.8278" lon="0.90347">
        <ele>1853.1</ele>
        <time>2018-11-24T07:03:49Z</time>
      </trkpt>
      <trkpt lat="42.82783" lon="0.90346">
        <ele>1853.1</ele>
        <time>2018-11-24T07:03:51Z</time>
      </trkpt>
      <trkpt lat="42.82783" lon="0.90356">
        <ele>1853.1</ele>
        <time>2018-11-24T07:03:54Z</time>
      </trkpt>
      <trkpt lat="42.82768" lon="0.9038">
        <ele>1852.1</ele>
        <time>2018-11-24T07:04:03Z</time>
      </trkpt>
      <trkpt lat="42.82764" lon="0.90385">
        <ele>1852.2</ele>
        <time>2018-11-24T07:04:05Z</time>
      </trkpt>
      <trkpt lat="42.82755" lon="0.90385">
        <ele>1852.1</ele>
        <time>2018-11-24T07:04:09Z</time>
      </trkpt>
      <trkpt lat="42.82734" lon="0.90375">
        <ele>1852.1</ele>
        <time>2018-11-24T07:04:18Z</time>
      </trkpt>
      <trkpt lat="42.82715" lon="0.90371">
        <ele>1854</ele>
        <time>2018-11-24T07:04:25Z</time>
      </trkpt>
      <trkpt lat="42.82703" lon="0.90368">
        <ele>1855.5</ele>
        <time>2018-11-24T07:04:31Z</time>
      </trkpt>
      <trkpt lat="42.82693" lon="0.90359">
        <ele>1855.6</ele>
        <time>2018-11-24T07:04:35Z</time>
      </trkpt>
      <trkpt lat="42.82688" lon="0.9035">
        <ele>1855.6</ele>
        <time>2018-11-24T07:04:39Z</time>
      </trkpt>
      <trkpt lat="42.82681" lon="0.90342">
        <ele>1855.6</ele>
        <time>2018-11-24T07:04:42Z</time>
      </trkpt>
      <trkpt lat="42.82674" lon="0.90328">
        <ele>1856</ele>
        <time>2018-11-24T07:04:47Z</time>
      </trkpt>
      <trkpt lat="42.82673" lon="0.90317">
        <ele>1858.4</ele>
        <time>2018-11-24T07:04:50Z</time>
      </trkpt>
      <trkpt lat="42.82672" lon="0.90315">
        <ele>1859.3</ele>
        <time>2018-11-24T07:04:51Z</time>
      </trkpt>
      <trkpt lat="42.82668" lon="0.90307">
        <ele>1861.3</ele>
        <time>2018-11-24T07:04:54Z</time>
      </trkpt>
      <trkpt lat="42.82664" lon="0.903">
        <ele>1861.8</ele>
        <time>2018-11-24T07:04:56Z</time>
      </trkpt>
      <trkpt lat="42.82663" lon="0.90294">
        <ele>1863.3</ele>
        <time>2018-11-24T07:04:58Z</time>
      </trkpt>
      <trkpt lat="42.8266" lon="0.90284">
        <ele>1863.2</ele>
        <time>2018-11-24T07:05:01Z</time>
      </trkpt>
      <trkpt lat="42.82662" lon="0.90278">
        <ele>1864.2</ele>
        <time>2018-11-24T07:05:03Z</time>
      </trkpt>
      <trkpt lat="42.82666" lon="0.90268">
        <ele>1866.1</ele>
        <time>2018-11-24T07:05:07Z</time>
      </trkpt>
      <trkpt lat="42.82667" lon="0.90256">
        <ele>1867.5</ele>
        <time>2018-11-24T07:05:10Z</time>
      </trkpt>
      <trkpt lat="42.82668" lon="0.90252">
        <ele>1868.1</ele>
        <time>2018-11-24T07:05:12Z</time>
      </trkpt>
      <trkpt lat="42.82668" lon="0.90245">
        <ele>1868</ele>
        <time>2018-11-24T07:05:14Z</time>
      </trkpt>
      <trkpt lat="42.8267" lon="0.90234">
        <ele>1869.4</ele>
        <time>2018-11-24T07:05:17Z</time>
      </trkpt>
      <trkpt lat="42.82669" lon="0.90221">
        <ele>1870.9</ele>
        <time>2018-11-24T07:05:21Z</time>
      </trkpt>
      <trkpt lat="42.82669" lon="0.90225">
        <ele>1871</ele>
        <time>2018-11-24T07:05:22Z</time>
      </trkpt>
      <trkpt lat="42.8267" lon="0.90213">
        <ele>1870.9</ele>
        <time>2018-11-24T07:05:25Z</time>
      </trkpt>
      <trkpt lat="42.8267" lon="0.90205">
        <ele>1870.9</ele>
        <time>2018-11-24T07:05:28Z</time>
      </trkpt>
      <trkpt lat="42.82672" lon="0.90186">
        <ele>1869.9</ele>
        <time>2018-11-24T07:05:33Z</time>
      </trkpt>
      <trkpt lat="42.82672" lon="0.90184">
        <ele>1870.9</ele>
        <time>2018-11-24T07:05:34Z</time>
      </trkpt>
      <trkpt lat="42.82671" lon="0.9017">
        <ele>1873.4</ele>
        <time>2018-11-24T07:05:38Z</time>
      </trkpt>
      <trkpt lat="42.8267" lon="0.90159">
        <ele>1874.2</ele>
        <time>2018-11-24T07:05:41Z</time>
      </trkpt>
      <trkpt lat="42.82669" lon="0.90151">
        <ele>1874.8</ele>
        <time>2018-11-24T07:05:44Z</time>
      </trkpt>
      <trkpt lat="42.82671" lon="0.90133">
        <ele>1876.7</ele>
        <time>2018-11-24T07:05:49Z</time>
      </trkpt>
      <trkpt lat="42.82673" lon="0.90118">
        <ele>1878.5</ele>
        <time>2018-11-24T07:05:54Z</time>
      </trkpt>
      <trkpt lat="42.82674" lon="0.90112">
        <ele>1879</ele>
        <time>2018-11-24T07:05:56Z</time>
      </trkpt>
      <trkpt lat="42.82674" lon="0.90107">
        <ele>1879.5</ele>
        <time>2018-11-24T07:05:57Z</time>
      </trkpt>
      <trkpt lat="42.82675" lon="0.90103">
        <ele>1880</ele>
        <time>2018-11-24T07:05:58Z</time>
      </trkpt>
      <trkpt lat="42.82676" lon="0.9009">
        <ele>1881</ele>
        <time>2018-11-24T07:06:02Z</time>
      </trkpt>
      <trkpt lat="42.82674" lon="0.90083">
        <ele>1881.5</ele>
        <time>2018-11-24T07:06:04Z</time>
      </trkpt>
      <trkpt lat="42.82673" lon="0.9008">
        <ele>1881.5</ele>
        <time>2018-11-24T07:06:05Z</time>
      </trkpt>
      <trkpt lat="42.82673" lon="0.9007">
        <ele>1882.5</ele>
        <time>2018-11-24T07:06:08Z</time>
      </trkpt>
      <trkpt lat="42.82672" lon="0.90065">
        <ele>1883.5</ele>
        <time>2018-11-24T07:06:10Z</time>
      </trkpt>
      <trkpt lat="42.82677" lon="0.90058">
        <ele>1885.4</ele>
        <time>2018-11-24T07:06:13Z</time>
      </trkpt>
      <trkpt lat="42.82678" lon="0.90048">
        <ele>1887.3</ele>
        <time>2018-11-24T07:06:16Z</time>
      </trkpt>
      <trkpt lat="42.82671" lon="0.9004">
        <ele>1890.6</ele>
        <time>2018-11-24T07:06:20Z</time>
      </trkpt>
      <trkpt lat="42.82664" lon="0.90029">
        <ele>1893</ele>
        <time>2018-11-24T07:06:24Z</time>
      </trkpt>
      <trkpt lat="42.82661" lon="0.90031">
        <ele>1892.5</ele>
        <time>2018-11-24T07:06:25Z</time>
      </trkpt>
      <trkpt lat="42.8266" lon="0.90033">
        <ele>1892.5</ele>
        <time>2018-11-24T07:06:26Z</time>
      </trkpt>
      <trkpt lat="42.82661" lon="0.9003">
        <ele>1893.6</ele>
        <time>2018-11-24T07:06:27Z</time>
      </trkpt>
      <trkpt lat="42.82656" lon="0.9002">
        <ele>1896.4</ele>
        <time>2018-11-24T07:06:30Z</time>
      </trkpt>
      <trkpt lat="42.82647" lon="0.9002">
        <ele>1898.7</ele>
        <time>2018-11-24T07:06:34Z</time>
      </trkpt>
      <trkpt lat="42.82639" lon="0.90022">
        <ele>1900.7</ele>
        <time>2018-11-24T07:06:37Z</time>
      </trkpt>
      <trkpt lat="42.82634" lon="0.90019">
        <ele>1902.2</ele>
        <time>2018-11-24T07:06:39Z</time>
      </trkpt>
      <trkpt lat="42.82632" lon="0.90019">
        <ele>1902.6</ele>
        <time>2018-11-24T07:06:40Z</time>
      </trkpt>
      <trkpt lat="42.82635" lon="0.90014">
        <ele>1902.7</ele>
        <time>2018-11-24T07:06:42Z</time>
      </trkpt>
      <trkpt lat="42.82639" lon="0.90009">
        <ele>1905.9</ele>
        <time>2018-11-24T07:06:44Z</time>
      </trkpt>
      <trkpt lat="42.82632" lon="0.90009">
        <ele>1909.3</ele>
        <time>2018-11-24T07:06:47Z</time>
      </trkpt>
      <trkpt lat="42.82631" lon="0.90011">
        <ele>1909.8</ele>
        <time>2018-11-24T07:06:48Z</time>
      </trkpt>
      <trkpt lat="42.82626" lon="0.90006">
        <ele>1909.8</ele>
        <time>2018-11-24T07:06:50Z</time>
      </trkpt>
      <trkpt lat="42.82631" lon="0.90003">
        <ele>1912.2</ele>
        <time>2018-11-24T07:06:52Z</time>
      </trkpt>
      <trkpt lat="42.8263" lon="0.90003">
        <ele>1913.3</ele>
        <time>2018-11-24T07:06:53Z</time>
      </trkpt>
      <trkpt lat="42.82624" lon="0.89999">
        <ele>1915.1</ele>
        <time>2018-11-24T07:06:55Z</time>
      </trkpt>
      <trkpt lat="42.82624" lon="0.89995">
        <ele>1918</ele>
        <time>2018-11-24T07:06:57Z</time>
      </trkpt>
      <trkpt lat="42.82627" lon="0.89995">
        <ele>1919.4</ele>
        <time>2018-11-24T07:06:58Z</time>
      </trkpt>
      <trkpt lat="42.82629" lon="0.89995">
        <ele>1918.1</ele>
        <time>2018-11-24T07:06:59Z</time>
      </trkpt>
      <trkpt lat="42.82619" lon="0.89986">
        <ele>1918</ele>
        <time>2018-11-24T07:07:03Z</time>
      </trkpt>
      <trkpt lat="42.82618" lon="0.89986">
        <ele>1918.5</ele>
        <time>2018-11-24T07:07:04Z</time>
      </trkpt>
      <trkpt lat="42.8262" lon="0.89986">
        <ele>1918.6</ele>
        <time>2018-11-24T07:07:04Z</time>
      </trkpt>
      <trkpt lat="42.82627" lon="0.89989">
        <ele>1919.5</ele>
        <time>2018-11-24T07:07:07Z</time>
      </trkpt>
      <trkpt lat="42.82627" lon="0.89989">
        <ele>1919.9</ele>
        <time>2018-11-24T07:07:08Z</time>
      </trkpt>
      <trkpt lat="42.82628" lon="0.8998">
        <ele>1921.8</ele>
        <time>2018-11-24T07:07:10Z</time>
      </trkpt>
      <trkpt lat="42.82632" lon="0.89977">
        <ele>1923.7</ele>
        <time>2018-11-24T07:07:12Z</time>
      </trkpt>
      <trkpt lat="42.82633" lon="0.89965">
        <ele>1924.3</ele>
        <time>2018-11-24T07:07:16Z</time>
      </trkpt>
      <trkpt lat="42.82631" lon="0.89958">
        <ele>1927.7</ele>
        <time>2018-11-24T07:07:18Z</time>
      </trkpt>
      <trkpt lat="42.82634" lon="0.8995">
        <ele>1929.6</ele>
        <time>2018-11-24T07:07:20Z</time>
      </trkpt>
      <trkpt lat="42.82636" lon="0.89942">
        <ele>1930.5</ele>
        <time>2018-11-24T07:07:23Z</time>
      </trkpt>
      <trkpt lat="42.8264" lon="0.89926">
        <ele>1932.4</ele>
        <time>2018-11-24T07:07:28Z</time>
      </trkpt>
      <trkpt lat="42.82642" lon="0.89915">
        <ele>1933.9</ele>
        <time>2018-11-24T07:07:31Z</time>
      </trkpt>
      <trkpt lat="42.82639" lon="0.89901">
        <ele>1934.8</ele>
        <time>2018-11-24T07:07:35Z</time>
      </trkpt>
      <trkpt lat="42.82644" lon="0.8989">
        <ele>1936.3</ele>
        <time>2018-11-24T07:07:39Z</time>
      </trkpt>
      <trkpt lat="42.82649" lon="0.89886">
        <ele>1937.3</ele>
        <time>2018-11-24T07:07:41Z</time>
      </trkpt>
      <trkpt lat="42.82646" lon="0.89885">
        <ele>1937.3</ele>
        <time>2018-11-24T07:07:43Z</time>
      </trkpt>
      <trkpt lat="42.82646" lon="0.89882">
        <ele>1937.7</ele>
        <time>2018-11-24T07:07:44Z</time>
      </trkpt>
      <trkpt lat="42.8265" lon="0.89884">
        <ele>1936.2</ele>
        <time>2018-11-24T07:07:46Z</time>
      </trkpt>
      <trkpt lat="42.82654" lon="0.89882">
        <ele>1936.2</ele>
        <time>2018-11-24T07:07:47Z</time>
      </trkpt>
      <trkpt lat="42.82645" lon="0.89884">
        <ele>1936.2</ele>
        <time>2018-11-24T07:07:51Z</time>
      </trkpt>
      <trkpt lat="42.82645" lon="0.89885">
        <ele>1936.8</ele>
        <time>2018-11-24T07:07:51Z</time>
      </trkpt>
      <trkpt lat="42.82651" lon="0.89878">
        <ele>1936.7</ele>
        <time>2018-11-24T07:07:54Z</time>
      </trkpt>
      <trkpt lat="42.82652" lon="0.89874">
        <ele>1937.7</ele>
        <time>2018-11-24T07:07:55Z</time>
      </trkpt>
      <trkpt lat="42.8265" lon="0.8987">
        <ele>1938.7</ele>
        <time>2018-11-24T07:07:57Z</time>
      </trkpt>
      <trkpt lat="42.82649" lon="0.89869">
        <ele>1938.3</ele>
        <time>2018-11-24T07:07:57Z</time>
      </trkpt>
      <trkpt lat="42.8265" lon="0.8987">
        <ele>1938.2</ele>
        <time>2018-11-24T07:07:58Z</time>
      </trkpt>
      <trkpt lat="42.82651" lon="0.89872">
        <ele>1938.7</ele>
        <time>2018-11-24T07:07:59Z</time>
      </trkpt>
      <trkpt lat="42.82652" lon="0.89872">
        <ele>1938.2</ele>
        <time>2018-11-24T07:07:59Z</time>
      </trkpt>
      <trkpt lat="42.82651" lon="0.89871">
        <ele>1938.6</ele>
        <time>2018-11-24T07:07:59Z</time>
      </trkpt>
      <trkpt lat="42.82652" lon="0.8987">
        <ele>1938.6</ele>
        <time>2018-11-24T07:07:59Z</time>
      </trkpt>
      <trkpt lat="42.82652" lon="0.89871">
        <ele>1939.2</ele>
        <time>2018-11-24T07:08:00Z</time>
      </trkpt>
      <trkpt lat="42.82652" lon="0.8987">
        <ele>1939.2</ele>
        <time>2018-11-24T07:08:00Z</time>
      </trkpt>
      <trkpt lat="42.82652" lon="0.8987">
        <ele>1939.7</ele>
        <time>2018-11-24T07:08:00Z</time>
      </trkpt>
      <trkpt lat="42.82652" lon="0.89871">
        <ele>1939.2</ele>
        <time>2018-11-24T07:08:00Z</time>
      </trkpt>
      <trkpt lat="42.82651" lon="0.89871">
        <ele>1939.6</ele>
        <time>2018-11-24T07:08:00Z</time>
      </trkpt>
      <trkpt lat="42.82651" lon="0.89871">
        <ele>1940.2</ele>
        <time>2018-11-24T07:08:01Z</time>
      </trkpt>
      <trkpt lat="42.82652" lon="0.89872">
        <ele>1940.1</ele>
        <time>2018-11-24T07:08:01Z</time>
      </trkpt>
      <trkpt lat="42.82652" lon="0.89871">
        <ele>1940.6</ele>
        <time>2018-11-24T07:08:01Z</time>
      </trkpt>
      <trkpt lat="42.82651" lon="0.89871">
        <ele>1940.7</ele>
        <time>2018-11-24T07:08:01Z</time>
      </trkpt>
      <trkpt lat="42.82651" lon="0.89872">
        <ele>1941.1</ele>
        <time>2018-11-24T07:08:02Z</time>
      </trkpt>
      <trkpt lat="42.82652" lon="0.89871">
        <ele>1941</ele>
        <time>2018-11-24T07:08:02Z</time>
      </trkpt>
      <trkpt lat="42.82652" lon="0.89872">
        <ele>1941.5</ele>
        <time>2018-11-24T07:08:02Z</time>
      </trkpt>
      <trkpt lat="42.82651" lon="0.89872">
        <ele>1941.5</ele>
        <time>2018-11-24T07:08:02Z</time>
      </trkpt>
      <trkpt lat="42.82651" lon="0.89872">
        <ele>1942.1</ele>
        <time>2018-11-24T07:08:02Z</time>
      </trkpt>
      <trkpt lat="42.82651" lon="0.89872">
        <ele>1942</ele>
        <time>2018-11-24T07:08:03Z</time>
      </trkpt>
      <trkpt lat="42.82651" lon="0.89872">
        <ele>1942.6</ele>
        <time>2018-11-24T07:08:03Z</time>
      </trkpt>
      <trkpt lat="42.82652" lon="0.89871">
        <ele>1942.6</ele>
        <time>2018-11-24T07:08:03Z</time>
      </trkpt>
      <trkpt lat="42.82652" lon="0.89873">
        <ele>1942.6</ele>
        <time>2018-11-24T07:08:03Z</time>
      </trkpt>
      <trkpt lat="42.82653" lon="0.89871">
        <ele>1942.6</ele>
        <time>2018-11-24T07:08:04Z</time>
      </trkpt>
      <trkpt lat="42.82652" lon="0.89872">
        <ele>1944</ele>
        <time>2018-11-24T07:08:04Z</time>
      </trkpt>
      <trkpt lat="42.82652" lon="0.89871">
        <ele>1944.4</ele>
        <time>2018-11-24T07:08:04Z</time>
      </trkpt>
      <trkpt lat="42.82652" lon="0.89871">
        <ele>1944.4</ele>
        <time>2018-11-24T07:08:05Z</time>
      </trkpt>
      <trkpt lat="42.82652" lon="0.89871">
        <ele>1944.9</ele>
        <time>2018-11-24T07:08:05Z</time>
      </trkpt>
      <trkpt lat="42.82653" lon="0.89872">
        <ele>1944.9</ele>
        <time>2018-11-24T07:08:05Z</time>
      </trkpt>
      <trkpt lat="42.82652" lon="0.89873">
        <ele>1945</ele>
        <time>2018-11-24T07:08:05Z</time>
      </trkpt>
      <trkpt lat="42.82652" lon="0.89872">
        <ele>1944</ele>
        <time>2018-11-24T07:08:06Z</time>
      </trkpt>
      <trkpt lat="42.82651" lon="0.89871">
        <ele>1944.5</ele>
        <time>2018-11-24T07:08:06Z</time>
      </trkpt>
      <trkpt lat="42.82651" lon="0.8987">
        <ele>1944.4</ele>
        <time>2018-11-24T07:08:07Z</time>
      </trkpt>
      <trkpt lat="42.82651" lon="0.89871">
        <ele>1944.4</ele>
        <time>2018-11-24T07:08:07Z</time>
      </trkpt>
      <trkpt lat="42.82651" lon="0.89871">
        <ele>1944.9</ele>
        <time>2018-11-24T07:08:07Z</time>
      </trkpt>
      <trkpt lat="42.82651" lon="0.89871">
        <ele>1945</ele>
        <time>2018-11-24T07:08:07Z</time>
      </trkpt>
      <trkpt lat="42.82651" lon="0.89871">
        <ele>1945</ele>
        <time>2018-11-24T07:08:08Z</time>
      </trkpt>
      <trkpt lat="42.82651" lon="0.89871">
        <ele>1944.9</ele>
        <time>2018-11-24T07:08:08Z</time>
      </trkpt>
      <trkpt lat="42.82651" lon="0.89871">
        <ele>1945</ele>
        <time>2018-11-24T07:08:08Z</time>
      </trkpt>
      <trkpt lat="42.82651" lon="0.8987">
        <ele>1944.9</ele>
        <time>2018-11-24T07:08:09Z</time>
      </trkpt>
      <trkpt lat="42.82651" lon="0.8987">
        <ele>1944.9</ele>
        <time>2018-11-24T07:08:09Z</time>
      </trkpt>
      <trkpt lat="42.82651" lon="0.8987">
        <ele>1945.5</ele>
        <time>2018-11-24T07:08:09Z</time>
      </trkpt>
      <trkpt lat="42.82652" lon="0.89872">
        <ele>1945.5</ele>
        <time>2018-11-24T07:08:09Z</time>
      </trkpt>
      <trkpt lat="42.82651" lon="0.89872">
        <ele>1944.9</ele>
        <time>2018-11-24T07:08:10Z</time>
      </trkpt>
      <trkpt lat="42.82651" lon="0.89872">
        <ele>1945</ele>
        <time>2018-11-24T07:08:10Z</time>
      </trkpt>
      <trkpt lat="42.82651" lon="0.89871">
        <ele>1945.5</ele>
        <time>2018-11-24T07:08:10Z</time>
      </trkpt>
      <trkpt lat="42.82651" lon="0.89871">
        <ele>1945.5</ele>
        <time>2018-11-24T07:08:10Z</time>
      </trkpt>
      <trkpt lat="42.82652" lon="0.89871">
        <ele>1945.5</ele>
        <time>2018-11-24T07:08:11Z</time>
      </trkpt>
      <trkpt lat="42.82652" lon="0.89871">
        <ele>1945.4</ele>
        <time>2018-11-24T07:08:11Z</time>
      </trkpt>
      <trkpt lat="42.82651" lon="0.89871">
        <ele>1946.9</ele>
        <time>2018-11-24T07:08:11Z</time>
      </trkpt>
      <trkpt lat="42.82652" lon="0.89869">
        <ele>1946.8</ele>
        <time>2018-11-24T07:08:12Z</time>
      </trkpt>
      <trkpt lat="42.82651" lon="0.8987">
        <ele>1946.8</ele>
        <time>2018-11-24T07:08:12Z</time>
      </trkpt>
      <trkpt lat="42.82652" lon="0.8987">
        <ele>1946.8</ele>
        <time>2018-11-24T07:08:13Z</time>
      </trkpt>
      <trkpt lat="42.82651" lon="0.89871">
        <ele>1947.3</ele>
        <time>2018-11-24T07:08:14Z</time>
      </trkpt>
      <trkpt lat="42.82651" lon="0.8987">
        <ele>1947.3</ele>
        <time>2018-11-24T07:08:14Z</time>
      </trkpt>
      <trkpt lat="42.8265" lon="0.8987">
        <ele>1947.3</ele>
        <time>2018-11-24T07:08:14Z</time>
      </trkpt>
      <trkpt lat="42.82651" lon="0.89871">
        <ele>1947.4</ele>
        <time>2018-11-24T07:08:14Z</time>
      </trkpt>
      <trkpt lat="42.82651" lon="0.8987">
        <ele>1948.8</ele>
        <time>2018-11-24T07:08:15Z</time>
      </trkpt>
      <trkpt lat="42.82647" lon="0.89866">
        <ele>1948.3</ele>
        <time>2018-11-24T07:08:17Z</time>
      </trkpt>
      <trkpt lat="42.82645" lon="0.8986">
        <ele>1949.2</ele>
        <time>2018-11-24T07:08:19Z</time>
      </trkpt>
      <trkpt lat="42.82643" lon="0.8986">
        <ele>1949.3</ele>
        <time>2018-11-24T07:08:19Z</time>
      </trkpt>
      <trkpt lat="42.82642" lon="0.89857">
        <ele>1947.8</ele>
        <time>2018-11-24T07:08:20Z</time>
      </trkpt>
      <trkpt lat="42.82642" lon="0.89846">
        <ele>1948.4</ele>
        <time>2018-11-24T07:08:23Z</time>
      </trkpt>
      <trkpt lat="42.82641" lon="0.89833">
        <ele>1949.7</ele>
        <time>2018-11-24T07:08:27Z</time>
      </trkpt>
      <trkpt lat="42.82639" lon="0.89823">
        <ele>1953.1</ele>
        <time>2018-11-24T07:08:30Z</time>
      </trkpt>
      <trkpt lat="42.82635" lon="0.8981">
        <ele>1955.6</ele>
        <time>2018-11-24T07:08:35Z</time>
      </trkpt>
      <trkpt lat="42.82636" lon="0.89803">
        <ele>1957.9</ele>
        <time>2018-11-24T07:08:37Z</time>
      </trkpt>
      <trkpt lat="42.82636" lon="0.89792">
        <ele>1960.4</ele>
        <time>2018-11-24T07:08:40Z</time>
      </trkpt>
      <trkpt lat="42.82632" lon="0.89778">
        <ele>1963.2</ele>
        <time>2018-11-24T07:08:44Z</time>
      </trkpt>
      <trkpt lat="42.82631" lon="0.89767">
        <ele>1964.6</ele>
        <time>2018-11-24T07:08:48Z</time>
      </trkpt>
      <trkpt lat="42.8263" lon="0.89752">
        <ele>1966.6</ele>
        <time>2018-11-24T07:08:52Z</time>
      </trkpt>
      <trkpt lat="42.82628" lon="0.89736">
        <ele>1969</ele>
        <time>2018-11-24T07:08:57Z</time>
      </trkpt>
      <trkpt lat="42.82625" lon="0.89718">
        <ele>1970.5</ele>
        <time>2018-11-24T07:09:02Z</time>
      </trkpt>
      <trkpt lat="42.82625" lon="0.89713">
        <ele>1970.4</ele>
        <time>2018-11-24T07:09:04Z</time>
      </trkpt>
      <trkpt lat="42.82626" lon="0.89701">
        <ele>1971.3</ele>
        <time>2018-11-24T07:09:07Z</time>
      </trkpt>
      <trkpt lat="42.82632" lon="0.89688">
        <ele>1973.2</ele>
        <time>2018-11-24T07:09:12Z</time>
      </trkpt>
      <trkpt lat="42.82637" lon="0.89674">
        <ele>1975.2</ele>
        <time>2018-11-24T07:09:16Z</time>
      </trkpt>
      <trkpt lat="42.8264" lon="0.89668">
        <ele>1975.7</ele>
        <time>2018-11-24T07:09:19Z</time>
      </trkpt>
      <trkpt lat="42.8265" lon="0.8965">
        <ele>1978.1</ele>
        <time>2018-11-24T07:09:25Z</time>
      </trkpt>
      <trkpt lat="42.8266" lon="0.89639">
        <ele>1981</ele>
        <time>2018-11-24T07:09:30Z</time>
      </trkpt>
      <trkpt lat="42.82667" lon="0.89622">
        <ele>1982.9</ele>
        <time>2018-11-24T07:09:36Z</time>
      </trkpt>
      <trkpt lat="42.82676" lon="0.8961">
        <ele>1984.4</ele>
        <time>2018-11-24T07:09:41Z</time>
      </trkpt>
      <trkpt lat="42.8268" lon="0.8961">
        <ele>1985.4</ele>
        <time>2018-11-24T07:09:42Z</time>
      </trkpt>
      <trkpt lat="42.82686" lon="0.89595">
        <ele>1985.4</ele>
        <time>2018-11-24T07:09:48Z</time>
      </trkpt>
      <trkpt lat="42.82685" lon="0.89585">
        <ele>1985.7</ele>
        <time>2018-11-24T07:09:50Z</time>
      </trkpt>
      <trkpt lat="42.82689" lon="0.89579">
        <ele>1986.8</ele>
        <time>2018-11-24T07:09:53Z</time>
      </trkpt>
      <trkpt lat="42.82691" lon="0.89577">
        <ele>1987.8</ele>
        <time>2018-11-24T07:09:54Z</time>
      </trkpt>
      <trkpt lat="42.82704" lon="0.89561">
        <ele>1987.2</ele>
        <time>2018-11-24T07:10:01Z</time>
      </trkpt>
      <trkpt lat="42.82706" lon="0.89559">
        <ele>1987.2</ele>
        <time>2018-11-24T07:10:02Z</time>
      </trkpt>
      <trkpt lat="42.82714" lon="0.89549">
        <ele>1989.1</ele>
        <time>2018-11-24T07:10:06Z</time>
      </trkpt>
      <trkpt lat="42.8272" lon="0.89534">
        <ele>1991.1</ele>
        <time>2018-11-24T07:10:11Z</time>
      </trkpt>
      <trkpt lat="42.82724" lon="0.89518">
        <ele>1993.9</ele>
        <time>2018-11-24T07:10:16Z</time>
      </trkpt>
      <trkpt lat="42.82731" lon="0.89508">
        <ele>1997.4</ele>
        <time>2018-11-24T07:10:20Z</time>
      </trkpt>
      <trkpt lat="42.82737" lon="0.89499">
        <ele>2000.3</ele>
        <time>2018-11-24T07:10:24Z</time>
      </trkpt>
      <trkpt lat="42.82745" lon="0.89491">
        <ele>2003.1</ele>
        <time>2018-11-24T07:10:27Z</time>
      </trkpt>
      <trkpt lat="42.82753" lon="0.8948">
        <ele>2005.1</ele>
        <time>2018-11-24T07:10:32Z</time>
      </trkpt>
      <trkpt lat="42.82762" lon="0.89468">
        <ele>2008</ele>
        <time>2018-11-24T07:10:37Z</time>
      </trkpt>
      <trkpt lat="42.82763" lon="0.89459">
        <ele>2010.4</ele>
        <time>2018-11-24T07:10:40Z</time>
      </trkpt>
      <trkpt lat="42.82773" lon="0.89452">
        <ele>2013.2</ele>
        <time>2018-11-24T07:10:44Z</time>
      </trkpt>
      <trkpt lat="42.82766" lon="0.89439">
        <ele>2015.5</ele>
        <time>2018-11-24T07:10:49Z</time>
      </trkpt>
      <trkpt lat="42.82766" lon="0.89438">
        <ele>2016</ele>
        <time>2018-11-24T07:10:49Z</time>
      </trkpt>
      <trkpt lat="42.8276" lon="0.89418">
        <ele>2017.5</ele>
        <time>2018-11-24T07:10:56Z</time>
      </trkpt>
      <trkpt lat="42.82758" lon="0.89406">
        <ele>2018.5</ele>
        <time>2018-11-24T07:10:59Z</time>
      </trkpt>
      <trkpt lat="42.82758" lon="0.89395">
        <ele>2019.5</ele>
        <time>2018-11-24T07:11:03Z</time>
      </trkpt>
      <trkpt lat="42.8276" lon="0.89392">
        <ele>2020</ele>
        <time>2018-11-24T07:11:04Z</time>
      </trkpt>
      <trkpt lat="42.82762" lon="0.89385">
        <ele>2020.3</ele>
        <time>2018-11-24T07:11:06Z</time>
      </trkpt>
      <trkpt lat="42.8276" lon="0.89383">
        <ele>2021.9</ele>
        <time>2018-11-24T07:11:07Z</time>
      </trkpt>
      <trkpt lat="42.8275" lon="0.89386">
        <ele>2023.7</ele>
        <time>2018-11-24T07:11:11Z</time>
      </trkpt>
      <trkpt lat="42.82741" lon="0.89385">
        <ele>2027.2</ele>
        <time>2018-11-24T07:11:15Z</time>
      </trkpt>
      <trkpt lat="42.82747" lon="0.89369">
        <ele>2030.1</ele>
        <time>2018-11-24T07:11:20Z</time>
      </trkpt>
      <trkpt lat="42.82749" lon="0.89359">
        <ele>2032.8</ele>
        <time>2018-11-24T07:11:23Z</time>
      </trkpt>
      <trkpt lat="42.82748" lon="0.89359">
        <ele>2032.8</ele>
        <time>2018-11-24T07:11:23Z</time>
      </trkpt>
      <trkpt lat="42.82746" lon="0.89351">
        <ele>2035.3</ele>
        <time>2018-11-24T07:11:26Z</time>
      </trkpt>
      <trkpt lat="42.82744" lon="0.89344">
        <ele>2037.8</ele>
        <time>2018-11-24T07:11:28Z</time>
      </trkpt>
      <trkpt lat="42.82742" lon="0.89337">
        <ele>2039.2</ele>
        <time>2018-11-24T07:11:30Z</time>
      </trkpt>
      <trkpt lat="42.82742" lon="0.89335">
        <ele>2040.6</ele>
        <time>2018-11-24T07:11:31Z</time>
      </trkpt>
      <trkpt lat="42.82739" lon="0.89327">
        <ele>2042.6</ele>
        <time>2018-11-24T07:11:33Z</time>
      </trkpt>
      <trkpt lat="42.82738" lon="0.89326">
        <ele>2043.5</ele>
        <time>2018-11-24T07:11:34Z</time>
      </trkpt>
      <trkpt lat="42.8274" lon="0.89323">
        <ele>2042.5</ele>
        <time>2018-11-24T07:11:35Z</time>
      </trkpt>
      <trkpt lat="42.8274" lon="0.89318">
        <ele>2044</ele>
        <time>2018-11-24T07:11:36Z</time>
      </trkpt>
      <trkpt lat="42.82736" lon="0.89318">
        <ele>2047.4</ele>
        <time>2018-11-24T07:11:38Z</time>
      </trkpt>
      <trkpt lat="42.82727" lon="0.89312">
        <ele>2050.2</ele>
        <time>2018-11-24T07:11:42Z</time>
      </trkpt>
      <trkpt lat="42.82724" lon="0.89297">
        <ele>2052.6</ele>
        <time>2018-11-24T07:11:47Z</time>
      </trkpt>
      <trkpt lat="42.8272" lon="0.89287">
        <ele>2055.9</ele>
        <time>2018-11-24T07:11:50Z</time>
      </trkpt>
      <trkpt lat="42.82712" lon="0.89279">
        <ele>2057.4</ele>
        <time>2018-11-24T07:11:54Z</time>
      </trkpt>
      <trkpt lat="42.82705" lon="0.89287">
        <ele>2060.3</ele>
        <time>2018-11-24T07:11:58Z</time>
      </trkpt>
      <trkpt lat="42.82694" lon="0.89295">
        <ele>2063.2</ele>
        <time>2018-11-24T07:12:02Z</time>
      </trkpt>
      <trkpt lat="42.82684" lon="0.89306">
        <ele>2065.2</ele>
        <time>2018-11-24T07:12:08Z</time>
      </trkpt>
      <trkpt lat="42.82683" lon="0.89306">
        <ele>2066.1</ele>
        <time>2018-11-24T07:12:08Z</time>
      </trkpt>
      <trkpt lat="42.82668" lon="0.8931">
        <ele>2067.4</ele>
        <time>2018-11-24T07:12:14Z</time>
      </trkpt>
      <trkpt lat="42.82658" lon="0.89319">
        <ele>2067.5</ele>
        <time>2018-11-24T07:12:19Z</time>
      </trkpt>
      <trkpt lat="42.82652" lon="0.89325">
        <ele>2069.5</ele>
        <time>2018-11-24T07:12:22Z</time>
      </trkpt>
      <trkpt lat="42.82645" lon="0.8933">
        <ele>2069.9</ele>
        <time>2018-11-24T07:12:25Z</time>
      </trkpt>
      <trkpt lat="42.82642" lon="0.89331">
        <ele>2070.3</ele>
        <time>2018-11-24T07:12:26Z</time>
      </trkpt>
      <trkpt lat="42.82639" lon="0.89325">
        <ele>2072.7</ele>
        <time>2018-11-24T07:12:29Z</time>
      </trkpt>
      <trkpt lat="42.8264" lon="0.89316">
        <ele>2075.6</ele>
        <time>2018-11-24T07:12:31Z</time>
      </trkpt>
      <trkpt lat="42.82644" lon="0.89301">
        <ele>2077.6</ele>
        <time>2018-11-24T07:12:36Z</time>
      </trkpt>
      <trkpt lat="42.82645" lon="0.89298">
        <ele>2079.6</ele>
        <time>2018-11-24T07:12:37Z</time>
      </trkpt>
      <trkpt lat="42.82646" lon="0.8929">
        <ele>2080.4</ele>
        <time>2018-11-24T07:12:39Z</time>
      </trkpt>
      <trkpt lat="42.82646" lon="0.89289">
        <ele>2080.5</ele>
        <time>2018-11-24T07:12:40Z</time>
      </trkpt>
      <trkpt lat="42.82643" lon="0.89279">
        <ele>2083.9</ele>
        <time>2018-11-24T07:12:43Z</time>
      </trkpt>
      <trkpt lat="42.82643" lon="0.89278">
        <ele>2083.8</ele>
        <time>2018-11-24T07:12:43Z</time>
      </trkpt>
      <trkpt lat="42.82641" lon="0.89276">
        <ele>2083.9</ele>
        <time>2018-11-24T07:12:44Z</time>
      </trkpt>
      <trkpt lat="42.82633" lon="0.89273">
        <ele>2087.7</ele>
        <time>2018-11-24T07:12:48Z</time>
      </trkpt>
      <trkpt lat="42.82629" lon="0.8927">
        <ele>2087.7</ele>
        <time>2018-11-24T07:12:49Z</time>
      </trkpt>
      <trkpt lat="42.82627" lon="0.89267">
        <ele>2089.7</ele>
        <time>2018-11-24T07:12:51Z</time>
      </trkpt>
      <trkpt lat="42.82617" lon="0.8926">
        <ele>2092</ele>
        <time>2018-11-24T07:12:55Z</time>
      </trkpt>
      <trkpt lat="42.82613" lon="0.89256">
        <ele>2092.9</ele>
        <time>2018-11-24T07:12:57Z</time>
      </trkpt>
      <trkpt lat="42.82605" lon="0.89249">
        <ele>2096.3</ele>
        <time>2018-11-24T07:13:01Z</time>
      </trkpt>
      <trkpt lat="42.82602" lon="0.89247">
        <ele>2097.8</ele>
        <time>2018-11-24T07:13:02Z</time>
      </trkpt>
      <trkpt lat="42.826" lon="0.89242">
        <ele>2100.2</ele>
        <time>2018-11-24T07:13:04Z</time>
      </trkpt>
      <trkpt lat="42.826" lon="0.89234">
        <ele>2102.1</ele>
        <time>2018-11-24T07:13:06Z</time>
      </trkpt>
      <trkpt lat="42.82599" lon="0.8922">
        <ele>2104.6</ele>
        <time>2018-11-24T07:13:10Z</time>
      </trkpt>
      <trkpt lat="42.82599" lon="0.89219">
        <ele>2104.5</ele>
        <time>2018-11-24T07:13:11Z</time>
      </trkpt>
      <trkpt lat="42.82608" lon="0.89209">
        <ele>2107.5</ele>
        <time>2018-11-24T07:13:15Z</time>
      </trkpt>
      <trkpt lat="42.82617" lon="0.89197">
        <ele>2110.8</ele>
        <time>2018-11-24T07:13:20Z</time>
      </trkpt>
      <trkpt lat="42.82618" lon="0.8919">
        <ele>2112.1</ele>
        <time>2018-11-24T07:13:22Z</time>
      </trkpt>
      <trkpt lat="42.82618" lon="0.89187">
        <ele>2110.8</ele>
        <time>2018-11-24T07:13:23Z</time>
      </trkpt>
      <trkpt lat="42.82617" lon="0.89182">
        <ele>2112.7</ele>
        <time>2018-11-24T07:13:25Z</time>
      </trkpt>
      <trkpt lat="42.82616" lon="0.89169">
        <ele>2115</ele>
        <time>2018-11-24T07:13:28Z</time>
      </trkpt>
      <trkpt lat="42.82619" lon="0.89152">
        <ele>2117.4</ele>
        <time>2018-11-24T07:13:34Z</time>
      </trkpt>
      <trkpt lat="42.8262" lon="0.89141">
        <ele>2119.4</ele>
        <time>2018-11-24T07:13:37Z</time>
      </trkpt>
      <trkpt lat="42.82619" lon="0.89137">
        <ele>2119.8</ele>
        <time>2018-11-24T07:13:38Z</time>
      </trkpt>
      <trkpt lat="42.82615" lon="0.89129">
        <ele>2121.4</ele>
        <time>2018-11-24T07:13:41Z</time>
      </trkpt>
      <trkpt lat="42.82614" lon="0.89119">
        <ele>2122.7</ele>
        <time>2018-11-24T07:13:44Z</time>
      </trkpt>
      <trkpt lat="42.8261" lon="0.89109">
        <ele>2124.7</ele>
        <time>2018-11-24T07:13:47Z</time>
      </trkpt>
      <trkpt lat="42.82605" lon="0.89102">
        <ele>2127.5</ele>
        <time>2018-11-24T07:13:50Z</time>
      </trkpt>
      <trkpt lat="42.82604" lon="0.89099">
        <ele>2127.5</ele>
        <time>2018-11-24T07:13:51Z</time>
      </trkpt>
      <trkpt lat="42.82597" lon="0.89088">
        <ele>2129.1</ele>
        <time>2018-11-24T07:13:55Z</time>
      </trkpt>
      <trkpt lat="42.82593" lon="0.89086">
        <ele>2130.9</ele>
        <time>2018-11-24T07:13:57Z</time>
      </trkpt>
      <trkpt lat="42.82597" lon="0.89087">
        <ele>2131</ele>
        <time>2018-11-24T07:13:58Z</time>
      </trkpt>
      <trkpt lat="42.82592" lon="0.89079">
        <ele>2132.8</ele>
        <time>2018-11-24T07:14:01Z</time>
      </trkpt>
      <trkpt lat="42.82587" lon="0.89072">
        <ele>2134.7</ele>
        <time>2018-11-24T07:14:04Z</time>
      </trkpt>
      <trkpt lat="42.82591" lon="0.89063">
        <ele>2136.7</ele>
        <time>2018-11-24T07:14:07Z</time>
      </trkpt>
      <trkpt lat="42.82596" lon="0.89053">
        <ele>2139.2</ele>
        <time>2018-11-24T07:14:11Z</time>
      </trkpt>
      <trkpt lat="42.82597" lon="0.89049">
        <ele>2140.5</ele>
        <time>2018-11-24T07:14:12Z</time>
      </trkpt>
      <trkpt lat="42.82595" lon="0.89043">
        <ele>2142.5</ele>
        <time>2018-11-24T07:14:14Z</time>
      </trkpt>
      <trkpt lat="42.82598" lon="0.89031">
        <ele>2143</ele>
        <time>2018-11-24T07:14:18Z</time>
      </trkpt>
      <trkpt lat="42.82607" lon="0.8902">
        <ele>2144.5</ele>
        <time>2018-11-24T07:14:23Z</time>
      </trkpt>
      <trkpt lat="42.82616" lon="0.89009">
        <ele>2146.3</ele>
        <time>2018-11-24T07:14:28Z</time>
      </trkpt>
      <trkpt lat="42.82609" lon="0.89003">
        <ele>2149.2</ele>
        <time>2018-11-24T07:14:31Z</time>
      </trkpt>
      <trkpt lat="42.82608" lon="0.88999">
        <ele>2148.3</ele>
        <time>2018-11-24T07:14:32Z</time>
      </trkpt>
      <trkpt lat="42.82607" lon="0.88996">
        <ele>2149.2</ele>
        <time>2018-11-24T07:14:33Z</time>
      </trkpt>
      <trkpt lat="42.82608" lon="0.88991">
        <ele>2152.5</ele>
        <time>2018-11-24T07:14:35Z</time>
      </trkpt>
      <trkpt lat="42.82611" lon="0.88983">
        <ele>2154.4</ele>
        <time>2018-11-24T07:14:37Z</time>
      </trkpt>
      <trkpt lat="42.82613" lon="0.88973">
        <ele>2157.4</ele>
        <time>2018-11-24T07:14:40Z</time>
      </trkpt>
      <trkpt lat="42.82613" lon="0.88961">
        <ele>2159.8</ele>
        <time>2018-11-24T07:14:44Z</time>
      </trkpt>
      <trkpt lat="42.82615" lon="0.88955">
        <ele>2162.1</ele>
        <time>2018-11-24T07:14:46Z</time>
      </trkpt>
      <trkpt lat="42.82619" lon="0.88947">
        <ele>2164.2</ele>
        <time>2018-11-24T07:14:48Z</time>
      </trkpt>
      <trkpt lat="42.82618" lon="0.88938">
        <ele>2166.1</ele>
        <time>2018-11-24T07:14:51Z</time>
      </trkpt>
      <trkpt lat="42.8262" lon="0.88932">
        <ele>2167.9</ele>
        <time>2018-11-24T07:14:53Z</time>
      </trkpt>
      <trkpt lat="42.82621" lon="0.88931">
        <ele>2169</ele>
        <time>2018-11-24T07:14:54Z</time>
      </trkpt>
      <trkpt lat="42.82619" lon="0.8893">
        <ele>2168.9</ele>
        <time>2018-11-24T07:14:54Z</time>
      </trkpt>
      <trkpt lat="42.82625" lon="0.88931">
        <ele>2169.5</ele>
        <time>2018-11-24T07:14:57Z</time>
      </trkpt>
      <trkpt lat="42.82621" lon="0.88925">
        <ele>2170.9</ele>
        <time>2018-11-24T07:14:59Z</time>
      </trkpt>
      <trkpt lat="42.82621" lon="0.88917">
        <ele>2173.2</ele>
        <time>2018-11-24T07:15:01Z</time>
      </trkpt>
      <trkpt lat="42.82621" lon="0.88918">
        <ele>2172.7</ele>
        <time>2018-11-24T07:15:01Z</time>
      </trkpt>
      <trkpt lat="42.82623" lon="0.88916">
        <ele>2172.7</ele>
        <time>2018-11-24T07:15:03Z</time>
      </trkpt>
      <trkpt lat="42.82627" lon="0.88911">
        <ele>2174.2</ele>
        <time>2018-11-24T07:15:04Z</time>
      </trkpt>
      <trkpt lat="42.82626" lon="0.88908">
        <ele>2175.7</ele>
        <time>2018-11-24T07:15:05Z</time>
      </trkpt>
      <trkpt lat="42.82625" lon="0.88907">
        <ele>2174.2</ele>
        <time>2018-11-24T07:15:06Z</time>
      </trkpt>
      <trkpt lat="42.82626" lon="0.88904">
        <ele>2175.7</ele>
        <time>2018-11-24T07:15:07Z</time>
      </trkpt>
      <trkpt lat="42.82628" lon="0.88902">
        <ele>2176.7</ele>
        <time>2018-11-24T07:15:08Z</time>
      </trkpt>
      <trkpt lat="42.82637" lon="0.88896">
        <ele>2179</ele>
        <time>2018-11-24T07:15:12Z</time>
      </trkpt>
      <trkpt lat="42.82644" lon="0.88888">
        <ele>2181.5</ele>
        <time>2018-11-24T07:15:16Z</time>
      </trkpt>
      <trkpt lat="42.82653" lon="0.88884">
        <ele>2183.8</ele>
        <time>2018-11-24T07:15:19Z</time>
      </trkpt>
      <trkpt lat="42.8266" lon="0.88877">
        <ele>2186.7</ele>
        <time>2018-11-24T07:15:23Z</time>
      </trkpt>
      <trkpt lat="42.82662" lon="0.88876">
        <ele>2188.1</ele>
        <time>2018-11-24T07:15:24Z</time>
      </trkpt>
      <trkpt lat="42.82659" lon="0.88874">
        <ele>2186.7</ele>
        <time>2018-11-24T07:15:25Z</time>
      </trkpt>
      <trkpt lat="42.82661" lon="0.88875">
        <ele>2188.6</ele>
        <time>2018-11-24T07:15:26Z</time>
      </trkpt>
      <trkpt lat="42.82677" lon="0.88873">
        <ele>2191.1</ele>
        <time>2018-11-24T07:15:32Z</time>
      </trkpt>
      <trkpt lat="42.82693" lon="0.88875">
        <ele>2194</ele>
        <time>2018-11-24T07:15:39Z</time>
      </trkpt>
      <trkpt lat="42.82704" lon="0.8888">
        <ele>2197.3</ele>
        <time>2018-11-24T07:15:44Z</time>
      </trkpt>
      <trkpt lat="42.82708" lon="0.8888">
        <ele>2199.2</ele>
        <time>2018-11-24T07:15:45Z</time>
      </trkpt>
      <trkpt lat="42.82694" lon="0.88858">
        <ele>2199.2</ele>
        <time>2018-11-24T07:15:54Z</time>
      </trkpt>
      <trkpt lat="42.82688" lon="0.88849">
        <ele>2199.7</ele>
        <time>2018-11-24T07:15:57Z</time>
      </trkpt>
      <trkpt lat="42.82683" lon="0.88836">
        <ele>2201.6</ele>
        <time>2018-11-24T07:16:01Z</time>
      </trkpt>
      <trkpt lat="42.8268" lon="0.88825">
        <ele>2202.1</ele>
        <time>2018-11-24T07:16:05Z</time>
      </trkpt>
      <trkpt lat="42.82679" lon="0.88823">
        <ele>2203.1</ele>
        <time>2018-11-24T07:16:06Z</time>
      </trkpt>
      <trkpt lat="42.82671" lon="0.88803">
        <ele>2205.9</ele>
        <time>2018-11-24T07:16:12Z</time>
      </trkpt>
      <trkpt lat="42.82666" lon="0.88781">
        <ele>2208.8</ele>
        <time>2018-11-24T07:16:19Z</time>
      </trkpt>
      <trkpt lat="42.82663" lon="0.88772">
        <ele>2210.7</ele>
        <time>2018-11-24T07:16:22Z</time>
      </trkpt>
      <trkpt lat="42.8266" lon="0.88761">
        <ele>2212.6</ele>
        <time>2018-11-24T07:16:26Z</time>
      </trkpt>
      <trkpt lat="42.82663" lon="0.88759">
        <ele>2214.2</ele>
        <time>2018-11-24T07:16:27Z</time>
      </trkpt>
      <trkpt lat="42.82673" lon="0.88761">
        <ele>2215</ele>
        <time>2018-11-24T07:16:31Z</time>
      </trkpt>
      <trkpt lat="42.82682" lon="0.88763">
        <ele>2217</ele>
        <time>2018-11-24T07:16:34Z</time>
      </trkpt>
      <trkpt lat="42.82696" lon="0.88776">
        <ele>2220.3</ele>
        <time>2018-11-24T07:16:41Z</time>
      </trkpt>
      <trkpt lat="42.827" lon="0.88778">
        <ele>2221.8</ele>
        <time>2018-11-24T07:16:43Z</time>
      </trkpt>
      <trkpt lat="42.82703" lon="0.88787">
        <ele>2224.6</ele>
        <time>2018-11-24T07:16:46Z</time>
      </trkpt>
      <trkpt lat="42.82703" lon="0.88787">
        <ele>2223.3</ele>
        <time>2018-11-24T07:16:46Z</time>
      </trkpt>
      <trkpt lat="42.82704" lon="0.88787">
        <ele>2222.7</ele>
        <time>2018-11-24T07:16:46Z</time>
      </trkpt>
      <trkpt lat="42.82704" lon="0.88787">
        <ele>2224.6</ele>
        <time>2018-11-24T07:16:46Z</time>
      </trkpt>
      <trkpt lat="42.82705" lon="0.88787">
        <ele>2223.7</ele>
        <time>2018-11-24T07:16:46Z</time>
      </trkpt>
      <trkpt lat="42.82705" lon="0.88789">
        <ele>2223.2</ele>
        <time>2018-11-24T07:16:47Z</time>
      </trkpt>
      <trkpt lat="42.82702" lon="0.88788">
        <ele>2222.8</ele>
        <time>2018-11-24T07:16:48Z</time>
      </trkpt>
      <trkpt lat="42.827" lon="0.88785">
        <ele>2224.6</ele>
        <time>2018-11-24T07:16:50Z</time>
      </trkpt>
      <trkpt lat="42.82699" lon="0.88784">
        <ele>2221.7</ele>
        <time>2018-11-24T07:16:50Z</time>
      </trkpt>
      <trkpt lat="42.82699" lon="0.88783">
        <ele>2221.8</ele>
        <time>2018-11-24T07:16:50Z</time>
      </trkpt>
      <trkpt lat="42.82698" lon="0.88782">
        <ele>2224.1</ele>
        <time>2018-11-24T07:16:51Z</time>
      </trkpt>
      <trkpt lat="42.82699" lon="0.88782">
        <ele>2223.3</ele>
        <time>2018-11-24T07:16:51Z</time>
      </trkpt>
      <trkpt lat="42.827" lon="0.88782">
        <ele>2223.7</ele>
        <time>2018-11-24T07:16:52Z</time>
      </trkpt>
      <trkpt lat="42.82701" lon="0.88784">
        <ele>2223.7</ele>
        <time>2018-11-24T07:16:52Z</time>
      </trkpt>
      <trkpt lat="42.827" lon="0.88781">
        <ele>2224.6</ele>
        <time>2018-11-24T07:16:53Z</time>
      </trkpt>
      <trkpt lat="42.827" lon="0.88783">
        <ele>2225.1</ele>
        <time>2018-11-24T07:16:54Z</time>
      </trkpt>
      <trkpt lat="42.82702" lon="0.88785">
        <ele>2226.6</ele>
        <time>2018-11-24T07:16:55Z</time>
      </trkpt>
      <trkpt lat="42.82703" lon="0.88785">
        <ele>2225.7</ele>
        <time>2018-11-24T07:16:56Z</time>
      </trkpt>
      <trkpt lat="42.82702" lon="0.88782">
        <ele>2225.6</ele>
        <time>2018-11-24T07:16:56Z</time>
      </trkpt>
      <trkpt lat="42.82699" lon="0.88782">
        <ele>2225.6</ele>
        <time>2018-11-24T07:16:57Z</time>
      </trkpt>
      <trkpt lat="42.82699" lon="0.88782">
        <ele>2224.6</ele>
        <time>2018-11-24T07:16:58Z</time>
      </trkpt>
      <trkpt lat="42.82699" lon="0.88781">
        <ele>2226.6</ele>
        <time>2018-11-24T07:16:58Z</time>
      </trkpt>
      <trkpt lat="42.82699" lon="0.88781">
        <ele>2224.2</ele>
        <time>2018-11-24T07:16:58Z</time>
      </trkpt>
      <trkpt lat="42.827" lon="0.88781">
        <ele>2225.1</ele>
        <time>2018-11-24T07:16:58Z</time>
      </trkpt>
      <trkpt lat="42.827" lon="0.88782">
        <ele>2226.7</ele>
        <time>2018-11-24T07:16:58Z</time>
      </trkpt>
      <trkpt lat="42.82701" lon="0.88783">
        <ele>2225.1</ele>
        <time>2018-11-24T07:16:58Z</time>
      </trkpt>
      <trkpt lat="42.82702" lon="0.88783">
        <ele>2225.2</ele>
        <time>2018-11-24T07:16:59Z</time>
      </trkpt>
      <trkpt lat="42.82704" lon="0.88784">
        <ele>2225.1</ele>
        <time>2018-11-24T07:17:00Z</time>
      </trkpt>
      <trkpt lat="42.82704" lon="0.88784">
        <ele>2228.5</ele>
        <time>2018-11-24T07:17:00Z</time>
      </trkpt>
      <trkpt lat="42.82704" lon="0.88784">
        <ele>2228.6</ele>
        <time>2018-11-24T07:17:00Z</time>
      </trkpt>
      <trkpt lat="42.82705" lon="0.88784">
        <ele>2226.1</ele>
        <time>2018-11-24T07:17:00Z</time>
      </trkpt>
      <trkpt lat="42.82705" lon="0.88785">
        <ele>2227.1</ele>
        <time>2018-11-24T07:17:01Z</time>
      </trkpt>
      <trkpt lat="42.82706" lon="0.88785">
        <ele>2228.1</ele>
        <time>2018-11-24T07:17:01Z</time>
      </trkpt>
      <trkpt lat="42.82705" lon="0.88785">
        <ele>2224.2</ele>
        <time>2018-11-24T07:17:01Z</time>
      </trkpt>
      <trkpt lat="42.82705" lon="0.88784">
        <ele>2226.1</ele>
        <time>2018-11-24T07:17:02Z</time>
      </trkpt>
      <trkpt lat="42.82706" lon="0.88784">
        <ele>2227.6</ele>
        <time>2018-11-24T07:17:02Z</time>
      </trkpt>
      <trkpt lat="42.82704" lon="0.88784">
        <ele>2225.2</ele>
        <time>2018-11-24T07:17:02Z</time>
      </trkpt>
      <trkpt lat="42.82704" lon="0.88784">
        <ele>2226.7</ele>
        <time>2018-11-24T07:17:02Z</time>
      </trkpt>
      <trkpt lat="42.82703" lon="0.88783">
        <ele>2225.6</ele>
        <time>2018-11-24T07:17:03Z</time>
      </trkpt>
      <trkpt lat="42.82704" lon="0.88783">
        <ele>2226.6</ele>
        <time>2018-11-24T07:17:03Z</time>
      </trkpt>
      <trkpt lat="42.82704" lon="0.88783">
        <ele>2225.6</ele>
        <time>2018-11-24T07:17:03Z</time>
      </trkpt>
      <trkpt lat="42.82702" lon="0.88779">
        <ele>2225.2</ele>
        <time>2018-11-24T07:17:04Z</time>
      </trkpt>
      <trkpt lat="42.82702" lon="0.88775">
        <ele>2225.6</ele>
        <time>2018-11-24T07:17:06Z</time>
      </trkpt>
      <trkpt lat="42.82702" lon="0.88761">
        <ele>2225.6</ele>
        <time>2018-11-24T07:17:10Z</time>
      </trkpt>
      <trkpt lat="42.82697" lon="0.8875">
        <ele>2227.5</ele>
        <time>2018-11-24T07:17:14Z</time>
      </trkpt>
      <trkpt lat="42.82694" lon="0.88747">
        <ele>2228.5</ele>
        <time>2018-11-24T07:17:15Z</time>
      </trkpt>
      <trkpt lat="42.82687" lon="0.88731">
        <ele>2230.5</ele>
        <time>2018-11-24T07:17:21Z</time>
      </trkpt>
      <trkpt lat="42.82679" lon="0.88721">
        <ele>2228.9</ele>
        <time>2018-11-24T07:17:25Z</time>
      </trkpt>
      <trkpt lat="42.82675" lon="0.88717">
        <ele>2228.6</ele>
        <time>2018-11-24T07:17:27Z</time>
      </trkpt>
      <trkpt lat="42.82656" lon="0.88695">
        <ele>2227.5</ele>
        <time>2018-11-24T07:17:37Z</time>
      </trkpt>
      <trkpt lat="42.82654" lon="0.88692">
        <ele>2227.6</ele>
        <time>2018-11-24T07:17:38Z</time>
      </trkpt>
      <trkpt lat="42.82653" lon="0.88688">
        <ele>2227.5</ele>
        <time>2018-11-24T07:17:39Z</time>
      </trkpt>
      <trkpt lat="42.8265" lon="0.88684">
        <ele>2227.5</ele>
        <time>2018-11-24T07:17:41Z</time>
      </trkpt>
      <trkpt lat="42.82648" lon="0.88683">
        <ele>2227.6</ele>
        <time>2018-11-24T07:17:42Z</time>
      </trkpt>
      <trkpt lat="42.82635" lon="0.88672">
        <ele>2226.7</ele>
        <time>2018-11-24T07:17:48Z</time>
      </trkpt>
      <trkpt lat="42.82624" lon="0.8865">
        <ele>2227.1</ele>
        <time>2018-11-24T07:17:56Z</time>
      </trkpt>
      <trkpt lat="42.82616" lon="0.8862">
        <ele>2227.5</ele>
        <time>2018-11-24T07:18:05Z</time>
      </trkpt>
      <trkpt lat="42.82613" lon="0.88613">
        <ele>2227.5</ele>
        <time>2018-11-24T07:18:08Z</time>
      </trkpt>
      <trkpt lat="42.82604" lon="0.88586">
        <ele>2228.6</ele>
        <time>2018-11-24T07:18:16Z</time>
      </trkpt>
      <trkpt lat="42.82598" lon="0.88571">
        <ele>2229</ele>
        <time>2018-11-24T07:18:21Z</time>
      </trkpt>
      <trkpt lat="42.826" lon="0.88571">
        <ele>2229</ele>
        <time>2018-11-24T07:18:22Z</time>
      </trkpt>
      <trkpt lat="42.82598" lon="0.88569">
        <ele>2227.5</ele>
        <time>2018-11-24T07:18:23Z</time>
      </trkpt>
      <trkpt lat="42.82593" lon="0.88557">
        <ele>2227.6</ele>
        <time>2018-11-24T07:18:27Z</time>
      </trkpt>
      <trkpt lat="42.82589" lon="0.88543">
        <ele>2228.9</ele>
        <time>2018-11-24T07:18:31Z</time>
      </trkpt>
      <trkpt lat="42.82586" lon="0.88535">
        <ele>2229.4</ele>
        <time>2018-11-24T07:18:34Z</time>
      </trkpt>
      <trkpt lat="42.82578" lon="0.88514">
        <ele>2230</ele>
        <time>2018-11-24T07:18:41Z</time>
      </trkpt>
      <trkpt lat="42.82565" lon="0.88487">
        <ele>2230.9</ele>
        <time>2018-11-24T07:18:50Z</time>
      </trkpt>
      <trkpt lat="42.82557" lon="0.8846">
        <ele>2231.5</ele>
        <time>2018-11-24T07:18:59Z</time>
      </trkpt>
      <trkpt lat="42.82556" lon="0.88456">
        <ele>2231.4</ele>
        <time>2018-11-24T07:19:00Z</time>
      </trkpt>
      <trkpt lat="42.82553" lon="0.88445">
        <ele>2230.4</ele>
        <time>2018-11-24T07:19:03Z</time>
      </trkpt>
      <trkpt lat="42.82552" lon="0.88439">
        <ele>2229.9</ele>
        <time>2018-11-24T07:19:05Z</time>
      </trkpt>
      <trkpt lat="42.82548" lon="0.88412">
        <ele>2228.9</ele>
        <time>2018-11-24T07:19:13Z</time>
      </trkpt>
      <trkpt lat="42.82547" lon="0.88407">
        <ele>2229</ele>
        <time>2018-11-24T07:19:15Z</time>
      </trkpt>
      <trkpt lat="42.82542" lon="0.88381">
        <ele>2231.9</ele>
        <time>2018-11-24T07:19:23Z</time>
      </trkpt>
      <trkpt lat="42.82539" lon="0.88369">
        <ele>2232.4</ele>
        <time>2018-11-24T07:19:26Z</time>
      </trkpt>
      <trkpt lat="42.82536" lon="0.88362">
        <ele>2233.3</ele>
        <time>2018-11-24T07:19:29Z</time>
      </trkpt>
      <trkpt lat="42.82532" lon="0.88346">
        <ele>2235.2</ele>
        <time>2018-11-24T07:19:34Z</time>
      </trkpt>
      <trkpt lat="42.82531" lon="0.88343">
        <ele>2235.3</ele>
        <time>2018-11-24T07:19:35Z</time>
      </trkpt>
      <trkpt lat="42.82527" lon="0.88325">
        <ele>2237.1</ele>
        <time>2018-11-24T07:19:40Z</time>
      </trkpt>
      <trkpt lat="42.82518" lon="0.88308">
        <ele>2238.6</ele>
        <time>2018-11-24T07:19:46Z</time>
      </trkpt>
      <trkpt lat="42.82511" lon="0.8829">
        <ele>2240.5</ele>
        <time>2018-11-24T07:19:52Z</time>
      </trkpt>
      <trkpt lat="42.82508" lon="0.88281">
        <ele>2240.6</ele>
        <time>2018-11-24T07:19:55Z</time>
      </trkpt>
      <trkpt lat="42.82501" lon="0.88253">
        <ele>2242.5</ele>
        <time>2018-11-24T07:20:04Z</time>
      </trkpt>
      <trkpt lat="42.82498" lon="0.88238">
        <ele>2243.9</ele>
        <time>2018-11-24T07:20:08Z</time>
      </trkpt>
      <trkpt lat="42.82492" lon="0.88229">
        <ele>2245.3</ele>
        <time>2018-11-24T07:20:12Z</time>
      </trkpt>
      <trkpt lat="42.82487" lon="0.88216">
        <ele>2245.8</ele>
        <time>2018-11-24T07:20:16Z</time>
      </trkpt>
      <trkpt lat="42.82486" lon="0.88213">
        <ele>2246.4</ele>
        <time>2018-11-24T07:20:17Z</time>
      </trkpt>
      <trkpt lat="42.82478" lon="0.88197">
        <ele>2248.7</ele>
        <time>2018-11-24T07:20:23Z</time>
      </trkpt>
      <trkpt lat="42.82468" lon="0.88183">
        <ele>2250.6</ele>
        <time>2018-11-24T07:20:29Z</time>
      </trkpt>
      <trkpt lat="42.82457" lon="0.88169">
        <ele>2253.1</ele>
        <time>2018-11-24T07:20:35Z</time>
      </trkpt>
      <trkpt lat="42.82451" lon="0.88168">
        <ele>2253.6</ele>
        <time>2018-11-24T07:20:37Z</time>
      </trkpt>
      <trkpt lat="42.82438" lon="0.88166">
        <ele>2256.4</ele>
        <time>2018-11-24T07:20:42Z</time>
      </trkpt>
      <trkpt lat="42.82433" lon="0.88164">
        <ele>2258.3</ele>
        <time>2018-11-24T07:20:44Z</time>
      </trkpt>
      <trkpt lat="42.82435" lon="0.88165">
        <ele>2259.2</ele>
        <time>2018-11-24T07:20:45Z</time>
      </trkpt>
      <trkpt lat="42.82432" lon="0.88161">
        <ele>2259.3</ele>
        <time>2018-11-24T07:20:47Z</time>
      </trkpt>
      <trkpt lat="42.82424" lon="0.8816">
        <ele>2259.2</ele>
        <time>2018-11-24T07:20:50Z</time>
      </trkpt>
      <trkpt lat="42.82407" lon="0.88152">
        <ele>2262.2</ele>
        <time>2018-11-24T07:20:57Z</time>
      </trkpt>
      <trkpt lat="42.82395" lon="0.88143">
        <ele>2264</ele>
        <time>2018-11-24T07:21:03Z</time>
      </trkpt>
      <trkpt lat="42.82381" lon="0.88136">
        <ele>2266</ele>
        <time>2018-11-24T07:21:09Z</time>
      </trkpt>
      <trkpt lat="42.82376" lon="0.88132">
        <ele>2266</ele>
        <time>2018-11-24T07:21:11Z</time>
      </trkpt>
      <trkpt lat="42.82358" lon="0.88126">
        <ele>2267.9</ele>
        <time>2018-11-24T07:21:18Z</time>
      </trkpt>
      <trkpt lat="42.82344" lon="0.88123">
        <ele>2268.8</ele>
        <time>2018-11-24T07:21:24Z</time>
      </trkpt>
      <trkpt lat="42.82338" lon="0.8812">
        <ele>2269.8</ele>
        <time>2018-11-24T07:21:27Z</time>
      </trkpt>
      <trkpt lat="42.8233" lon="0.88113">
        <ele>2271.8</ele>
        <time>2018-11-24T07:21:30Z</time>
      </trkpt>
      <trkpt lat="42.82321" lon="0.88107">
        <ele>2273.7</ele>
        <time>2018-11-24T07:21:34Z</time>
      </trkpt>
      <trkpt lat="42.82309" lon="0.88098">
        <ele>2274.6</ele>
        <time>2018-11-24T07:21:40Z</time>
      </trkpt>
      <trkpt lat="42.82305" lon="0.88096">
        <ele>2273.2</ele>
        <time>2018-11-24T07:21:41Z</time>
      </trkpt>
      <trkpt lat="42.82296" lon="0.8809">
        <ele>2275.1</ele>
        <time>2018-11-24T07:21:46Z</time>
      </trkpt>
      <trkpt lat="42.82292" lon="0.88077">
        <ele>2275.7</ele>
        <time>2018-11-24T07:21:50Z</time>
      </trkpt>
      <trkpt lat="42.82287" lon="0.88057">
        <ele>2276.2</ele>
        <time>2018-11-24T07:21:56Z</time>
      </trkpt>
      <trkpt lat="42.82287" lon="0.88054">
        <ele>2276.5</ele>
        <time>2018-11-24T07:21:57Z</time>
      </trkpt>
      <trkpt lat="42.8228" lon="0.88039">
        <ele>2277.5</ele>
        <time>2018-11-24T07:22:02Z</time>
      </trkpt>
      <trkpt lat="42.82268" lon="0.88028">
        <ele>2278.5</ele>
        <time>2018-11-24T07:22:08Z</time>
      </trkpt>
      <trkpt lat="42.82256" lon="0.88023">
        <ele>2280</ele>
        <time>2018-11-24T07:22:13Z</time>
      </trkpt>
      <trkpt lat="42.82255" lon="0.88023">
        <ele>2279.9</ele>
        <time>2018-11-24T07:22:13Z</time>
      </trkpt>
      <trkpt lat="42.8225" lon="0.88027">
        <ele>2281</ele>
        <time>2018-11-24T07:22:15Z</time>
      </trkpt>
      <trkpt lat="42.82248" lon="0.8803">
        <ele>2279.4</ele>
        <time>2018-11-24T07:22:17Z</time>
      </trkpt>
      <trkpt lat="42.82243" lon="0.88033">
        <ele>2281</ele>
        <time>2018-11-24T07:22:19Z</time>
      </trkpt>
      <trkpt lat="42.82232" lon="0.88026">
        <ele>2281.5</ele>
        <time>2018-11-24T07:22:24Z</time>
      </trkpt>
      <trkpt lat="42.8222" lon="0.88023">
        <ele>2283.4</ele>
        <time>2018-11-24T07:22:28Z</time>
      </trkpt>
      <trkpt lat="42.82214" lon="0.88027">
        <ele>2285.8</ele>
        <time>2018-11-24T07:22:31Z</time>
      </trkpt>
      <trkpt lat="42.82213" lon="0.88029">
        <ele>2286.7</ele>
        <time>2018-11-24T07:22:32Z</time>
      </trkpt>
      <trkpt lat="42.82206" lon="0.88032">
        <ele>2288.1</ele>
        <time>2018-11-24T07:22:35Z</time>
      </trkpt>
      <trkpt lat="42.82201" lon="0.88026">
        <ele>2291.4</ele>
        <time>2018-11-24T07:22:37Z</time>
      </trkpt>
      <trkpt lat="42.82202" lon="0.88029">
        <ele>2292.4</ele>
        <time>2018-11-24T07:22:38Z</time>
      </trkpt>
      <trkpt lat="42.822" lon="0.88019">
        <ele>2293.4</ele>
        <time>2018-11-24T07:22:41Z</time>
      </trkpt>
      <trkpt lat="42.82194" lon="0.88023">
        <ele>2295.9</ele>
        <time>2018-11-24T07:22:44Z</time>
      </trkpt>
      <trkpt lat="42.82188" lon="0.88028">
        <ele>2298.2</ele>
        <time>2018-11-24T07:22:47Z</time>
      </trkpt>
      <trkpt lat="42.82189" lon="0.88032">
        <ele>2298.2</ele>
        <time>2018-11-24T07:22:49Z</time>
      </trkpt>
      <trkpt lat="42.82188" lon="0.88034">
        <ele>2298.2</ele>
        <time>2018-11-24T07:22:49Z</time>
      </trkpt>
      <trkpt lat="42.82184" lon="0.88035">
        <ele>2298.2</ele>
        <time>2018-11-24T07:22:51Z</time>
      </trkpt>
      <trkpt lat="42.82173" lon="0.88044">
        <ele>2299.6</ele>
        <time>2018-11-24T07:22:56Z</time>
      </trkpt>
      <trkpt lat="42.82165" lon="0.88048">
        <ele>2303.1</ele>
        <time>2018-11-24T07:22:59Z</time>
      </trkpt>
      <trkpt lat="42.82154" lon="0.88046">
        <ele>2304.5</ele>
        <time>2018-11-24T07:23:04Z</time>
      </trkpt>
      <trkpt lat="42.82142" lon="0.88049">
        <ele>2306.9</ele>
        <time>2018-11-24T07:23:08Z</time>
      </trkpt>
      <trkpt lat="42.82137" lon="0.88051">
        <ele>2307.3</ele>
        <time>2018-11-24T07:23:11Z</time>
      </trkpt>
      <trkpt lat="42.82133" lon="0.8805">
        <ele>2308.7</ele>
        <time>2018-11-24T07:23:12Z</time>
      </trkpt>
      <trkpt lat="42.82133" lon="0.88052">
        <ele>2309.7</ele>
        <time>2018-11-24T07:23:13Z</time>
      </trkpt>
      <trkpt lat="42.82131" lon="0.88054">
        <ele>2309.3</ele>
        <time>2018-11-24T07:23:14Z</time>
      </trkpt>
      <trkpt lat="42.82131" lon="0.88054">
        <ele>2310.8</ele>
        <time>2018-11-24T07:23:14Z</time>
      </trkpt>
      <trkpt lat="42.8213" lon="0.88054">
        <ele>2310.8</ele>
        <time>2018-11-24T07:23:14Z</time>
      </trkpt>
      <trkpt lat="42.82124" lon="0.88052">
        <ele>2312.2</ele>
        <time>2018-11-24T07:23:17Z</time>
      </trkpt>
      <trkpt lat="42.82123" lon="0.88051">
        <ele>2312.2</ele>
        <time>2018-11-24T07:23:17Z</time>
      </trkpt>
      <trkpt lat="42.82118" lon="0.88046">
        <ele>2314</ele>
        <time>2018-11-24T07:23:20Z</time>
      </trkpt>
      <trkpt lat="42.82111" lon="0.88041">
        <ele>2315.5</ele>
        <time>2018-11-24T07:23:23Z</time>
      </trkpt>
      <trkpt lat="42.82102" lon="0.88043">
        <ele>2318.8</ele>
        <time>2018-11-24T07:23:26Z</time>
      </trkpt>
      <trkpt lat="42.821" lon="0.88043">
        <ele>2320.4</ele>
        <time>2018-11-24T07:23:27Z</time>
      </trkpt>
      <trkpt lat="42.82101" lon="0.88046">
        <ele>2320.3</ele>
        <time>2018-11-24T07:23:28Z</time>
      </trkpt>
      <trkpt lat="42.82103" lon="0.88044">
        <ele>2321.7</ele>
        <time>2018-11-24T07:23:29Z</time>
      </trkpt>
      <trkpt lat="42.82101" lon="0.8804">
        <ele>2322.3</ele>
        <time>2018-11-24T07:23:30Z</time>
      </trkpt>
      <trkpt lat="42.82094" lon="0.88035">
        <ele>2323.7</ele>
        <time>2018-11-24T07:23:33Z</time>
      </trkpt>
      <trkpt lat="42.82091" lon="0.88025">
        <ele>2325.7</ele>
        <time>2018-11-24T07:23:37Z</time>
      </trkpt>
      <trkpt lat="42.82091" lon="0.88024">
        <ele>2324.1</ele>
        <time>2018-11-24T07:23:37Z</time>
      </trkpt>
      <trkpt lat="42.8209" lon="0.88024">
        <ele>2325.6</ele>
        <time>2018-11-24T07:23:38Z</time>
      </trkpt>
      <trkpt lat="42.82087" lon="0.8802">
        <ele>2326.6</ele>
        <time>2018-11-24T07:23:39Z</time>
      </trkpt>
      <trkpt lat="42.82083" lon="0.88015">
        <ele>2328.9</ele>
        <time>2018-11-24T07:23:41Z</time>
      </trkpt>
      <trkpt lat="42.82084" lon="0.88008">
        <ele>2331.3</ele>
        <time>2018-11-24T07:23:44Z</time>
      </trkpt>
      <trkpt lat="42.82083" lon="0.88001">
        <ele>2333.4</ele>
        <time>2018-11-24T07:23:46Z</time>
      </trkpt>
      <trkpt lat="42.82081" lon="0.87995">
        <ele>2336.2</ele>
        <time>2018-11-24T07:23:47Z</time>
      </trkpt>
      <trkpt lat="42.8208" lon="0.87988">
        <ele>2338.1</ele>
        <time>2018-11-24T07:23:50Z</time>
      </trkpt>
      <trkpt lat="42.82079" lon="0.87979">
        <ele>2339.5</ele>
        <time>2018-11-24T07:23:52Z</time>
      </trkpt>
      <trkpt lat="42.82076" lon="0.87973">
        <ele>2342.5</ele>
        <time>2018-11-24T07:23:54Z</time>
      </trkpt>
      <trkpt lat="42.82074" lon="0.87965">
        <ele>2344.9</ele>
        <time>2018-11-24T07:23:57Z</time>
      </trkpt>
      <trkpt lat="42.82068" lon="0.87965">
        <ele>2348.2</ele>
        <time>2018-11-24T07:24:00Z</time>
      </trkpt>
      <trkpt lat="42.82062" lon="0.87973">
        <ele>2351</ele>
        <time>2018-11-24T07:24:03Z</time>
      </trkpt>
      <trkpt lat="42.82061" lon="0.87974">
        <ele>2352.5</ele>
        <time>2018-11-24T07:24:03Z</time>
      </trkpt>
      <trkpt lat="42.8206" lon="0.87973">
        <ele>2353.5</ele>
        <time>2018-11-24T07:24:04Z</time>
      </trkpt>
      <trkpt lat="42.82055" lon="0.87978">
        <ele>2355.9</ele>
        <time>2018-11-24T07:24:06Z</time>
      </trkpt>
      <trkpt lat="42.82057" lon="0.87979">
        <ele>2354.5</ele>
        <time>2018-11-24T07:24:07Z</time>
      </trkpt>
      <trkpt lat="42.82058" lon="0.87981">
        <ele>2353.4</ele>
        <time>2018-11-24T07:24:08Z</time>
      </trkpt>
      <trkpt lat="42.82056" lon="0.87978">
        <ele>2353.1</ele>
        <time>2018-11-24T07:24:09Z</time>
      </trkpt>
      <trkpt lat="42.82054" lon="0.87977">
        <ele>2354.9</ele>
        <time>2018-11-24T07:24:10Z</time>
      </trkpt>
      <trkpt lat="42.82049" lon="0.87964">
        <ele>2355.8</ele>
        <time>2018-11-24T07:24:15Z</time>
      </trkpt>
      <trkpt lat="42.82043" lon="0.87958">
        <ele>2358.7</ele>
        <time>2018-11-24T07:24:18Z</time>
      </trkpt>
      <trkpt lat="42.82038" lon="0.87957">
        <ele>2362.2</ele>
        <time>2018-11-24T07:24:19Z</time>
      </trkpt>
      <trkpt lat="42.82039" lon="0.87958">
        <ele>2360.7</ele>
        <time>2018-11-24T07:24:20Z</time>
      </trkpt>
      <trkpt lat="42.82033" lon="0.87965">
        <ele>2363.6</ele>
        <time>2018-11-24T07:24:23Z</time>
      </trkpt>
      <trkpt lat="42.8203" lon="0.87966">
        <ele>2366</ele>
        <time>2018-11-24T07:24:25Z</time>
      </trkpt>
      <trkpt lat="42.82025" lon="0.87965">
        <ele>2369.4</ele>
        <time>2018-11-24T07:24:26Z</time>
      </trkpt>
      <trkpt lat="42.82019" lon="0.87968">
        <ele>2371.7</ele>
        <time>2018-11-24T07:24:29Z</time>
      </trkpt>
      <trkpt lat="42.82016" lon="0.87971">
        <ele>2373.3</ele>
        <time>2018-11-24T07:24:31Z</time>
      </trkpt>
      <trkpt lat="42.82009" lon="0.8797">
        <ele>2376.6</ele>
        <time>2018-11-24T07:24:33Z</time>
      </trkpt>
      <trkpt lat="42.82013" lon="0.87966">
        <ele>2377.5</ele>
        <time>2018-11-24T07:24:35Z</time>
      </trkpt>
      <trkpt lat="42.8201" lon="0.87975">
        <ele>2376.5</ele>
        <time>2018-11-24T07:24:38Z</time>
      </trkpt>
      <trkpt lat="42.82011" lon="0.87982">
        <ele>2376</ele>
        <time>2018-11-24T07:24:40Z</time>
      </trkpt>
      <trkpt lat="42.8201" lon="0.87981">
        <ele>2376</ele>
        <time>2018-11-24T07:24:40Z</time>
      </trkpt>
      <trkpt lat="42.82012" lon="0.87977">
        <ele>2375.7</ele>
        <time>2018-11-24T07:24:42Z</time>
      </trkpt>
      <trkpt lat="42.82013" lon="0.8798">
        <ele>2376.6</ele>
        <time>2018-11-24T07:24:43Z</time>
      </trkpt>
      <trkpt lat="42.82013" lon="0.87979">
        <ele>2375.1</ele>
        <time>2018-11-24T07:24:43Z</time>
      </trkpt>
      <trkpt lat="42.82015" lon="0.87979">
        <ele>2375.1</ele>
        <time>2018-11-24T07:24:43Z</time>
      </trkpt>
      <trkpt lat="42.82013" lon="0.87975">
        <ele>2375.2</ele>
        <time>2018-11-24T07:24:45Z</time>
      </trkpt>
      <trkpt lat="42.8201" lon="0.8797">
        <ele>2375.1</ele>
        <time>2018-11-24T07:24:47Z</time>
      </trkpt>
      <trkpt lat="42.82013" lon="0.87962">
        <ele>2376.1</ele>
        <time>2018-11-24T07:24:50Z</time>
      </trkpt>
      <trkpt lat="42.82013" lon="0.87957">
        <ele>2376.6</ele>
        <time>2018-11-24T07:24:51Z</time>
      </trkpt>
      <trkpt lat="42.82014" lon="0.87952">
        <ele>2377.6</ele>
        <time>2018-11-24T07:24:52Z</time>
      </trkpt>
      <trkpt lat="42.82013" lon="0.87947">
        <ele>2378.9</ele>
        <time>2018-11-24T07:24:54Z</time>
      </trkpt>
      <trkpt lat="42.82014" lon="0.87947">
        <ele>2379.4</ele>
        <time>2018-11-24T07:24:54Z</time>
      </trkpt>
      <trkpt lat="42.82013" lon="0.87948">
        <ele>2378.5</ele>
        <time>2018-11-24T07:24:55Z</time>
      </trkpt>
      <trkpt lat="42.82014" lon="0.87943">
        <ele>2379.4</ele>
        <time>2018-11-24T07:24:56Z</time>
      </trkpt>
      <trkpt lat="42.82011" lon="0.87945">
        <ele>2379.9</ele>
        <time>2018-11-24T07:24:58Z</time>
      </trkpt>
      <trkpt lat="42.82014" lon="0.87945">
        <ele>2380.5</ele>
        <time>2018-11-24T07:24:58Z</time>
      </trkpt>
      <trkpt lat="42.82013" lon="0.87945">
        <ele>2378.1</ele>
        <time>2018-11-24T07:24:59Z</time>
      </trkpt>
      <trkpt lat="42.8201" lon="0.87948">
        <ele>2379.9</ele>
        <time>2018-11-24T07:25:00Z</time>
      </trkpt>
      <trkpt lat="42.8201" lon="0.87948">
        <ele>2378.5</ele>
        <time>2018-11-24T07:25:00Z</time>
      </trkpt>
      <trkpt lat="42.82008" lon="0.87948">
        <ele>2379.5</ele>
        <time>2018-11-24T07:25:01Z</time>
      </trkpt>
      <trkpt lat="42.82007" lon="0.87946">
        <ele>2380.5</ele>
        <time>2018-11-24T07:25:02Z</time>
      </trkpt>
      <trkpt lat="42.82008" lon="0.87945">
        <ele>2380.5</ele>
        <time>2018-11-24T07:25:02Z</time>
      </trkpt>
      <trkpt lat="42.82016" lon="0.87937">
        <ele>2381.8</ele>
        <time>2018-11-24T07:25:06Z</time>
      </trkpt>
      <trkpt lat="42.82018" lon="0.87927">
        <ele>2380.8</ele>
        <time>2018-11-24T07:25:09Z</time>
      </trkpt>
      <trkpt lat="42.82019" lon="0.87926">
        <ele>2383.8</ele>
        <time>2018-11-24T07:25:10Z</time>
      </trkpt>
      <trkpt lat="42.82019" lon="0.87925">
        <ele>2382.4</ele>
        <time>2018-11-24T07:25:10Z</time>
      </trkpt>
      <trkpt lat="42.82018" lon="0.87926">
        <ele>2381.8</ele>
        <time>2018-11-24T07:25:10Z</time>
      </trkpt>
      <trkpt lat="42.82019" lon="0.87927">
        <ele>2383.7</ele>
        <time>2018-11-24T07:25:10Z</time>
      </trkpt>
      <trkpt lat="42.82018" lon="0.87927">
        <ele>2382.3</ele>
        <time>2018-11-24T07:25:11Z</time>
      </trkpt>
      <trkpt lat="42.82016" lon="0.87927">
        <ele>2382.8</ele>
        <time>2018-11-24T07:25:11Z</time>
      </trkpt>
      <trkpt lat="42.82017" lon="0.87926">
        <ele>2385.6</ele>
        <time>2018-11-24T07:25:12Z</time>
      </trkpt>
      <trkpt lat="42.82017" lon="0.87926">
        <ele>2384.3</ele>
        <time>2018-11-24T07:25:12Z</time>
      </trkpt>
      <trkpt lat="42.82016" lon="0.87924">
        <ele>2381.9</ele>
        <time>2018-11-24T07:25:13Z</time>
      </trkpt>
      <trkpt lat="42.82016" lon="0.87916">
        <ele>2381.4</ele>
        <time>2018-11-24T07:25:15Z</time>
      </trkpt>
      <trkpt lat="42.82016" lon="0.87912">
        <ele>2380.4</ele>
        <time>2018-11-24T07:25:16Z</time>
      </trkpt>
      <trkpt lat="42.82017" lon="0.87904">
        <ele>2380.4</ele>
        <time>2018-11-24T07:25:19Z</time>
      </trkpt>
      <trkpt lat="42.82012" lon="0.87886">
        <ele>2379.4</ele>
        <time>2018-11-24T07:25:24Z</time>
      </trkpt>
      <trkpt lat="42.82002" lon="0.87863">
        <ele>2379.5</ele>
        <time>2018-11-24T07:25:32Z</time>
      </trkpt>
      <trkpt lat="42.82001" lon="0.87859">
        <ele>2379.5</ele>
        <time>2018-11-24T07:25:33Z</time>
      </trkpt>
      <trkpt lat="42.81996" lon="0.87841">
        <ele>2379.4</ele>
        <time>2018-11-24T07:25:39Z</time>
      </trkpt>
      <trkpt lat="42.81995" lon="0.87822">
        <ele>2380</ele>
        <time>2018-11-24T07:25:45Z</time>
      </trkpt>
      <trkpt lat="42.81997" lon="0.87793">
        <ele>2378.1</ele>
        <time>2018-11-24T07:25:53Z</time>
      </trkpt>
      <trkpt lat="42.81994" lon="0.87781">
        <ele>2378</ele>
        <time>2018-11-24T07:25:57Z</time>
      </trkpt>
      <trkpt lat="42.81992" lon="0.87779">
        <ele>2379.5</ele>
        <time>2018-11-24T07:25:58Z</time>
      </trkpt>
      <trkpt lat="42.81989" lon="0.87776">
        <ele>2379.4</ele>
        <time>2018-11-24T07:25:59Z</time>
      </trkpt>
      <trkpt lat="42.81986" lon="0.87767">
        <ele>2378</ele>
        <time>2018-11-24T07:26:03Z</time>
      </trkpt>
      <trkpt lat="42.81986" lon="0.87764">
        <ele>2379.4</ele>
        <time>2018-11-24T07:26:03Z</time>
      </trkpt>
      <trkpt lat="42.81985" lon="0.87755">
        <ele>2378.4</ele>
        <time>2018-11-24T07:26:06Z</time>
      </trkpt>
      <trkpt lat="42.81983" lon="0.87742">
        <ele>2379.5</ele>
        <time>2018-11-24T07:26:10Z</time>
      </trkpt>
      <trkpt lat="42.81983" lon="0.87737">
        <ele>2378.5</ele>
        <time>2018-11-24T07:26:11Z</time>
      </trkpt>
      <trkpt lat="42.81984" lon="0.87731">
        <ele>2378.4</ele>
        <time>2018-11-24T07:26:13Z</time>
      </trkpt>
      <trkpt lat="42.81982" lon="0.87714">
        <ele>2377.1</ele>
        <time>2018-11-24T07:26:18Z</time>
      </trkpt>
      <trkpt lat="42.81981" lon="0.87703">
        <ele>2373.7</ele>
        <time>2018-11-24T07:26:22Z</time>
      </trkpt>
      <trkpt lat="42.81979" lon="0.87693">
        <ele>2375.1</ele>
        <time>2018-11-24T07:26:24Z</time>
      </trkpt>
      <trkpt lat="42.81978" lon="0.87689">
        <ele>2373.7</ele>
        <time>2018-11-24T07:26:26Z</time>
      </trkpt>
      <trkpt lat="42.81979" lon="0.87665">
        <ele>2371.3</ele>
        <time>2018-11-24T07:26:33Z</time>
      </trkpt>
      <trkpt lat="42.81978" lon="0.87659">
        <ele>2370.8</ele>
        <time>2018-11-24T07:26:34Z</time>
      </trkpt>
      <trkpt lat="42.81979" lon="0.87656">
        <ele>2370.4</ele>
        <time>2018-11-24T07:26:35Z</time>
      </trkpt>
      <trkpt lat="42.81978" lon="0.8765">
        <ele>2370.8</ele>
        <time>2018-11-24T07:26:37Z</time>
      </trkpt>
      <trkpt lat="42.81978" lon="0.87646">
        <ele>2370.8</ele>
        <time>2018-11-24T07:26:38Z</time>
      </trkpt>
      <trkpt lat="42.81974" lon="0.87634">
        <ele>2370.4</ele>
        <time>2018-11-24T07:26:42Z</time>
      </trkpt>
      <trkpt lat="42.81968" lon="0.87622">
        <ele>2368.9</ele>
        <time>2018-11-24T07:26:47Z</time>
      </trkpt>
      <trkpt lat="42.81967" lon="0.8762">
        <ele>2368.8</ele>
        <time>2018-11-24T07:26:47Z</time>
      </trkpt>
      <trkpt lat="42.81964" lon="0.87613">
        <ele>2368.9</ele>
        <time>2018-11-24T07:26:50Z</time>
      </trkpt>
      <trkpt lat="42.81957" lon="0.87591">
        <ele>2366.5</ele>
        <time>2018-11-24T07:26:57Z</time>
      </trkpt>
      <trkpt lat="42.81957" lon="0.87565">
        <ele>2364.6</ele>
        <time>2018-11-24T07:27:04Z</time>
      </trkpt>
      <trkpt lat="42.81956" lon="0.87562">
        <ele>2364.5</ele>
        <time>2018-11-24T07:27:05Z</time>
      </trkpt>
      <trkpt lat="42.81954" lon="0.87557">
        <ele>2364.6</ele>
        <time>2018-11-24T07:27:07Z</time>
      </trkpt>
      <trkpt lat="42.81948" lon="0.87556">
        <ele>2364.1</ele>
        <time>2018-11-24T07:27:09Z</time>
      </trkpt>
      <trkpt lat="42.8193" lon="0.87548">
        <ele>2363.6</ele>
        <time>2018-11-24T07:27:17Z</time>
      </trkpt>
      <trkpt lat="42.81923" lon="0.87548">
        <ele>2365</ele>
        <time>2018-11-24T07:27:20Z</time>
      </trkpt>
      <trkpt lat="42.81913" lon="0.87547">
        <ele>2368.4</ele>
        <time>2018-11-24T07:27:24Z</time>
      </trkpt>
      <trkpt lat="42.81915" lon="0.87553">
        <ele>2369.4</ele>
        <time>2018-11-24T07:27:26Z</time>
      </trkpt>
      <trkpt lat="42.81916" lon="0.87552">
        <ele>2369.9</ele>
        <time>2018-11-24T07:27:26Z</time>
      </trkpt>
      <trkpt lat="42.81907" lon="0.87542">
        <ele>2372.7</ele>
        <time>2018-11-24T07:27:31Z</time>
      </trkpt>
      <trkpt lat="42.81896" lon="0.87532">
        <ele>2375.1</ele>
        <time>2018-11-24T07:27:37Z</time>
      </trkpt>
      <trkpt lat="42.81889" lon="0.87525">
        <ele>2376.1</ele>
        <time>2018-11-24T07:27:40Z</time>
      </trkpt>
      <trkpt lat="42.81879" lon="0.87514">
        <ele>2378.5</ele>
        <time>2018-11-24T07:27:45Z</time>
      </trkpt>
      <trkpt lat="42.81873" lon="0.87506">
        <ele>2379.4</ele>
        <time>2018-11-24T07:27:49Z</time>
      </trkpt>
      <trkpt lat="42.81867" lon="0.87511">
        <ele>2382.3</ele>
        <time>2018-11-24T07:27:51Z</time>
      </trkpt>
      <trkpt lat="42.81863" lon="0.87517">
        <ele>2385.2</ele>
        <time>2018-11-24T07:27:54Z</time>
      </trkpt>
      <trkpt lat="42.81862" lon="0.87526">
        <ele>2386.2</ele>
        <time>2018-11-24T07:27:56Z</time>
      </trkpt>
      <trkpt lat="42.81863" lon="0.87526">
        <ele>2386.1</ele>
        <time>2018-11-24T07:27:57Z</time>
      </trkpt>
      <trkpt lat="42.81854" lon="0.87533">
        <ele>2386.1</ele>
        <time>2018-11-24T07:28:00Z</time>
      </trkpt>
      <trkpt lat="42.81839" lon="0.87546">
        <ele>2386.1</ele>
        <time>2018-11-24T07:28:08Z</time>
      </trkpt>
      <trkpt lat="42.81834" lon="0.87558">
        <ele>2387.2</ele>
        <time>2018-11-24T07:28:12Z</time>
      </trkpt>
      <trkpt lat="42.8183" lon="0.8758">
        <ele>2388.2</ele>
        <time>2018-11-24T07:28:19Z</time>
      </trkpt>
      <trkpt lat="42.81828" lon="0.87585">
        <ele>2388.2</ele>
        <time>2018-11-24T07:28:20Z</time>
      </trkpt>
      <trkpt lat="42.81825" lon="0.8759">
        <ele>2386.7</ele>
        <time>2018-11-24T07:28:22Z</time>
      </trkpt>
      <trkpt lat="42.8181" lon="0.87598">
        <ele>2385.6</ele>
        <time>2018-11-24T07:28:29Z</time>
      </trkpt>
      <trkpt lat="42.81799" lon="0.87605">
        <ele>2386.7</ele>
        <time>2018-11-24T07:28:33Z</time>
      </trkpt>
      <trkpt lat="42.81797" lon="0.87605">
        <ele>2387.2</ele>
        <time>2018-11-24T07:28:34Z</time>
      </trkpt>
      <trkpt lat="42.81783" lon="0.87601">
        <ele>2390</ele>
        <time>2018-11-24T07:28:40Z</time>
      </trkpt>
      <trkpt lat="42.81782" lon="0.87598">
        <ele>2388.5</ele>
        <time>2018-11-24T07:28:41Z</time>
      </trkpt>
      <trkpt lat="42.81783" lon="0.87594">
        <ele>2390</ele>
        <time>2018-11-24T07:28:42Z</time>
      </trkpt>
      <trkpt lat="42.81789" lon="0.87586">
        <ele>2391.4</ele>
        <time>2018-11-24T07:28:45Z</time>
      </trkpt>
      <trkpt lat="42.81788" lon="0.87584">
        <ele>2391.4</ele>
        <time>2018-11-24T07:28:46Z</time>
      </trkpt>
      <trkpt lat="42.81787" lon="0.87581">
        <ele>2390.1</ele>
        <time>2018-11-24T07:28:47Z</time>
      </trkpt>
      <trkpt lat="42.81785" lon="0.87578">
        <ele>2390</ele>
        <time>2018-11-24T07:28:48Z</time>
      </trkpt>
      <trkpt lat="42.81783" lon="0.87562">
        <ele>2390.1</ele>
        <time>2018-11-24T07:28:53Z</time>
      </trkpt>
      <trkpt lat="42.81783" lon="0.87561">
        <ele>2391.4</ele>
        <time>2018-11-24T07:28:53Z</time>
      </trkpt>
      <trkpt lat="42.81777" lon="0.87554">
        <ele>2390.5</ele>
        <time>2018-11-24T07:28:56Z</time>
      </trkpt>
      <trkpt lat="42.81776" lon="0.87553">
        <ele>2390.6</ele>
        <time>2018-11-24T07:28:57Z</time>
      </trkpt>
      <trkpt lat="42.81753" lon="0.87545">
        <ele>2388.2</ele>
        <time>2018-11-24T07:29:06Z</time>
      </trkpt>
      <trkpt lat="42.81736" lon="0.87544">
        <ele>2386.1</ele>
        <time>2018-11-24T07:29:13Z</time>
      </trkpt>
      <trkpt lat="42.81728" lon="0.87543">
        <ele>2385.7</ele>
        <time>2018-11-24T07:29:16Z</time>
      </trkpt>
      <trkpt lat="42.81723" lon="0.87544">
        <ele>2385.2</ele>
        <time>2018-11-24T07:29:18Z</time>
      </trkpt>
      <trkpt lat="42.81716" lon="0.87535">
        <ele>2383.7</ele>
        <time>2018-11-24T07:29:22Z</time>
      </trkpt>
      <trkpt lat="42.81711" lon="0.87524">
        <ele>2380.4</ele>
        <time>2018-11-24T07:29:26Z</time>
      </trkpt>
      <trkpt lat="42.8171" lon="0.87521">
        <ele>2380</ele>
        <time>2018-11-24T07:29:27Z</time>
      </trkpt>
      <trkpt lat="42.81699" lon="0.87511">
        <ele>2378.4</ele>
        <time>2018-11-24T07:29:32Z</time>
      </trkpt>
      <trkpt lat="42.81695" lon="0.87513">
        <ele>2380</ele>
        <time>2018-11-24T07:29:33Z</time>
      </trkpt>
      <trkpt lat="42.81693" lon="0.87513">
        <ele>2379.9</ele>
        <time>2018-11-24T07:29:34Z</time>
      </trkpt>
      <trkpt lat="42.81687" lon="0.87519">
        <ele>2380.8</ele>
        <time>2018-11-24T07:29:37Z</time>
      </trkpt>
      <trkpt lat="42.81682" lon="0.87532">
        <ele>2382.4</ele>
        <time>2018-11-24T07:29:42Z</time>
      </trkpt>
      <trkpt lat="42.81677" lon="0.8754">
        <ele>2382.4</ele>
        <time>2018-11-24T07:29:44Z</time>
      </trkpt>
      <trkpt lat="42.81666" lon="0.87543">
        <ele>2383.8</ele>
        <time>2018-11-24T07:29:49Z</time>
      </trkpt>
      <trkpt lat="42.81655" lon="0.87545">
        <ele>2385.7</ele>
        <time>2018-11-24T07:29:53Z</time>
      </trkpt>
      <trkpt lat="42.81645" lon="0.87547">
        <ele>2385.6</ele>
        <time>2018-11-24T07:29:57Z</time>
      </trkpt>
      <trkpt lat="42.8164" lon="0.8755">
        <ele>2385.6</ele>
        <time>2018-11-24T07:30:00Z</time>
      </trkpt>
      <trkpt lat="42.81634" lon="0.87554">
        <ele>2385.6</ele>
        <time>2018-11-24T07:30:02Z</time>
      </trkpt>
      <trkpt lat="42.8163" lon="0.87557">
        <ele>2385.7</ele>
        <time>2018-11-24T07:30:04Z</time>
      </trkpt>
      <trkpt lat="42.81623" lon="0.87558">
        <ele>2385.7</ele>
        <time>2018-11-24T07:30:07Z</time>
      </trkpt>
      <trkpt lat="42.81608" lon="0.87563">
        <ele>2385.7</ele>
        <time>2018-11-24T07:30:13Z</time>
      </trkpt>
      <trkpt lat="42.81597" lon="0.87568">
        <ele>2385.6</ele>
        <time>2018-11-24T07:30:18Z</time>
      </trkpt>
      <trkpt lat="42.81587" lon="0.87573">
        <ele>2382.9</ele>
        <time>2018-11-24T07:30:22Z</time>
      </trkpt>
      <trkpt lat="42.81585" lon="0.87582">
        <ele>2384.3</ele>
        <time>2018-11-24T07:30:25Z</time>
      </trkpt>
      <trkpt lat="42.8158" lon="0.87589">
        <ele>2384.2</ele>
        <time>2018-11-24T07:30:27Z</time>
      </trkpt>
      <trkpt lat="42.81578" lon="0.87594">
        <ele>2382.9</ele>
        <time>2018-11-24T07:30:29Z</time>
      </trkpt>
      <trkpt lat="42.8157" lon="0.87609">
        <ele>2381.8</ele>
        <time>2018-11-24T07:30:35Z</time>
      </trkpt>
      <trkpt lat="42.81569" lon="0.8761">
        <ele>2383.3</ele>
        <time>2018-11-24T07:30:35Z</time>
      </trkpt>
      <trkpt lat="42.81567" lon="0.87625">
        <ele>2384.2</ele>
        <time>2018-11-24T07:30:40Z</time>
      </trkpt>
      <trkpt lat="42.81567" lon="0.87627">
        <ele>2384.3</ele>
        <time>2018-11-24T07:30:40Z</time>
      </trkpt>
      <trkpt lat="42.8157" lon="0.87632">
        <ele>2383.8</ele>
        <time>2018-11-24T07:30:42Z</time>
      </trkpt>
      <trkpt lat="42.8157" lon="0.87633">
        <ele>2383.8</ele>
        <time>2018-11-24T07:30:42Z</time>
      </trkpt>
      <trkpt lat="42.81567" lon="0.87636">
        <ele>2383.8</ele>
        <time>2018-11-24T07:30:44Z</time>
      </trkpt>
      <trkpt lat="42.81575" lon="0.8764">
        <ele>2383.8</ele>
        <time>2018-11-24T07:30:47Z</time>
      </trkpt>
      <trkpt lat="42.81568" lon="0.87645">
        <ele>2383.8</ele>
        <time>2018-11-24T07:30:50Z</time>
      </trkpt>
      <trkpt lat="42.81566" lon="0.87646">
        <ele>2383.7</ele>
        <time>2018-11-24T07:30:51Z</time>
      </trkpt>
      <trkpt lat="42.81564" lon="0.87646">
        <ele>2383.8</ele>
        <time>2018-11-24T07:30:52Z</time>
      </trkpt>
      <trkpt lat="42.81559" lon="0.87645">
        <ele>2383.8</ele>
        <time>2018-11-24T07:30:54Z</time>
      </trkpt>
      <trkpt lat="42.81551" lon="0.87646">
        <ele>2382.3</ele>
        <time>2018-11-24T07:30:57Z</time>
      </trkpt>
      <trkpt lat="42.81547" lon="0.8765">
        <ele>2383.7</ele>
        <time>2018-11-24T07:31:00Z</time>
      </trkpt>
      <trkpt lat="42.81539" lon="0.87659">
        <ele>2385.6</ele>
        <time>2018-11-24T07:31:04Z</time>
      </trkpt>
      <trkpt lat="42.81535" lon="0.87661">
        <ele>2388.2</ele>
        <time>2018-11-24T07:31:05Z</time>
      </trkpt>
      <trkpt lat="42.81532" lon="0.8767">
        <ele>2390.6</ele>
        <time>2018-11-24T07:31:08Z</time>
      </trkpt>
      <trkpt lat="42.81528" lon="0.87672">
        <ele>2392</ele>
        <time>2018-11-24T07:31:10Z</time>
      </trkpt>
      <trkpt lat="42.81524" lon="0.87677">
        <ele>2394.9</ele>
        <time>2018-11-24T07:31:12Z</time>
      </trkpt>
      <trkpt lat="42.8152" lon="0.87683">
        <ele>2396.8</ele>
        <time>2018-11-24T07:31:14Z</time>
      </trkpt>
      <trkpt lat="42.81518" lon="0.87677">
        <ele>2399.6</ele>
        <time>2018-11-24T07:31:16Z</time>
      </trkpt>
      <trkpt lat="42.81511" lon="0.8768">
        <ele>2402.6</ele>
        <time>2018-11-24T07:31:19Z</time>
      </trkpt>
      <trkpt lat="42.81511" lon="0.87682">
        <ele>2404</ele>
        <time>2018-11-24T07:31:19Z</time>
      </trkpt>
      <trkpt lat="42.81511" lon="0.87679">
        <ele>2405.4</ele>
        <time>2018-11-24T07:31:20Z</time>
      </trkpt>
      <trkpt lat="42.81511" lon="0.87671">
        <ele>2408.8</ele>
        <time>2018-11-24T07:31:23Z</time>
      </trkpt>
      <trkpt lat="42.81503" lon="0.87667">
        <ele>2410.2</ele>
        <time>2018-11-24T07:31:26Z</time>
      </trkpt>
      <trkpt lat="42.81496" lon="0.87666">
        <ele>2412.1</ele>
        <time>2018-11-24T07:31:29Z</time>
      </trkpt>
      <trkpt lat="42.81494" lon="0.87668">
        <ele>2413.5</ele>
        <time>2018-11-24T07:31:30Z</time>
      </trkpt>
      <trkpt lat="42.81494" lon="0.87669">
        <ele>2414.6</ele>
        <time>2018-11-24T07:31:30Z</time>
      </trkpt>
      <trkpt lat="42.81491" lon="0.87671">
        <ele>2417</ele>
        <time>2018-11-24T07:31:31Z</time>
      </trkpt>
      <trkpt lat="42.81492" lon="0.87676">
        <ele>2417.5</ele>
        <time>2018-11-24T07:31:33Z</time>
      </trkpt>
      <trkpt lat="42.81493" lon="0.87678">
        <ele>2417.4</ele>
        <time>2018-11-24T07:31:34Z</time>
      </trkpt>
      <trkpt lat="42.81493" lon="0.87688">
        <ele>2417.5</ele>
        <time>2018-11-24T07:31:36Z</time>
      </trkpt>
      <trkpt lat="42.81493" lon="0.87689">
        <ele>2418.8</ele>
        <time>2018-11-24T07:31:37Z</time>
      </trkpt>
      <trkpt lat="42.8149" lon="0.87688">
        <ele>2420.8</ele>
        <time>2018-11-24T07:31:38Z</time>
      </trkpt>
      <trkpt lat="42.81487" lon="0.87693">
        <ele>2424.1</ele>
        <time>2018-11-24T07:31:40Z</time>
      </trkpt>
      <trkpt lat="42.8149" lon="0.87702">
        <ele>2425.2</ele>
        <time>2018-11-24T07:31:43Z</time>
      </trkpt>
      <trkpt lat="42.8149" lon="0.8771">
        <ele>2428.4</ele>
        <time>2018-11-24T07:31:45Z</time>
      </trkpt>
      <trkpt lat="42.81495" lon="0.87719">
        <ele>2430.4</ele>
        <time>2018-11-24T07:31:48Z</time>
      </trkpt>
      <trkpt lat="42.81496" lon="0.87736">
        <ele>2432.3</ele>
        <time>2018-11-24T07:31:53Z</time>
      </trkpt>
      <trkpt lat="42.81496" lon="0.87737">
        <ele>2431.9</ele>
        <time>2018-11-24T07:31:54Z</time>
      </trkpt>
      <trkpt lat="42.81496" lon="0.87737">
        <ele>2431.8</ele>
        <time>2018-11-24T07:31:54Z</time>
      </trkpt>
      <trkpt lat="42.81496" lon="0.87737">
        <ele>2430.5</ele>
        <time>2018-11-24T07:31:54Z</time>
      </trkpt>
      <trkpt lat="42.81496" lon="0.87738">
        <ele>2431.9</ele>
        <time>2018-11-24T07:31:54Z</time>
      </trkpt>
      <trkpt lat="42.81496" lon="0.87737">
        <ele>2430.5</ele>
        <time>2018-11-24T07:31:54Z</time>
      </trkpt>
      <trkpt lat="42.81496" lon="0.87737">
        <ele>2431.8</ele>
        <time>2018-11-24T07:31:54Z</time>
      </trkpt>
      <trkpt lat="42.81498" lon="0.87737">
        <ele>2430.9</ele>
        <time>2018-11-24T07:31:55Z</time>
      </trkpt>
      <trkpt lat="42.81498" lon="0.87733">
        <ele>2431.9</ele>
        <time>2018-11-24T07:31:56Z</time>
      </trkpt>
      <trkpt lat="42.81499" lon="0.87733">
        <ele>2432.4</ele>
        <time>2018-11-24T07:31:56Z</time>
      </trkpt>
      <trkpt lat="42.81499" lon="0.87733">
        <ele>2430.8</ele>
        <time>2018-11-24T07:31:56Z</time>
      </trkpt>
      <trkpt lat="42.81498" lon="0.87733">
        <ele>2431.3</ele>
        <time>2018-11-24T07:31:57Z</time>
      </trkpt>
      <trkpt lat="42.81497" lon="0.87734">
        <ele>2432.4</ele>
        <time>2018-11-24T07:31:57Z</time>
      </trkpt>
      <trkpt lat="42.81496" lon="0.87734">
        <ele>2432.8</ele>
        <time>2018-11-24T07:31:58Z</time>
      </trkpt>
      <trkpt lat="42.81497" lon="0.87737">
        <ele>2431.8</ele>
        <time>2018-11-24T07:31:59Z</time>
      </trkpt>
      <trkpt lat="42.81497" lon="0.87736">
        <ele>2433.3</ele>
        <time>2018-11-24T07:31:59Z</time>
      </trkpt>
      <trkpt lat="42.81497" lon="0.87734">
        <ele>2433.8</ele>
        <time>2018-11-24T07:31:59Z</time>
      </trkpt>
      <trkpt lat="42.81496" lon="0.87736">
        <ele>2432.3</ele>
        <time>2018-11-24T07:32:00Z</time>
      </trkpt>
      <trkpt lat="42.81496" lon="0.87735">
        <ele>2433.8</ele>
        <time>2018-11-24T07:32:00Z</time>
      </trkpt>
      <trkpt lat="42.81496" lon="0.87735">
        <ele>2432.3</ele>
        <time>2018-11-24T07:32:00Z</time>
      </trkpt>
      <trkpt lat="42.81496" lon="0.87735">
        <ele>2433.7</ele>
        <time>2018-11-24T07:32:00Z</time>
      </trkpt>
      <trkpt lat="42.81496" lon="0.87735">
        <ele>2431.8</ele>
        <time>2018-11-24T07:32:00Z</time>
      </trkpt>
      <trkpt lat="42.81496" lon="0.87735">
        <ele>2433.7</ele>
        <time>2018-11-24T07:32:00Z</time>
      </trkpt>
      <trkpt lat="42.81496" lon="0.87735">
        <ele>2434.2</ele>
        <time>2018-11-24T07:32:00Z</time>
      </trkpt>
      <trkpt lat="42.81496" lon="0.87736">
        <ele>2434.3</ele>
        <time>2018-11-24T07:32:01Z</time>
      </trkpt>
      <trkpt lat="42.81497" lon="0.87735">
        <ele>2433.8</ele>
        <time>2018-11-24T07:32:01Z</time>
      </trkpt>
      <trkpt lat="42.81497" lon="0.87736">
        <ele>2435.3</ele>
        <time>2018-11-24T07:32:01Z</time>
      </trkpt>
      <trkpt lat="42.81498" lon="0.87736">
        <ele>2432.8</ele>
        <time>2018-11-24T07:32:01Z</time>
      </trkpt>
      <trkpt lat="42.81497" lon="0.87734">
        <ele>2433.2</ele>
        <time>2018-11-24T07:32:02Z</time>
      </trkpt>
      <trkpt lat="42.81497" lon="0.87735">
        <ele>2434.7</ele>
        <time>2018-11-24T07:32:02Z</time>
      </trkpt>
      <trkpt lat="42.81497" lon="0.87734">
        <ele>2433.3</ele>
        <time>2018-11-24T07:32:03Z</time>
      </trkpt>
      <trkpt lat="42.81495" lon="0.87733">
        <ele>2430.8</ele>
        <time>2018-11-24T07:32:03Z</time>
      </trkpt>
      <trkpt lat="42.81492" lon="0.8773">
        <ele>2431.4</ele>
        <time>2018-11-24T07:32:05Z</time>
      </trkpt>
      <trkpt lat="42.8149" lon="0.87726">
        <ele>2433.2</ele>
        <time>2018-11-24T07:32:06Z</time>
      </trkpt>
      <trkpt lat="42.81487" lon="0.87724">
        <ele>2431.3</ele>
        <time>2018-11-24T07:32:08Z</time>
      </trkpt>
      <trkpt lat="42.81484" lon="0.87725">
        <ele>2432.8</ele>
        <time>2018-11-24T07:32:09Z</time>
      </trkpt>
      <trkpt lat="42.81475" lon="0.87717">
        <ele>2435.3</ele>
        <time>2018-11-24T07:32:13Z</time>
      </trkpt>
      <trkpt lat="42.81471" lon="0.87707">
        <ele>2437.6</ele>
        <time>2018-11-24T07:32:16Z</time>
      </trkpt>
      <trkpt lat="42.81469" lon="0.87701">
        <ele>2438.1</ele>
        <time>2018-11-24T07:32:18Z</time>
      </trkpt>
      <trkpt lat="42.81469" lon="0.87697">
        <ele>2441.5</ele>
        <time>2018-11-24T07:32:19Z</time>
      </trkpt>
      <trkpt lat="42.81468" lon="0.87693">
        <ele>2442.4</ele>
        <time>2018-11-24T07:32:21Z</time>
      </trkpt>
      <trkpt lat="42.81466" lon="0.87692">
        <ele>2441</ele>
        <time>2018-11-24T07:32:21Z</time>
      </trkpt>
      <trkpt lat="42.81463" lon="0.87694">
        <ele>2442.4</ele>
        <time>2018-11-24T07:32:23Z</time>
      </trkpt>
      <trkpt lat="42.81462" lon="0.87703">
        <ele>2442.8</ele>
        <time>2018-11-24T07:32:25Z</time>
      </trkpt>
      <trkpt lat="42.81455" lon="0.87706">
        <ele>2441.9</ele>
        <time>2018-11-24T07:32:28Z</time>
      </trkpt>
      <trkpt lat="42.81453" lon="0.87706">
        <ele>2442.9</ele>
        <time>2018-11-24T07:32:29Z</time>
      </trkpt>
      <trkpt lat="42.81447" lon="0.87709">
        <ele>2445.7</ele>
        <time>2018-11-24T07:32:32Z</time>
      </trkpt>
      <trkpt lat="42.81443" lon="0.87711">
        <ele>2444.3</ele>
        <time>2018-11-24T07:32:33Z</time>
      </trkpt>
      <trkpt lat="42.81441" lon="0.8771">
        <ele>2444.8</ele>
        <time>2018-11-24T07:32:34Z</time>
      </trkpt>
      <trkpt lat="42.81439" lon="0.87711">
        <ele>2446.2</ele>
        <time>2018-11-24T07:32:35Z</time>
      </trkpt>
      <trkpt lat="42.81439" lon="0.87712">
        <ele>2446.8</ele>
        <time>2018-11-24T07:32:35Z</time>
      </trkpt>
      <trkpt lat="42.81438" lon="0.87712">
        <ele>2444.4</ele>
        <time>2018-11-24T07:32:36Z</time>
      </trkpt>
      <trkpt lat="42.81439" lon="0.87711">
        <ele>2446.7</ele>
        <time>2018-11-24T07:32:36Z</time>
      </trkpt>
      <trkpt lat="42.81439" lon="0.87711">
        <ele>2447.6</ele>
        <time>2018-11-24T07:32:36Z</time>
      </trkpt>
      <trkpt lat="42.81437" lon="0.8771">
        <ele>2444.4</ele>
        <time>2018-11-24T07:32:37Z</time>
      </trkpt>
      <trkpt lat="42.81436" lon="0.87709">
        <ele>2443.4</ele>
        <time>2018-11-24T07:32:37Z</time>
      </trkpt>
      <trkpt lat="42.81435" lon="0.87707">
        <ele>2447.2</ele>
        <time>2018-11-24T07:32:38Z</time>
      </trkpt>
      <trkpt lat="42.81435" lon="0.87706">
        <ele>2447.2</ele>
        <time>2018-11-24T07:32:38Z</time>
      </trkpt>
      <trkpt lat="42.81434" lon="0.87705">
        <ele>2444.8</ele>
        <time>2018-11-24T07:32:39Z</time>
      </trkpt>
      <trkpt lat="42.81433" lon="0.87706">
        <ele>2446.7</ele>
        <time>2018-11-24T07:32:39Z</time>
      </trkpt>
      <trkpt lat="42.81432" lon="0.87706">
        <ele>2445.4</ele>
        <time>2018-11-24T07:32:40Z</time>
      </trkpt>
      <trkpt lat="42.81432" lon="0.87706">
        <ele>2444.9</ele>
        <time>2018-11-24T07:32:40Z</time>
      </trkpt>
      <trkpt lat="42.81429" lon="0.87703">
        <ele>2445.4</ele>
        <time>2018-11-24T07:32:42Z</time>
      </trkpt>
      <trkpt lat="42.81426" lon="0.87701">
        <ele>2443.8</ele>
        <time>2018-11-24T07:32:43Z</time>
      </trkpt>
      <trkpt lat="42.81419" lon="0.87697">
        <ele>2443.9</ele>
        <time>2018-11-24T07:32:46Z</time>
      </trkpt>
      <trkpt lat="42.81416" lon="0.87694">
        <ele>2443.8</ele>
        <time>2018-11-24T07:32:48Z</time>
      </trkpt>
      <trkpt lat="42.81416" lon="0.87695">
        <ele>2447.7</ele>
        <time>2018-11-24T07:32:48Z</time>
      </trkpt>
      <trkpt lat="42.81416" lon="0.87695">
        <ele>2447.6</ele>
        <time>2018-11-24T07:32:48Z</time>
      </trkpt>
      <trkpt lat="42.81412" lon="0.87693">
        <ele>2445.8</ele>
        <time>2018-11-24T07:32:49Z</time>
      </trkpt>
      <trkpt lat="42.8141" lon="0.87691">
        <ele>2447.2</ele>
        <time>2018-11-24T07:32:51Z</time>
      </trkpt>
      <trkpt lat="42.81409" lon="0.87689">
        <ele>2444.3</ele>
        <time>2018-11-24T07:32:51Z</time>
      </trkpt>
      <trkpt lat="42.81405" lon="0.87685">
        <ele>2446.7</ele>
        <time>2018-11-24T07:32:53Z</time>
      </trkpt>
      <trkpt lat="42.81404" lon="0.87684">
        <ele>2444.9</ele>
        <time>2018-11-24T07:32:54Z</time>
      </trkpt>
      <trkpt lat="42.81403" lon="0.87681">
        <ele>2445.8</ele>
        <time>2018-11-24T07:32:55Z</time>
      </trkpt>
      <trkpt lat="42.81396" lon="0.87674">
        <ele>2444.9</ele>
        <time>2018-11-24T07:32:58Z</time>
      </trkpt>
      <trkpt lat="42.81385" lon="0.87676">
        <ele>2442.5</ele>
        <time>2018-11-24T07:33:02Z</time>
      </trkpt>
      <trkpt lat="42.81384" lon="0.87677">
        <ele>2443.3</ele>
        <time>2018-11-24T07:33:03Z</time>
      </trkpt>
      <trkpt lat="42.81383" lon="0.87677">
        <ele>2442</ele>
        <time>2018-11-24T07:33:04Z</time>
      </trkpt>
      <trkpt lat="42.8138" lon="0.87675">
        <ele>2442.9</ele>
        <time>2018-11-24T07:33:05Z</time>
      </trkpt>
      <trkpt lat="42.81371" lon="0.87677">
        <ele>2440.5</ele>
        <time>2018-11-24T07:33:09Z</time>
      </trkpt>
      <trkpt lat="42.81372" lon="0.87679">
        <ele>2440.1</ele>
        <time>2018-11-24T07:33:09Z</time>
      </trkpt>
      <trkpt lat="42.81374" lon="0.87683">
        <ele>2441.4</ele>
        <time>2018-11-24T07:33:11Z</time>
      </trkpt>
      <trkpt lat="42.81373" lon="0.87685">
        <ele>2439</ele>
        <time>2018-11-24T07:33:11Z</time>
      </trkpt>
      <trkpt lat="42.81363" lon="0.87692">
        <ele>2437.1</ele>
        <time>2018-11-24T07:33:16Z</time>
      </trkpt>
      <trkpt lat="42.8136" lon="0.8769">
        <ele>2436.1</ele>
        <time>2018-11-24T07:33:17Z</time>
      </trkpt>
      <trkpt lat="42.81352" lon="0.87691">
        <ele>2436.1</ele>
        <time>2018-11-24T07:33:20Z</time>
      </trkpt>
      <trkpt lat="42.81339" lon="0.877">
        <ele>2437.6</ele>
        <time>2018-11-24T07:33:26Z</time>
      </trkpt>
      <trkpt lat="42.81338" lon="0.877">
        <ele>2434.3</ele>
        <time>2018-11-24T07:33:27Z</time>
      </trkpt>
      <trkpt lat="42.81336" lon="0.877">
        <ele>2434.3</ele>
        <time>2018-11-24T07:33:27Z</time>
      </trkpt>
      <trkpt lat="42.81333" lon="0.87702">
        <ele>2435.6</ele>
        <time>2018-11-24T07:33:29Z</time>
      </trkpt>
      <trkpt lat="42.81328" lon="0.87705">
        <ele>2433.8</ele>
        <time>2018-11-24T07:33:31Z</time>
      </trkpt>
      <trkpt lat="42.81322" lon="0.87709">
        <ele>2433.7</ele>
        <time>2018-11-24T07:33:34Z</time>
      </trkpt>
      <trkpt lat="42.81312" lon="0.87709">
        <ele>2433.3</ele>
        <time>2018-11-24T07:33:37Z</time>
      </trkpt>
      <trkpt lat="42.81296" lon="0.87712">
        <ele>2432.3</ele>
        <time>2018-11-24T07:33:44Z</time>
      </trkpt>
      <trkpt lat="42.81276" lon="0.8771">
        <ele>2431.8</ele>
        <time>2018-11-24T07:33:52Z</time>
      </trkpt>
      <trkpt lat="42.81265" lon="0.87711">
        <ele>2431.8</ele>
        <time>2018-11-24T07:33:57Z</time>
      </trkpt>
      <trkpt lat="42.81259" lon="0.87713">
        <ele>2433.3</ele>
        <time>2018-11-24T07:33:59Z</time>
      </trkpt>
      <trkpt lat="42.81253" lon="0.8771">
        <ele>2434.7</ele>
        <time>2018-11-24T07:34:02Z</time>
      </trkpt>
      <trkpt lat="42.81245" lon="0.87708">
        <ele>2435.2</ele>
        <time>2018-11-24T07:34:05Z</time>
      </trkpt>
      <trkpt lat="42.81241" lon="0.87708">
        <ele>2433.7</ele>
        <time>2018-11-24T07:34:06Z</time>
      </trkpt>
      <trkpt lat="42.81232" lon="0.87714">
        <ele>2433.7</ele>
        <time>2018-11-24T07:34:10Z</time>
      </trkpt>
      <trkpt lat="42.81231" lon="0.87715">
        <ele>2435.3</ele>
        <time>2018-11-24T07:34:11Z</time>
      </trkpt>
      <trkpt lat="42.81225" lon="0.87722">
        <ele>2435.6</ele>
        <time>2018-11-24T07:34:14Z</time>
      </trkpt>
      <trkpt lat="42.81224" lon="0.87727">
        <ele>2435.7</ele>
        <time>2018-11-24T07:34:15Z</time>
      </trkpt>
      <trkpt lat="42.81223" lon="0.87729">
        <ele>2434.2</ele>
        <time>2018-11-24T07:34:16Z</time>
      </trkpt>
      <trkpt lat="42.81223" lon="0.87728">
        <ele>2432.4</ele>
        <time>2018-11-24T07:34:16Z</time>
      </trkpt>
      <trkpt lat="42.81222" lon="0.87725">
        <ele>2434.2</ele>
        <time>2018-11-24T07:34:17Z</time>
      </trkpt>
      <trkpt lat="42.81222" lon="0.87719">
        <ele>2435.2</ele>
        <time>2018-11-24T07:34:19Z</time>
      </trkpt>
      <trkpt lat="42.81221" lon="0.87719">
        <ele>2433.2</ele>
        <time>2018-11-24T07:34:19Z</time>
      </trkpt>
      <trkpt lat="42.81219" lon="0.87718">
        <ele>2434.2</ele>
        <time>2018-11-24T07:34:20Z</time>
      </trkpt>
      <trkpt lat="42.8122" lon="0.87718">
        <ele>2433.3</ele>
        <time>2018-11-24T07:34:21Z</time>
      </trkpt>
      <trkpt lat="42.81221" lon="0.87719">
        <ele>2435.3</ele>
        <time>2018-11-24T07:34:21Z</time>
      </trkpt>
      <trkpt lat="42.81224" lon="0.87727">
        <ele>2434.7</ele>
        <time>2018-11-24T07:34:24Z</time>
      </trkpt>
      <trkpt lat="42.81225" lon="0.87727">
        <ele>2434.7</ele>
        <time>2018-11-24T07:34:24Z</time>
      </trkpt>
      <trkpt lat="42.81226" lon="0.87739">
        <ele>2431.9</ele>
        <time>2018-11-24T07:34:28Z</time>
      </trkpt>
      <trkpt lat="42.81218" lon="0.87735">
        <ele>2429.5</ele>
        <time>2018-11-24T07:34:31Z</time>
      </trkpt>
      <trkpt lat="42.81218" lon="0.87735">
        <ele>2431.8</ele>
        <time>2018-11-24T07:34:31Z</time>
      </trkpt>
      <trkpt lat="42.81215" lon="0.87734">
        <ele>2430.5</ele>
        <time>2018-11-24T07:34:32Z</time>
      </trkpt>
      <trkpt lat="42.81206" lon="0.87728">
        <ele>2427</ele>
        <time>2018-11-24T07:34:36Z</time>
      </trkpt>
      <trkpt lat="42.81205" lon="0.87728">
        <ele>2426</ele>
        <time>2018-11-24T07:34:37Z</time>
      </trkpt>
      <trkpt lat="42.81199" lon="0.87729">
        <ele>2426.5</ele>
        <time>2018-11-24T07:34:39Z</time>
      </trkpt>
      <trkpt lat="42.81197" lon="0.8773">
        <ele>2424.2</ele>
        <time>2018-11-24T07:34:40Z</time>
      </trkpt>
      <trkpt lat="42.81194" lon="0.8773">
        <ele>2425.6</ele>
        <time>2018-11-24T07:34:41Z</time>
      </trkpt>
      <trkpt lat="42.81193" lon="0.87731">
        <ele>2423.2</ele>
        <time>2018-11-24T07:34:42Z</time>
      </trkpt>
      <trkpt lat="42.81187" lon="0.87734">
        <ele>2423.2</ele>
        <time>2018-11-24T07:34:44Z</time>
      </trkpt>
      <trkpt lat="42.81187" lon="0.87733">
        <ele>2422.7</ele>
        <time>2018-11-24T07:34:44Z</time>
      </trkpt>
      <trkpt lat="42.81186" lon="0.87736">
        <ele>2423.2</ele>
        <time>2018-11-24T07:34:45Z</time>
      </trkpt>
      <trkpt lat="42.81186" lon="0.87735">
        <ele>2423.7</ele>
        <time>2018-11-24T07:34:45Z</time>
      </trkpt>
      <trkpt lat="42.8119" lon="0.87736">
        <ele>2423.2</ele>
        <time>2018-11-24T07:34:47Z</time>
      </trkpt>
      <trkpt lat="42.8119" lon="0.87736">
        <ele>2423.1</ele>
        <time>2018-11-24T07:34:47Z</time>
      </trkpt>
      <trkpt lat="42.8119" lon="0.87737">
        <ele>2423.6</ele>
        <time>2018-11-24T07:34:47Z</time>
      </trkpt>
      <trkpt lat="42.81191" lon="0.87737">
        <ele>2421.7</ele>
        <time>2018-11-24T07:34:48Z</time>
      </trkpt>
      <trkpt lat="42.8119" lon="0.87737">
        <ele>2421.2</ele>
        <time>2018-11-24T07:34:48Z</time>
      </trkpt>
      <trkpt lat="42.81191" lon="0.87736">
        <ele>2423.1</ele>
        <time>2018-11-24T07:34:49Z</time>
      </trkpt>
      <trkpt lat="42.81191" lon="0.87736">
        <ele>2424.6</ele>
        <time>2018-11-24T07:34:49Z</time>
      </trkpt>
      <trkpt lat="42.81188" lon="0.87737">
        <ele>2423.1</ele>
        <time>2018-11-24T07:34:50Z</time>
      </trkpt>
      <trkpt lat="42.81189" lon="0.87738">
        <ele>2422.8</ele>
        <time>2018-11-24T07:34:51Z</time>
      </trkpt>
      <trkpt lat="42.81187" lon="0.87738">
        <ele>2422.7</ele>
        <time>2018-11-24T07:34:51Z</time>
      </trkpt>
      <trkpt lat="42.81187" lon="0.87738">
        <ele>2422.8</ele>
        <time>2018-11-24T07:34:51Z</time>
      </trkpt>
      <trkpt lat="42.81187" lon="0.87737">
        <ele>2423.2</ele>
        <time>2018-11-24T07:34:52Z</time>
      </trkpt>
      <trkpt lat="42.81187" lon="0.87737">
        <ele>2423.2</ele>
        <time>2018-11-24T07:34:52Z</time>
      </trkpt>
      <trkpt lat="42.81185" lon="0.87737">
        <ele>2423.7</ele>
        <time>2018-11-24T07:34:53Z</time>
      </trkpt>
      <trkpt lat="42.81188" lon="0.87736">
        <ele>2422.7</ele>
        <time>2018-11-24T07:34:54Z</time>
      </trkpt>
      <trkpt lat="42.81188" lon="0.87736">
        <ele>2424.1</ele>
        <time>2018-11-24T07:34:54Z</time>
      </trkpt>
      <trkpt lat="42.81188" lon="0.87735">
        <ele>2423.1</ele>
        <time>2018-11-24T07:34:54Z</time>
      </trkpt>
      <trkpt lat="42.81186" lon="0.87737">
        <ele>2423.2</ele>
        <time>2018-11-24T07:34:55Z</time>
      </trkpt>
      <trkpt lat="42.81187" lon="0.87736">
        <ele>2423.2</ele>
        <time>2018-11-24T07:34:55Z</time>
      </trkpt>
      <trkpt lat="42.81187" lon="0.87736">
        <ele>2423.1</ele>
        <time>2018-11-24T07:34:55Z</time>
      </trkpt>
      <trkpt lat="42.81188" lon="0.87737">
        <ele>2423.2</ele>
        <time>2018-11-24T07:34:56Z</time>
      </trkpt>
      <trkpt lat="42.81189" lon="0.87737">
        <ele>2423.6</ele>
        <time>2018-11-24T07:34:56Z</time>
      </trkpt>
      <trkpt lat="42.81187" lon="0.87738">
        <ele>2423.7</ele>
        <time>2018-11-24T07:34:57Z</time>
      </trkpt>
      <trkpt lat="42.81189" lon="0.87737">
        <ele>2423.1</ele>
        <time>2018-11-24T07:34:58Z</time>
      </trkpt>
      <trkpt lat="42.8119" lon="0.87736">
        <ele>2423.2</ele>
        <time>2018-11-24T07:34:58Z</time>
      </trkpt>
      <trkpt lat="42.81191" lon="0.87736">
        <ele>2424.6</ele>
        <time>2018-11-24T07:34:59Z</time>
      </trkpt>
      <trkpt lat="42.81189" lon="0.87737">
        <ele>2425.5</ele>
        <time>2018-11-24T07:35:00Z</time>
      </trkpt>
      <trkpt lat="42.81189" lon="0.87736">
        <ele>2424.6</ele>
        <time>2018-11-24T07:35:00Z</time>
      </trkpt>
      <trkpt lat="42.81188" lon="0.87735">
        <ele>2424.7</ele>
        <time>2018-11-24T07:35:00Z</time>
      </trkpt>
      <trkpt lat="42.81186" lon="0.87735">
        <ele>2423.7</ele>
        <time>2018-11-24T07:35:01Z</time>
      </trkpt>
      <trkpt lat="42.81188" lon="0.87734">
        <ele>2424.2</ele>
        <time>2018-11-24T07:35:02Z</time>
      </trkpt>
      <trkpt lat="42.81188" lon="0.87734">
        <ele>2425.2</ele>
        <time>2018-11-24T07:35:02Z</time>
      </trkpt>
      <trkpt lat="42.81188" lon="0.87734">
        <ele>2425.6</ele>
        <time>2018-11-24T07:35:02Z</time>
      </trkpt>
      <trkpt lat="42.81189" lon="0.87735">
        <ele>2425.5</ele>
        <time>2018-11-24T07:35:03Z</time>
      </trkpt>
      <trkpt lat="42.81189" lon="0.87737">
        <ele>2425.5</ele>
        <time>2018-11-24T07:35:03Z</time>
      </trkpt>
      <trkpt lat="42.81188" lon="0.87735">
        <ele>2426</ele>
        <time>2018-11-24T07:35:04Z</time>
      </trkpt>
      <trkpt lat="42.81187" lon="0.87734">
        <ele>2427</ele>
        <time>2018-11-24T07:35:04Z</time>
      </trkpt>
      <trkpt lat="42.81188" lon="0.87736">
        <ele>2427</ele>
        <time>2018-11-24T07:35:05Z</time>
      </trkpt>
      <trkpt lat="42.81189" lon="0.87736">
        <ele>2427.5</ele>
        <time>2018-11-24T07:35:05Z</time>
      </trkpt>
      <trkpt lat="42.8119" lon="0.87736">
        <ele>2427.5</ele>
        <time>2018-11-24T07:35:06Z</time>
      </trkpt>
      <trkpt lat="42.81192" lon="0.87737">
        <ele>2427.6</ele>
        <time>2018-11-24T07:35:06Z</time>
      </trkpt>
      <trkpt lat="42.81192" lon="0.87738">
        <ele>2427</ele>
        <time>2018-11-24T07:35:07Z</time>
      </trkpt>
      <trkpt lat="42.81192" lon="0.87737">
        <ele>2427</ele>
        <time>2018-11-24T07:35:07Z</time>
      </trkpt>
      <trkpt lat="42.81192" lon="0.87736">
        <ele>2427</ele>
        <time>2018-11-24T07:35:07Z</time>
      </trkpt>
      <trkpt lat="42.81192" lon="0.87737">
        <ele>2427.1</ele>
        <time>2018-11-24T07:35:07Z</time>
      </trkpt>
      <trkpt lat="42.81192" lon="0.87736">
        <ele>2427.6</ele>
        <time>2018-11-24T07:35:08Z</time>
      </trkpt>
      <trkpt lat="42.81193" lon="0.87737">
        <ele>2427.6</ele>
        <time>2018-11-24T07:35:08Z</time>
      </trkpt>
      <trkpt lat="42.81192" lon="0.87738">
        <ele>2427.9</ele>
        <time>2018-11-24T07:35:08Z</time>
      </trkpt>
      <trkpt lat="42.81192" lon="0.87737">
        <ele>2428</ele>
        <time>2018-11-24T07:35:08Z</time>
      </trkpt>
      <trkpt lat="42.81193" lon="0.87736">
        <ele>2426.5</ele>
        <time>2018-11-24T07:35:09Z</time>
      </trkpt>
      <trkpt lat="42.81193" lon="0.87734">
        <ele>2425.5</ele>
        <time>2018-11-24T07:35:09Z</time>
      </trkpt>
      <trkpt lat="42.81193" lon="0.87735">
        <ele>2425.1</ele>
        <time>2018-11-24T07:35:10Z</time>
      </trkpt>
      <trkpt lat="42.81191" lon="0.87737">
        <ele>2425.1</ele>
        <time>2018-11-24T07:35:10Z</time>
      </trkpt>
      <trkpt lat="42.8119" lon="0.87738">
        <ele>2425.2</ele>
        <time>2018-11-24T07:35:11Z</time>
      </trkpt>
      <trkpt lat="42.81189" lon="0.87738">
        <ele>2426.6</ele>
        <time>2018-11-24T07:35:11Z</time>
      </trkpt>
      <trkpt lat="42.81191" lon="0.87741">
        <ele>2425.2</ele>
        <time>2018-11-24T07:35:12Z</time>
      </trkpt>
      <trkpt lat="42.81186" lon="0.87743">
        <ele>2422.3</ele>
        <time>2018-11-24T07:35:14Z</time>
      </trkpt>
      <trkpt lat="42.81186" lon="0.87744">
        <ele>2420.4</ele>
        <time>2018-11-24T07:35:15Z</time>
      </trkpt>
      <trkpt lat="42.81181" lon="0.87746">
        <ele>2417.4</ele>
        <time>2018-11-24T07:35:17Z</time>
      </trkpt>
      <trkpt lat="42.81176" lon="0.8774">
        <ele>2414</ele>
        <time>2018-11-24T07:35:19Z</time>
      </trkpt>
      <trkpt lat="42.81175" lon="0.87743">
        <ele>2413.5</ele>
        <time>2018-11-24T07:35:20Z</time>
      </trkpt>
      <trkpt lat="42.81176" lon="0.87744">
        <ele>2414.1</ele>
        <time>2018-11-24T07:35:21Z</time>
      </trkpt>
      <trkpt lat="42.81175" lon="0.87745">
        <ele>2412.6</ele>
        <time>2018-11-24T07:35:21Z</time>
      </trkpt>
      <trkpt lat="42.81174" lon="0.87745">
        <ele>2410.2</ele>
        <time>2018-11-24T07:35:22Z</time>
      </trkpt>
      <trkpt lat="42.81169" lon="0.87747">
        <ele>2408.3</ele>
        <time>2018-11-24T07:35:24Z</time>
      </trkpt>
      <trkpt lat="42.81164" lon="0.87749">
        <ele>2405.4</ele>
        <time>2018-11-24T07:35:26Z</time>
      </trkpt>
      <trkpt lat="42.81158" lon="0.87759">
        <ele>2402.6</ele>
        <time>2018-11-24T07:35:29Z</time>
      </trkpt>
      <trkpt lat="42.81155" lon="0.87767">
        <ele>2398.7</ele>
        <time>2018-11-24T07:35:32Z</time>
      </trkpt>
      <trkpt lat="42.81147" lon="0.87777">
        <ele>2395.4</ele>
        <time>2018-11-24T07:35:36Z</time>
      </trkpt>
      <trkpt lat="42.8114" lon="0.87788">
        <ele>2391.9</ele>
        <time>2018-11-24T07:35:41Z</time>
      </trkpt>
      <trkpt lat="42.81135" lon="0.87794">
        <ele>2389.1</ele>
        <time>2018-11-24T07:35:43Z</time>
      </trkpt>
      <trkpt lat="42.81129" lon="0.87809">
        <ele>2385.6</ele>
        <time>2018-11-24T07:35:48Z</time>
      </trkpt>
      <trkpt lat="42.81127" lon="0.8782">
        <ele>2383.3</ele>
        <time>2018-11-24T07:35:52Z</time>
      </trkpt>
      <trkpt lat="42.81126" lon="0.87832">
        <ele>2381.4</ele>
        <time>2018-11-24T07:35:55Z</time>
      </trkpt>
      <trkpt lat="42.81124" lon="0.8783">
        <ele>2380.4</ele>
        <time>2018-11-24T07:35:56Z</time>
      </trkpt>
      <trkpt lat="42.81121" lon="0.87833">
        <ele>2377.5</ele>
        <time>2018-11-24T07:35:58Z</time>
      </trkpt>
      <trkpt lat="42.81118" lon="0.87842">
        <ele>2375.7</ele>
        <time>2018-11-24T07:36:01Z</time>
      </trkpt>
      <trkpt lat="42.81111" lon="0.87848">
        <ele>2376.1</ele>
        <time>2018-11-24T07:36:04Z</time>
      </trkpt>
      <trkpt lat="42.81105" lon="0.87852">
        <ele>2373.2</ele>
        <time>2018-11-24T07:36:06Z</time>
      </trkpt>
      <trkpt lat="42.81102" lon="0.87863">
        <ele>2368.9</ele>
        <time>2018-11-24T07:36:10Z</time>
      </trkpt>
      <trkpt lat="42.81098" lon="0.87879">
        <ele>2368.5</ele>
        <time>2018-11-24T07:36:15Z</time>
      </trkpt>
      <trkpt lat="42.81093" lon="0.87886">
        <ele>2368</ele>
        <time>2018-11-24T07:36:18Z</time>
      </trkpt>
      <trkpt lat="42.81089" lon="0.87894">
        <ele>2369.4</ele>
        <time>2018-11-24T07:36:20Z</time>
      </trkpt>
      <trkpt lat="42.81089" lon="0.87903">
        <ele>2371.8</ele>
        <time>2018-11-24T07:36:23Z</time>
      </trkpt>
      <trkpt lat="42.81082" lon="0.87917">
        <ele>2373.3</ele>
        <time>2018-11-24T07:36:28Z</time>
      </trkpt>
      <trkpt lat="42.81077" lon="0.87923">
        <ele>2371.8</ele>
        <time>2018-11-24T07:36:31Z</time>
      </trkpt>
      <trkpt lat="42.81075" lon="0.87923">
        <ele>2370.3</ele>
        <time>2018-11-24T07:36:32Z</time>
      </trkpt>
      <trkpt lat="42.81074" lon="0.87924">
        <ele>2369.3</ele>
        <time>2018-11-24T07:36:32Z</time>
      </trkpt>
      <trkpt lat="42.81072" lon="0.87926">
        <ele>2368.9</ele>
        <time>2018-11-24T07:36:33Z</time>
      </trkpt>
      <trkpt lat="42.81057" lon="0.87937">
        <ele>2369.4</ele>
        <time>2018-11-24T07:36:40Z</time>
      </trkpt>
      <trkpt lat="42.81054" lon="0.87943">
        <ele>2368.5</ele>
        <time>2018-11-24T07:36:42Z</time>
      </trkpt>
      <trkpt lat="42.81046" lon="0.87961">
        <ele>2368</ele>
        <time>2018-11-24T07:36:48Z</time>
      </trkpt>
      <trkpt lat="42.81044" lon="0.8797">
        <ele>2365.1</ele>
        <time>2018-11-24T07:36:51Z</time>
      </trkpt>
      <trkpt lat="42.81041" lon="0.87983">
        <ele>2363.1</ele>
        <time>2018-11-24T07:36:55Z</time>
      </trkpt>
      <trkpt lat="42.81035" lon="0.87989">
        <ele>2361.1</ele>
        <time>2018-11-24T07:36:58Z</time>
      </trkpt>
      <trkpt lat="42.81031" lon="0.87997">
        <ele>2359.2</ele>
        <time>2018-11-24T07:37:01Z</time>
      </trkpt>
      <trkpt lat="42.81023" lon="0.88007">
        <ele>2358.3</ele>
        <time>2018-11-24T07:37:05Z</time>
      </trkpt>
      <trkpt lat="42.81008" lon="0.88032">
        <ele>2356.8</ele>
        <time>2018-11-24T07:37:14Z</time>
      </trkpt>
      <trkpt lat="42.81005" lon="0.88037">
        <ele>2358.3</ele>
        <time>2018-11-24T07:37:16Z</time>
      </trkpt>
      <trkpt lat="42.81003" lon="0.88038">
        <ele>2358.3</ele>
        <time>2018-11-24T07:37:17Z</time>
      </trkpt>
      <trkpt lat="42.80994" lon="0.88054">
        <ele>2358.4</ele>
        <time>2018-11-24T07:37:23Z</time>
      </trkpt>
      <trkpt lat="42.80989" lon="0.88062">
        <ele>2356.8</ele>
        <time>2018-11-24T07:37:26Z</time>
      </trkpt>
      <trkpt lat="42.80979" lon="0.88068">
        <ele>2353.9</ele>
        <time>2018-11-24T07:37:30Z</time>
      </trkpt>
      <trkpt lat="42.80974" lon="0.88071">
        <ele>2353.1</ele>
        <time>2018-11-24T07:37:32Z</time>
      </trkpt>
      <trkpt lat="42.80968" lon="0.8807">
        <ele>2352.5</ele>
        <time>2018-11-24T07:37:35Z</time>
      </trkpt>
      <trkpt lat="42.80951" lon="0.88084">
        <ele>2351.6</ele>
        <time>2018-11-24T07:37:43Z</time>
      </trkpt>
      <trkpt lat="42.80945" lon="0.88092">
        <ele>2352.5</ele>
        <time>2018-11-24T07:37:46Z</time>
      </trkpt>
      <trkpt lat="42.80942" lon="0.88102">
        <ele>2351.1</ele>
        <time>2018-11-24T07:37:49Z</time>
      </trkpt>
      <trkpt lat="42.80937" lon="0.88102">
        <ele>2347.8</ele>
        <time>2018-11-24T07:37:52Z</time>
      </trkpt>
      <trkpt lat="42.8093" lon="0.881">
        <ele>2344.4</ele>
        <time>2018-11-24T07:37:54Z</time>
      </trkpt>
      <trkpt lat="42.80926" lon="0.88105">
        <ele>2340.9</ele>
        <time>2018-11-24T07:37:56Z</time>
      </trkpt>
      <trkpt lat="42.8092" lon="0.88115">
        <ele>2338.1</ele>
        <time>2018-11-24T07:38:00Z</time>
      </trkpt>
      <trkpt lat="42.80916" lon="0.88121">
        <ele>2334.8</ele>
        <time>2018-11-24T07:38:02Z</time>
      </trkpt>
      <trkpt lat="42.80916" lon="0.88121">
        <ele>2334.8</ele>
        <time>2018-11-24T07:38:03Z</time>
      </trkpt>
      <trkpt lat="42.80911" lon="0.88124">
        <ele>2331.3</ele>
        <time>2018-11-24T07:38:05Z</time>
      </trkpt>
      <trkpt lat="42.80906" lon="0.88139">
        <ele>2334.3</ele>
        <time>2018-11-24T07:38:09Z</time>
      </trkpt>
      <trkpt lat="42.80902" lon="0.88153">
        <ele>2337.7</ele>
        <time>2018-11-24T07:38:14Z</time>
      </trkpt>
      <trkpt lat="42.80898" lon="0.88161">
        <ele>2337.1</ele>
        <time>2018-11-24T07:38:17Z</time>
      </trkpt>
      <trkpt lat="42.80897" lon="0.88165">
        <ele>2336.1</ele>
        <time>2018-11-24T07:38:18Z</time>
      </trkpt>
      <trkpt lat="42.80888" lon="0.88192">
        <ele>2336.6</ele>
        <time>2018-11-24T07:38:27Z</time>
      </trkpt>
      <trkpt lat="42.80882" lon="0.88218">
        <ele>2336.2</ele>
        <time>2018-11-24T07:38:35Z</time>
      </trkpt>
      <trkpt lat="42.80881" lon="0.88219">
        <ele>2336.6</ele>
        <time>2018-11-24T07:38:35Z</time>
      </trkpt>
      <trkpt lat="42.80871" lon="0.88234">
        <ele>2337.1</ele>
        <time>2018-11-24T07:38:41Z</time>
      </trkpt>
      <trkpt lat="42.80864" lon="0.88238">
        <ele>2336.6</ele>
        <time>2018-11-24T07:38:44Z</time>
      </trkpt>
      <trkpt lat="42.80861" lon="0.88251">
        <ele>2335.8</ele>
        <time>2018-11-24T07:38:48Z</time>
      </trkpt>
      <trkpt lat="42.80861" lon="0.88253">
        <ele>2335.7</ele>
        <time>2018-11-24T07:38:49Z</time>
      </trkpt>
      <trkpt lat="42.80855" lon="0.88273">
        <ele>2334.8</ele>
        <time>2018-11-24T07:38:55Z</time>
      </trkpt>
      <trkpt lat="42.80851" lon="0.88288">
        <ele>2335.8</ele>
        <time>2018-11-24T07:39:00Z</time>
      </trkpt>
      <trkpt lat="42.80844" lon="0.88302">
        <ele>2339.1</ele>
        <time>2018-11-24T07:39:05Z</time>
      </trkpt>
      <trkpt lat="42.80841" lon="0.88326">
        <ele>2340</ele>
        <time>2018-11-24T07:39:12Z</time>
      </trkpt>
      <trkpt lat="42.80838" lon="0.88332">
        <ele>2340.6</ele>
        <time>2018-11-24T07:39:14Z</time>
      </trkpt>
      <trkpt lat="42.80829" lon="0.88349">
        <ele>2343.5</ele>
        <time>2018-11-24T07:39:20Z</time>
      </trkpt>
      <trkpt lat="42.8082" lon="0.88361">
        <ele>2345.9</ele>
        <time>2018-11-24T07:39:25Z</time>
      </trkpt>
      <trkpt lat="42.80815" lon="0.88374">
        <ele>2348.3</ele>
        <time>2018-11-24T07:39:30Z</time>
      </trkpt>
      <trkpt lat="42.80808" lon="0.88388">
        <ele>2349.1</ele>
        <time>2018-11-24T07:39:35Z</time>
      </trkpt>
      <trkpt lat="42.80805" lon="0.88395">
        <ele>2352.5</ele>
        <time>2018-11-24T07:39:37Z</time>
      </trkpt>
      <trkpt lat="42.80802" lon="0.88405">
        <ele>2352.6</ele>
        <time>2018-11-24T07:39:40Z</time>
      </trkpt>
      <trkpt lat="42.80801" lon="0.88414">
        <ele>2352.6</ele>
        <time>2018-11-24T07:39:43Z</time>
      </trkpt>
      <trkpt lat="42.808" lon="0.88417">
        <ele>2352.5</ele>
        <time>2018-11-24T07:39:44Z</time>
      </trkpt>
      <trkpt lat="42.80795" lon="0.88434">
        <ele>2353.9</ele>
        <time>2018-11-24T07:39:49Z</time>
      </trkpt>
      <trkpt lat="42.80795" lon="0.88446">
        <ele>2354.9</ele>
        <time>2018-11-24T07:39:53Z</time>
      </trkpt>
      <trkpt lat="42.80795" lon="0.88456">
        <ele>2356.4</ele>
        <time>2018-11-24T07:39:56Z</time>
      </trkpt>
      <trkpt lat="42.80792" lon="0.88463">
        <ele>2357.9</ele>
        <time>2018-11-24T07:39:58Z</time>
      </trkpt>
      <trkpt lat="42.8079" lon="0.88474">
        <ele>2358.7</ele>
        <time>2018-11-24T07:40:01Z</time>
      </trkpt>
      <trkpt lat="42.80786" lon="0.88482">
        <ele>2359.2</ele>
        <time>2018-11-24T07:40:04Z</time>
      </trkpt>
      <trkpt lat="42.80785" lon="0.88492">
        <ele>2359.2</ele>
        <time>2018-11-24T07:40:07Z</time>
      </trkpt>
      <trkpt lat="42.80775" lon="0.88504">
        <ele>2358.3</ele>
        <time>2018-11-24T07:40:12Z</time>
      </trkpt>
      <trkpt lat="42.80768" lon="0.88517">
        <ele>2359.2</ele>
        <time>2018-11-24T07:40:17Z</time>
      </trkpt>
      <trkpt lat="42.80767" lon="0.88524">
        <ele>2359.3</ele>
        <time>2018-11-24T07:40:19Z</time>
      </trkpt>
      <trkpt lat="42.80765" lon="0.88531">
        <ele>2357.9</ele>
        <time>2018-11-24T07:40:21Z</time>
      </trkpt>
      <trkpt lat="42.8076" lon="0.88541">
        <ele>2356.9</ele>
        <time>2018-11-24T07:40:25Z</time>
      </trkpt>
      <trkpt lat="42.80753" lon="0.88567">
        <ele>2356.9</ele>
        <time>2018-11-24T07:40:33Z</time>
      </trkpt>
      <trkpt lat="42.80752" lon="0.8857">
        <ele>2356.9</ele>
        <time>2018-11-24T07:40:34Z</time>
      </trkpt>
      <trkpt lat="42.80745" lon="0.88575">
        <ele>2356.4</ele>
        <time>2018-11-24T07:40:37Z</time>
      </trkpt>
      <trkpt lat="42.80745" lon="0.88579">
        <ele>2357.8</ele>
        <time>2018-11-24T07:40:38Z</time>
      </trkpt>
      <trkpt lat="42.80737" lon="0.88608">
        <ele>2359.2</ele>
        <time>2018-11-24T07:40:47Z</time>
      </trkpt>
      <trkpt lat="42.80736" lon="0.88611">
        <ele>2359.7</ele>
        <time>2018-11-24T07:40:48Z</time>
      </trkpt>
      <trkpt lat="42.80731" lon="0.88647">
        <ele>2362.1</ele>
        <time>2018-11-24T07:40:59Z</time>
      </trkpt>
      <trkpt lat="42.8073" lon="0.88651">
        <ele>2362.1</ele>
        <time>2018-11-24T07:41:01Z</time>
      </trkpt>
      <trkpt lat="42.80728" lon="0.88656">
        <ele>2362.6</ele>
        <time>2018-11-24T07:41:02Z</time>
      </trkpt>
      <trkpt lat="42.80724" lon="0.88684">
        <ele>2364.5</ele>
        <time>2018-11-24T07:41:11Z</time>
      </trkpt>
      <trkpt lat="42.80721" lon="0.88707">
        <ele>2365.6</ele>
        <time>2018-11-24T07:41:18Z</time>
      </trkpt>
      <trkpt lat="42.8072" lon="0.88712">
        <ele>2365.5</ele>
        <time>2018-11-24T07:41:19Z</time>
      </trkpt>
      <trkpt lat="42.80716" lon="0.88725">
        <ele>2364.1</ele>
        <time>2018-11-24T07:41:23Z</time>
      </trkpt>
      <trkpt lat="42.807" lon="0.88732">
        <ele>2361.2</ele>
        <time>2018-11-24T07:41:30Z</time>
      </trkpt>
      <trkpt lat="42.80694" lon="0.88729">
        <ele>2360.7</ele>
        <time>2018-11-24T07:41:32Z</time>
      </trkpt>
      <trkpt lat="42.80693" lon="0.8873">
        <ele>2360.6</ele>
        <time>2018-11-24T07:41:33Z</time>
      </trkpt>
      <trkpt lat="42.80686" lon="0.88733">
        <ele>2356.8</ele>
        <time>2018-11-24T07:41:36Z</time>
      </trkpt>
      <trkpt lat="42.80682" lon="0.88733">
        <ele>2355.8</ele>
        <time>2018-11-24T07:41:37Z</time>
      </trkpt>
      <trkpt lat="42.8068" lon="0.88737">
        <ele>2355.4</ele>
        <time>2018-11-24T07:41:39Z</time>
      </trkpt>
      <trkpt lat="42.80678" lon="0.8874">
        <ele>2353.9</ele>
        <time>2018-11-24T07:41:40Z</time>
      </trkpt>
      <trkpt lat="42.80666" lon="0.88751">
        <ele>2350.6</ele>
        <time>2018-11-24T07:41:46Z</time>
      </trkpt>
      <trkpt lat="42.80662" lon="0.88752">
        <ele>2350.2</ele>
        <time>2018-11-24T07:41:47Z</time>
      </trkpt>
      <trkpt lat="42.80659" lon="0.88752">
        <ele>2349.7</ele>
        <time>2018-11-24T07:41:48Z</time>
      </trkpt>
      <trkpt lat="42.80647" lon="0.88749">
        <ele>2348.3</ele>
        <time>2018-11-24T07:41:53Z</time>
      </trkpt>
      <trkpt lat="42.80638" lon="0.88795">
        <ele>2348.3</ele>
        <time>2018-11-24T07:42:07Z</time>
      </trkpt>
      <trkpt lat="42.80627" lon="0.88828">
        <ele>2348.3</ele>
        <time>2018-11-24T07:42:18Z</time>
      </trkpt>
      <trkpt lat="42.80622" lon="0.88871">
        <ele>2349.7</ele>
        <time>2018-11-24T07:42:31Z</time>
      </trkpt>
      <trkpt lat="42.80617" lon="0.88885">
        <ele>2348.2</ele>
        <time>2018-11-24T07:42:35Z</time>
      </trkpt>
      <trkpt lat="42.80614" lon="0.88887">
        <ele>2348.2</ele>
        <time>2018-11-24T07:42:37Z</time>
      </trkpt>
      <trkpt lat="42.80611" lon="0.88893">
        <ele>2347.7</ele>
        <time>2018-11-24T07:42:39Z</time>
      </trkpt>
      <trkpt lat="42.80589" lon="0.88926">
        <ele>2346.3</ele>
        <time>2018-11-24T07:42:52Z</time>
      </trkpt>
      <trkpt lat="42.80566" lon="0.88948">
        <ele>2344.8</ele>
        <time>2018-11-24T07:43:03Z</time>
      </trkpt>
      <trkpt lat="42.80553" lon="0.88965">
        <ele>2343.8</ele>
        <time>2018-11-24T07:43:11Z</time>
      </trkpt>
      <trkpt lat="42.80525" lon="0.88994">
        <ele>2342</ele>
        <time>2018-11-24T07:43:25Z</time>
      </trkpt>
      <trkpt lat="42.80504" lon="0.89027">
        <ele>2340.5</ele>
        <time>2018-11-24T07:43:37Z</time>
      </trkpt>
      <trkpt lat="42.80494" lon="0.89039">
        <ele>2339.6</ele>
        <time>2018-11-24T07:43:43Z</time>
      </trkpt>
      <trkpt lat="42.80472" lon="0.89056">
        <ele>2338.2</ele>
        <time>2018-11-24T07:43:53Z</time>
      </trkpt>
      <trkpt lat="42.80451" lon="0.8908">
        <ele>2337.6</ele>
        <time>2018-11-24T07:44:04Z</time>
      </trkpt>
      <trkpt lat="42.80432" lon="0.89109">
        <ele>2337.2</ele>
        <time>2018-11-24T07:44:15Z</time>
      </trkpt>
      <trkpt lat="42.80412" lon="0.89132">
        <ele>2338.5</ele>
        <time>2018-11-24T07:44:26Z</time>
      </trkpt>
      <trkpt lat="42.80392" lon="0.89166">
        <ele>2338.5</ele>
        <time>2018-11-24T07:44:38Z</time>
      </trkpt>
      <trkpt lat="42.80385" lon="0.89199">
        <ele>2337.2</ele>
        <time>2018-11-24T07:44:49Z</time>
      </trkpt>
      <trkpt lat="42.80384" lon="0.89203">
        <ele>2337.1</ele>
        <time>2018-11-24T07:44:50Z</time>
      </trkpt>
      <trkpt lat="42.80373" lon="0.89229">
        <ele>2335.2</ele>
        <time>2018-11-24T07:44:59Z</time>
      </trkpt>
      <trkpt lat="42.80368" lon="0.89237">
        <ele>2336.6</ele>
        <time>2018-11-24T07:45:02Z</time>
      </trkpt>
      <trkpt lat="42.80363" lon="0.89253">
        <ele>2337.2</ele>
        <time>2018-11-24T07:45:07Z</time>
      </trkpt>
      <trkpt lat="42.80353" lon="0.89282">
        <ele>2335.8</ele>
        <time>2018-11-24T07:45:16Z</time>
      </trkpt>
      <trkpt lat="42.8035" lon="0.8929">
        <ele>2335.2</ele>
        <time>2018-11-24T07:45:19Z</time>
      </trkpt>
      <trkpt lat="42.80347" lon="0.89303">
        <ele>2334.7</ele>
        <time>2018-11-24T07:45:23Z</time>
      </trkpt>
      <trkpt lat="42.80339" lon="0.89314">
        <ele>2334.7</ele>
        <time>2018-11-24T07:45:27Z</time>
      </trkpt>
      <trkpt lat="42.80332" lon="0.89354">
        <ele>2334.8</ele>
        <time>2018-11-24T07:45:40Z</time>
      </trkpt>
      <trkpt lat="42.80331" lon="0.8936">
        <ele>2336.1</ele>
        <time>2018-11-24T07:45:41Z</time>
      </trkpt>
      <trkpt lat="42.80326" lon="0.89381">
        <ele>2335.2</ele>
        <time>2018-11-24T07:45:48Z</time>
      </trkpt>
      <trkpt lat="42.80306" lon="0.8941">
        <ele>2333.3</ele>
        <time>2018-11-24T07:46:00Z</time>
      </trkpt>
      <trkpt lat="42.80288" lon="0.8943">
        <ele>2331.9</ele>
        <time>2018-11-24T07:46:09Z</time>
      </trkpt>
      <trkpt lat="42.80282" lon="0.8944">
        <ele>2331.8</ele>
        <time>2018-11-24T07:46:13Z</time>
      </trkpt>
      <trkpt lat="42.80274" lon="0.89452">
        <ele>2328.4</ele>
        <time>2018-11-24T07:46:17Z</time>
      </trkpt>
      <trkpt lat="42.80267" lon="0.89465">
        <ele>2326.2</ele>
        <time>2018-11-24T07:46:22Z</time>
      </trkpt>
      <trkpt lat="42.80259" lon="0.8948">
        <ele>2322.7</ele>
        <time>2018-11-24T07:46:27Z</time>
      </trkpt>
      <trkpt lat="42.80251" lon="0.89489">
        <ele>2320.3</ele>
        <time>2018-11-24T07:46:32Z</time>
      </trkpt>
      <trkpt lat="42.80234" lon="0.89508">
        <ele>2318.4</ele>
        <time>2018-11-24T07:46:40Z</time>
      </trkpt>
      <trkpt lat="42.80229" lon="0.89514">
        <ele>2317.5</ele>
        <time>2018-11-24T07:46:43Z</time>
      </trkpt>
      <trkpt lat="42.80205" lon="0.89536">
        <ele>2319.3</ele>
        <time>2018-11-24T07:46:55Z</time>
      </trkpt>
      <trkpt lat="42.80185" lon="0.89564">
        <ele>2319.9</ele>
        <time>2018-11-24T07:47:06Z</time>
      </trkpt>
      <trkpt lat="42.80179" lon="0.89565">
        <ele>2319.8</ele>
        <time>2018-11-24T07:47:09Z</time>
      </trkpt>
      <trkpt lat="42.80173" lon="0.89569">
        <ele>2318.4</ele>
        <time>2018-11-24T07:47:11Z</time>
      </trkpt>
      <trkpt lat="42.80148" lon="0.89594">
        <ele>2318.4</ele>
        <time>2018-11-24T07:47:24Z</time>
      </trkpt>
      <trkpt lat="42.80144" lon="0.89602">
        <ele>2319.3</ele>
        <time>2018-11-24T07:47:26Z</time>
      </trkpt>
      <trkpt lat="42.8014" lon="0.89612">
        <ele>2320.3</ele>
        <time>2018-11-24T07:47:30Z</time>
      </trkpt>
      <trkpt lat="42.80122" lon="0.89638">
        <ele>2320.8</ele>
        <time>2018-11-24T07:47:40Z</time>
      </trkpt>
      <trkpt lat="42.80118" lon="0.89648">
        <ele>2320.9</ele>
        <time>2018-11-24T07:47:44Z</time>
      </trkpt>
      <trkpt lat="42.80116" lon="0.8965">
        <ele>2321.3</ele>
        <time>2018-11-24T07:47:45Z</time>
      </trkpt>
      <trkpt lat="42.80111" lon="0.89654">
        <ele>2321.8</ele>
        <time>2018-11-24T07:47:47Z</time>
      </trkpt>
      <trkpt lat="42.80087" lon="0.89677">
        <ele>2323.3</ele>
        <time>2018-11-24T07:47:59Z</time>
      </trkpt>
      <trkpt lat="42.80066" lon="0.89706">
        <ele>2323.3</ele>
        <time>2018-11-24T07:48:11Z</time>
      </trkpt>
      <trkpt lat="42.80041" lon="0.89731">
        <ele>2322.8</ele>
        <time>2018-11-24T07:48:23Z</time>
      </trkpt>
      <trkpt lat="42.80025" lon="0.89764">
        <ele>2323.7</ele>
        <time>2018-11-24T07:48:35Z</time>
      </trkpt>
      <trkpt lat="42.80017" lon="0.89772">
        <ele>2322.7</ele>
        <time>2018-11-24T07:48:39Z</time>
      </trkpt>
      <trkpt lat="42.80014" lon="0.89774">
        <ele>2324.1</ele>
        <time>2018-11-24T07:48:40Z</time>
      </trkpt>
      <trkpt lat="42.7999" lon="0.89788">
        <ele>2324.6</ele>
        <time>2018-11-24T07:48:51Z</time>
      </trkpt>
      <trkpt lat="42.79963" lon="0.89817">
        <ele>2325.1</ele>
        <time>2018-11-24T07:49:04Z</time>
      </trkpt>
      <trkpt lat="42.79957" lon="0.8983">
        <ele>2323.3</ele>
        <time>2018-11-24T07:49:09Z</time>
      </trkpt>
      <trkpt lat="42.79955" lon="0.89833">
        <ele>2323.3</ele>
        <time>2018-11-24T07:49:10Z</time>
      </trkpt>
      <trkpt lat="42.79947" lon="0.8984">
        <ele>2323.3</ele>
        <time>2018-11-24T07:49:14Z</time>
      </trkpt>
      <trkpt lat="42.79942" lon="0.89846">
        <ele>2323.3</ele>
        <time>2018-11-24T07:49:17Z</time>
      </trkpt>
      <trkpt lat="42.79918" lon="0.8988">
        <ele>2323.3</ele>
        <time>2018-11-24T07:49:30Z</time>
      </trkpt>
      <trkpt lat="42.79896" lon="0.89907">
        <ele>2323.3</ele>
        <time>2018-11-24T07:49:42Z</time>
      </trkpt>
      <trkpt lat="42.79873" lon="0.8993">
        <ele>2321.3</ele>
        <time>2018-11-24T07:49:54Z</time>
      </trkpt>
      <trkpt lat="42.79856" lon="0.89943">
        <ele>2319.8</ele>
        <time>2018-11-24T07:50:02Z</time>
      </trkpt>
      <trkpt lat="42.79848" lon="0.89945">
        <ele>2318.9</ele>
        <time>2018-11-24T07:50:05Z</time>
      </trkpt>
      <trkpt lat="42.7984" lon="0.8995">
        <ele>2318.4</ele>
        <time>2018-11-24T07:50:08Z</time>
      </trkpt>
      <trkpt lat="42.79839" lon="0.89951">
        <ele>2316.9</ele>
        <time>2018-11-24T07:50:09Z</time>
      </trkpt>
      <trkpt lat="42.79835" lon="0.89955">
        <ele>2315.9</ele>
        <time>2018-11-24T07:50:11Z</time>
      </trkpt>
      <trkpt lat="42.79832" lon="0.89954">
        <ele>2315.5</ele>
        <time>2018-11-24T07:50:12Z</time>
      </trkpt>
      <trkpt lat="42.7983" lon="0.89948">
        <ele>2315</ele>
        <time>2018-11-24T07:50:14Z</time>
      </trkpt>
      <trkpt lat="42.79826" lon="0.8994">
        <ele>2316.4</ele>
        <time>2018-11-24T07:50:17Z</time>
      </trkpt>
      <trkpt lat="42.7982" lon="0.89939">
        <ele>2313.7</ele>
        <time>2018-11-24T07:50:19Z</time>
      </trkpt>
      <trkpt lat="42.79815" lon="0.89941">
        <ele>2315.9</ele>
        <time>2018-11-24T07:50:21Z</time>
      </trkpt>
      <trkpt lat="42.79812" lon="0.89943">
        <ele>2314.6</ele>
        <time>2018-11-24T07:50:22Z</time>
      </trkpt>
      <trkpt lat="42.79809" lon="0.89944">
        <ele>2312.7</ele>
        <time>2018-11-24T07:50:24Z</time>
      </trkpt>
      <trkpt lat="42.79784" lon="0.89943">
        <ele>2311.6</ele>
        <time>2018-11-24T07:50:34Z</time>
      </trkpt>
      <trkpt lat="42.79759" lon="0.89926">
        <ele>2314</ele>
        <time>2018-11-24T07:50:45Z</time>
      </trkpt>
      <trkpt lat="42.79756" lon="0.89927">
        <ele>2316.5</ele>
        <time>2018-11-24T07:50:46Z</time>
      </trkpt>
      <trkpt lat="42.79754" lon="0.89931">
        <ele>2316.9</ele>
        <time>2018-11-24T07:50:48Z</time>
      </trkpt>
      <trkpt lat="42.79755" lon="0.8993">
        <ele>2316.9</ele>
        <time>2018-11-24T07:50:49Z</time>
      </trkpt>
      <trkpt lat="42.79756" lon="0.89931">
        <ele>2315.9</ele>
        <time>2018-11-24T07:50:49Z</time>
      </trkpt>
      <trkpt lat="42.79758" lon="0.89931">
        <ele>2315.9</ele>
        <time>2018-11-24T07:50:50Z</time>
      </trkpt>
      <trkpt lat="42.79755" lon="0.89931">
        <ele>2315.9</ele>
        <time>2018-11-24T07:50:51Z</time>
      </trkpt>
      <trkpt lat="42.79755" lon="0.89931">
        <ele>2317.5</ele>
        <time>2018-11-24T07:50:51Z</time>
      </trkpt>
      <trkpt lat="42.79756" lon="0.89931">
        <ele>2317.5</ele>
        <time>2018-11-24T07:50:52Z</time>
      </trkpt>
      <trkpt lat="42.79753" lon="0.89933">
        <ele>2317.4</ele>
        <time>2018-11-24T07:50:53Z</time>
      </trkpt>
      <trkpt lat="42.7975" lon="0.89937">
        <ele>2317.4</ele>
        <time>2018-11-24T07:50:55Z</time>
      </trkpt>
      <trkpt lat="42.79747" lon="0.89933">
        <ele>2315.6</ele>
        <time>2018-11-24T07:50:56Z</time>
      </trkpt>
      <trkpt lat="42.7973" lon="0.89929">
        <ele>2313.1</ele>
        <time>2018-11-24T07:51:03Z</time>
      </trkpt>
      <trkpt lat="42.79741" lon="0.89897">
        <ele>2310.1</ele>
        <time>2018-11-24T07:51:14Z</time>
      </trkpt>
      <trkpt lat="42.79753" lon="0.8989">
        <ele>2310.2</ele>
        <time>2018-11-24T07:51:19Z</time>
      </trkpt>
      <trkpt lat="42.79763" lon="0.8989">
        <ele>2312.5</ele>
        <time>2018-11-24T07:51:23Z</time>
      </trkpt>
      <trkpt lat="42.79772" lon="0.89895">
        <ele>2313.1</ele>
        <time>2018-11-24T07:51:27Z</time>
      </trkpt>
      <trkpt lat="42.79782" lon="0.899">
        <ele>2313.5</ele>
        <time>2018-11-24T07:51:31Z</time>
      </trkpt>
      <trkpt lat="42.79787" lon="0.89909">
        <ele>2314.6</ele>
        <time>2018-11-24T07:51:35Z</time>
      </trkpt>
      <trkpt lat="42.79799" lon="0.89906">
        <ele>2313.5</ele>
        <time>2018-11-24T07:51:39Z</time>
      </trkpt>
      <trkpt lat="42.79799" lon="0.89895">
        <ele>2312.5</ele>
        <time>2018-11-24T07:51:43Z</time>
      </trkpt>
      <trkpt lat="42.79802" lon="0.89882">
        <ele>2316.9</ele>
        <time>2018-11-24T07:51:46Z</time>
      </trkpt>
      <trkpt lat="42.79802" lon="0.8987">
        <ele>2318.3</ele>
        <time>2018-11-24T07:51:50Z</time>
      </trkpt>
      <trkpt lat="42.79795" lon="0.89864">
        <ele>2317</ele>
        <time>2018-11-24T07:51:53Z</time>
      </trkpt>
      <trkpt lat="42.7979" lon="0.89853">
        <ele>2314.1</ele>
        <time>2018-11-24T07:51:57Z</time>
      </trkpt>
      <trkpt lat="42.79788" lon="0.89843">
        <ele>2311.6</ele>
        <time>2018-11-24T07:52:00Z</time>
      </trkpt>
      <trkpt lat="42.79784" lon="0.89831">
        <ele>2307.8</ele>
        <time>2018-11-24T07:52:04Z</time>
      </trkpt>
      <trkpt lat="42.7978" lon="0.89821">
        <ele>2304.5</ele>
        <time>2018-11-24T07:52:07Z</time>
      </trkpt>
      <trkpt lat="42.79772" lon="0.89811">
        <ele>2300.1</ele>
        <time>2018-11-24T07:52:12Z</time>
      </trkpt>
      <trkpt lat="42.79764" lon="0.89807">
        <ele>2298.6</ele>
        <time>2018-11-24T07:52:15Z</time>
      </trkpt>
      <trkpt lat="42.79756" lon="0.89804">
        <ele>2295.3</ele>
        <time>2018-11-24T07:52:19Z</time>
      </trkpt>
      <trkpt lat="42.79748" lon="0.898">
        <ele>2292</ele>
        <time>2018-11-24T07:52:22Z</time>
      </trkpt>
      <trkpt lat="42.79738" lon="0.898">
        <ele>2289.5</ele>
        <time>2018-11-24T07:52:26Z</time>
      </trkpt>
      <trkpt lat="42.79729" lon="0.89798">
        <ele>2287.1</ele>
        <time>2018-11-24T07:52:30Z</time>
      </trkpt>
      <trkpt lat="42.79721" lon="0.89792">
        <ele>2282.7</ele>
        <time>2018-11-24T07:52:33Z</time>
      </trkpt>
      <trkpt lat="42.79713" lon="0.89785">
        <ele>2279.4</ele>
        <time>2018-11-24T07:52:37Z</time>
      </trkpt>
      <trkpt lat="42.79708" lon="0.89774">
        <ele>2275.6</ele>
        <time>2018-11-24T07:52:41Z</time>
      </trkpt>
      <trkpt lat="42.79701" lon="0.89765">
        <ele>2271.3</ele>
        <time>2018-11-24T07:52:45Z</time>
      </trkpt>
      <trkpt lat="42.797" lon="0.89751">
        <ele>2267.4</ele>
        <time>2018-11-24T07:52:49Z</time>
      </trkpt>
      <trkpt lat="42.79701" lon="0.89739">
        <ele>2263.1</ele>
        <time>2018-11-24T07:52:53Z</time>
      </trkpt>
      <trkpt lat="42.797" lon="0.89727">
        <ele>2258.3</ele>
        <time>2018-11-24T07:52:56Z</time>
      </trkpt>
      <trkpt lat="42.7969" lon="0.89726">
        <ele>2256.8</ele>
        <time>2018-11-24T07:53:00Z</time>
      </trkpt>
      <trkpt lat="42.79682" lon="0.89729">
        <ele>2255.4</ele>
        <time>2018-11-24T07:53:03Z</time>
      </trkpt>
      <trkpt lat="42.79683" lon="0.89718">
        <ele>2252.5</ele>
        <time>2018-11-24T07:53:06Z</time>
      </trkpt>
      <trkpt lat="42.7969" lon="0.89705">
        <ele>2250.1</ele>
        <time>2018-11-24T07:53:11Z</time>
      </trkpt>
      <trkpt lat="42.79697" lon="0.89696">
        <ele>2246.2</ele>
        <time>2018-11-24T07:53:15Z</time>
      </trkpt>
      <trkpt lat="42.79704" lon="0.89684">
        <ele>2243.9</ele>
        <time>2018-11-24T07:53:20Z</time>
      </trkpt>
      <trkpt lat="42.79711" lon="0.89676">
        <ele>2240.9</ele>
        <time>2018-11-24T07:53:23Z</time>
      </trkpt>
      <trkpt lat="42.79717" lon="0.89664">
        <ele>2238.6</ele>
        <time>2018-11-24T07:53:28Z</time>
      </trkpt>
      <trkpt lat="42.7972" lon="0.89652">
        <ele>2237.2</ele>
        <time>2018-11-24T07:53:31Z</time>
      </trkpt>
      <trkpt lat="42.79724" lon="0.8964">
        <ele>2235.2</ele>
        <time>2018-11-24T07:53:35Z</time>
      </trkpt>
      <trkpt lat="42.79728" lon="0.89628">
        <ele>2232.3</ele>
        <time>2018-11-24T07:53:39Z</time>
      </trkpt>
      <trkpt lat="42.79735" lon="0.89618">
        <ele>2229.9</ele>
        <time>2018-11-24T07:53:43Z</time>
      </trkpt>
      <trkpt lat="42.79744" lon="0.89611">
        <ele>2228</ele>
        <time>2018-11-24T07:53:47Z</time>
      </trkpt>
      <trkpt lat="42.79753" lon="0.89605">
        <ele>2226</ele>
        <time>2018-11-24T07:53:51Z</time>
      </trkpt>
      <trkpt lat="42.79765" lon="0.89604">
        <ele>2223.7</ele>
        <time>2018-11-24T07:53:56Z</time>
      </trkpt>
      <trkpt lat="42.79774" lon="0.89601">
        <ele>2222.2</ele>
        <time>2018-11-24T07:54:00Z</time>
      </trkpt>
      <trkpt lat="42.79773" lon="0.89588">
        <ele>2220.7</ele>
        <time>2018-11-24T07:54:04Z</time>
      </trkpt>
      <trkpt lat="42.79774" lon="0.89574">
        <ele>2220.8</ele>
        <time>2018-11-24T07:54:08Z</time>
      </trkpt>
      <trkpt lat="42.7977" lon="0.89561">
        <ele>2218</ele>
        <time>2018-11-24T07:54:12Z</time>
      </trkpt>
      <trkpt lat="42.79766" lon="0.89549">
        <ele>2214.1</ele>
        <time>2018-11-24T07:54:16Z</time>
      </trkpt>
      <trkpt lat="42.79762" lon="0.89537">
        <ele>2211.2</ele>
        <time>2018-11-24T07:54:19Z</time>
      </trkpt>
      <trkpt lat="42.79757" lon="0.89526">
        <ele>2207.4</ele>
        <time>2018-11-24T07:54:23Z</time>
      </trkpt>
      <trkpt lat="42.79752" lon="0.89516">
        <ele>2203.5</ele>
        <time>2018-11-24T07:54:27Z</time>
      </trkpt>
      <trkpt lat="42.79747" lon="0.89505">
        <ele>2199.7</ele>
        <time>2018-11-24T07:54:31Z</time>
      </trkpt>
      <trkpt lat="42.7974" lon="0.89496">
        <ele>2195.3</ele>
        <time>2018-11-24T07:54:35Z</time>
      </trkpt>
      <trkpt lat="42.79734" lon="0.89485">
        <ele>2191.9</ele>
        <time>2018-11-24T07:54:39Z</time>
      </trkpt>
      <trkpt lat="42.79727" lon="0.8948">
        <ele>2187.7</ele>
        <time>2018-11-24T07:54:42Z</time>
      </trkpt>
      <trkpt lat="42.79717" lon="0.89481">
        <ele>2184.7</ele>
        <time>2018-11-24T07:54:46Z</time>
      </trkpt>
      <trkpt lat="42.79708" lon="0.89474">
        <ele>2183.7</ele>
        <time>2018-11-24T07:54:50Z</time>
      </trkpt>
      <trkpt lat="42.79698" lon="0.8947">
        <ele>2181.8</ele>
        <time>2018-11-24T07:54:54Z</time>
      </trkpt>
      <trkpt lat="42.79688" lon="0.89474">
        <ele>2177.6</ele>
        <time>2018-11-24T07:54:58Z</time>
      </trkpt>
      <trkpt lat="42.7968" lon="0.89482">
        <ele>2173.6</ele>
        <time>2018-11-24T07:55:02Z</time>
      </trkpt>
      <trkpt lat="42.79671" lon="0.89489">
        <ele>2170.4</ele>
        <time>2018-11-24T07:55:06Z</time>
      </trkpt>
      <trkpt lat="42.7966" lon="0.89487">
        <ele>2170.4</ele>
        <time>2018-11-24T07:55:11Z</time>
      </trkpt>
      <trkpt lat="42.79649" lon="0.89481">
        <ele>2170.4</ele>
        <time>2018-11-24T07:55:16Z</time>
      </trkpt>
      <trkpt lat="42.79638" lon="0.89473">
        <ele>2168</ele>
        <time>2018-11-24T07:55:20Z</time>
      </trkpt>
      <trkpt lat="42.7963" lon="0.89464">
        <ele>2167.9</ele>
        <time>2018-11-24T07:55:25Z</time>
      </trkpt>
      <trkpt lat="42.7962" lon="0.89458">
        <ele>2168.4</ele>
        <time>2018-11-24T07:55:29Z</time>
      </trkpt>
      <trkpt lat="42.7961" lon="0.89454">
        <ele>2166.9</ele>
        <time>2018-11-24T07:55:33Z</time>
      </trkpt>
      <trkpt lat="42.79602" lon="0.89447">
        <ele>2165.5</ele>
        <time>2018-11-24T07:55:37Z</time>
      </trkpt>
      <trkpt lat="42.79593" lon="0.89438">
        <ele>2164.5</ele>
        <time>2018-11-24T07:55:41Z</time>
      </trkpt>
      <trkpt lat="42.79587" lon="0.89428">
        <ele>2163.2</ele>
        <time>2018-11-24T07:55:45Z</time>
      </trkpt>
      <trkpt lat="42.79578" lon="0.89419">
        <ele>2161.6</ele>
        <time>2018-11-24T07:55:50Z</time>
      </trkpt>
      <trkpt lat="42.79571" lon="0.89409">
        <ele>2160.2</ele>
        <time>2018-11-24T07:55:54Z</time>
      </trkpt>
      <trkpt lat="42.79562" lon="0.894">
        <ele>2158.4</ele>
        <time>2018-11-24T07:55:58Z</time>
      </trkpt>
      <trkpt lat="42.79553" lon="0.89394">
        <ele>2156.3</ele>
        <time>2018-11-24T07:56:02Z</time>
      </trkpt>
      <trkpt lat="42.79543" lon="0.89395">
        <ele>2155.9</ele>
        <time>2018-11-24T07:56:06Z</time>
      </trkpt>
      <trkpt lat="42.79533" lon="0.89394">
        <ele>2155</ele>
        <time>2018-11-24T07:56:10Z</time>
      </trkpt>
      <trkpt lat="42.79524" lon="0.89396">
        <ele>2151</ele>
        <time>2018-11-24T07:56:14Z</time>
      </trkpt>
      <trkpt lat="42.79513" lon="0.89403">
        <ele>2148.7</ele>
        <time>2018-11-24T07:56:19Z</time>
      </trkpt>
      <trkpt lat="42.79506" lon="0.89416">
        <ele>2145.3</ele>
        <time>2018-11-24T07:56:24Z</time>
      </trkpt>
      <trkpt lat="42.79496" lon="0.89421">
        <ele>2142.4</ele>
        <time>2018-11-24T07:56:28Z</time>
      </trkpt>
      <trkpt lat="42.79487" lon="0.89422">
        <ele>2139</ele>
        <time>2018-11-24T07:56:31Z</time>
      </trkpt>
      <trkpt lat="42.79489" lon="0.89408">
        <ele>2136.1</ele>
        <time>2018-11-24T07:56:36Z</time>
      </trkpt>
      <trkpt lat="42.79484" lon="0.89395">
        <ele>2134.3</ele>
        <time>2018-11-24T07:56:40Z</time>
      </trkpt>
      <trkpt lat="42.79474" lon="0.89388">
        <ele>2131.3</ele>
        <time>2018-11-24T07:56:44Z</time>
      </trkpt>
      <trkpt lat="42.79464" lon="0.89389">
        <ele>2126.6</ele>
        <time>2018-11-24T07:56:49Z</time>
      </trkpt>
      <trkpt lat="42.79454" lon="0.89387">
        <ele>2122.8</ele>
        <time>2018-11-24T07:56:53Z</time>
      </trkpt>
      <trkpt lat="42.79444" lon="0.89383">
        <ele>2118.8</ele>
        <time>2018-11-24T07:56:57Z</time>
      </trkpt>
      <trkpt lat="42.79435" lon="0.89376">
        <ele>2116</ele>
        <time>2018-11-24T07:57:01Z</time>
      </trkpt>
      <trkpt lat="42.79426" lon="0.89369">
        <ele>2112.7</ele>
        <time>2018-11-24T07:57:05Z</time>
      </trkpt>
      <trkpt lat="42.79416" lon="0.89361">
        <ele>2110.7</ele>
        <time>2018-11-24T07:57:09Z</time>
      </trkpt>
      <trkpt lat="42.79406" lon="0.89353">
        <ele>2107.4</ele>
        <time>2018-11-24T07:57:14Z</time>
      </trkpt>
      <trkpt lat="42.79397" lon="0.89357">
        <ele>2104.4</ele>
        <time>2018-11-24T07:57:18Z</time>
      </trkpt>
      <trkpt lat="42.79389" lon="0.8935">
        <ele>2100.1</ele>
        <time>2018-11-24T07:57:21Z</time>
      </trkpt>
      <trkpt lat="42.79384" lon="0.8934">
        <ele>2096.2</ele>
        <time>2018-11-24T07:57:25Z</time>
      </trkpt>
      <trkpt lat="42.79376" lon="0.89329">
        <ele>2091.9</ele>
        <time>2018-11-24T07:57:30Z</time>
      </trkpt>
      <trkpt lat="42.79368" lon="0.89321">
        <ele>2087.6</ele>
        <time>2018-11-24T07:57:34Z</time>
      </trkpt>
      <trkpt lat="42.79361" lon="0.8931">
        <ele>2082.9</ele>
        <time>2018-11-24T07:57:38Z</time>
      </trkpt>
      <trkpt lat="42.79354" lon="0.89299">
        <ele>2080.4</ele>
        <time>2018-11-24T07:57:42Z</time>
      </trkpt>
      <trkpt lat="42.79347" lon="0.89288">
        <ele>2078.9</ele>
        <time>2018-11-24T07:57:46Z</time>
      </trkpt>
      <trkpt lat="42.7934" lon="0.89278">
        <ele>2078.1</ele>
        <time>2018-11-24T07:57:51Z</time>
      </trkpt>
      <trkpt lat="42.79334" lon="0.89266">
        <ele>2077.1</ele>
        <time>2018-11-24T07:57:55Z</time>
      </trkpt>
      <trkpt lat="42.79327" lon="0.89256">
        <ele>2076.2</ele>
        <time>2018-11-24T07:57:59Z</time>
      </trkpt>
      <trkpt lat="42.7932" lon="0.89247">
        <ele>2075.2</ele>
        <time>2018-11-24T07:58:03Z</time>
      </trkpt>
      <trkpt lat="42.79314" lon="0.89236">
        <ele>2074.1</ele>
        <time>2018-11-24T07:58:07Z</time>
      </trkpt>
      <trkpt lat="42.79307" lon="0.89225">
        <ele>2073.7</ele>
        <time>2018-11-24T07:58:11Z</time>
      </trkpt>
      <trkpt lat="42.793" lon="0.89215">
        <ele>2072.3</ele>
        <time>2018-11-24T07:58:15Z</time>
      </trkpt>
      <trkpt lat="42.79295" lon="0.89204">
        <ele>2071.8</ele>
        <time>2018-11-24T07:58:19Z</time>
      </trkpt>
      <trkpt lat="42.79288" lon="0.89193">
        <ele>2069.8</ele>
        <time>2018-11-24T07:58:23Z</time>
      </trkpt>
      <trkpt lat="42.7928" lon="0.89183">
        <ele>2069.3</ele>
        <time>2018-11-24T07:58:27Z</time>
      </trkpt>
      <trkpt lat="42.79272" lon="0.89174">
        <ele>2068.9</ele>
        <time>2018-11-24T07:58:32Z</time>
      </trkpt>
      <trkpt lat="42.79265" lon="0.89164">
        <ele>2068.5</ele>
        <time>2018-11-24T07:58:36Z</time>
      </trkpt>
      <trkpt lat="42.7926" lon="0.89153">
        <ele>2068</ele>
        <time>2018-11-24T07:58:40Z</time>
      </trkpt>
      <trkpt lat="42.79254" lon="0.89143">
        <ele>2067.9</ele>
        <time>2018-11-24T07:58:44Z</time>
      </trkpt>
      <trkpt lat="42.79247" lon="0.89133">
        <ele>2067.5</ele>
        <time>2018-11-24T07:58:47Z</time>
      </trkpt>
      <trkpt lat="42.7924" lon="0.89121">
        <ele>2067.5</ele>
        <time>2018-11-24T07:58:52Z</time>
      </trkpt>
      <trkpt lat="42.79234" lon="0.89109">
        <ele>2067.4</ele>
        <time>2018-11-24T07:58:56Z</time>
      </trkpt>
      <trkpt lat="42.79227" lon="0.89099">
        <ele>2067.4</ele>
        <time>2018-11-24T07:59:00Z</time>
      </trkpt>
      <trkpt lat="42.79221" lon="0.8909">
        <ele>2067.4</ele>
        <time>2018-11-24T07:59:04Z</time>
      </trkpt>
      <trkpt lat="42.79215" lon="0.89079">
        <ele>2067</ele>
        <time>2018-11-24T07:59:08Z</time>
      </trkpt>
      <trkpt lat="42.7921" lon="0.89067">
        <ele>2067</ele>
        <time>2018-11-24T07:59:12Z</time>
      </trkpt>
      <trkpt lat="42.79203" lon="0.89056">
        <ele>2067</ele>
        <time>2018-11-24T07:59:16Z</time>
      </trkpt>
      <trkpt lat="42.79197" lon="0.89045">
        <ele>2066.9</ele>
        <time>2018-11-24T07:59:20Z</time>
      </trkpt>
      <trkpt lat="42.79191" lon="0.89033">
        <ele>2067</ele>
        <time>2018-11-24T07:59:25Z</time>
      </trkpt>
      <trkpt lat="42.79183" lon="0.89028">
        <ele>2065.6</ele>
        <time>2018-11-24T07:59:28Z</time>
      </trkpt>
      <trkpt lat="42.79176" lon="0.89037">
        <ele>2065.5</ele>
        <time>2018-11-24T07:59:32Z</time>
      </trkpt>
      <trkpt lat="42.79168" lon="0.89045">
        <ele>2064.6</ele>
        <time>2018-11-24T07:59:36Z</time>
      </trkpt>
      <trkpt lat="42.7916" lon="0.89054">
        <ele>2064</ele>
        <time>2018-11-24T07:59:40Z</time>
      </trkpt>
      <trkpt lat="42.79153" lon="0.89062">
        <ele>2064</ele>
        <time>2018-11-24T07:59:44Z</time>
      </trkpt>
      <trkpt lat="42.79145" lon="0.8907">
        <ele>2063.6</ele>
        <time>2018-11-24T07:59:47Z</time>
      </trkpt>
      <trkpt lat="42.79138" lon="0.89077">
        <ele>2063.7</ele>
        <time>2018-11-24T07:59:51Z</time>
      </trkpt>
      <trkpt lat="42.79132" lon="0.89087">
        <ele>2062.6</ele>
        <time>2018-11-24T07:59:55Z</time>
      </trkpt>
      <trkpt lat="42.79126" lon="0.89097">
        <ele>2062.6</ele>
        <time>2018-11-24T07:59:59Z</time>
      </trkpt>
      <trkpt lat="42.7912" lon="0.89107">
        <ele>2062.1</ele>
        <time>2018-11-24T08:00:02Z</time>
      </trkpt>
      <trkpt lat="42.79112" lon="0.89117">
        <ele>2061.6</ele>
        <time>2018-11-24T08:00:06Z</time>
      </trkpt>
      <trkpt lat="42.79107" lon="0.89127">
        <ele>2061.2</ele>
        <time>2018-11-24T08:00:10Z</time>
      </trkpt>
      <trkpt lat="42.79103" lon="0.89141">
        <ele>2060.8</ele>
        <time>2018-11-24T08:00:15Z</time>
      </trkpt>
      <trkpt lat="42.79097" lon="0.89152">
        <ele>2059.7</ele>
        <time>2018-11-24T08:00:18Z</time>
      </trkpt>
      <trkpt lat="42.79091" lon="0.89165">
        <ele>2059.3</ele>
        <time>2018-11-24T08:00:23Z</time>
      </trkpt>
      <trkpt lat="42.78979" lon="0.89137">
        <ele>2048</ele>
        <time>2018-11-24T08:01:09Z</time>
      </trkpt>
      <trkpt lat="42.78984" lon="0.89134">
        <ele>2048.8</ele>
        <time>2018-11-24T08:01:11Z</time>
      </trkpt>
      <trkpt lat="42.7899" lon="0.89132">
        <ele>2049.1</ele>
        <time>2018-11-24T08:01:13Z</time>
      </trkpt>
      <trkpt lat="42.78994" lon="0.8913">
        <ele>2049</ele>
        <time>2018-11-24T08:01:15Z</time>
      </trkpt>
      <trkpt lat="42.79" lon="0.8913">
        <ele>2049</ele>
        <time>2018-11-24T08:01:17Z</time>
      </trkpt>
      <trkpt lat="42.79005" lon="0.8913">
        <ele>2049.4</ele>
        <time>2018-11-24T08:01:19Z</time>
      </trkpt>
      <trkpt lat="42.7901" lon="0.89128">
        <ele>2050.1</ele>
        <time>2018-11-24T08:01:21Z</time>
      </trkpt>
      <trkpt lat="42.79014" lon="0.89127">
        <ele>2050.1</ele>
        <time>2018-11-24T08:01:23Z</time>
      </trkpt>
      <trkpt lat="42.79019" lon="0.89126">
        <ele>2050.2</ele>
        <time>2018-11-24T08:01:25Z</time>
      </trkpt>
      <trkpt lat="42.79024" lon="0.89124">
        <ele>2050.9</ele>
        <time>2018-11-24T08:01:27Z</time>
      </trkpt>
      <trkpt lat="42.79029" lon="0.89121">
        <ele>2051</ele>
        <time>2018-11-24T08:01:29Z</time>
      </trkpt>
      <trkpt lat="42.79034" lon="0.89122">
        <ele>2051</ele>
        <time>2018-11-24T08:01:31Z</time>
      </trkpt>
      <trkpt lat="42.79039" lon="0.89124">
        <ele>2050.7</ele>
        <time>2018-11-24T08:01:33Z</time>
      </trkpt>
      <trkpt lat="42.79044" lon="0.89125">
        <ele>2050.4</ele>
        <time>2018-11-24T08:01:35Z</time>
      </trkpt>
      <trkpt lat="42.79049" lon="0.89125">
        <ele>2050.1</ele>
        <time>2018-11-24T08:01:37Z</time>
      </trkpt>
      <trkpt lat="42.79053" lon="0.89126">
        <ele>2050.1</ele>
        <time>2018-11-24T08:01:39Z</time>
      </trkpt>
      <trkpt lat="42.79059" lon="0.89127">
        <ele>2050.4</ele>
        <time>2018-11-24T08:01:41Z</time>
      </trkpt>
      <trkpt lat="42.79064" lon="0.8913">
        <ele>2050.8</ele>
        <time>2018-11-24T08:01:44Z</time>
      </trkpt>
      <trkpt lat="42.79069" lon="0.89131">
        <ele>2051.1</ele>
        <time>2018-11-24T08:01:46Z</time>
      </trkpt>
      <trkpt lat="42.79074" lon="0.8913">
        <ele>2051.1</ele>
        <time>2018-11-24T08:01:48Z</time>
      </trkpt>
      <trkpt lat="42.79079" lon="0.89128">
        <ele>2051</ele>
        <time>2018-11-24T08:01:50Z</time>
      </trkpt>
      <trkpt lat="42.79084" lon="0.89126">
        <ele>2051</ele>
        <time>2018-11-24T08:01:52Z</time>
      </trkpt>
      <trkpt lat="42.79089" lon="0.89127">
        <ele>2051.1</ele>
        <time>2018-11-24T08:01:54Z</time>
      </trkpt>
      <trkpt lat="42.79094" lon="0.89124">
        <ele>2052</ele>
        <time>2018-11-24T08:01:56Z</time>
      </trkpt>
      <trkpt lat="42.79098" lon="0.89121">
        <ele>2052.1</ele>
        <time>2018-11-24T08:01:58Z</time>
      </trkpt>
      <trkpt lat="42.79103" lon="0.89118">
        <ele>2052.1</ele>
        <time>2018-11-24T08:02:00Z</time>
      </trkpt>
      <trkpt lat="42.79107" lon="0.89116">
        <ele>2052.2</ele>
        <time>2018-11-24T08:02:02Z</time>
      </trkpt>
      <trkpt lat="42.79112" lon="0.89112">
        <ele>2053.1</ele>
        <time>2018-11-24T08:02:04Z</time>
      </trkpt>
      <trkpt lat="42.79115" lon="0.89108">
        <ele>2053</ele>
        <time>2018-11-24T08:02:06Z</time>
      </trkpt>
      <trkpt lat="42.7912" lon="0.89104">
        <ele>2053</ele>
        <time>2018-11-24T08:02:08Z</time>
      </trkpt>
      <trkpt lat="42.79123" lon="0.89097">
        <ele>2053</ele>
        <time>2018-11-24T08:02:10Z</time>
      </trkpt>
      <trkpt lat="42.79126" lon="0.89093">
        <ele>2053.1</ele>
        <time>2018-11-24T08:02:12Z</time>
      </trkpt>
      <trkpt lat="42.79129" lon="0.89088">
        <ele>2053.2</ele>
        <time>2018-11-24T08:02:14Z</time>
      </trkpt>
      <trkpt lat="42.79132" lon="0.89084">
        <ele>2054</ele>
        <time>2018-11-24T08:02:16Z</time>
      </trkpt>
      <trkpt lat="42.79137" lon="0.89079">
        <ele>2054</ele>
        <time>2018-11-24T08:02:18Z</time>
      </trkpt>
      <trkpt lat="42.79141" lon="0.89074">
        <ele>2054.1</ele>
        <time>2018-11-24T08:02:20Z</time>
      </trkpt>
      <trkpt lat="42.79144" lon="0.8907">
        <ele>2054.6</ele>
        <time>2018-11-24T08:02:22Z</time>
      </trkpt>
      <trkpt lat="42.79147" lon="0.89064">
        <ele>2055</ele>
        <time>2018-11-24T08:02:24Z</time>
      </trkpt>
      <trkpt lat="42.79151" lon="0.8906">
        <ele>2055.1</ele>
        <time>2018-11-24T08:02:26Z</time>
      </trkpt>
      <trkpt lat="42.79154" lon="0.89054">
        <ele>2055.1</ele>
        <time>2018-11-24T08:02:28Z</time>
      </trkpt>
      <trkpt lat="42.7916" lon="0.89052">
        <ele>2055</ele>
        <time>2018-11-24T08:02:30Z</time>
      </trkpt>
      <trkpt lat="42.79163" lon="0.89047">
        <ele>2055</ele>
        <time>2018-11-24T08:02:32Z</time>
      </trkpt>
      <trkpt lat="42.79167" lon="0.89044">
        <ele>2055.8</ele>
        <time>2018-11-24T08:02:34Z</time>
      </trkpt>
      <trkpt lat="42.79172" lon="0.8904">
        <ele>2056</ele>
        <time>2018-11-24T08:02:37Z</time>
      </trkpt>
      <trkpt lat="42.79176" lon="0.89035">
        <ele>2056.1</ele>
        <time>2018-11-24T08:02:39Z</time>
      </trkpt>
      <trkpt lat="42.7918" lon="0.8903">
        <ele>2056.1</ele>
        <time>2018-11-24T08:02:41Z</time>
      </trkpt>
      <trkpt lat="42.79183" lon="0.89025">
        <ele>2056</ele>
        <time>2018-11-24T08:02:43Z</time>
      </trkpt>
      <trkpt lat="42.79188" lon="0.8902">
        <ele>2056.1</ele>
        <time>2018-11-24T08:02:45Z</time>
      </trkpt>
      <trkpt lat="42.7919" lon="0.89015">
        <ele>2056</ele>
        <time>2018-11-24T08:02:47Z</time>
      </trkpt>
      <trkpt lat="42.79194" lon="0.89013">
        <ele>2056.1</ele>
        <time>2018-11-24T08:02:49Z</time>
      </trkpt>
      <trkpt lat="42.79197" lon="0.89006">
        <ele>2056.1</ele>
        <time>2018-11-24T08:02:51Z</time>
      </trkpt>
      <trkpt lat="42.792" lon="0.89">
        <ele>2056.3</ele>
        <time>2018-11-24T08:02:53Z</time>
      </trkpt>
      <trkpt lat="42.79203" lon="0.88996">
        <ele>2056.4</ele>
        <time>2018-11-24T08:02:55Z</time>
      </trkpt>
      <trkpt lat="42.79208" lon="0.88992">
        <ele>2057</ele>
        <time>2018-11-24T08:02:57Z</time>
      </trkpt>
      <trkpt lat="42.79212" lon="0.88989">
        <ele>2057</ele>
        <time>2018-11-24T08:02:59Z</time>
      </trkpt>
      <trkpt lat="42.79215" lon="0.88983">
        <ele>2057</ele>
        <time>2018-11-24T08:03:01Z</time>
      </trkpt>
      <trkpt lat="42.7922" lon="0.8898">
        <ele>2057.1</ele>
        <time>2018-11-24T08:03:03Z</time>
      </trkpt>
      <trkpt lat="42.79225" lon="0.88976">
        <ele>2057.8</ele>
        <time>2018-11-24T08:03:05Z</time>
      </trkpt>
      <trkpt lat="42.79229" lon="0.88974">
        <ele>2058</ele>
        <time>2018-11-24T08:03:07Z</time>
      </trkpt>
      <trkpt lat="42.79233" lon="0.88967">
        <ele>2058</ele>
        <time>2018-11-24T08:03:10Z</time>
      </trkpt>
      <trkpt lat="42.79238" lon="0.88962">
        <ele>2058.1</ele>
        <time>2018-11-24T08:03:12Z</time>
      </trkpt>
      <trkpt lat="42.79242" lon="0.88958">
        <ele>2058</ele>
        <time>2018-11-24T08:03:14Z</time>
      </trkpt>
      <trkpt lat="42.79246" lon="0.88953">
        <ele>2058.1</ele>
        <time>2018-11-24T08:03:16Z</time>
      </trkpt>
      <trkpt lat="42.79251" lon="0.88948">
        <ele>2058</ele>
        <time>2018-11-24T08:03:19Z</time>
      </trkpt>
      <trkpt lat="42.79255" lon="0.88944">
        <ele>2058</ele>
        <time>2018-11-24T08:03:21Z</time>
      </trkpt>
      <trkpt lat="42.79259" lon="0.88941">
        <ele>2058.4</ele>
        <time>2018-11-24T08:03:23Z</time>
      </trkpt>
      <trkpt lat="42.79263" lon="0.88935">
        <ele>2058.4</ele>
        <time>2018-11-24T08:03:25Z</time>
      </trkpt>
      <trkpt lat="42.79268" lon="0.88931">
        <ele>2058.3</ele>
        <time>2018-11-24T08:03:27Z</time>
      </trkpt>
      <trkpt lat="42.79272" lon="0.88926">
        <ele>2058.3</ele>
        <time>2018-11-24T08:03:29Z</time>
      </trkpt>
      <trkpt lat="42.79276" lon="0.88923">
        <ele>2058.1</ele>
        <time>2018-11-24T08:03:31Z</time>
      </trkpt>
      <trkpt lat="42.79282" lon="0.88919">
        <ele>2058.2</ele>
        <time>2018-11-24T08:03:34Z</time>
      </trkpt>
      <trkpt lat="42.79285" lon="0.88915">
        <ele>2058.6</ele>
        <time>2018-11-24T08:03:36Z</time>
      </trkpt>
      <trkpt lat="42.7929" lon="0.88908">
        <ele>2059</ele>
        <time>2018-11-24T08:03:39Z</time>
      </trkpt>
      <trkpt lat="42.79294" lon="0.88905">
        <ele>2059</ele>
        <time>2018-11-24T08:03:40Z</time>
      </trkpt>
      <trkpt lat="42.79298" lon="0.889">
        <ele>2059.1</ele>
        <time>2018-11-24T08:03:42Z</time>
      </trkpt>
      <trkpt lat="42.79303" lon="0.88897">
        <ele>2059.5</ele>
        <time>2018-11-24T08:03:45Z</time>
      </trkpt>
      <trkpt lat="42.79306" lon="0.88892">
        <ele>2060.2</ele>
        <time>2018-11-24T08:03:46Z</time>
      </trkpt>
      <trkpt lat="42.79311" lon="0.88889">
        <ele>2061.3</ele>
        <time>2018-11-24T08:03:48Z</time>
      </trkpt>
      <trkpt lat="42.79314" lon="0.88885">
        <ele>2062.2</ele>
        <time>2018-11-24T08:03:50Z</time>
      </trkpt>
      <trkpt lat="42.79319" lon="0.88881">
        <ele>2063.1</ele>
        <time>2018-11-24T08:03:52Z</time>
      </trkpt>
      <trkpt lat="42.79324" lon="0.88879">
        <ele>2064.5</ele>
        <time>2018-11-24T08:03:55Z</time>
      </trkpt>
      <trkpt lat="42.79328" lon="0.88876">
        <ele>2066.5</ele>
        <time>2018-11-24T08:03:57Z</time>
      </trkpt>
      <trkpt lat="42.79333" lon="0.88874">
        <ele>2067.7</ele>
        <time>2018-11-24T08:03:59Z</time>
      </trkpt>
      <trkpt lat="42.79338" lon="0.88873">
        <ele>2069.9</ele>
        <time>2018-11-24T08:04:01Z</time>
      </trkpt>
      <trkpt lat="42.79341" lon="0.88868">
        <ele>2071.3</ele>
        <time>2018-11-24T08:04:02Z</time>
      </trkpt>
      <trkpt lat="42.79346" lon="0.88868">
        <ele>2073.7</ele>
        <time>2018-11-24T08:04:04Z</time>
      </trkpt>
      <trkpt lat="42.79348" lon="0.88863">
        <ele>2075.4</ele>
        <time>2018-11-24T08:04:06Z</time>
      </trkpt>
      <trkpt lat="42.79352" lon="0.88858">
        <ele>2077.4</ele>
        <time>2018-11-24T08:04:08Z</time>
      </trkpt>
      <trkpt lat="42.79356" lon="0.88854">
        <ele>2079.5</ele>
        <time>2018-11-24T08:04:10Z</time>
      </trkpt>
      <trkpt lat="42.7936" lon="0.8885">
        <ele>2082.5</ele>
        <time>2018-11-24T08:04:12Z</time>
      </trkpt>
      <trkpt lat="42.79362" lon="0.88844">
        <ele>2083.8</ele>
        <time>2018-11-24T08:04:14Z</time>
      </trkpt>
      <trkpt lat="42.79364" lon="0.88839">
        <ele>2085</ele>
        <time>2018-11-24T08:04:16Z</time>
      </trkpt>
      <trkpt lat="42.79368" lon="0.88835">
        <ele>2087</ele>
        <time>2018-11-24T08:04:18Z</time>
      </trkpt>
      <trkpt lat="42.79372" lon="0.88831">
        <ele>2089.1</ele>
        <time>2018-11-24T08:04:20Z</time>
      </trkpt>
      <trkpt lat="42.79376" lon="0.88827">
        <ele>2091.3</ele>
        <time>2018-11-24T08:04:22Z</time>
      </trkpt>
      <trkpt lat="42.79378" lon="0.88821">
        <ele>2092</ele>
        <time>2018-11-24T08:04:24Z</time>
      </trkpt>
      <trkpt lat="42.7938" lon="0.88815">
        <ele>2093.8</ele>
        <time>2018-11-24T08:04:26Z</time>
      </trkpt>
      <trkpt lat="42.79382" lon="0.88809">
        <ele>2095.4</ele>
        <time>2018-11-24T08:04:28Z</time>
      </trkpt>
      <trkpt lat="42.79385" lon="0.88802">
        <ele>2098.4</ele>
        <time>2018-11-24T08:04:30Z</time>
      </trkpt>
      <trkpt lat="42.79387" lon="0.88797">
        <ele>2099.8</ele>
        <time>2018-11-24T08:04:32Z</time>
      </trkpt>
      <trkpt lat="42.79388" lon="0.8879">
        <ele>2101.3</ele>
        <time>2018-11-24T08:04:34Z</time>
      </trkpt>
      <trkpt lat="42.79387" lon="0.88783">
        <ele>2104</ele>
        <time>2018-11-24T08:04:36Z</time>
      </trkpt>
      <trkpt lat="42.7939" lon="0.88777">
        <ele>2106.6</ele>
        <time>2018-11-24T08:04:38Z</time>
      </trkpt>
      <trkpt lat="42.79393" lon="0.88772">
        <ele>2108.2</ele>
        <time>2018-11-24T08:04:40Z</time>
      </trkpt>
      <trkpt lat="42.79398" lon="0.88768">
        <ele>2108.1</ele>
        <time>2018-11-24T08:04:42Z</time>
      </trkpt>
      <trkpt lat="42.79402" lon="0.88764">
        <ele>2107.9</ele>
        <time>2018-11-24T08:04:44Z</time>
      </trkpt>
      <trkpt lat="42.79405" lon="0.88759">
        <ele>2109.3</ele>
        <time>2018-11-24T08:04:46Z</time>
      </trkpt>
      <trkpt lat="42.7941" lon="0.88756">
        <ele>2109.2</ele>
        <time>2018-11-24T08:04:48Z</time>
      </trkpt>
      <trkpt lat="42.79411" lon="0.88749">
        <ele>2109.9</ele>
        <time>2018-11-24T08:04:50Z</time>
      </trkpt>
      <trkpt lat="42.79412" lon="0.88743">
        <ele>2110</ele>
        <time>2018-11-24T08:04:52Z</time>
      </trkpt>
      <trkpt lat="42.79414" lon="0.88737">
        <ele>2110.2</ele>
        <time>2018-11-24T08:04:54Z</time>
      </trkpt>
      <trkpt lat="42.79416" lon="0.88728">
        <ele>2110.9</ele>
        <time>2018-11-24T08:04:57Z</time>
      </trkpt>
      <trkpt lat="42.79419" lon="0.88722">
        <ele>2111</ele>
        <time>2018-11-24T08:04:59Z</time>
      </trkpt>
      <trkpt lat="42.79421" lon="0.88717">
        <ele>2110.5</ele>
        <time>2018-11-24T08:05:01Z</time>
      </trkpt>
      <trkpt lat="42.79424" lon="0.88712">
        <ele>2110.9</ele>
        <time>2018-11-24T08:05:03Z</time>
      </trkpt>
      <trkpt lat="42.79426" lon="0.88706">
        <ele>2112.2</ele>
        <time>2018-11-24T08:05:04Z</time>
      </trkpt>
      <trkpt lat="42.79429" lon="0.887">
        <ele>2112.3</ele>
        <time>2018-11-24T08:05:06Z</time>
      </trkpt>
      <trkpt lat="42.79431" lon="0.88695">
        <ele>2113.3</ele>
        <time>2018-11-24T08:05:08Z</time>
      </trkpt>
      <trkpt lat="42.79434" lon="0.88689">
        <ele>2114.5</ele>
        <time>2018-11-24T08:05:10Z</time>
      </trkpt>
      <trkpt lat="42.79439" lon="0.88685">
        <ele>2114.9</ele>
        <time>2018-11-24T08:05:13Z</time>
      </trkpt>
      <trkpt lat="42.79444" lon="0.88684">
        <ele>2114.7</ele>
        <time>2018-11-24T08:05:15Z</time>
      </trkpt>
      <trkpt lat="42.79449" lon="0.88682">
        <ele>2115.6</ele>
        <time>2018-11-24T08:05:17Z</time>
      </trkpt>
      <trkpt lat="42.79453" lon="0.88678">
        <ele>2116.4</ele>
        <time>2018-11-24T08:05:19Z</time>
      </trkpt>
      <trkpt lat="42.7946" lon="0.88681">
        <ele>2117.4</ele>
        <time>2018-11-24T08:05:22Z</time>
      </trkpt>
      <trkpt lat="42.79463" lon="0.88677">
        <ele>2118.3</ele>
        <time>2018-11-24T08:05:24Z</time>
      </trkpt>
      <trkpt lat="42.79467" lon="0.88674">
        <ele>2119.7</ele>
        <time>2018-11-24T08:05:25Z</time>
      </trkpt>
      <trkpt lat="42.79471" lon="0.88671">
        <ele>2121.3</ele>
        <time>2018-11-24T08:05:27Z</time>
      </trkpt>
      <trkpt lat="42.79477" lon="0.88672">
        <ele>2122.3</ele>
        <time>2018-11-24T08:05:29Z</time>
      </trkpt>
      <trkpt lat="42.79481" lon="0.88671">
        <ele>2122.5</ele>
        <time>2018-11-24T08:05:31Z</time>
      </trkpt>
      <trkpt lat="42.79486" lon="0.88671">
        <ele>2122.7</ele>
        <time>2018-11-24T08:05:33Z</time>
      </trkpt>
      <trkpt lat="42.79491" lon="0.8867">
        <ele>2123.6</ele>
        <time>2018-11-24T08:05:35Z</time>
      </trkpt>
      <trkpt lat="42.79496" lon="0.88669">
        <ele>2124.3</ele>
        <time>2018-11-24T08:05:37Z</time>
      </trkpt>
      <trkpt lat="42.79501" lon="0.8867">
        <ele>2124.9</ele>
        <time>2018-11-24T08:05:39Z</time>
      </trkpt>
      <trkpt lat="42.79505" lon="0.88669">
        <ele>2126.3</ele>
        <time>2018-11-24T08:05:41Z</time>
      </trkpt>
      <trkpt lat="42.7951" lon="0.88668">
        <ele>2127.7</ele>
        <time>2018-11-24T08:05:43Z</time>
      </trkpt>
      <trkpt lat="42.79514" lon="0.88666">
        <ele>2130</ele>
        <time>2018-11-24T08:05:45Z</time>
      </trkpt>
      <trkpt lat="42.79519" lon="0.88663">
        <ele>2131.5</ele>
        <time>2018-11-24T08:05:47Z</time>
      </trkpt>
      <trkpt lat="42.79524" lon="0.88663">
        <ele>2132.3</ele>
        <time>2018-11-24T08:05:49Z</time>
      </trkpt>
      <trkpt lat="42.79528" lon="0.88664">
        <ele>2132.7</ele>
        <time>2018-11-24T08:05:51Z</time>
      </trkpt>
      <trkpt lat="42.79533" lon="0.88664">
        <ele>2134.4</ele>
        <time>2018-11-24T08:05:53Z</time>
      </trkpt>
      <trkpt lat="42.79538" lon="0.88663">
        <ele>2136.8</ele>
        <time>2018-11-24T08:05:54Z</time>
      </trkpt>
      <trkpt lat="42.79542" lon="0.88667">
        <ele>2136.4</ele>
        <time>2018-11-24T08:05:56Z</time>
      </trkpt>
      <trkpt lat="42.79546" lon="0.88671">
        <ele>2137</ele>
        <time>2018-11-24T08:05:58Z</time>
      </trkpt>
      <trkpt lat="42.79551" lon="0.88669">
        <ele>2138.9</ele>
        <time>2018-11-24T08:06:00Z</time>
      </trkpt>
      <trkpt lat="42.79555" lon="0.88666">
        <ele>2139.9</ele>
        <time>2018-11-24T08:06:02Z</time>
      </trkpt>
      <trkpt lat="42.79559" lon="0.8866">
        <ele>2141.2</ele>
        <time>2018-11-24T08:06:05Z</time>
      </trkpt>
      <trkpt lat="42.7956" lon="0.88653">
        <ele>2143.3</ele>
        <time>2018-11-24T08:06:07Z</time>
      </trkpt>
      <trkpt lat="42.79563" lon="0.88648">
        <ele>2144.1</ele>
        <time>2018-11-24T08:06:09Z</time>
      </trkpt>
      <trkpt lat="42.79564" lon="0.88642">
        <ele>2144.7</ele>
        <time>2018-11-24T08:06:10Z</time>
      </trkpt>
      <trkpt lat="42.79566" lon="0.88636">
        <ele>2145.2</ele>
        <time>2018-11-24T08:06:12Z</time>
      </trkpt>
      <trkpt lat="42.79568" lon="0.8863">
        <ele>2144.9</ele>
        <time>2018-11-24T08:06:14Z</time>
      </trkpt>
      <trkpt lat="42.7957" lon="0.88624">
        <ele>2144.8</ele>
        <time>2018-11-24T08:06:16Z</time>
      </trkpt>
      <trkpt lat="42.79573" lon="0.8862">
        <ele>2143.6</ele>
        <time>2018-11-24T08:06:18Z</time>
      </trkpt>
      <trkpt lat="42.79572" lon="0.88614">
        <ele>2146.2</ele>
        <time>2018-11-24T08:06:20Z</time>
      </trkpt>
      <trkpt lat="42.79575" lon="0.88608">
        <ele>2145.8</ele>
        <time>2018-11-24T08:06:22Z</time>
      </trkpt>
      <trkpt lat="42.79577" lon="0.88603">
        <ele>2146.5</ele>
        <time>2018-11-24T08:06:24Z</time>
      </trkpt>
      <trkpt lat="42.79581" lon="0.88608">
        <ele>2144.9</ele>
        <time>2018-11-24T08:06:26Z</time>
      </trkpt>
      <trkpt lat="42.79576" lon="0.88606">
        <ele>2146.2</ele>
        <time>2018-11-24T08:06:28Z</time>
      </trkpt>
      <trkpt lat="42.79578" lon="0.886">
        <ele>2147</ele>
        <time>2018-11-24T08:06:30Z</time>
      </trkpt>
      <trkpt lat="42.79579" lon="0.88594">
        <ele>2148.3</ele>
        <time>2018-11-24T08:06:32Z</time>
      </trkpt>
      <trkpt lat="42.79581" lon="0.88587">
        <ele>2148.9</ele>
        <time>2018-11-24T08:06:34Z</time>
      </trkpt>
      <trkpt lat="42.79582" lon="0.8858">
        <ele>2149.6</ele>
        <time>2018-11-24T08:06:36Z</time>
      </trkpt>
      <trkpt lat="42.79583" lon="0.88574">
        <ele>2150.6</ele>
        <time>2018-11-24T08:06:38Z</time>
      </trkpt>
      <trkpt lat="42.79582" lon="0.88567">
        <ele>2151.8</ele>
        <time>2018-11-24T08:06:40Z</time>
      </trkpt>
      <trkpt lat="42.79582" lon="0.8856">
        <ele>2152.9</ele>
        <time>2018-11-24T08:06:42Z</time>
      </trkpt>
      <trkpt lat="42.79584" lon="0.88554">
        <ele>2153.8</ele>
        <time>2018-11-24T08:06:44Z</time>
      </trkpt>
      <trkpt lat="42.79585" lon="0.88548">
        <ele>2154.9</ele>
        <time>2018-11-24T08:06:45Z</time>
      </trkpt>
      <trkpt lat="42.79585" lon="0.88542">
        <ele>2155.4</ele>
        <time>2018-11-24T08:06:47Z</time>
      </trkpt>
      <trkpt lat="42.79585" lon="0.88535">
        <ele>2155.9</ele>
        <time>2018-11-24T08:06:49Z</time>
      </trkpt>
      <trkpt lat="42.79586" lon="0.88529">
        <ele>2156.2</ele>
        <time>2018-11-24T08:06:51Z</time>
      </trkpt>
      <trkpt lat="42.79589" lon="0.88524">
        <ele>2155.4</ele>
        <time>2018-11-24T08:06:53Z</time>
      </trkpt>
      <trkpt lat="42.79592" lon="0.88519">
        <ele>2155.1</ele>
        <time>2018-11-24T08:06:55Z</time>
      </trkpt>
      <trkpt lat="42.79593" lon="0.88512">
        <ele>2155</ele>
        <time>2018-11-24T08:06:57Z</time>
      </trkpt>
      <trkpt lat="42.79592" lon="0.88506">
        <ele>2154.4</ele>
        <time>2018-11-24T08:06:59Z</time>
      </trkpt>
      <trkpt lat="42.79592" lon="0.88498">
        <ele>2154.1</ele>
        <time>2018-11-24T08:07:01Z</time>
      </trkpt>
      <trkpt lat="42.79595" lon="0.88493">
        <ele>2153.3</ele>
        <time>2018-11-24T08:07:03Z</time>
      </trkpt>
      <trkpt lat="42.79594" lon="0.88486">
        <ele>2153.2</ele>
        <time>2018-11-24T08:07:05Z</time>
      </trkpt>
      <trkpt lat="42.79598" lon="0.88482">
        <ele>2152.3</ele>
        <time>2018-11-24T08:07:07Z</time>
      </trkpt>
      <trkpt lat="42.79601" lon="0.88477">
        <ele>2152</ele>
        <time>2018-11-24T08:07:08Z</time>
      </trkpt>
      <trkpt lat="42.79601" lon="0.88471">
        <ele>2151.5</ele>
        <time>2018-11-24T08:07:10Z</time>
      </trkpt>
      <trkpt lat="42.79604" lon="0.88465">
        <ele>2150.9</ele>
        <time>2018-11-24T08:07:12Z</time>
      </trkpt>
      <trkpt lat="42.79605" lon="0.88458">
        <ele>2150</ele>
        <time>2018-11-24T08:07:14Z</time>
      </trkpt>
      <trkpt lat="42.79609" lon="0.88454">
        <ele>2148.7</ele>
        <time>2018-11-24T08:07:16Z</time>
      </trkpt>
      <trkpt lat="42.79609" lon="0.88447">
        <ele>2147.4</ele>
        <time>2018-11-24T08:07:18Z</time>
      </trkpt>
      <trkpt lat="42.79608" lon="0.8844">
        <ele>2146.7</ele>
        <time>2018-11-24T08:07:20Z</time>
      </trkpt>
      <trkpt lat="42.79605" lon="0.88435">
        <ele>2145.9</ele>
        <time>2018-11-24T08:07:22Z</time>
      </trkpt>
      <trkpt lat="42.79602" lon="0.88428">
        <ele>2145.8</ele>
        <time>2018-11-24T08:07:25Z</time>
      </trkpt>
      <trkpt lat="42.796" lon="0.88422">
        <ele>2144.7</ele>
        <time>2018-11-24T08:07:27Z</time>
      </trkpt>
      <trkpt lat="42.79598" lon="0.88416">
        <ele>2144.8</ele>
        <time>2018-11-24T08:07:29Z</time>
      </trkpt>
      <trkpt lat="42.79597" lon="0.8841">
        <ele>2145.4</ele>
        <time>2018-11-24T08:07:30Z</time>
      </trkpt>
      <trkpt lat="42.79593" lon="0.88412">
        <ele>2145.3</ele>
        <time>2018-11-24T08:07:32Z</time>
      </trkpt>
      <trkpt lat="42.79595" lon="0.88406">
        <ele>2146.4</ele>
        <time>2018-11-24T08:07:34Z</time>
      </trkpt>
      <trkpt lat="42.79597" lon="0.884">
        <ele>2147.7</ele>
        <time>2018-11-24T08:07:36Z</time>
      </trkpt>
      <trkpt lat="42.79598" lon="0.88394">
        <ele>2149.2</ele>
        <time>2018-11-24T08:07:38Z</time>
      </trkpt>
      <trkpt lat="42.79594" lon="0.8839">
        <ele>2152</ele>
        <time>2018-11-24T08:07:40Z</time>
      </trkpt>
      <trkpt lat="42.79591" lon="0.88385">
        <ele>2154.2</ele>
        <time>2018-11-24T08:07:42Z</time>
      </trkpt>
      <trkpt lat="42.79587" lon="0.88383">
        <ele>2156.7</ele>
        <time>2018-11-24T08:07:44Z</time>
      </trkpt>
      <trkpt lat="42.79586" lon="0.88375">
        <ele>2157.8</ele>
        <time>2018-11-24T08:07:46Z</time>
      </trkpt>
      <trkpt lat="42.79584" lon="0.8837">
        <ele>2159.7</ele>
        <time>2018-11-24T08:07:48Z</time>
      </trkpt>
      <trkpt lat="42.79582" lon="0.88364">
        <ele>2162.4</ele>
        <time>2018-11-24T08:07:50Z</time>
      </trkpt>
      <trkpt lat="42.79581" lon="0.88357">
        <ele>2165.2</ele>
        <time>2018-11-24T08:07:52Z</time>
      </trkpt>
      <trkpt lat="42.7958" lon="0.8835">
        <ele>2166.7</ele>
        <time>2018-11-24T08:07:54Z</time>
      </trkpt>
      <trkpt lat="42.79581" lon="0.88343">
        <ele>2168.4</ele>
        <time>2018-11-24T08:07:56Z</time>
      </trkpt>
      <trkpt lat="42.79578" lon="0.88338">
        <ele>2171.4</ele>
        <time>2018-11-24T08:07:58Z</time>
      </trkpt>
      <trkpt lat="42.79573" lon="0.88337">
        <ele>2173.2</ele>
        <time>2018-11-24T08:08:00Z</time>
      </trkpt>
      <trkpt lat="42.79568" lon="0.88337">
        <ele>2174</ele>
        <time>2018-11-24T08:08:02Z</time>
      </trkpt>
      <trkpt lat="42.79564" lon="0.88335">
        <ele>2173.9</ele>
        <time>2018-11-24T08:08:04Z</time>
      </trkpt>
      <trkpt lat="42.79562" lon="0.88329">
        <ele>2174.8</ele>
        <time>2018-11-24T08:08:06Z</time>
      </trkpt>
      <trkpt lat="42.7956" lon="0.88322">
        <ele>2175</ele>
        <time>2018-11-24T08:08:08Z</time>
      </trkpt>
      <trkpt lat="42.7956" lon="0.88313">
        <ele>2176.5</ele>
        <time>2018-11-24T08:08:11Z</time>
      </trkpt>
      <trkpt lat="42.79559" lon="0.88306">
        <ele>2176.8</ele>
        <time>2018-11-24T08:08:13Z</time>
      </trkpt>
      <trkpt lat="42.79559" lon="0.88298">
        <ele>2177.3</ele>
        <time>2018-11-24T08:08:15Z</time>
      </trkpt>
      <trkpt lat="42.79558" lon="0.88291">
        <ele>2178.1</ele>
        <time>2018-11-24T08:08:17Z</time>
      </trkpt>
      <trkpt lat="42.79557" lon="0.88285">
        <ele>2178.5</ele>
        <time>2018-11-24T08:08:19Z</time>
      </trkpt>
      <trkpt lat="42.79558" lon="0.88278">
        <ele>2179.4</ele>
        <time>2018-11-24T08:08:21Z</time>
      </trkpt>
      <trkpt lat="42.79557" lon="0.88271">
        <ele>2179.8</ele>
        <time>2018-11-24T08:08:23Z</time>
      </trkpt>
      <trkpt lat="42.79556" lon="0.88263">
        <ele>2180.5</ele>
        <time>2018-11-24T08:08:25Z</time>
      </trkpt>
      <trkpt lat="42.79556" lon="0.88256">
        <ele>2181.1</ele>
        <time>2018-11-24T08:08:27Z</time>
      </trkpt>
      <trkpt lat="42.79556" lon="0.88248">
        <ele>2181.6</ele>
        <time>2018-11-24T08:08:30Z</time>
      </trkpt>
      <trkpt lat="42.79557" lon="0.8824">
        <ele>2182.2</ele>
        <time>2018-11-24T08:08:32Z</time>
      </trkpt>
      <trkpt lat="42.79556" lon="0.88234">
        <ele>2182.6</ele>
        <time>2018-11-24T08:08:34Z</time>
      </trkpt>
      <trkpt lat="42.79557" lon="0.88227">
        <ele>2183</ele>
        <time>2018-11-24T08:08:36Z</time>
      </trkpt>
      <trkpt lat="42.79557" lon="0.8822">
        <ele>2183.7</ele>
        <time>2018-11-24T08:08:38Z</time>
      </trkpt>
      <trkpt lat="42.79557" lon="0.88214">
        <ele>2184.4</ele>
        <time>2018-11-24T08:08:40Z</time>
      </trkpt>
      <trkpt lat="42.79557" lon="0.88207">
        <ele>2184.9</ele>
        <time>2018-11-24T08:08:42Z</time>
      </trkpt>
      <trkpt lat="42.79556" lon="0.88201">
        <ele>2185.4</ele>
        <time>2018-11-24T08:08:44Z</time>
      </trkpt>
      <trkpt lat="42.79555" lon="0.88195">
        <ele>2185.9</ele>
        <time>2018-11-24T08:08:46Z</time>
      </trkpt>
      <trkpt lat="42.79554" lon="0.88188">
        <ele>2186.3</ele>
        <time>2018-11-24T08:08:48Z</time>
      </trkpt>
      <trkpt lat="42.79553" lon="0.88181">
        <ele>2186.1</ele>
        <time>2018-11-24T08:08:50Z</time>
      </trkpt>
      <trkpt lat="42.79553" lon="0.88174">
        <ele>2186.3</ele>
        <time>2018-11-24T08:08:52Z</time>
      </trkpt>
      <trkpt lat="42.79555" lon="0.88168">
        <ele>2186.9</ele>
        <time>2018-11-24T08:08:54Z</time>
      </trkpt>
      <trkpt lat="42.79558" lon="0.88161">
        <ele>2187.2</ele>
        <time>2018-11-24T08:08:56Z</time>
      </trkpt>
      <trkpt lat="42.7956" lon="0.88156">
        <ele>2187.7</ele>
        <time>2018-11-24T08:08:58Z</time>
      </trkpt>
      <trkpt lat="42.79564" lon="0.88149">
        <ele>2189</ele>
        <time>2018-11-24T08:09:00Z</time>
      </trkpt>
      <trkpt lat="42.79566" lon="0.88142">
        <ele>2189.1</ele>
        <time>2018-11-24T08:09:03Z</time>
      </trkpt>
      <trkpt lat="42.7957" lon="0.88136">
        <ele>2189.7</ele>
        <time>2018-11-24T08:09:05Z</time>
      </trkpt>
      <trkpt lat="42.79574" lon="0.88132">
        <ele>2189.9</ele>
        <time>2018-11-24T08:09:07Z</time>
      </trkpt>
      <trkpt lat="42.79578" lon="0.88128">
        <ele>2189.8</ele>
        <time>2018-11-24T08:09:09Z</time>
      </trkpt>
      <trkpt lat="42.79581" lon="0.88124">
        <ele>2190.1</ele>
        <time>2018-11-24T08:09:11Z</time>
      </trkpt>
      <trkpt lat="42.79585" lon="0.88118">
        <ele>2190.4</ele>
        <time>2018-11-24T08:09:13Z</time>
      </trkpt>
      <trkpt lat="42.79585" lon="0.88112">
        <ele>2190.6</ele>
        <time>2018-11-24T08:09:15Z</time>
      </trkpt>
      <trkpt lat="42.79586" lon="0.88105">
        <ele>2190.8</ele>
        <time>2018-11-24T08:09:17Z</time>
      </trkpt>
      <trkpt lat="42.79588" lon="0.88099">
        <ele>2191</ele>
        <time>2018-11-24T08:09:19Z</time>
      </trkpt>
      <trkpt lat="42.79589" lon="0.88092">
        <ele>2191.5</ele>
        <time>2018-11-24T08:09:21Z</time>
      </trkpt>
      <trkpt lat="42.7959" lon="0.88086">
        <ele>2192.2</ele>
        <time>2018-11-24T08:09:23Z</time>
      </trkpt>
      <trkpt lat="42.79591" lon="0.8808">
        <ele>2193</ele>
        <time>2018-11-24T08:09:25Z</time>
      </trkpt>
      <trkpt lat="42.79593" lon="0.88072">
        <ele>2193.6</ele>
        <time>2018-11-24T08:09:27Z</time>
      </trkpt>
      <trkpt lat="42.79594" lon="0.88065">
        <ele>2194.5</ele>
        <time>2018-11-24T08:09:29Z</time>
      </trkpt>
      <trkpt lat="42.79595" lon="0.88058">
        <ele>2195</ele>
        <time>2018-11-24T08:09:31Z</time>
      </trkpt>
      <trkpt lat="42.79596" lon="0.88052">
        <ele>2196.3</ele>
        <time>2018-11-24T08:09:33Z</time>
      </trkpt>
      <trkpt lat="42.79596" lon="0.88044">
        <ele>2197.4</ele>
        <time>2018-11-24T08:09:35Z</time>
      </trkpt>
      <trkpt lat="42.79595" lon="0.88038">
        <ele>2197.8</ele>
        <time>2018-11-24T08:09:37Z</time>
      </trkpt>
      <trkpt lat="42.79596" lon="0.88031">
        <ele>2198.6</ele>
        <time>2018-11-24T08:09:39Z</time>
      </trkpt>
      <trkpt lat="42.79597" lon="0.88025">
        <ele>2199.5</ele>
        <time>2018-11-24T08:09:41Z</time>
      </trkpt>
      <trkpt lat="42.79598" lon="0.88018">
        <ele>2199.9</ele>
        <time>2018-11-24T08:09:43Z</time>
      </trkpt>
      <trkpt lat="42.79601" lon="0.88012">
        <ele>2200.6</ele>
        <time>2018-11-24T08:09:45Z</time>
      </trkpt>
      <trkpt lat="42.79604" lon="0.88005">
        <ele>2201</ele>
        <time>2018-11-24T08:09:48Z</time>
      </trkpt>
      <trkpt lat="42.79606" lon="0.87998">
        <ele>2200.2</ele>
        <time>2018-11-24T08:09:50Z</time>
      </trkpt>
      <trkpt lat="42.79608" lon="0.87991">
        <ele>2199.1</ele>
        <time>2018-11-24T08:09:52Z</time>
      </trkpt>
      <trkpt lat="42.79609" lon="0.87984">
        <ele>2199.1</ele>
        <time>2018-11-24T08:09:54Z</time>
      </trkpt>
      <trkpt lat="42.79609" lon="0.87977">
        <ele>2199.1</ele>
        <time>2018-11-24T08:09:56Z</time>
      </trkpt>
      <trkpt lat="42.79608" lon="0.87969">
        <ele>2199</ele>
        <time>2018-11-24T08:09:59Z</time>
      </trkpt>
      <trkpt lat="42.79609" lon="0.87961">
        <ele>2199.4</ele>
        <time>2018-11-24T08:10:01Z</time>
      </trkpt>
      <trkpt lat="42.79609" lon="0.87955">
        <ele>2199.9</ele>
        <time>2018-11-24T08:10:03Z</time>
      </trkpt>
      <trkpt lat="42.7961" lon="0.87948">
        <ele>2200.4</ele>
        <time>2018-11-24T08:10:05Z</time>
      </trkpt>
      <trkpt lat="42.79609" lon="0.87941">
        <ele>2200.6</ele>
        <time>2018-11-24T08:10:07Z</time>
      </trkpt>
      <trkpt lat="42.79609" lon="0.87935">
        <ele>2201.6</ele>
        <time>2018-11-24T08:10:09Z</time>
      </trkpt>
      <trkpt lat="42.79608" lon="0.87928">
        <ele>2202.8</ele>
        <time>2018-11-24T08:10:11Z</time>
      </trkpt>
      <trkpt lat="42.79608" lon="0.8792">
        <ele>2203.3</ele>
        <time>2018-11-24T08:10:13Z</time>
      </trkpt>
      <trkpt lat="42.79607" lon="0.87913">
        <ele>2204.4</ele>
        <time>2018-11-24T08:10:15Z</time>
      </trkpt>
      <trkpt lat="42.79606" lon="0.87906">
        <ele>2205.1</ele>
        <time>2018-11-24T08:10:17Z</time>
      </trkpt>
      <trkpt lat="42.79606" lon="0.879">
        <ele>2205.8</ele>
        <time>2018-11-24T08:10:19Z</time>
      </trkpt>
      <trkpt lat="42.79605" lon="0.87893">
        <ele>2206.5</ele>
        <time>2018-11-24T08:10:21Z</time>
      </trkpt>
      <trkpt lat="42.79604" lon="0.87887">
        <ele>2207</ele>
        <time>2018-11-24T08:10:23Z</time>
      </trkpt>
      <trkpt lat="42.79603" lon="0.8788">
        <ele>2207.9</ele>
        <time>2018-11-24T08:10:25Z</time>
      </trkpt>
      <trkpt lat="42.79602" lon="0.87874">
        <ele>2208.1</ele>
        <time>2018-11-24T08:10:27Z</time>
      </trkpt>
      <trkpt lat="42.79601" lon="0.87866">
        <ele>2208.2</ele>
        <time>2018-11-24T08:10:29Z</time>
      </trkpt>
      <trkpt lat="42.79601" lon="0.8786">
        <ele>2209</ele>
        <time>2018-11-24T08:10:31Z</time>
      </trkpt>
      <trkpt lat="42.79601" lon="0.87853">
        <ele>2209.4</ele>
        <time>2018-11-24T08:10:33Z</time>
      </trkpt>
      <trkpt lat="42.79599" lon="0.87846">
        <ele>2210.3</ele>
        <time>2018-11-24T08:10:35Z</time>
      </trkpt>
      <trkpt lat="42.79599" lon="0.87839">
        <ele>2210.3</ele>
        <time>2018-11-24T08:10:37Z</time>
      </trkpt>
      <trkpt lat="42.796" lon="0.87832">
        <ele>2210.8</ele>
        <time>2018-11-24T08:10:39Z</time>
      </trkpt>
      <trkpt lat="42.79599" lon="0.87826">
        <ele>2210.5</ele>
        <time>2018-11-24T08:10:41Z</time>
      </trkpt>
      <trkpt lat="42.79599" lon="0.87819">
        <ele>2210</ele>
        <time>2018-11-24T08:10:43Z</time>
      </trkpt>
      <trkpt lat="42.79598" lon="0.87812">
        <ele>2210.1</ele>
        <time>2018-11-24T08:10:45Z</time>
      </trkpt>
      <trkpt lat="42.79597" lon="0.87806">
        <ele>2210</ele>
        <time>2018-11-24T08:10:47Z</time>
      </trkpt>
      <trkpt lat="42.79595" lon="0.87799">
        <ele>2209.1</ele>
        <time>2018-11-24T08:10:49Z</time>
      </trkpt>
      <trkpt lat="42.79594" lon="0.87792">
        <ele>2209.1</ele>
        <time>2018-11-24T08:10:51Z</time>
      </trkpt>
      <trkpt lat="42.79592" lon="0.87786">
        <ele>2208.9</ele>
        <time>2018-11-24T08:10:53Z</time>
      </trkpt>
      <trkpt lat="42.79591" lon="0.8778">
        <ele>2209</ele>
        <time>2018-11-24T08:10:55Z</time>
      </trkpt>
      <trkpt lat="42.7959" lon="0.87774">
        <ele>2208.8</ele>
        <time>2018-11-24T08:10:57Z</time>
      </trkpt>
      <trkpt lat="42.79588" lon="0.87768">
        <ele>2208.7</ele>
        <time>2018-11-24T08:10:59Z</time>
      </trkpt>
      <trkpt lat="42.79588" lon="0.87761">
        <ele>2209</ele>
        <time>2018-11-24T08:11:01Z</time>
      </trkpt>
      <trkpt lat="42.79588" lon="0.87754">
        <ele>2209</ele>
        <time>2018-11-24T08:11:03Z</time>
      </trkpt>
      <trkpt lat="42.79587" lon="0.87747">
        <ele>2209</ele>
        <time>2018-11-24T08:11:05Z</time>
      </trkpt>
      <trkpt lat="42.79587" lon="0.8774">
        <ele>2209.8</ele>
        <time>2018-11-24T08:11:07Z</time>
      </trkpt>
      <trkpt lat="42.79587" lon="0.87734">
        <ele>2210.1</ele>
        <time>2018-11-24T08:11:09Z</time>
      </trkpt>
      <trkpt lat="42.79586" lon="0.87727">
        <ele>2210.9</ele>
        <time>2018-11-24T08:11:11Z</time>
      </trkpt>
      <trkpt lat="42.79586" lon="0.87721">
        <ele>2211.8</ele>
        <time>2018-11-24T08:11:13Z</time>
      </trkpt>
      <trkpt lat="42.79587" lon="0.87713">
        <ele>2211.7</ele>
        <time>2018-11-24T08:11:15Z</time>
      </trkpt>
      <trkpt lat="42.79585" lon="0.87706">
        <ele>2212</ele>
        <time>2018-11-24T08:11:17Z</time>
      </trkpt>
      <trkpt lat="42.79585" lon="0.87699">
        <ele>2212.1</ele>
        <time>2018-11-24T08:11:19Z</time>
      </trkpt>
      <trkpt lat="42.79583" lon="0.87693">
        <ele>2212.4</ele>
        <time>2018-11-24T08:11:21Z</time>
      </trkpt>
      <trkpt lat="42.79582" lon="0.87687">
        <ele>2212.6</ele>
        <time>2018-11-24T08:11:23Z</time>
      </trkpt>
      <trkpt lat="42.79582" lon="0.87679">
        <ele>2212.9</ele>
        <time>2018-11-24T08:11:25Z</time>
      </trkpt>
      <trkpt lat="42.7958" lon="0.87674">
        <ele>2213.7</ele>
        <time>2018-11-24T08:11:27Z</time>
      </trkpt>
      <trkpt lat="42.79576" lon="0.87668">
        <ele>2214.9</ele>
        <time>2018-11-24T08:11:29Z</time>
      </trkpt>
      <trkpt lat="42.79572" lon="0.87662">
        <ele>2216.1</ele>
        <time>2018-11-24T08:11:32Z</time>
      </trkpt>
      <trkpt lat="42.79568" lon="0.87657">
        <ele>2217.1</ele>
        <time>2018-11-24T08:11:34Z</time>
      </trkpt>
      <trkpt lat="42.79565" lon="0.87653">
        <ele>2218.3</ele>
        <time>2018-11-24T08:11:36Z</time>
      </trkpt>
      <trkpt lat="42.79561" lon="0.87648">
        <ele>2219.1</ele>
        <time>2018-11-24T08:11:38Z</time>
      </trkpt>
      <trkpt lat="42.79557" lon="0.87644">
        <ele>2220</ele>
        <time>2018-11-24T08:11:40Z</time>
      </trkpt>
      <trkpt lat="42.79554" lon="0.87639">
        <ele>2220.9</ele>
        <time>2018-11-24T08:11:42Z</time>
      </trkpt>
      <trkpt lat="42.79551" lon="0.87634">
        <ele>2221.4</ele>
        <time>2018-11-24T08:11:44Z</time>
      </trkpt>
      <trkpt lat="42.79546" lon="0.87631">
        <ele>2222</ele>
        <time>2018-11-24T08:11:46Z</time>
      </trkpt>
      <trkpt lat="42.79543" lon="0.87626">
        <ele>2222</ele>
        <time>2018-11-24T08:11:48Z</time>
      </trkpt>
      <trkpt lat="42.79539" lon="0.87621">
        <ele>2222.7</ele>
        <time>2018-11-24T08:11:50Z</time>
      </trkpt>
      <trkpt lat="42.79538" lon="0.87615">
        <ele>2223</ele>
        <time>2018-11-24T08:11:52Z</time>
      </trkpt>
      <trkpt lat="42.79536" lon="0.87609">
        <ele>2224.1</ele>
        <time>2018-11-24T08:11:53Z</time>
      </trkpt>
      <trkpt lat="42.79533" lon="0.87604">
        <ele>2225.5</ele>
        <time>2018-11-24T08:11:55Z</time>
      </trkpt>
      <trkpt lat="42.79532" lon="0.87597">
        <ele>2225.9</ele>
        <time>2018-11-24T08:11:57Z</time>
      </trkpt>
      <trkpt lat="42.7953" lon="0.87591">
        <ele>2226.4</ele>
        <time>2018-11-24T08:11:59Z</time>
      </trkpt>
      <trkpt lat="42.79528" lon="0.87585">
        <ele>2228</ele>
        <time>2018-11-24T08:12:01Z</time>
      </trkpt>
      <trkpt lat="42.79526" lon="0.87578">
        <ele>2229.1</ele>
        <time>2018-11-24T08:12:03Z</time>
      </trkpt>
      <trkpt lat="42.79524" lon="0.87572">
        <ele>2230.5</ele>
        <time>2018-11-24T08:12:05Z</time>
      </trkpt>
      <trkpt lat="42.79522" lon="0.87566">
        <ele>2232.3</ele>
        <time>2018-11-24T08:12:07Z</time>
      </trkpt>
      <trkpt lat="42.79521" lon="0.87559">
        <ele>2234</ele>
        <time>2018-11-24T08:12:09Z</time>
      </trkpt>
      <trkpt lat="42.79519" lon="0.87553">
        <ele>2234.8</ele>
        <time>2018-11-24T08:12:11Z</time>
      </trkpt>
      <trkpt lat="42.79519" lon="0.87546">
        <ele>2235.8</ele>
        <time>2018-11-24T08:12:13Z</time>
      </trkpt>
      <trkpt lat="42.79517" lon="0.87541">
        <ele>2237</ele>
        <time>2018-11-24T08:12:15Z</time>
      </trkpt>
      <trkpt lat="42.79514" lon="0.87535">
        <ele>2237.2</ele>
        <time>2018-11-24T08:12:17Z</time>
      </trkpt>
      <trkpt lat="42.79513" lon="0.87528">
        <ele>2236.3</ele>
        <time>2018-11-24T08:12:19Z</time>
      </trkpt>
      <trkpt lat="42.7951" lon="0.87522">
        <ele>2238.8</ele>
        <time>2018-11-24T08:12:21Z</time>
      </trkpt>
      <trkpt lat="42.7951" lon="0.87515">
        <ele>2241.1</ele>
        <time>2018-11-24T08:12:23Z</time>
      </trkpt>
      <trkpt lat="42.79509" lon="0.87508">
        <ele>2241.9</ele>
        <time>2018-11-24T08:12:25Z</time>
      </trkpt>
      <trkpt lat="42.79507" lon="0.87503">
        <ele>2242.9</ele>
        <time>2018-11-24T08:12:27Z</time>
      </trkpt>
      <trkpt lat="42.79507" lon="0.87496">
        <ele>2244.1</ele>
        <time>2018-11-24T08:12:29Z</time>
      </trkpt>
      <trkpt lat="42.79506" lon="0.8749">
        <ele>2245.4</ele>
        <time>2018-11-24T08:12:31Z</time>
      </trkpt>
      <trkpt lat="42.79508" lon="0.87483">
        <ele>2245.6</ele>
        <time>2018-11-24T08:12:33Z</time>
      </trkpt>
      <trkpt lat="42.79506" lon="0.87477">
        <ele>2247.1</ele>
        <time>2018-11-24T08:12:35Z</time>
      </trkpt>
      <trkpt lat="42.79507" lon="0.8747">
        <ele>2247.7</ele>
        <time>2018-11-24T08:12:37Z</time>
      </trkpt>
      <trkpt lat="42.79508" lon="0.87463">
        <ele>2248.6</ele>
        <time>2018-11-24T08:12:39Z</time>
      </trkpt>
      <trkpt lat="42.79507" lon="0.87456">
        <ele>2249.9</ele>
        <time>2018-11-24T08:12:41Z</time>
      </trkpt>
      <trkpt lat="42.79507" lon="0.87449">
        <ele>2251</ele>
        <time>2018-11-24T08:12:43Z</time>
      </trkpt>
      <trkpt lat="42.79508" lon="0.87441">
        <ele>2251.3</ele>
        <time>2018-11-24T08:12:46Z</time>
      </trkpt>
      <trkpt lat="42.7951" lon="0.87436">
        <ele>2251.6</ele>
        <time>2018-11-24T08:12:48Z</time>
      </trkpt>
      <trkpt lat="42.79509" lon="0.87429">
        <ele>2253</ele>
        <time>2018-11-24T08:12:50Z</time>
      </trkpt>
      <trkpt lat="42.7951" lon="0.87423">
        <ele>2253</ele>
        <time>2018-11-24T08:12:51Z</time>
      </trkpt>
      <trkpt lat="42.7951" lon="0.87415">
        <ele>2253.9</ele>
        <time>2018-11-24T08:12:54Z</time>
      </trkpt>
      <trkpt lat="42.79513" lon="0.8741">
        <ele>2254.1</ele>
        <time>2018-11-24T08:12:56Z</time>
      </trkpt>
      <trkpt lat="42.79516" lon="0.87405">
        <ele>2254</ele>
        <time>2018-11-24T08:12:58Z</time>
      </trkpt>
      <trkpt lat="42.79519" lon="0.874">
        <ele>2254.3</ele>
        <time>2018-11-24T08:13:00Z</time>
      </trkpt>
      <trkpt lat="42.79522" lon="0.87394">
        <ele>2253.9</ele>
        <time>2018-11-24T08:13:02Z</time>
      </trkpt>
      <trkpt lat="42.79526" lon="0.8739">
        <ele>2253.6</ele>
        <time>2018-11-24T08:13:04Z</time>
      </trkpt>
      <trkpt lat="42.79524" lon="0.87384">
        <ele>2254</ele>
        <time>2018-11-24T08:13:06Z</time>
      </trkpt>
      <trkpt lat="42.79528" lon="0.87386">
        <ele>2253.3</ele>
        <time>2018-11-24T08:13:08Z</time>
      </trkpt>
      <trkpt lat="42.79524" lon="0.87385">
        <ele>2254</ele>
        <time>2018-11-24T08:13:10Z</time>
      </trkpt>
      <trkpt lat="42.79528" lon="0.87382">
        <ele>2253.4</ele>
        <time>2018-11-24T08:13:12Z</time>
      </trkpt>
      <trkpt lat="42.79524" lon="0.87379">
        <ele>2254.3</ele>
        <time>2018-11-24T08:13:13Z</time>
      </trkpt>
      <trkpt lat="42.79524" lon="0.87373">
        <ele>2255.6</ele>
        <time>2018-11-24T08:13:15Z</time>
      </trkpt>
      <trkpt lat="42.79519" lon="0.87372">
        <ele>2256.8</ele>
        <time>2018-11-24T08:13:17Z</time>
      </trkpt>
      <trkpt lat="42.79513" lon="0.87371">
        <ele>2258.6</ele>
        <time>2018-11-24T08:13:19Z</time>
      </trkpt>
      <trkpt lat="42.7951" lon="0.87367">
        <ele>2260.6</ele>
        <time>2018-11-24T08:13:21Z</time>
      </trkpt>
      <trkpt lat="42.79505" lon="0.87367">
        <ele>2261.9</ele>
        <time>2018-11-24T08:13:23Z</time>
      </trkpt>
      <trkpt lat="42.79501" lon="0.87366">
        <ele>2263.3</ele>
        <time>2018-11-24T08:13:25Z</time>
      </trkpt>
      <trkpt lat="42.79496" lon="0.87362">
        <ele>2264.4</ele>
        <time>2018-11-24T08:13:27Z</time>
      </trkpt>
      <trkpt lat="42.79493" lon="0.87357">
        <ele>2266</ele>
        <time>2018-11-24T08:13:29Z</time>
      </trkpt>
      <trkpt lat="42.79489" lon="0.8736">
        <ele>2266</ele>
        <time>2018-11-24T08:13:31Z</time>
      </trkpt>
      <trkpt lat="42.79485" lon="0.87364">
        <ele>2266.7</ele>
        <time>2018-11-24T08:13:33Z</time>
      </trkpt>
      <trkpt lat="42.79483" lon="0.8737">
        <ele>2267.2</ele>
        <time>2018-11-24T08:13:35Z</time>
      </trkpt>
      <trkpt lat="42.79482" lon="0.87377">
        <ele>2268</ele>
        <time>2018-11-24T08:13:37Z</time>
      </trkpt>
      <trkpt lat="42.7948" lon="0.87383">
        <ele>2269.1</ele>
        <time>2018-11-24T08:13:39Z</time>
      </trkpt>
      <trkpt lat="42.79478" lon="0.87389">
        <ele>2269.5</ele>
        <time>2018-11-24T08:13:41Z</time>
      </trkpt>
      <trkpt lat="42.79476" lon="0.87396">
        <ele>2269.9</ele>
        <time>2018-11-24T08:13:43Z</time>
      </trkpt>
      <trkpt lat="42.79472" lon="0.874">
        <ele>2270.9</ele>
        <time>2018-11-24T08:13:45Z</time>
      </trkpt>
      <trkpt lat="42.79469" lon="0.87405">
        <ele>2271.8</ele>
        <time>2018-11-24T08:13:47Z</time>
      </trkpt>
      <trkpt lat="42.79469" lon="0.87411">
        <ele>2271.3</ele>
        <time>2018-11-24T08:13:49Z</time>
      </trkpt>
      <trkpt lat="42.79464" lon="0.87414">
        <ele>2272</ele>
        <time>2018-11-24T08:13:51Z</time>
      </trkpt>
      <trkpt lat="42.79459" lon="0.87411">
        <ele>2273.6</ele>
        <time>2018-11-24T08:13:53Z</time>
      </trkpt>
      <trkpt lat="42.79455" lon="0.87408">
        <ele>2276.1</ele>
        <time>2018-11-24T08:13:55Z</time>
      </trkpt>
      <trkpt lat="42.79451" lon="0.87405">
        <ele>2278.5</ele>
        <time>2018-11-24T08:13:57Z</time>
      </trkpt>
      <trkpt lat="42.79447" lon="0.87402">
        <ele>2280.4</ele>
        <time>2018-11-24T08:13:58Z</time>
      </trkpt>
      <trkpt lat="42.79442" lon="0.87399">
        <ele>2281.8</ele>
        <time>2018-11-24T08:14:01Z</time>
      </trkpt>
      <trkpt lat="42.79438" lon="0.87395">
        <ele>2283.5</ele>
        <time>2018-11-24T08:14:03Z</time>
      </trkpt>
      <trkpt lat="42.79434" lon="0.87392">
        <ele>2285</ele>
        <time>2018-11-24T08:14:04Z</time>
      </trkpt>
      <trkpt lat="42.79429" lon="0.87388">
        <ele>2287.1</ele>
        <time>2018-11-24T08:14:07Z</time>
      </trkpt>
      <trkpt lat="42.79426" lon="0.87384">
        <ele>2289</ele>
        <time>2018-11-24T08:14:08Z</time>
      </trkpt>
      <trkpt lat="42.79422" lon="0.87379">
        <ele>2290.5</ele>
        <time>2018-11-24T08:14:10Z</time>
      </trkpt>
      <trkpt lat="42.7942" lon="0.87373">
        <ele>2291.9</ele>
        <time>2018-11-24T08:14:12Z</time>
      </trkpt>
      <trkpt lat="42.79419" lon="0.87367">
        <ele>2293.4</ele>
        <time>2018-11-24T08:14:14Z</time>
      </trkpt>
      <trkpt lat="42.79416" lon="0.87361">
        <ele>2294.9</ele>
        <time>2018-11-24T08:14:16Z</time>
      </trkpt>
      <trkpt lat="42.79415" lon="0.87355">
        <ele>2295.9</ele>
        <time>2018-11-24T08:14:18Z</time>
      </trkpt>
      <trkpt lat="42.79416" lon="0.87347">
        <ele>2296.1</ele>
        <time>2018-11-24T08:14:20Z</time>
      </trkpt>
      <trkpt lat="42.79416" lon="0.8734">
        <ele>2297</ele>
        <time>2018-11-24T08:14:22Z</time>
      </trkpt>
      <trkpt lat="42.79415" lon="0.87334">
        <ele>2297.6</ele>
        <time>2018-11-24T08:14:25Z</time>
      </trkpt>
      <trkpt lat="42.79414" lon="0.87326">
        <ele>2298.2</ele>
        <time>2018-11-24T08:14:27Z</time>
      </trkpt>
      <trkpt lat="42.79412" lon="0.87319">
        <ele>2299.6</ele>
        <time>2018-11-24T08:14:29Z</time>
      </trkpt>
      <trkpt lat="42.79411" lon="0.87312">
        <ele>2300</ele>
        <time>2018-11-24T08:14:31Z</time>
      </trkpt>
      <trkpt lat="42.79411" lon="0.87305">
        <ele>2300.9</ele>
        <time>2018-11-24T08:14:33Z</time>
      </trkpt>
      <trkpt lat="42.7941" lon="0.87299">
        <ele>2302.2</ele>
        <time>2018-11-24T08:14:35Z</time>
      </trkpt>
      <trkpt lat="42.79409" lon="0.87293">
        <ele>2303.3</ele>
        <time>2018-11-24T08:14:37Z</time>
      </trkpt>
      <trkpt lat="42.79408" lon="0.87286">
        <ele>2304.5</ele>
        <time>2018-11-24T08:14:39Z</time>
      </trkpt>
      <trkpt lat="42.79408" lon="0.87279">
        <ele>2305.1</ele>
        <time>2018-11-24T08:14:41Z</time>
      </trkpt>
      <trkpt lat="42.79407" lon="0.87273">
        <ele>2305.9</ele>
        <time>2018-11-24T08:14:43Z</time>
      </trkpt>
      <trkpt lat="42.79408" lon="0.87266">
        <ele>2306.8</ele>
        <time>2018-11-24T08:14:45Z</time>
      </trkpt>
      <trkpt lat="42.79408" lon="0.8726">
        <ele>2307.2</ele>
        <time>2018-11-24T08:14:47Z</time>
      </trkpt>
      <trkpt lat="42.79407" lon="0.87253">
        <ele>2307.7</ele>
        <time>2018-11-24T08:14:48Z</time>
      </trkpt>
      <trkpt lat="42.79406" lon="0.87247">
        <ele>2307.8</ele>
        <time>2018-11-24T08:14:50Z</time>
      </trkpt>
      <trkpt lat="42.79405" lon="0.87241">
        <ele>2308</ele>
        <time>2018-11-24T08:14:52Z</time>
      </trkpt>
      <trkpt lat="42.79406" lon="0.87234">
        <ele>2308.3</ele>
        <time>2018-11-24T08:14:54Z</time>
      </trkpt>
      <trkpt lat="42.79404" lon="0.87229">
        <ele>2309.3</ele>
        <time>2018-11-24T08:14:56Z</time>
      </trkpt>
      <trkpt lat="42.79403" lon="0.87222">
        <ele>2310.2</ele>
        <time>2018-11-24T08:14:58Z</time>
      </trkpt>
      <trkpt lat="42.79402" lon="0.87216">
        <ele>2310.9</ele>
        <time>2018-11-24T08:15:00Z</time>
      </trkpt>
      <trkpt lat="42.79402" lon="0.87209">
        <ele>2311.7</ele>
        <time>2018-11-24T08:15:02Z</time>
      </trkpt>
      <trkpt lat="42.79402" lon="0.87203">
        <ele>2313.2</ele>
        <time>2018-11-24T08:15:04Z</time>
      </trkpt>
      <trkpt lat="42.79403" lon="0.87196">
        <ele>2314.2</ele>
        <time>2018-11-24T08:15:06Z</time>
      </trkpt>
      <trkpt lat="42.79402" lon="0.87189">
        <ele>2315.1</ele>
        <time>2018-11-24T08:15:08Z</time>
      </trkpt>
      <trkpt lat="42.79403" lon="0.87182">
        <ele>2316</ele>
        <time>2018-11-24T08:15:10Z</time>
      </trkpt>
      <trkpt lat="42.79403" lon="0.87175">
        <ele>2316</ele>
        <time>2018-11-24T08:15:12Z</time>
      </trkpt>
      <trkpt lat="42.79404" lon="0.87168">
        <ele>2316.5</ele>
        <time>2018-11-24T08:15:14Z</time>
      </trkpt>
      <trkpt lat="42.79403" lon="0.87161">
        <ele>2317</ele>
        <time>2018-11-24T08:15:16Z</time>
      </trkpt>
      <trkpt lat="42.79402" lon="0.87154">
        <ele>2317.7</ele>
        <time>2018-11-24T08:15:18Z</time>
      </trkpt>
      <trkpt lat="42.794" lon="0.87149">
        <ele>2318</ele>
        <time>2018-11-24T08:15:20Z</time>
      </trkpt>
      <trkpt lat="42.79398" lon="0.87142">
        <ele>2318.6</ele>
        <time>2018-11-24T08:15:22Z</time>
      </trkpt>
      <trkpt lat="42.79395" lon="0.87137">
        <ele>2318.2</ele>
        <time>2018-11-24T08:15:24Z</time>
      </trkpt>
      <trkpt lat="42.79392" lon="0.87131">
        <ele>2318.3</ele>
        <time>2018-11-24T08:15:26Z</time>
      </trkpt>
      <trkpt lat="42.79391" lon="0.87124">
        <ele>2318.4</ele>
        <time>2018-11-24T08:15:28Z</time>
      </trkpt>
      <trkpt lat="42.79389" lon="0.87119">
        <ele>2318.1</ele>
        <time>2018-11-24T08:15:30Z</time>
      </trkpt>
      <trkpt lat="42.79389" lon="0.87112">
        <ele>2318.1</ele>
        <time>2018-11-24T08:15:32Z</time>
      </trkpt>
      <trkpt lat="42.79385" lon="0.87107">
        <ele>2318.6</ele>
        <time>2018-11-24T08:15:34Z</time>
      </trkpt>
      <trkpt lat="42.79387" lon="0.871">
        <ele>2319.8</ele>
        <time>2018-11-24T08:15:36Z</time>
      </trkpt>
      <trkpt lat="42.79387" lon="0.87093">
        <ele>2320</ele>
        <time>2018-11-24T08:15:38Z</time>
      </trkpt>
      <trkpt lat="42.7939" lon="0.87088">
        <ele>2321.1</ele>
        <time>2018-11-24T08:15:40Z</time>
      </trkpt>
      <trkpt lat="42.79392" lon="0.87081">
        <ele>2322</ele>
        <time>2018-11-24T08:15:42Z</time>
      </trkpt>
      <trkpt lat="42.79391" lon="0.87074">
        <ele>2322.9</ele>
        <time>2018-11-24T08:15:44Z</time>
      </trkpt>
      <trkpt lat="42.79391" lon="0.87067">
        <ele>2323.6</ele>
        <time>2018-11-24T08:15:46Z</time>
      </trkpt>
      <trkpt lat="42.79389" lon="0.87061">
        <ele>2323.6</ele>
        <time>2018-11-24T08:15:48Z</time>
      </trkpt>
      <trkpt lat="42.79387" lon="0.87055">
        <ele>2323.9</ele>
        <time>2018-11-24T08:15:50Z</time>
      </trkpt>
      <trkpt lat="42.79383" lon="0.87051">
        <ele>2323</ele>
        <time>2018-11-24T08:15:52Z</time>
      </trkpt>
      <trkpt lat="42.79381" lon="0.87045">
        <ele>2323.3</ele>
        <time>2018-11-24T08:15:54Z</time>
      </trkpt>
      <trkpt lat="42.79379" lon="0.87039">
        <ele>2323.1</ele>
        <time>2018-11-24T08:15:56Z</time>
      </trkpt>
      <trkpt lat="42.79377" lon="0.87033">
        <ele>2323.1</ele>
        <time>2018-11-24T08:15:58Z</time>
      </trkpt>
      <trkpt lat="42.79376" lon="0.87027">
        <ele>2323.5</ele>
        <time>2018-11-24T08:16:00Z</time>
      </trkpt>
      <trkpt lat="42.79375" lon="0.8702">
        <ele>2323.4</ele>
        <time>2018-11-24T08:16:02Z</time>
      </trkpt>
      <trkpt lat="42.79376" lon="0.87013">
        <ele>2323.6</ele>
        <time>2018-11-24T08:16:04Z</time>
      </trkpt>
      <trkpt lat="42.79378" lon="0.87006">
        <ele>2324</ele>
        <time>2018-11-24T08:16:06Z</time>
      </trkpt>
      <trkpt lat="42.79378" lon="0.86999">
        <ele>2324</ele>
        <time>2018-11-24T08:16:08Z</time>
      </trkpt>
      <trkpt lat="42.79378" lon="0.86992">
        <ele>2324.1</ele>
        <time>2018-11-24T08:16:10Z</time>
      </trkpt>
      <trkpt lat="42.79377" lon="0.86985">
        <ele>2324.1</ele>
        <time>2018-11-24T08:16:12Z</time>
      </trkpt>
      <trkpt lat="42.79377" lon="0.86979">
        <ele>2324.6</ele>
        <time>2018-11-24T08:16:14Z</time>
      </trkpt>
      <trkpt lat="42.7938" lon="0.86975">
        <ele>2324.4</ele>
        <time>2018-11-24T08:16:16Z</time>
      </trkpt>
      <trkpt lat="42.79383" lon="0.86968">
        <ele>2324</ele>
        <time>2018-11-24T08:16:18Z</time>
      </trkpt>
      <trkpt lat="42.79384" lon="0.86961">
        <ele>2324.4</ele>
        <time>2018-11-24T08:16:20Z</time>
      </trkpt>
      <trkpt lat="42.79384" lon="0.86954">
        <ele>2325</ele>
        <time>2018-11-24T08:16:22Z</time>
      </trkpt>
      <trkpt lat="42.79384" lon="0.86947">
        <ele>2325.1</ele>
        <time>2018-11-24T08:16:24Z</time>
      </trkpt>
      <trkpt lat="42.79384" lon="0.8694">
        <ele>2325.1</ele>
        <time>2018-11-24T08:16:26Z</time>
      </trkpt>
      <trkpt lat="42.79385" lon="0.86933">
        <ele>2325.2</ele>
        <time>2018-11-24T08:16:28Z</time>
      </trkpt>
      <trkpt lat="42.79387" lon="0.86926">
        <ele>2325.2</ele>
        <time>2018-11-24T08:16:31Z</time>
      </trkpt>
      <trkpt lat="42.79389" lon="0.8692">
        <ele>2326.2</ele>
        <time>2018-11-24T08:16:33Z</time>
      </trkpt>
      <trkpt lat="42.79391" lon="0.86913">
        <ele>2327.1</ele>
        <time>2018-11-24T08:16:35Z</time>
      </trkpt>
      <trkpt lat="42.79392" lon="0.86907">
        <ele>2327.2</ele>
        <time>2018-11-24T08:16:37Z</time>
      </trkpt>
      <trkpt lat="42.79395" lon="0.86901">
        <ele>2327.9</ele>
        <time>2018-11-24T08:16:39Z</time>
      </trkpt>
      <trkpt lat="42.79397" lon="0.86896">
        <ele>2328</ele>
        <time>2018-11-24T08:16:40Z</time>
      </trkpt>
      <trkpt lat="42.79399" lon="0.8689">
        <ele>2328.1</ele>
        <time>2018-11-24T08:16:42Z</time>
      </trkpt>
      <trkpt lat="42.794" lon="0.86884">
        <ele>2328.5</ele>
        <time>2018-11-24T08:16:44Z</time>
      </trkpt>
      <trkpt lat="42.794" lon="0.86877">
        <ele>2327.9</ele>
        <time>2018-11-24T08:16:46Z</time>
      </trkpt>
      <trkpt lat="42.794" lon="0.8687">
        <ele>2326.8</ele>
        <time>2018-11-24T08:16:48Z</time>
      </trkpt>
      <trkpt lat="42.794" lon="0.86864">
        <ele>2325.2</ele>
        <time>2018-11-24T08:16:50Z</time>
      </trkpt>
      <trkpt lat="42.79402" lon="0.8687">
        <ele>2326.8</ele>
        <time>2018-11-24T08:16:52Z</time>
      </trkpt>
      <trkpt lat="42.79406" lon="0.86866">
        <ele>2326.3</ele>
        <time>2018-11-24T08:16:54Z</time>
      </trkpt>
      <trkpt lat="42.79409" lon="0.86861">
        <ele>2327</ele>
        <time>2018-11-24T08:16:56Z</time>
      </trkpt>
      <trkpt lat="42.7941" lon="0.86854">
        <ele>2327.4</ele>
        <time>2018-11-24T08:16:58Z</time>
      </trkpt>
      <trkpt lat="42.79409" lon="0.86848">
        <ele>2327.2</ele>
        <time>2018-11-24T08:17:00Z</time>
      </trkpt>
      <trkpt lat="42.79407" lon="0.86843">
        <ele>2327</ele>
        <time>2018-11-24T08:17:02Z</time>
      </trkpt>
      <trkpt lat="42.79407" lon="0.86836">
        <ele>2327.1</ele>
        <time>2018-11-24T08:17:03Z</time>
      </trkpt>
      <trkpt lat="42.79407" lon="0.8683">
        <ele>2327.8</ele>
        <time>2018-11-24T08:17:05Z</time>
      </trkpt>
      <trkpt lat="42.79408" lon="0.86823">
        <ele>2328.6</ele>
        <time>2018-11-24T08:17:07Z</time>
      </trkpt>
      <trkpt lat="42.79411" lon="0.86817">
        <ele>2328.3</ele>
        <time>2018-11-24T08:17:09Z</time>
      </trkpt>
      <trkpt lat="42.79414" lon="0.86812">
        <ele>2328.5</ele>
        <time>2018-11-24T08:17:11Z</time>
      </trkpt>
      <trkpt lat="42.79419" lon="0.86811">
        <ele>2330.2</ele>
        <time>2018-11-24T08:17:13Z</time>
      </trkpt>
      <trkpt lat="42.79424" lon="0.86809">
        <ele>2331</ele>
        <time>2018-11-24T08:17:15Z</time>
      </trkpt>
      <trkpt lat="42.79427" lon="0.86803">
        <ele>2330.8</ele>
        <time>2018-11-24T08:17:18Z</time>
      </trkpt>
      <trkpt lat="42.79429" lon="0.86797">
        <ele>2331.3</ele>
        <time>2018-11-24T08:17:20Z</time>
      </trkpt>
      <trkpt lat="42.79432" lon="0.86791">
        <ele>2331.9</ele>
        <time>2018-11-24T08:17:22Z</time>
      </trkpt>
      <trkpt lat="42.79435" lon="0.86785">
        <ele>2332.5</ele>
        <time>2018-11-24T08:17:24Z</time>
      </trkpt>
      <trkpt lat="42.79435" lon="0.86779">
        <ele>2333</ele>
        <time>2018-11-24T08:17:26Z</time>
      </trkpt>
      <trkpt lat="42.79436" lon="0.86772">
        <ele>2333.9</ele>
        <time>2018-11-24T08:17:27Z</time>
      </trkpt>
      <trkpt lat="42.79438" lon="0.86766">
        <ele>2335.2</ele>
        <time>2018-11-24T08:17:29Z</time>
      </trkpt>
      <trkpt lat="42.79442" lon="0.86762">
        <ele>2336.2</ele>
        <time>2018-11-24T08:17:32Z</time>
      </trkpt>
      <trkpt lat="42.79444" lon="0.86756">
        <ele>2337.3</ele>
        <time>2018-11-24T08:17:33Z</time>
      </trkpt>
      <trkpt lat="42.79448" lon="0.86752">
        <ele>2338.4</ele>
        <time>2018-11-24T08:17:35Z</time>
      </trkpt>
      <trkpt lat="42.79451" lon="0.86746">
        <ele>2339.2</ele>
        <time>2018-11-24T08:17:37Z</time>
      </trkpt>
      <trkpt lat="42.7945" lon="0.8674">
        <ele>2340.2</ele>
        <time>2018-11-24T08:17:39Z</time>
      </trkpt>
      <trkpt lat="42.79452" lon="0.86735">
        <ele>2341.1</ele>
        <time>2018-11-24T08:17:41Z</time>
      </trkpt>
      <trkpt lat="42.79455" lon="0.86729">
        <ele>2342</ele>
        <time>2018-11-24T08:17:43Z</time>
      </trkpt>
      <trkpt lat="42.79458" lon="0.86723">
        <ele>2342</ele>
        <time>2018-11-24T08:17:45Z</time>
      </trkpt>
      <trkpt lat="42.79461" lon="0.86718">
        <ele>2342.8</ele>
        <time>2018-11-24T08:17:47Z</time>
      </trkpt>
      <trkpt lat="42.79463" lon="0.86711">
        <ele>2343.1</ele>
        <time>2018-11-24T08:17:49Z</time>
      </trkpt>
      <trkpt lat="42.79466" lon="0.86705">
        <ele>2343.8</ele>
        <time>2018-11-24T08:17:51Z</time>
      </trkpt>
      <trkpt lat="42.79468" lon="0.86699">
        <ele>2344.2</ele>
        <time>2018-11-24T08:17:53Z</time>
      </trkpt>
      <trkpt lat="42.7947" lon="0.86692">
        <ele>2345.1</ele>
        <time>2018-11-24T08:17:55Z</time>
      </trkpt>
      <trkpt lat="42.79472" lon="0.86686">
        <ele>2346</ele>
        <time>2018-11-24T08:17:57Z</time>
      </trkpt>
      <trkpt lat="42.79474" lon="0.8668">
        <ele>2346</ele>
        <time>2018-11-24T08:17:59Z</time>
      </trkpt>
      <trkpt lat="42.79476" lon="0.86673">
        <ele>2346.1</ele>
        <time>2018-11-24T08:18:01Z</time>
      </trkpt>
      <trkpt lat="42.79476" lon="0.86667">
        <ele>2346.2</ele>
        <time>2018-11-24T08:18:03Z</time>
      </trkpt>
      <trkpt lat="42.79478" lon="0.86661">
        <ele>2346.8</ele>
        <time>2018-11-24T08:18:05Z</time>
      </trkpt>
      <trkpt lat="42.7948" lon="0.86654">
        <ele>2347.1</ele>
        <time>2018-11-24T08:18:08Z</time>
      </trkpt>
      <trkpt lat="42.79482" lon="0.86648">
        <ele>2347.1</ele>
        <time>2018-11-24T08:18:09Z</time>
      </trkpt>
      <trkpt lat="42.79485" lon="0.86643">
        <ele>2347</ele>
        <time>2018-11-24T08:18:11Z</time>
      </trkpt>
      <trkpt lat="42.79488" lon="0.86635">
        <ele>2346.9</ele>
        <time>2018-11-24T08:18:14Z</time>
      </trkpt>
      <trkpt lat="42.79491" lon="0.86629">
        <ele>2347</ele>
        <time>2018-11-24T08:18:16Z</time>
      </trkpt>
      <trkpt lat="42.79494" lon="0.86622">
        <ele>2347.2</ele>
        <time>2018-11-24T08:18:18Z</time>
      </trkpt>
      <trkpt lat="42.79496" lon="0.86616">
        <ele>2347.9</ele>
        <time>2018-11-24T08:18:20Z</time>
      </trkpt>
      <trkpt lat="42.79497" lon="0.8661">
        <ele>2348.1</ele>
        <time>2018-11-24T08:18:22Z</time>
      </trkpt>
      <trkpt lat="42.79498" lon="0.86604">
        <ele>2348.1</ele>
        <time>2018-11-24T08:18:24Z</time>
      </trkpt>
      <trkpt lat="42.795" lon="0.86597">
        <ele>2348.3</ele>
        <time>2018-11-24T08:18:26Z</time>
      </trkpt>
      <trkpt lat="42.79501" lon="0.8659">
        <ele>2349.1</ele>
        <time>2018-11-24T08:18:28Z</time>
      </trkpt>
      <trkpt lat="42.79502" lon="0.86583">
        <ele>2349.3</ele>
        <time>2018-11-24T08:18:30Z</time>
      </trkpt>
      <trkpt lat="42.79503" lon="0.86577">
        <ele>2349.6</ele>
        <time>2018-11-24T08:18:32Z</time>
      </trkpt>
      <trkpt lat="42.79505" lon="0.86571">
        <ele>2350.6</ele>
        <time>2018-11-24T08:18:34Z</time>
      </trkpt>
      <trkpt lat="42.79504" lon="0.86565">
        <ele>2350.8</ele>
        <time>2018-11-24T08:18:36Z</time>
      </trkpt>
      <trkpt lat="42.79502" lon="0.86558">
        <ele>2350.4</ele>
        <time>2018-11-24T08:18:38Z</time>
      </trkpt>
      <trkpt lat="42.79499" lon="0.86553">
        <ele>2350.1</ele>
        <time>2018-11-24T08:18:40Z</time>
      </trkpt>
      <trkpt lat="42.79501" lon="0.86559">
        <ele>2350.2</ele>
        <time>2018-11-24T08:18:42Z</time>
      </trkpt>
      <trkpt lat="42.79506" lon="0.86558">
        <ele>2351.2</ele>
        <time>2018-11-24T08:18:44Z</time>
      </trkpt>
      <trkpt lat="42.7951" lon="0.86557">
        <ele>2352.2</ele>
        <time>2018-11-24T08:18:46Z</time>
      </trkpt>
      <trkpt lat="42.79514" lon="0.86553">
        <ele>2353.5</ele>
        <time>2018-11-24T08:18:48Z</time>
      </trkpt>
      <trkpt lat="42.79518" lon="0.8655">
        <ele>2354</ele>
        <time>2018-11-24T08:18:49Z</time>
      </trkpt>
      <trkpt lat="42.79521" lon="0.86544">
        <ele>2354.9</ele>
        <time>2018-11-24T08:18:51Z</time>
      </trkpt>
      <trkpt lat="42.79524" lon="0.86538">
        <ele>2355</ele>
        <time>2018-11-24T08:18:54Z</time>
      </trkpt>
      <trkpt lat="42.79526" lon="0.86532">
        <ele>2355.3</ele>
        <time>2018-11-24T08:18:55Z</time>
      </trkpt>
      <trkpt lat="42.79529" lon="0.86527">
        <ele>2355.8</ele>
        <time>2018-11-24T08:18:58Z</time>
      </trkpt>
      <trkpt lat="42.79533" lon="0.86523">
        <ele>2355.8</ele>
        <time>2018-11-24T08:18:59Z</time>
      </trkpt>
      <trkpt lat="42.79537" lon="0.86519">
        <ele>2355.4</ele>
        <time>2018-11-24T08:19:01Z</time>
      </trkpt>
      <trkpt lat="42.79541" lon="0.86514">
        <ele>2355.3</ele>
        <time>2018-11-24T08:19:04Z</time>
      </trkpt>
      <trkpt lat="42.79545" lon="0.8651">
        <ele>2355.5</ele>
        <time>2018-11-24T08:19:06Z</time>
      </trkpt>
      <trkpt lat="42.79548" lon="0.86505">
        <ele>2355.8</ele>
        <time>2018-11-24T08:19:07Z</time>
      </trkpt>
      <trkpt lat="42.79552" lon="0.86501">
        <ele>2354.6</ele>
        <time>2018-11-24T08:19:09Z</time>
      </trkpt>
      <trkpt lat="42.79556" lon="0.86497">
        <ele>2353.9</ele>
        <time>2018-11-24T08:19:11Z</time>
      </trkpt>
      <trkpt lat="42.79558" lon="0.86491">
        <ele>2354.4</ele>
        <time>2018-11-24T08:19:13Z</time>
      </trkpt>
      <trkpt lat="42.79562" lon="0.86488">
        <ele>2354.7</ele>
        <time>2018-11-24T08:19:15Z</time>
      </trkpt>
      <trkpt lat="42.79567" lon="0.86485">
        <ele>2354</ele>
        <time>2018-11-24T08:19:17Z</time>
      </trkpt>
      <trkpt lat="42.79572" lon="0.86485">
        <ele>2352.7</ele>
        <time>2018-11-24T08:19:19Z</time>
      </trkpt>
      <trkpt lat="42.79576" lon="0.86481">
        <ele>2353.6</ele>
        <time>2018-11-24T08:19:21Z</time>
      </trkpt>
      <trkpt lat="42.79581" lon="0.86478">
        <ele>2353.1</ele>
        <time>2018-11-24T08:19:23Z</time>
      </trkpt>
      <trkpt lat="42.79586" lon="0.8648">
        <ele>2352.1</ele>
        <time>2018-11-24T08:19:25Z</time>
      </trkpt>
      <trkpt lat="42.7959" lon="0.86483">
        <ele>2352.1</ele>
        <time>2018-11-24T08:19:27Z</time>
      </trkpt>
      <trkpt lat="42.79595" lon="0.86485">
        <ele>2352.4</ele>
        <time>2018-11-24T08:19:29Z</time>
      </trkpt>
      <trkpt lat="42.796" lon="0.86488">
        <ele>2353</ele>
        <time>2018-11-24T08:19:32Z</time>
      </trkpt>
      <trkpt lat="42.79604" lon="0.86493">
        <ele>2353</ele>
        <time>2018-11-24T08:19:34Z</time>
      </trkpt>
      <trkpt lat="42.79609" lon="0.86498">
        <ele>2353.4</ele>
        <time>2018-11-24T08:19:36Z</time>
      </trkpt>
      <trkpt lat="42.79612" lon="0.86502">
        <ele>2353.4</ele>
        <time>2018-11-24T08:19:38Z</time>
      </trkpt>
      <trkpt lat="42.79615" lon="0.86507">
        <ele>2353.8</ele>
        <time>2018-11-24T08:19:40Z</time>
      </trkpt>
      <trkpt lat="42.79618" lon="0.86512">
        <ele>2354</ele>
        <time>2018-11-24T08:19:42Z</time>
      </trkpt>
      <trkpt lat="42.79621" lon="0.86519">
        <ele>2353.9</ele>
        <time>2018-11-24T08:19:44Z</time>
      </trkpt>
      <trkpt lat="42.79624" lon="0.86525">
        <ele>2354.1</ele>
        <time>2018-11-24T08:19:46Z</time>
      </trkpt>
      <trkpt lat="42.79628" lon="0.86528">
        <ele>2354.4</ele>
        <time>2018-11-24T08:19:48Z</time>
      </trkpt>
      <trkpt lat="42.79632" lon="0.86531">
        <ele>2354.9</ele>
        <time>2018-11-24T08:19:50Z</time>
      </trkpt>
      <trkpt lat="42.79638" lon="0.86531">
        <ele>2355.5</ele>
        <time>2018-11-24T08:19:52Z</time>
      </trkpt>
      <trkpt lat="42.79643" lon="0.86529">
        <ele>2357.1</ele>
        <time>2018-11-24T08:19:54Z</time>
      </trkpt>
      <trkpt lat="42.79647" lon="0.86528">
        <ele>2357</ele>
        <time>2018-11-24T08:19:56Z</time>
      </trkpt>
      <trkpt lat="42.79652" lon="0.86527">
        <ele>2356.9</ele>
        <time>2018-11-24T08:19:58Z</time>
      </trkpt>
      <trkpt lat="42.79657" lon="0.86527">
        <ele>2356.8</ele>
        <time>2018-11-24T08:20:00Z</time>
      </trkpt>
      <trkpt lat="42.79662" lon="0.86526">
        <ele>2356</ele>
        <time>2018-11-24T08:20:02Z</time>
      </trkpt>
      <trkpt lat="42.79666" lon="0.86524">
        <ele>2355.4</ele>
        <time>2018-11-24T08:20:04Z</time>
      </trkpt>
      <trkpt lat="42.79671" lon="0.86522">
        <ele>2355.1</ele>
        <time>2018-11-24T08:20:06Z</time>
      </trkpt>
      <trkpt lat="42.79676" lon="0.86518">
        <ele>2354.9</ele>
        <time>2018-11-24T08:20:08Z</time>
      </trkpt>
      <trkpt lat="42.79682" lon="0.86516">
        <ele>2354</ele>
        <time>2018-11-24T08:20:11Z</time>
      </trkpt>
      <trkpt lat="42.79687" lon="0.86515">
        <ele>2354</ele>
        <time>2018-11-24T08:20:13Z</time>
      </trkpt>
      <trkpt lat="42.79691" lon="0.86512">
        <ele>2353.6</ele>
        <time>2018-11-24T08:20:15Z</time>
      </trkpt>
      <trkpt lat="42.79696" lon="0.8651">
        <ele>2353.6</ele>
        <time>2018-11-24T08:20:17Z</time>
      </trkpt>
      <trkpt lat="42.79701" lon="0.86508">
        <ele>2353.3</ele>
        <time>2018-11-24T08:20:19Z</time>
      </trkpt>
      <trkpt lat="42.79705" lon="0.86506">
        <ele>2353</ele>
        <time>2018-11-24T08:20:20Z</time>
      </trkpt>
      <trkpt lat="42.7971" lon="0.86504">
        <ele>2352.2</ele>
        <time>2018-11-24T08:20:23Z</time>
      </trkpt>
      <trkpt lat="42.79714" lon="0.865">
        <ele>2352</ele>
        <time>2018-11-24T08:20:24Z</time>
      </trkpt>
      <trkpt lat="42.79717" lon="0.86494">
        <ele>2351.2</ele>
        <time>2018-11-24T08:20:26Z</time>
      </trkpt>
      <trkpt lat="42.79718" lon="0.86488">
        <ele>2351</ele>
        <time>2018-11-24T08:20:28Z</time>
      </trkpt>
      <trkpt lat="42.7972" lon="0.86482">
        <ele>2350</ele>
        <time>2018-11-24T08:20:30Z</time>
      </trkpt>
      <trkpt lat="42.79721" lon="0.86476">
        <ele>2348.3</ele>
        <time>2018-11-24T08:20:32Z</time>
      </trkpt>
      <trkpt lat="42.7972" lon="0.86469">
        <ele>2347.6</ele>
        <time>2018-11-24T08:20:34Z</time>
      </trkpt>
      <trkpt lat="42.79719" lon="0.86463">
        <ele>2346.9</ele>
        <time>2018-11-24T08:20:36Z</time>
      </trkpt>
      <trkpt lat="42.79719" lon="0.86456">
        <ele>2345.9</ele>
        <time>2018-11-24T08:20:38Z</time>
      </trkpt>
      <trkpt lat="42.7972" lon="0.8645">
        <ele>2344</ele>
        <time>2018-11-24T08:20:40Z</time>
      </trkpt>
      <trkpt lat="42.79718" lon="0.86443">
        <ele>2342.9</ele>
        <time>2018-11-24T08:20:42Z</time>
      </trkpt>
      <trkpt lat="42.79716" lon="0.86437">
        <ele>2341.8</ele>
        <time>2018-11-24T08:20:44Z</time>
      </trkpt>
      <trkpt lat="42.79715" lon="0.86431">
        <ele>2340.9</ele>
        <time>2018-11-24T08:20:46Z</time>
      </trkpt>
      <trkpt lat="42.79714" lon="0.86425">
        <ele>2340.9</ele>
        <time>2018-11-24T08:20:48Z</time>
      </trkpt>
      <trkpt lat="42.79713" lon="0.86418">
        <ele>2339.9</ele>
        <time>2018-11-24T08:20:50Z</time>
      </trkpt>
      <trkpt lat="42.79715" lon="0.86412">
        <ele>2338.5</ele>
        <time>2018-11-24T08:20:52Z</time>
      </trkpt>
      <trkpt lat="42.79717" lon="0.86406">
        <ele>2337.6</ele>
        <time>2018-11-24T08:20:54Z</time>
      </trkpt>
      <trkpt lat="42.79719" lon="0.864">
        <ele>2336.6</ele>
        <time>2018-11-24T08:20:56Z</time>
      </trkpt>
      <trkpt lat="42.79722" lon="0.86395">
        <ele>2336.2</ele>
        <time>2018-11-24T08:20:57Z</time>
      </trkpt>
      <trkpt lat="42.79724" lon="0.86389">
        <ele>2335.1</ele>
        <time>2018-11-24T08:20:59Z</time>
      </trkpt>
      <trkpt lat="42.79727" lon="0.86384">
        <ele>2334.9</ele>
        <time>2018-11-24T08:21:01Z</time>
      </trkpt>
      <trkpt lat="42.79729" lon="0.86378">
        <ele>2334.2</ele>
        <time>2018-11-24T08:21:03Z</time>
      </trkpt>
      <trkpt lat="42.7973" lon="0.86371">
        <ele>2335.2</ele>
        <time>2018-11-24T08:21:05Z</time>
      </trkpt>
      <trkpt lat="42.79734" lon="0.86365">
        <ele>2335.3</ele>
        <time>2018-11-24T08:21:08Z</time>
      </trkpt>
      <trkpt lat="42.79739" lon="0.86361">
        <ele>2335.5</ele>
        <time>2018-11-24T08:21:10Z</time>
      </trkpt>
      <trkpt lat="42.79744" lon="0.86359">
        <ele>2335.1</ele>
        <time>2018-11-24T08:21:12Z</time>
      </trkpt>
      <trkpt lat="42.79749" lon="0.86358">
        <ele>2334.8</ele>
        <time>2018-11-24T08:21:14Z</time>
      </trkpt>
      <trkpt lat="42.79755" lon="0.86357">
        <ele>2334.3</ele>
        <time>2018-11-24T08:21:16Z</time>
      </trkpt>
      <trkpt lat="42.7976" lon="0.86355">
        <ele>2335</ele>
        <time>2018-11-24T08:21:19Z</time>
      </trkpt>
      <trkpt lat="42.79765" lon="0.86355">
        <ele>2334.8</ele>
        <time>2018-11-24T08:21:21Z</time>
      </trkpt>
      <trkpt lat="42.7977" lon="0.86357">
        <ele>2334.3</ele>
        <time>2018-11-24T08:21:23Z</time>
      </trkpt>
      <trkpt lat="42.79775" lon="0.8636">
        <ele>2333.9</ele>
        <time>2018-11-24T08:21:25Z</time>
      </trkpt>
      <trkpt lat="42.79778" lon="0.86364">
        <ele>2334</ele>
        <time>2018-11-24T08:21:27Z</time>
      </trkpt>
      <trkpt lat="42.79781" lon="0.8637">
        <ele>2332.5</ele>
        <time>2018-11-24T08:21:29Z</time>
      </trkpt>
      <trkpt lat="42.79785" lon="0.86374">
        <ele>2333.6</ele>
        <time>2018-11-24T08:21:31Z</time>
      </trkpt>
      <trkpt lat="42.7979" lon="0.86375">
        <ele>2334.2</ele>
        <time>2018-11-24T08:21:33Z</time>
      </trkpt>
      <trkpt lat="42.79795" lon="0.86375">
        <ele>2334.6</ele>
        <time>2018-11-24T08:21:35Z</time>
      </trkpt>
      <trkpt lat="42.798" lon="0.86376">
        <ele>2333.7</ele>
        <time>2018-11-24T08:21:37Z</time>
      </trkpt>
      <trkpt lat="42.79805" lon="0.86373">
        <ele>2334.1</ele>
        <time>2018-11-24T08:21:39Z</time>
      </trkpt>
      <trkpt lat="42.7981" lon="0.8637">
        <ele>2334.4</ele>
        <time>2018-11-24T08:21:41Z</time>
      </trkpt>
      <trkpt lat="42.79815" lon="0.86367">
        <ele>2334.7</ele>
        <time>2018-11-24T08:21:43Z</time>
      </trkpt>
      <trkpt lat="42.79819" lon="0.86363">
        <ele>2334.3</ele>
        <time>2018-11-24T08:21:45Z</time>
      </trkpt>
      <trkpt lat="42.79822" lon="0.86359">
        <ele>2334.2</ele>
        <time>2018-11-24T08:21:47Z</time>
      </trkpt>
      <trkpt lat="42.79826" lon="0.86354">
        <ele>2333.9</ele>
        <time>2018-11-24T08:21:49Z</time>
      </trkpt>
      <trkpt lat="42.79828" lon="0.86348">
        <ele>2334</ele>
        <time>2018-11-24T08:21:51Z</time>
      </trkpt>
      <trkpt lat="42.79829" lon="0.86342">
        <ele>2334.2</ele>
        <time>2018-11-24T08:21:53Z</time>
      </trkpt>
      <trkpt lat="42.79831" lon="0.86336">
        <ele>2334.9</ele>
        <time>2018-11-24T08:21:55Z</time>
      </trkpt>
      <trkpt lat="42.79829" lon="0.86342">
        <ele>2334.4</ele>
        <time>2018-11-24T08:21:57Z</time>
      </trkpt>
      <trkpt lat="42.79832" lon="0.86336">
        <ele>2334.6</ele>
        <time>2018-11-24T08:21:59Z</time>
      </trkpt>
      <trkpt lat="42.79835" lon="0.8633">
        <ele>2334.9</ele>
        <time>2018-11-24T08:22:01Z</time>
      </trkpt>
      <trkpt lat="42.79838" lon="0.86324">
        <ele>2335.1</ele>
        <time>2018-11-24T08:22:03Z</time>
      </trkpt>
      <trkpt lat="42.79839" lon="0.86317">
        <ele>2335</ele>
        <time>2018-11-24T08:22:05Z</time>
      </trkpt>
      <trkpt lat="42.79842" lon="0.86312">
        <ele>2335.3</ele>
        <time>2018-11-24T08:22:07Z</time>
      </trkpt>
      <trkpt lat="42.79844" lon="0.86305">
        <ele>2335.9</ele>
        <time>2018-11-24T08:22:09Z</time>
      </trkpt>
      <trkpt lat="42.79846" lon="0.863">
        <ele>2336.2</ele>
        <time>2018-11-24T08:22:11Z</time>
      </trkpt>
      <trkpt lat="42.79848" lon="0.86294">
        <ele>2335.6</ele>
        <time>2018-11-24T08:22:13Z</time>
      </trkpt>
      <trkpt lat="42.79849" lon="0.86288">
        <ele>2335.7</ele>
        <time>2018-11-24T08:22:15Z</time>
      </trkpt>
      <trkpt lat="42.79849" lon="0.86282">
        <ele>2336</ele>
        <time>2018-11-24T08:22:17Z</time>
      </trkpt>
      <trkpt lat="42.79848" lon="0.86275">
        <ele>2335.7</ele>
        <time>2018-11-24T08:22:18Z</time>
      </trkpt>
      <trkpt lat="42.79847" lon="0.86269">
        <ele>2334.9</ele>
        <time>2018-11-24T08:22:20Z</time>
      </trkpt>
      <trkpt lat="42.79848" lon="0.86262">
        <ele>2334.8</ele>
        <time>2018-11-24T08:22:22Z</time>
      </trkpt>
      <trkpt lat="42.7985" lon="0.86256">
        <ele>2335.3</ele>
        <time>2018-11-24T08:22:24Z</time>
      </trkpt>
      <trkpt lat="42.79848" lon="0.8625">
        <ele>2336.4</ele>
        <time>2018-11-24T08:22:26Z</time>
      </trkpt>
      <trkpt lat="42.79851" lon="0.86244">
        <ele>2337</ele>
        <time>2018-11-24T08:22:28Z</time>
      </trkpt>
      <trkpt lat="42.79854" lon="0.86239">
        <ele>2338</ele>
        <time>2018-11-24T08:22:30Z</time>
      </trkpt>
      <trkpt lat="42.79858" lon="0.86234">
        <ele>2338.5</ele>
        <time>2018-11-24T08:22:32Z</time>
      </trkpt>
      <trkpt lat="42.79862" lon="0.8623">
        <ele>2338.1</ele>
        <time>2018-11-24T08:22:34Z</time>
      </trkpt>
      <trkpt lat="42.79863" lon="0.86224">
        <ele>2338.1</ele>
        <time>2018-11-24T08:22:36Z</time>
      </trkpt>
      <trkpt lat="42.79864" lon="0.86217">
        <ele>2337.7</ele>
        <time>2018-11-24T08:22:38Z</time>
      </trkpt>
      <trkpt lat="42.79863" lon="0.8621">
        <ele>2336.6</ele>
        <time>2018-11-24T08:22:40Z</time>
      </trkpt>
      <trkpt lat="42.79861" lon="0.86204">
        <ele>2334.9</ele>
        <time>2018-11-24T08:22:42Z</time>
      </trkpt>
      <trkpt lat="42.79858" lon="0.86199">
        <ele>2334</ele>
        <time>2018-11-24T08:22:44Z</time>
      </trkpt>
      <trkpt lat="42.79854" lon="0.86194">
        <ele>2333.9</ele>
        <time>2018-11-24T08:22:46Z</time>
      </trkpt>
      <trkpt lat="42.79853" lon="0.86188">
        <ele>2334</ele>
        <time>2018-11-24T08:22:48Z</time>
      </trkpt>
      <trkpt lat="42.79853" lon="0.86181">
        <ele>2333.3</ele>
        <time>2018-11-24T08:22:50Z</time>
      </trkpt>
      <trkpt lat="42.79854" lon="0.86175">
        <ele>2332.3</ele>
        <time>2018-11-24T08:22:52Z</time>
      </trkpt>
      <trkpt lat="42.79853" lon="0.86169">
        <ele>2331.2</ele>
        <time>2018-11-24T08:22:54Z</time>
      </trkpt>
      <trkpt lat="42.79851" lon="0.86162">
        <ele>2330.5</ele>
        <time>2018-11-24T08:22:56Z</time>
      </trkpt>
      <trkpt lat="42.7985" lon="0.86156">
        <ele>2329.6</ele>
        <time>2018-11-24T08:22:58Z</time>
      </trkpt>
      <trkpt lat="42.79848" lon="0.86151">
        <ele>2328.6</ele>
        <time>2018-11-24T08:23:00Z</time>
      </trkpt>
      <trkpt lat="42.79848" lon="0.86144">
        <ele>2327.1</ele>
        <time>2018-11-24T08:23:01Z</time>
      </trkpt>
      <trkpt lat="42.79844" lon="0.86144">
        <ele>2328.5</ele>
        <time>2018-11-24T08:23:03Z</time>
      </trkpt>
      <trkpt lat="42.79846" lon="0.86138">
        <ele>2326.2</ele>
        <time>2018-11-24T08:23:05Z</time>
      </trkpt>
      <trkpt lat="42.79844" lon="0.86132">
        <ele>2325.5</ele>
        <time>2018-11-24T08:23:07Z</time>
      </trkpt>
      <trkpt lat="42.79843" lon="0.86126">
        <ele>2325.3</ele>
        <time>2018-11-24T08:23:09Z</time>
      </trkpt>
      <trkpt lat="42.79841" lon="0.8612">
        <ele>2325.8</ele>
        <time>2018-11-24T08:23:11Z</time>
      </trkpt>
      <trkpt lat="42.79842" lon="0.86114">
        <ele>2325.4</ele>
        <time>2018-11-24T08:23:13Z</time>
      </trkpt>
      <trkpt lat="42.79845" lon="0.86108">
        <ele>2324.6</ele>
        <time>2018-11-24T08:23:15Z</time>
      </trkpt>
      <trkpt lat="42.79848" lon="0.86103">
        <ele>2323.6</ele>
        <time>2018-11-24T08:23:17Z</time>
      </trkpt>
      <trkpt lat="42.79853" lon="0.861">
        <ele>2322</ele>
        <time>2018-11-24T08:23:19Z</time>
      </trkpt>
      <trkpt lat="42.79857" lon="0.86097">
        <ele>2321.9</ele>
        <time>2018-11-24T08:23:21Z</time>
      </trkpt>
      <trkpt lat="42.79861" lon="0.86093">
        <ele>2321.6</ele>
        <time>2018-11-24T08:23:23Z</time>
      </trkpt>
      <trkpt lat="42.79864" lon="0.86089">
        <ele>2321.2</ele>
        <time>2018-11-24T08:23:25Z</time>
      </trkpt>
      <trkpt lat="42.79869" lon="0.86084">
        <ele>2320.3</ele>
        <time>2018-11-24T08:23:27Z</time>
      </trkpt>
      <trkpt lat="42.79872" lon="0.86079">
        <ele>2320</ele>
        <time>2018-11-24T08:23:29Z</time>
      </trkpt>
      <trkpt lat="42.79875" lon="0.86075">
        <ele>2320</ele>
        <time>2018-11-24T08:23:30Z</time>
      </trkpt>
      <trkpt lat="42.79879" lon="0.8607">
        <ele>2319.2</ele>
        <time>2018-11-24T08:23:33Z</time>
      </trkpt>
      <trkpt lat="42.79883" lon="0.86065">
        <ele>2318.7</ele>
        <time>2018-11-24T08:23:35Z</time>
      </trkpt>
      <trkpt lat="42.79887" lon="0.8606">
        <ele>2318</ele>
        <time>2018-11-24T08:23:37Z</time>
      </trkpt>
      <trkpt lat="42.79894" lon="0.86058">
        <ele>2319.1</ele>
        <time>2018-11-24T08:23:40Z</time>
      </trkpt>
      <trkpt lat="42.79899" lon="0.86059">
        <ele>2319.7</ele>
        <time>2018-11-24T08:23:42Z</time>
      </trkpt>
      <trkpt lat="42.79903" lon="0.86055">
        <ele>2320.4</ele>
        <time>2018-11-24T08:23:44Z</time>
      </trkpt>
      <trkpt lat="42.79908" lon="0.86052">
        <ele>2321</ele>
        <time>2018-11-24T08:23:46Z</time>
      </trkpt>
      <trkpt lat="42.7991" lon="0.86046">
        <ele>2321</ele>
        <time>2018-11-24T08:23:48Z</time>
      </trkpt>
      <trkpt lat="42.79914" lon="0.86043">
        <ele>2321</ele>
        <time>2018-11-24T08:23:50Z</time>
      </trkpt>
      <trkpt lat="42.79917" lon="0.86038">
        <ele>2320.3</ele>
        <time>2018-11-24T08:23:52Z</time>
      </trkpt>
      <trkpt lat="42.79922" lon="0.86034">
        <ele>2320</ele>
        <time>2018-11-24T08:23:54Z</time>
      </trkpt>
      <trkpt lat="42.79925" lon="0.86029">
        <ele>2320.1</ele>
        <time>2018-11-24T08:23:56Z</time>
      </trkpt>
      <trkpt lat="42.79929" lon="0.86024">
        <ele>2319.8</ele>
        <time>2018-11-24T08:23:58Z</time>
      </trkpt>
      <trkpt lat="42.79933" lon="0.86018">
        <ele>2319.1</ele>
        <time>2018-11-24T08:24:00Z</time>
      </trkpt>
      <trkpt lat="42.79938" lon="0.86015">
        <ele>2319</ele>
        <time>2018-11-24T08:24:02Z</time>
      </trkpt>
      <trkpt lat="42.79943" lon="0.86011">
        <ele>2318.3</ele>
        <time>2018-11-24T08:24:05Z</time>
      </trkpt>
      <trkpt lat="42.79946" lon="0.86006">
        <ele>2318</ele>
        <time>2018-11-24T08:24:07Z</time>
      </trkpt>
      <trkpt lat="42.7995" lon="0.86002">
        <ele>2318.1</ele>
        <time>2018-11-24T08:24:09Z</time>
      </trkpt>
      <trkpt lat="42.79954" lon="0.85997">
        <ele>2318.4</ele>
        <time>2018-11-24T08:24:11Z</time>
      </trkpt>
      <trkpt lat="42.7996" lon="0.85994">
        <ele>2319</ele>
        <time>2018-11-24T08:24:13Z</time>
      </trkpt>
      <trkpt lat="42.79964" lon="0.8599">
        <ele>2319.3</ele>
        <time>2018-11-24T08:24:15Z</time>
      </trkpt>
      <trkpt lat="42.79963" lon="0.85984">
        <ele>2319.1</ele>
        <time>2018-11-24T08:24:17Z</time>
      </trkpt>
      <trkpt lat="42.79967" lon="0.85978">
        <ele>2319.1</ele>
        <time>2018-11-24T08:24:19Z</time>
      </trkpt>
      <trkpt lat="42.79969" lon="0.85971">
        <ele>2318.5</ele>
        <time>2018-11-24T08:24:22Z</time>
      </trkpt>
      <trkpt lat="42.7997" lon="0.85964">
        <ele>2317.6</ele>
        <time>2018-11-24T08:24:24Z</time>
      </trkpt>
      <trkpt lat="42.79974" lon="0.85959">
        <ele>2318.5</ele>
        <time>2018-11-24T08:24:26Z</time>
      </trkpt>
      <trkpt lat="42.79977" lon="0.85952">
        <ele>2318.4</ele>
        <time>2018-11-24T08:24:28Z</time>
      </trkpt>
      <trkpt lat="42.79978" lon="0.85945">
        <ele>2318.5</ele>
        <time>2018-11-24T08:24:30Z</time>
      </trkpt>
      <trkpt lat="42.7998" lon="0.85939">
        <ele>2318.7</ele>
        <time>2018-11-24T08:24:32Z</time>
      </trkpt>
      <trkpt lat="42.79981" lon="0.85933">
        <ele>2318.4</ele>
        <time>2018-11-24T08:24:34Z</time>
      </trkpt>
      <trkpt lat="42.79982" lon="0.85926">
        <ele>2318.3</ele>
        <time>2018-11-24T08:24:36Z</time>
      </trkpt>
      <trkpt lat="42.79984" lon="0.85918">
        <ele>2317.5</ele>
        <time>2018-11-24T08:24:39Z</time>
      </trkpt>
      <trkpt lat="42.79987" lon="0.85913">
        <ele>2317.3</ele>
        <time>2018-11-24T08:24:41Z</time>
      </trkpt>
      <trkpt lat="42.79989" lon="0.85907">
        <ele>2317</ele>
        <time>2018-11-24T08:24:42Z</time>
      </trkpt>
      <trkpt lat="42.79993" lon="0.85901">
        <ele>2316.3</ele>
        <time>2018-11-24T08:24:45Z</time>
      </trkpt>
      <trkpt lat="42.79997" lon="0.85897">
        <ele>2316</ele>
        <time>2018-11-24T08:24:47Z</time>
      </trkpt>
      <trkpt lat="42.79999" lon="0.85891">
        <ele>2316</ele>
        <time>2018-11-24T08:24:49Z</time>
      </trkpt>
      <trkpt lat="42.80002" lon="0.85884">
        <ele>2315.3</ele>
        <time>2018-11-24T08:24:51Z</time>
      </trkpt>
      <trkpt lat="42.80005" lon="0.8588">
        <ele>2315.4</ele>
        <time>2018-11-24T08:24:53Z</time>
      </trkpt>
      <trkpt lat="42.80008" lon="0.85875">
        <ele>2315.1</ele>
        <time>2018-11-24T08:24:55Z</time>
      </trkpt>
      <trkpt lat="42.80011" lon="0.85869">
        <ele>2315.1</ele>
        <time>2018-11-24T08:24:57Z</time>
      </trkpt>
      <trkpt lat="42.80013" lon="0.85862">
        <ele>2315</ele>
        <time>2018-11-24T08:24:59Z</time>
      </trkpt>
      <trkpt lat="42.80011" lon="0.85855">
        <ele>2314.4</ele>
        <time>2018-11-24T08:25:01Z</time>
      </trkpt>
      <trkpt lat="42.80015" lon="0.85846">
        <ele>2314.4</ele>
        <time>2018-11-24T08:25:04Z</time>
      </trkpt>
      <trkpt lat="42.80016" lon="0.85839">
        <ele>2315</ele>
        <time>2018-11-24T08:25:06Z</time>
      </trkpt>
      <trkpt lat="42.80019" lon="0.85832">
        <ele>2314.5</ele>
        <time>2018-11-24T08:25:09Z</time>
      </trkpt>
      <trkpt lat="42.80019" lon="0.85824">
        <ele>2313.6</ele>
        <time>2018-11-24T08:25:11Z</time>
      </trkpt>
      <trkpt lat="42.8002" lon="0.85817">
        <ele>2313.5</ele>
        <time>2018-11-24T08:25:13Z</time>
      </trkpt>
      <trkpt lat="42.80021" lon="0.8581">
        <ele>2312.6</ele>
        <time>2018-11-24T08:25:15Z</time>
      </trkpt>
      <trkpt lat="42.80021" lon="0.85804">
        <ele>2312.3</ele>
        <time>2018-11-24T08:25:17Z</time>
      </trkpt>
      <trkpt lat="42.80023" lon="0.85798">
        <ele>2312.4</ele>
        <time>2018-11-24T08:25:19Z</time>
      </trkpt>
      <trkpt lat="42.80025" lon="0.85792">
        <ele>2312.6</ele>
        <time>2018-11-24T08:25:21Z</time>
      </trkpt>
      <trkpt lat="42.80027" lon="0.85785">
        <ele>2313.2</ele>
        <time>2018-11-24T08:25:23Z</time>
      </trkpt>
      <trkpt lat="42.80029" lon="0.8578">
        <ele>2313.5</ele>
        <time>2018-11-24T08:25:25Z</time>
      </trkpt>
      <trkpt lat="42.80028" lon="0.85774">
        <ele>2312.5</ele>
        <time>2018-11-24T08:25:27Z</time>
      </trkpt>
      <trkpt lat="42.80023" lon="0.85771">
        <ele>2311.3</ele>
        <time>2018-11-24T08:25:29Z</time>
      </trkpt>
      <trkpt lat="42.80025" lon="0.85764">
        <ele>2311.4</ele>
        <time>2018-11-24T08:25:31Z</time>
      </trkpt>
      <trkpt lat="42.80026" lon="0.85771">
        <ele>2312.1</ele>
        <time>2018-11-24T08:25:33Z</time>
      </trkpt>
      <trkpt lat="42.80028" lon="0.85765">
        <ele>2311.6</ele>
        <time>2018-11-24T08:25:35Z</time>
      </trkpt>
      <trkpt lat="42.80024" lon="0.85765">
        <ele>2311.4</ele>
        <time>2018-11-24T08:25:37Z</time>
      </trkpt>
      <trkpt lat="42.80023" lon="0.85772">
        <ele>2311.3</ele>
        <time>2018-11-24T08:25:39Z</time>
      </trkpt>
      <trkpt lat="42.80023" lon="0.85765">
        <ele>2311.2</ele>
        <time>2018-11-24T08:25:41Z</time>
      </trkpt>
      <trkpt lat="42.80023" lon="0.85771">
        <ele>2311.4</ele>
        <time>2018-11-24T08:25:42Z</time>
      </trkpt>
      <trkpt lat="42.80024" lon="0.85765">
        <ele>2311.5</ele>
        <time>2018-11-24T08:25:44Z</time>
      </trkpt>
      <trkpt lat="42.80024" lon="0.85772">
        <ele>2311.6</ele>
        <time>2018-11-24T08:25:46Z</time>
      </trkpt>
      <trkpt lat="42.80024" lon="0.85765">
        <ele>2311.4</ele>
        <time>2018-11-24T08:25:48Z</time>
      </trkpt>
      <trkpt lat="42.80022" lon="0.85772">
        <ele>2311.3</ele>
        <time>2018-11-24T08:25:50Z</time>
      </trkpt>
      <trkpt lat="42.80024" lon="0.85765">
        <ele>2311.4</ele>
        <time>2018-11-24T08:25:52Z</time>
      </trkpt>
      <trkpt lat="42.80023" lon="0.85771">
        <ele>2311.4</ele>
        <time>2018-11-24T08:25:54Z</time>
      </trkpt>
      <trkpt lat="42.80024" lon="0.85778">
        <ele>2311.7</ele>
        <time>2018-11-24T08:25:56Z</time>
      </trkpt>
      <trkpt lat="42.80025" lon="0.85784">
        <ele>2312.3</ele>
        <time>2018-11-24T08:25:58Z</time>
      </trkpt>
      <trkpt lat="42.80028" lon="0.85778">
        <ele>2312.7</ele>
        <time>2018-11-24T08:26:00Z</time>
      </trkpt>
      <trkpt lat="42.8003" lon="0.85772">
        <ele>2312.6</ele>
        <time>2018-11-24T08:26:02Z</time>
      </trkpt>
      <trkpt lat="42.80031" lon="0.85766">
        <ele>2311.9</ele>
        <time>2018-11-24T08:26:04Z</time>
      </trkpt>
      <trkpt lat="42.80032" lon="0.85759">
        <ele>2311</ele>
        <time>2018-11-24T08:26:06Z</time>
      </trkpt>
      <trkpt lat="42.80033" lon="0.85753">
        <ele>2309.7</ele>
        <time>2018-11-24T08:26:08Z</time>
      </trkpt>
      <trkpt lat="42.80035" lon="0.85747">
        <ele>2309.3</ele>
        <time>2018-11-24T08:26:10Z</time>
      </trkpt>
      <trkpt lat="42.80037" lon="0.85741">
        <ele>2308.7</ele>
        <time>2018-11-24T08:26:12Z</time>
      </trkpt>
      <trkpt lat="42.80039" lon="0.85735">
        <ele>2307.9</ele>
        <time>2018-11-24T08:26:14Z</time>
      </trkpt>
      <trkpt lat="42.80041" lon="0.85729">
        <ele>2307.2</ele>
        <time>2018-11-24T08:26:16Z</time>
      </trkpt>
      <trkpt lat="42.80041" lon="0.85722">
        <ele>2305.4</ele>
        <time>2018-11-24T08:26:18Z</time>
      </trkpt>
      <trkpt lat="42.80042" lon="0.85715">
        <ele>2304.2</ele>
        <time>2018-11-24T08:26:20Z</time>
      </trkpt>
      <trkpt lat="42.80044" lon="0.8571">
        <ele>2303.3</ele>
        <time>2018-11-24T08:26:22Z</time>
      </trkpt>
      <trkpt lat="42.80047" lon="0.85704">
        <ele>2302.2</ele>
        <time>2018-11-24T08:26:23Z</time>
      </trkpt>
      <trkpt lat="42.80048" lon="0.85698">
        <ele>2301.7</ele>
        <time>2018-11-24T08:26:25Z</time>
      </trkpt>
      <trkpt lat="42.80048" lon="0.85692">
        <ele>2300.2</ele>
        <time>2018-11-24T08:26:27Z</time>
      </trkpt>
      <trkpt lat="42.8005" lon="0.85686">
        <ele>2299.4</ele>
        <time>2018-11-24T08:26:29Z</time>
      </trkpt>
      <trkpt lat="42.80053" lon="0.8568">
        <ele>2299.6</ele>
        <time>2018-11-24T08:26:31Z</time>
      </trkpt>
      <trkpt lat="42.80054" lon="0.85673">
        <ele>2298.8</ele>
        <time>2018-11-24T08:26:33Z</time>
      </trkpt>
      <trkpt lat="42.80054" lon="0.85667">
        <ele>2297.4</ele>
        <time>2018-11-24T08:26:35Z</time>
      </trkpt>
      <trkpt lat="42.80052" lon="0.85661">
        <ele>2295.3</ele>
        <time>2018-11-24T08:26:37Z</time>
      </trkpt>
      <trkpt lat="42.80052" lon="0.85655">
        <ele>2294</ele>
        <time>2018-11-24T08:26:39Z</time>
      </trkpt>
      <trkpt lat="42.80054" lon="0.85648">
        <ele>2292.9</ele>
        <time>2018-11-24T08:26:41Z</time>
      </trkpt>
      <trkpt lat="42.80055" lon="0.85642">
        <ele>2292.4</ele>
        <time>2018-11-24T08:26:43Z</time>
      </trkpt>
      <trkpt lat="42.80057" lon="0.85635">
        <ele>2292</ele>
        <time>2018-11-24T08:26:45Z</time>
      </trkpt>
      <trkpt lat="42.80059" lon="0.85628">
        <ele>2291.2</ele>
        <time>2018-11-24T08:26:47Z</time>
      </trkpt>
      <trkpt lat="42.80061" lon="0.85622">
        <ele>2291.5</ele>
        <time>2018-11-24T08:26:49Z</time>
      </trkpt>
      <trkpt lat="42.80063" lon="0.85616">
        <ele>2291.4</ele>
        <time>2018-11-24T08:26:51Z</time>
      </trkpt>
      <trkpt lat="42.80062" lon="0.85609">
        <ele>2289.9</ele>
        <time>2018-11-24T08:26:53Z</time>
      </trkpt>
      <trkpt lat="42.80063" lon="0.85603">
        <ele>2290</ele>
        <time>2018-11-24T08:26:55Z</time>
      </trkpt>
      <trkpt lat="42.80064" lon="0.85596">
        <ele>2289.9</ele>
        <time>2018-11-24T08:26:57Z</time>
      </trkpt>
      <trkpt lat="42.80065" lon="0.8559">
        <ele>2289.2</ele>
        <time>2018-11-24T08:26:59Z</time>
      </trkpt>
      <trkpt lat="42.80068" lon="0.85584">
        <ele>2289.3</ele>
        <time>2018-11-24T08:27:01Z</time>
      </trkpt>
      <trkpt lat="42.8007" lon="0.85577">
        <ele>2288.2</ele>
        <time>2018-11-24T08:27:03Z</time>
      </trkpt>
      <trkpt lat="42.80073" lon="0.85572">
        <ele>2288.5</ele>
        <time>2018-11-24T08:27:05Z</time>
      </trkpt>
      <trkpt lat="42.80073" lon="0.85565">
        <ele>2286.9</ele>
        <time>2018-11-24T08:27:07Z</time>
      </trkpt>
      <trkpt lat="42.80075" lon="0.85559">
        <ele>2286.8</ele>
        <time>2018-11-24T08:27:09Z</time>
      </trkpt>
      <trkpt lat="42.80078" lon="0.85554">
        <ele>2286.5</ele>
        <time>2018-11-24T08:27:11Z</time>
      </trkpt>
      <trkpt lat="42.80078" lon="0.85547">
        <ele>2285.8</ele>
        <time>2018-11-24T08:27:13Z</time>
      </trkpt>
      <trkpt lat="42.8008" lon="0.85541">
        <ele>2285.1</ele>
        <time>2018-11-24T08:27:15Z</time>
      </trkpt>
      <trkpt lat="42.80079" lon="0.85534">
        <ele>2283</ele>
        <time>2018-11-24T08:27:17Z</time>
      </trkpt>
      <trkpt lat="42.8008" lon="0.85528">
        <ele>2281.3</ele>
        <time>2018-11-24T08:27:18Z</time>
      </trkpt>
      <trkpt lat="42.80079" lon="0.85521">
        <ele>2279.7</ele>
        <time>2018-11-24T08:27:20Z</time>
      </trkpt>
      <trkpt lat="42.8008" lon="0.85516">
        <ele>2279.6</ele>
        <time>2018-11-24T08:27:22Z</time>
      </trkpt>
      <trkpt lat="42.80082" lon="0.85509">
        <ele>2279.2</ele>
        <time>2018-11-24T08:27:24Z</time>
      </trkpt>
      <trkpt lat="42.80083" lon="0.85502">
        <ele>2278.6</ele>
        <time>2018-11-24T08:27:26Z</time>
      </trkpt>
      <trkpt lat="42.80083" lon="0.85496">
        <ele>2276.9</ele>
        <time>2018-11-24T08:27:28Z</time>
      </trkpt>
      <trkpt lat="42.80082" lon="0.85489">
        <ele>2276.5</ele>
        <time>2018-11-24T08:27:30Z</time>
      </trkpt>
      <trkpt lat="42.80081" lon="0.85483">
        <ele>2276</ele>
        <time>2018-11-24T08:27:32Z</time>
      </trkpt>
      <trkpt lat="42.80082" lon="0.85477">
        <ele>2275.8</ele>
        <time>2018-11-24T08:27:34Z</time>
      </trkpt>
      <trkpt lat="42.8008" lon="0.85471">
        <ele>2275.2</ele>
        <time>2018-11-24T08:27:36Z</time>
      </trkpt>
      <trkpt lat="42.80079" lon="0.85465">
        <ele>2274.1</ele>
        <time>2018-11-24T08:27:38Z</time>
      </trkpt>
      <trkpt lat="42.80077" lon="0.85459">
        <ele>2273.5</ele>
        <time>2018-11-24T08:27:40Z</time>
      </trkpt>
      <trkpt lat="42.80075" lon="0.85452">
        <ele>2272.9</ele>
        <time>2018-11-24T08:27:42Z</time>
      </trkpt>
      <trkpt lat="42.80078" lon="0.85448">
        <ele>2272.9</ele>
        <time>2018-11-24T08:27:44Z</time>
      </trkpt>
      <trkpt lat="42.80077" lon="0.85442">
        <ele>2272.7</ele>
        <time>2018-11-24T08:27:45Z</time>
      </trkpt>
      <trkpt lat="42.80074" lon="0.85437">
        <ele>2272.1</ele>
        <time>2018-11-24T08:27:47Z</time>
      </trkpt>
      <trkpt lat="42.80078" lon="0.85432">
        <ele>2271.3</ele>
        <time>2018-11-24T08:27:49Z</time>
      </trkpt>
      <trkpt lat="42.80077" lon="0.85426">
        <ele>2270.1</ele>
        <time>2018-11-24T08:27:51Z</time>
      </trkpt>
      <trkpt lat="42.80076" lon="0.8542">
        <ele>2269</ele>
        <time>2018-11-24T08:27:53Z</time>
      </trkpt>
      <trkpt lat="42.80077" lon="0.85414">
        <ele>2268.3</ele>
        <time>2018-11-24T08:27:55Z</time>
      </trkpt>
      <trkpt lat="42.8008" lon="0.85409">
        <ele>2267.6</ele>
        <time>2018-11-24T08:27:57Z</time>
      </trkpt>
      <trkpt lat="42.80084" lon="0.85405">
        <ele>2267.6</ele>
        <time>2018-11-24T08:27:59Z</time>
      </trkpt>
      <trkpt lat="42.80088" lon="0.85399">
        <ele>2267.6</ele>
        <time>2018-11-24T08:28:01Z</time>
      </trkpt>
      <trkpt lat="42.80088" lon="0.85393">
        <ele>2266.6</ele>
        <time>2018-11-24T08:28:03Z</time>
      </trkpt>
      <trkpt lat="42.80084" lon="0.85388">
        <ele>2264.8</ele>
        <time>2018-11-24T08:28:05Z</time>
      </trkpt>
      <trkpt lat="42.80084" lon="0.85382">
        <ele>2263.8</ele>
        <time>2018-11-24T08:28:06Z</time>
      </trkpt>
      <trkpt lat="42.80087" lon="0.85376">
        <ele>2263.6</ele>
        <time>2018-11-24T08:28:08Z</time>
      </trkpt>
      <trkpt lat="42.80089" lon="0.8537">
        <ele>2262.4</ele>
        <time>2018-11-24T08:28:10Z</time>
      </trkpt>
      <trkpt lat="42.8009" lon="0.85364">
        <ele>2260.6</ele>
        <time>2018-11-24T08:28:12Z</time>
      </trkpt>
      <trkpt lat="42.80094" lon="0.85359">
        <ele>2260.1</ele>
        <time>2018-11-24T08:28:14Z</time>
      </trkpt>
      <trkpt lat="42.80096" lon="0.85353">
        <ele>2258.7</ele>
        <time>2018-11-24T08:28:16Z</time>
      </trkpt>
      <trkpt lat="42.80098" lon="0.85347">
        <ele>2257.8</ele>
        <time>2018-11-24T08:28:18Z</time>
      </trkpt>
      <trkpt lat="42.801" lon="0.85341">
        <ele>2257.1</ele>
        <time>2018-11-24T08:28:20Z</time>
      </trkpt>
      <trkpt lat="42.80102" lon="0.85335">
        <ele>2256.4</ele>
        <time>2018-11-24T08:28:22Z</time>
      </trkpt>
      <trkpt lat="42.80102" lon="0.85328">
        <ele>2255.6</ele>
        <time>2018-11-24T08:28:24Z</time>
      </trkpt>
      <trkpt lat="42.80102" lon="0.85322">
        <ele>2255</ele>
        <time>2018-11-24T08:28:26Z</time>
      </trkpt>
      <trkpt lat="42.801" lon="0.85317">
        <ele>2253.1</ele>
        <time>2018-11-24T08:28:28Z</time>
      </trkpt>
      <trkpt lat="42.80099" lon="0.85311">
        <ele>2252</ele>
        <time>2018-11-24T08:28:29Z</time>
      </trkpt>
      <trkpt lat="42.80097" lon="0.85304">
        <ele>2250.8</ele>
        <time>2018-11-24T08:28:31Z</time>
      </trkpt>
      <trkpt lat="42.80094" lon="0.853">
        <ele>2249.2</ele>
        <time>2018-11-24T08:28:33Z</time>
      </trkpt>
      <trkpt lat="42.80096" lon="0.85295">
        <ele>2249.6</ele>
        <time>2018-11-24T08:28:35Z</time>
      </trkpt>
      <trkpt lat="42.80095" lon="0.85289">
        <ele>2248.4</ele>
        <time>2018-11-24T08:28:37Z</time>
      </trkpt>
      <trkpt lat="42.80094" lon="0.85283">
        <ele>2247.3</ele>
        <time>2018-11-24T08:28:39Z</time>
      </trkpt>
      <trkpt lat="42.80093" lon="0.85277">
        <ele>2247.1</ele>
        <time>2018-11-24T08:28:41Z</time>
      </trkpt>
      <trkpt lat="42.80093" lon="0.8527">
        <ele>2246.1</ele>
        <time>2018-11-24T08:28:42Z</time>
      </trkpt>
      <trkpt lat="42.80093" lon="0.85264">
        <ele>2244</ele>
        <time>2018-11-24T08:28:44Z</time>
      </trkpt>
      <trkpt lat="42.80096" lon="0.85259">
        <ele>2243</ele>
        <time>2018-11-24T08:28:46Z</time>
      </trkpt>
      <trkpt lat="42.80098" lon="0.85253">
        <ele>2240.2</ele>
        <time>2018-11-24T08:28:48Z</time>
      </trkpt>
      <trkpt lat="42.80102" lon="0.85248">
        <ele>2238.5</ele>
        <time>2018-11-24T08:28:50Z</time>
      </trkpt>
      <trkpt lat="42.80106" lon="0.85245">
        <ele>2237.7</ele>
        <time>2018-11-24T08:28:52Z</time>
      </trkpt>
      <trkpt lat="42.8011" lon="0.8524">
        <ele>2236.6</ele>
        <time>2018-11-24T08:28:54Z</time>
      </trkpt>
      <trkpt lat="42.80113" lon="0.85235">
        <ele>2234.1</ele>
        <time>2018-11-24T08:28:56Z</time>
      </trkpt>
      <trkpt lat="42.80115" lon="0.8523">
        <ele>2232.6</ele>
        <time>2018-11-24T08:28:58Z</time>
      </trkpt>
      <trkpt lat="42.8012" lon="0.85228">
        <ele>2234.1</ele>
        <time>2018-11-24T08:29:00Z</time>
      </trkpt>
      <trkpt lat="42.80122" lon="0.85234">
        <ele>2237.2</ele>
        <time>2018-11-24T08:29:02Z</time>
      </trkpt>
      <trkpt lat="42.80128" lon="0.85235">
        <ele>2234.7</ele>
        <time>2018-11-24T08:29:04Z</time>
      </trkpt>
      <trkpt lat="42.80133" lon="0.85235">
        <ele>2232</ele>
        <time>2018-11-24T08:29:06Z</time>
      </trkpt>
      <trkpt lat="42.80134" lon="0.85243">
        <ele>2239.9</ele>
        <time>2018-11-24T08:29:08Z</time>
      </trkpt>
      <trkpt lat="42.80139" lon="0.85241">
        <ele>2234.6</ele>
        <time>2018-11-24T08:29:11Z</time>
      </trkpt>
      <trkpt lat="42.80149" lon="0.85239">
        <ele>2230.8</ele>
        <time>2018-11-24T08:29:15Z</time>
      </trkpt>
      <trkpt lat="42.80153" lon="0.85243">
        <ele>2233</ele>
        <time>2018-11-24T08:29:16Z</time>
      </trkpt>
      <trkpt lat="42.80157" lon="0.85244">
        <ele>2233.2</ele>
        <time>2018-11-24T08:29:18Z</time>
      </trkpt>
      <trkpt lat="42.80164" lon="0.85242">
        <ele>2230.3</ele>
        <time>2018-11-24T08:29:21Z</time>
      </trkpt>
      <trkpt lat="42.80168" lon="0.85238">
        <ele>2228.5</ele>
        <time>2018-11-24T08:29:23Z</time>
      </trkpt>
      <trkpt lat="42.80173" lon="0.85235">
        <ele>2228</ele>
        <time>2018-11-24T08:29:26Z</time>
      </trkpt>
      <trkpt lat="42.80177" lon="0.85229">
        <ele>2226.3</ele>
        <time>2018-11-24T08:29:28Z</time>
      </trkpt>
      <trkpt lat="42.80181" lon="0.85225">
        <ele>2225.8</ele>
        <time>2018-11-24T08:29:30Z</time>
      </trkpt>
      <trkpt lat="42.80184" lon="0.8522">
        <ele>2224.4</ele>
        <time>2018-11-24T08:29:32Z</time>
      </trkpt>
      <trkpt lat="42.80187" lon="0.85216">
        <ele>2224.7</ele>
        <time>2018-11-24T08:29:34Z</time>
      </trkpt>
      <trkpt lat="42.80189" lon="0.85211">
        <ele>2223.4</ele>
        <time>2018-11-24T08:29:35Z</time>
      </trkpt>
      <trkpt lat="42.80193" lon="0.85206">
        <ele>2222.6</ele>
        <time>2018-11-24T08:29:37Z</time>
      </trkpt>
      <trkpt lat="42.80198" lon="0.85196">
        <ele>2221.2</ele>
        <time>2018-11-24T08:29:41Z</time>
      </trkpt>
      <trkpt lat="42.80202" lon="0.8519">
        <ele>2220.1</ele>
        <time>2018-11-24T08:29:43Z</time>
      </trkpt>
      <trkpt lat="42.80205" lon="0.85185">
        <ele>2218.5</ele>
        <time>2018-11-24T08:29:45Z</time>
      </trkpt>
      <trkpt lat="42.8021" lon="0.85183">
        <ele>2218.5</ele>
        <time>2018-11-24T08:29:47Z</time>
      </trkpt>
      <trkpt lat="42.80213" lon="0.85178">
        <ele>2217.2</ele>
        <time>2018-11-24T08:29:49Z</time>
      </trkpt>
      <trkpt lat="42.80217" lon="0.85171">
        <ele>2215.6</ele>
        <time>2018-11-24T08:29:52Z</time>
      </trkpt>
      <trkpt lat="42.80221" lon="0.85168">
        <ele>2214.9</ele>
        <time>2018-11-24T08:29:53Z</time>
      </trkpt>
      <trkpt lat="42.80225" lon="0.85163">
        <ele>2213.4</ele>
        <time>2018-11-24T08:29:56Z</time>
      </trkpt>
      <trkpt lat="42.80228" lon="0.85159">
        <ele>2212.6</ele>
        <time>2018-11-24T08:29:57Z</time>
      </trkpt>
      <trkpt lat="42.80231" lon="0.85154">
        <ele>2211.8</ele>
        <time>2018-11-24T08:29:59Z</time>
      </trkpt>
      <trkpt lat="42.80233" lon="0.85148">
        <ele>2210.4</ele>
        <time>2018-11-24T08:30:01Z</time>
      </trkpt>
      <trkpt lat="42.80236" lon="0.85143">
        <ele>2209</ele>
        <time>2018-11-24T08:30:03Z</time>
      </trkpt>
      <trkpt lat="42.80238" lon="0.85137">
        <ele>2207.1</ele>
        <time>2018-11-24T08:30:05Z</time>
      </trkpt>
      <trkpt lat="42.8024" lon="0.85131">
        <ele>2205.5</ele>
        <time>2018-11-24T08:30:07Z</time>
      </trkpt>
      <trkpt lat="42.80245" lon="0.85131">
        <ele>2206.6</ele>
        <time>2018-11-24T08:30:09Z</time>
      </trkpt>
      <trkpt lat="42.80246" lon="0.85124">
        <ele>2205.7</ele>
        <time>2018-11-24T08:30:11Z</time>
      </trkpt>
      <trkpt lat="42.80248" lon="0.85118">
        <ele>2204.9</ele>
        <time>2018-11-24T08:30:13Z</time>
      </trkpt>
      <trkpt lat="42.8025" lon="0.8511">
        <ele>2203</ele>
        <time>2018-11-24T08:30:15Z</time>
      </trkpt>
      <trkpt lat="42.80252" lon="0.85105">
        <ele>2201.7</ele>
        <time>2018-11-24T08:30:17Z</time>
      </trkpt>
      <trkpt lat="42.80255" lon="0.85099">
        <ele>2200.8</ele>
        <time>2018-11-24T08:30:19Z</time>
      </trkpt>
      <trkpt lat="42.80259" lon="0.85095">
        <ele>2200.1</ele>
        <time>2018-11-24T08:30:21Z</time>
      </trkpt>
      <trkpt lat="42.80263" lon="0.85089">
        <ele>2198.5</ele>
        <time>2018-11-24T08:30:23Z</time>
      </trkpt>
      <trkpt lat="42.80266" lon="0.85084">
        <ele>2197.4</ele>
        <time>2018-11-24T08:30:25Z</time>
      </trkpt>
      <trkpt lat="42.8027" lon="0.85079">
        <ele>2196.7</ele>
        <time>2018-11-24T08:30:27Z</time>
      </trkpt>
      <trkpt lat="42.80272" lon="0.85074">
        <ele>2195.4</ele>
        <time>2018-11-24T08:30:29Z</time>
      </trkpt>
      <trkpt lat="42.80274" lon="0.85066">
        <ele>2194.9</ele>
        <time>2018-11-24T08:30:31Z</time>
      </trkpt>
      <trkpt lat="42.80278" lon="0.85058">
        <ele>2193.7</ele>
        <time>2018-11-24T08:30:34Z</time>
      </trkpt>
      <trkpt lat="42.8028" lon="0.85052">
        <ele>2193</ele>
        <time>2018-11-24T08:30:36Z</time>
      </trkpt>
      <trkpt lat="42.80281" lon="0.85045">
        <ele>2192</ele>
        <time>2018-11-24T08:30:38Z</time>
      </trkpt>
      <trkpt lat="42.80282" lon="0.85039">
        <ele>2191.3</ele>
        <time>2018-11-24T08:30:40Z</time>
      </trkpt>
      <trkpt lat="42.80283" lon="0.85033">
        <ele>2191.2</ele>
        <time>2018-11-24T08:30:42Z</time>
      </trkpt>
      <trkpt lat="42.80281" lon="0.85027">
        <ele>2189.2</ele>
        <time>2018-11-24T08:30:44Z</time>
      </trkpt>
      <trkpt lat="42.80277" lon="0.8503">
        <ele>2188.3</ele>
        <time>2018-11-24T08:30:46Z</time>
      </trkpt>
      <trkpt lat="42.80273" lon="0.85034">
        <ele>2187.4</ele>
        <time>2018-11-24T08:30:48Z</time>
      </trkpt>
      <trkpt lat="42.80269" lon="0.85039">
        <ele>2187.3</ele>
        <time>2018-11-24T08:30:50Z</time>
      </trkpt>
      <trkpt lat="42.80264" lon="0.85039">
        <ele>2186.3</ele>
        <time>2018-11-24T08:30:52Z</time>
      </trkpt>
      <trkpt lat="42.80264" lon="0.85033">
        <ele>2185.2</ele>
        <time>2018-11-24T08:30:54Z</time>
      </trkpt>
      <trkpt lat="42.80266" lon="0.85026">
        <ele>2183.3</ele>
        <time>2018-11-24T08:30:56Z</time>
      </trkpt>
      <trkpt lat="42.80269" lon="0.85021">
        <ele>2181.6</ele>
        <time>2018-11-24T08:30:57Z</time>
      </trkpt>
      <trkpt lat="42.80272" lon="0.85016">
        <ele>2181</ele>
        <time>2018-11-24T08:30:59Z</time>
      </trkpt>
      <trkpt lat="42.80276" lon="0.85011">
        <ele>2180.6</ele>
        <time>2018-11-24T08:31:02Z</time>
      </trkpt>
      <trkpt lat="42.80354" lon="0.84978">
        <ele>2162.8</ele>
        <time>2018-11-24T08:31:34Z</time>
      </trkpt>
      <trkpt lat="42.80351" lon="0.84979">
        <ele>2164.6</ele>
        <time>2018-11-24T08:31:36Z</time>
      </trkpt>
      <trkpt lat="42.80347" lon="0.84981">
        <ele>2166.4</ele>
        <time>2018-11-24T08:31:38Z</time>
      </trkpt>
      <trkpt lat="42.80343" lon="0.84981">
        <ele>2168.3</ele>
        <time>2018-11-24T08:31:39Z</time>
      </trkpt>
      <trkpt lat="42.80339" lon="0.84982">
        <ele>2170.3</ele>
        <time>2018-11-24T08:31:41Z</time>
      </trkpt>
      <trkpt lat="42.80336" lon="0.84982">
        <ele>2172.2</ele>
        <time>2018-11-24T08:31:42Z</time>
      </trkpt>
      <trkpt lat="42.80332" lon="0.84983">
        <ele>2173.8</ele>
        <time>2018-11-24T08:31:44Z</time>
      </trkpt>
      <trkpt lat="42.80328" lon="0.84983">
        <ele>2174.7</ele>
        <time>2018-11-24T08:31:45Z</time>
      </trkpt>
      <trkpt lat="42.80326" lon="0.84978">
        <ele>2175.4</ele>
        <time>2018-11-24T08:31:47Z</time>
      </trkpt>
      <trkpt lat="42.80324" lon="0.84973">
        <ele>2176</ele>
        <time>2018-11-24T08:31:49Z</time>
      </trkpt>
      <trkpt lat="42.80322" lon="0.84967">
        <ele>2177.8</ele>
        <time>2018-11-24T08:31:50Z</time>
      </trkpt>
      <trkpt lat="42.8032" lon="0.84962">
        <ele>2179.6</ele>
        <time>2018-11-24T08:31:52Z</time>
      </trkpt>
      <trkpt lat="42.80318" lon="0.84957">
        <ele>2181.1</ele>
        <time>2018-11-24T08:31:54Z</time>
      </trkpt>
      <trkpt lat="42.80316" lon="0.84952">
        <ele>2182.4</ele>
        <time>2018-11-24T08:31:55Z</time>
      </trkpt>
      <trkpt lat="42.80314" lon="0.84948">
        <ele>2183.8</ele>
        <time>2018-11-24T08:31:57Z</time>
      </trkpt>
      <trkpt lat="42.80312" lon="0.84943">
        <ele>2185.6</ele>
        <time>2018-11-24T08:31:59Z</time>
      </trkpt>
      <trkpt lat="42.8031" lon="0.84938">
        <ele>2188.4</ele>
        <time>2018-11-24T08:32:00Z</time>
      </trkpt>
      <trkpt lat="42.80308" lon="0.84934">
        <ele>2190.9</ele>
        <time>2018-11-24T08:32:02Z</time>
      </trkpt>
      <trkpt lat="42.80307" lon="0.8493">
        <ele>2193.3</ele>
        <time>2018-11-24T08:32:03Z</time>
      </trkpt>
      <trkpt lat="42.80305" lon="0.84926">
        <ele>2195.5</ele>
        <time>2018-11-24T08:32:04Z</time>
      </trkpt>
      <trkpt lat="42.80303" lon="0.84922">
        <ele>2197.4</ele>
        <time>2018-11-24T08:32:06Z</time>
      </trkpt>
      <trkpt lat="42.803" lon="0.84921">
        <ele>2197.2</ele>
        <time>2018-11-24T08:32:07Z</time>
      </trkpt>
      <trkpt lat="42.80296" lon="0.84921">
        <ele>2196.8</ele>
        <time>2018-11-24T08:32:08Z</time>
      </trkpt>
      <trkpt lat="42.80293" lon="0.8492">
        <ele>2196.6</ele>
        <time>2018-11-24T08:32:10Z</time>
      </trkpt>
      <trkpt lat="42.80291" lon="0.84915">
        <ele>2199</ele>
        <time>2018-11-24T08:32:11Z</time>
      </trkpt>
      <trkpt lat="42.80289" lon="0.84909">
        <ele>2201.6</ele>
        <time>2018-11-24T08:32:13Z</time>
      </trkpt>
      <trkpt lat="42.80287" lon="0.84904">
        <ele>2204.2</ele>
        <time>2018-11-24T08:32:15Z</time>
      </trkpt>
      <trkpt lat="42.80285" lon="0.849">
        <ele>2206.2</ele>
        <time>2018-11-24T08:32:16Z</time>
      </trkpt>
      <trkpt lat="42.80284" lon="0.84896">
        <ele>2208</ele>
        <time>2018-11-24T08:32:18Z</time>
      </trkpt>
      <trkpt lat="42.80282" lon="0.84891">
        <ele>2209.9</ele>
        <time>2018-11-24T08:32:19Z</time>
      </trkpt>
      <trkpt lat="42.8028" lon="0.84887">
        <ele>2211.6</ele>
        <time>2018-11-24T08:32:21Z</time>
      </trkpt>
      <trkpt lat="42.80278" lon="0.84884">
        <ele>2212.6</ele>
        <time>2018-11-24T08:32:22Z</time>
      </trkpt>
      <trkpt lat="42.80276" lon="0.8488">
        <ele>2213.8</ele>
        <time>2018-11-24T08:32:23Z</time>
      </trkpt>
      <trkpt lat="42.80274" lon="0.84877">
        <ele>2214.8</ele>
        <time>2018-11-24T08:32:25Z</time>
      </trkpt>
      <trkpt lat="42.8027" lon="0.84876">
        <ele>2214.7</ele>
        <time>2018-11-24T08:32:26Z</time>
      </trkpt>
      <trkpt lat="42.80266" lon="0.84874">
        <ele>2214.8</ele>
        <time>2018-11-24T08:32:28Z</time>
      </trkpt>
      <trkpt lat="42.80262" lon="0.84874">
        <ele>2214</ele>
        <time>2018-11-24T08:32:29Z</time>
      </trkpt>
      <trkpt lat="42.80258" lon="0.84873">
        <ele>2213.4</ele>
        <time>2018-11-24T08:32:31Z</time>
      </trkpt>
      <trkpt lat="42.80254" lon="0.84873">
        <ele>2212.8</ele>
        <time>2018-11-24T08:32:33Z</time>
      </trkpt>
      <trkpt lat="42.80251" lon="0.84873">
        <ele>2212.5</ele>
        <time>2018-11-24T08:32:34Z</time>
      </trkpt>
      <trkpt lat="42.80248" lon="0.84872">
        <ele>2212.6</ele>
        <time>2018-11-24T08:32:35Z</time>
      </trkpt>
      <trkpt lat="42.80246" lon="0.84868">
        <ele>2214.6</ele>
        <time>2018-11-24T08:32:37Z</time>
      </trkpt>
      <trkpt lat="42.80244" lon="0.84863">
        <ele>2216.5</ele>
        <time>2018-11-24T08:32:38Z</time>
      </trkpt>
      <trkpt lat="42.80242" lon="0.84859">
        <ele>2218.4</ele>
        <time>2018-11-24T08:32:40Z</time>
      </trkpt>
      <trkpt lat="42.80241" lon="0.84854">
        <ele>2220.8</ele>
        <time>2018-11-24T08:32:41Z</time>
      </trkpt>
      <trkpt lat="42.80241" lon="0.8485">
        <ele>2222.8</ele>
        <time>2018-11-24T08:32:42Z</time>
      </trkpt>
      <trkpt lat="42.8024" lon="0.84845">
        <ele>2225</ele>
        <time>2018-11-24T08:32:44Z</time>
      </trkpt>
      <trkpt lat="42.80238" lon="0.84841">
        <ele>2226.6</ele>
        <time>2018-11-24T08:32:45Z</time>
      </trkpt>
      <trkpt lat="42.80235" lon="0.84837">
        <ele>2228.2</ele>
        <time>2018-11-24T08:32:47Z</time>
      </trkpt>
      <trkpt lat="42.80231" lon="0.84836">
        <ele>2228.4</ele>
        <time>2018-11-24T08:32:49Z</time>
      </trkpt>
      <trkpt lat="42.80227" lon="0.84834">
        <ele>2228.5</ele>
        <time>2018-11-24T08:32:50Z</time>
      </trkpt>
      <trkpt lat="42.80225" lon="0.8483">
        <ele>2229.9</ele>
        <time>2018-11-24T08:32:52Z</time>
      </trkpt>
      <trkpt lat="42.80223" lon="0.84827">
        <ele>2231.1</ele>
        <time>2018-11-24T08:32:53Z</time>
      </trkpt>
      <trkpt lat="42.80221" lon="0.84823">
        <ele>2232.8</ele>
        <time>2018-11-24T08:32:54Z</time>
      </trkpt>
      <trkpt lat="42.80219" lon="0.84819">
        <ele>2235</ele>
        <time>2018-11-24T08:32:56Z</time>
      </trkpt>
      <trkpt lat="42.8022" lon="0.84814">
        <ele>2237</ele>
        <time>2018-11-24T08:32:57Z</time>
      </trkpt>
      <trkpt lat="42.80221" lon="0.84809">
        <ele>2238.9</ele>
        <time>2018-11-24T08:32:59Z</time>
      </trkpt>
      <trkpt lat="42.80223" lon="0.84804">
        <ele>2241</ele>
        <time>2018-11-24T08:33:00Z</time>
      </trkpt>
      <trkpt lat="42.80224" lon="0.84798">
        <ele>2243.9</ele>
        <time>2018-11-24T08:33:02Z</time>
      </trkpt>
      <trkpt lat="42.80226" lon="0.84793">
        <ele>2246.7</ele>
        <time>2018-11-24T08:33:04Z</time>
      </trkpt>
      <trkpt lat="42.80228" lon="0.84788">
        <ele>2249.4</ele>
        <time>2018-11-24T08:33:05Z</time>
      </trkpt>
      <trkpt lat="42.8023" lon="0.84783">
        <ele>2252</ele>
        <time>2018-11-24T08:33:07Z</time>
      </trkpt>
      <trkpt lat="42.80231" lon="0.84777">
        <ele>2254.4</ele>
        <time>2018-11-24T08:33:09Z</time>
      </trkpt>
      <trkpt lat="42.80233" lon="0.84772">
        <ele>2256</ele>
        <time>2018-11-24T08:33:11Z</time>
      </trkpt>
      <trkpt lat="42.80236" lon="0.84767">
        <ele>2257.4</ele>
        <time>2018-11-24T08:33:12Z</time>
      </trkpt>
      <trkpt lat="42.80238" lon="0.84762">
        <ele>2258.3</ele>
        <time>2018-11-24T08:33:14Z</time>
      </trkpt>
      <trkpt lat="42.80241" lon="0.84758">
        <ele>2258.9</ele>
        <time>2018-11-24T08:33:16Z</time>
      </trkpt>
      <trkpt lat="42.80244" lon="0.84753">
        <ele>2259.1</ele>
        <time>2018-11-24T08:33:18Z</time>
      </trkpt>
      <trkpt lat="42.80246" lon="0.84748">
        <ele>2258.8</ele>
        <time>2018-11-24T08:33:19Z</time>
      </trkpt>
      <trkpt lat="42.80249" lon="0.84743">
        <ele>2257.6</ele>
        <time>2018-11-24T08:33:21Z</time>
      </trkpt>
      <trkpt lat="42.80249" lon="0.84737">
        <ele>2256.9</ele>
        <time>2018-11-24T08:33:23Z</time>
      </trkpt>
      <trkpt lat="42.8025" lon="0.84732">
        <ele>2256.4</ele>
        <time>2018-11-24T08:33:25Z</time>
      </trkpt>
      <trkpt lat="42.8025" lon="0.84726">
        <ele>2255.6</ele>
        <time>2018-11-24T08:33:26Z</time>
      </trkpt>
      <trkpt lat="42.8025" lon="0.8472">
        <ele>2254.9</ele>
        <time>2018-11-24T08:33:28Z</time>
      </trkpt>
      <trkpt lat="42.8025" lon="0.84714">
        <ele>2254.7</ele>
        <time>2018-11-24T08:33:30Z</time>
      </trkpt>
      <trkpt lat="42.8025" lon="0.84708">
        <ele>2254.6</ele>
        <time>2018-11-24T08:33:31Z</time>
      </trkpt>
      <trkpt lat="42.80251" lon="0.84703">
        <ele>2254.4</ele>
        <time>2018-11-24T08:33:33Z</time>
      </trkpt>
      <trkpt lat="42.80251" lon="0.84697">
        <ele>2254.1</ele>
        <time>2018-11-24T08:33:35Z</time>
      </trkpt>
      <trkpt lat="42.80251" lon="0.84691">
        <ele>2253.8</ele>
        <time>2018-11-24T08:33:36Z</time>
      </trkpt>
      <trkpt lat="42.80252" lon="0.84686">
        <ele>2253.1</ele>
        <time>2018-11-24T08:33:38Z</time>
      </trkpt>
      <trkpt lat="42.80253" lon="0.8468">
        <ele>2252.5</ele>
        <time>2018-11-24T08:33:40Z</time>
      </trkpt>
      <trkpt lat="42.80254" lon="0.84675">
        <ele>2251.6</ele>
        <time>2018-11-24T08:33:41Z</time>
      </trkpt>
      <trkpt lat="42.80255" lon="0.84669">
        <ele>2250.7</ele>
        <time>2018-11-24T08:33:43Z</time>
      </trkpt>
      <trkpt lat="42.80256" lon="0.84664">
        <ele>2249.8</ele>
        <time>2018-11-24T08:33:45Z</time>
      </trkpt>
      <trkpt lat="42.80257" lon="0.84658">
        <ele>2249</ele>
        <time>2018-11-24T08:33:46Z</time>
      </trkpt>
      <trkpt lat="42.80256" lon="0.84652">
        <ele>2248.6</ele>
        <time>2018-11-24T08:33:48Z</time>
      </trkpt>
      <trkpt lat="42.80255" lon="0.84647">
        <ele>2248.4</ele>
        <time>2018-11-24T08:33:50Z</time>
      </trkpt>
      <trkpt lat="42.80254" lon="0.84641">
        <ele>2248.1</ele>
        <time>2018-11-24T08:33:52Z</time>
      </trkpt>
      <trkpt lat="42.80253" lon="0.84635">
        <ele>2248</ele>
        <time>2018-11-24T08:33:53Z</time>
      </trkpt>
      <trkpt lat="42.80252" lon="0.84629">
        <ele>2247.9</ele>
        <time>2018-11-24T08:33:55Z</time>
      </trkpt>
      <trkpt lat="42.80251" lon="0.84624">
        <ele>2247.7</ele>
        <time>2018-11-24T08:33:57Z</time>
      </trkpt>
      <trkpt lat="42.8025" lon="0.84618">
        <ele>2247.5</ele>
        <time>2018-11-24T08:33:59Z</time>
      </trkpt>
      <trkpt lat="42.80249" lon="0.84613">
        <ele>2248</ele>
        <time>2018-11-24T08:34:00Z</time>
      </trkpt>
      <trkpt lat="42.80248" lon="0.84607">
        <ele>2248.5</ele>
        <time>2018-11-24T08:34:02Z</time>
      </trkpt>
      <trkpt lat="42.80246" lon="0.84602">
        <ele>2249.2</ele>
        <time>2018-11-24T08:34:04Z</time>
      </trkpt>
      <trkpt lat="42.80245" lon="0.84597">
        <ele>2249.9</ele>
        <time>2018-11-24T08:34:05Z</time>
      </trkpt>
      <trkpt lat="42.80244" lon="0.84591">
        <ele>2250.4</ele>
        <time>2018-11-24T08:34:07Z</time>
      </trkpt>
      <trkpt lat="42.80242" lon="0.84586">
        <ele>2250.9</ele>
        <time>2018-11-24T08:34:08Z</time>
      </trkpt>
      <trkpt lat="42.80241" lon="0.84581">
        <ele>2251.6</ele>
        <time>2018-11-24T08:34:10Z</time>
      </trkpt>
      <trkpt lat="42.8024" lon="0.84575">
        <ele>2252.6</ele>
        <time>2018-11-24T08:34:12Z</time>
      </trkpt>
      <trkpt lat="42.80239" lon="0.8457">
        <ele>2253.8</ele>
        <time>2018-11-24T08:34:13Z</time>
      </trkpt>
      <trkpt lat="42.80237" lon="0.84564">
        <ele>2254.9</ele>
        <time>2018-11-24T08:34:15Z</time>
      </trkpt>
      <trkpt lat="42.80236" lon="0.84559">
        <ele>2256</ele>
        <time>2018-11-24T08:34:17Z</time>
      </trkpt>
      <trkpt lat="42.80236" lon="0.84553">
        <ele>2256.5</ele>
        <time>2018-11-24T08:34:18Z</time>
      </trkpt>
      <trkpt lat="42.80236" lon="0.84547">
        <ele>2257.3</ele>
        <time>2018-11-24T08:34:20Z</time>
      </trkpt>
      <trkpt lat="42.80236" lon="0.84542">
        <ele>2258.1</ele>
        <time>2018-11-24T08:34:22Z</time>
      </trkpt>
      <trkpt lat="42.80236" lon="0.84536">
        <ele>2258.9</ele>
        <time>2018-11-24T08:34:24Z</time>
      </trkpt>
      <trkpt lat="42.80236" lon="0.8453">
        <ele>2259.9</ele>
        <time>2018-11-24T08:34:25Z</time>
      </trkpt>
      <trkpt lat="42.80236" lon="0.84524">
        <ele>2261.1</ele>
        <time>2018-11-24T08:34:27Z</time>
      </trkpt>
      <trkpt lat="42.80237" lon="0.84518">
        <ele>2261.8</ele>
        <time>2018-11-24T08:34:29Z</time>
      </trkpt>
      <trkpt lat="42.80238" lon="0.84513">
        <ele>2262.7</ele>
        <time>2018-11-24T08:34:30Z</time>
      </trkpt>
      <trkpt lat="42.80238" lon="0.84507">
        <ele>2263.6</ele>
        <time>2018-11-24T08:34:32Z</time>
      </trkpt>
      <trkpt lat="42.80239" lon="0.84501">
        <ele>2264.5</ele>
        <time>2018-11-24T08:34:34Z</time>
      </trkpt>
      <trkpt lat="42.8024" lon="0.84496">
        <ele>2265.1</ele>
        <time>2018-11-24T08:34:36Z</time>
      </trkpt>
      <trkpt lat="42.80242" lon="0.8449">
        <ele>2265.8</ele>
        <time>2018-11-24T08:34:37Z</time>
      </trkpt>
      <trkpt lat="42.80243" lon="0.84485">
        <ele>2266.7</ele>
        <time>2018-11-24T08:34:39Z</time>
      </trkpt>
      <trkpt lat="42.80244" lon="0.84479">
        <ele>2267.5</ele>
        <time>2018-11-24T08:34:41Z</time>
      </trkpt>
      <trkpt lat="42.80246" lon="0.84474">
        <ele>2268.5</ele>
        <time>2018-11-24T08:34:42Z</time>
      </trkpt>
      <trkpt lat="42.80247" lon="0.84468">
        <ele>2269.3</ele>
        <time>2018-11-24T08:34:44Z</time>
      </trkpt>
      <trkpt lat="42.80245" lon="0.84463">
        <ele>2271.2</ele>
        <time>2018-11-24T08:34:46Z</time>
      </trkpt>
      <trkpt lat="42.80243" lon="0.84458">
        <ele>2272.9</ele>
        <time>2018-11-24T08:34:47Z</time>
      </trkpt>
      <trkpt lat="42.80241" lon="0.84453">
        <ele>2274.5</ele>
        <time>2018-11-24T08:34:49Z</time>
      </trkpt>
      <trkpt lat="42.80239" lon="0.84449">
        <ele>2275.6</ele>
        <time>2018-11-24T08:34:51Z</time>
      </trkpt>
      <trkpt lat="42.80238" lon="0.84444">
        <ele>2276.9</ele>
        <time>2018-11-24T08:34:52Z</time>
      </trkpt>
      <trkpt lat="42.80236" lon="0.8444">
        <ele>2277.7</ele>
        <time>2018-11-24T08:34:54Z</time>
      </trkpt>
      <trkpt lat="42.80234" lon="0.84435">
        <ele>2278.4</ele>
        <time>2018-11-24T08:34:55Z</time>
      </trkpt>
      <trkpt lat="42.80231" lon="0.84432">
        <ele>2278.9</ele>
        <time>2018-11-24T08:34:57Z</time>
      </trkpt>
      <trkpt lat="42.80227" lon="0.8443">
        <ele>2279.2</ele>
        <time>2018-11-24T08:34:58Z</time>
      </trkpt>
      <trkpt lat="42.80224" lon="0.84427">
        <ele>2279.3</ele>
        <time>2018-11-24T08:35:00Z</time>
      </trkpt>
      <trkpt lat="42.8022" lon="0.84424">
        <ele>2279.3</ele>
        <time>2018-11-24T08:35:02Z</time>
      </trkpt>
      <trkpt lat="42.80216" lon="0.84423">
        <ele>2279.2</ele>
        <time>2018-11-24T08:35:03Z</time>
      </trkpt>
      <trkpt lat="42.80212" lon="0.84423">
        <ele>2279.1</ele>
        <time>2018-11-24T08:35:05Z</time>
      </trkpt>
      <trkpt lat="42.80209" lon="0.84422">
        <ele>2279</ele>
        <time>2018-11-24T08:35:06Z</time>
      </trkpt>
      <trkpt lat="42.80205" lon="0.84422">
        <ele>2278.6</ele>
        <time>2018-11-24T08:35:08Z</time>
      </trkpt>
      <trkpt lat="42.80201" lon="0.84421">
        <ele>2278.4</ele>
        <time>2018-11-24T08:35:09Z</time>
      </trkpt>
      <trkpt lat="42.80197" lon="0.84421">
        <ele>2278</ele>
        <time>2018-11-24T08:35:11Z</time>
      </trkpt>
      <trkpt lat="42.80193" lon="0.8442">
        <ele>2277.6</ele>
        <time>2018-11-24T08:35:12Z</time>
      </trkpt>
      <trkpt lat="42.80189" lon="0.8442">
        <ele>2277</ele>
        <time>2018-11-24T08:35:14Z</time>
      </trkpt>
      <trkpt lat="42.80185" lon="0.84419">
        <ele>2276.3</ele>
        <time>2018-11-24T08:35:16Z</time>
      </trkpt>
      <trkpt lat="42.80181" lon="0.84419">
        <ele>2275.4</ele>
        <time>2018-11-24T08:35:17Z</time>
      </trkpt>
      <trkpt lat="42.80177" lon="0.84418">
        <ele>2274.7</ele>
        <time>2018-11-24T08:35:19Z</time>
      </trkpt>
      <trkpt lat="42.80173" lon="0.84417">
        <ele>2273.8</ele>
        <time>2018-11-24T08:35:21Z</time>
      </trkpt>
      <trkpt lat="42.80169" lon="0.84416">
        <ele>2273.1</ele>
        <time>2018-11-24T08:35:22Z</time>
      </trkpt>
      <trkpt lat="42.80165" lon="0.84415">
        <ele>2272.8</ele>
        <time>2018-11-24T08:35:24Z</time>
      </trkpt>
      <trkpt lat="42.80161" lon="0.84414">
        <ele>2272.6</ele>
        <time>2018-11-24T08:35:25Z</time>
      </trkpt>
      <trkpt lat="42.80157" lon="0.84413">
        <ele>2272.6</ele>
        <time>2018-11-24T08:35:27Z</time>
      </trkpt>
      <trkpt lat="42.80154" lon="0.84411">
        <ele>2272.4</ele>
        <time>2018-11-24T08:35:29Z</time>
      </trkpt>
      <trkpt lat="42.8015" lon="0.8441">
        <ele>2272.3</ele>
        <time>2018-11-24T08:35:30Z</time>
      </trkpt>
      <trkpt lat="42.80147" lon="0.84408">
        <ele>2272.1</ele>
        <time>2018-11-24T08:35:32Z</time>
      </trkpt>
      <trkpt lat="42.80143" lon="0.84406">
        <ele>2271.9</ele>
        <time>2018-11-24T08:35:33Z</time>
      </trkpt>
      <trkpt lat="42.8014" lon="0.84403">
        <ele>2271.6</ele>
        <time>2018-11-24T08:35:35Z</time>
      </trkpt>
      <trkpt lat="42.80137" lon="0.844">
        <ele>2270.9</ele>
        <time>2018-11-24T08:35:36Z</time>
      </trkpt>
      <trkpt lat="42.80133" lon="0.84396">
        <ele>2270.1</ele>
        <time>2018-11-24T08:35:38Z</time>
      </trkpt>
      <trkpt lat="42.8013" lon="0.84393">
        <ele>2269.2</ele>
        <time>2018-11-24T08:35:39Z</time>
      </trkpt>
      <trkpt lat="42.80126" lon="0.84391">
        <ele>2268.4</ele>
        <time>2018-11-24T08:35:41Z</time>
      </trkpt>
      <trkpt lat="42.80122" lon="0.84388">
        <ele>2267.8</ele>
        <time>2018-11-24T08:35:43Z</time>
      </trkpt>
      <trkpt lat="42.80118" lon="0.84387">
        <ele>2267.2</ele>
        <time>2018-11-24T08:35:45Z</time>
      </trkpt>
      <trkpt lat="42.80114" lon="0.84386">
        <ele>2267</ele>
        <time>2018-11-24T08:35:46Z</time>
      </trkpt>
      <trkpt lat="42.8011" lon="0.84385">
        <ele>2266.6</ele>
        <time>2018-11-24T08:35:48Z</time>
      </trkpt>
      <trkpt lat="42.80107" lon="0.84385">
        <ele>2266.5</ele>
        <time>2018-11-24T08:35:49Z</time>
      </trkpt>
      <trkpt lat="42.80103" lon="0.84384">
        <ele>2266.5</ele>
        <time>2018-11-24T08:35:51Z</time>
      </trkpt>
      <trkpt lat="42.80099" lon="0.84383">
        <ele>2266.4</ele>
        <time>2018-11-24T08:35:52Z</time>
      </trkpt>
      <trkpt lat="42.80095" lon="0.84382">
        <ele>2266.3</ele>
        <time>2018-11-24T08:35:54Z</time>
      </trkpt>
      <trkpt lat="42.80092" lon="0.84379">
        <ele>2265.3</ele>
        <time>2018-11-24T08:35:56Z</time>
      </trkpt>
      <trkpt lat="42.80089" lon="0.84376">
        <ele>2264.1</ele>
        <time>2018-11-24T08:35:57Z</time>
      </trkpt>
      <trkpt lat="42.80085" lon="0.84372">
        <ele>2262.6</ele>
        <time>2018-11-24T08:35:59Z</time>
      </trkpt>
      <trkpt lat="42.80082" lon="0.84369">
        <ele>2261.4</ele>
        <time>2018-11-24T08:36:00Z</time>
      </trkpt>
      <trkpt lat="42.80079" lon="0.84366">
        <ele>2260.7</ele>
        <time>2018-11-24T08:36:02Z</time>
      </trkpt>
      <trkpt lat="42.80076" lon="0.84362">
        <ele>2259.5</ele>
        <time>2018-11-24T08:36:04Z</time>
      </trkpt>
      <trkpt lat="42.80073" lon="0.84358">
        <ele>2258.7</ele>
        <time>2018-11-24T08:36:05Z</time>
      </trkpt>
      <trkpt lat="42.8007" lon="0.84354">
        <ele>2257.9</ele>
        <time>2018-11-24T08:36:07Z</time>
      </trkpt>
      <trkpt lat="42.80067" lon="0.84352">
        <ele>2257.5</ele>
        <time>2018-11-24T08:36:08Z</time>
      </trkpt>
      <trkpt lat="42.80064" lon="0.8435">
        <ele>2257</ele>
        <time>2018-11-24T08:36:10Z</time>
      </trkpt>
      <trkpt lat="42.8006" lon="0.84348">
        <ele>2256.3</ele>
        <time>2018-11-24T08:36:11Z</time>
      </trkpt>
      <trkpt lat="42.80057" lon="0.84346">
        <ele>2255.6</ele>
        <time>2018-11-24T08:36:13Z</time>
      </trkpt>
      <trkpt lat="42.80054" lon="0.84343">
        <ele>2254.4</ele>
        <time>2018-11-24T08:36:14Z</time>
      </trkpt>
      <trkpt lat="42.80051" lon="0.8434">
        <ele>2253.5</ele>
        <time>2018-11-24T08:36:16Z</time>
      </trkpt>
      <trkpt lat="42.80047" lon="0.84336">
        <ele>2252.7</ele>
        <time>2018-11-24T08:36:17Z</time>
      </trkpt>
      <trkpt lat="42.80044" lon="0.84333">
        <ele>2251.9</ele>
        <time>2018-11-24T08:36:19Z</time>
      </trkpt>
      <trkpt lat="42.80047" lon="0.8433">
        <ele>2250</ele>
        <time>2018-11-24T08:36:21Z</time>
      </trkpt>
      <trkpt lat="42.80051" lon="0.84327">
        <ele>2248.1</ele>
        <time>2018-11-24T08:36:22Z</time>
      </trkpt>
      <trkpt lat="42.80054" lon="0.84324">
        <ele>2246.3</ele>
        <time>2018-11-24T08:36:24Z</time>
      </trkpt>
      <trkpt lat="42.80058" lon="0.84321">
        <ele>2245</ele>
        <time>2018-11-24T08:36:26Z</time>
      </trkpt>
      <trkpt lat="42.80061" lon="0.84318">
        <ele>2244.5</ele>
        <time>2018-11-24T08:36:27Z</time>
      </trkpt>
      <trkpt lat="42.80058" lon="0.84315">
        <ele>2242.9</ele>
        <time>2018-11-24T08:36:29Z</time>
      </trkpt>
      <trkpt lat="42.80056" lon="0.84313">
        <ele>2241.1</ele>
        <time>2018-11-24T08:36:30Z</time>
      </trkpt>
      <trkpt lat="42.80053" lon="0.8431">
        <ele>2240.4</ele>
        <time>2018-11-24T08:36:31Z</time>
      </trkpt>
      <trkpt lat="42.80049" lon="0.84309">
        <ele>2240.6</ele>
        <time>2018-11-24T08:36:33Z</time>
      </trkpt>
      <trkpt lat="42.80046" lon="0.84307">
        <ele>2240.5</ele>
        <time>2018-11-24T08:36:34Z</time>
      </trkpt>
      <trkpt lat="42.80042" lon="0.84306">
        <ele>2240.6</ele>
        <time>2018-11-24T08:36:36Z</time>
      </trkpt>
      <trkpt lat="42.80045" lon="0.84303">
        <ele>2238.9</ele>
        <time>2018-11-24T08:36:37Z</time>
      </trkpt>
      <trkpt lat="42.80048" lon="0.843">
        <ele>2237.3</ele>
        <time>2018-11-24T08:36:39Z</time>
      </trkpt>
      <trkpt lat="42.80051" lon="0.84297">
        <ele>2235.6</ele>
        <time>2018-11-24T08:36:40Z</time>
      </trkpt>
      <trkpt lat="42.80053" lon="0.84294">
        <ele>2234.1</ele>
        <time>2018-11-24T08:36:41Z</time>
      </trkpt>
      <trkpt lat="42.80055" lon="0.8429">
        <ele>2232.7</ele>
        <time>2018-11-24T08:36:43Z</time>
      </trkpt>
      <trkpt lat="42.80057" lon="0.84287">
        <ele>2231.7</ele>
        <time>2018-11-24T08:36:44Z</time>
      </trkpt>
      <trkpt lat="42.80054" lon="0.84284">
        <ele>2230.5</ele>
        <time>2018-11-24T08:36:45Z</time>
      </trkpt>
      <trkpt lat="42.80052" lon="0.84281">
        <ele>2229.6</ele>
        <time>2018-11-24T08:36:47Z</time>
      </trkpt>
      <trkpt lat="42.80049" lon="0.84278">
        <ele>2228.9</ele>
        <time>2018-11-24T08:36:48Z</time>
      </trkpt>
      <trkpt lat="42.80046" lon="0.84275">
        <ele>2228.2</ele>
        <time>2018-11-24T08:36:50Z</time>
      </trkpt>
      <trkpt lat="42.80042" lon="0.84274">
        <ele>2228.2</ele>
        <time>2018-11-24T08:36:51Z</time>
      </trkpt>
      <trkpt lat="42.80039" lon="0.84272">
        <ele>2228.1</ele>
        <time>2018-11-24T08:36:53Z</time>
      </trkpt>
      <trkpt lat="42.80035" lon="0.84271">
        <ele>2228.1</ele>
        <time>2018-11-24T08:36:54Z</time>
      </trkpt>
      <trkpt lat="42.80034" lon="0.84266">
        <ele>2226.7</ele>
        <time>2018-11-24T08:36:56Z</time>
      </trkpt>
      <trkpt lat="42.80033" lon="0.84261">
        <ele>2225.4</ele>
        <time>2018-11-24T08:36:57Z</time>
      </trkpt>
      <trkpt lat="42.80032" lon="0.84256">
        <ele>2224.1</ele>
        <time>2018-11-24T08:36:59Z</time>
      </trkpt>
      <trkpt lat="42.80035" lon="0.84255">
        <ele>2223.2</ele>
        <time>2018-11-24T08:37:00Z</time>
      </trkpt>
      <trkpt lat="42.80039" lon="0.84254">
        <ele>2222.3</ele>
        <time>2018-11-24T08:37:01Z</time>
      </trkpt>
      <trkpt lat="42.80042" lon="0.84252">
        <ele>2221.2</ele>
        <time>2018-11-24T08:37:03Z</time>
      </trkpt>
      <trkpt lat="42.80045" lon="0.84251">
        <ele>2220.3</ele>
        <time>2018-11-24T08:37:04Z</time>
      </trkpt>
      <trkpt lat="42.80049" lon="0.8425">
        <ele>2219.3</ele>
        <time>2018-11-24T08:37:06Z</time>
      </trkpt>
      <trkpt lat="42.80053" lon="0.84249">
        <ele>2218.4</ele>
        <time>2018-11-24T08:37:07Z</time>
      </trkpt>
      <trkpt lat="42.80056" lon="0.84248">
        <ele>2218</ele>
        <time>2018-11-24T08:37:09Z</time>
      </trkpt>
      <trkpt lat="42.8006" lon="0.84247">
        <ele>2219.3</ele>
        <time>2018-11-24T08:37:10Z</time>
      </trkpt>
      <trkpt lat="42.80064" lon="0.84246">
        <ele>2220.7</ele>
        <time>2018-11-24T08:37:12Z</time>
      </trkpt>
      <trkpt lat="42.80066" lon="0.84241">
        <ele>2220.4</ele>
        <time>2018-11-24T08:37:13Z</time>
      </trkpt>
      <trkpt lat="42.80067" lon="0.84237">
        <ele>2220</ele>
        <time>2018-11-24T08:37:15Z</time>
      </trkpt>
      <trkpt lat="42.80069" lon="0.84232">
        <ele>2219.6</ele>
        <time>2018-11-24T08:37:16Z</time>
      </trkpt>
      <trkpt lat="42.8007" lon="0.84227">
        <ele>2219.3</ele>
        <time>2018-11-24T08:37:18Z</time>
      </trkpt>
      <trkpt lat="42.80071" lon="0.84221">
        <ele>2218.4</ele>
        <time>2018-11-24T08:37:20Z</time>
      </trkpt>
      <trkpt lat="42.80071" lon="0.84216">
        <ele>2217.3</ele>
        <time>2018-11-24T08:37:21Z</time>
      </trkpt>
      <trkpt lat="42.80072" lon="0.8421">
        <ele>2216</ele>
        <time>2018-11-24T08:37:23Z</time>
      </trkpt>
      <trkpt lat="42.80072" lon="0.84205">
        <ele>2214.9</ele>
        <time>2018-11-24T08:37:25Z</time>
      </trkpt>
      <trkpt lat="42.80073" lon="0.84199">
        <ele>2213.6</ele>
        <time>2018-11-24T08:37:26Z</time>
      </trkpt>
      <trkpt lat="42.80073" lon="0.84193">
        <ele>2212.3</ele>
        <time>2018-11-24T08:37:28Z</time>
      </trkpt>
      <trkpt lat="42.80073" lon="0.84187">
        <ele>2211.3</ele>
        <time>2018-11-24T08:37:30Z</time>
      </trkpt>
      <trkpt lat="42.80074" lon="0.84182">
        <ele>2210.5</ele>
        <time>2018-11-24T08:37:31Z</time>
      </trkpt>
      <trkpt lat="42.80074" lon="0.84176">
        <ele>2209.7</ele>
        <time>2018-11-24T08:37:33Z</time>
      </trkpt>
      <trkpt lat="42.80074" lon="0.8417">
        <ele>2208.8</ele>
        <time>2018-11-24T08:37:35Z</time>
      </trkpt>
      <trkpt lat="42.80073" lon="0.84164">
        <ele>2207.6</ele>
        <time>2018-11-24T08:37:37Z</time>
      </trkpt>
      <trkpt lat="42.80071" lon="0.84159">
        <ele>2206.4</ele>
        <time>2018-11-24T08:37:38Z</time>
      </trkpt>
      <trkpt lat="42.8007" lon="0.84153">
        <ele>2205.3</ele>
        <time>2018-11-24T08:37:40Z</time>
      </trkpt>
      <trkpt lat="42.80068" lon="0.84147">
        <ele>2204.1</ele>
        <time>2018-11-24T08:37:42Z</time>
      </trkpt>
      <trkpt lat="42.80066" lon="0.84142">
        <ele>2202.8</ele>
        <time>2018-11-24T08:37:44Z</time>
      </trkpt>
      <trkpt lat="42.80064" lon="0.84137">
        <ele>2201.7</ele>
        <time>2018-11-24T08:37:45Z</time>
      </trkpt>
      <trkpt lat="42.80062" lon="0.84132">
        <ele>2200.9</ele>
        <time>2018-11-24T08:37:47Z</time>
      </trkpt>
      <trkpt lat="42.80058" lon="0.84129">
        <ele>2199.4</ele>
        <time>2018-11-24T08:37:49Z</time>
      </trkpt>
      <trkpt lat="42.80055" lon="0.84127">
        <ele>2198.4</ele>
        <time>2018-11-24T08:37:50Z</time>
      </trkpt>
      <trkpt lat="42.80051" lon="0.84124">
        <ele>2198</ele>
        <time>2018-11-24T08:37:52Z</time>
      </trkpt>
      <trkpt lat="42.80049" lon="0.84119">
        <ele>2198</ele>
        <time>2018-11-24T08:37:54Z</time>
      </trkpt>
      <trkpt lat="42.80048" lon="0.84114">
        <ele>2197.7</ele>
        <time>2018-11-24T08:37:55Z</time>
      </trkpt>
      <trkpt lat="42.80046" lon="0.84108">
        <ele>2197.4</ele>
        <time>2018-11-24T08:37:57Z</time>
      </trkpt>
      <trkpt lat="42.80045" lon="0.84103">
        <ele>2196.9</ele>
        <time>2018-11-24T08:37:59Z</time>
      </trkpt>
      <trkpt lat="42.80043" lon="0.84098">
        <ele>2196.4</ele>
        <time>2018-11-24T08:38:00Z</time>
      </trkpt>
      <trkpt lat="42.80041" lon="0.84094">
        <ele>2195.9</ele>
        <time>2018-11-24T08:38:02Z</time>
      </trkpt>
      <trkpt lat="42.8004" lon="0.8409">
        <ele>2195.1</ele>
        <time>2018-11-24T08:38:03Z</time>
      </trkpt>
      <trkpt lat="42.80038" lon="0.84086">
        <ele>2194.4</ele>
        <time>2018-11-24T08:38:04Z</time>
      </trkpt>
      <trkpt lat="42.80036" lon="0.84082">
        <ele>2193.7</ele>
        <time>2018-11-24T08:38:06Z</time>
      </trkpt>
      <trkpt lat="42.80032" lon="0.84081">
        <ele>2192.5</ele>
        <time>2018-11-24T08:38:07Z</time>
      </trkpt>
      <trkpt lat="42.80027" lon="0.84079">
        <ele>2191</ele>
        <time>2018-11-24T08:38:09Z</time>
      </trkpt>
      <trkpt lat="42.80023" lon="0.84078">
        <ele>2190</ele>
        <time>2018-11-24T08:38:11Z</time>
      </trkpt>
      <trkpt lat="42.80023" lon="0.84072">
        <ele>2190.1</ele>
        <time>2018-11-24T08:38:13Z</time>
      </trkpt>
      <trkpt lat="42.80023" lon="0.84066">
        <ele>2190.3</ele>
        <time>2018-11-24T08:38:15Z</time>
      </trkpt>
      <trkpt lat="42.80023" lon="0.8406">
        <ele>2190.2</ele>
        <time>2018-11-24T08:38:16Z</time>
      </trkpt>
      <trkpt lat="42.80021" lon="0.84055">
        <ele>2189.6</ele>
        <time>2018-11-24T08:38:18Z</time>
      </trkpt>
      <trkpt lat="42.80018" lon="0.84051">
        <ele>2188.9</ele>
        <time>2018-11-24T08:38:20Z</time>
      </trkpt>
      <trkpt lat="42.80016" lon="0.84046">
        <ele>2188.4</ele>
        <time>2018-11-24T08:38:21Z</time>
      </trkpt>
      <trkpt lat="42.80013" lon="0.84046">
        <ele>2187.3</ele>
        <time>2018-11-24T08:38:23Z</time>
      </trkpt>
      <trkpt lat="42.80009" lon="0.84045">
        <ele>2186.2</ele>
        <time>2018-11-24T08:38:24Z</time>
      </trkpt>
      <trkpt lat="42.80006" lon="0.84045">
        <ele>2185</ele>
        <time>2018-11-24T08:38:26Z</time>
      </trkpt>
      <trkpt lat="42.80002" lon="0.84044">
        <ele>2184</ele>
        <time>2018-11-24T08:38:27Z</time>
      </trkpt>
      <trkpt lat="42.79998" lon="0.84042">
        <ele>2182.7</ele>
        <time>2018-11-24T08:38:29Z</time>
      </trkpt>
      <trkpt lat="42.79994" lon="0.84039">
        <ele>2181</ele>
        <time>2018-11-24T08:38:30Z</time>
      </trkpt>
      <trkpt lat="42.79993" lon="0.84034">
        <ele>2180.6</ele>
        <time>2018-11-24T08:38:32Z</time>
      </trkpt>
      <trkpt lat="42.79992" lon="0.8403">
        <ele>2180.1</ele>
        <time>2018-11-24T08:38:33Z</time>
      </trkpt>
      <trkpt lat="42.7999" lon="0.84025">
        <ele>2179.3</ele>
        <time>2018-11-24T08:38:35Z</time>
      </trkpt>
      <trkpt lat="42.79989" lon="0.8402">
        <ele>2178.2</ele>
        <time>2018-11-24T08:38:36Z</time>
      </trkpt>
      <trkpt lat="42.79988" lon="0.84016">
        <ele>2177.3</ele>
        <time>2018-11-24T08:38:38Z</time>
      </trkpt>
      <trkpt lat="42.79987" lon="0.84011">
        <ele>2176.5</ele>
        <time>2018-11-24T08:38:39Z</time>
      </trkpt>
      <trkpt lat="42.79986" lon="0.84007">
        <ele>2175.5</ele>
        <time>2018-11-24T08:38:41Z</time>
      </trkpt>
      <trkpt lat="42.79985" lon="0.84002">
        <ele>2174.4</ele>
        <time>2018-11-24T08:38:42Z</time>
      </trkpt>
      <trkpt lat="42.79985" lon="0.83997">
        <ele>2173.9</ele>
        <time>2018-11-24T08:38:43Z</time>
      </trkpt>
      <trkpt lat="42.79984" lon="0.83992">
        <ele>2173.6</ele>
        <time>2018-11-24T08:38:45Z</time>
      </trkpt>
      <trkpt lat="42.79984" lon="0.83987">
        <ele>2173.2</ele>
        <time>2018-11-24T08:38:47Z</time>
      </trkpt>
      <trkpt lat="42.79983" lon="0.83981">
        <ele>2172.9</ele>
        <time>2018-11-24T08:38:48Z</time>
      </trkpt>
      <trkpt lat="42.79983" lon="0.83976">
        <ele>2172.6</ele>
        <time>2018-11-24T08:38:50Z</time>
      </trkpt>
      <trkpt lat="42.79982" lon="0.83971">
        <ele>2172</ele>
        <time>2018-11-24T08:38:51Z</time>
      </trkpt>
      <trkpt lat="42.79982" lon="0.83966">
        <ele>2171.4</ele>
        <time>2018-11-24T08:38:53Z</time>
      </trkpt>
      <trkpt lat="42.79982" lon="0.8396">
        <ele>2170.7</ele>
        <time>2018-11-24T08:38:54Z</time>
      </trkpt>
      <trkpt lat="42.79982" lon="0.83955">
        <ele>2170.1</ele>
        <time>2018-11-24T08:38:56Z</time>
      </trkpt>
      <trkpt lat="42.79982" lon="0.8395">
        <ele>2169.4</ele>
        <time>2018-11-24T08:38:57Z</time>
      </trkpt>
      <trkpt lat="42.79982" lon="0.83944">
        <ele>2168.8</ele>
        <time>2018-11-24T08:38:59Z</time>
      </trkpt>
      <trkpt lat="42.79982" lon="0.83939">
        <ele>2168.8</ele>
        <time>2018-11-24T08:39:01Z</time>
      </trkpt>
      <trkpt lat="42.79981" lon="0.83934">
        <ele>2167.7</ele>
        <time>2018-11-24T08:39:02Z</time>
      </trkpt>
      <trkpt lat="42.79979" lon="0.8393">
        <ele>2166.6</ele>
        <time>2018-11-24T08:39:03Z</time>
      </trkpt>
      <trkpt lat="42.79978" lon="0.83925">
        <ele>2165.7</ele>
        <time>2018-11-24T08:39:05Z</time>
      </trkpt>
      <trkpt lat="42.79977" lon="0.83919">
        <ele>2165.3</ele>
        <time>2018-11-24T08:39:07Z</time>
      </trkpt>
      <trkpt lat="42.79977" lon="0.83914">
        <ele>2165.3</ele>
        <time>2018-11-24T08:39:08Z</time>
      </trkpt>
      <trkpt lat="42.79976" lon="0.83908">
        <ele>2165.6</ele>
        <time>2018-11-24T08:39:10Z</time>
      </trkpt>
      <trkpt lat="42.79975" lon="0.83902">
        <ele>2165.9</ele>
        <time>2018-11-24T08:39:12Z</time>
      </trkpt>
      <trkpt lat="42.79973" lon="0.83897">
        <ele>2165.6</ele>
        <time>2018-11-24T08:39:13Z</time>
      </trkpt>
      <trkpt lat="42.79972" lon="0.83892">
        <ele>2165.4</ele>
        <time>2018-11-24T08:39:15Z</time>
      </trkpt>
      <trkpt lat="42.7997" lon="0.83887">
        <ele>2165.5</ele>
        <time>2018-11-24T08:39:17Z</time>
      </trkpt>
      <trkpt lat="42.79969" lon="0.83883">
        <ele>2165.9</ele>
        <time>2018-11-24T08:39:18Z</time>
      </trkpt>
      <trkpt lat="42.79969" lon="0.83878">
        <ele>2166.2</ele>
        <time>2018-11-24T08:39:19Z</time>
      </trkpt>
      <trkpt lat="42.79968" lon="0.83874">
        <ele>2166.7</ele>
        <time>2018-11-24T08:39:21Z</time>
      </trkpt>
      <trkpt lat="42.79967" lon="0.83869">
        <ele>2167</ele>
        <time>2018-11-24T08:39:22Z</time>
      </trkpt>
      <trkpt lat="42.79966" lon="0.83863">
        <ele>2167.2</ele>
        <time>2018-11-24T08:39:24Z</time>
      </trkpt>
      <trkpt lat="42.79965" lon="0.83858">
        <ele>2167.1</ele>
        <time>2018-11-24T08:39:26Z</time>
      </trkpt>
      <trkpt lat="42.79963" lon="0.83852">
        <ele>2166.9</ele>
        <time>2018-11-24T08:39:27Z</time>
      </trkpt>
      <trkpt lat="42.79962" lon="0.83846">
        <ele>2166.7</ele>
        <time>2018-11-24T08:39:29Z</time>
      </trkpt>
      <trkpt lat="42.79962" lon="0.83841">
        <ele>2167.1</ele>
        <time>2018-11-24T08:39:31Z</time>
      </trkpt>
      <trkpt lat="42.79963" lon="0.83835">
        <ele>2167.8</ele>
        <time>2018-11-24T08:39:32Z</time>
      </trkpt>
      <trkpt lat="42.79963" lon="0.8383">
        <ele>2168.1</ele>
        <time>2018-11-24T08:39:34Z</time>
      </trkpt>
      <trkpt lat="42.79963" lon="0.83825">
        <ele>2168.5</ele>
        <time>2018-11-24T08:39:35Z</time>
      </trkpt>
      <trkpt lat="42.79964" lon="0.83819">
        <ele>2168.8</ele>
        <time>2018-11-24T08:39:37Z</time>
      </trkpt>
      <trkpt lat="42.79964" lon="0.83814">
        <ele>2169.1</ele>
        <time>2018-11-24T08:39:39Z</time>
      </trkpt>
      <trkpt lat="42.79965" lon="0.83808">
        <ele>2169.6</ele>
        <time>2018-11-24T08:39:40Z</time>
      </trkpt>
      <trkpt lat="42.79966" lon="0.83802">
        <ele>2169.6</ele>
        <time>2018-11-24T08:39:42Z</time>
      </trkpt>
      <trkpt lat="42.79966" lon="0.83796">
        <ele>2169.5</ele>
        <time>2018-11-24T08:39:44Z</time>
      </trkpt>
      <trkpt lat="42.79967" lon="0.8379">
        <ele>2169.3</ele>
        <time>2018-11-24T08:39:46Z</time>
      </trkpt>
      <trkpt lat="42.79968" lon="0.83784">
        <ele>2169.1</ele>
        <time>2018-11-24T08:39:48Z</time>
      </trkpt>
      <trkpt lat="42.79969" lon="0.83779">
        <ele>2168.9</ele>
        <time>2018-11-24T08:39:49Z</time>
      </trkpt>
      <trkpt lat="42.7997" lon="0.83773">
        <ele>2169.1</ele>
        <time>2018-11-24T08:39:51Z</time>
      </trkpt>
      <trkpt lat="42.7997" lon="0.83768">
        <ele>2169.4</ele>
        <time>2018-11-24T08:39:52Z</time>
      </trkpt>
      <trkpt lat="42.79971" lon="0.83762">
        <ele>2169.7</ele>
        <time>2018-11-24T08:39:54Z</time>
      </trkpt>
      <trkpt lat="42.79972" lon="0.83757">
        <ele>2169.9</ele>
        <time>2018-11-24T08:39:56Z</time>
      </trkpt>
      <trkpt lat="42.79973" lon="0.83752">
        <ele>2170.1</ele>
        <time>2018-11-24T08:39:57Z</time>
      </trkpt>
      <trkpt lat="42.79973" lon="0.83747">
        <ele>2170.5</ele>
        <time>2018-11-24T08:39:59Z</time>
      </trkpt>
      <trkpt lat="42.79974" lon="0.83742">
        <ele>2170.7</ele>
        <time>2018-11-24T08:40:00Z</time>
      </trkpt>
      <trkpt lat="42.79974" lon="0.83737">
        <ele>2170.9</ele>
        <time>2018-11-24T08:40:02Z</time>
      </trkpt>
      <trkpt lat="42.79976" lon="0.83732">
        <ele>2171.1</ele>
        <time>2018-11-24T08:40:03Z</time>
      </trkpt>
      <trkpt lat="42.79977" lon="0.83728">
        <ele>2171.2</ele>
        <time>2018-11-24T08:40:05Z</time>
      </trkpt>
      <trkpt lat="42.79979" lon="0.83723">
        <ele>2171.1</ele>
        <time>2018-11-24T08:40:06Z</time>
      </trkpt>
      <trkpt lat="42.7998" lon="0.83718">
        <ele>2171.1</ele>
        <time>2018-11-24T08:40:08Z</time>
      </trkpt>
      <trkpt lat="42.79981" lon="0.83715">
        <ele>2171.1</ele>
        <time>2018-11-24T08:40:09Z</time>
      </trkpt>
      <trkpt lat="42.79982" lon="0.83711">
        <ele>2170.9</ele>
        <time>2018-11-24T08:40:10Z</time>
      </trkpt>
      <trkpt lat="42.79985" lon="0.83709">
        <ele>2170.3</ele>
        <time>2018-11-24T08:40:11Z</time>
      </trkpt>
      <trkpt lat="42.79988" lon="0.83708">
        <ele>2169.6</ele>
        <time>2018-11-24T08:40:12Z</time>
      </trkpt>
      <trkpt lat="42.79991" lon="0.83706">
        <ele>2168.9</ele>
        <time>2018-11-24T08:40:14Z</time>
      </trkpt>
      <trkpt lat="42.79995" lon="0.83708">
        <ele>2168.5</ele>
        <time>2018-11-24T08:40:15Z</time>
      </trkpt>
      <trkpt lat="42.79998" lon="0.83711">
        <ele>2168.3</ele>
        <time>2018-11-24T08:40:17Z</time>
      </trkpt>
      <trkpt lat="42.80002" lon="0.83713">
        <ele>2168.4</ele>
        <time>2018-11-24T08:40:19Z</time>
      </trkpt>
      <trkpt lat="42.80006" lon="0.83715">
        <ele>2168</ele>
        <time>2018-11-24T08:40:20Z</time>
      </trkpt>
      <trkpt lat="42.8001" lon="0.83716">
        <ele>2167.9</ele>
        <time>2018-11-24T08:40:22Z</time>
      </trkpt>
      <trkpt lat="42.80014" lon="0.83715">
        <ele>2167</ele>
        <time>2018-11-24T08:40:23Z</time>
      </trkpt>
      <trkpt lat="42.80017" lon="0.83715">
        <ele>2166.2</ele>
        <time>2018-11-24T08:40:25Z</time>
      </trkpt>
      <trkpt lat="42.80021" lon="0.83714">
        <ele>2165.3</ele>
        <time>2018-11-24T08:40:26Z</time>
      </trkpt>
      <trkpt lat="42.80025" lon="0.83712">
        <ele>2163.9</ele>
        <time>2018-11-24T08:40:28Z</time>
      </trkpt>
      <trkpt lat="42.80028" lon="0.8371">
        <ele>2162.4</ele>
        <time>2018-11-24T08:40:29Z</time>
      </trkpt>
      <trkpt lat="42.80031" lon="0.8371">
        <ele>2162.6</ele>
        <time>2018-11-24T08:40:31Z</time>
      </trkpt>
      <trkpt lat="42.80034" lon="0.83709">
        <ele>2162.6</ele>
        <time>2018-11-24T08:40:32Z</time>
      </trkpt>
      <trkpt lat="42.80037" lon="0.83709">
        <ele>2162.7</ele>
        <time>2018-11-24T08:40:33Z</time>
      </trkpt>
      <trkpt lat="42.80036" lon="0.83706">
        <ele>2161.1</ele>
        <time>2018-11-24T08:40:34Z</time>
      </trkpt>
      <trkpt lat="42.80034" lon="0.83703">
        <ele>2159.3</ele>
        <time>2018-11-24T08:40:35Z</time>
      </trkpt>
      <trkpt lat="42.8003" lon="0.83703">
        <ele>2159.1</ele>
        <time>2018-11-24T08:40:37Z</time>
      </trkpt>
      <trkpt lat="42.80027" lon="0.83703">
        <ele>2159.3</ele>
        <time>2018-11-24T08:40:38Z</time>
      </trkpt>
      <trkpt lat="42.80023" lon="0.83703">
        <ele>2160.3</ele>
        <time>2018-11-24T08:40:40Z</time>
      </trkpt>
      <trkpt lat="42.80019" lon="0.83703">
        <ele>2161.3</ele>
        <time>2018-11-24T08:40:41Z</time>
      </trkpt>
      <trkpt lat="42.80017" lon="0.83699">
        <ele>2160.2</ele>
        <time>2018-11-24T08:40:43Z</time>
      </trkpt>
      <trkpt lat="42.80015" lon="0.83694">
        <ele>2159.1</ele>
        <time>2018-11-24T08:40:44Z</time>
      </trkpt>
      <trkpt lat="42.80018" lon="0.83692">
        <ele>2157.7</ele>
        <time>2018-11-24T08:40:45Z</time>
      </trkpt>
      <trkpt lat="42.8002" lon="0.8369">
        <ele>2156.3</ele>
        <time>2018-11-24T08:40:47Z</time>
      </trkpt>
      <trkpt lat="42.80023" lon="0.83688">
        <ele>2154.6</ele>
        <time>2018-11-24T08:40:48Z</time>
      </trkpt>
      <trkpt lat="42.80027" lon="0.83687">
        <ele>2152.9</ele>
        <time>2018-11-24T08:40:49Z</time>
      </trkpt>
      <trkpt lat="42.8003" lon="0.83685">
        <ele>2151.8</ele>
        <time>2018-11-24T08:40:51Z</time>
      </trkpt>
      <trkpt lat="42.80034" lon="0.83684">
        <ele>2151</ele>
        <time>2018-11-24T08:40:52Z</time>
      </trkpt>
      <trkpt lat="42.80037" lon="0.83682">
        <ele>2149.9</ele>
        <time>2018-11-24T08:40:54Z</time>
      </trkpt>
      <trkpt lat="42.80041" lon="0.83681">
        <ele>2149</ele>
        <time>2018-11-24T08:40:55Z</time>
      </trkpt>
      <trkpt lat="42.80044" lon="0.8368">
        <ele>2148</ele>
        <time>2018-11-24T08:40:57Z</time>
      </trkpt>
      <trkpt lat="42.80048" lon="0.83678">
        <ele>2147</ele>
        <time>2018-11-24T08:40:58Z</time>
      </trkpt>
      <trkpt lat="42.80051" lon="0.83677">
        <ele>2145.7</ele>
        <time>2018-11-24T08:41:00Z</time>
      </trkpt>
      <trkpt lat="42.80055" lon="0.83674">
        <ele>2143.7</ele>
        <time>2018-11-24T08:41:01Z</time>
      </trkpt>
      <trkpt lat="42.80058" lon="0.83672">
        <ele>2142.2</ele>
        <time>2018-11-24T08:41:03Z</time>
      </trkpt>
      <trkpt lat="42.80062" lon="0.83669">
        <ele>2140.8</ele>
        <time>2018-11-24T08:41:05Z</time>
      </trkpt>
      <trkpt lat="42.80065" lon="0.83666">
        <ele>2139.3</ele>
        <time>2018-11-24T08:41:06Z</time>
      </trkpt>
      <trkpt lat="42.80069" lon="0.83664">
        <ele>2138</ele>
        <time>2018-11-24T08:41:08Z</time>
      </trkpt>
      <trkpt lat="42.80072" lon="0.83661">
        <ele>2136.7</ele>
        <time>2018-11-24T08:41:09Z</time>
      </trkpt>
      <trkpt lat="42.80076" lon="0.83659">
        <ele>2135.7</ele>
        <time>2018-11-24T08:41:11Z</time>
      </trkpt>
      <trkpt lat="42.80079" lon="0.83657">
        <ele>2134.7</ele>
        <time>2018-11-24T08:41:12Z</time>
      </trkpt>
      <trkpt lat="42.80083" lon="0.83655">
        <ele>2133.7</ele>
        <time>2018-11-24T08:41:14Z</time>
      </trkpt>
      <trkpt lat="42.80087" lon="0.83653">
        <ele>2135</ele>
        <time>2018-11-24T08:41:16Z</time>
      </trkpt>
      <trkpt lat="42.80091" lon="0.8365">
        <ele>2135</ele>
        <time>2018-11-24T08:41:17Z</time>
      </trkpt>
      <trkpt lat="42.80094" lon="0.83647">
        <ele>2134.4</ele>
        <time>2018-11-24T08:41:19Z</time>
      </trkpt>
      <trkpt lat="42.80096" lon="0.83644">
        <ele>2132.4</ele>
        <time>2018-11-24T08:41:20Z</time>
      </trkpt>
      <trkpt lat="42.80098" lon="0.8364">
        <ele>2130.1</ele>
        <time>2018-11-24T08:41:21Z</time>
      </trkpt>
      <trkpt lat="42.801" lon="0.83637">
        <ele>2128.3</ele>
        <time>2018-11-24T08:41:23Z</time>
      </trkpt>
      <trkpt lat="42.80103" lon="0.83635">
        <ele>2128.1</ele>
        <time>2018-11-24T08:41:24Z</time>
      </trkpt>
      <trkpt lat="42.80106" lon="0.83633">
        <ele>2128</ele>
        <time>2018-11-24T08:41:25Z</time>
      </trkpt>
      <trkpt lat="42.80109" lon="0.83631">
        <ele>2127.9</ele>
        <time>2018-11-24T08:41:27Z</time>
      </trkpt>
      <trkpt lat="42.80112" lon="0.83628">
        <ele>2127.4</ele>
        <time>2018-11-24T08:41:28Z</time>
      </trkpt>
      <trkpt lat="42.80115" lon="0.83625">
        <ele>2127.2</ele>
        <time>2018-11-24T08:41:30Z</time>
      </trkpt>
      <trkpt lat="42.80118" lon="0.83622">
        <ele>2127.1</ele>
        <time>2018-11-24T08:41:31Z</time>
      </trkpt>
      <trkpt lat="42.8012" lon="0.83619">
        <ele>2126.4</ele>
        <time>2018-11-24T08:41:32Z</time>
      </trkpt>
      <trkpt lat="42.80122" lon="0.83615">
        <ele>2125.5</ele>
        <time>2018-11-24T08:41:34Z</time>
      </trkpt>
      <trkpt lat="42.80124" lon="0.83612">
        <ele>2124.6</ele>
        <time>2018-11-24T08:41:35Z</time>
      </trkpt>
      <trkpt lat="42.80127" lon="0.83608">
        <ele>2124</ele>
        <time>2018-11-24T08:41:37Z</time>
      </trkpt>
      <trkpt lat="42.8013" lon="0.83605">
        <ele>2123.7</ele>
        <time>2018-11-24T08:41:38Z</time>
      </trkpt>
      <trkpt lat="42.80133" lon="0.83601">
        <ele>2123.4</ele>
        <time>2018-11-24T08:41:40Z</time>
      </trkpt>
      <trkpt lat="42.80135" lon="0.83597">
        <ele>2122.5</ele>
        <time>2018-11-24T08:41:41Z</time>
      </trkpt>
      <trkpt lat="42.80137" lon="0.83593">
        <ele>2121.4</ele>
        <time>2018-11-24T08:41:43Z</time>
      </trkpt>
      <trkpt lat="42.80139" lon="0.83589">
        <ele>2120.4</ele>
        <time>2018-11-24T08:41:44Z</time>
      </trkpt>
      <trkpt lat="42.8014" lon="0.83585">
        <ele>2119.5</ele>
        <time>2018-11-24T08:41:45Z</time>
      </trkpt>
      <trkpt lat="42.80142" lon="0.83581">
        <ele>2119.1</ele>
        <time>2018-11-24T08:41:47Z</time>
      </trkpt>
      <trkpt lat="42.80143" lon="0.83576">
        <ele>2118</ele>
        <time>2018-11-24T08:41:48Z</time>
      </trkpt>
      <trkpt lat="42.80143" lon="0.83571">
        <ele>2117</ele>
        <time>2018-11-24T08:41:50Z</time>
      </trkpt>
      <trkpt lat="42.80146" lon="0.83568">
        <ele>2117.5</ele>
        <time>2018-11-24T08:41:51Z</time>
      </trkpt>
      <trkpt lat="42.80148" lon="0.83564">
        <ele>2118</ele>
        <time>2018-11-24T08:41:53Z</time>
      </trkpt>
      <trkpt lat="42.8015" lon="0.83559">
        <ele>2117.6</ele>
        <time>2018-11-24T08:41:54Z</time>
      </trkpt>
      <trkpt lat="42.80151" lon="0.83554">
        <ele>2117.2</ele>
        <time>2018-11-24T08:41:56Z</time>
      </trkpt>
      <trkpt lat="42.80153" lon="0.83549">
        <ele>2116.4</ele>
        <time>2018-11-24T08:41:57Z</time>
      </trkpt>
      <trkpt lat="42.80153" lon="0.83543">
        <ele>2114.4</ele>
        <time>2018-11-24T08:41:59Z</time>
      </trkpt>
      <trkpt lat="42.8015" lon="0.83539">
        <ele>2111.3</ele>
        <time>2018-11-24T08:42:01Z</time>
      </trkpt>
      <trkpt lat="42.80147" lon="0.83534">
        <ele>2108.2</ele>
        <time>2018-11-24T08:42:03Z</time>
      </trkpt>
      <trkpt lat="42.80144" lon="0.83537">
        <ele>2107.6</ele>
        <time>2018-11-24T08:42:04Z</time>
      </trkpt>
      <trkpt lat="42.80142" lon="0.8354">
        <ele>2106.8</ele>
        <time>2018-11-24T08:42:05Z</time>
      </trkpt>
      <trkpt lat="42.80139" lon="0.83542">
        <ele>2106.1</ele>
        <time>2018-11-24T08:42:07Z</time>
      </trkpt>
      <trkpt lat="42.80136" lon="0.83545">
        <ele>2105.6</ele>
        <time>2018-11-24T08:42:08Z</time>
      </trkpt>
      <trkpt lat="42.80133" lon="0.83549">
        <ele>2105.3</ele>
        <time>2018-11-24T08:42:10Z</time>
      </trkpt>
      <trkpt lat="42.8013" lon="0.83553">
        <ele>2105.1</ele>
        <time>2018-11-24T08:42:12Z</time>
      </trkpt>
      <trkpt lat="42.80126" lon="0.83554">
        <ele>2103.8</ele>
        <time>2018-11-24T08:42:13Z</time>
      </trkpt>
      <trkpt lat="42.80123" lon="0.83556">
        <ele>2102.5</ele>
        <time>2018-11-24T08:42:15Z</time>
      </trkpt>
      <trkpt lat="42.80119" lon="0.83557">
        <ele>2101.3</ele>
        <time>2018-11-24T08:42:16Z</time>
      </trkpt>
      <trkpt lat="42.80116" lon="0.83559">
        <ele>2100.3</ele>
        <time>2018-11-24T08:42:18Z</time>
      </trkpt>
      <trkpt lat="42.80112" lon="0.83561">
        <ele>2099.4</ele>
        <time>2018-11-24T08:42:19Z</time>
      </trkpt>
      <trkpt lat="42.80109" lon="0.83563">
        <ele>2098.8</ele>
        <time>2018-11-24T08:42:21Z</time>
      </trkpt>
      <trkpt lat="42.80105" lon="0.83565">
        <ele>2098.1</ele>
        <time>2018-11-24T08:42:22Z</time>
      </trkpt>
      <trkpt lat="42.80102" lon="0.83567">
        <ele>2097.7</ele>
        <time>2018-11-24T08:42:23Z</time>
      </trkpt>
      <trkpt lat="42.80099" lon="0.83568">
        <ele>2097.2</ele>
        <time>2018-11-24T08:42:25Z</time>
      </trkpt>
      <trkpt lat="42.80096" lon="0.8357">
        <ele>2096.9</ele>
        <time>2018-11-24T08:42:26Z</time>
      </trkpt>
      <trkpt lat="42.80092" lon="0.83571">
        <ele>2095.5</ele>
        <time>2018-11-24T08:42:28Z</time>
      </trkpt>
      <trkpt lat="42.80087" lon="0.83571">
        <ele>2094.2</ele>
        <time>2018-11-24T08:42:30Z</time>
      </trkpt>
      <trkpt lat="42.80083" lon="0.83572">
        <ele>2093</ele>
        <time>2018-11-24T08:42:31Z</time>
      </trkpt>
      <trkpt lat="42.80079" lon="0.83572">
        <ele>2092.3</ele>
        <time>2018-11-24T08:42:33Z</time>
      </trkpt>
      <trkpt lat="42.80076" lon="0.83573">
        <ele>2091.6</ele>
        <time>2018-11-24T08:42:34Z</time>
      </trkpt>
      <trkpt lat="42.80072" lon="0.83573">
        <ele>2090.8</ele>
        <time>2018-11-24T08:42:36Z</time>
      </trkpt>
      <trkpt lat="42.80068" lon="0.83573">
        <ele>2089.8</ele>
        <time>2018-11-24T08:42:37Z</time>
      </trkpt>
      <trkpt lat="42.80065" lon="0.83573">
        <ele>2088.9</ele>
        <time>2018-11-24T08:42:39Z</time>
      </trkpt>
      <trkpt lat="42.80061" lon="0.83573">
        <ele>2088</ele>
        <time>2018-11-24T08:42:40Z</time>
      </trkpt>
      <trkpt lat="42.80057" lon="0.83573">
        <ele>2086.9</ele>
        <time>2018-11-24T08:42:42Z</time>
      </trkpt>
      <trkpt lat="42.80053" lon="0.83573">
        <ele>2086.4</ele>
        <time>2018-11-24T08:42:43Z</time>
      </trkpt>
      <trkpt lat="42.80049" lon="0.83573">
        <ele>2086.5</ele>
        <time>2018-11-24T08:42:45Z</time>
      </trkpt>
      <trkpt lat="42.80046" lon="0.83574">
        <ele>2086.4</ele>
        <time>2018-11-24T08:42:46Z</time>
      </trkpt>
      <trkpt lat="42.80042" lon="0.83574">
        <ele>2086.3</ele>
        <time>2018-11-24T08:42:48Z</time>
      </trkpt>
      <trkpt lat="42.80039" lon="0.8357">
        <ele>2084.3</ele>
        <time>2018-11-24T08:42:49Z</time>
      </trkpt>
      <trkpt lat="42.80036" lon="0.83566">
        <ele>2082.3</ele>
        <time>2018-11-24T08:42:51Z</time>
      </trkpt>
      <trkpt lat="42.80032" lon="0.83562">
        <ele>2080.4</ele>
        <time>2018-11-24T08:42:53Z</time>
      </trkpt>
      <trkpt lat="42.80029" lon="0.83558">
        <ele>2078.2</ele>
        <time>2018-11-24T08:42:55Z</time>
      </trkpt>
      <trkpt lat="42.80026" lon="0.83555">
        <ele>2077.4</ele>
        <time>2018-11-24T08:42:56Z</time>
      </trkpt>
      <trkpt lat="42.80024" lon="0.83552">
        <ele>2077</ele>
        <time>2018-11-24T08:42:58Z</time>
      </trkpt>
      <trkpt lat="42.80021" lon="0.83549">
        <ele>2076.7</ele>
        <time>2018-11-24T08:42:59Z</time>
      </trkpt>
      <trkpt lat="42.80019" lon="0.83546">
        <ele>2076.1</ele>
        <time>2018-11-24T08:43:00Z</time>
      </trkpt>
      <trkpt lat="42.80016" lon="0.83543">
        <ele>2075.5</ele>
        <time>2018-11-24T08:43:02Z</time>
      </trkpt>
      <trkpt lat="42.80013" lon="0.8354">
        <ele>2075.2</ele>
        <time>2018-11-24T08:43:03Z</time>
      </trkpt>
      <trkpt lat="42.8001" lon="0.83538">
        <ele>2074.8</ele>
        <time>2018-11-24T08:43:04Z</time>
      </trkpt>
      <trkpt lat="42.80007" lon="0.83535">
        <ele>2074.1</ele>
        <time>2018-11-24T08:43:06Z</time>
      </trkpt>
      <trkpt lat="42.80008" lon="0.83532">
        <ele>2072.1</ele>
        <time>2018-11-24T08:43:07Z</time>
      </trkpt>
      <trkpt lat="42.80008" lon="0.83528">
        <ele>2070.2</ele>
        <time>2018-11-24T08:43:08Z</time>
      </trkpt>
      <trkpt lat="42.80012" lon="0.83527">
        <ele>2068.6</ele>
        <time>2018-11-24T08:43:10Z</time>
      </trkpt>
      <trkpt lat="42.80016" lon="0.83526">
        <ele>2067.3</ele>
        <time>2018-11-24T08:43:11Z</time>
      </trkpt>
      <trkpt lat="42.80019" lon="0.83525">
        <ele>2065.7</ele>
        <time>2018-11-24T08:43:12Z</time>
      </trkpt>
      <trkpt lat="42.80023" lon="0.83523">
        <ele>2064.3</ele>
        <time>2018-11-24T08:43:14Z</time>
      </trkpt>
      <trkpt lat="42.80026" lon="0.83522">
        <ele>2062.8</ele>
        <time>2018-11-24T08:43:15Z</time>
      </trkpt>
      <trkpt lat="42.8003" lon="0.83523">
        <ele>2063</ele>
        <time>2018-11-24T08:43:17Z</time>
      </trkpt>
      <trkpt lat="42.80034" lon="0.83524">
        <ele>2063.7</ele>
        <time>2018-11-24T08:43:19Z</time>
      </trkpt>
      <trkpt lat="42.80037" lon="0.83524">
        <ele>2063.9</ele>
        <time>2018-11-24T08:43:20Z</time>
      </trkpt>
      <trkpt lat="42.8004" lon="0.83523">
        <ele>2063.8</ele>
        <time>2018-11-24T08:43:21Z</time>
      </trkpt>
      <trkpt lat="42.80042" lon="0.8352">
        <ele>2062.6</ele>
        <time>2018-11-24T08:43:22Z</time>
      </trkpt>
      <trkpt lat="42.80044" lon="0.83516">
        <ele>2061.4</ele>
        <time>2018-11-24T08:43:24Z</time>
      </trkpt>
      <trkpt lat="42.80046" lon="0.83513">
        <ele>2060.1</ele>
        <time>2018-11-24T08:43:25Z</time>
      </trkpt>
      <trkpt lat="42.80049" lon="0.83509">
        <ele>2058.6</ele>
        <time>2018-11-24T08:43:27Z</time>
      </trkpt>
      <trkpt lat="42.80052" lon="0.83504">
        <ele>2057.2</ele>
        <time>2018-11-24T08:43:28Z</time>
      </trkpt>
      <trkpt lat="42.80056" lon="0.83502">
        <ele>2056.7</ele>
        <time>2018-11-24T08:43:30Z</time>
      </trkpt>
      <trkpt lat="42.80059" lon="0.83499">
        <ele>2057.2</ele>
        <time>2018-11-24T08:43:32Z</time>
      </trkpt>
      <trkpt lat="42.80061" lon="0.83494">
        <ele>2056.6</ele>
        <time>2018-11-24T08:43:33Z</time>
      </trkpt>
      <trkpt lat="42.80063" lon="0.83489">
        <ele>2056</ele>
        <time>2018-11-24T08:43:35Z</time>
      </trkpt>
      <trkpt lat="42.80064" lon="0.83485">
        <ele>2055.4</ele>
        <time>2018-11-24T08:43:36Z</time>
      </trkpt>
      <trkpt lat="42.80066" lon="0.83482">
        <ele>2054.9</ele>
        <time>2018-11-24T08:43:37Z</time>
      </trkpt>
      <trkpt lat="42.80067" lon="0.83478">
        <ele>2054.4</ele>
        <time>2018-11-24T08:43:39Z</time>
      </trkpt>
      <trkpt lat="42.80069" lon="0.83473">
        <ele>2053.6</ele>
        <time>2018-11-24T08:43:40Z</time>
      </trkpt>
      <trkpt lat="42.80071" lon="0.83468">
        <ele>2053.1</ele>
        <time>2018-11-24T08:43:42Z</time>
      </trkpt>
      <trkpt lat="42.80073" lon="0.83463">
        <ele>2052.5</ele>
        <time>2018-11-24T08:43:44Z</time>
      </trkpt>
      <trkpt lat="42.80075" lon="0.83458">
        <ele>2052</ele>
        <time>2018-11-24T08:43:45Z</time>
      </trkpt>
      <trkpt lat="42.80077" lon="0.83453">
        <ele>2051.3</ele>
        <time>2018-11-24T08:43:47Z</time>
      </trkpt>
      <trkpt lat="42.80078" lon="0.83449">
        <ele>2050.6</ele>
        <time>2018-11-24T08:43:48Z</time>
      </trkpt>
      <trkpt lat="42.8008" lon="0.83444">
        <ele>2049.9</ele>
        <time>2018-11-24T08:43:50Z</time>
      </trkpt>
      <trkpt lat="42.80081" lon="0.8344">
        <ele>2048.8</ele>
        <time>2018-11-24T08:43:51Z</time>
      </trkpt>
      <trkpt lat="42.80082" lon="0.83435">
        <ele>2047.7</ele>
        <time>2018-11-24T08:43:53Z</time>
      </trkpt>
      <trkpt lat="42.80083" lon="0.83429">
        <ele>2046.1</ele>
        <time>2018-11-24T08:43:54Z</time>
      </trkpt>
      <trkpt lat="42.80085" lon="0.83424">
        <ele>2044.9</ele>
        <time>2018-11-24T08:43:56Z</time>
      </trkpt>
      <trkpt lat="42.80086" lon="0.83418">
        <ele>2043.4</ele>
        <time>2018-11-24T08:43:58Z</time>
      </trkpt>
      <trkpt lat="42.80089" lon="0.83414">
        <ele>2043.8</ele>
        <time>2018-11-24T08:43:59Z</time>
      </trkpt>
      <trkpt lat="42.80092" lon="0.8341">
        <ele>2044.2</ele>
        <time>2018-11-24T08:44:01Z</time>
      </trkpt>
      <trkpt lat="42.80095" lon="0.83406">
        <ele>2044</ele>
        <time>2018-11-24T08:44:03Z</time>
      </trkpt>
      <trkpt lat="42.80097" lon="0.83403">
        <ele>2043.5</ele>
        <time>2018-11-24T08:44:04Z</time>
      </trkpt>
      <trkpt lat="42.801" lon="0.83399">
        <ele>2042.8</ele>
        <time>2018-11-24T08:44:06Z</time>
      </trkpt>
      <trkpt lat="42.80102" lon="0.83396">
        <ele>2041.7</ele>
        <time>2018-11-24T08:44:07Z</time>
      </trkpt>
      <trkpt lat="42.80106" lon="0.83394">
        <ele>2040.7</ele>
        <time>2018-11-24T08:44:08Z</time>
      </trkpt>
      <trkpt lat="42.80109" lon="0.83391">
        <ele>2039.4</ele>
        <time>2018-11-24T08:44:10Z</time>
      </trkpt>
      <trkpt lat="42.8011" lon="0.83387">
        <ele>2037.7</ele>
        <time>2018-11-24T08:44:11Z</time>
      </trkpt>
      <trkpt lat="42.8011" lon="0.83383">
        <ele>2036.3</ele>
        <time>2018-11-24T08:44:12Z</time>
      </trkpt>
      <trkpt lat="42.80111" lon="0.83379">
        <ele>2034.8</ele>
        <time>2018-11-24T08:44:14Z</time>
      </trkpt>
      <trkpt lat="42.80114" lon="0.83375">
        <ele>2034.2</ele>
        <time>2018-11-24T08:44:15Z</time>
      </trkpt>
      <trkpt lat="42.80116" lon="0.8337">
        <ele>2033.2</ele>
        <time>2018-11-24T08:44:17Z</time>
      </trkpt>
      <trkpt lat="42.80119" lon="0.83366">
        <ele>2032.3</ele>
        <time>2018-11-24T08:44:19Z</time>
      </trkpt>
      <trkpt lat="42.80122" lon="0.83362">
        <ele>2031.4</ele>
        <time>2018-11-24T08:44:20Z</time>
      </trkpt>
      <trkpt lat="42.80125" lon="0.83359">
        <ele>2030.7</ele>
        <time>2018-11-24T08:44:22Z</time>
      </trkpt>
      <trkpt lat="42.80128" lon="0.83355">
        <ele>2029.9</ele>
        <time>2018-11-24T08:44:24Z</time>
      </trkpt>
      <trkpt lat="42.80131" lon="0.83351">
        <ele>2028.7</ele>
        <time>2018-11-24T08:44:25Z</time>
      </trkpt>
      <trkpt lat="42.80133" lon="0.83347">
        <ele>2027.3</ele>
        <time>2018-11-24T08:44:27Z</time>
      </trkpt>
      <trkpt lat="42.80132" lon="0.83343">
        <ele>2025.6</ele>
        <time>2018-11-24T08:44:28Z</time>
      </trkpt>
      <trkpt lat="42.80131" lon="0.83339">
        <ele>2024</ele>
        <time>2018-11-24T08:44:29Z</time>
      </trkpt>
      <trkpt lat="42.8013" lon="0.83335">
        <ele>2022.6</ele>
        <time>2018-11-24T08:44:30Z</time>
      </trkpt>
      <trkpt lat="42.80131" lon="0.8333">
        <ele>2020.9</ele>
        <time>2018-11-24T08:44:32Z</time>
      </trkpt>
      <trkpt lat="42.80132" lon="0.83326">
        <ele>2019.3</ele>
        <time>2018-11-24T08:44:33Z</time>
      </trkpt>
      <trkpt lat="42.80133" lon="0.83321">
        <ele>2017.5</ele>
        <time>2018-11-24T08:44:35Z</time>
      </trkpt>
      <trkpt lat="42.80134" lon="0.83316">
        <ele>2015.7</ele>
        <time>2018-11-24T08:44:36Z</time>
      </trkpt>
      <trkpt lat="42.80134" lon="0.83311">
        <ele>2014.2</ele>
        <time>2018-11-24T08:44:38Z</time>
      </trkpt>
      <trkpt lat="42.80135" lon="0.83307">
        <ele>2012.5</ele>
        <time>2018-11-24T08:44:39Z</time>
      </trkpt>
      <trkpt lat="42.80135" lon="0.83302">
        <ele>2011.1</ele>
        <time>2018-11-24T08:44:40Z</time>
      </trkpt>
      <trkpt lat="42.80136" lon="0.83298">
        <ele>2009.5</ele>
        <time>2018-11-24T08:44:42Z</time>
      </trkpt>
      <trkpt lat="42.80137" lon="0.83294">
        <ele>2008.1</ele>
        <time>2018-11-24T08:44:43Z</time>
      </trkpt>
      <trkpt lat="42.80138" lon="0.8329">
        <ele>2006.4</ele>
        <time>2018-11-24T08:44:44Z</time>
      </trkpt>
      <trkpt lat="42.80139" lon="0.83285">
        <ele>2004.5</ele>
        <time>2018-11-24T08:44:45Z</time>
      </trkpt>
      <trkpt lat="42.80139" lon="0.8328">
        <ele>2002.7</ele>
        <time>2018-11-24T08:44:47Z</time>
      </trkpt>
      <trkpt lat="42.80141" lon="0.83277">
        <ele>2002.4</ele>
        <time>2018-11-24T08:44:48Z</time>
      </trkpt>
      <trkpt lat="42.80144" lon="0.83275">
        <ele>2002.2</ele>
        <time>2018-11-24T08:44:49Z</time>
      </trkpt>
      <trkpt lat="42.80146" lon="0.83272">
        <ele>2001.9</ele>
        <time>2018-11-24T08:44:51Z</time>
      </trkpt>
      <trkpt lat="42.80149" lon="0.83271">
        <ele>2002</ele>
        <time>2018-11-24T08:44:52Z</time>
      </trkpt>
      <trkpt lat="42.80152" lon="0.83269">
        <ele>2002.1</ele>
        <time>2018-11-24T08:44:53Z</time>
      </trkpt>
      <trkpt lat="42.80155" lon="0.83268">
        <ele>2002.2</ele>
        <time>2018-11-24T08:44:54Z</time>
      </trkpt>
      <trkpt lat="42.80156" lon="0.83265">
        <ele>2001.4</ele>
        <time>2018-11-24T08:44:56Z</time>
      </trkpt>
      <trkpt lat="42.80157" lon="0.83261">
        <ele>2000.5</ele>
        <time>2018-11-24T08:44:57Z</time>
      </trkpt>
      <trkpt lat="42.80159" lon="0.83256">
        <ele>1999.2</ele>
        <time>2018-11-24T08:44:58Z</time>
      </trkpt>
      <trkpt lat="42.80161" lon="0.83251">
        <ele>1998</ele>
        <time>2018-11-24T08:45:00Z</time>
      </trkpt>
      <trkpt lat="42.80163" lon="0.83246">
        <ele>1996.2</ele>
        <time>2018-11-24T08:45:02Z</time>
      </trkpt>
      <trkpt lat="42.80164" lon="0.83242">
        <ele>1994.7</ele>
        <time>2018-11-24T08:45:03Z</time>
      </trkpt>
      <trkpt lat="42.80165" lon="0.83238">
        <ele>1993</ele>
        <time>2018-11-24T08:45:04Z</time>
      </trkpt>
      <trkpt lat="42.80166" lon="0.83234">
        <ele>1991.2</ele>
        <time>2018-11-24T08:45:05Z</time>
      </trkpt>
      <trkpt lat="42.80166" lon="0.83228">
        <ele>1988.6</ele>
        <time>2018-11-24T08:45:07Z</time>
      </trkpt>
      <trkpt lat="42.80167" lon="0.83222">
        <ele>1986</ele>
        <time>2018-11-24T08:45:09Z</time>
      </trkpt>
      <trkpt lat="42.80167" lon="0.83216">
        <ele>1984.6</ele>
        <time>2018-11-24T08:45:11Z</time>
      </trkpt>
      <trkpt lat="42.80169" lon="0.83214">
        <ele>1984</ele>
        <time>2018-11-24T08:45:12Z</time>
      </trkpt>
      <trkpt lat="42.8017" lon="0.83211">
        <ele>1983.3</ele>
        <time>2018-11-24T08:45:13Z</time>
      </trkpt>
      <trkpt lat="42.80174" lon="0.83211">
        <ele>1983.4</ele>
        <time>2018-11-24T08:45:14Z</time>
      </trkpt>
      <trkpt lat="42.80178" lon="0.83211">
        <ele>1983.6</ele>
        <time>2018-11-24T08:45:16Z</time>
      </trkpt>
      <trkpt lat="42.80181" lon="0.8321">
        <ele>1983.4</ele>
        <time>2018-11-24T08:45:17Z</time>
      </trkpt>
      <trkpt lat="42.80184" lon="0.83209">
        <ele>1983.1</ele>
        <time>2018-11-24T08:45:18Z</time>
      </trkpt>
      <trkpt lat="42.80187" lon="0.83208">
        <ele>1982.7</ele>
        <time>2018-11-24T08:45:19Z</time>
      </trkpt>
      <trkpt lat="42.80187" lon="0.83203">
        <ele>1980.8</ele>
        <time>2018-11-24T08:45:21Z</time>
      </trkpt>
      <trkpt lat="42.80188" lon="0.83197">
        <ele>1978.6</ele>
        <time>2018-11-24T08:45:23Z</time>
      </trkpt>
      <trkpt lat="42.80188" lon="0.83191">
        <ele>1977.1</ele>
        <time>2018-11-24T08:45:24Z</time>
      </trkpt>
      <trkpt lat="42.80191" lon="0.83189">
        <ele>1976.8</ele>
        <time>2018-11-24T08:45:26Z</time>
      </trkpt>
      <trkpt lat="42.80193" lon="0.83186">
        <ele>1976.5</ele>
        <time>2018-11-24T08:45:27Z</time>
      </trkpt>
      <trkpt lat="42.80197" lon="0.83186">
        <ele>1975.6</ele>
        <time>2018-11-24T08:45:29Z</time>
      </trkpt>
      <trkpt lat="42.80201" lon="0.83186">
        <ele>1974.4</ele>
        <time>2018-11-24T08:45:30Z</time>
      </trkpt>
      <trkpt lat="42.80204" lon="0.83186">
        <ele>1973.4</ele>
        <time>2018-11-24T08:45:31Z</time>
      </trkpt>
      <trkpt lat="42.80208" lon="0.83186">
        <ele>1972.4</ele>
        <time>2018-11-24T08:45:33Z</time>
      </trkpt>
      <trkpt lat="42.80211" lon="0.83186">
        <ele>1971.3</ele>
        <time>2018-11-24T08:45:34Z</time>
      </trkpt>
      <trkpt lat="42.80215" lon="0.83186">
        <ele>1970.1</ele>
        <time>2018-11-24T08:45:36Z</time>
      </trkpt>
      <trkpt lat="42.80218" lon="0.83186">
        <ele>1969.1</ele>
        <time>2018-11-24T08:45:37Z</time>
      </trkpt>
      <trkpt lat="42.80221" lon="0.83185">
        <ele>1967.7</ele>
        <time>2018-11-24T08:45:38Z</time>
      </trkpt>
      <trkpt lat="42.80224" lon="0.83184">
        <ele>1967.8</ele>
        <time>2018-11-24T08:45:39Z</time>
      </trkpt>
      <trkpt lat="42.80228" lon="0.83183">
        <ele>1969</ele>
        <time>2018-11-24T08:45:41Z</time>
      </trkpt>
      <trkpt lat="42.80231" lon="0.83182">
        <ele>1970.1</ele>
        <time>2018-11-24T08:45:42Z</time>
      </trkpt>
      <trkpt lat="42.80234" lon="0.83182">
        <ele>1971.8</ele>
        <time>2018-11-24T08:45:44Z</time>
      </trkpt>
      <trkpt lat="42.80237" lon="0.83182">
        <ele>1973.3</ele>
        <time>2018-11-24T08:45:45Z</time>
      </trkpt>
      <trkpt lat="42.80237" lon="0.83176">
        <ele>1969.2</ele>
        <time>2018-11-24T08:45:46Z</time>
      </trkpt>
      <trkpt lat="42.80234" lon="0.83174">
        <ele>1966.3</ele>
        <time>2018-11-24T08:45:48Z</time>
      </trkpt>
      <trkpt lat="42.80231" lon="0.83171">
        <ele>1963.6</ele>
        <time>2018-11-24T08:45:49Z</time>
      </trkpt>
      <trkpt lat="42.80228" lon="0.83169">
        <ele>1960.9</ele>
        <time>2018-11-24T08:45:51Z</time>
      </trkpt>
      <trkpt lat="42.80225" lon="0.83166">
        <ele>1958.7</ele>
        <time>2018-11-24T08:45:52Z</time>
      </trkpt>
      <trkpt lat="42.80223" lon="0.83163">
        <ele>1957.3</ele>
        <time>2018-11-24T08:45:53Z</time>
      </trkpt>
      <trkpt lat="42.80221" lon="0.8316">
        <ele>1957.1</ele>
        <time>2018-11-24T08:45:54Z</time>
      </trkpt>
      <trkpt lat="42.80224" lon="0.83159">
        <ele>1956.3</ele>
        <time>2018-11-24T08:45:56Z</time>
      </trkpt>
      <trkpt lat="42.80227" lon="0.83157">
        <ele>1956.4</ele>
        <time>2018-11-24T08:45:57Z</time>
      </trkpt>
      <trkpt lat="42.8023" lon="0.83156">
        <ele>1956.5</ele>
        <time>2018-11-24T08:45:58Z</time>
      </trkpt>
      <trkpt lat="42.80233" lon="0.83155">
        <ele>1956.7</ele>
        <time>2018-11-24T08:46:00Z</time>
      </trkpt>
      <trkpt lat="42.80236" lon="0.83154">
        <ele>1956.7</ele>
        <time>2018-11-24T08:46:01Z</time>
      </trkpt>
      <trkpt lat="42.80236" lon="0.83149">
        <ele>1954.2</ele>
        <time>2018-11-24T08:46:02Z</time>
      </trkpt>
      <trkpt lat="42.80235" lon="0.83144">
        <ele>1952</ele>
        <time>2018-11-24T08:46:04Z</time>
      </trkpt>
      <trkpt lat="42.80231" lon="0.83143">
        <ele>1951.6</ele>
        <time>2018-11-24T08:46:05Z</time>
      </trkpt>
      <trkpt lat="42.80227" lon="0.83141">
        <ele>1951.3</ele>
        <time>2018-11-24T08:46:07Z</time>
      </trkpt>
      <trkpt lat="42.80229" lon="0.8314">
        <ele>1950.5</ele>
        <time>2018-11-24T08:46:08Z</time>
      </trkpt>
      <trkpt lat="42.80231" lon="0.83138">
        <ele>1949.7</ele>
        <time>2018-11-24T08:46:09Z</time>
      </trkpt>
      <trkpt lat="42.80235" lon="0.83135">
        <ele>1947.9</ele>
        <time>2018-11-24T08:46:11Z</time>
      </trkpt>
      <trkpt lat="42.80238" lon="0.83131">
        <ele>1945.5</ele>
        <time>2018-11-24T08:46:12Z</time>
      </trkpt>
      <trkpt lat="42.80242" lon="0.83129">
        <ele>1943.4</ele>
        <time>2018-11-24T08:46:14Z</time>
      </trkpt>
      <trkpt lat="42.80246" lon="0.83127">
        <ele>1941.1</ele>
        <time>2018-11-24T08:46:16Z</time>
      </trkpt>
      <trkpt lat="42.80248" lon="0.83125">
        <ele>1939</ele>
        <time>2018-11-24T08:46:17Z</time>
      </trkpt>
      <trkpt lat="42.8025" lon="0.83122">
        <ele>1936.5</ele>
        <time>2018-11-24T08:46:18Z</time>
      </trkpt>
      <trkpt lat="42.80247" lon="0.83119">
        <ele>1935.4</ele>
        <time>2018-11-24T08:46:19Z</time>
      </trkpt>
      <trkpt lat="42.80244" lon="0.83115">
        <ele>1934.8</ele>
        <time>2018-11-24T08:46:21Z</time>
      </trkpt>
      <trkpt lat="42.80241" lon="0.83112">
        <ele>1934.4</ele>
        <time>2018-11-24T08:46:23Z</time>
      </trkpt>
      <trkpt lat="42.80238" lon="0.83108">
        <ele>1935</ele>
        <time>2018-11-24T08:46:24Z</time>
      </trkpt>
      <trkpt lat="42.80239" lon="0.83105">
        <ele>1933.4</ele>
        <time>2018-11-24T08:46:25Z</time>
      </trkpt>
      <trkpt lat="42.8024" lon="0.83102">
        <ele>1931.9</ele>
        <time>2018-11-24T08:46:26Z</time>
      </trkpt>
      <trkpt lat="42.80243" lon="0.83102">
        <ele>1930.2</ele>
        <time>2018-11-24T08:46:27Z</time>
      </trkpt>
      <trkpt lat="42.80245" lon="0.83102">
        <ele>1928.6</ele>
        <time>2018-11-24T08:46:28Z</time>
      </trkpt>
      <trkpt lat="42.80249" lon="0.83103">
        <ele>1926.7</ele>
        <time>2018-11-24T08:46:30Z</time>
      </trkpt>
      <trkpt lat="42.80252" lon="0.83103">
        <ele>1926.7</ele>
        <time>2018-11-24T08:46:31Z</time>
      </trkpt>
      <trkpt lat="42.80255" lon="0.831">
        <ele>1926.3</ele>
        <time>2018-11-24T08:46:32Z</time>
      </trkpt>
      <trkpt lat="42.80257" lon="0.83097">
        <ele>1925.4</ele>
        <time>2018-11-24T08:46:34Z</time>
      </trkpt>
      <trkpt lat="42.80254" lon="0.83093">
        <ele>1922.8</ele>
        <time>2018-11-24T08:46:35Z</time>
      </trkpt>
      <trkpt lat="42.80251" lon="0.8309">
        <ele>1920.7</ele>
        <time>2018-11-24T08:46:37Z</time>
      </trkpt>
      <trkpt lat="42.80248" lon="0.83086">
        <ele>1920.7</ele>
        <time>2018-11-24T08:46:38Z</time>
      </trkpt>
      <trkpt lat="42.80247" lon="0.83083">
        <ele>1920.6</ele>
        <time>2018-11-24T08:46:40Z</time>
      </trkpt>
      <trkpt lat="42.80245" lon="0.83079">
        <ele>1921.2</ele>
        <time>2018-11-24T08:46:41Z</time>
      </trkpt>
      <trkpt lat="42.80249" lon="0.83079">
        <ele>1917.9</ele>
        <time>2018-11-24T08:46:42Z</time>
      </trkpt>
      <trkpt lat="42.80252" lon="0.83078">
        <ele>1916.9</ele>
        <time>2018-11-24T08:46:44Z</time>
      </trkpt>
      <trkpt lat="42.80255" lon="0.83078">
        <ele>1916.5</ele>
        <time>2018-11-24T08:46:45Z</time>
      </trkpt>
      <trkpt lat="42.80258" lon="0.83077">
        <ele>1916</ele>
        <time>2018-11-24T08:46:46Z</time>
      </trkpt>
      <trkpt lat="42.80261" lon="0.83076">
        <ele>1915.5</ele>
        <time>2018-11-24T08:46:47Z</time>
      </trkpt>
      <trkpt lat="42.80265" lon="0.83076">
        <ele>1915</ele>
        <time>2018-11-24T08:46:49Z</time>
      </trkpt>
      <trkpt lat="42.80268" lon="0.83075">
        <ele>1914.5</ele>
        <time>2018-11-24T08:46:50Z</time>
      </trkpt>
      <trkpt lat="42.80271" lon="0.83071">
        <ele>1912.5</ele>
        <time>2018-11-24T08:46:52Z</time>
      </trkpt>
      <trkpt lat="42.80274" lon="0.83066">
        <ele>1910.4</ele>
        <time>2018-11-24T08:46:54Z</time>
      </trkpt>
      <trkpt lat="42.80277" lon="0.83062">
        <ele>1908</ele>
        <time>2018-11-24T08:46:55Z</time>
      </trkpt>
      <trkpt lat="42.8028" lon="0.83058">
        <ele>1906.3</ele>
        <time>2018-11-24T08:46:57Z</time>
      </trkpt>
      <trkpt lat="42.80283" lon="0.83054">
        <ele>1904.7</ele>
        <time>2018-11-24T08:46:59Z</time>
      </trkpt>
      <trkpt lat="42.80286" lon="0.83049">
        <ele>1902.9</ele>
        <time>2018-11-24T08:47:01Z</time>
      </trkpt>
      <trkpt lat="42.80289" lon="0.83045">
        <ele>1900.9</ele>
        <time>2018-11-24T08:47:02Z</time>
      </trkpt>
      <trkpt lat="42.80285" lon="0.83045">
        <ele>1901</ele>
        <time>2018-11-24T08:47:04Z</time>
      </trkpt>
      <trkpt lat="42.80281" lon="0.83046">
        <ele>1901</ele>
        <time>2018-11-24T08:47:06Z</time>
      </trkpt>
      <trkpt lat="42.80277" lon="0.83046">
        <ele>1901</ele>
        <time>2018-11-24T08:47:07Z</time>
      </trkpt>
      <trkpt lat="42.80273" lon="0.83047">
        <ele>1901.9</ele>
        <time>2018-11-24T08:47:09Z</time>
      </trkpt>
      <trkpt lat="42.80269" lon="0.83047">
        <ele>1902.8</ele>
        <time>2018-11-24T08:47:10Z</time>
      </trkpt>
      <trkpt lat="42.80265" lon="0.83047">
        <ele>1903.7</ele>
        <time>2018-11-24T08:47:12Z</time>
      </trkpt>
      <trkpt lat="42.80261" lon="0.83048">
        <ele>1904.7</ele>
        <time>2018-11-24T08:47:14Z</time>
      </trkpt>
      <trkpt lat="42.80257" lon="0.83048">
        <ele>1905.5</ele>
        <time>2018-11-24T08:47:15Z</time>
      </trkpt>
      <trkpt lat="42.80259" lon="0.83044">
        <ele>1902.5</ele>
        <time>2018-11-24T08:47:17Z</time>
      </trkpt>
      <trkpt lat="42.80262" lon="0.83039">
        <ele>1899.7</ele>
        <time>2018-11-24T08:47:18Z</time>
      </trkpt>
      <trkpt lat="42.80264" lon="0.83035">
        <ele>1897</ele>
        <time>2018-11-24T08:47:20Z</time>
      </trkpt>
      <trkpt lat="42.80266" lon="0.83031">
        <ele>1894.6</ele>
        <time>2018-11-24T08:47:21Z</time>
      </trkpt>
      <trkpt lat="42.80269" lon="0.83026">
        <ele>1892.4</ele>
        <time>2018-11-24T08:47:23Z</time>
      </trkpt>
      <trkpt lat="42.80271" lon="0.83022">
        <ele>1890.5</ele>
        <time>2018-11-24T08:47:25Z</time>
      </trkpt>
      <trkpt lat="42.80273" lon="0.83018">
        <ele>1888.6</ele>
        <time>2018-11-24T08:47:26Z</time>
      </trkpt>
      <trkpt lat="42.80275" lon="0.83013">
        <ele>1886.7</ele>
        <time>2018-11-24T08:47:28Z</time>
      </trkpt>
      <trkpt lat="42.80278" lon="0.83009">
        <ele>1885</ele>
        <time>2018-11-24T08:47:29Z</time>
      </trkpt>
      <trkpt lat="42.8028" lon="0.83005">
        <ele>1882.9</ele>
        <time>2018-11-24T08:47:31Z</time>
      </trkpt>
      <trkpt lat="42.80282" lon="0.83">
        <ele>1880.7</ele>
        <time>2018-11-24T08:47:32Z</time>
      </trkpt>
      <trkpt lat="42.80284" lon="0.82996">
        <ele>1879.1</ele>
        <time>2018-11-24T08:47:34Z</time>
      </trkpt>
      <trkpt lat="42.80288" lon="0.82995">
        <ele>1877.9</ele>
        <time>2018-11-24T08:47:36Z</time>
      </trkpt>
      <trkpt lat="42.80292" lon="0.82993">
        <ele>1876.9</ele>
        <time>2018-11-24T08:47:37Z</time>
      </trkpt>
      <trkpt lat="42.80296" lon="0.82992">
        <ele>1875.9</ele>
        <time>2018-11-24T08:47:39Z</time>
      </trkpt>
      <trkpt lat="42.803" lon="0.8299">
        <ele>1875</ele>
        <time>2018-11-24T08:47:41Z</time>
      </trkpt>
      <trkpt lat="42.80304" lon="0.8299">
        <ele>1874.3</ele>
        <time>2018-11-24T08:47:42Z</time>
      </trkpt>
      <trkpt lat="42.80308" lon="0.82989">
        <ele>1873.4</ele>
        <time>2018-11-24T08:47:44Z</time>
      </trkpt>
      <trkpt lat="42.80312" lon="0.82989">
        <ele>1872.2</ele>
        <time>2018-11-24T08:47:45Z</time>
      </trkpt>
      <trkpt lat="42.80316" lon="0.82989">
        <ele>1871</ele>
        <time>2018-11-24T08:47:47Z</time>
      </trkpt>
      <trkpt lat="42.8032" lon="0.82989">
        <ele>1869.8</ele>
        <time>2018-11-24T08:47:49Z</time>
      </trkpt>
      <trkpt lat="42.80324" lon="0.82988">
        <ele>1868.5</ele>
        <time>2018-11-24T08:47:50Z</time>
      </trkpt>
      <trkpt lat="42.80328" lon="0.82988">
        <ele>1867.3</ele>
        <time>2018-11-24T08:47:52Z</time>
      </trkpt>
      <trkpt lat="42.80332" lon="0.82987">
        <ele>1865.7</ele>
        <time>2018-11-24T08:47:54Z</time>
      </trkpt>
      <trkpt lat="42.80337" lon="0.82987">
        <ele>1864.5</ele>
        <time>2018-11-24T08:47:55Z</time>
      </trkpt>
      <trkpt lat="42.80341" lon="0.82986">
        <ele>1863.8</ele>
        <time>2018-11-24T08:47:57Z</time>
      </trkpt>
      <trkpt lat="42.80346" lon="0.82986">
        <ele>1863</ele>
        <time>2018-11-24T08:47:59Z</time>
      </trkpt>
      <trkpt lat="42.8035" lon="0.82985">
        <ele>1862.3</ele>
        <time>2018-11-24T08:48:01Z</time>
      </trkpt>
      <trkpt lat="42.80354" lon="0.82984">
        <ele>1861.5</ele>
        <time>2018-11-24T08:48:02Z</time>
      </trkpt>
      <trkpt lat="42.80359" lon="0.82984">
        <ele>1860.8</ele>
        <time>2018-11-24T08:48:04Z</time>
      </trkpt>
      <trkpt lat="42.80363" lon="0.82983">
        <ele>1860.3</ele>
        <time>2018-11-24T08:48:06Z</time>
      </trkpt>
      <trkpt lat="42.80367" lon="0.82983">
        <ele>1860</ele>
        <time>2018-11-24T08:48:07Z</time>
      </trkpt>
      <trkpt lat="42.80371" lon="0.82982">
        <ele>1859.7</ele>
        <time>2018-11-24T08:48:09Z</time>
      </trkpt>
      <trkpt lat="42.80374" lon="0.82982">
        <ele>1859.6</ele>
        <time>2018-11-24T08:48:10Z</time>
      </trkpt>
      <trkpt lat="42.80378" lon="0.82981">
        <ele>1859.4</ele>
        <time>2018-11-24T08:48:12Z</time>
      </trkpt>
      <trkpt lat="42.80382" lon="0.82981">
        <ele>1859.1</ele>
        <time>2018-11-24T08:48:13Z</time>
      </trkpt>
      <trkpt lat="42.80386" lon="0.82979">
        <ele>1858</ele>
        <time>2018-11-24T08:48:15Z</time>
      </trkpt>
      <trkpt lat="42.80391" lon="0.82977">
        <ele>1856.6</ele>
        <time>2018-11-24T08:48:17Z</time>
      </trkpt>
      <trkpt lat="42.80395" lon="0.82975">
        <ele>1854.5</ele>
        <time>2018-11-24T08:48:19Z</time>
      </trkpt>
      <trkpt lat="42.80399" lon="0.82974">
        <ele>1852.5</ele>
        <time>2018-11-24T08:48:21Z</time>
      </trkpt>
      <trkpt lat="42.80403" lon="0.82972">
        <ele>1850.7</ele>
        <time>2018-11-24T08:48:22Z</time>
      </trkpt>
      <trkpt lat="42.80408" lon="0.8297">
        <ele>1848.8</ele>
        <time>2018-11-24T08:48:24Z</time>
      </trkpt>
      <trkpt lat="42.80412" lon="0.82968">
        <ele>1846.9</ele>
        <time>2018-11-24T08:48:26Z</time>
      </trkpt>
      <trkpt lat="42.80416" lon="0.82966">
        <ele>1845.1</ele>
        <time>2018-11-24T08:48:28Z</time>
      </trkpt>
      <trkpt lat="42.80413" lon="0.82963">
        <ele>1844</ele>
        <time>2018-11-24T08:48:29Z</time>
      </trkpt>
      <trkpt lat="42.80409" lon="0.82959">
        <ele>1843</ele>
        <time>2018-11-24T08:48:31Z</time>
      </trkpt>
      <trkpt lat="42.80406" lon="0.82956">
        <ele>1841.9</ele>
        <time>2018-11-24T08:48:33Z</time>
      </trkpt>
      <trkpt lat="42.80403" lon="0.82952">
        <ele>1840.6</ele>
        <time>2018-11-24T08:48:34Z</time>
      </trkpt>
      <trkpt lat="42.804" lon="0.82949">
        <ele>1839.5</ele>
        <time>2018-11-24T08:48:36Z</time>
      </trkpt>
      <trkpt lat="42.80396" lon="0.82946">
        <ele>1838.3</ele>
        <time>2018-11-24T08:48:38Z</time>
      </trkpt>
      <trkpt lat="42.80393" lon="0.82942">
        <ele>1837.1</ele>
        <time>2018-11-24T08:48:39Z</time>
      </trkpt>
      <trkpt lat="42.8039" lon="0.82939">
        <ele>1835.8</ele>
        <time>2018-11-24T08:48:41Z</time>
      </trkpt>
      <trkpt lat="42.80386" lon="0.82935">
        <ele>1834.2</ele>
        <time>2018-11-24T08:48:43Z</time>
      </trkpt>
      <trkpt lat="42.80383" lon="0.82932">
        <ele>1832.5</ele>
        <time>2018-11-24T08:48:44Z</time>
      </trkpt>
      <trkpt lat="42.80379" lon="0.8293">
        <ele>1831.6</ele>
        <time>2018-11-24T08:48:46Z</time>
      </trkpt>
      <trkpt lat="42.80375" lon="0.82928">
        <ele>1830.7</ele>
        <time>2018-11-24T08:48:48Z</time>
      </trkpt>
      <trkpt lat="42.80371" lon="0.82926">
        <ele>1829.8</ele>
        <time>2018-11-24T08:48:49Z</time>
      </trkpt>
      <trkpt lat="42.80367" lon="0.82924">
        <ele>1829</ele>
        <time>2018-11-24T08:48:51Z</time>
      </trkpt>
      <trkpt lat="42.80364" lon="0.82923">
        <ele>1828.2</ele>
        <time>2018-11-24T08:48:53Z</time>
      </trkpt>
      <trkpt lat="42.8036" lon="0.82921">
        <ele>1827.3</ele>
        <time>2018-11-24T08:48:54Z</time>
      </trkpt>
      <trkpt lat="42.80356" lon="0.82919">
        <ele>1826.3</ele>
        <time>2018-11-24T08:48:56Z</time>
      </trkpt>
      <trkpt lat="42.80352" lon="0.82917">
        <ele>1825.5</ele>
        <time>2018-11-24T08:48:58Z</time>
      </trkpt>
      <trkpt lat="42.80348" lon="0.82915">
        <ele>1824.6</ele>
        <time>2018-11-24T08:48:59Z</time>
      </trkpt>
      <trkpt lat="42.80352" lon="0.82913">
        <ele>1823.1</ele>
        <time>2018-11-24T08:49:01Z</time>
      </trkpt>
      <trkpt lat="42.80356" lon="0.8291">
        <ele>1821.8</ele>
        <time>2018-11-24T08:49:03Z</time>
      </trkpt>
      <trkpt lat="42.80359" lon="0.82908">
        <ele>1820.3</ele>
        <time>2018-11-24T08:49:04Z</time>
      </trkpt>
      <trkpt lat="42.80363" lon="0.82905">
        <ele>1818.8</ele>
        <time>2018-11-24T08:49:06Z</time>
      </trkpt>
      <trkpt lat="42.80367" lon="0.82903">
        <ele>1817.4</ele>
        <time>2018-11-24T08:49:08Z</time>
      </trkpt>
      <trkpt lat="42.80371" lon="0.829">
        <ele>1815.8</ele>
        <time>2018-11-24T08:49:09Z</time>
      </trkpt>
      <trkpt lat="42.80374" lon="0.82898">
        <ele>1814.5</ele>
        <time>2018-11-24T08:49:11Z</time>
      </trkpt>
      <trkpt lat="42.80378" lon="0.82895">
        <ele>1813</ele>
        <time>2018-11-24T08:49:13Z</time>
      </trkpt>
      <trkpt lat="42.80382" lon="0.82893">
        <ele>1811.5</ele>
        <time>2018-11-24T08:49:14Z</time>
      </trkpt>
      <trkpt lat="42.80386" lon="0.82892">
        <ele>1810.7</ele>
        <time>2018-11-24T08:49:16Z</time>
      </trkpt>
      <trkpt lat="42.8039" lon="0.82891">
        <ele>1809.8</ele>
        <time>2018-11-24T08:49:18Z</time>
      </trkpt>
      <trkpt lat="42.80394" lon="0.8289">
        <ele>1808.8</ele>
        <time>2018-11-24T08:49:19Z</time>
      </trkpt>
      <trkpt lat="42.80399" lon="0.82889">
        <ele>1807.8</ele>
        <time>2018-11-24T08:49:21Z</time>
      </trkpt>
      <trkpt lat="42.80403" lon="0.82887">
        <ele>1806.9</ele>
        <time>2018-11-24T08:49:23Z</time>
      </trkpt>
      <trkpt lat="42.80407" lon="0.82886">
        <ele>1805.7</ele>
        <time>2018-11-24T08:49:24Z</time>
      </trkpt>
      <trkpt lat="42.80411" lon="0.82885">
        <ele>1804.7</ele>
        <time>2018-11-24T08:49:26Z</time>
      </trkpt>
      <trkpt lat="42.80415" lon="0.82884">
        <ele>1803.8</ele>
        <time>2018-11-24T08:49:28Z</time>
      </trkpt>
      <trkpt lat="42.80418" lon="0.82881">
        <ele>1802</ele>
        <time>2018-11-24T08:49:29Z</time>
      </trkpt>
      <trkpt lat="42.80421" lon="0.82878">
        <ele>1800.1</ele>
        <time>2018-11-24T08:49:31Z</time>
      </trkpt>
      <trkpt lat="42.80424" lon="0.82875">
        <ele>1798.2</ele>
        <time>2018-11-24T08:49:32Z</time>
      </trkpt>
      <trkpt lat="42.80427" lon="0.82872">
        <ele>1796.5</ele>
        <time>2018-11-24T08:49:34Z</time>
      </trkpt>
      <trkpt lat="42.8043" lon="0.82869">
        <ele>1794.7</ele>
        <time>2018-11-24T08:49:35Z</time>
      </trkpt>
      <trkpt lat="42.80434" lon="0.82868">
        <ele>1794</ele>
        <time>2018-11-24T08:49:37Z</time>
      </trkpt>
      <trkpt lat="42.80438" lon="0.82867">
        <ele>1793.2</ele>
        <time>2018-11-24T08:49:39Z</time>
      </trkpt>
      <trkpt lat="42.80442" lon="0.82866">
        <ele>1792.5</ele>
        <time>2018-11-24T08:49:40Z</time>
      </trkpt>
      <trkpt lat="42.80447" lon="0.82866">
        <ele>1792</ele>
        <time>2018-11-24T08:49:42Z</time>
      </trkpt>
      <trkpt lat="42.80451" lon="0.82865">
        <ele>1791.6</ele>
        <time>2018-11-24T08:49:44Z</time>
      </trkpt>
      <trkpt lat="42.80455" lon="0.82864">
        <ele>1791.1</ele>
        <time>2018-11-24T08:49:45Z</time>
      </trkpt>
      <trkpt lat="42.80459" lon="0.82863">
        <ele>1790.7</ele>
        <time>2018-11-24T08:49:47Z</time>
      </trkpt>
      <trkpt lat="42.80463" lon="0.82861">
        <ele>1790</ele>
        <time>2018-11-24T08:49:49Z</time>
      </trkpt>
      <trkpt lat="42.80466" lon="0.82859">
        <ele>1789.1</ele>
        <time>2018-11-24T08:49:50Z</time>
      </trkpt>
      <trkpt lat="42.8047" lon="0.82857">
        <ele>1788.2</ele>
        <time>2018-11-24T08:49:52Z</time>
      </trkpt>
      <trkpt lat="42.80473" lon="0.82854">
        <ele>1787</ele>
        <time>2018-11-24T08:49:53Z</time>
      </trkpt>
      <trkpt lat="42.80477" lon="0.82852">
        <ele>1784.8</ele>
        <time>2018-11-24T08:49:55Z</time>
      </trkpt>
      <trkpt lat="42.8048" lon="0.8285">
        <ele>1782.6</ele>
        <time>2018-11-24T08:49:56Z</time>
      </trkpt>
      <trkpt lat="42.80484" lon="0.82848">
        <ele>1780.5</ele>
        <time>2018-11-24T08:49:58Z</time>
      </trkpt>
      <trkpt lat="42.80481" lon="0.82844">
        <ele>1780.2</ele>
        <time>2018-11-24T08:50:00Z</time>
      </trkpt>
      <trkpt lat="42.80478" lon="0.8284">
        <ele>1779.7</ele>
        <time>2018-11-24T08:50:01Z</time>
      </trkpt>
      <trkpt lat="42.80474" lon="0.82835">
        <ele>1779.1</ele>
        <time>2018-11-24T08:50:03Z</time>
      </trkpt>
      <trkpt lat="42.80471" lon="0.82831">
        <ele>1778</ele>
        <time>2018-11-24T08:50:05Z</time>
      </trkpt>
      <trkpt lat="42.80468" lon="0.82827">
        <ele>1775.7</ele>
        <time>2018-11-24T08:50:07Z</time>
      </trkpt>
      <trkpt lat="42.80472" lon="0.82825">
        <ele>1775.4</ele>
        <time>2018-11-24T08:50:09Z</time>
      </trkpt>
      <trkpt lat="42.80477" lon="0.82824">
        <ele>1773.5</ele>
        <time>2018-11-24T08:50:10Z</time>
      </trkpt>
      <trkpt lat="42.80481" lon="0.82822">
        <ele>1771.8</ele>
        <time>2018-11-24T08:50:12Z</time>
      </trkpt>
      <trkpt lat="42.80485" lon="0.82821">
        <ele>1770.3</ele>
        <time>2018-11-24T08:50:14Z</time>
      </trkpt>
      <trkpt lat="42.80489" lon="0.82819">
        <ele>1768.7</ele>
        <time>2018-11-24T08:50:16Z</time>
      </trkpt>
      <trkpt lat="42.80494" lon="0.82818">
        <ele>1767.3</ele>
        <time>2018-11-24T08:50:17Z</time>
      </trkpt>
      <trkpt lat="42.80498" lon="0.82816">
        <ele>1766</ele>
        <time>2018-11-24T08:50:19Z</time>
      </trkpt>
      <trkpt lat="42.80495" lon="0.82813">
        <ele>1765.8</ele>
        <time>2018-11-24T08:50:21Z</time>
      </trkpt>
      <trkpt lat="42.80492" lon="0.8281">
        <ele>1765.3</ele>
        <time>2018-11-24T08:50:22Z</time>
      </trkpt>
      <trkpt lat="42.80488" lon="0.82807">
        <ele>1764.8</ele>
        <time>2018-11-24T08:50:24Z</time>
      </trkpt>
      <trkpt lat="42.80485" lon="0.82804">
        <ele>1763.9</ele>
        <time>2018-11-24T08:50:25Z</time>
      </trkpt>
      <trkpt lat="42.80482" lon="0.82801">
        <ele>1762.9</ele>
        <time>2018-11-24T08:50:27Z</time>
      </trkpt>
      <trkpt lat="42.80478" lon="0.828">
        <ele>1762.8</ele>
        <time>2018-11-24T08:50:29Z</time>
      </trkpt>
      <trkpt lat="42.80474" lon="0.82799">
        <ele>1762.7</ele>
        <time>2018-11-24T08:50:30Z</time>
      </trkpt>
      <trkpt lat="42.8047" lon="0.82799">
        <ele>1762.1</ele>
        <time>2018-11-24T08:50:32Z</time>
      </trkpt>
      <trkpt lat="42.80466" lon="0.82798">
        <ele>1761.6</ele>
        <time>2018-11-24T08:50:34Z</time>
      </trkpt>
      <trkpt lat="42.80461" lon="0.82797">
        <ele>1760.9</ele>
        <time>2018-11-24T08:50:35Z</time>
      </trkpt>
      <trkpt lat="42.80457" lon="0.82796">
        <ele>1760.1</ele>
        <time>2018-11-24T08:50:37Z</time>
      </trkpt>
      <trkpt lat="42.80453" lon="0.82796">
        <ele>1759.5</ele>
        <time>2018-11-24T08:50:39Z</time>
      </trkpt>
      <trkpt lat="42.80449" lon="0.82795">
        <ele>1758.9</ele>
        <time>2018-11-24T08:50:40Z</time>
      </trkpt>
      <trkpt lat="42.80445" lon="0.82794">
        <ele>1758.2</ele>
        <time>2018-11-24T08:50:42Z</time>
      </trkpt>
      <trkpt lat="42.80449" lon="0.82792">
        <ele>1757.3</ele>
        <time>2018-11-24T08:50:44Z</time>
      </trkpt>
      <trkpt lat="42.80452" lon="0.8279">
        <ele>1756.4</ele>
        <time>2018-11-24T08:50:45Z</time>
      </trkpt>
      <trkpt lat="42.80456" lon="0.82788">
        <ele>1755.6</ele>
        <time>2018-11-24T08:50:47Z</time>
      </trkpt>
      <trkpt lat="42.80459" lon="0.82785">
        <ele>1754.5</ele>
        <time>2018-11-24T08:50:48Z</time>
      </trkpt>
      <trkpt lat="42.80463" lon="0.82783">
        <ele>1753.6</ele>
        <time>2018-11-24T08:50:50Z</time>
      </trkpt>
      <trkpt lat="42.80466" lon="0.82781">
        <ele>1752.6</ele>
        <time>2018-11-24T08:50:51Z</time>
      </trkpt>
      <trkpt lat="42.8047" lon="0.82779">
        <ele>1751.7</ele>
        <time>2018-11-24T08:50:53Z</time>
      </trkpt>
      <trkpt lat="42.80473" lon="0.82776">
        <ele>1750.1</ele>
        <time>2018-11-24T08:50:54Z</time>
      </trkpt>
      <trkpt lat="42.80477" lon="0.82773">
        <ele>1748.7</ele>
        <time>2018-11-24T08:50:56Z</time>
      </trkpt>
      <trkpt lat="42.8048" lon="0.8277">
        <ele>1747.4</ele>
        <time>2018-11-24T08:50:58Z</time>
      </trkpt>
      <trkpt lat="42.80483" lon="0.82767">
        <ele>1746.3</ele>
        <time>2018-11-24T08:50:59Z</time>
      </trkpt>
      <trkpt lat="42.80486" lon="0.82764">
        <ele>1745.2</ele>
        <time>2018-11-24T08:51:01Z</time>
      </trkpt>
      <trkpt lat="42.8049" lon="0.82761">
        <ele>1744.2</ele>
        <time>2018-11-24T08:51:02Z</time>
      </trkpt>
      <trkpt lat="42.80493" lon="0.82758">
        <ele>1743.3</ele>
        <time>2018-11-24T08:51:04Z</time>
      </trkpt>
      <trkpt lat="42.80496" lon="0.82755">
        <ele>1742.5</ele>
        <time>2018-11-24T08:51:06Z</time>
      </trkpt>
      <trkpt lat="42.80499" lon="0.82752">
        <ele>1741.6</ele>
        <time>2018-11-24T08:51:07Z</time>
      </trkpt>
      <trkpt lat="42.80502" lon="0.82749">
        <ele>1740.1</ele>
        <time>2018-11-24T08:51:09Z</time>
      </trkpt>
      <trkpt lat="42.80506" lon="0.82745">
        <ele>1738</ele>
        <time>2018-11-24T08:51:10Z</time>
      </trkpt>
      <trkpt lat="42.80509" lon="0.82742">
        <ele>1736.3</ele>
        <time>2018-11-24T08:51:12Z</time>
      </trkpt>
      <trkpt lat="42.80512" lon="0.82739">
        <ele>1734.5</ele>
        <time>2018-11-24T08:51:13Z</time>
      </trkpt>
      <trkpt lat="42.80515" lon="0.82736">
        <ele>1732.9</ele>
        <time>2018-11-24T08:51:15Z</time>
      </trkpt>
      <trkpt lat="42.80519" lon="0.82734">
        <ele>1731.9</ele>
        <time>2018-11-24T08:51:17Z</time>
      </trkpt>
      <trkpt lat="42.80524" lon="0.82733">
        <ele>1731</ele>
        <time>2018-11-24T08:51:18Z</time>
      </trkpt>
      <trkpt lat="42.80528" lon="0.82731">
        <ele>1730.1</ele>
        <time>2018-11-24T08:51:20Z</time>
      </trkpt>
      <trkpt lat="42.80532" lon="0.82729">
        <ele>1729.9</ele>
        <time>2018-11-24T08:51:22Z</time>
      </trkpt>
      <trkpt lat="42.80536" lon="0.82727">
        <ele>1729.5</ele>
        <time>2018-11-24T08:51:24Z</time>
      </trkpt>
      <trkpt lat="42.80541" lon="0.82726">
        <ele>1728.9</ele>
        <time>2018-11-24T08:51:26Z</time>
      </trkpt>
      <trkpt lat="42.80545" lon="0.82724">
        <ele>1728</ele>
        <time>2018-11-24T08:51:27Z</time>
      </trkpt>
      <trkpt lat="42.80548" lon="0.8272">
        <ele>1726.3</ele>
        <time>2018-11-24T08:51:29Z</time>
      </trkpt>
      <trkpt lat="42.80551" lon="0.82717">
        <ele>1724.6</ele>
        <time>2018-11-24T08:51:31Z</time>
      </trkpt>
      <trkpt lat="42.80555" lon="0.82713">
        <ele>1723</ele>
        <time>2018-11-24T08:51:32Z</time>
      </trkpt>
      <trkpt lat="42.80558" lon="0.82709">
        <ele>1723.6</ele>
        <time>2018-11-24T08:51:34Z</time>
      </trkpt>
      <trkpt lat="42.80561" lon="0.82706">
        <ele>1724.5</ele>
        <time>2018-11-24T08:51:36Z</time>
      </trkpt>
      <trkpt lat="42.80564" lon="0.82702">
        <ele>1725.2</ele>
        <time>2018-11-24T08:51:37Z</time>
      </trkpt>
      <trkpt lat="42.80568" lon="0.82698">
        <ele>1725.9</ele>
        <time>2018-11-24T08:51:39Z</time>
      </trkpt>
      <trkpt lat="42.80571" lon="0.82695">
        <ele>1726.1</ele>
        <time>2018-11-24T08:51:41Z</time>
      </trkpt>
      <trkpt lat="42.80574" lon="0.82691">
        <ele>1726.8</ele>
        <time>2018-11-24T08:51:43Z</time>
      </trkpt>
      <trkpt lat="42.80575" lon="0.82685">
        <ele>1724.8</ele>
        <time>2018-11-24T08:51:44Z</time>
      </trkpt>
      <trkpt lat="42.80576" lon="0.82679">
        <ele>1722.8</ele>
        <time>2018-11-24T08:51:46Z</time>
      </trkpt>
      <trkpt lat="42.80578" lon="0.82674">
        <ele>1720.5</ele>
        <time>2018-11-24T08:51:48Z</time>
      </trkpt>
      <trkpt lat="42.80579" lon="0.82668">
        <ele>1718.4</ele>
        <time>2018-11-24T08:51:50Z</time>
      </trkpt>
      <trkpt lat="42.8058" lon="0.82662">
        <ele>1717.2</ele>
        <time>2018-11-24T08:51:51Z</time>
      </trkpt>
      <trkpt lat="42.80581" lon="0.82656">
        <ele>1716.3</ele>
        <time>2018-11-24T08:51:53Z</time>
      </trkpt>
      <trkpt lat="42.80582" lon="0.8265">
        <ele>1715.4</ele>
        <time>2018-11-24T08:51:55Z</time>
      </trkpt>
      <trkpt lat="42.80584" lon="0.82645">
        <ele>1714.6</ele>
        <time>2018-11-24T08:51:57Z</time>
      </trkpt>
      <trkpt lat="42.80585" lon="0.82639">
        <ele>1713.6</ele>
        <time>2018-11-24T08:51:58Z</time>
      </trkpt>
      <trkpt lat="42.80586" lon="0.82633">
        <ele>1711.7</ele>
        <time>2018-11-24T08:52:00Z</time>
      </trkpt>
      <trkpt lat="42.80589" lon="0.82629">
        <ele>1711.4</ele>
        <time>2018-11-24T08:52:02Z</time>
      </trkpt>
      <trkpt lat="42.80593" lon="0.82625">
        <ele>1711.1</ele>
        <time>2018-11-24T08:52:04Z</time>
      </trkpt>
      <trkpt lat="42.80596" lon="0.82621">
        <ele>1710.6</ele>
        <time>2018-11-24T08:52:06Z</time>
      </trkpt>
      <trkpt lat="42.806" lon="0.82617">
        <ele>1709.8</ele>
        <time>2018-11-24T08:52:07Z</time>
      </trkpt>
      <trkpt lat="42.80603" lon="0.82613">
        <ele>1708.8</ele>
        <time>2018-11-24T08:52:09Z</time>
      </trkpt>
      <trkpt lat="42.80607" lon="0.8261">
        <ele>1708.1</ele>
        <time>2018-11-24T08:52:11Z</time>
      </trkpt>
      <trkpt lat="42.8061" lon="0.82606">
        <ele>1707.3</ele>
        <time>2018-11-24T08:52:13Z</time>
      </trkpt>
      <trkpt lat="42.80613" lon="0.82602">
        <ele>1707</ele>
        <time>2018-11-24T08:52:15Z</time>
      </trkpt>
      <trkpt lat="42.80617" lon="0.82598">
        <ele>1707</ele>
        <time>2018-11-24T08:52:16Z</time>
      </trkpt>
      <trkpt lat="42.8062" lon="0.82594">
        <ele>1706.7</ele>
        <time>2018-11-24T08:52:18Z</time>
      </trkpt>
      <trkpt lat="42.80624" lon="0.8259">
        <ele>1706.4</ele>
        <time>2018-11-24T08:52:20Z</time>
      </trkpt>
      <trkpt lat="42.80627" lon="0.82586">
        <ele>1706.1</ele>
        <time>2018-11-24T08:52:22Z</time>
      </trkpt>
      <trkpt lat="42.8063" lon="0.82581">
        <ele>1705</ele>
        <time>2018-11-24T08:52:23Z</time>
      </trkpt>
      <trkpt lat="42.80633" lon="0.82577">
        <ele>1704</ele>
        <time>2018-11-24T08:52:25Z</time>
      </trkpt>
      <trkpt lat="42.80635" lon="0.82572">
        <ele>1702.7</ele>
        <time>2018-11-24T08:52:27Z</time>
      </trkpt>
      <trkpt lat="42.80638" lon="0.82567">
        <ele>1701.4</ele>
        <time>2018-11-24T08:52:29Z</time>
      </trkpt>
      <trkpt lat="42.80641" lon="0.82562">
        <ele>1700.6</ele>
        <time>2018-11-24T08:52:31Z</time>
      </trkpt>
      <trkpt lat="42.80644" lon="0.82557">
        <ele>1700</ele>
        <time>2018-11-24T08:52:32Z</time>
      </trkpt>
      <trkpt lat="42.80646" lon="0.82553">
        <ele>1699.6</ele>
        <time>2018-11-24T08:52:34Z</time>
      </trkpt>
      <trkpt lat="42.80649" lon="0.82548">
        <ele>1698.9</ele>
        <time>2018-11-24T08:52:36Z</time>
      </trkpt>
      <trkpt lat="42.80652" lon="0.82543">
        <ele>1698.3</ele>
        <time>2018-11-24T08:52:38Z</time>
      </trkpt>
      <trkpt lat="42.80655" lon="0.82538">
        <ele>1697.4</ele>
        <time>2018-11-24T08:52:40Z</time>
      </trkpt>
      <trkpt lat="42.80658" lon="0.82534">
        <ele>1696.4</ele>
        <time>2018-11-24T08:52:41Z</time>
      </trkpt>
      <trkpt lat="42.8066" lon="0.82529">
        <ele>1695.4</ele>
        <time>2018-11-24T08:52:43Z</time>
      </trkpt>
      <trkpt lat="42.80663" lon="0.82524">
        <ele>1694.4</ele>
        <time>2018-11-24T08:52:45Z</time>
      </trkpt>
      <trkpt lat="42.80666" lon="0.82519">
        <ele>1693.2</ele>
        <time>2018-11-24T08:52:47Z</time>
      </trkpt>
      <trkpt lat="42.80668" lon="0.82514">
        <ele>1692</ele>
        <time>2018-11-24T08:52:48Z</time>
      </trkpt>
      <trkpt lat="42.80671" lon="0.82509">
        <ele>1690.9</ele>
        <time>2018-11-24T08:52:50Z</time>
      </trkpt>
      <trkpt lat="42.80674" lon="0.82505">
        <ele>1689.8</ele>
        <time>2018-11-24T08:52:52Z</time>
      </trkpt>
      <trkpt lat="42.80677" lon="0.825">
        <ele>1688.5</ele>
        <time>2018-11-24T08:52:54Z</time>
      </trkpt>
      <trkpt lat="42.80679" lon="0.82495">
        <ele>1688.2</ele>
        <time>2018-11-24T08:52:56Z</time>
      </trkpt>
      <trkpt lat="42.80682" lon="0.8249">
        <ele>1687.7</ele>
        <time>2018-11-24T08:52:57Z</time>
      </trkpt>
      <trkpt lat="42.80685" lon="0.82486">
        <ele>1687.6</ele>
        <time>2018-11-24T08:52:59Z</time>
      </trkpt>
      <trkpt lat="42.80688" lon="0.82482">
        <ele>1687.6</ele>
        <time>2018-11-24T08:53:01Z</time>
      </trkpt>
      <trkpt lat="42.80691" lon="0.82478">
        <ele>1687.6</ele>
        <time>2018-11-24T08:53:02Z</time>
      </trkpt>
      <trkpt lat="42.80694" lon="0.82474">
        <ele>1687.6</ele>
        <time>2018-11-24T08:53:04Z</time>
      </trkpt>
      <trkpt lat="42.80697" lon="0.82471">
        <ele>1687.2</ele>
        <time>2018-11-24T08:53:06Z</time>
      </trkpt>
      <trkpt lat="42.807" lon="0.82467">
        <ele>1686.4</ele>
        <time>2018-11-24T08:53:07Z</time>
      </trkpt>
      <trkpt lat="42.80703" lon="0.82463">
        <ele>1685.7</ele>
        <time>2018-11-24T08:53:09Z</time>
      </trkpt>
      <trkpt lat="42.80706" lon="0.82459">
        <ele>1684.9</ele>
        <time>2018-11-24T08:53:11Z</time>
      </trkpt>
      <trkpt lat="42.80709" lon="0.82455">
        <ele>1684.3</ele>
        <time>2018-11-24T08:53:12Z</time>
      </trkpt>
      <trkpt lat="42.80712" lon="0.82451">
        <ele>1683.5</ele>
        <time>2018-11-24T08:53:14Z</time>
      </trkpt>
      <trkpt lat="42.80715" lon="0.82447">
        <ele>1682.9</ele>
        <time>2018-11-24T08:53:16Z</time>
      </trkpt>
      <trkpt lat="42.80718" lon="0.82443">
        <ele>1682.2</ele>
        <time>2018-11-24T08:53:17Z</time>
      </trkpt>
      <trkpt lat="42.80721" lon="0.8244">
        <ele>1681.7</ele>
        <time>2018-11-24T08:53:19Z</time>
      </trkpt>
      <trkpt lat="42.80724" lon="0.82436">
        <ele>1681.2</ele>
        <time>2018-11-24T08:53:21Z</time>
      </trkpt>
      <trkpt lat="42.80727" lon="0.82432">
        <ele>1680.7</ele>
        <time>2018-11-24T08:53:22Z</time>
      </trkpt>
      <trkpt lat="42.8073" lon="0.82428">
        <ele>1680.3</ele>
        <time>2018-11-24T08:53:24Z</time>
      </trkpt>
      <trkpt lat="42.80733" lon="0.82425">
        <ele>1679.6</ele>
        <time>2018-11-24T08:53:26Z</time>
      </trkpt>
      <trkpt lat="42.80736" lon="0.82421">
        <ele>1678.9</ele>
        <time>2018-11-24T08:53:27Z</time>
      </trkpt>
      <trkpt lat="42.80739" lon="0.82417">
        <ele>1678</ele>
        <time>2018-11-24T08:53:29Z</time>
      </trkpt>
      <trkpt lat="42.80742" lon="0.82413">
        <ele>1677</ele>
        <time>2018-11-24T08:53:30Z</time>
      </trkpt>
      <trkpt lat="42.80745" lon="0.82409">
        <ele>1675.8</ele>
        <time>2018-11-24T08:53:32Z</time>
      </trkpt>
      <trkpt lat="42.80748" lon="0.82405">
        <ele>1674.8</ele>
        <time>2018-11-24T08:53:34Z</time>
      </trkpt>
      <trkpt lat="42.80752" lon="0.82401">
        <ele>1673.9</ele>
        <time>2018-11-24T08:53:36Z</time>
      </trkpt>
      <trkpt lat="42.80755" lon="0.82397">
        <ele>1673.5</ele>
        <time>2018-11-24T08:53:37Z</time>
      </trkpt>
      <trkpt lat="42.80758" lon="0.82393">
        <ele>1673</ele>
        <time>2018-11-24T08:53:39Z</time>
      </trkpt>
      <trkpt lat="42.80761" lon="0.82389">
        <ele>1672.2</ele>
        <time>2018-11-24T08:53:41Z</time>
      </trkpt>
      <trkpt lat="42.80763" lon="0.82384">
        <ele>1671.1</ele>
        <time>2018-11-24T08:53:43Z</time>
      </trkpt>
      <trkpt lat="42.80765" lon="0.82379">
        <ele>1670</ele>
        <time>2018-11-24T08:53:44Z</time>
      </trkpt>
      <trkpt lat="42.80768" lon="0.82374">
        <ele>1668.6</ele>
        <time>2018-11-24T08:53:46Z</time>
      </trkpt>
      <trkpt lat="42.8077" lon="0.82369">
        <ele>1667.4</ele>
        <time>2018-11-24T08:53:48Z</time>
      </trkpt>
      <trkpt lat="42.80772" lon="0.82364">
        <ele>1666</ele>
        <time>2018-11-24T08:53:49Z</time>
      </trkpt>
      <trkpt lat="42.80774" lon="0.82359">
        <ele>1664.5</ele>
        <time>2018-11-24T08:53:51Z</time>
      </trkpt>
      <trkpt lat="42.80777" lon="0.82355">
        <ele>1664</ele>
        <time>2018-11-24T08:53:53Z</time>
      </trkpt>
      <trkpt lat="42.8078" lon="0.82351">
        <ele>1662.9</ele>
        <time>2018-11-24T08:53:54Z</time>
      </trkpt>
      <trkpt lat="42.80784" lon="0.82347">
        <ele>1661.8</ele>
        <time>2018-11-24T08:53:56Z</time>
      </trkpt>
      <trkpt lat="42.80787" lon="0.82343">
        <ele>1660.5</ele>
        <time>2018-11-24T08:53:58Z</time>
      </trkpt>
      <trkpt lat="42.8079" lon="0.8234">
        <ele>1659</ele>
        <time>2018-11-24T08:54:00Z</time>
      </trkpt>
      <trkpt lat="42.80793" lon="0.82336">
        <ele>1657.5</ele>
        <time>2018-11-24T08:54:01Z</time>
      </trkpt>
      <trkpt lat="42.80797" lon="0.82332">
        <ele>1655.9</ele>
        <time>2018-11-24T08:54:03Z</time>
      </trkpt>
      <trkpt lat="42.808" lon="0.82328">
        <ele>1654.4</ele>
        <time>2018-11-24T08:54:05Z</time>
      </trkpt>
      <trkpt lat="42.80803" lon="0.82324">
        <ele>1652.8</ele>
        <time>2018-11-24T08:54:07Z</time>
      </trkpt>
      <trkpt lat="42.80807" lon="0.82322">
        <ele>1652.9</ele>
        <time>2018-11-24T08:54:08Z</time>
      </trkpt>
      <trkpt lat="42.80811" lon="0.8232">
        <ele>1654.3</ele>
        <time>2018-11-24T08:54:10Z</time>
      </trkpt>
      <trkpt lat="42.80814" lon="0.82318">
        <ele>1655.7</ele>
        <time>2018-11-24T08:54:11Z</time>
      </trkpt>
      <trkpt lat="42.80818" lon="0.82317">
        <ele>1656.6</ele>
        <time>2018-11-24T08:54:13Z</time>
      </trkpt>
      <trkpt lat="42.80822" lon="0.82315">
        <ele>1657.3</ele>
        <time>2018-11-24T08:54:15Z</time>
      </trkpt>
      <trkpt lat="42.80826" lon="0.82313">
        <ele>1657.7</ele>
        <time>2018-11-24T08:54:16Z</time>
      </trkpt>
      <trkpt lat="42.80829" lon="0.82311">
        <ele>1657.8</ele>
        <time>2018-11-24T08:54:18Z</time>
      </trkpt>
      <trkpt lat="42.80833" lon="0.82309">
        <ele>1657.6</ele>
        <time>2018-11-24T08:54:19Z</time>
      </trkpt>
      <trkpt lat="42.80835" lon="0.82303">
        <ele>1654</ele>
        <time>2018-11-24T08:54:21Z</time>
      </trkpt>
      <trkpt lat="42.80836" lon="0.82298">
        <ele>1652</ele>
        <time>2018-11-24T08:54:23Z</time>
      </trkpt>
      <trkpt lat="42.80838" lon="0.82292">
        <ele>1649.8</ele>
        <time>2018-11-24T08:54:25Z</time>
      </trkpt>
      <trkpt lat="42.8084" lon="0.82286">
        <ele>1647.3</ele>
        <time>2018-11-24T08:54:27Z</time>
      </trkpt>
      <trkpt lat="42.80841" lon="0.82281">
        <ele>1644.3</ele>
        <time>2018-11-24T08:54:28Z</time>
      </trkpt>
      <trkpt lat="42.80843" lon="0.82275">
        <ele>1641.5</ele>
        <time>2018-11-24T08:54:30Z</time>
      </trkpt>
      <trkpt lat="42.80846" lon="0.82271">
        <ele>1641.1</ele>
        <time>2018-11-24T08:54:32Z</time>
      </trkpt>
      <trkpt lat="42.8085" lon="0.82267">
        <ele>1640.2</ele>
        <time>2018-11-24T08:54:34Z</time>
      </trkpt>
      <trkpt lat="42.80853" lon="0.82263">
        <ele>1639.3</ele>
        <time>2018-11-24T08:54:35Z</time>
      </trkpt>
      <trkpt lat="42.80856" lon="0.82259">
        <ele>1638.1</ele>
        <time>2018-11-24T08:54:37Z</time>
      </trkpt>
      <trkpt lat="42.80859" lon="0.82256">
        <ele>1636.7</ele>
        <time>2018-11-24T08:54:39Z</time>
      </trkpt>
      <trkpt lat="42.80863" lon="0.82252">
        <ele>1635.2</ele>
        <time>2018-11-24T08:54:41Z</time>
      </trkpt>
      <trkpt lat="42.80866" lon="0.82248">
        <ele>1635</ele>
        <time>2018-11-24T08:54:42Z</time>
      </trkpt>
      <trkpt lat="42.80869" lon="0.82244">
        <ele>1635.2</ele>
        <time>2018-11-24T08:54:44Z</time>
      </trkpt>
      <trkpt lat="42.80873" lon="0.8224">
        <ele>1635.2</ele>
        <time>2018-11-24T08:54:46Z</time>
      </trkpt>
      <trkpt lat="42.80876" lon="0.82236">
        <ele>1635.1</ele>
        <time>2018-11-24T08:54:48Z</time>
      </trkpt>
      <trkpt lat="42.80879" lon="0.82232">
        <ele>1634.9</ele>
        <time>2018-11-24T08:54:49Z</time>
      </trkpt>
      <trkpt lat="42.80881" lon="0.82227">
        <ele>1633.2</ele>
        <time>2018-11-24T08:54:51Z</time>
      </trkpt>
      <trkpt lat="42.80883" lon="0.82222">
        <ele>1631.4</ele>
        <time>2018-11-24T08:54:53Z</time>
      </trkpt>
      <trkpt lat="42.80884" lon="0.82217">
        <ele>1629.9</ele>
        <time>2018-11-24T08:54:54Z</time>
      </trkpt>
      <trkpt lat="42.80886" lon="0.82212">
        <ele>1628.6</ele>
        <time>2018-11-24T08:54:56Z</time>
      </trkpt>
      <trkpt lat="42.80888" lon="0.82207">
        <ele>1627.3</ele>
        <time>2018-11-24T08:54:57Z</time>
      </trkpt>
      <trkpt lat="42.8089" lon="0.82202">
        <ele>1626.5</ele>
        <time>2018-11-24T08:54:59Z</time>
      </trkpt>
      <trkpt lat="42.80891" lon="0.82197">
        <ele>1625.4</ele>
        <time>2018-11-24T08:55:01Z</time>
      </trkpt>
      <trkpt lat="42.80893" lon="0.82192">
        <ele>1624.5</ele>
        <time>2018-11-24T08:55:02Z</time>
      </trkpt>
      <trkpt lat="42.80895" lon="0.82187">
        <ele>1623.8</ele>
        <time>2018-11-24T08:55:04Z</time>
      </trkpt>
      <trkpt lat="42.80897" lon="0.82182">
        <ele>1623.1</ele>
        <time>2018-11-24T08:55:06Z</time>
      </trkpt>
      <trkpt lat="42.80899" lon="0.82177">
        <ele>1622</ele>
        <time>2018-11-24T08:55:07Z</time>
      </trkpt>
      <trkpt lat="42.80901" lon="0.82172">
        <ele>1621</ele>
        <time>2018-11-24T08:55:09Z</time>
      </trkpt>
      <trkpt lat="42.80903" lon="0.82167">
        <ele>1619.6</ele>
        <time>2018-11-24T08:55:11Z</time>
      </trkpt>
      <trkpt lat="42.80905" lon="0.82162">
        <ele>1618.6</ele>
        <time>2018-11-24T08:55:12Z</time>
      </trkpt>
      <trkpt lat="42.80907" lon="0.82157">
        <ele>1617.3</ele>
        <time>2018-11-24T08:55:14Z</time>
      </trkpt>
      <trkpt lat="42.80909" lon="0.82151">
        <ele>1616.1</ele>
        <time>2018-11-24T08:55:16Z</time>
      </trkpt>
      <trkpt lat="42.80911" lon="0.82146">
        <ele>1614.8</ele>
        <time>2018-11-24T08:55:18Z</time>
      </trkpt>
      <trkpt lat="42.80913" lon="0.82141">
        <ele>1613.3</ele>
        <time>2018-11-24T08:55:19Z</time>
      </trkpt>
      <trkpt lat="42.80915" lon="0.82136">
        <ele>1611.8</ele>
        <time>2018-11-24T08:55:21Z</time>
      </trkpt>
      <trkpt lat="42.80917" lon="0.82131">
        <ele>1610</ele>
        <time>2018-11-24T08:55:23Z</time>
      </trkpt>
      <trkpt lat="42.80913" lon="0.82133">
        <ele>1609</ele>
        <time>2018-11-24T08:55:24Z</time>
      </trkpt>
      <trkpt lat="42.80909" lon="0.82135">
        <ele>1608.1</ele>
        <time>2018-11-24T08:55:26Z</time>
      </trkpt>
      <trkpt lat="42.80906" lon="0.82136">
        <ele>1607.3</ele>
        <time>2018-11-24T08:55:27Z</time>
      </trkpt>
      <trkpt lat="42.80902" lon="0.82138">
        <ele>1606.3</ele>
        <time>2018-11-24T08:55:29Z</time>
      </trkpt>
      <trkpt lat="42.80898" lon="0.8214">
        <ele>1605.1</ele>
        <time>2018-11-24T08:55:31Z</time>
      </trkpt>
      <trkpt lat="42.80894" lon="0.8214">
        <ele>1603.2</ele>
        <time>2018-11-24T08:55:32Z</time>
      </trkpt>
      <trkpt lat="42.8089" lon="0.82141">
        <ele>1601.2</ele>
        <time>2018-11-24T08:55:34Z</time>
      </trkpt>
      <trkpt lat="42.80886" lon="0.82141">
        <ele>1599.2</ele>
        <time>2018-11-24T08:55:36Z</time>
      </trkpt>
      <trkpt lat="42.80881" lon="0.82141">
        <ele>1597.4</ele>
        <time>2018-11-24T08:55:37Z</time>
      </trkpt>
      <trkpt lat="42.80877" lon="0.82142">
        <ele>1595.6</ele>
        <time>2018-11-24T08:55:39Z</time>
      </trkpt>
      <trkpt lat="42.80873" lon="0.82142">
        <ele>1593.8</ele>
        <time>2018-11-24T08:55:41Z</time>
      </trkpt>
      <trkpt lat="42.80874" lon="0.82136">
        <ele>1591.8</ele>
        <time>2018-11-24T08:55:42Z</time>
      </trkpt>
      <trkpt lat="42.80874" lon="0.82131">
        <ele>1589.8</ele>
        <time>2018-11-24T08:55:44Z</time>
      </trkpt>
      <trkpt lat="42.80875" lon="0.82125">
        <ele>1587.9</ele>
        <time>2018-11-24T08:55:46Z</time>
      </trkpt>
      <trkpt lat="42.80875" lon="0.8212">
        <ele>1585.9</ele>
        <time>2018-11-24T08:55:47Z</time>
      </trkpt>
      <trkpt lat="42.80876" lon="0.82114">
        <ele>1583.9</ele>
        <time>2018-11-24T08:55:49Z</time>
      </trkpt>
      <trkpt lat="42.80876" lon="0.82108">
        <ele>1581.6</ele>
        <time>2018-11-24T08:55:51Z</time>
      </trkpt>
      <trkpt lat="42.80877" lon="0.82103">
        <ele>1578.9</ele>
        <time>2018-11-24T08:55:52Z</time>
      </trkpt>
      <trkpt lat="42.80877" lon="0.82097">
        <ele>1576.4</ele>
        <time>2018-11-24T08:55:54Z</time>
      </trkpt>
      <trkpt lat="42.8088" lon="0.82094">
        <ele>1576</ele>
        <time>2018-11-24T08:55:56Z</time>
      </trkpt>
      <trkpt lat="42.80883" lon="0.8209">
        <ele>1575.4</ele>
        <time>2018-11-24T08:55:57Z</time>
      </trkpt>
      <trkpt lat="42.80887" lon="0.82087">
        <ele>1574.8</ele>
        <time>2018-11-24T08:55:59Z</time>
      </trkpt>
      <trkpt lat="42.8089" lon="0.82083">
        <ele>1574.2</ele>
        <time>2018-11-24T08:56:01Z</time>
      </trkpt>
      <trkpt lat="42.80893" lon="0.8208">
        <ele>1573.6</ele>
        <time>2018-11-24T08:56:02Z</time>
      </trkpt>
      <trkpt lat="42.80896" lon="0.82076">
        <ele>1573</ele>
        <time>2018-11-24T08:56:04Z</time>
      </trkpt>
      <trkpt lat="42.80899" lon="0.82072">
        <ele>1571.9</ele>
        <time>2018-11-24T08:56:05Z</time>
      </trkpt>
      <trkpt lat="42.80902" lon="0.82067">
        <ele>1570.8</ele>
        <time>2018-11-24T08:56:07Z</time>
      </trkpt>
      <trkpt lat="42.80905" lon="0.82063">
        <ele>1569.6</ele>
        <time>2018-11-24T08:56:09Z</time>
      </trkpt>
      <trkpt lat="42.80908" lon="0.82059">
        <ele>1568.3</ele>
        <time>2018-11-24T08:56:11Z</time>
      </trkpt>
      <trkpt lat="42.8091" lon="0.82054">
        <ele>1567</ele>
        <time>2018-11-24T08:56:12Z</time>
      </trkpt>
      <trkpt lat="42.80913" lon="0.8205">
        <ele>1565.8</ele>
        <time>2018-11-24T08:56:14Z</time>
      </trkpt>
      <trkpt lat="42.80916" lon="0.82046">
        <ele>1564.7</ele>
        <time>2018-11-24T08:56:16Z</time>
      </trkpt>
      <trkpt lat="42.80919" lon="0.82041">
        <ele>1563.7</ele>
        <time>2018-11-24T08:56:18Z</time>
      </trkpt>
      <trkpt lat="42.80922" lon="0.82037">
        <ele>1562.8</ele>
        <time>2018-11-24T08:56:19Z</time>
      </trkpt>
      <trkpt lat="42.80924" lon="0.82032">
        <ele>1561.3</ele>
        <time>2018-11-24T08:56:21Z</time>
      </trkpt>
      <trkpt lat="42.80926" lon="0.82027">
        <ele>1559.7</ele>
        <time>2018-11-24T08:56:23Z</time>
      </trkpt>
      <trkpt lat="42.80929" lon="0.82021">
        <ele>1558.4</ele>
        <time>2018-11-24T08:56:25Z</time>
      </trkpt>
      <trkpt lat="42.80931" lon="0.82016">
        <ele>1557</ele>
        <time>2018-11-24T08:56:26Z</time>
      </trkpt>
      <trkpt lat="42.80933" lon="0.82011">
        <ele>1555.5</ele>
        <time>2018-11-24T08:56:28Z</time>
      </trkpt>
      <trkpt lat="42.80935" lon="0.82006">
        <ele>1553.9</ele>
        <time>2018-11-24T08:56:30Z</time>
      </trkpt>
      <trkpt lat="42.80937" lon="0.82001">
        <ele>1552.1</ele>
        <time>2018-11-24T08:56:32Z</time>
      </trkpt>
      <trkpt lat="42.8094" lon="0.81995">
        <ele>1550.5</ele>
        <time>2018-11-24T08:56:33Z</time>
      </trkpt>
      <trkpt lat="42.80942" lon="0.8199">
        <ele>1548.8</ele>
        <time>2018-11-24T08:56:35Z</time>
      </trkpt>
      <trkpt lat="42.80944" lon="0.81985">
        <ele>1547</ele>
        <time>2018-11-24T08:56:37Z</time>
      </trkpt>
      <trkpt lat="42.80947" lon="0.81981">
        <ele>1547.4</ele>
        <time>2018-11-24T08:56:39Z</time>
      </trkpt>
      <trkpt lat="42.80951" lon="0.81978">
        <ele>1548.1</ele>
        <time>2018-11-24T08:56:40Z</time>
      </trkpt>
      <trkpt lat="42.80954" lon="0.81974">
        <ele>1548.6</ele>
        <time>2018-11-24T08:56:42Z</time>
      </trkpt>
      <trkpt lat="42.80957" lon="0.81971">
        <ele>1549</ele>
        <time>2018-11-24T08:56:44Z</time>
      </trkpt>
      <trkpt lat="42.8096" lon="0.81967">
        <ele>1549.3</ele>
        <time>2018-11-24T08:56:45Z</time>
      </trkpt>
      <trkpt lat="42.80964" lon="0.81964">
        <ele>1549.5</ele>
        <time>2018-11-24T08:56:47Z</time>
      </trkpt>
      <trkpt lat="42.80967" lon="0.8196">
        <ele>1549.6</ele>
        <time>2018-11-24T08:56:49Z</time>
      </trkpt>
      <trkpt lat="42.80969" lon="0.81955">
        <ele>1547.5</ele>
        <time>2018-11-24T08:56:50Z</time>
      </trkpt>
      <trkpt lat="42.8097" lon="0.81949">
        <ele>1545.4</ele>
        <time>2018-11-24T08:56:52Z</time>
      </trkpt>
      <trkpt lat="42.80971" lon="0.81944">
        <ele>1543.3</ele>
        <time>2018-11-24T08:56:54Z</time>
      </trkpt>
      <trkpt lat="42.80973" lon="0.81938">
        <ele>1541.6</ele>
        <time>2018-11-24T08:56:55Z</time>
      </trkpt>
      <trkpt lat="42.80974" lon="0.81933">
        <ele>1540.3</ele>
        <time>2018-11-24T08:56:57Z</time>
      </trkpt>
      <trkpt lat="42.80976" lon="0.81927">
        <ele>1538.7</ele>
        <time>2018-11-24T08:56:59Z</time>
      </trkpt>
      <trkpt lat="42.80977" lon="0.81922">
        <ele>1536.9</ele>
        <time>2018-11-24T08:57:01Z</time>
      </trkpt>
      <trkpt lat="42.80979" lon="0.81916">
        <ele>1535.1</ele>
        <time>2018-11-24T08:57:02Z</time>
      </trkpt>
      <trkpt lat="42.8098" lon="0.81911">
        <ele>1533.6</ele>
        <time>2018-11-24T08:57:04Z</time>
      </trkpt>
      <trkpt lat="42.80982" lon="0.81906">
        <ele>1532.2</ele>
        <time>2018-11-24T08:57:06Z</time>
      </trkpt>
      <trkpt lat="42.80983" lon="0.819">
        <ele>1530.8</ele>
        <time>2018-11-24T08:57:07Z</time>
      </trkpt>
      <trkpt lat="42.80985" lon="0.81895">
        <ele>1529.6</ele>
        <time>2018-11-24T08:57:09Z</time>
      </trkpt>
      <trkpt lat="42.80987" lon="0.81889">
        <ele>1528.4</ele>
        <time>2018-11-24T08:57:11Z</time>
      </trkpt>
      <trkpt lat="42.80988" lon="0.81884">
        <ele>1527.9</ele>
        <time>2018-11-24T08:57:13Z</time>
      </trkpt>
      <trkpt lat="42.8099" lon="0.81879">
        <ele>1527.4</ele>
        <time>2018-11-24T08:57:14Z</time>
      </trkpt>
      <trkpt lat="42.80992" lon="0.81873">
        <ele>1526.8</ele>
        <time>2018-11-24T08:57:16Z</time>
      </trkpt>
      <trkpt lat="42.80994" lon="0.81868">
        <ele>1526.1</ele>
        <time>2018-11-24T08:57:18Z</time>
      </trkpt>
      <trkpt lat="42.80995" lon="0.81862">
        <ele>1525.5</ele>
        <time>2018-11-24T08:57:20Z</time>
      </trkpt>
      <trkpt lat="42.80997" lon="0.81857">
        <ele>1525.1</ele>
        <time>2018-11-24T08:57:21Z</time>
      </trkpt>
      <trkpt lat="42.80998" lon="0.81851">
        <ele>1524.1</ele>
        <time>2018-11-24T08:57:23Z</time>
      </trkpt>
      <trkpt lat="42.80999" lon="0.81846">
        <ele>1523.2</ele>
        <time>2018-11-24T08:57:25Z</time>
      </trkpt>
      <trkpt lat="42.81" lon="0.8184">
        <ele>1522.3</ele>
        <time>2018-11-24T08:57:26Z</time>
      </trkpt>
      <trkpt lat="42.81002" lon="0.81835">
        <ele>1521.5</ele>
        <time>2018-11-24T08:57:28Z</time>
      </trkpt>
      <trkpt lat="42.81003" lon="0.81829">
        <ele>1519.6</ele>
        <time>2018-11-24T08:57:30Z</time>
      </trkpt>
      <trkpt lat="42.81004" lon="0.81824">
        <ele>1517.7</ele>
        <time>2018-11-24T08:57:31Z</time>
      </trkpt>
      <trkpt lat="42.81005" lon="0.81818">
        <ele>1515.7</ele>
        <time>2018-11-24T08:57:33Z</time>
      </trkpt>
      <trkpt lat="42.81007" lon="0.81813">
        <ele>1514.2</ele>
        <time>2018-11-24T08:57:35Z</time>
      </trkpt>
      <trkpt lat="42.81009" lon="0.81808">
        <ele>1512.6</ele>
        <time>2018-11-24T08:57:37Z</time>
      </trkpt>
      <trkpt lat="42.81011" lon="0.81802">
        <ele>1510.6</ele>
        <time>2018-11-24T08:57:38Z</time>
      </trkpt>
      <trkpt lat="42.81013" lon="0.81797">
        <ele>1508.7</ele>
        <time>2018-11-24T08:57:40Z</time>
      </trkpt>
      <trkpt lat="42.81014" lon="0.81792">
        <ele>1506.7</ele>
        <time>2018-11-24T08:57:42Z</time>
      </trkpt>
      <trkpt lat="42.81016" lon="0.81787">
        <ele>1504.9</ele>
        <time>2018-11-24T08:57:43Z</time>
      </trkpt>
      <trkpt lat="42.81018" lon="0.81781">
        <ele>1503.1</ele>
        <time>2018-11-24T08:57:45Z</time>
      </trkpt>
      <trkpt lat="42.8102" lon="0.81776">
        <ele>1501.6</ele>
        <time>2018-11-24T08:57:47Z</time>
      </trkpt>
      <trkpt lat="42.81022" lon="0.81771">
        <ele>1500.3</ele>
        <time>2018-11-24T08:57:49Z</time>
      </trkpt>
      <trkpt lat="42.81022" lon="0.81765">
        <ele>1497.6</ele>
        <time>2018-11-24T08:57:50Z</time>
      </trkpt>
      <trkpt lat="42.81022" lon="0.81759">
        <ele>1494.9</ele>
        <time>2018-11-24T08:57:52Z</time>
      </trkpt>
      <trkpt lat="42.81022" lon="0.81753">
        <ele>1492.1</ele>
        <time>2018-11-24T08:57:54Z</time>
      </trkpt>
      <trkpt lat="42.81022" lon="0.81747">
        <ele>1489.3</ele>
        <time>2018-11-24T08:57:56Z</time>
      </trkpt>
      <trkpt lat="42.81022" lon="0.81741">
        <ele>1486.3</ele>
        <time>2018-11-24T08:57:57Z</time>
      </trkpt>
      <trkpt lat="42.8102" lon="0.81736">
        <ele>1482.6</ele>
        <time>2018-11-24T08:57:59Z</time>
      </trkpt>
      <trkpt lat="42.81017" lon="0.81731">
        <ele>1479.1</ele>
        <time>2018-11-24T08:58:01Z</time>
      </trkpt>
      <trkpt lat="42.81015" lon="0.81726">
        <ele>1475.5</ele>
        <time>2018-11-24T08:58:02Z</time>
      </trkpt>
      <trkpt lat="42.81013" lon="0.81722">
        <ele>1472</ele>
        <time>2018-11-24T08:58:04Z</time>
      </trkpt>
      <trkpt lat="42.8101" lon="0.81717">
        <ele>1468.5</ele>
        <time>2018-11-24T08:58:06Z</time>
      </trkpt>
      <trkpt lat="42.81008" lon="0.81712">
        <ele>1465.2</ele>
        <time>2018-11-24T08:58:08Z</time>
      </trkpt>
      <trkpt lat="42.81005" lon="0.81707">
        <ele>1462</ele>
        <time>2018-11-24T08:58:09Z</time>
      </trkpt>
      <trkpt lat="42.81003" lon="0.81702">
        <ele>1458.7</ele>
        <time>2018-11-24T08:58:11Z</time>
      </trkpt>
      <trkpt lat="42.80999" lon="0.817">
        <ele>1456</ele>
        <time>2018-11-24T08:58:13Z</time>
      </trkpt>
      <trkpt lat="42.80996" lon="0.81698">
        <ele>1453.4</ele>
        <time>2018-11-24T08:58:14Z</time>
      </trkpt>
      <trkpt lat="42.80992" lon="0.81695">
        <ele>1450.7</ele>
        <time>2018-11-24T08:58:16Z</time>
      </trkpt>
      <trkpt lat="42.80989" lon="0.81693">
        <ele>1448.3</ele>
        <time>2018-11-24T08:58:17Z</time>
      </trkpt>
      <trkpt lat="42.80985" lon="0.81691">
        <ele>1445.6</ele>
        <time>2018-11-24T08:58:19Z</time>
      </trkpt>
      <trkpt lat="42.80987" lon="0.81686">
        <ele>1444.2</ele>
        <time>2018-11-24T08:58:21Z</time>
      </trkpt>
      <trkpt lat="42.80988" lon="0.8168">
        <ele>1442.7</ele>
        <time>2018-11-24T08:58:22Z</time>
      </trkpt>
      <trkpt lat="42.8099" lon="0.81675">
        <ele>1441.2</ele>
        <time>2018-11-24T08:58:24Z</time>
      </trkpt>
      <trkpt lat="42.80992" lon="0.81669">
        <ele>1439.5</ele>
        <time>2018-11-24T08:58:26Z</time>
      </trkpt>
      <trkpt lat="42.80994" lon="0.81664">
        <ele>1437.5</ele>
        <time>2018-11-24T08:58:28Z</time>
      </trkpt>
      <trkpt lat="42.80995" lon="0.81658">
        <ele>1435.3</ele>
        <time>2018-11-24T08:58:29Z</time>
      </trkpt>
      <trkpt lat="42.80997" lon="0.81653">
        <ele>1432.8</ele>
        <time>2018-11-24T08:58:31Z</time>
      </trkpt>
      <trkpt lat="42.80999" lon="0.81648">
        <ele>1430.9</ele>
        <time>2018-11-24T08:58:33Z</time>
      </trkpt>
      <trkpt lat="42.81002" lon="0.81643">
        <ele>1429.4</ele>
        <time>2018-11-24T08:58:35Z</time>
      </trkpt>
      <trkpt lat="42.81004" lon="0.81638">
        <ele>1427.9</ele>
        <time>2018-11-24T08:58:36Z</time>
      </trkpt>
      <trkpt lat="42.81007" lon="0.81634">
        <ele>1426.8</ele>
        <time>2018-11-24T08:58:38Z</time>
      </trkpt>
      <trkpt lat="42.81009" lon="0.81629">
        <ele>1425.6</ele>
        <time>2018-11-24T08:58:40Z</time>
      </trkpt>
      <trkpt lat="42.81012" lon="0.81624">
        <ele>1424.3</ele>
        <time>2018-11-24T08:58:41Z</time>
      </trkpt>
      <trkpt lat="42.81014" lon="0.81619">
        <ele>1423.1</ele>
        <time>2018-11-24T08:58:43Z</time>
      </trkpt>
      <trkpt lat="42.81018" lon="0.81617">
        <ele>1424.3</ele>
        <time>2018-11-24T08:58:45Z</time>
      </trkpt>
      <trkpt lat="42.81022" lon="0.81615">
        <ele>1425.3</ele>
        <time>2018-11-24T08:58:47Z</time>
      </trkpt>
      <trkpt lat="42.81027" lon="0.81614">
        <ele>1426.6</ele>
        <time>2018-11-24T08:58:48Z</time>
      </trkpt>
      <trkpt lat="42.81031" lon="0.81612">
        <ele>1428.3</ele>
        <time>2018-11-24T08:58:50Z</time>
      </trkpt>
      <trkpt lat="42.81035" lon="0.8161">
        <ele>1429.9</ele>
        <time>2018-11-24T08:58:52Z</time>
      </trkpt>
      <trkpt lat="42.81039" lon="0.81608">
        <ele>1431.6</ele>
        <time>2018-11-24T08:58:54Z</time>
      </trkpt>
      <trkpt lat="42.81043" lon="0.81606">
        <ele>1433.2</ele>
        <time>2018-11-24T08:58:55Z</time>
      </trkpt>
      <trkpt lat="42.81047" lon="0.81604">
        <ele>1434.7</ele>
        <time>2018-11-24T08:58:57Z</time>
      </trkpt>
      <trkpt lat="42.81051" lon="0.81603">
        <ele>1436.4</ele>
        <time>2018-11-24T08:58:59Z</time>
      </trkpt>
      <trkpt lat="42.81055" lon="0.81601">
        <ele>1438</ele>
        <time>2018-11-24T08:59:00Z</time>
      </trkpt>
      <trkpt lat="42.81059" lon="0.81599">
        <ele>1440</ele>
        <time>2018-11-24T08:59:02Z</time>
      </trkpt>
      <trkpt lat="42.81063" lon="0.81597">
        <ele>1442.1</ele>
        <time>2018-11-24T08:59:04Z</time>
      </trkpt>
      <trkpt lat="42.81062" lon="0.81591">
        <ele>1438.2</ele>
        <time>2018-11-24T08:59:06Z</time>
      </trkpt>
      <trkpt lat="42.81061" lon="0.81586">
        <ele>1434.4</ele>
        <time>2018-11-24T08:59:07Z</time>
      </trkpt>
      <trkpt lat="42.8106" lon="0.8158">
        <ele>1430.8</ele>
        <time>2018-11-24T08:59:09Z</time>
      </trkpt>
      <trkpt lat="42.81058" lon="0.81575">
        <ele>1427.3</ele>
        <time>2018-11-24T08:59:11Z</time>
      </trkpt>
      <trkpt lat="42.81057" lon="0.81569">
        <ele>1423.9</ele>
        <time>2018-11-24T08:59:12Z</time>
      </trkpt>
      <trkpt lat="42.81056" lon="0.81564">
        <ele>1420.3</ele>
        <time>2018-11-24T08:59:14Z</time>
      </trkpt>
      <trkpt lat="42.81055" lon="0.81558">
        <ele>1416.8</ele>
        <time>2018-11-24T08:59:16Z</time>
      </trkpt>
      <trkpt lat="42.81051" lon="0.81559">
        <ele>1414.1</ele>
        <time>2018-11-24T08:59:17Z</time>
      </trkpt>
      <trkpt lat="42.81047" lon="0.81559">
        <ele>1411.4</ele>
        <time>2018-11-24T08:59:19Z</time>
      </trkpt>
      <trkpt lat="42.81044" lon="0.8156">
        <ele>1408.7</ele>
        <time>2018-11-24T08:59:20Z</time>
      </trkpt>
      <trkpt lat="42.8104" lon="0.8156">
        <ele>1406.2</ele>
        <time>2018-11-24T08:59:22Z</time>
      </trkpt>
      <trkpt lat="42.81036" lon="0.81561">
        <ele>1403.5</ele>
        <time>2018-11-24T08:59:23Z</time>
      </trkpt>
      <trkpt lat="42.81032" lon="0.8156">
        <ele>1399.4</ele>
        <time>2018-11-24T08:59:25Z</time>
      </trkpt>
      <trkpt lat="42.81028" lon="0.81558">
        <ele>1395.3</ele>
        <time>2018-11-24T08:59:27Z</time>
      </trkpt>
      <trkpt lat="42.81024" lon="0.81557">
        <ele>1391.2</ele>
        <time>2018-11-24T08:59:29Z</time>
      </trkpt>
      <trkpt lat="42.81019" lon="0.81555">
        <ele>1387.2</ele>
        <time>2018-11-24T08:59:30Z</time>
      </trkpt>
      <trkpt lat="42.81015" lon="0.81554">
        <ele>1383.3</ele>
        <time>2018-11-24T08:59:32Z</time>
      </trkpt>
      <trkpt lat="42.81011" lon="0.81552">
        <ele>1379.3</ele>
        <time>2018-11-24T08:59:34Z</time>
      </trkpt>
      <trkpt lat="42.81007" lon="0.81551">
        <ele>1375.8</ele>
        <time>2018-11-24T08:59:35Z</time>
      </trkpt>
      <trkpt lat="42.81004" lon="0.81549">
        <ele>1372.1</ele>
        <time>2018-11-24T08:59:37Z</time>
      </trkpt>
      <trkpt lat="42.81" lon="0.81548">
        <ele>1368.7</ele>
        <time>2018-11-24T08:59:38Z</time>
      </trkpt>
      <trkpt lat="42.80996" lon="0.81546">
        <ele>1366.1</ele>
        <time>2018-11-24T08:59:40Z</time>
      </trkpt>
      <trkpt lat="42.80992" lon="0.81545">
        <ele>1363.5</ele>
        <time>2018-11-24T08:59:42Z</time>
      </trkpt>
      <trkpt lat="42.80988" lon="0.81544">
        <ele>1360.9</ele>
        <time>2018-11-24T08:59:43Z</time>
      </trkpt>
      <trkpt lat="42.80984" lon="0.81544">
        <ele>1358.3</ele>
        <time>2018-11-24T08:59:45Z</time>
      </trkpt>
      <trkpt lat="42.8098" lon="0.81543">
        <ele>1355.8</ele>
        <time>2018-11-24T08:59:46Z</time>
      </trkpt>
      <trkpt lat="42.80976" lon="0.81542">
        <ele>1353.2</ele>
        <time>2018-11-24T08:59:48Z</time>
      </trkpt>
      <trkpt lat="42.80972" lon="0.81541">
        <ele>1350.6</ele>
        <time>2018-11-24T08:59:50Z</time>
      </trkpt>
      <trkpt lat="42.80972" lon="0.81535">
        <ele>1347.8</ele>
        <time>2018-11-24T08:59:51Z</time>
      </trkpt>
      <trkpt lat="42.80971" lon="0.81529">
        <ele>1345.1</ele>
        <time>2018-11-24T08:59:53Z</time>
      </trkpt>
      <trkpt lat="42.80971" lon="0.81523">
        <ele>1342.4</ele>
        <time>2018-11-24T08:59:55Z</time>
      </trkpt>
      <trkpt lat="42.80971" lon="0.81517">
        <ele>1339.9</ele>
        <time>2018-11-24T08:59:57Z</time>
      </trkpt>
      <trkpt lat="42.8097" lon="0.81511">
        <ele>1337.2</ele>
        <time>2018-11-24T08:59:59Z</time>
      </trkpt>
      <trkpt lat="42.8097" lon="0.81505">
        <ele>1334.4</ele>
        <time>2018-11-24T09:00:00Z</time>
      </trkpt>
      <trkpt lat="42.80972" lon="0.815">
        <ele>1333.6</ele>
        <time>2018-11-24T09:00:02Z</time>
      </trkpt>
      <trkpt lat="42.80973" lon="0.81495">
        <ele>1331.6</ele>
        <time>2018-11-24T09:00:04Z</time>
      </trkpt>
      <trkpt lat="42.80975" lon="0.8149">
        <ele>1329.6</ele>
        <time>2018-11-24T09:00:05Z</time>
      </trkpt>
      <trkpt lat="42.80977" lon="0.81485">
        <ele>1327.4</ele>
        <time>2018-11-24T09:00:07Z</time>
      </trkpt>
      <trkpt lat="42.80978" lon="0.8148">
        <ele>1325.3</ele>
        <time>2018-11-24T09:00:08Z</time>
      </trkpt>
      <trkpt lat="42.8098" lon="0.81475">
        <ele>1323.3</ele>
        <time>2018-11-24T09:00:10Z</time>
      </trkpt>
      <trkpt lat="42.80983" lon="0.81471">
        <ele>1322.9</ele>
        <time>2018-11-24T09:00:12Z</time>
      </trkpt>
      <trkpt lat="42.80987" lon="0.81468">
        <ele>1322.8</ele>
        <time>2018-11-24T09:00:14Z</time>
      </trkpt>
      <trkpt lat="42.8099" lon="0.81464">
        <ele>1323</ele>
        <time>2018-11-24T09:00:15Z</time>
      </trkpt>
      <trkpt lat="42.80994" lon="0.8146">
        <ele>1323.3</ele>
        <time>2018-11-24T09:00:17Z</time>
      </trkpt>
      <trkpt lat="42.80997" lon="0.81456">
        <ele>1324</ele>
        <time>2018-11-24T09:00:19Z</time>
      </trkpt>
      <trkpt lat="42.81" lon="0.81453">
        <ele>1324.8</ele>
        <time>2018-11-24T09:00:20Z</time>
      </trkpt>
      <trkpt lat="42.81004" lon="0.81449">
        <ele>1326.3</ele>
        <time>2018-11-24T09:00:22Z</time>
      </trkpt>
      <trkpt lat="42.81007" lon="0.81445">
        <ele>1327.9</ele>
        <time>2018-11-24T09:00:24Z</time>
      </trkpt>
      <trkpt lat="42.81008" lon="0.81439">
        <ele>1326</ele>
        <time>2018-11-24T09:00:26Z</time>
      </trkpt>
      <trkpt lat="42.81009" lon="0.81433">
        <ele>1323.9</ele>
        <time>2018-11-24T09:00:28Z</time>
      </trkpt>
      <trkpt lat="42.81009" lon="0.81427">
        <ele>1322</ele>
        <time>2018-11-24T09:00:29Z</time>
      </trkpt>
      <trkpt lat="42.8101" lon="0.81421">
        <ele>1320.1</ele>
        <time>2018-11-24T09:00:31Z</time>
      </trkpt>
      <trkpt lat="42.81011" lon="0.81416">
        <ele>1318.8</ele>
        <time>2018-11-24T09:00:33Z</time>
      </trkpt>
      <trkpt lat="42.81012" lon="0.81411">
        <ele>1318.5</ele>
        <time>2018-11-24T09:00:34Z</time>
      </trkpt>
      <trkpt lat="42.81013" lon="0.81406">
        <ele>1318.1</ele>
        <time>2018-11-24T09:00:36Z</time>
      </trkpt>
      <trkpt lat="42.81013" lon="0.814">
        <ele>1317.5</ele>
        <time>2018-11-24T09:00:37Z</time>
      </trkpt>
      <trkpt lat="42.81014" lon="0.81395">
        <ele>1317</ele>
        <time>2018-11-24T09:00:39Z</time>
      </trkpt>
      <trkpt lat="42.81015" lon="0.8139">
        <ele>1316.4</ele>
        <time>2018-11-24T09:00:40Z</time>
      </trkpt>
      <trkpt lat="42.81016" lon="0.81385">
        <ele>1315.6</ele>
        <time>2018-11-24T09:00:42Z</time>
      </trkpt>
      <trkpt lat="42.81016" lon="0.81379">
        <ele>1313.8</ele>
        <time>2018-11-24T09:00:44Z</time>
      </trkpt>
      <trkpt lat="42.81017" lon="0.81373">
        <ele>1311.9</ele>
        <time>2018-11-24T09:00:45Z</time>
      </trkpt>
      <trkpt lat="42.81017" lon="0.81367">
        <ele>1310</ele>
        <time>2018-11-24T09:00:47Z</time>
      </trkpt>
      <trkpt lat="42.81017" lon="0.81362">
        <ele>1308</ele>
        <time>2018-11-24T09:00:49Z</time>
      </trkpt>
      <trkpt lat="42.81017" lon="0.81356">
        <ele>1305.3</ele>
        <time>2018-11-24T09:00:51Z</time>
      </trkpt>
      <trkpt lat="42.81018" lon="0.8135">
        <ele>1302.6</ele>
        <time>2018-11-24T09:00:52Z</time>
      </trkpt>
      <trkpt lat="42.81018" lon="0.81344">
        <ele>1299.7</ele>
        <time>2018-11-24T09:00:54Z</time>
      </trkpt>
      <trkpt lat="42.8102" lon="0.81339">
        <ele>1298.1</ele>
        <time>2018-11-24T09:00:56Z</time>
      </trkpt>
      <trkpt lat="42.81022" lon="0.81335">
        <ele>1296.3</ele>
        <time>2018-11-24T09:00:57Z</time>
      </trkpt>
      <trkpt lat="42.81023" lon="0.8133">
        <ele>1294.4</ele>
        <time>2018-11-24T09:00:59Z</time>
      </trkpt>
      <trkpt lat="42.81025" lon="0.81326">
        <ele>1292.2</ele>
        <time>2018-11-24T09:01:00Z</time>
      </trkpt>
      <trkpt lat="42.81027" lon="0.81321">
        <ele>1289.8</ele>
        <time>2018-11-24T09:01:02Z</time>
      </trkpt>
      <trkpt lat="42.81029" lon="0.81316">
        <ele>1287.1</ele>
        <time>2018-11-24T09:01:03Z</time>
      </trkpt>
      <trkpt lat="42.8103" lon="0.81311">
        <ele>1284.3</ele>
        <time>2018-11-24T09:01:05Z</time>
      </trkpt>
      <trkpt lat="42.81032" lon="0.81306">
        <ele>1281.2</ele>
        <time>2018-11-24T09:01:06Z</time>
      </trkpt>
      <trkpt lat="42.81033" lon="0.81301">
        <ele>1278.5</ele>
        <time>2018-11-24T09:01:08Z</time>
      </trkpt>
      <trkpt lat="42.81037" lon="0.81302">
        <ele>1280</ele>
        <time>2018-11-24T09:01:10Z</time>
      </trkpt>
      <trkpt lat="42.81042" lon="0.81303">
        <ele>1281.5</ele>
        <time>2018-11-24T09:01:11Z</time>
      </trkpt>
      <trkpt lat="42.81046" lon="0.81303">
        <ele>1283</ele>
        <time>2018-11-24T09:01:13Z</time>
      </trkpt>
      <trkpt lat="42.8105" lon="0.81304">
        <ele>1284.5</ele>
        <time>2018-11-24T09:01:15Z</time>
      </trkpt>
      <trkpt lat="42.81054" lon="0.81305">
        <ele>1285.8</ele>
        <time>2018-11-24T09:01:16Z</time>
      </trkpt>
      <trkpt lat="42.81058" lon="0.81305">
        <ele>1287.5</ele>
        <time>2018-11-24T09:01:18Z</time>
      </trkpt>
      <trkpt lat="42.81061" lon="0.81306">
        <ele>1289.2</ele>
        <time>2018-11-24T09:01:19Z</time>
      </trkpt>
      <trkpt lat="42.81065" lon="0.81306">
        <ele>1291</ele>
        <time>2018-11-24T09:01:21Z</time>
      </trkpt>
      <trkpt lat="42.81069" lon="0.81307">
        <ele>1292.8</ele>
        <time>2018-11-24T09:01:23Z</time>
      </trkpt>
      <trkpt lat="42.81072" lon="0.81306">
        <ele>1293.2</ele>
        <time>2018-11-24T09:01:24Z</time>
      </trkpt>
      <trkpt lat="42.81076" lon="0.81306">
        <ele>1293.7</ele>
        <time>2018-11-24T09:01:25Z</time>
      </trkpt>
      <trkpt lat="42.81079" lon="0.81305">
        <ele>1294.1</ele>
        <time>2018-11-24T09:01:27Z</time>
      </trkpt>
      <trkpt lat="42.81082" lon="0.81303">
        <ele>1293.3</ele>
        <time>2018-11-24T09:01:28Z</time>
      </trkpt>
      <trkpt lat="42.81085" lon="0.81301">
        <ele>1292</ele>
        <time>2018-11-24T09:01:29Z</time>
      </trkpt>
      <trkpt lat="42.81088" lon="0.81298">
        <ele>1290.6</ele>
        <time>2018-11-24T09:01:31Z</time>
      </trkpt>
      <trkpt lat="42.81091" lon="0.81296">
        <ele>1289.1</ele>
        <time>2018-11-24T09:01:32Z</time>
      </trkpt>
      <trkpt lat="42.81094" lon="0.81293">
        <ele>1287.4</ele>
        <time>2018-11-24T09:01:33Z</time>
      </trkpt>
      <trkpt lat="42.81097" lon="0.81291">
        <ele>1285.8</ele>
        <time>2018-11-24T09:01:35Z</time>
      </trkpt>
      <trkpt lat="42.811" lon="0.81288">
        <ele>1284</ele>
        <time>2018-11-24T09:01:36Z</time>
      </trkpt>
      <trkpt lat="42.81103" lon="0.81288">
        <ele>1284.6</ele>
        <time>2018-11-24T09:01:38Z</time>
      </trkpt>
      <trkpt lat="42.81107" lon="0.81288">
        <ele>1285.4</ele>
        <time>2018-11-24T09:01:39Z</time>
      </trkpt>
      <trkpt lat="42.8111" lon="0.81288">
        <ele>1286</ele>
        <time>2018-11-24T09:01:40Z</time>
      </trkpt>
      <trkpt lat="42.8111" lon="0.81284">
        <ele>1282.6</ele>
        <time>2018-11-24T09:01:42Z</time>
      </trkpt>
      <trkpt lat="42.81109" lon="0.8128">
        <ele>1279.3</ele>
        <time>2018-11-24T09:01:43Z</time>
      </trkpt>
      <trkpt lat="42.81109" lon="0.81275">
        <ele>1275.5</ele>
        <time>2018-11-24T09:01:44Z</time>
      </trkpt>
      <trkpt lat="42.81109" lon="0.8127">
        <ele>1271.4</ele>
        <time>2018-11-24T09:01:46Z</time>
      </trkpt>
      <trkpt lat="42.81109" lon="0.81266">
        <ele>1268.1</ele>
        <time>2018-11-24T09:01:47Z</time>
      </trkpt>
      <trkpt lat="42.81109" lon="0.81261">
        <ele>1264.6</ele>
        <time>2018-11-24T09:01:48Z</time>
      </trkpt>
      <trkpt lat="42.81109" lon="0.81257">
        <ele>1261.2</ele>
        <time>2018-11-24T09:01:49Z</time>
      </trkpt>
      <trkpt lat="42.81111" lon="0.81253">
        <ele>1258.7</ele>
        <time>2018-11-24T09:01:51Z</time>
      </trkpt>
      <trkpt lat="42.81113" lon="0.8125">
        <ele>1256.2</ele>
        <time>2018-11-24T09:01:52Z</time>
      </trkpt>
      <trkpt lat="42.81115" lon="0.81246">
        <ele>1254.2</ele>
        <time>2018-11-24T09:01:54Z</time>
      </trkpt>
      <trkpt lat="42.81117" lon="0.81242">
        <ele>1252.1</ele>
        <time>2018-11-24T09:01:55Z</time>
      </trkpt>
      <trkpt lat="42.81119" lon="0.81238">
        <ele>1249.4</ele>
        <time>2018-11-24T09:01:56Z</time>
      </trkpt>
      <trkpt lat="42.81121" lon="0.81234">
        <ele>1246.7</ele>
        <time>2018-11-24T09:01:58Z</time>
      </trkpt>
      <trkpt lat="42.81122" lon="0.81229">
        <ele>1243.9</ele>
        <time>2018-11-24T09:01:59Z</time>
      </trkpt>
      <trkpt lat="42.81124" lon="0.81225">
        <ele>1241.1</ele>
        <time>2018-11-24T09:02:01Z</time>
      </trkpt>
      <trkpt lat="42.81127" lon="0.81227">
        <ele>1242.6</ele>
        <time>2018-11-24T09:02:02Z</time>
      </trkpt>
      <trkpt lat="42.8113" lon="0.81228">
        <ele>1244</ele>
        <time>2018-11-24T09:02:03Z</time>
      </trkpt>
      <trkpt lat="42.81133" lon="0.8123">
        <ele>1245.7</ele>
        <time>2018-11-24T09:02:05Z</time>
      </trkpt>
      <trkpt lat="42.81137" lon="0.8123">
        <ele>1246.1</ele>
        <time>2018-11-24T09:02:06Z</time>
      </trkpt>
      <trkpt lat="42.8114" lon="0.8123">
        <ele>1246.6</ele>
        <time>2018-11-24T09:02:07Z</time>
      </trkpt>
      <trkpt lat="42.81144" lon="0.8123">
        <ele>1246.9</ele>
        <time>2018-11-24T09:02:09Z</time>
      </trkpt>
      <trkpt lat="42.81147" lon="0.8123">
        <ele>1247.3</ele>
        <time>2018-11-24T09:02:10Z</time>
      </trkpt>
      <trkpt lat="42.81151" lon="0.81232">
        <ele>1249.1</ele>
        <time>2018-11-24T09:02:12Z</time>
      </trkpt>
      <trkpt lat="42.81155" lon="0.81233">
        <ele>1250.8</ele>
        <time>2018-11-24T09:02:14Z</time>
      </trkpt>
      <trkpt lat="42.81159" lon="0.81235">
        <ele>1252.4</ele>
        <time>2018-11-24T09:02:15Z</time>
      </trkpt>
      <trkpt lat="42.81162" lon="0.81234">
        <ele>1251.7</ele>
        <time>2018-11-24T09:02:16Z</time>
      </trkpt>
      <trkpt lat="42.81165" lon="0.81232">
        <ele>1250.9</ele>
        <time>2018-11-24T09:02:18Z</time>
      </trkpt>
      <trkpt lat="42.81168" lon="0.81231">
        <ele>1250.4</ele>
        <time>2018-11-24T09:02:19Z</time>
      </trkpt>
      <trkpt lat="42.81166" lon="0.81227">
        <ele>1246.5</ele>
        <time>2018-11-24T09:02:20Z</time>
      </trkpt>
      <trkpt lat="42.81165" lon="0.81222">
        <ele>1242.9</ele>
        <time>2018-11-24T09:02:22Z</time>
      </trkpt>
      <trkpt lat="42.81163" lon="0.81218">
        <ele>1240</ele>
        <time>2018-11-24T09:02:23Z</time>
      </trkpt>
      <trkpt lat="42.81161" lon="0.81214">
        <ele>1237.4</ele>
        <time>2018-11-24T09:02:25Z</time>
      </trkpt>
      <trkpt lat="42.8116" lon="0.8121">
        <ele>1234.7</ele>
        <time>2018-11-24T09:02:26Z</time>
      </trkpt>
      <trkpt lat="42.81158" lon="0.81206">
        <ele>1232.1</ele>
        <time>2018-11-24T09:02:27Z</time>
      </trkpt>
      <trkpt lat="42.81156" lon="0.81202">
        <ele>1229.5</ele>
        <time>2018-11-24T09:02:29Z</time>
      </trkpt>
      <trkpt lat="42.81156" lon="0.81197">
        <ele>1226.7</ele>
        <time>2018-11-24T09:02:30Z</time>
      </trkpt>
      <trkpt lat="42.81155" lon="0.81193">
        <ele>1223.8</ele>
        <time>2018-11-24T09:02:32Z</time>
      </trkpt>
      <trkpt lat="42.81155" lon="0.81188">
        <ele>1221.1</ele>
        <time>2018-11-24T09:02:33Z</time>
      </trkpt>
      <trkpt lat="42.81156" lon="0.81185">
        <ele>1219.5</ele>
        <time>2018-11-24T09:02:34Z</time>
      </trkpt>
      <trkpt lat="42.81156" lon="0.81182">
        <ele>1217.9</ele>
        <time>2018-11-24T09:02:35Z</time>
      </trkpt>
      <trkpt lat="42.81157" lon="0.81177">
        <ele>1214.9</ele>
        <time>2018-11-24T09:02:36Z</time>
      </trkpt>
      <trkpt lat="42.81157" lon="0.81171">
        <ele>1211.8</ele>
        <time>2018-11-24T09:02:38Z</time>
      </trkpt>
      <trkpt lat="42.81159" lon="0.81166">
        <ele>1209.1</ele>
        <time>2018-11-24T09:02:40Z</time>
      </trkpt>
      <trkpt lat="42.8116" lon="0.81161">
        <ele>1206.7</ele>
        <time>2018-11-24T09:02:41Z</time>
      </trkpt>
      <trkpt lat="42.81163" lon="0.81159">
        <ele>1205.8</ele>
        <time>2018-11-24T09:02:42Z</time>
      </trkpt>
      <trkpt lat="42.81165" lon="0.81157">
        <ele>1205</ele>
        <time>2018-11-24T09:02:43Z</time>
      </trkpt>
      <trkpt lat="42.81168" lon="0.81154">
        <ele>1203.7</ele>
        <time>2018-11-24T09:02:45Z</time>
      </trkpt>
      <trkpt lat="42.81171" lon="0.8115">
        <ele>1202.3</ele>
        <time>2018-11-24T09:02:47Z</time>
      </trkpt>
      <trkpt lat="42.81173" lon="0.81146">
        <ele>1200.2</ele>
        <time>2018-11-24T09:02:48Z</time>
      </trkpt>
      <trkpt lat="42.81174" lon="0.81141">
        <ele>1198.1</ele>
        <time>2018-11-24T09:02:50Z</time>
      </trkpt>
      <trkpt lat="42.81174" lon="0.81136">
        <ele>1196</ele>
        <time>2018-11-24T09:02:51Z</time>
      </trkpt>
      <trkpt lat="42.81175" lon="0.81131">
        <ele>1194.1</ele>
        <time>2018-11-24T09:02:52Z</time>
      </trkpt>
      <trkpt lat="42.81175" lon="0.81126">
        <ele>1192.2</ele>
        <time>2018-11-24T09:02:54Z</time>
      </trkpt>
      <trkpt lat="42.81175" lon="0.81122">
        <ele>1190.6</ele>
        <time>2018-11-24T09:02:55Z</time>
      </trkpt>
      <trkpt lat="42.81175" lon="0.81117">
        <ele>1188.7</ele>
        <time>2018-11-24T09:02:56Z</time>
      </trkpt>
      <trkpt lat="42.81175" lon="0.81113">
        <ele>1187</ele>
        <time>2018-11-24T09:02:58Z</time>
      </trkpt>
      <trkpt lat="42.81176" lon="0.81109">
        <ele>1185.1</ele>
        <time>2018-11-24T09:02:59Z</time>
      </trkpt>
      <trkpt lat="42.81178" lon="0.81104">
        <ele>1182.5</ele>
        <time>2018-11-24T09:03:01Z</time>
      </trkpt>
      <trkpt lat="42.81179" lon="0.811">
        <ele>1180</ele>
        <time>2018-11-24T09:03:02Z</time>
      </trkpt>
      <trkpt lat="42.81182" lon="0.81098">
        <ele>1179</ele>
        <time>2018-11-24T09:03:03Z</time>
      </trkpt>
      <trkpt lat="42.81185" lon="0.81096">
        <ele>1178</ele>
        <time>2018-11-24T09:03:05Z</time>
      </trkpt>
      <trkpt lat="42.81188" lon="0.81094">
        <ele>1176.9</ele>
        <time>2018-11-24T09:03:06Z</time>
      </trkpt>
      <trkpt lat="42.81192" lon="0.81092">
        <ele>1176</ele>
        <time>2018-11-24T09:03:07Z</time>
      </trkpt>
      <trkpt lat="42.81195" lon="0.8109">
        <ele>1174.9</ele>
        <time>2018-11-24T09:03:09Z</time>
      </trkpt>
      <trkpt lat="42.81199" lon="0.81088">
        <ele>1173.3</ele>
        <time>2018-11-24T09:03:10Z</time>
      </trkpt>
      <trkpt lat="42.81202" lon="0.81086">
        <ele>1171.6</ele>
        <time>2018-11-24T09:03:12Z</time>
      </trkpt>
      <trkpt lat="42.81206" lon="0.81085">
        <ele>1170.6</ele>
        <time>2018-11-24T09:03:14Z</time>
      </trkpt>
      <trkpt lat="42.8121" lon="0.81085">
        <ele>1169.7</ele>
        <time>2018-11-24T09:03:15Z</time>
      </trkpt>
      <trkpt lat="42.81213" lon="0.81084">
        <ele>1168.9</ele>
        <time>2018-11-24T09:03:17Z</time>
      </trkpt>
      <trkpt lat="42.81217" lon="0.81084">
        <ele>1168</ele>
        <time>2018-11-24T09:03:18Z</time>
      </trkpt>
      <trkpt lat="42.81221" lon="0.81083">
        <ele>1167.1</ele>
        <time>2018-11-24T09:03:20Z</time>
      </trkpt>
      <trkpt lat="42.81225" lon="0.81084">
        <ele>1167</ele>
        <time>2018-11-24T09:03:21Z</time>
      </trkpt>
      <trkpt lat="42.81229" lon="0.81085">
        <ele>1166.8</ele>
        <time>2018-11-24T09:03:23Z</time>
      </trkpt>
      <trkpt lat="42.81233" lon="0.81085">
        <ele>1166.7</ele>
        <time>2018-11-24T09:03:24Z</time>
      </trkpt>
      <trkpt lat="42.81237" lon="0.81086">
        <ele>1166.8</ele>
        <time>2018-11-24T09:03:26Z</time>
      </trkpt>
      <trkpt lat="42.8124" lon="0.81088">
        <ele>1167.5</ele>
        <time>2018-11-24T09:03:27Z</time>
      </trkpt>
      <trkpt lat="42.81243" lon="0.81089">
        <ele>1168.1</ele>
        <time>2018-11-24T09:03:29Z</time>
      </trkpt>
      <trkpt lat="42.81246" lon="0.81091">
        <ele>1168.8</ele>
        <time>2018-11-24T09:03:30Z</time>
      </trkpt>
      <trkpt lat="42.8125" lon="0.81094">
        <ele>1170.5</ele>
        <time>2018-11-24T09:03:32Z</time>
      </trkpt>
      <trkpt lat="42.81253" lon="0.81097">
        <ele>1174</ele>
        <time>2018-11-24T09:03:33Z</time>
      </trkpt>
      <trkpt lat="42.81257" lon="0.81099">
        <ele>1177.3</ele>
        <time>2018-11-24T09:03:35Z</time>
      </trkpt>
      <trkpt lat="42.81261" lon="0.811">
        <ele>1180.7</ele>
        <time>2018-11-24T09:03:37Z</time>
      </trkpt>
      <trkpt lat="42.81264" lon="0.81103">
        <ele>1184.8</ele>
        <time>2018-11-24T09:03:38Z</time>
      </trkpt>
      <trkpt lat="42.81266" lon="0.81106">
        <ele>1189.1</ele>
        <time>2018-11-24T09:03:39Z</time>
      </trkpt>
      <trkpt lat="42.8127" lon="0.81108">
        <ele>1193.5</ele>
        <time>2018-11-24T09:03:41Z</time>
      </trkpt>
      <trkpt lat="42.81274" lon="0.8111">
        <ele>1198.2</ele>
        <time>2018-11-24T09:03:43Z</time>
      </trkpt>
      <trkpt lat="42.81277" lon="0.81114">
        <ele>1203.3</ele>
        <time>2018-11-24T09:03:44Z</time>
      </trkpt>
      <trkpt lat="42.8128" lon="0.81117">
        <ele>1207.6</ele>
        <time>2018-11-24T09:03:46Z</time>
      </trkpt>
      <trkpt lat="42.81283" lon="0.81121">
        <ele>1212.2</ele>
        <time>2018-11-24T09:03:48Z</time>
      </trkpt>
      <trkpt lat="42.81284" lon="0.81126">
        <ele>1216.2</ele>
        <time>2018-11-24T09:03:49Z</time>
      </trkpt>
      <trkpt lat="42.81285" lon="0.8113">
        <ele>1220.5</ele>
        <time>2018-11-24T09:03:50Z</time>
      </trkpt>
      <trkpt lat="42.81287" lon="0.81135">
        <ele>1225.3</ele>
        <time>2018-11-24T09:03:52Z</time>
      </trkpt>
      <trkpt lat="42.81288" lon="0.81139">
        <ele>1230.3</ele>
        <time>2018-11-24T09:03:53Z</time>
      </trkpt>
      <trkpt lat="42.8129" lon="0.81144">
        <ele>1234.9</ele>
        <time>2018-11-24T09:03:55Z</time>
      </trkpt>
      <trkpt lat="42.81292" lon="0.8114">
        <ele>1234.1</ele>
        <time>2018-11-24T09:03:56Z</time>
      </trkpt>
      <trkpt lat="42.81295" lon="0.81137">
        <ele>1232.9</ele>
        <time>2018-11-24T09:03:58Z</time>
      </trkpt>
      <trkpt lat="42.81297" lon="0.81133">
        <ele>1231.1</ele>
        <time>2018-11-24T09:03:59Z</time>
      </trkpt>
      <trkpt lat="42.81298" lon="0.81128">
        <ele>1226.9</ele>
        <time>2018-11-24T09:04:01Z</time>
      </trkpt>
      <trkpt lat="42.81299" lon="0.81122">
        <ele>1222.7</ele>
        <time>2018-11-24T09:04:02Z</time>
      </trkpt>
      <trkpt lat="42.81301" lon="0.81117">
        <ele>1218.1</ele>
        <time>2018-11-24T09:04:04Z</time>
      </trkpt>
      <trkpt lat="42.81302" lon="0.81111">
        <ele>1213.5</ele>
        <time>2018-11-24T09:04:06Z</time>
      </trkpt>
      <trkpt lat="42.81303" lon="0.81106">
        <ele>1208.2</ele>
        <time>2018-11-24T09:04:07Z</time>
      </trkpt>
      <trkpt lat="42.81304" lon="0.811">
        <ele>1201.8</ele>
        <time>2018-11-24T09:04:09Z</time>
      </trkpt>
      <trkpt lat="42.81304" lon="0.81094">
        <ele>1195.2</ele>
        <time>2018-11-24T09:04:11Z</time>
      </trkpt>
      <trkpt lat="42.81305" lon="0.81088">
        <ele>1188.8</ele>
        <time>2018-11-24T09:04:13Z</time>
      </trkpt>
      <trkpt lat="42.81305" lon="0.81082">
        <ele>1182.4</ele>
        <time>2018-11-24T09:04:15Z</time>
      </trkpt>
      <trkpt lat="42.81306" lon="0.81076">
        <ele>1176.4</ele>
        <time>2018-11-24T09:04:16Z</time>
      </trkpt>
      <trkpt lat="42.81306" lon="0.8107">
        <ele>1170.3</ele>
        <time>2018-11-24T09:04:18Z</time>
      </trkpt>
      <trkpt lat="42.81309" lon="0.81066">
        <ele>1167.7</ele>
        <time>2018-11-24T09:04:20Z</time>
      </trkpt>
      <trkpt lat="42.81312" lon="0.81062">
        <ele>1165.1</ele>
        <time>2018-11-24T09:04:21Z</time>
      </trkpt>
      <trkpt lat="42.81315" lon="0.81059">
        <ele>1162.7</ele>
        <time>2018-11-24T09:04:23Z</time>
      </trkpt>
      <trkpt lat="42.81318" lon="0.81055">
        <ele>1160.3</ele>
        <time>2018-11-24T09:04:25Z</time>
      </trkpt>
      <trkpt lat="42.81321" lon="0.81051">
        <ele>1158.5</ele>
        <time>2018-11-24T09:04:26Z</time>
      </trkpt>
      <trkpt lat="42.81324" lon="0.81048">
        <ele>1157.6</ele>
        <time>2018-11-24T09:04:28Z</time>
      </trkpt>
      <trkpt lat="42.81327" lon="0.81045">
        <ele>1156.6</ele>
        <time>2018-11-24T09:04:29Z</time>
      </trkpt>
      <trkpt lat="42.81331" lon="0.81042">
        <ele>1155.6</ele>
        <time>2018-11-24T09:04:31Z</time>
      </trkpt>
      <trkpt lat="42.81334" lon="0.81039">
        <ele>1154.4</ele>
        <time>2018-11-24T09:04:32Z</time>
      </trkpt>
      <trkpt lat="42.81337" lon="0.81036">
        <ele>1152.9</ele>
        <time>2018-11-24T09:04:34Z</time>
      </trkpt>
      <trkpt lat="42.8134" lon="0.81033">
        <ele>1151.1</ele>
        <time>2018-11-24T09:04:36Z</time>
      </trkpt>
      <trkpt lat="42.81342" lon="0.81029">
        <ele>1148.3</ele>
        <time>2018-11-24T09:04:37Z</time>
      </trkpt>
      <trkpt lat="42.81345" lon="0.81025">
        <ele>1145.8</ele>
        <time>2018-11-24T09:04:39Z</time>
      </trkpt>
      <trkpt lat="42.81347" lon="0.8102">
        <ele>1143.6</ele>
        <time>2018-11-24T09:04:40Z</time>
      </trkpt>
      <trkpt lat="42.8135" lon="0.81016">
        <ele>1141.5</ele>
        <time>2018-11-24T09:04:42Z</time>
      </trkpt>
      <trkpt lat="42.81352" lon="0.81012">
        <ele>1139.1</ele>
        <time>2018-11-24T09:04:43Z</time>
      </trkpt>
      <trkpt lat="42.81354" lon="0.81007">
        <ele>1136.3</ele>
        <time>2018-11-24T09:04:45Z</time>
      </trkpt>
      <trkpt lat="42.81355" lon="0.81002">
        <ele>1133.4</ele>
        <time>2018-11-24T09:04:47Z</time>
      </trkpt>
      <trkpt lat="42.81357" lon="0.80997">
        <ele>1130.7</ele>
        <time>2018-11-24T09:04:48Z</time>
      </trkpt>
      <trkpt lat="42.81359" lon="0.80993">
        <ele>1128.2</ele>
        <time>2018-11-24T09:04:50Z</time>
      </trkpt>
      <trkpt lat="42.81361" lon="0.80988">
        <ele>1125.5</ele>
        <time>2018-11-24T09:04:51Z</time>
      </trkpt>
      <trkpt lat="42.81362" lon="0.80983">
        <ele>1122.6</ele>
        <time>2018-11-24T09:04:53Z</time>
      </trkpt>
      <trkpt lat="42.81364" lon="0.80978">
        <ele>1119.6</ele>
        <time>2018-11-24T09:04:54Z</time>
      </trkpt>
      <trkpt lat="42.81367" lon="0.80973">
        <ele>1116.9</ele>
        <time>2018-11-24T09:04:56Z</time>
      </trkpt>
      <trkpt lat="42.8137" lon="0.80969">
        <ele>1115.1</ele>
        <time>2018-11-24T09:04:58Z</time>
      </trkpt>
      <trkpt lat="42.81372" lon="0.80964">
        <ele>1113.5</ele>
        <time>2018-11-24T09:05:00Z</time>
      </trkpt>
      <trkpt lat="42.81375" lon="0.8096">
        <ele>1112</ele>
        <time>2018-11-24T09:05:01Z</time>
      </trkpt>
      <trkpt lat="42.81378" lon="0.80955">
        <ele>1110.4</ele>
        <time>2018-11-24T09:05:03Z</time>
      </trkpt>
      <trkpt lat="42.81381" lon="0.80951">
        <ele>1109</ele>
        <time>2018-11-24T09:05:05Z</time>
      </trkpt>
      <trkpt lat="42.81384" lon="0.80947">
        <ele>1107.6</ele>
        <time>2018-11-24T09:05:07Z</time>
      </trkpt>
      <trkpt lat="42.81386" lon="0.80942">
        <ele>1106.3</ele>
        <time>2018-11-24T09:05:08Z</time>
      </trkpt>
      <trkpt lat="42.81389" lon="0.80938">
        <ele>1104.7</ele>
        <time>2018-11-24T09:05:10Z</time>
      </trkpt>
      <trkpt lat="42.81392" lon="0.80935">
        <ele>1103.6</ele>
        <time>2018-11-24T09:05:11Z</time>
      </trkpt>
      <trkpt lat="42.81395" lon="0.80932">
        <ele>1102.3</ele>
        <time>2018-11-24T09:05:13Z</time>
      </trkpt>
      <trkpt lat="42.81399" lon="0.8093">
        <ele>1101.1</ele>
        <time>2018-11-24T09:05:14Z</time>
      </trkpt>
      <trkpt lat="42.81402" lon="0.80927">
        <ele>1100</ele>
        <time>2018-11-24T09:05:16Z</time>
      </trkpt>
      <trkpt lat="42.81405" lon="0.80924">
        <ele>1098.6</ele>
        <time>2018-11-24T09:05:17Z</time>
      </trkpt>
      <trkpt lat="42.81409" lon="0.80923">
        <ele>1098</ele>
        <time>2018-11-24T09:05:19Z</time>
      </trkpt>
      <trkpt lat="42.81414" lon="0.80922">
        <ele>1097.4</ele>
        <time>2018-11-24T09:05:21Z</time>
      </trkpt>
      <trkpt lat="42.81418" lon="0.80921">
        <ele>1096.8</ele>
        <time>2018-11-24T09:05:23Z</time>
      </trkpt>
      <trkpt lat="42.81422" lon="0.8092">
        <ele>1096.6</ele>
        <time>2018-11-24T09:05:24Z</time>
      </trkpt>
      <trkpt lat="42.81426" lon="0.80919">
        <ele>1096.5</ele>
        <time>2018-11-24T09:05:26Z</time>
      </trkpt>
      <trkpt lat="42.81429" lon="0.80919">
        <ele>1096.2</ele>
        <time>2018-11-24T09:05:27Z</time>
      </trkpt>
      <trkpt lat="42.81433" lon="0.80918">
        <ele>1096</ele>
        <time>2018-11-24T09:05:29Z</time>
      </trkpt>
      <trkpt lat="42.81436" lon="0.80917">
        <ele>1095.8</ele>
        <time>2018-11-24T09:05:30Z</time>
      </trkpt>
      <trkpt lat="42.8144" lon="0.80915">
        <ele>1095.3</ele>
        <time>2018-11-24T09:05:32Z</time>
      </trkpt>
      <trkpt lat="42.81444" lon="0.80913">
        <ele>1094.5</ele>
        <time>2018-11-24T09:05:33Z</time>
      </trkpt>
      <trkpt lat="42.81448" lon="0.80911">
        <ele>1094.2</ele>
        <time>2018-11-24T09:05:35Z</time>
      </trkpt>
      <trkpt lat="42.81452" lon="0.80909">
        <ele>1094</ele>
        <time>2018-11-24T09:05:37Z</time>
      </trkpt>
      <trkpt lat="42.81456" lon="0.80908">
        <ele>1094</ele>
        <time>2018-11-24T09:05:39Z</time>
      </trkpt>
      <trkpt lat="42.8146" lon="0.80906">
        <ele>1094</ele>
        <time>2018-11-24T09:05:40Z</time>
      </trkpt>
      <trkpt lat="42.81464" lon="0.80905">
        <ele>1093.9</ele>
        <time>2018-11-24T09:05:42Z</time>
      </trkpt>
      <trkpt lat="42.81467" lon="0.80904">
        <ele>1093.8</ele>
        <time>2018-11-24T09:05:43Z</time>
      </trkpt>
      <trkpt lat="42.81471" lon="0.80903">
        <ele>1093.8</ele>
        <time>2018-11-24T09:05:45Z</time>
      </trkpt>
      <trkpt lat="42.81474" lon="0.80901">
        <ele>1093.2</ele>
        <time>2018-11-24T09:05:46Z</time>
      </trkpt>
      <trkpt lat="42.81477" lon="0.809">
        <ele>1092.4</ele>
        <time>2018-11-24T09:05:47Z</time>
      </trkpt>
      <trkpt lat="42.81481" lon="0.80899">
        <ele>1091.6</ele>
        <time>2018-11-24T09:05:49Z</time>
      </trkpt>
      <trkpt lat="42.81484" lon="0.80898">
        <ele>1090.9</ele>
        <time>2018-11-24T09:05:50Z</time>
      </trkpt>
      <trkpt lat="42.81488" lon="0.80896">
        <ele>1090.4</ele>
        <time>2018-11-24T09:05:52Z</time>
      </trkpt>
      <trkpt lat="42.81491" lon="0.80895">
        <ele>1089.8</ele>
        <time>2018-11-24T09:05:53Z</time>
      </trkpt>
      <trkpt lat="42.81495" lon="0.80895">
        <ele>1089.5</ele>
        <time>2018-11-24T09:05:55Z</time>
      </trkpt>
      <trkpt lat="42.81498" lon="0.80894">
        <ele>1089.2</ele>
        <time>2018-11-24T09:05:56Z</time>
      </trkpt>
      <trkpt lat="42.81502" lon="0.80894">
        <ele>1088.6</ele>
        <time>2018-11-24T09:05:57Z</time>
      </trkpt>
      <trkpt lat="42.81506" lon="0.80893">
        <ele>1086.8</ele>
        <time>2018-11-24T09:05:59Z</time>
      </trkpt>
      <trkpt lat="42.81511" lon="0.80891">
        <ele>1085.1</ele>
        <time>2018-11-24T09:06:01Z</time>
      </trkpt>
      <trkpt lat="42.81515" lon="0.8089">
        <ele>1083.4</ele>
        <time>2018-11-24T09:06:03Z</time>
      </trkpt>
      <trkpt lat="42.81518" lon="0.8089">
        <ele>1082.3</ele>
        <time>2018-11-24T09:06:04Z</time>
      </trkpt>
      <trkpt lat="42.81522" lon="0.8089">
        <ele>1081.3</ele>
        <time>2018-11-24T09:06:05Z</time>
      </trkpt>
      <trkpt lat="42.81525" lon="0.8089">
        <ele>1080.2</ele>
        <time>2018-11-24T09:06:07Z</time>
      </trkpt>
      <trkpt lat="42.81528" lon="0.80889">
        <ele>1079.2</ele>
        <time>2018-11-24T09:06:08Z</time>
      </trkpt>
      <trkpt lat="42.81531" lon="0.80889">
        <ele>1078.5</ele>
        <time>2018-11-24T09:06:09Z</time>
      </trkpt>
      <trkpt lat="42.81534" lon="0.80888">
        <ele>1077.9</ele>
        <time>2018-11-24T09:06:10Z</time>
      </trkpt>
      <trkpt lat="42.81538" lon="0.80887">
        <ele>1076.9</ele>
        <time>2018-11-24T09:06:12Z</time>
      </trkpt>
      <trkpt lat="42.81543" lon="0.80886">
        <ele>1076</ele>
        <time>2018-11-24T09:06:14Z</time>
      </trkpt>
      <trkpt lat="42.81547" lon="0.80885">
        <ele>1075.2</ele>
        <time>2018-11-24T09:06:16Z</time>
      </trkpt>
      <trkpt lat="42.81551" lon="0.80884">
        <ele>1074.4</ele>
        <time>2018-11-24T09:06:17Z</time>
      </trkpt>
      <trkpt lat="42.81554" lon="0.80883">
        <ele>1073.7</ele>
        <time>2018-11-24T09:06:19Z</time>
      </trkpt>
      <trkpt lat="42.81558" lon="0.80882">
        <ele>1072.9</ele>
        <time>2018-11-24T09:06:20Z</time>
      </trkpt>
      <trkpt lat="42.81562" lon="0.80882">
        <ele>1072.2</ele>
        <time>2018-11-24T09:06:22Z</time>
      </trkpt>
      <trkpt lat="42.81565" lon="0.80883">
        <ele>1071.6</ele>
        <time>2018-11-24T09:06:23Z</time>
      </trkpt>
      <trkpt lat="42.81569" lon="0.80883">
        <ele>1070.8</ele>
        <time>2018-11-24T09:06:25Z</time>
      </trkpt>
      <trkpt lat="42.81573" lon="0.80881">
        <ele>1069.9</ele>
        <time>2018-11-24T09:06:26Z</time>
      </trkpt>
      <trkpt lat="42.81577" lon="0.80879">
        <ele>1069.2</ele>
        <time>2018-11-24T09:06:28Z</time>
      </trkpt>
      <trkpt lat="42.81581" lon="0.80877">
        <ele>1068.4</ele>
        <time>2018-11-24T09:06:30Z</time>
      </trkpt>
      <trkpt lat="42.81584" lon="0.80875">
        <ele>1067.9</ele>
        <time>2018-11-24T09:06:31Z</time>
      </trkpt>
      <trkpt lat="42.81587" lon="0.80872">
        <ele>1067.5</ele>
        <time>2018-11-24T09:06:33Z</time>
      </trkpt>
      <trkpt lat="42.81589" lon="0.80869">
        <ele>1067.2</ele>
        <time>2018-11-24T09:06:34Z</time>
      </trkpt>
      <trkpt lat="42.81591" lon="0.80865">
        <ele>1067</ele>
        <time>2018-11-24T09:06:35Z</time>
      </trkpt>
      <trkpt lat="42.81593" lon="0.80862">
        <ele>1066.6</ele>
        <time>2018-11-24T09:06:36Z</time>
      </trkpt>
      <trkpt lat="42.81596" lon="0.80858">
        <ele>1065.8</ele>
        <time>2018-11-24T09:06:38Z</time>
      </trkpt>
      <trkpt lat="42.81598" lon="0.80854">
        <ele>1065.1</ele>
        <time>2018-11-24T09:06:39Z</time>
      </trkpt>
      <trkpt lat="42.81601" lon="0.8085">
        <ele>1064.5</ele>
        <time>2018-11-24T09:06:41Z</time>
      </trkpt>
      <trkpt lat="42.81603" lon="0.80846">
        <ele>1063.9</ele>
        <time>2018-11-24T09:06:43Z</time>
      </trkpt>
      <trkpt lat="42.81607" lon="0.80844">
        <ele>1063.5</ele>
        <time>2018-11-24T09:06:44Z</time>
      </trkpt>
      <trkpt lat="42.8161" lon="0.80842">
        <ele>1063.4</ele>
        <time>2018-11-24T09:06:46Z</time>
      </trkpt>
      <trkpt lat="42.81614" lon="0.8084">
        <ele>1062.9</ele>
        <time>2018-11-24T09:06:47Z</time>
      </trkpt>
      <trkpt lat="42.81618" lon="0.80837">
        <ele>1062.1</ele>
        <time>2018-11-24T09:06:49Z</time>
      </trkpt>
      <trkpt lat="42.81621" lon="0.80833">
        <ele>1061.5</ele>
        <time>2018-11-24T09:06:51Z</time>
      </trkpt>
      <trkpt lat="42.81625" lon="0.8083">
        <ele>1060.5</ele>
        <time>2018-11-24T09:06:53Z</time>
      </trkpt>
      <trkpt lat="42.81628" lon="0.80827">
        <ele>1059.8</ele>
        <time>2018-11-24T09:06:54Z</time>
      </trkpt>
      <trkpt lat="42.81632" lon="0.80825">
        <ele>1059</ele>
        <time>2018-11-24T09:06:56Z</time>
      </trkpt>
      <trkpt lat="42.81635" lon="0.80822">
        <ele>1058.5</ele>
        <time>2018-11-24T09:06:57Z</time>
      </trkpt>
      <trkpt lat="42.81638" lon="0.80819">
        <ele>1058.1</ele>
        <time>2018-11-24T09:06:59Z</time>
      </trkpt>
      <trkpt lat="42.8164" lon="0.80815">
        <ele>1057.7</ele>
        <time>2018-11-24T09:07:00Z</time>
      </trkpt>
      <trkpt lat="42.81643" lon="0.80812">
        <ele>1057.2</ele>
        <time>2018-11-24T09:07:02Z</time>
      </trkpt>
      <trkpt lat="42.81645" lon="0.80808">
        <ele>1056.7</ele>
        <time>2018-11-24T09:07:03Z</time>
      </trkpt>
      <trkpt lat="42.81648" lon="0.80805">
        <ele>1056.2</ele>
        <time>2018-11-24T09:07:04Z</time>
      </trkpt>
      <trkpt lat="42.81652" lon="0.80803">
        <ele>1055.2</ele>
        <time>2018-11-24T09:07:06Z</time>
      </trkpt>
      <trkpt lat="42.81655" lon="0.808">
        <ele>1054.1</ele>
        <time>2018-11-24T09:07:08Z</time>
      </trkpt>
      <trkpt lat="42.81658" lon="0.80797">
        <ele>1053.2</ele>
        <time>2018-11-24T09:07:09Z</time>
      </trkpt>
      <trkpt lat="42.81661" lon="0.80795">
        <ele>1052.5</ele>
        <time>2018-11-24T09:07:10Z</time>
      </trkpt>
      <trkpt lat="42.81664" lon="0.80792">
        <ele>1051.7</ele>
        <time>2018-11-24T09:07:12Z</time>
      </trkpt>
      <trkpt lat="42.81667" lon="0.80791">
        <ele>1051.2</ele>
        <time>2018-11-24T09:07:13Z</time>
      </trkpt>
      <trkpt lat="42.81671" lon="0.80789">
        <ele>1050.9</ele>
        <time>2018-11-24T09:07:15Z</time>
      </trkpt>
      <trkpt lat="42.81674" lon="0.80788">
        <ele>1050.4</ele>
        <time>2018-11-24T09:07:16Z</time>
      </trkpt>
      <trkpt lat="42.81677" lon="0.80786">
        <ele>1050.2</ele>
        <time>2018-11-24T09:07:17Z</time>
      </trkpt>
      <trkpt lat="42.81681" lon="0.80785">
        <ele>1050.1</ele>
        <time>2018-11-24T09:07:19Z</time>
      </trkpt>
      <trkpt lat="42.81684" lon="0.80784">
        <ele>1049.9</ele>
        <time>2018-11-24T09:07:20Z</time>
      </trkpt>
      <trkpt lat="42.81688" lon="0.80782">
        <ele>1049.9</ele>
        <time>2018-11-24T09:07:22Z</time>
      </trkpt>
      <trkpt lat="42.81691" lon="0.80781">
        <ele>1050.1</ele>
        <time>2018-11-24T09:07:23Z</time>
      </trkpt>
      <trkpt lat="42.81695" lon="0.80779">
        <ele>1050</ele>
        <time>2018-11-24T09:07:25Z</time>
      </trkpt>
      <trkpt lat="42.81699" lon="0.80777">
        <ele>1049.1</ele>
        <time>2018-11-24T09:07:27Z</time>
      </trkpt>
      <trkpt lat="42.81703" lon="0.80775">
        <ele>1047.9</ele>
        <time>2018-11-24T09:07:28Z</time>
      </trkpt>
      <trkpt lat="42.81707" lon="0.80773">
        <ele>1046.4</ele>
        <time>2018-11-24T09:07:30Z</time>
      </trkpt>
      <trkpt lat="42.81711" lon="0.8077">
        <ele>1044.7</ele>
        <time>2018-11-24T09:07:32Z</time>
      </trkpt>
      <trkpt lat="42.81715" lon="0.80768">
        <ele>1043.3</ele>
        <time>2018-11-24T09:07:34Z</time>
      </trkpt>
      <trkpt lat="42.81719" lon="0.80767">
        <ele>1042.2</ele>
        <time>2018-11-24T09:07:35Z</time>
      </trkpt>
      <trkpt lat="42.81722" lon="0.80765">
        <ele>1041</ele>
        <time>2018-11-24T09:07:36Z</time>
      </trkpt>
      <trkpt lat="42.81725" lon="0.80762">
        <ele>1039.4</ele>
        <time>2018-11-24T09:07:38Z</time>
      </trkpt>
      <trkpt lat="42.81727" lon="0.80759">
        <ele>1037.8</ele>
        <time>2018-11-24T09:07:39Z</time>
      </trkpt>
      <trkpt lat="42.8173" lon="0.80756">
        <ele>1036.2</ele>
        <time>2018-11-24T09:07:41Z</time>
      </trkpt>
      <trkpt lat="42.81733" lon="0.80753">
        <ele>1034.8</ele>
        <time>2018-11-24T09:07:42Z</time>
      </trkpt>
      <trkpt lat="42.81735" lon="0.80751">
        <ele>1033.4</ele>
        <time>2018-11-24T09:07:43Z</time>
      </trkpt>
      <trkpt lat="42.81738" lon="0.80748">
        <ele>1032.3</ele>
        <time>2018-11-24T09:07:45Z</time>
      </trkpt>
      <trkpt lat="42.81742" lon="0.80746">
        <ele>1031.4</ele>
        <time>2018-11-24T09:07:46Z</time>
      </trkpt>
      <trkpt lat="42.81746" lon="0.80743">
        <ele>1030.4</ele>
        <time>2018-11-24T09:07:48Z</time>
      </trkpt>
      <trkpt lat="42.8175" lon="0.80741">
        <ele>1029.4</ele>
        <time>2018-11-24T09:07:50Z</time>
      </trkpt>
      <trkpt lat="42.81754" lon="0.80738">
        <ele>1028.5</ele>
        <time>2018-11-24T09:07:52Z</time>
      </trkpt>
      <trkpt lat="42.81757" lon="0.80735">
        <ele>1027.4</ele>
        <time>2018-11-24T09:07:53Z</time>
      </trkpt>
      <trkpt lat="42.8176" lon="0.80732">
        <ele>1026.2</ele>
        <time>2018-11-24T09:07:55Z</time>
      </trkpt>
      <trkpt lat="42.81763" lon="0.80729">
        <ele>1024.9</ele>
        <time>2018-11-24T09:07:56Z</time>
      </trkpt>
      <trkpt lat="42.81766" lon="0.80725">
        <ele>1023.4</ele>
        <time>2018-11-24T09:07:58Z</time>
      </trkpt>
      <trkpt lat="42.81768" lon="0.80721">
        <ele>1021.9</ele>
        <time>2018-11-24T09:07:59Z</time>
      </trkpt>
      <trkpt lat="42.8177" lon="0.80718">
        <ele>1021.3</ele>
        <time>2018-11-24T09:08:01Z</time>
      </trkpt>
      <trkpt lat="42.81773" lon="0.80714">
        <ele>1020.7</ele>
        <time>2018-11-24T09:08:02Z</time>
      </trkpt>
      <trkpt lat="42.81775" lon="0.80711">
        <ele>1020.1</ele>
        <time>2018-11-24T09:08:03Z</time>
      </trkpt>
      <trkpt lat="42.81778" lon="0.80707">
        <ele>1019.4</ele>
        <time>2018-11-24T09:08:05Z</time>
      </trkpt>
      <trkpt lat="42.81781" lon="0.80703">
        <ele>1018.7</ele>
        <time>2018-11-24T09:08:07Z</time>
      </trkpt>
      <trkpt lat="42.81784" lon="0.80699">
        <ele>1017.9</ele>
        <time>2018-11-24T09:08:08Z</time>
      </trkpt>
      <trkpt lat="42.81786" lon="0.80695">
        <ele>1017.2</ele>
        <time>2018-11-24T09:08:10Z</time>
      </trkpt>
      <trkpt lat="42.81788" lon="0.8069">
        <ele>1016.8</ele>
        <time>2018-11-24T09:08:11Z</time>
      </trkpt>
      <trkpt lat="42.8179" lon="0.80686">
        <ele>1016.6</ele>
        <time>2018-11-24T09:08:13Z</time>
      </trkpt>
      <trkpt lat="42.81791" lon="0.80682">
        <ele>1016.3</ele>
        <time>2018-11-24T09:08:14Z</time>
      </trkpt>
      <trkpt lat="42.81793" lon="0.80677">
        <ele>1016.1</ele>
        <time>2018-11-24T09:08:16Z</time>
      </trkpt>
      <trkpt lat="42.81794" lon="0.80673">
        <ele>1016</ele>
        <time>2018-11-24T09:08:17Z</time>
      </trkpt>
      <trkpt lat="42.81797" lon="0.8067">
        <ele>1015.7</ele>
        <time>2018-11-24T09:08:18Z</time>
      </trkpt>
      <trkpt lat="42.81799" lon="0.80667">
        <ele>1015.5</ele>
        <time>2018-11-24T09:08:20Z</time>
      </trkpt>
      <trkpt lat="42.81802" lon="0.80664">
        <ele>1015.1</ele>
        <time>2018-11-24T09:08:21Z</time>
      </trkpt>
      <trkpt lat="42.81805" lon="0.8066">
        <ele>1014.6</ele>
        <time>2018-11-24T09:08:23Z</time>
      </trkpt>
      <trkpt lat="42.81807" lon="0.80656">
        <ele>1014.2</ele>
        <time>2018-11-24T09:08:24Z</time>
      </trkpt>
      <trkpt lat="42.8181" lon="0.80653">
        <ele>1013.6</ele>
        <time>2018-11-24T09:08:26Z</time>
      </trkpt>
      <trkpt lat="42.81814" lon="0.80651">
        <ele>1013.1</ele>
        <time>2018-11-24T09:08:27Z</time>
      </trkpt>
      <trkpt lat="42.81817" lon="0.80648">
        <ele>1012.5</ele>
        <time>2018-11-24T09:08:29Z</time>
      </trkpt>
      <trkpt lat="42.8182" lon="0.80645">
        <ele>1011.9</ele>
        <time>2018-11-24T09:08:30Z</time>
      </trkpt>
      <trkpt lat="42.81824" lon="0.80642">
        <ele>1011.3</ele>
        <time>2018-11-24T09:08:32Z</time>
      </trkpt>
      <trkpt lat="42.81827" lon="0.80639">
        <ele>1010.8</ele>
        <time>2018-11-24T09:08:34Z</time>
      </trkpt>
      <trkpt lat="42.81831" lon="0.80636">
        <ele>1010.2</ele>
        <time>2018-11-24T09:08:35Z</time>
      </trkpt>
      <trkpt lat="42.81834" lon="0.80633">
        <ele>1009.5</ele>
        <time>2018-11-24T09:08:37Z</time>
      </trkpt>
      <trkpt lat="42.81837" lon="0.8063">
        <ele>1009</ele>
        <time>2018-11-24T09:08:38Z</time>
      </trkpt>
      <trkpt lat="42.8184" lon="0.80627">
        <ele>1008.5</ele>
        <time>2018-11-24T09:08:40Z</time>
      </trkpt>
      <trkpt lat="42.81842" lon="0.80623">
        <ele>1008.1</ele>
        <time>2018-11-24T09:08:41Z</time>
      </trkpt>
      <trkpt lat="42.81845" lon="0.8062">
        <ele>1007.8</ele>
        <time>2018-11-24T09:08:43Z</time>
      </trkpt>
      <trkpt lat="42.81843" lon="0.80615">
        <ele>1007.5</ele>
        <time>2018-11-24T09:08:44Z</time>
      </trkpt>
      <trkpt lat="42.81842" lon="0.8061">
        <ele>1007.4</ele>
        <time>2018-11-24T09:08:46Z</time>
      </trkpt>
      <trkpt lat="42.8184" lon="0.80605">
        <ele>1007.3</ele>
        <time>2018-11-24T09:08:48Z</time>
      </trkpt>
      <trkpt lat="42.8184" lon="0.80599">
        <ele>1007.1</ele>
        <time>2018-11-24T09:08:49Z</time>
      </trkpt>
      <trkpt lat="42.81841" lon="0.80593">
        <ele>1006.8</ele>
        <time>2018-11-24T09:08:51Z</time>
      </trkpt>
      <trkpt lat="42.81841" lon="0.80587">
        <ele>1006.4</ele>
        <time>2018-11-24T09:08:53Z</time>
      </trkpt>
      <trkpt lat="42.81841" lon="0.80581">
        <ele>1006.3</ele>
        <time>2018-11-24T09:08:55Z</time>
      </trkpt>
      <trkpt lat="42.8184" lon="0.80575">
        <ele>1006.3</ele>
        <time>2018-11-24T09:08:56Z</time>
      </trkpt>
      <trkpt lat="42.8184" lon="0.8057">
        <ele>1006.3</ele>
        <time>2018-11-24T09:08:58Z</time>
      </trkpt>
      <trkpt lat="42.81839" lon="0.80564">
        <ele>1006.4</ele>
        <time>2018-11-24T09:09:00Z</time>
      </trkpt>
      <trkpt lat="42.81838" lon="0.80558">
        <ele>1006.6</ele>
        <time>2018-11-24T09:09:01Z</time>
      </trkpt>
      <trkpt lat="42.81836" lon="0.80553">
        <ele>1007</ele>
        <time>2018-11-24T09:09:03Z</time>
      </trkpt>
      <trkpt lat="42.81834" lon="0.80548">
        <ele>1007.6</ele>
        <time>2018-11-24T09:09:05Z</time>
      </trkpt>
      <trkpt lat="42.81835" lon="0.80543">
        <ele>1007.7</ele>
        <time>2018-11-24T09:09:06Z</time>
      </trkpt>
      <trkpt lat="42.81836" lon="0.80538">
        <ele>1008</ele>
        <time>2018-11-24T09:09:08Z</time>
      </trkpt>
      <trkpt lat="42.81837" lon="0.80533">
        <ele>1008.2</ele>
        <time>2018-11-24T09:09:10Z</time>
      </trkpt>
      <trkpt lat="42.81839" lon="0.80527">
        <ele>1008.4</ele>
        <time>2018-11-24T09:09:11Z</time>
      </trkpt>
      <trkpt lat="42.8184" lon="0.80522">
        <ele>1009.3</ele>
        <time>2018-11-24T09:09:13Z</time>
      </trkpt>
      <trkpt lat="42.81841" lon="0.80517">
        <ele>1010.1</ele>
        <time>2018-11-24T09:09:14Z</time>
      </trkpt>
      <trkpt lat="42.81842" lon="0.80512">
        <ele>1010.9</ele>
        <time>2018-11-24T09:09:16Z</time>
      </trkpt>
      <trkpt lat="42.81843" lon="0.80507">
        <ele>1011.6</ele>
        <time>2018-11-24T09:09:18Z</time>
      </trkpt>
      <trkpt lat="42.81844" lon="0.80501">
        <ele>1012.4</ele>
        <time>2018-11-24T09:09:19Z</time>
      </trkpt>
      <trkpt lat="42.81846" lon="0.80496">
        <ele>1012.9</ele>
        <time>2018-11-24T09:09:21Z</time>
      </trkpt>
      <trkpt lat="42.81847" lon="0.8049">
        <ele>1013.5</ele>
        <time>2018-11-24T09:09:23Z</time>
      </trkpt>
      <trkpt lat="42.81848" lon="0.80485">
        <ele>1013.9</ele>
        <time>2018-11-24T09:09:24Z</time>
      </trkpt>
      <trkpt lat="42.81849" lon="0.80479">
        <ele>1014.3</ele>
        <time>2018-11-24T09:09:26Z</time>
      </trkpt>
      <trkpt lat="42.81849" lon="0.80473">
        <ele>1014.9</ele>
        <time>2018-11-24T09:09:28Z</time>
      </trkpt>
      <trkpt lat="42.81849" lon="0.80467">
        <ele>1015.3</ele>
        <time>2018-11-24T09:09:29Z</time>
      </trkpt>
      <trkpt lat="42.81849" lon="0.80461">
        <ele>1015.7</ele>
        <time>2018-11-24T09:09:31Z</time>
      </trkpt>
      <trkpt lat="42.81849" lon="0.80455">
        <ele>1015.9</ele>
        <time>2018-11-24T09:09:33Z</time>
      </trkpt>
      <trkpt lat="42.81849" lon="0.8045">
        <ele>1016.3</ele>
        <time>2018-11-24T09:09:35Z</time>
      </trkpt>
      <trkpt lat="42.81849" lon="0.80444">
        <ele>1016.6</ele>
        <time>2018-11-24T09:09:36Z</time>
      </trkpt>
      <trkpt lat="42.81849" lon="0.80438">
        <ele>1016.2</ele>
        <time>2018-11-24T09:09:38Z</time>
      </trkpt>
      <trkpt lat="42.81849" lon="0.80432">
        <ele>1016</ele>
        <time>2018-11-24T09:09:40Z</time>
      </trkpt>
      <trkpt lat="42.81849" lon="0.80426">
        <ele>1015.9</ele>
        <time>2018-11-24T09:09:42Z</time>
      </trkpt>
      <trkpt lat="42.81849" lon="0.8042">
        <ele>1015.7</ele>
        <time>2018-11-24T09:09:43Z</time>
      </trkpt>
      <trkpt lat="42.81849" lon="0.80414">
        <ele>1015.4</ele>
        <time>2018-11-24T09:09:45Z</time>
      </trkpt>
      <trkpt lat="42.81849" lon="0.80409">
        <ele>1015.4</ele>
        <time>2018-11-24T09:09:47Z</time>
      </trkpt>
      <trkpt lat="42.81849" lon="0.80403">
        <ele>1015.1</ele>
        <time>2018-11-24T09:09:48Z</time>
      </trkpt>
      <trkpt lat="42.81849" lon="0.80397">
        <ele>1015</ele>
        <time>2018-11-24T09:09:50Z</time>
      </trkpt>
      <trkpt lat="42.81849" lon="0.80391">
        <ele>1015</ele>
        <time>2018-11-24T09:09:52Z</time>
      </trkpt>
      <trkpt lat="42.81849" lon="0.80386">
        <ele>1015.6</ele>
        <time>2018-11-24T09:09:53Z</time>
      </trkpt>
      <trkpt lat="42.81849" lon="0.8038">
        <ele>1016.8</ele>
        <time>2018-11-24T09:09:55Z</time>
      </trkpt>
      <trkpt lat="42.81849" lon="0.80374">
        <ele>1018.1</ele>
        <time>2018-11-24T09:09:57Z</time>
      </trkpt>
      <trkpt lat="42.81849" lon="0.80368">
        <ele>1019.3</ele>
        <time>2018-11-24T09:09:59Z</time>
      </trkpt>
      <trkpt lat="42.81849" lon="0.80362">
        <ele>1020.7</ele>
        <time>2018-11-24T09:10:00Z</time>
      </trkpt>
      <trkpt lat="42.81849" lon="0.80356">
        <ele>1022.1</ele>
        <time>2018-11-24T09:10:02Z</time>
      </trkpt>
      <trkpt lat="42.81849" lon="0.8035">
        <ele>1023.5</ele>
        <time>2018-11-24T09:10:04Z</time>
      </trkpt>
      <trkpt lat="42.81849" lon="0.80344">
        <ele>1025</ele>
        <time>2018-11-24T09:10:06Z</time>
      </trkpt>
      <trkpt lat="42.81849" lon="0.80338">
        <ele>1026.3</ele>
        <time>2018-11-24T09:10:07Z</time>
      </trkpt>
      <trkpt lat="42.81849" lon="0.80332">
        <ele>1027.7</ele>
        <time>2018-11-24T09:10:09Z</time>
      </trkpt>
      <trkpt lat="42.81849" lon="0.80327">
        <ele>1029</ele>
        <time>2018-11-24T09:10:11Z</time>
      </trkpt>
      <trkpt lat="42.81849" lon="0.80321">
        <ele>1030</ele>
        <time>2018-11-24T09:10:12Z</time>
      </trkpt>
      <trkpt lat="42.81849" lon="0.80316">
        <ele>1031.2</ele>
        <time>2018-11-24T09:10:14Z</time>
      </trkpt>
      <trkpt lat="42.81849" lon="0.80311">
        <ele>1032.5</ele>
        <time>2018-11-24T09:10:15Z</time>
      </trkpt>
      <trkpt lat="42.81849" lon="0.80306">
        <ele>1033.6</ele>
        <time>2018-11-24T09:10:17Z</time>
      </trkpt>
      <trkpt lat="42.81849" lon="0.803">
        <ele>1034.6</ele>
        <time>2018-11-24T09:10:18Z</time>
      </trkpt>
      <trkpt lat="42.81849" lon="0.80295">
        <ele>1035.6</ele>
        <time>2018-11-24T09:10:20Z</time>
      </trkpt>
      <trkpt lat="42.81852" lon="0.80291">
        <ele>1035.1</ele>
        <time>2018-11-24T09:10:22Z</time>
      </trkpt>
      <trkpt lat="42.81855" lon="0.80288">
        <ele>1034.4</ele>
        <time>2018-11-24T09:10:23Z</time>
      </trkpt>
      <trkpt lat="42.81858" lon="0.80284">
        <ele>1034.2</ele>
        <time>2018-11-24T09:10:25Z</time>
      </trkpt>
      <trkpt lat="42.81862" lon="0.80281">
        <ele>1033.8</ele>
        <time>2018-11-24T09:10:27Z</time>
      </trkpt>
      <trkpt lat="42.81865" lon="0.80277">
        <ele>1032.8</ele>
        <time>2018-11-24T09:10:28Z</time>
      </trkpt>
      <trkpt lat="42.81868" lon="0.80274">
        <ele>1031.4</ele>
        <time>2018-11-24T09:10:30Z</time>
      </trkpt>
      <trkpt lat="42.81871" lon="0.8027">
        <ele>1030.4</ele>
        <time>2018-11-24T09:10:31Z</time>
      </trkpt>
      <trkpt lat="42.81874" lon="0.80266">
        <ele>1029.7</ele>
        <time>2018-11-24T09:10:33Z</time>
      </trkpt>
      <trkpt lat="42.81877" lon="0.80262">
        <ele>1029.3</ele>
        <time>2018-11-24T09:10:35Z</time>
      </trkpt>
      <trkpt lat="42.81881" lon="0.80259">
        <ele>1029.2</ele>
        <time>2018-11-24T09:10:37Z</time>
      </trkpt>
      <trkpt lat="42.81884" lon="0.80255">
        <ele>1029.1</ele>
        <time>2018-11-24T09:10:38Z</time>
      </trkpt>
      <trkpt lat="42.81887" lon="0.80251">
        <ele>1029.5</ele>
        <time>2018-11-24T09:10:40Z</time>
      </trkpt>
      <trkpt lat="42.8189" lon="0.80247">
        <ele>1029.2</ele>
        <time>2018-11-24T09:10:42Z</time>
      </trkpt>
      <trkpt lat="42.81891" lon="0.80242">
        <ele>1029.9</ele>
        <time>2018-11-24T09:10:43Z</time>
      </trkpt>
      <trkpt lat="42.81892" lon="0.80236">
        <ele>1030.9</ele>
        <time>2018-11-24T09:10:45Z</time>
      </trkpt>
      <trkpt lat="42.81893" lon="0.80231">
        <ele>1031.8</ele>
        <time>2018-11-24T09:10:46Z</time>
      </trkpt>
      <trkpt lat="42.81894" lon="0.80226">
        <ele>1032.9</ele>
        <time>2018-11-24T09:10:48Z</time>
      </trkpt>
      <trkpt lat="42.81895" lon="0.8022">
        <ele>1033.6</ele>
        <time>2018-11-24T09:10:50Z</time>
      </trkpt>
      <trkpt lat="42.81896" lon="0.80215">
        <ele>1033.7</ele>
        <time>2018-11-24T09:10:51Z</time>
      </trkpt>
      <trkpt lat="42.81897" lon="0.8021">
        <ele>1033.9</ele>
        <time>2018-11-24T09:10:53Z</time>
      </trkpt>
      <trkpt lat="42.81898" lon="0.80204">
        <ele>1034</ele>
        <time>2018-11-24T09:10:55Z</time>
      </trkpt>
      <trkpt lat="42.81899" lon="0.80199">
        <ele>1034.2</ele>
        <time>2018-11-24T09:10:56Z</time>
      </trkpt>
      <trkpt lat="42.819" lon="0.80194">
        <ele>1034.4</ele>
        <time>2018-11-24T09:10:58Z</time>
      </trkpt>
      <trkpt lat="42.81901" lon="0.80188">
        <ele>1034.2</ele>
        <time>2018-11-24T09:10:59Z</time>
      </trkpt>
      <trkpt lat="42.81902" lon="0.80183">
        <ele>1034.1</ele>
        <time>2018-11-24T09:11:01Z</time>
      </trkpt>
      <trkpt lat="42.81903" lon="0.80178">
        <ele>1033.7</ele>
        <time>2018-11-24T09:11:03Z</time>
      </trkpt>
      <trkpt lat="42.81904" lon="0.80173">
        <ele>1033.6</ele>
        <time>2018-11-24T09:11:04Z</time>
      </trkpt>
      <trkpt lat="42.81905" lon="0.80167">
        <ele>1033.3</ele>
        <time>2018-11-24T09:11:06Z</time>
      </trkpt>
      <trkpt lat="42.81906" lon="0.80162">
        <ele>1033.4</ele>
        <time>2018-11-24T09:11:07Z</time>
      </trkpt>
      <trkpt lat="42.81906" lon="0.80156">
        <ele>1034</ele>
        <time>2018-11-24T09:11:09Z</time>
      </trkpt>
      <trkpt lat="42.81907" lon="0.8015">
        <ele>1034.6</ele>
        <time>2018-11-24T09:11:11Z</time>
      </trkpt>
      <trkpt lat="42.81907" lon="0.80145">
        <ele>1035.1</ele>
        <time>2018-11-24T09:11:12Z</time>
      </trkpt>
      <trkpt lat="42.81907" lon="0.80139">
        <ele>1035.8</ele>
        <time>2018-11-24T09:11:14Z</time>
      </trkpt>
      <trkpt lat="42.81908" lon="0.80133">
        <ele>1036.2</ele>
        <time>2018-11-24T09:11:16Z</time>
      </trkpt>
      <trkpt lat="42.81908" lon="0.80127">
        <ele>1036.7</ele>
        <time>2018-11-24T09:11:18Z</time>
      </trkpt>
      <trkpt lat="42.81908" lon="0.80122">
        <ele>1037.1</ele>
        <time>2018-11-24T09:11:19Z</time>
      </trkpt>
      <trkpt lat="42.81909" lon="0.80116">
        <ele>1037.7</ele>
        <time>2018-11-24T09:11:21Z</time>
      </trkpt>
      <trkpt lat="42.81909" lon="0.8011">
        <ele>1038</ele>
        <time>2018-11-24T09:11:23Z</time>
      </trkpt>
      <trkpt lat="42.81909" lon="0.80104">
        <ele>1038.1</ele>
        <time>2018-11-24T09:11:24Z</time>
      </trkpt>
      <trkpt lat="42.8191" lon="0.80098">
        <ele>1038</ele>
        <time>2018-11-24T09:11:26Z</time>
      </trkpt>
      <trkpt lat="42.8191" lon="0.80093">
        <ele>1038</ele>
        <time>2018-11-24T09:11:28Z</time>
      </trkpt>
      <trkpt lat="42.8191" lon="0.80087">
        <ele>1038</ele>
        <time>2018-11-24T09:11:30Z</time>
      </trkpt>
      <trkpt lat="42.81911" lon="0.80081">
        <ele>1038.1</ele>
        <time>2018-11-24T09:11:31Z</time>
      </trkpt>
      <trkpt lat="42.81911" lon="0.80075">
        <ele>1038.2</ele>
        <time>2018-11-24T09:11:33Z</time>
      </trkpt>
      <trkpt lat="42.81911" lon="0.8007">
        <ele>1038.3</ele>
        <time>2018-11-24T09:11:35Z</time>
      </trkpt>
      <trkpt lat="42.81912" lon="0.80064">
        <ele>1038.3</ele>
        <time>2018-11-24T09:11:36Z</time>
      </trkpt>
      <trkpt lat="42.81912" lon="0.80058">
        <ele>1038.4</ele>
        <time>2018-11-24T09:11:38Z</time>
      </trkpt>
      <trkpt lat="42.81914" lon="0.80053">
        <ele>1037.8</ele>
        <time>2018-11-24T09:11:40Z</time>
      </trkpt>
      <trkpt lat="42.81916" lon="0.80048">
        <ele>1037.1</ele>
        <time>2018-11-24T09:11:41Z</time>
      </trkpt>
      <trkpt lat="42.81919" lon="0.80043">
        <ele>1036.6</ele>
        <time>2018-11-24T09:11:43Z</time>
      </trkpt>
      <trkpt lat="42.81921" lon="0.80038">
        <ele>1036</ele>
        <time>2018-11-24T09:11:45Z</time>
      </trkpt>
      <trkpt lat="42.81923" lon="0.80033">
        <ele>1035.6</ele>
        <time>2018-11-24T09:11:47Z</time>
      </trkpt>
      <trkpt lat="42.81925" lon="0.80028">
        <ele>1034.9</ele>
        <time>2018-11-24T09:11:48Z</time>
      </trkpt>
      <trkpt lat="42.81927" lon="0.80023">
        <ele>1034.7</ele>
        <time>2018-11-24T09:11:50Z</time>
      </trkpt>
      <trkpt lat="42.81929" lon="0.80018">
        <ele>1034.4</ele>
        <time>2018-11-24T09:11:52Z</time>
      </trkpt>
      <trkpt lat="42.81932" lon="0.80013">
        <ele>1034.2</ele>
        <time>2018-11-24T09:11:53Z</time>
      </trkpt>
      <trkpt lat="42.81934" lon="0.80008">
        <ele>1034</ele>
        <time>2018-11-24T09:11:55Z</time>
      </trkpt>
      <trkpt lat="42.81936" lon="0.80003">
        <ele>1033.7</ele>
        <time>2018-11-24T09:11:57Z</time>
      </trkpt>
      <trkpt lat="42.81938" lon="0.79998">
        <ele>1033.7</ele>
        <time>2018-11-24T09:11:58Z</time>
      </trkpt>
      <trkpt lat="42.8194" lon="0.79993">
        <ele>1033.9</ele>
        <time>2018-11-24T09:12:00Z</time>
      </trkpt>
      <trkpt lat="42.81942" lon="0.79989">
        <ele>1034.3</ele>
        <time>2018-11-24T09:12:02Z</time>
      </trkpt>
      <trkpt lat="42.81944" lon="0.79984">
        <ele>1034.4</ele>
        <time>2018-11-24T09:12:03Z</time>
      </trkpt>
      <trkpt lat="42.81946" lon="0.79979">
        <ele>1034.9</ele>
        <time>2018-11-24T09:12:05Z</time>
      </trkpt>
      <trkpt lat="42.81948" lon="0.79974">
        <ele>1035.4</ele>
        <time>2018-11-24T09:12:07Z</time>
      </trkpt>
      <trkpt lat="42.8195" lon="0.7997">
        <ele>1036</ele>
        <time>2018-11-24T09:12:08Z</time>
      </trkpt>
      <trkpt lat="42.81952" lon="0.79965">
        <ele>1036.6</ele>
        <time>2018-11-24T09:12:10Z</time>
      </trkpt>
      <trkpt lat="42.81954" lon="0.7996">
        <ele>1037.3</ele>
        <time>2018-11-24T09:12:11Z</time>
      </trkpt>
      <trkpt lat="42.81957" lon="0.79955">
        <ele>1038.1</ele>
        <time>2018-11-24T09:12:13Z</time>
      </trkpt>
      <trkpt lat="42.81959" lon="0.7995">
        <ele>1038.9</ele>
        <time>2018-11-24T09:12:15Z</time>
      </trkpt>
      <trkpt lat="42.81961" lon="0.79944">
        <ele>1039.8</ele>
        <time>2018-11-24T09:12:17Z</time>
      </trkpt>
      <trkpt lat="42.81964" lon="0.79939">
        <ele>1040.7</ele>
        <time>2018-11-24T09:12:19Z</time>
      </trkpt>
      <trkpt lat="42.81966" lon="0.79934">
        <ele>1041.5</ele>
        <time>2018-11-24T09:12:20Z</time>
      </trkpt>
      <trkpt lat="42.81969" lon="0.7993">
        <ele>1042</ele>
        <time>2018-11-24T09:12:22Z</time>
      </trkpt>
      <trkpt lat="42.81972" lon="0.79925">
        <ele>1042.5</ele>
        <time>2018-11-24T09:12:24Z</time>
      </trkpt>
      <trkpt lat="42.81975" lon="0.79921">
        <ele>1042.6</ele>
        <time>2018-11-24T09:12:26Z</time>
      </trkpt>
      <trkpt lat="42.81978" lon="0.79917">
        <ele>1042.6</ele>
        <time>2018-11-24T09:12:27Z</time>
      </trkpt>
      <trkpt lat="42.81981" lon="0.79912">
        <ele>1042.5</ele>
        <time>2018-11-24T09:12:29Z</time>
      </trkpt>
      <trkpt lat="42.81984" lon="0.79908">
        <ele>1042.3</ele>
        <time>2018-11-24T09:12:31Z</time>
      </trkpt>
      <trkpt lat="42.81987" lon="0.79904">
        <ele>1041.9</ele>
        <time>2018-11-24T09:12:33Z</time>
      </trkpt>
      <trkpt lat="42.8199" lon="0.799">
        <ele>1041.6</ele>
        <time>2018-11-24T09:12:34Z</time>
      </trkpt>
      <trkpt lat="42.81993" lon="0.79896">
        <ele>1041</ele>
        <time>2018-11-24T09:12:36Z</time>
      </trkpt>
      <trkpt lat="42.81995" lon="0.79891">
        <ele>1040.5</ele>
        <time>2018-11-24T09:12:38Z</time>
      </trkpt>
      <trkpt lat="42.81998" lon="0.79887">
        <ele>1040.1</ele>
        <time>2018-11-24T09:12:39Z</time>
      </trkpt>
      <trkpt lat="42.82001" lon="0.79883">
        <ele>1040.3</ele>
        <time>2018-11-24T09:12:41Z</time>
      </trkpt>
      <trkpt lat="42.82002" lon="0.79877">
        <ele>1041.6</ele>
        <time>2018-11-24T09:12:43Z</time>
      </trkpt>
      <trkpt lat="42.82002" lon="0.79872">
        <ele>1042.9</ele>
        <time>2018-11-24T09:12:44Z</time>
      </trkpt>
      <trkpt lat="42.82002" lon="0.79866">
        <ele>1044</ele>
        <time>2018-11-24T09:12:46Z</time>
      </trkpt>
      <trkpt lat="42.82003" lon="0.7986">
        <ele>1045.1</ele>
        <time>2018-11-24T09:12:48Z</time>
      </trkpt>
      <trkpt lat="42.82003" lon="0.79855">
        <ele>1045.9</ele>
        <time>2018-11-24T09:12:49Z</time>
      </trkpt>
      <trkpt lat="42.82004" lon="0.79849">
        <ele>1046.5</ele>
        <time>2018-11-24T09:12:51Z</time>
      </trkpt>
      <trkpt lat="42.82004" lon="0.79843">
        <ele>1047.3</ele>
        <time>2018-11-24T09:12:53Z</time>
      </trkpt>
      <trkpt lat="42.82005" lon="0.79838">
        <ele>1048</ele>
        <time>2018-11-24T09:12:54Z</time>
      </trkpt>
      <trkpt lat="42.82005" lon="0.79832">
        <ele>1048.5</ele>
        <time>2018-11-24T09:12:56Z</time>
      </trkpt>
      <trkpt lat="42.82006" lon="0.79826">
        <ele>1049.3</ele>
        <time>2018-11-24T09:12:58Z</time>
      </trkpt>
      <trkpt lat="42.82006" lon="0.7982">
        <ele>1049.9</ele>
        <time>2018-11-24T09:12:59Z</time>
      </trkpt>
      <trkpt lat="42.82007" lon="0.79815">
        <ele>1050.6</ele>
        <time>2018-11-24T09:13:01Z</time>
      </trkpt>
      <trkpt lat="42.82007" lon="0.79809">
        <ele>1051.2</ele>
        <time>2018-11-24T09:13:03Z</time>
      </trkpt>
      <trkpt lat="42.82007" lon="0.79803">
        <ele>1052</ele>
        <time>2018-11-24T09:13:05Z</time>
      </trkpt>
      <trkpt lat="42.82008" lon="0.79797">
        <ele>1053</ele>
        <time>2018-11-24T09:13:06Z</time>
      </trkpt>
      <trkpt lat="42.82008" lon="0.79791">
        <ele>1053.8</ele>
        <time>2018-11-24T09:13:08Z</time>
      </trkpt>
      <trkpt lat="42.82009" lon="0.79785">
        <ele>1054.6</ele>
        <time>2018-11-24T09:13:10Z</time>
      </trkpt>
      <trkpt lat="42.82009" lon="0.79779">
        <ele>1055.6</ele>
        <time>2018-11-24T09:13:12Z</time>
      </trkpt>
      <trkpt lat="42.8201" lon="0.79773">
        <ele>1057.6</ele>
        <time>2018-11-24T09:13:13Z</time>
      </trkpt>
      <trkpt lat="42.8201" lon="0.79767">
        <ele>1059.9</ele>
        <time>2018-11-24T09:13:15Z</time>
      </trkpt>
      <trkpt lat="42.8201" lon="0.79761">
        <ele>1062.2</ele>
        <time>2018-11-24T09:13:17Z</time>
      </trkpt>
      <trkpt lat="42.82011" lon="0.79755">
        <ele>1064.5</ele>
        <time>2018-11-24T09:13:19Z</time>
      </trkpt>
      <trkpt lat="42.82011" lon="0.79749">
        <ele>1066.7</ele>
        <time>2018-11-24T09:13:20Z</time>
      </trkpt>
      <trkpt lat="42.82012" lon="0.79743">
        <ele>1068.7</ele>
        <time>2018-11-24T09:13:22Z</time>
      </trkpt>
      <trkpt lat="42.82012" lon="0.79737">
        <ele>1070.6</ele>
        <time>2018-11-24T09:13:24Z</time>
      </trkpt>
      <trkpt lat="42.82012" lon="0.79731">
        <ele>1072.6</ele>
        <time>2018-11-24T09:13:26Z</time>
      </trkpt>
      <trkpt lat="42.82013" lon="0.79725">
        <ele>1074.5</ele>
        <time>2018-11-24T09:13:28Z</time>
      </trkpt>
      <trkpt lat="42.82013" lon="0.79719">
        <ele>1076.6</ele>
        <time>2018-11-24T09:13:29Z</time>
      </trkpt>
      <trkpt lat="42.82016" lon="0.79715">
        <ele>1076.9</ele>
        <time>2018-11-24T09:13:31Z</time>
      </trkpt>
      <trkpt lat="42.82019" lon="0.79711">
        <ele>1077.3</ele>
        <time>2018-11-24T09:13:33Z</time>
      </trkpt>
      <trkpt lat="42.82022" lon="0.79706">
        <ele>1077.8</ele>
        <time>2018-11-24T09:13:35Z</time>
      </trkpt>
      <trkpt lat="42.82025" lon="0.79702">
        <ele>1078.2</ele>
        <time>2018-11-24T09:13:36Z</time>
      </trkpt>
      <trkpt lat="42.82029" lon="0.79698">
        <ele>1078.4</ele>
        <time>2018-11-24T09:13:38Z</time>
      </trkpt>
      <trkpt lat="42.82032" lon="0.79694">
        <ele>1079</ele>
        <time>2018-11-24T09:13:40Z</time>
      </trkpt>
      <trkpt lat="42.82035" lon="0.79689">
        <ele>1079.6</ele>
        <time>2018-11-24T09:13:42Z</time>
      </trkpt>
      <trkpt lat="42.82038" lon="0.79685">
        <ele>1080.3</ele>
        <time>2018-11-24T09:13:43Z</time>
      </trkpt>
      <trkpt lat="42.82041" lon="0.79681">
        <ele>1081</ele>
        <time>2018-11-24T09:13:45Z</time>
      </trkpt>
      <trkpt lat="42.82041" lon="0.79675">
        <ele>1083.7</ele>
        <time>2018-11-24T09:13:47Z</time>
      </trkpt>
      <trkpt lat="42.8204" lon="0.79669">
        <ele>1086.4</ele>
        <time>2018-11-24T09:13:49Z</time>
      </trkpt>
      <trkpt lat="42.8204" lon="0.79663">
        <ele>1089</ele>
        <time>2018-11-24T09:13:50Z</time>
      </trkpt>
      <trkpt lat="42.8204" lon="0.79657">
        <ele>1091.7</ele>
        <time>2018-11-24T09:13:52Z</time>
      </trkpt>
      <trkpt lat="42.8204" lon="0.79651">
        <ele>1094.4</ele>
        <time>2018-11-24T09:13:54Z</time>
      </trkpt>
      <trkpt lat="42.82039" lon="0.79645">
        <ele>1097.1</ele>
        <time>2018-11-24T09:13:56Z</time>
      </trkpt>
      <trkpt lat="42.82039" lon="0.79639">
        <ele>1099.8</ele>
        <time>2018-11-24T09:13:57Z</time>
      </trkpt>
      <trkpt lat="42.82039" lon="0.79633">
        <ele>1102.3</ele>
        <time>2018-11-24T09:13:59Z</time>
      </trkpt>
      <trkpt lat="42.82038" lon="0.79627">
        <ele>1104.6</ele>
        <time>2018-11-24T09:14:01Z</time>
      </trkpt>
      <trkpt lat="42.82038" lon="0.79621">
        <ele>1107</ele>
        <time>2018-11-24T09:14:03Z</time>
      </trkpt>
      <trkpt lat="42.82039" lon="0.79615">
        <ele>1108.8</ele>
        <time>2018-11-24T09:14:04Z</time>
      </trkpt>
      <trkpt lat="42.82041" lon="0.7961">
        <ele>1110.7</ele>
        <time>2018-11-24T09:14:06Z</time>
      </trkpt>
      <trkpt lat="42.82042" lon="0.79604">
        <ele>1111.9</ele>
        <time>2018-11-24T09:14:08Z</time>
      </trkpt>
      <trkpt lat="42.82043" lon="0.79599">
        <ele>1113.2</ele>
        <time>2018-11-24T09:14:10Z</time>
      </trkpt>
      <trkpt lat="42.82044" lon="0.79593">
        <ele>1114.4</ele>
        <time>2018-11-24T09:14:11Z</time>
      </trkpt>
      <trkpt lat="42.82046" lon="0.79588">
        <ele>1115.7</ele>
        <time>2018-11-24T09:14:13Z</time>
      </trkpt>
      <trkpt lat="42.82047" lon="0.79582">
        <ele>1117</ele>
        <time>2018-11-24T09:14:15Z</time>
      </trkpt>
      <trkpt lat="42.82048" lon="0.79576">
        <ele>1118.1</ele>
        <time>2018-11-24T09:14:17Z</time>
      </trkpt>
      <trkpt lat="42.82049" lon="0.79571">
        <ele>1119.3</ele>
        <time>2018-11-24T09:14:18Z</time>
      </trkpt>
      <trkpt lat="42.82051" lon="0.79565">
        <ele>1120.5</ele>
        <time>2018-11-24T09:14:20Z</time>
      </trkpt>
      <trkpt lat="42.82052" lon="0.79559">
        <ele>1121.9</ele>
        <time>2018-11-24T09:14:22Z</time>
      </trkpt>
      <trkpt lat="42.82053" lon="0.79554">
        <ele>1122.8</ele>
        <time>2018-11-24T09:14:23Z</time>
      </trkpt>
      <trkpt lat="42.82054" lon="0.79548">
        <ele>1123.7</ele>
        <time>2018-11-24T09:14:25Z</time>
      </trkpt>
      <trkpt lat="42.82056" lon="0.79543">
        <ele>1124.2</ele>
        <time>2018-11-24T09:14:27Z</time>
      </trkpt>
      <trkpt lat="42.82058" lon="0.79538">
        <ele>1124.8</ele>
        <time>2018-11-24T09:14:29Z</time>
      </trkpt>
      <trkpt lat="42.8206" lon="0.79532">
        <ele>1125.4</ele>
        <time>2018-11-24T09:14:30Z</time>
      </trkpt>
      <trkpt lat="42.82062" lon="0.79527">
        <ele>1125.9</ele>
        <time>2018-11-24T09:14:32Z</time>
      </trkpt>
      <trkpt lat="42.82065" lon="0.79522">
        <ele>1126.2</ele>
        <time>2018-11-24T09:14:34Z</time>
      </trkpt>
      <trkpt lat="42.82067" lon="0.79517">
        <ele>1126.3</ele>
        <time>2018-11-24T09:14:36Z</time>
      </trkpt>
      <trkpt lat="42.82069" lon="0.79511">
        <ele>1126.3</ele>
        <time>2018-11-24T09:14:37Z</time>
      </trkpt>
      <trkpt lat="42.82071" lon="0.79506">
        <ele>1126.1</ele>
        <time>2018-11-24T09:14:39Z</time>
      </trkpt>
      <trkpt lat="42.82073" lon="0.79501">
        <ele>1125.7</ele>
        <time>2018-11-24T09:14:41Z</time>
      </trkpt>
      <trkpt lat="42.82073" lon="0.79495">
        <ele>1126.5</ele>
        <time>2018-11-24T09:14:43Z</time>
      </trkpt>
      <trkpt lat="42.82072" lon="0.79489">
        <ele>1127.3</ele>
        <time>2018-11-24T09:14:44Z</time>
      </trkpt>
      <trkpt lat="42.82072" lon="0.79484">
        <ele>1128.2</ele>
        <time>2018-11-24T09:14:46Z</time>
      </trkpt>
      <trkpt lat="42.82072" lon="0.79478">
        <ele>1129.2</ele>
        <time>2018-11-24T09:14:48Z</time>
      </trkpt>
      <trkpt lat="42.82071" lon="0.79472">
        <ele>1130.2</ele>
        <time>2018-11-24T09:14:49Z</time>
      </trkpt>
      <trkpt lat="42.82071" lon="0.79466">
        <ele>1131.8</ele>
        <time>2018-11-24T09:14:51Z</time>
      </trkpt>
      <trkpt lat="42.82071" lon="0.79461">
        <ele>1133.3</ele>
        <time>2018-11-24T09:14:53Z</time>
      </trkpt>
      <trkpt lat="42.8207" lon="0.79455">
        <ele>1135</ele>
        <time>2018-11-24T09:14:55Z</time>
      </trkpt>
      <trkpt lat="42.8207" lon="0.79449">
        <ele>1136.5</ele>
        <time>2018-11-24T09:14:56Z</time>
      </trkpt>
      <trkpt lat="42.82067" lon="0.79445">
        <ele>1139.4</ele>
        <time>2018-11-24T09:14:58Z</time>
      </trkpt>
      <trkpt lat="42.82063" lon="0.79441">
        <ele>1142.5</ele>
        <time>2018-11-24T09:15:00Z</time>
      </trkpt>
      <trkpt lat="42.8206" lon="0.79437">
        <ele>1145.5</ele>
        <time>2018-11-24T09:15:01Z</time>
      </trkpt>
      <trkpt lat="42.82057" lon="0.79433">
        <ele>1148.5</ele>
        <time>2018-11-24T09:15:03Z</time>
      </trkpt>
      <trkpt lat="42.82053" lon="0.7943">
        <ele>1151.7</ele>
        <time>2018-11-24T09:15:05Z</time>
      </trkpt>
      <trkpt lat="42.8205" lon="0.79426">
        <ele>1154.9</ele>
        <time>2018-11-24T09:15:07Z</time>
      </trkpt>
      <trkpt lat="42.82047" lon="0.79422">
        <ele>1158.1</ele>
        <time>2018-11-24T09:15:08Z</time>
      </trkpt>
      <trkpt lat="42.82043" lon="0.79418">
        <ele>1161.3</ele>
        <time>2018-11-24T09:15:10Z</time>
      </trkpt>
      <trkpt lat="42.8204" lon="0.79414">
        <ele>1164.1</ele>
        <time>2018-11-24T09:15:12Z</time>
      </trkpt>
      <trkpt lat="42.82037" lon="0.7941">
        <ele>1166.7</ele>
        <time>2018-11-24T09:15:14Z</time>
      </trkpt>
      <trkpt lat="42.82034" lon="0.79407">
        <ele>1169.1</ele>
        <time>2018-11-24T09:15:15Z</time>
      </trkpt>
      <trkpt lat="42.8203" lon="0.79403">
        <ele>1171.6</ele>
        <time>2018-11-24T09:15:17Z</time>
      </trkpt>
      <trkpt lat="42.82027" lon="0.79399">
        <ele>1174</ele>
        <time>2018-11-24T09:15:19Z</time>
      </trkpt>
      <trkpt lat="42.82024" lon="0.79395">
        <ele>1176.2</ele>
        <time>2018-11-24T09:15:21Z</time>
      </trkpt>
      <trkpt lat="42.82021" lon="0.79392">
        <ele>1178.4</ele>
        <time>2018-11-24T09:15:22Z</time>
      </trkpt>
      <trkpt lat="42.82017" lon="0.79388">
        <ele>1180.6</ele>
        <time>2018-11-24T09:15:24Z</time>
      </trkpt>
      <trkpt lat="42.82014" lon="0.79384">
        <ele>1182.6</ele>
        <time>2018-11-24T09:15:26Z</time>
      </trkpt>
      <trkpt lat="42.82011" lon="0.7938">
        <ele>1184.6</ele>
        <time>2018-11-24T09:15:27Z</time>
      </trkpt>
      <trkpt lat="42.82009" lon="0.79376">
        <ele>1186.7</ele>
        <time>2018-11-24T09:15:29Z</time>
      </trkpt>
      <trkpt lat="42.82006" lon="0.79372">
        <ele>1188.7</ele>
        <time>2018-11-24T09:15:31Z</time>
      </trkpt>
      <trkpt lat="42.82003" lon="0.79368">
        <ele>1190.7</ele>
        <time>2018-11-24T09:15:32Z</time>
      </trkpt>
      <trkpt lat="42.82" lon="0.79364">
        <ele>1192.5</ele>
        <time>2018-11-24T09:15:34Z</time>
      </trkpt>
      <trkpt lat="42.81997" lon="0.7936">
        <ele>1194.9</ele>
        <time>2018-11-24T09:15:35Z</time>
      </trkpt>
      <trkpt lat="42.81995" lon="0.79356">
        <ele>1197.1</ele>
        <time>2018-11-24T09:15:37Z</time>
      </trkpt>
      <trkpt lat="42.81992" lon="0.79352">
        <ele>1199.4</ele>
        <time>2018-11-24T09:15:39Z</time>
      </trkpt>
      <trkpt lat="42.81989" lon="0.79348">
        <ele>1201.5</ele>
        <time>2018-11-24T09:15:40Z</time>
      </trkpt>
      <trkpt lat="42.81986" lon="0.79344">
        <ele>1203.5</ele>
        <time>2018-11-24T09:15:42Z</time>
      </trkpt>
      <trkpt lat="42.81985" lon="0.79348">
        <ele>1203.6</ele>
        <time>2018-11-24T09:15:43Z</time>
      </trkpt>
      <trkpt lat="42.81983" lon="0.79353">
        <ele>1203.9</ele>
        <time>2018-11-24T09:15:45Z</time>
      </trkpt>
      <trkpt lat="42.81981" lon="0.79357">
        <ele>1204.2</ele>
        <time>2018-11-24T09:15:46Z</time>
      </trkpt>
      <trkpt lat="42.8198" lon="0.79362">
        <ele>1204.6</ele>
        <time>2018-11-24T09:15:48Z</time>
      </trkpt>
      <trkpt lat="42.81978" lon="0.79366">
        <ele>1204.8</ele>
        <time>2018-11-24T09:15:49Z</time>
      </trkpt>
      <trkpt lat="42.81975" lon="0.7937">
        <ele>1205.6</ele>
        <time>2018-11-24T09:15:51Z</time>
      </trkpt>
      <trkpt lat="42.81973" lon="0.79375">
        <ele>1206.4</ele>
        <time>2018-11-24T09:15:53Z</time>
      </trkpt>
      <trkpt lat="42.8197" lon="0.79379">
        <ele>1206.9</ele>
        <time>2018-11-24T09:15:54Z</time>
      </trkpt>
      <trkpt lat="42.81967" lon="0.79383">
        <ele>1207.5</ele>
        <time>2018-11-24T09:15:56Z</time>
      </trkpt>
      <trkpt lat="42.81964" lon="0.79387">
        <ele>1208</ele>
        <time>2018-11-24T09:15:58Z</time>
      </trkpt>
      <trkpt lat="42.81962" lon="0.79392">
        <ele>1208.1</ele>
        <time>2018-11-24T09:15:59Z</time>
      </trkpt>
      <trkpt lat="42.81959" lon="0.79396">
        <ele>1208</ele>
        <time>2018-11-24T09:16:01Z</time>
      </trkpt>
      <trkpt lat="42.81955" lon="0.79399">
        <ele>1209</ele>
        <time>2018-11-24T09:16:03Z</time>
      </trkpt>
      <trkpt lat="42.81951" lon="0.79401">
        <ele>1209.8</ele>
        <time>2018-11-24T09:16:04Z</time>
      </trkpt>
      <trkpt lat="42.81947" lon="0.79404">
        <ele>1210.5</ele>
        <time>2018-11-24T09:16:06Z</time>
      </trkpt>
      <trkpt lat="42.81943" lon="0.79405">
        <ele>1212.1</ele>
        <time>2018-11-24T09:16:08Z</time>
      </trkpt>
      <trkpt lat="42.81939" lon="0.79405">
        <ele>1213.5</ele>
        <time>2018-11-24T09:16:10Z</time>
      </trkpt>
      <trkpt lat="42.81935" lon="0.79406">
        <ele>1215</ele>
        <time>2018-11-24T09:16:11Z</time>
      </trkpt>
      <trkpt lat="42.8193" lon="0.79407">
        <ele>1216.5</ele>
        <time>2018-11-24T09:16:13Z</time>
      </trkpt>
      <trkpt lat="42.81926" lon="0.79407">
        <ele>1217.9</ele>
        <time>2018-11-24T09:16:15Z</time>
      </trkpt>
      <trkpt lat="42.81922" lon="0.79408">
        <ele>1219.3</ele>
        <time>2018-11-24T09:16:16Z</time>
      </trkpt>
      <trkpt lat="42.81918" lon="0.79409">
        <ele>1220.4</ele>
        <time>2018-11-24T09:16:18Z</time>
      </trkpt>
      <trkpt lat="42.81914" lon="0.7941">
        <ele>1221.5</ele>
        <time>2018-11-24T09:16:19Z</time>
      </trkpt>
      <trkpt lat="42.81911" lon="0.79411">
        <ele>1222.2</ele>
        <time>2018-11-24T09:16:21Z</time>
      </trkpt>
      <trkpt lat="42.81907" lon="0.79412">
        <ele>1223</ele>
        <time>2018-11-24T09:16:22Z</time>
      </trkpt>
      <trkpt lat="42.81903" lon="0.79413">
        <ele>1223.6</ele>
        <time>2018-11-24T09:16:24Z</time>
      </trkpt>
      <trkpt lat="42.81899" lon="0.79413">
        <ele>1224.7</ele>
        <time>2018-11-24T09:16:26Z</time>
      </trkpt>
      <trkpt lat="42.81894" lon="0.79414">
        <ele>1225.9</ele>
        <time>2018-11-24T09:16:28Z</time>
      </trkpt>
      <trkpt lat="42.8189" lon="0.79414">
        <ele>1227</ele>
        <time>2018-11-24T09:16:29Z</time>
      </trkpt>
      <trkpt lat="42.81885" lon="0.79415">
        <ele>1228.5</ele>
        <time>2018-11-24T09:16:31Z</time>
      </trkpt>
      <trkpt lat="42.81881" lon="0.79415">
        <ele>1230.3</ele>
        <time>2018-11-24T09:16:33Z</time>
      </trkpt>
      <trkpt lat="42.81877" lon="0.79419">
        <ele>1230.4</ele>
        <time>2018-11-24T09:16:35Z</time>
      </trkpt>
      <trkpt lat="42.81874" lon="0.79422">
        <ele>1230.3</ele>
        <time>2018-11-24T09:16:36Z</time>
      </trkpt>
      <trkpt lat="42.8187" lon="0.79426">
        <ele>1230.4</ele>
        <time>2018-11-24T09:16:38Z</time>
      </trkpt>
      <trkpt lat="42.81866" lon="0.79429">
        <ele>1230.2</ele>
        <time>2018-11-24T09:16:40Z</time>
      </trkpt>
      <trkpt lat="42.81863" lon="0.79433">
        <ele>1230</ele>
        <time>2018-11-24T09:16:42Z</time>
      </trkpt>
      <trkpt lat="42.81859" lon="0.79436">
        <ele>1230.1</ele>
        <time>2018-11-24T09:16:44Z</time>
      </trkpt>
      <trkpt lat="42.81855" lon="0.79438">
        <ele>1231.1</ele>
        <time>2018-11-24T09:16:45Z</time>
      </trkpt>
      <trkpt lat="42.81851" lon="0.7944">
        <ele>1232.3</ele>
        <time>2018-11-24T09:16:47Z</time>
      </trkpt>
      <trkpt lat="42.81847" lon="0.79443">
        <ele>1233.7</ele>
        <time>2018-11-24T09:16:49Z</time>
      </trkpt>
      <trkpt lat="42.81843" lon="0.79445">
        <ele>1235.2</ele>
        <time>2018-11-24T09:16:50Z</time>
      </trkpt>
      <trkpt lat="42.8184" lon="0.79447">
        <ele>1237</ele>
        <time>2018-11-24T09:16:52Z</time>
      </trkpt>
      <trkpt lat="42.81836" lon="0.79449">
        <ele>1238.9</ele>
        <time>2018-11-24T09:16:54Z</time>
      </trkpt>
      <trkpt lat="42.81832" lon="0.79452">
        <ele>1240.4</ele>
        <time>2018-11-24T09:16:55Z</time>
      </trkpt>
      <trkpt lat="42.81828" lon="0.79454">
        <ele>1241.3</ele>
        <time>2018-11-24T09:16:57Z</time>
      </trkpt>
      <trkpt lat="42.81824" lon="0.79456">
        <ele>1242.1</ele>
        <time>2018-11-24T09:16:59Z</time>
      </trkpt>
      <trkpt lat="42.8182" lon="0.79457">
        <ele>1243</ele>
        <time>2018-11-24T09:17:00Z</time>
      </trkpt>
      <trkpt lat="42.81816" lon="0.79459">
        <ele>1243.7</ele>
        <time>2018-11-24T09:17:02Z</time>
      </trkpt>
      <trkpt lat="42.81812" lon="0.7946">
        <ele>1244.5</ele>
        <time>2018-11-24T09:17:04Z</time>
      </trkpt>
      <trkpt lat="42.81808" lon="0.79461">
        <ele>1245</ele>
        <time>2018-11-24T09:17:05Z</time>
      </trkpt>
      <trkpt lat="42.81804" lon="0.79463">
        <ele>1245.9</ele>
        <time>2018-11-24T09:17:07Z</time>
      </trkpt>
      <trkpt lat="42.818" lon="0.79464">
        <ele>1247.4</ele>
        <time>2018-11-24T09:17:09Z</time>
      </trkpt>
      <trkpt lat="42.81797" lon="0.79467">
        <ele>1247.9</ele>
        <time>2018-11-24T09:17:10Z</time>
      </trkpt>
      <trkpt lat="42.81794" lon="0.7947">
        <ele>1248.4</ele>
        <time>2018-11-24T09:17:12Z</time>
      </trkpt>
      <trkpt lat="42.81791" lon="0.79472">
        <ele>1248.8</ele>
        <time>2018-11-24T09:17:13Z</time>
      </trkpt>
      <trkpt lat="42.81788" lon="0.79475">
        <ele>1249.5</ele>
        <time>2018-11-24T09:17:14Z</time>
      </trkpt>
      <trkpt lat="42.81784" lon="0.79478">
        <ele>1250.2</ele>
        <time>2018-11-24T09:17:16Z</time>
      </trkpt>
      <trkpt lat="42.81781" lon="0.79481">
        <ele>1250.9</ele>
        <time>2018-11-24T09:17:18Z</time>
      </trkpt>
      <trkpt lat="42.81777" lon="0.79485">
        <ele>1251.7</ele>
        <time>2018-11-24T09:17:20Z</time>
      </trkpt>
      <trkpt lat="42.81773" lon="0.79488">
        <ele>1252.6</ele>
        <time>2018-11-24T09:17:21Z</time>
      </trkpt>
      <trkpt lat="42.8177" lon="0.79491">
        <ele>1253.8</ele>
        <time>2018-11-24T09:17:23Z</time>
      </trkpt>
      <trkpt lat="42.81766" lon="0.79494">
        <ele>1255.1</ele>
        <time>2018-11-24T09:17:25Z</time>
      </trkpt>
      <trkpt lat="42.81764" lon="0.79499">
        <ele>1254.8</ele>
        <time>2018-11-24T09:17:27Z</time>
      </trkpt>
      <trkpt lat="42.81762" lon="0.79504">
        <ele>1254.9</ele>
        <time>2018-11-24T09:17:28Z</time>
      </trkpt>
      <trkpt lat="42.8176" lon="0.79508">
        <ele>1255</ele>
        <time>2018-11-24T09:17:30Z</time>
      </trkpt>
      <trkpt lat="42.81758" lon="0.79513">
        <ele>1255</ele>
        <time>2018-11-24T09:17:31Z</time>
      </trkpt>
      <trkpt lat="42.81756" lon="0.79518">
        <ele>1255.1</ele>
        <time>2018-11-24T09:17:33Z</time>
      </trkpt>
      <trkpt lat="42.81753" lon="0.79522">
        <ele>1256.1</ele>
        <time>2018-11-24T09:17:35Z</time>
      </trkpt>
      <trkpt lat="42.81749" lon="0.79526">
        <ele>1257</ele>
        <time>2018-11-24T09:17:37Z</time>
      </trkpt>
      <trkpt lat="42.81746" lon="0.7953">
        <ele>1258.3</ele>
        <time>2018-11-24T09:17:38Z</time>
      </trkpt>
      <trkpt lat="42.81743" lon="0.79534">
        <ele>1259.4</ele>
        <time>2018-11-24T09:17:40Z</time>
      </trkpt>
      <trkpt lat="42.81739" lon="0.79538">
        <ele>1260.4</ele>
        <time>2018-11-24T09:17:42Z</time>
      </trkpt>
      <trkpt lat="42.81736" lon="0.79542">
        <ele>1261.2</ele>
        <time>2018-11-24T09:17:44Z</time>
      </trkpt>
      <trkpt lat="42.81733" lon="0.79546">
        <ele>1261.7</ele>
        <time>2018-11-24T09:17:45Z</time>
      </trkpt>
      <trkpt lat="42.81731" lon="0.7955">
        <ele>1262.1</ele>
        <time>2018-11-24T09:17:47Z</time>
      </trkpt>
      <trkpt lat="42.81728" lon="0.79553">
        <ele>1262.6</ele>
        <time>2018-11-24T09:17:48Z</time>
      </trkpt>
      <trkpt lat="42.81725" lon="0.79557">
        <ele>1262.9</ele>
        <time>2018-11-24T09:17:50Z</time>
      </trkpt>
      <trkpt lat="42.81721" lon="0.79559">
        <ele>1264.9</ele>
        <time>2018-11-24T09:17:52Z</time>
      </trkpt>
      <trkpt lat="42.81717" lon="0.79561">
        <ele>1266.8</ele>
        <time>2018-11-24T09:17:53Z</time>
      </trkpt>
      <trkpt lat="42.81713" lon="0.79563">
        <ele>1268.9</ele>
        <time>2018-11-24T09:17:55Z</time>
      </trkpt>
      <trkpt lat="42.81708" lon="0.79565">
        <ele>1270.8</ele>
        <time>2018-11-24T09:17:57Z</time>
      </trkpt>
      <trkpt lat="42.81704" lon="0.79567">
        <ele>1272.8</ele>
        <time>2018-11-24T09:17:59Z</time>
      </trkpt>
      <trkpt lat="42.817" lon="0.79569">
        <ele>1274.7</ele>
        <time>2018-11-24T09:18:00Z</time>
      </trkpt>
      <trkpt lat="42.81697" lon="0.79573">
        <ele>1275.7</ele>
        <time>2018-11-24T09:18:02Z</time>
      </trkpt>
      <trkpt lat="42.81693" lon="0.79576">
        <ele>1276.8</ele>
        <time>2018-11-24T09:18:04Z</time>
      </trkpt>
      <trkpt lat="42.81689" lon="0.79577">
        <ele>1279.2</ele>
        <time>2018-11-24T09:18:06Z</time>
      </trkpt>
      <trkpt lat="42.81685" lon="0.79578">
        <ele>1281.8</ele>
        <time>2018-11-24T09:18:07Z</time>
      </trkpt>
      <trkpt lat="42.81682" lon="0.79578">
        <ele>1284.3</ele>
        <time>2018-11-24T09:18:09Z</time>
      </trkpt>
      <trkpt lat="42.81678" lon="0.79579">
        <ele>1286.9</ele>
        <time>2018-11-24T09:18:10Z</time>
      </trkpt>
      <trkpt lat="42.81674" lon="0.7958">
        <ele>1289.6</ele>
        <time>2018-11-24T09:18:12Z</time>
      </trkpt>
      <trkpt lat="42.8167" lon="0.79583">
        <ele>1291.8</ele>
        <time>2018-11-24T09:18:13Z</time>
      </trkpt>
      <trkpt lat="42.81666" lon="0.79585">
        <ele>1293.9</ele>
        <time>2018-11-24T09:18:15Z</time>
      </trkpt>
      <trkpt lat="42.81662" lon="0.79588">
        <ele>1296.2</ele>
        <time>2018-11-24T09:18:17Z</time>
      </trkpt>
      <trkpt lat="42.81658" lon="0.7959">
        <ele>1298.4</ele>
        <time>2018-11-24T09:18:19Z</time>
      </trkpt>
      <trkpt lat="42.81654" lon="0.79593">
        <ele>1300.4</ele>
        <time>2018-11-24T09:18:21Z</time>
      </trkpt>
      <trkpt lat="42.8165" lon="0.79594">
        <ele>1303</ele>
        <time>2018-11-24T09:18:22Z</time>
      </trkpt>
      <trkpt lat="42.81646" lon="0.79594">
        <ele>1305.8</ele>
        <time>2018-11-24T09:18:24Z</time>
      </trkpt>
      <trkpt lat="42.81642" lon="0.79595">
        <ele>1308.5</ele>
        <time>2018-11-24T09:18:25Z</time>
      </trkpt>
      <trkpt lat="42.81638" lon="0.79595">
        <ele>1311</ele>
        <time>2018-11-24T09:18:27Z</time>
      </trkpt>
      <trkpt lat="42.81636" lon="0.79599">
        <ele>1310.1</ele>
        <time>2018-11-24T09:18:29Z</time>
      </trkpt>
      <trkpt lat="42.81634" lon="0.79604">
        <ele>1309.1</ele>
        <time>2018-11-24T09:18:30Z</time>
      </trkpt>
      <trkpt lat="42.81631" lon="0.79608">
        <ele>1308</ele>
        <time>2018-11-24T09:18:32Z</time>
      </trkpt>
      <trkpt lat="42.81629" lon="0.79613">
        <ele>1306.8</ele>
        <time>2018-11-24T09:18:33Z</time>
      </trkpt>
      <trkpt lat="42.81627" lon="0.79617">
        <ele>1305.4</ele>
        <time>2018-11-24T09:18:35Z</time>
      </trkpt>
      <trkpt lat="42.81625" lon="0.79621">
        <ele>1304.4</ele>
        <time>2018-11-24T09:18:36Z</time>
      </trkpt>
      <trkpt lat="42.81622" lon="0.79625">
        <ele>1303.5</ele>
        <time>2018-11-24T09:18:38Z</time>
      </trkpt>
      <trkpt lat="42.8162" lon="0.79628">
        <ele>1302.5</ele>
        <time>2018-11-24T09:18:39Z</time>
      </trkpt>
      <trkpt lat="42.81617" lon="0.79632">
        <ele>1301.4</ele>
        <time>2018-11-24T09:18:41Z</time>
      </trkpt>
      <trkpt lat="42.81615" lon="0.79636">
        <ele>1300.1</ele>
        <time>2018-11-24T09:18:42Z</time>
      </trkpt>
      <trkpt lat="42.81611" lon="0.79638">
        <ele>1300.3</ele>
        <time>2018-11-24T09:18:44Z</time>
      </trkpt>
      <trkpt lat="42.81608" lon="0.79641">
        <ele>1301.9</ele>
        <time>2018-11-24T09:18:45Z</time>
      </trkpt>
      <trkpt lat="42.81604" lon="0.79643">
        <ele>1303.8</ele>
        <time>2018-11-24T09:18:47Z</time>
      </trkpt>
      <trkpt lat="42.816" lon="0.79645">
        <ele>1305.8</ele>
        <time>2018-11-24T09:18:49Z</time>
      </trkpt>
      <trkpt lat="42.81596" lon="0.79645">
        <ele>1308.2</ele>
        <time>2018-11-24T09:18:50Z</time>
      </trkpt>
      <trkpt lat="42.81593" lon="0.79645">
        <ele>1310.8</ele>
        <time>2018-11-24T09:18:52Z</time>
      </trkpt>
      <trkpt lat="42.81589" lon="0.79645">
        <ele>1313.3</ele>
        <time>2018-11-24T09:18:53Z</time>
      </trkpt>
      <trkpt lat="42.81587" lon="0.79649">
        <ele>1314.1</ele>
        <time>2018-11-24T09:18:55Z</time>
      </trkpt>
      <trkpt lat="42.81585" lon="0.79654">
        <ele>1315</ele>
        <time>2018-11-24T09:18:56Z</time>
      </trkpt>
      <trkpt lat="42.81582" lon="0.79658">
        <ele>1316.1</ele>
        <time>2018-11-24T09:18:58Z</time>
      </trkpt>
      <trkpt lat="42.8158" lon="0.79662">
        <ele>1317.2</ele>
        <time>2018-11-24T09:18:59Z</time>
      </trkpt>
      <trkpt lat="42.81576" lon="0.79664">
        <ele>1319.8</ele>
        <time>2018-11-24T09:19:01Z</time>
      </trkpt>
      <trkpt lat="42.81572" lon="0.79665">
        <ele>1322.7</ele>
        <time>2018-11-24T09:19:03Z</time>
      </trkpt>
      <trkpt lat="42.81567" lon="0.79667">
        <ele>1325.6</ele>
        <time>2018-11-24T09:19:05Z</time>
      </trkpt>
      <trkpt lat="42.81563" lon="0.79668">
        <ele>1328.4</ele>
        <time>2018-11-24T09:19:06Z</time>
      </trkpt>
      <trkpt lat="42.81559" lon="0.79668">
        <ele>1331.3</ele>
        <time>2018-11-24T09:19:08Z</time>
      </trkpt>
      <trkpt lat="42.81555" lon="0.79668">
        <ele>1333.7</ele>
        <time>2018-11-24T09:19:10Z</time>
      </trkpt>
      <trkpt lat="42.8155" lon="0.79668">
        <ele>1334.7</ele>
        <time>2018-11-24T09:19:11Z</time>
      </trkpt>
      <trkpt lat="42.81546" lon="0.79668">
        <ele>1335.8</ele>
        <time>2018-11-24T09:19:13Z</time>
      </trkpt>
      <trkpt lat="42.81542" lon="0.79668">
        <ele>1336.7</ele>
        <time>2018-11-24T09:19:15Z</time>
      </trkpt>
      <trkpt lat="42.81538" lon="0.79667">
        <ele>1338.3</ele>
        <time>2018-11-24T09:19:16Z</time>
      </trkpt>
      <trkpt lat="42.81534" lon="0.79666">
        <ele>1339.8</ele>
        <time>2018-11-24T09:19:18Z</time>
      </trkpt>
      <trkpt lat="42.8153" lon="0.79667">
        <ele>1340.5</ele>
        <time>2018-11-24T09:19:20Z</time>
      </trkpt>
      <trkpt lat="42.81525" lon="0.79668">
        <ele>1340.8</ele>
        <time>2018-11-24T09:19:21Z</time>
      </trkpt>
      <trkpt lat="42.81521" lon="0.79669">
        <ele>1341.2</ele>
        <time>2018-11-24T09:19:23Z</time>
      </trkpt>
      <trkpt lat="42.81517" lon="0.79669">
        <ele>1341.6</ele>
        <time>2018-11-24T09:19:25Z</time>
      </trkpt>
      <trkpt lat="42.81512" lon="0.7967">
        <ele>1342</ele>
        <time>2018-11-24T09:19:27Z</time>
      </trkpt>
      <trkpt lat="42.81508" lon="0.79671">
        <ele>1342.6</ele>
        <time>2018-11-24T09:19:28Z</time>
      </trkpt>
      <trkpt lat="42.81505" lon="0.7967">
        <ele>1343.6</ele>
        <time>2018-11-24T09:19:30Z</time>
      </trkpt>
      <trkpt lat="42.81501" lon="0.7967">
        <ele>1344.5</ele>
        <time>2018-11-24T09:19:31Z</time>
      </trkpt>
      <trkpt lat="42.81498" lon="0.79669">
        <ele>1345.7</ele>
        <time>2018-11-24T09:19:33Z</time>
      </trkpt>
      <trkpt lat="42.81494" lon="0.7967">
        <ele>1346.9</ele>
        <time>2018-11-24T09:19:34Z</time>
      </trkpt>
      <trkpt lat="42.8149" lon="0.79671">
        <ele>1348.1</ele>
        <time>2018-11-24T09:19:36Z</time>
      </trkpt>
      <trkpt lat="42.81486" lon="0.79671">
        <ele>1349.4</ele>
        <time>2018-11-24T09:19:37Z</time>
      </trkpt>
      <trkpt lat="42.81482" lon="0.79672">
        <ele>1350.7</ele>
        <time>2018-11-24T09:19:39Z</time>
      </trkpt>
      <trkpt lat="42.81478" lon="0.79674">
        <ele>1351.9</ele>
        <time>2018-11-24T09:19:41Z</time>
      </trkpt>
      <trkpt lat="42.81474" lon="0.79675">
        <ele>1353.3</ele>
        <time>2018-11-24T09:19:42Z</time>
      </trkpt>
      <trkpt lat="42.8147" lon="0.79677">
        <ele>1355.4</ele>
        <time>2018-11-24T09:19:44Z</time>
      </trkpt>
      <trkpt lat="42.81467" lon="0.7968">
        <ele>1357.2</ele>
        <time>2018-11-24T09:19:45Z</time>
      </trkpt>
      <trkpt lat="42.81464" lon="0.79682">
        <ele>1359</ele>
        <time>2018-11-24T09:19:47Z</time>
      </trkpt>
      <trkpt lat="42.81461" lon="0.79685">
        <ele>1360.9</ele>
        <time>2018-11-24T09:19:48Z</time>
      </trkpt>
      <trkpt lat="42.8146" lon="0.79689">
        <ele>1361.4</ele>
        <time>2018-11-24T09:19:50Z</time>
      </trkpt>
      <trkpt lat="42.81458" lon="0.79693">
        <ele>1362.2</ele>
        <time>2018-11-24T09:19:51Z</time>
      </trkpt>
      <trkpt lat="42.81457" lon="0.79697">
        <ele>1363.1</ele>
        <time>2018-11-24T09:19:52Z</time>
      </trkpt>
      <trkpt lat="42.81456" lon="0.79701">
        <ele>1364.1</ele>
        <time>2018-11-24T09:19:54Z</time>
      </trkpt>
      <trkpt lat="42.81454" lon="0.79706">
        <ele>1365.1</ele>
        <time>2018-11-24T09:19:55Z</time>
      </trkpt>
      <trkpt lat="42.81453" lon="0.7971">
        <ele>1366</ele>
        <time>2018-11-24T09:19:56Z</time>
      </trkpt>
      <trkpt lat="42.81451" lon="0.79714">
        <ele>1366.7</ele>
        <time>2018-11-24T09:19:58Z</time>
      </trkpt>
      <trkpt lat="42.8145" lon="0.79719">
        <ele>1366.9</ele>
        <time>2018-11-24T09:19:59Z</time>
      </trkpt>
      <trkpt lat="42.8145" lon="0.79724">
        <ele>1367.1</ele>
        <time>2018-11-24T09:20:01Z</time>
      </trkpt>
      <trkpt lat="42.81449" lon="0.7973">
        <ele>1367.5</ele>
        <time>2018-11-24T09:20:02Z</time>
      </trkpt>
      <trkpt lat="42.81449" lon="0.79735">
        <ele>1367.8</ele>
        <time>2018-11-24T09:20:04Z</time>
      </trkpt>
      <trkpt lat="42.81448" lon="0.7974">
        <ele>1368</ele>
        <time>2018-11-24T09:20:05Z</time>
      </trkpt>
      <trkpt lat="42.81447" lon="0.79745">
        <ele>1368.8</ele>
        <time>2018-11-24T09:20:07Z</time>
      </trkpt>
      <trkpt lat="42.81445" lon="0.7975">
        <ele>1369.6</ele>
        <time>2018-11-24T09:20:08Z</time>
      </trkpt>
      <trkpt lat="42.81444" lon="0.79754">
        <ele>1370</ele>
        <time>2018-11-24T09:20:10Z</time>
      </trkpt>
      <trkpt lat="42.81442" lon="0.79759">
        <ele>1370.3</ele>
        <time>2018-11-24T09:20:12Z</time>
      </trkpt>
      <trkpt lat="42.81441" lon="0.79764">
        <ele>1370.5</ele>
        <time>2018-11-24T09:20:13Z</time>
      </trkpt>
      <trkpt lat="42.81439" lon="0.79769">
        <ele>1371.4</ele>
        <time>2018-11-24T09:20:15Z</time>
      </trkpt>
      <trkpt lat="42.81437" lon="0.79774">
        <ele>1372.1</ele>
        <time>2018-11-24T09:20:16Z</time>
      </trkpt>
      <trkpt lat="42.81435" lon="0.79779">
        <ele>1372.9</ele>
        <time>2018-11-24T09:20:18Z</time>
      </trkpt>
      <trkpt lat="42.81433" lon="0.79783">
        <ele>1372.9</ele>
        <time>2018-11-24T09:20:20Z</time>
      </trkpt>
      <trkpt lat="42.81431" lon="0.79788">
        <ele>1372.8</ele>
        <time>2018-11-24T09:20:21Z</time>
      </trkpt>
      <trkpt lat="42.81429" lon="0.79793">
        <ele>1372.6</ele>
        <time>2018-11-24T09:20:23Z</time>
      </trkpt>
      <trkpt lat="42.81427" lon="0.79798">
        <ele>1372.3</ele>
        <time>2018-11-24T09:20:24Z</time>
      </trkpt>
      <trkpt lat="42.81425" lon="0.79803">
        <ele>1372</ele>
        <time>2018-11-24T09:20:26Z</time>
      </trkpt>
      <trkpt lat="42.81422" lon="0.79807">
        <ele>1371.5</ele>
        <time>2018-11-24T09:20:28Z</time>
      </trkpt>
      <trkpt lat="42.8142" lon="0.79812">
        <ele>1370.5</ele>
        <time>2018-11-24T09:20:29Z</time>
      </trkpt>
      <trkpt lat="42.81418" lon="0.79817">
        <ele>1369.8</ele>
        <time>2018-11-24T09:20:31Z</time>
      </trkpt>
      <trkpt lat="42.81416" lon="0.79821">
        <ele>1369.2</ele>
        <time>2018-11-24T09:20:33Z</time>
      </trkpt>
      <trkpt lat="42.81414" lon="0.79825">
        <ele>1368.8</ele>
        <time>2018-11-24T09:20:34Z</time>
      </trkpt>
      <trkpt lat="42.81412" lon="0.7983">
        <ele>1368.2</ele>
        <time>2018-11-24T09:20:36Z</time>
      </trkpt>
      <trkpt lat="42.8141" lon="0.79834">
        <ele>1367.7</ele>
        <time>2018-11-24T09:20:37Z</time>
      </trkpt>
      <trkpt lat="42.81408" lon="0.79838">
        <ele>1367.3</ele>
        <time>2018-11-24T09:20:38Z</time>
      </trkpt>
      <trkpt lat="42.81405" lon="0.79841">
        <ele>1368.2</ele>
        <time>2018-11-24T09:20:40Z</time>
      </trkpt>
      <trkpt lat="42.81401" lon="0.79843">
        <ele>1368.9</ele>
        <time>2018-11-24T09:20:42Z</time>
      </trkpt>
      <trkpt lat="42.81398" lon="0.79846">
        <ele>1369.6</ele>
        <time>2018-11-24T09:20:43Z</time>
      </trkpt>
      <trkpt lat="42.81394" lon="0.79848">
        <ele>1370.3</ele>
        <time>2018-11-24T09:20:45Z</time>
      </trkpt>
      <trkpt lat="42.81391" lon="0.79851">
        <ele>1370.8</ele>
        <time>2018-11-24T09:20:46Z</time>
      </trkpt>
      <trkpt lat="42.81387" lon="0.7985">
        <ele>1372.7</ele>
        <time>2018-11-24T09:20:48Z</time>
      </trkpt>
      <trkpt lat="42.81384" lon="0.7985">
        <ele>1374.7</ele>
        <time>2018-11-24T09:20:49Z</time>
      </trkpt>
      <trkpt lat="42.8138" lon="0.79849">
        <ele>1376.6</ele>
        <time>2018-11-24T09:20:51Z</time>
      </trkpt>
      <trkpt lat="42.81377" lon="0.79849">
        <ele>1378.5</ele>
        <time>2018-11-24T09:20:52Z</time>
      </trkpt>
      <trkpt lat="42.81373" lon="0.79848">
        <ele>1380.3</ele>
        <time>2018-11-24T09:20:54Z</time>
      </trkpt>
      <trkpt lat="42.81369" lon="0.79847">
        <ele>1382.3</ele>
        <time>2018-11-24T09:20:55Z</time>
      </trkpt>
      <trkpt lat="42.81366" lon="0.79847">
        <ele>1384.2</ele>
        <time>2018-11-24T09:20:56Z</time>
      </trkpt>
      <trkpt lat="42.81362" lon="0.79846">
        <ele>1386.2</ele>
        <time>2018-11-24T09:20:58Z</time>
      </trkpt>
      <trkpt lat="42.81358" lon="0.79845">
        <ele>1388.9</ele>
        <time>2018-11-24T09:21:00Z</time>
      </trkpt>
      <trkpt lat="42.81353" lon="0.79844">
        <ele>1391.9</ele>
        <time>2018-11-24T09:21:02Z</time>
      </trkpt>
      <trkpt lat="42.81349" lon="0.79843">
        <ele>1394.5</ele>
        <time>2018-11-24T09:21:03Z</time>
      </trkpt>
      <trkpt lat="42.81346" lon="0.79843">
        <ele>1396.4</ele>
        <time>2018-11-24T09:21:05Z</time>
      </trkpt>
      <trkpt lat="42.81342" lon="0.79843">
        <ele>1398.2</ele>
        <time>2018-11-24T09:21:06Z</time>
      </trkpt>
      <trkpt lat="42.81339" lon="0.79843">
        <ele>1399.8</ele>
        <time>2018-11-24T09:21:07Z</time>
      </trkpt>
      <trkpt lat="42.81335" lon="0.79845">
        <ele>1401.2</ele>
        <time>2018-11-24T09:21:09Z</time>
      </trkpt>
      <trkpt lat="42.81331" lon="0.79847">
        <ele>1402.6</ele>
        <time>2018-11-24T09:21:11Z</time>
      </trkpt>
      <trkpt lat="42.81327" lon="0.79849">
        <ele>1404.1</ele>
        <time>2018-11-24T09:21:12Z</time>
      </trkpt>
      <trkpt lat="42.81323" lon="0.7985">
        <ele>1406.3</ele>
        <time>2018-11-24T09:21:14Z</time>
      </trkpt>
      <trkpt lat="42.81318" lon="0.79852">
        <ele>1408.6</ele>
        <time>2018-11-24T09:21:16Z</time>
      </trkpt>
      <trkpt lat="42.81314" lon="0.79853">
        <ele>1411.1</ele>
        <time>2018-11-24T09:21:18Z</time>
      </trkpt>
      <trkpt lat="42.81311" lon="0.79855">
        <ele>1412.7</ele>
        <time>2018-11-24T09:21:19Z</time>
      </trkpt>
      <trkpt lat="42.81308" lon="0.79856">
        <ele>1414.4</ele>
        <time>2018-11-24T09:21:20Z</time>
      </trkpt>
      <trkpt lat="42.81305" lon="0.79859">
        <ele>1415.5</ele>
        <time>2018-11-24T09:21:22Z</time>
      </trkpt>
      <trkpt lat="42.81303" lon="0.79863">
        <ele>1417.6</ele>
        <time>2018-11-24T09:21:23Z</time>
      </trkpt>
      <trkpt lat="42.813" lon="0.79866">
        <ele>1420.3</ele>
        <time>2018-11-24T09:21:25Z</time>
      </trkpt>
      <trkpt lat="42.81298" lon="0.79871">
        <ele>1422.1</ele>
        <time>2018-11-24T09:21:26Z</time>
      </trkpt>
      <trkpt lat="42.81297" lon="0.79875">
        <ele>1424.1</ele>
        <time>2018-11-24T09:21:28Z</time>
      </trkpt>
      <trkpt lat="42.81295" lon="0.7988">
        <ele>1426.1</ele>
        <time>2018-11-24T09:21:29Z</time>
      </trkpt>
      <trkpt lat="42.81293" lon="0.79884">
        <ele>1428.8</ele>
        <time>2018-11-24T09:21:31Z</time>
      </trkpt>
      <trkpt lat="42.8129" lon="0.79888">
        <ele>1431.3</ele>
        <time>2018-11-24T09:21:32Z</time>
      </trkpt>
      <trkpt lat="42.8129" lon="0.79894">
        <ele>1431.3</ele>
        <time>2018-11-24T09:21:34Z</time>
      </trkpt>
      <trkpt lat="42.8129" lon="0.79899">
        <ele>1431.2</ele>
        <time>2018-11-24T09:21:36Z</time>
      </trkpt>
      <trkpt lat="42.81287" lon="0.79901">
        <ele>1433.4</ele>
        <time>2018-11-24T09:21:37Z</time>
      </trkpt>
      <trkpt lat="42.81284" lon="0.79903">
        <ele>1435.4</ele>
        <time>2018-11-24T09:21:38Z</time>
      </trkpt>
      <trkpt lat="42.81281" lon="0.79908">
        <ele>1437</ele>
        <time>2018-11-24T09:21:40Z</time>
      </trkpt>
      <trkpt lat="42.81279" lon="0.79912">
        <ele>1438.1</ele>
        <time>2018-11-24T09:21:42Z</time>
      </trkpt>
      <trkpt lat="42.81276" lon="0.79917">
        <ele>1438.1</ele>
        <time>2018-11-24T09:21:43Z</time>
      </trkpt>
      <trkpt lat="42.81273" lon="0.79921">
        <ele>1435.6</ele>
        <time>2018-11-24T09:21:45Z</time>
      </trkpt>
      <trkpt lat="42.81271" lon="0.79926">
        <ele>1432.9</ele>
        <time>2018-11-24T09:21:47Z</time>
      </trkpt>
      <trkpt lat="42.81268" lon="0.7993">
        <ele>1430.2</ele>
        <time>2018-11-24T09:21:48Z</time>
      </trkpt>
      <trkpt lat="42.81265" lon="0.79931">
        <ele>1429.6</ele>
        <time>2018-11-24T09:21:50Z</time>
      </trkpt>
      <trkpt lat="42.81261" lon="0.79932">
        <ele>1429.1</ele>
        <time>2018-11-24T09:21:51Z</time>
      </trkpt>
      <trkpt lat="42.81258" lon="0.79932">
        <ele>1428.6</ele>
        <time>2018-11-24T09:21:53Z</time>
      </trkpt>
      <trkpt lat="42.81254" lon="0.79933">
        <ele>1428.2</ele>
        <time>2018-11-24T09:21:54Z</time>
      </trkpt>
      <trkpt lat="42.81251" lon="0.79935">
        <ele>1426.9</ele>
        <time>2018-11-24T09:21:56Z</time>
      </trkpt>
      <trkpt lat="42.81247" lon="0.79937">
        <ele>1424.7</ele>
        <time>2018-11-24T09:21:57Z</time>
      </trkpt>
      <trkpt lat="42.81244" lon="0.79939">
        <ele>1422.6</ele>
        <time>2018-11-24T09:21:59Z</time>
      </trkpt>
      <trkpt lat="42.8124" lon="0.79941">
        <ele>1420.6</ele>
        <time>2018-11-24T09:22:00Z</time>
      </trkpt>
      <trkpt lat="42.81238" lon="0.79944">
        <ele>1418</ele>
        <time>2018-11-24T09:22:01Z</time>
      </trkpt>
      <trkpt lat="42.81235" lon="0.79948">
        <ele>1416.3</ele>
        <time>2018-11-24T09:22:03Z</time>
      </trkpt>
      <trkpt lat="42.81233" lon="0.79951">
        <ele>1414.9</ele>
        <time>2018-11-24T09:22:04Z</time>
      </trkpt>
      <trkpt lat="42.81229" lon="0.79954">
        <ele>1413.8</ele>
        <time>2018-11-24T09:22:06Z</time>
      </trkpt>
      <trkpt lat="42.81226" lon="0.79956">
        <ele>1413</ele>
        <time>2018-11-24T09:22:07Z</time>
      </trkpt>
      <trkpt lat="42.81222" lon="0.79959">
        <ele>1412.6</ele>
        <time>2018-11-24T09:22:09Z</time>
      </trkpt>
      <trkpt lat="42.8122" lon="0.79964">
        <ele>1413.4</ele>
        <time>2018-11-24T09:22:11Z</time>
      </trkpt>
      <trkpt lat="42.81218" lon="0.7997">
        <ele>1414.3</ele>
        <time>2018-11-24T09:22:13Z</time>
      </trkpt>
      <trkpt lat="42.81216" lon="0.79975">
        <ele>1415.8</ele>
        <time>2018-11-24T09:22:14Z</time>
      </trkpt>
      <trkpt lat="42.81216" lon="0.79978">
        <ele>1416.2</ele>
        <time>2018-11-24T09:22:15Z</time>
      </trkpt>
      <trkpt lat="42.81215" lon="0.79983">
        <ele>1417.3</ele>
        <time>2018-11-24T09:22:17Z</time>
      </trkpt>
      <trkpt lat="42.81215" lon="0.79988">
        <ele>1418.2</ele>
        <time>2018-11-24T09:22:18Z</time>
      </trkpt>
      <trkpt lat="42.81214" lon="0.79994">
        <ele>1419.3</ele>
        <time>2018-11-24T09:22:20Z</time>
      </trkpt>
      <trkpt lat="42.81214" lon="0.79999">
        <ele>1420.4</ele>
        <time>2018-11-24T09:22:22Z</time>
      </trkpt>
      <trkpt lat="42.81213" lon="0.80004">
        <ele>1421.6</ele>
        <time>2018-11-24T09:22:23Z</time>
      </trkpt>
      <trkpt lat="42.81213" lon="0.80009">
        <ele>1422.4</ele>
        <time>2018-11-24T09:22:25Z</time>
      </trkpt>
      <trkpt lat="42.81213" lon="0.80014">
        <ele>1423.2</ele>
        <time>2018-11-24T09:22:26Z</time>
      </trkpt>
      <trkpt lat="42.81214" lon="0.8002">
        <ele>1423.8</ele>
        <time>2018-11-24T09:22:28Z</time>
      </trkpt>
      <trkpt lat="42.81214" lon="0.80025">
        <ele>1424.5</ele>
        <time>2018-11-24T09:22:29Z</time>
      </trkpt>
      <trkpt lat="42.81214" lon="0.8003">
        <ele>1425.1</ele>
        <time>2018-11-24T09:22:31Z</time>
      </trkpt>
      <trkpt lat="42.81214" lon="0.80035">
        <ele>1425.5</ele>
        <time>2018-11-24T09:22:32Z</time>
      </trkpt>
      <trkpt lat="42.81214" lon="0.80041">
        <ele>1426</ele>
        <time>2018-11-24T09:22:34Z</time>
      </trkpt>
      <trkpt lat="42.81214" lon="0.80046">
        <ele>1426.5</ele>
        <time>2018-11-24T09:22:35Z</time>
      </trkpt>
      <trkpt lat="42.81214" lon="0.80051">
        <ele>1427</ele>
        <time>2018-11-24T09:22:37Z</time>
      </trkpt>
      <trkpt lat="42.81215" lon="0.80056">
        <ele>1426.5</ele>
        <time>2018-11-24T09:22:38Z</time>
      </trkpt>
      <trkpt lat="42.81216" lon="0.80061">
        <ele>1426.2</ele>
        <time>2018-11-24T09:22:40Z</time>
      </trkpt>
      <trkpt lat="42.81218" lon="0.80066">
        <ele>1426</ele>
        <time>2018-11-24T09:22:41Z</time>
      </trkpt>
      <trkpt lat="42.81219" lon="0.80071">
        <ele>1425.8</ele>
        <time>2018-11-24T09:22:43Z</time>
      </trkpt>
      <trkpt lat="42.8122" lon="0.80076">
        <ele>1425.6</ele>
        <time>2018-11-24T09:22:45Z</time>
      </trkpt>
      <trkpt lat="42.81221" lon="0.80081">
        <ele>1425.8</ele>
        <time>2018-11-24T09:22:46Z</time>
      </trkpt>
      <trkpt lat="42.81222" lon="0.80086">
        <ele>1425.6</ele>
        <time>2018-11-24T09:22:48Z</time>
      </trkpt>
      <trkpt lat="42.81223" lon="0.80092">
        <ele>1425.4</ele>
        <time>2018-11-24T09:22:49Z</time>
      </trkpt>
      <trkpt lat="42.81223" lon="0.80097">
        <ele>1425</ele>
        <time>2018-11-24T09:22:51Z</time>
      </trkpt>
      <trkpt lat="42.81224" lon="0.80102">
        <ele>1424.6</ele>
        <time>2018-11-24T09:22:52Z</time>
      </trkpt>
      <trkpt lat="42.81225" lon="0.80107">
        <ele>1424.4</ele>
        <time>2018-11-24T09:22:54Z</time>
      </trkpt>
      <trkpt lat="42.81224" lon="0.80112">
        <ele>1425.5</ele>
        <time>2018-11-24T09:22:55Z</time>
      </trkpt>
      <trkpt lat="42.81223" lon="0.80117">
        <ele>1425.3</ele>
        <time>2018-11-24T09:22:57Z</time>
      </trkpt>
      <trkpt lat="42.81221" lon="0.80121">
        <ele>1424.8</ele>
        <time>2018-11-24T09:22:58Z</time>
      </trkpt>
      <trkpt lat="42.8122" lon="0.80126">
        <ele>1424.5</ele>
        <time>2018-11-24T09:23:00Z</time>
      </trkpt>
      <trkpt lat="42.81218" lon="0.8013">
        <ele>1425.1</ele>
        <time>2018-11-24T09:23:01Z</time>
      </trkpt>
      <trkpt lat="42.81215" lon="0.80134">
        <ele>1425.8</ele>
        <time>2018-11-24T09:23:03Z</time>
      </trkpt>
      <trkpt lat="42.81213" lon="0.80138">
        <ele>1426.6</ele>
        <time>2018-11-24T09:23:04Z</time>
      </trkpt>
      <trkpt lat="42.8121" lon="0.80142">
        <ele>1427.4</ele>
        <time>2018-11-24T09:23:06Z</time>
      </trkpt>
      <trkpt lat="42.81207" lon="0.80146">
        <ele>1428.4</ele>
        <time>2018-11-24T09:23:08Z</time>
      </trkpt>
      <trkpt lat="42.81204" lon="0.80151">
        <ele>1429.3</ele>
        <time>2018-11-24T09:23:10Z</time>
      </trkpt>
      <trkpt lat="42.81201" lon="0.80155">
        <ele>1430.2</ele>
        <time>2018-11-24T09:23:11Z</time>
      </trkpt>
      <trkpt lat="42.81198" lon="0.80159">
        <ele>1430.7</ele>
        <time>2018-11-24T09:23:13Z</time>
      </trkpt>
      <trkpt lat="42.81195" lon="0.80164">
        <ele>1431.5</ele>
        <time>2018-11-24T09:23:15Z</time>
      </trkpt>
      <trkpt lat="42.81193" lon="0.80168">
        <ele>1432.2</ele>
        <time>2018-11-24T09:23:16Z</time>
      </trkpt>
      <trkpt lat="42.8119" lon="0.80172">
        <ele>1433.3</ele>
        <time>2018-11-24T09:23:18Z</time>
      </trkpt>
      <trkpt lat="42.81187" lon="0.80177">
        <ele>1434.3</ele>
        <time>2018-11-24T09:23:20Z</time>
      </trkpt>
      <trkpt lat="42.81184" lon="0.80181">
        <ele>1435.2</ele>
        <time>2018-11-24T09:23:21Z</time>
      </trkpt>
      <trkpt lat="42.81181" lon="0.80186">
        <ele>1436.1</ele>
        <time>2018-11-24T09:23:23Z</time>
      </trkpt>
      <trkpt lat="42.81179" lon="0.80191">
        <ele>1436.8</ele>
        <time>2018-11-24T09:23:25Z</time>
      </trkpt>
      <trkpt lat="42.81176" lon="0.80195">
        <ele>1437.6</ele>
        <time>2018-11-24T09:23:27Z</time>
      </trkpt>
      <trkpt lat="42.81173" lon="0.802">
        <ele>1438.7</ele>
        <time>2018-11-24T09:23:29Z</time>
      </trkpt>
      <trkpt lat="42.81171" lon="0.80204">
        <ele>1439.2</ele>
        <time>2018-11-24T09:23:30Z</time>
      </trkpt>
      <trkpt lat="42.81169" lon="0.80208">
        <ele>1440</ele>
        <time>2018-11-24T09:23:31Z</time>
      </trkpt>
      <trkpt lat="42.81167" lon="0.80212">
        <ele>1440.7</ele>
        <time>2018-11-24T09:23:33Z</time>
      </trkpt>
      <trkpt lat="42.81165" lon="0.80216">
        <ele>1441.4</ele>
        <time>2018-11-24T09:23:34Z</time>
      </trkpt>
      <trkpt lat="42.81162" lon="0.80221">
        <ele>1442.2</ele>
        <time>2018-11-24T09:23:36Z</time>
      </trkpt>
      <trkpt lat="42.8116" lon="0.80225">
        <ele>1443.3</ele>
        <time>2018-11-24T09:23:38Z</time>
      </trkpt>
      <trkpt lat="42.81157" lon="0.80229">
        <ele>1444.6</ele>
        <time>2018-11-24T09:23:39Z</time>
      </trkpt>
      <trkpt lat="42.81154" lon="0.80233">
        <ele>1445.9</ele>
        <time>2018-11-24T09:23:41Z</time>
      </trkpt>
      <trkpt lat="42.81152" lon="0.80237">
        <ele>1447</ele>
        <time>2018-11-24T09:23:42Z</time>
      </trkpt>
      <trkpt lat="42.81149" lon="0.80241">
        <ele>1448.2</ele>
        <time>2018-11-24T09:23:44Z</time>
      </trkpt>
      <trkpt lat="42.81147" lon="0.80245">
        <ele>1449.3</ele>
        <time>2018-11-24T09:23:46Z</time>
      </trkpt>
      <trkpt lat="42.81144" lon="0.80249">
        <ele>1450.4</ele>
        <time>2018-11-24T09:23:47Z</time>
      </trkpt>
      <trkpt lat="42.81141" lon="0.80253">
        <ele>1451.8</ele>
        <time>2018-11-24T09:23:49Z</time>
      </trkpt>
      <trkpt lat="42.81137" lon="0.80256">
        <ele>1452.8</ele>
        <time>2018-11-24T09:23:51Z</time>
      </trkpt>
      <trkpt lat="42.81134" lon="0.8026">
        <ele>1453.5</ele>
        <time>2018-11-24T09:23:52Z</time>
      </trkpt>
      <trkpt lat="42.8113" lon="0.80263">
        <ele>1454.3</ele>
        <time>2018-11-24T09:23:54Z</time>
      </trkpt>
      <trkpt lat="42.81127" lon="0.80265">
        <ele>1454.9</ele>
        <time>2018-11-24T09:23:56Z</time>
      </trkpt>
      <trkpt lat="42.81123" lon="0.80268">
        <ele>1455.7</ele>
        <time>2018-11-24T09:23:57Z</time>
      </trkpt>
      <trkpt lat="42.8112" lon="0.8027">
        <ele>1456.4</ele>
        <time>2018-11-24T09:23:59Z</time>
      </trkpt>
      <trkpt lat="42.81117" lon="0.80272">
        <ele>1457.2</ele>
        <time>2018-11-24T09:24:00Z</time>
      </trkpt>
      <trkpt lat="42.81114" lon="0.80275">
        <ele>1457.7</ele>
        <time>2018-11-24T09:24:01Z</time>
      </trkpt>
      <trkpt lat="42.81111" lon="0.80277">
        <ele>1458.2</ele>
        <time>2018-11-24T09:24:03Z</time>
      </trkpt>
      <trkpt lat="42.81108" lon="0.80279">
        <ele>1458.7</ele>
        <time>2018-11-24T09:24:04Z</time>
      </trkpt>
      <trkpt lat="42.81104" lon="0.80281">
        <ele>1459.4</ele>
        <time>2018-11-24T09:24:06Z</time>
      </trkpt>
      <trkpt lat="42.811" lon="0.80283">
        <ele>1460.2</ele>
        <time>2018-11-24T09:24:07Z</time>
      </trkpt>
      <trkpt lat="42.81096" lon="0.80286">
        <ele>1461</ele>
        <time>2018-11-24T09:24:09Z</time>
      </trkpt>
      <trkpt lat="42.81092" lon="0.80288">
        <ele>1461.7</ele>
        <time>2018-11-24T09:24:11Z</time>
      </trkpt>
      <trkpt lat="42.81088" lon="0.8029">
        <ele>1462.4</ele>
        <time>2018-11-24T09:24:13Z</time>
      </trkpt>
      <trkpt lat="42.81085" lon="0.80294">
        <ele>1462.6</ele>
        <time>2018-11-24T09:24:14Z</time>
      </trkpt>
      <trkpt lat="42.81082" lon="0.80298">
        <ele>1462.4</ele>
        <time>2018-11-24T09:24:16Z</time>
      </trkpt>
      <trkpt lat="42.81078" lon="0.80301">
        <ele>1461.8</ele>
        <time>2018-11-24T09:24:18Z</time>
      </trkpt>
      <trkpt lat="42.81075" lon="0.80305">
        <ele>1461.3</ele>
        <time>2018-11-24T09:24:19Z</time>
      </trkpt>
      <trkpt lat="42.81072" lon="0.80309">
        <ele>1460.6</ele>
        <time>2018-11-24T09:24:21Z</time>
      </trkpt>
      <trkpt lat="42.81069" lon="0.80314">
        <ele>1459.9</ele>
        <time>2018-11-24T09:24:23Z</time>
      </trkpt>
      <trkpt lat="42.81066" lon="0.80318">
        <ele>1459.1</ele>
        <time>2018-11-24T09:24:25Z</time>
      </trkpt>
      <trkpt lat="42.81065" lon="0.80323">
        <ele>1457.9</ele>
        <time>2018-11-24T09:24:26Z</time>
      </trkpt>
      <trkpt lat="42.81063" lon="0.80328">
        <ele>1456.8</ele>
        <time>2018-11-24T09:24:28Z</time>
      </trkpt>
      <trkpt lat="42.81062" lon="0.80332">
        <ele>1455.7</ele>
        <time>2018-11-24T09:24:29Z</time>
      </trkpt>
      <trkpt lat="42.8106" lon="0.80337">
        <ele>1454</ele>
        <time>2018-11-24T09:24:31Z</time>
      </trkpt>
      <trkpt lat="42.81059" lon="0.80342">
        <ele>1452.1</ele>
        <time>2018-11-24T09:24:32Z</time>
      </trkpt>
      <trkpt lat="42.81055" lon="0.80343">
        <ele>1452.1</ele>
        <time>2018-11-24T09:24:34Z</time>
      </trkpt>
      <trkpt lat="42.81052" lon="0.80343">
        <ele>1451.1</ele>
        <time>2018-11-24T09:24:35Z</time>
      </trkpt>
      <trkpt lat="42.81048" lon="0.80344">
        <ele>1450.2</ele>
        <time>2018-11-24T09:24:37Z</time>
      </trkpt>
      <trkpt lat="42.81044" lon="0.80344">
        <ele>1449.1</ele>
        <time>2018-11-24T09:24:38Z</time>
      </trkpt>
      <trkpt lat="42.8104" lon="0.80346">
        <ele>1447.5</ele>
        <time>2018-11-24T09:24:40Z</time>
      </trkpt>
      <trkpt lat="42.81036" lon="0.80347">
        <ele>1445.9</ele>
        <time>2018-11-24T09:24:42Z</time>
      </trkpt>
      <trkpt lat="42.81033" lon="0.80349">
        <ele>1444.2</ele>
        <time>2018-11-24T09:24:43Z</time>
      </trkpt>
      <trkpt lat="42.81029" lon="0.8035">
        <ele>1442.5</ele>
        <time>2018-11-24T09:24:45Z</time>
      </trkpt>
      <trkpt lat="42.81025" lon="0.80352">
        <ele>1440.1</ele>
        <time>2018-11-24T09:24:46Z</time>
      </trkpt>
      <trkpt lat="42.81021" lon="0.80353">
        <ele>1437.9</ele>
        <time>2018-11-24T09:24:48Z</time>
      </trkpt>
      <trkpt lat="42.81016" lon="0.80354">
        <ele>1435.7</ele>
        <time>2018-11-24T09:24:50Z</time>
      </trkpt>
      <trkpt lat="42.81012" lon="0.80354">
        <ele>1433.6</ele>
        <time>2018-11-24T09:24:52Z</time>
      </trkpt>
      <trkpt lat="42.81007" lon="0.80355">
        <ele>1431.3</ele>
        <time>2018-11-24T09:24:53Z</time>
      </trkpt>
      <trkpt lat="42.81003" lon="0.80356">
        <ele>1429.1</ele>
        <time>2018-11-24T09:24:55Z</time>
      </trkpt>
      <trkpt lat="42.80999" lon="0.80357">
        <ele>1427.4</ele>
        <time>2018-11-24T09:24:57Z</time>
      </trkpt>
      <trkpt lat="42.80995" lon="0.80357">
        <ele>1426.6</ele>
        <time>2018-11-24T09:24:58Z</time>
      </trkpt>
      <trkpt lat="42.80992" lon="0.80358">
        <ele>1425.5</ele>
        <time>2018-11-24T09:25:00Z</time>
      </trkpt>
      <trkpt lat="42.80988" lon="0.80359">
        <ele>1424.6</ele>
        <time>2018-11-24T09:25:01Z</time>
      </trkpt>
      <trkpt lat="42.80984" lon="0.80359">
        <ele>1423.7</ele>
        <time>2018-11-24T09:25:03Z</time>
      </trkpt>
      <trkpt lat="42.8098" lon="0.8036">
        <ele>1422.7</ele>
        <time>2018-11-24T09:25:04Z</time>
      </trkpt>
      <trkpt lat="42.80976" lon="0.8036">
        <ele>1422</ele>
        <time>2018-11-24T09:25:06Z</time>
      </trkpt>
      <trkpt lat="42.80972" lon="0.8036">
        <ele>1421.5</ele>
        <time>2018-11-24T09:25:08Z</time>
      </trkpt>
      <trkpt lat="42.80968" lon="0.80361">
        <ele>1420.7</ele>
        <time>2018-11-24T09:25:09Z</time>
      </trkpt>
      <trkpt lat="42.80964" lon="0.80361">
        <ele>1420</ele>
        <time>2018-11-24T09:25:11Z</time>
      </trkpt>
      <trkpt lat="42.8096" lon="0.80361">
        <ele>1419.4</ele>
        <time>2018-11-24T09:25:13Z</time>
      </trkpt>
      <trkpt lat="42.80956" lon="0.80362">
        <ele>1418.4</ele>
        <time>2018-11-24T09:25:14Z</time>
      </trkpt>
      <trkpt lat="42.80952" lon="0.80362">
        <ele>1417.3</ele>
        <time>2018-11-24T09:25:16Z</time>
      </trkpt>
      <trkpt lat="42.80948" lon="0.80363">
        <ele>1416.3</ele>
        <time>2018-11-24T09:25:18Z</time>
      </trkpt>
      <trkpt lat="42.80943" lon="0.80364">
        <ele>1415.8</ele>
        <time>2018-11-24T09:25:19Z</time>
      </trkpt>
      <trkpt lat="42.80939" lon="0.80365">
        <ele>1416.7</ele>
        <time>2018-11-24T09:25:21Z</time>
      </trkpt>
      <trkpt lat="42.80935" lon="0.80365">
        <ele>1417.8</ele>
        <time>2018-11-24T09:25:23Z</time>
      </trkpt>
      <trkpt lat="42.80931" lon="0.80366">
        <ele>1418.9</ele>
        <time>2018-11-24T09:25:24Z</time>
      </trkpt>
      <trkpt lat="42.80928" lon="0.80367">
        <ele>1419.5</ele>
        <time>2018-11-24T09:25:25Z</time>
      </trkpt>
      <trkpt lat="42.80925" lon="0.80367">
        <ele>1420.2</ele>
        <time>2018-11-24T09:25:27Z</time>
      </trkpt>
      <trkpt lat="42.80922" lon="0.80368">
        <ele>1420.8</ele>
        <time>2018-11-24T09:25:28Z</time>
      </trkpt>
      <trkpt lat="42.80918" lon="0.80368">
        <ele>1421.9</ele>
        <time>2018-11-24T09:25:29Z</time>
      </trkpt>
      <trkpt lat="42.80914" lon="0.80368">
        <ele>1422.8</ele>
        <time>2018-11-24T09:25:31Z</time>
      </trkpt>
      <trkpt lat="42.8091" lon="0.80369">
        <ele>1423.6</ele>
        <time>2018-11-24T09:25:33Z</time>
      </trkpt>
      <trkpt lat="42.80906" lon="0.80369">
        <ele>1424.1</ele>
        <time>2018-11-24T09:25:34Z</time>
      </trkpt>
      <trkpt lat="42.80902" lon="0.80369">
        <ele>1424.9</ele>
        <time>2018-11-24T09:25:36Z</time>
      </trkpt>
      <trkpt lat="42.80898" lon="0.8037">
        <ele>1425.2</ele>
        <time>2018-11-24T09:25:37Z</time>
      </trkpt>
      <trkpt lat="42.80895" lon="0.8037">
        <ele>1425.5</ele>
        <time>2018-11-24T09:25:39Z</time>
      </trkpt>
      <trkpt lat="42.80891" lon="0.80371">
        <ele>1425.9</ele>
        <time>2018-11-24T09:25:40Z</time>
      </trkpt>
      <trkpt lat="42.80887" lon="0.80371">
        <ele>1426.1</ele>
        <time>2018-11-24T09:25:42Z</time>
      </trkpt>
      <trkpt lat="42.80883" lon="0.80371">
        <ele>1426.6</ele>
        <time>2018-11-24T09:25:44Z</time>
      </trkpt>
      <trkpt lat="42.80879" lon="0.80371">
        <ele>1427.2</ele>
        <time>2018-11-24T09:25:45Z</time>
      </trkpt>
      <trkpt lat="42.80874" lon="0.80372">
        <ele>1427.6</ele>
        <time>2018-11-24T09:25:47Z</time>
      </trkpt>
      <trkpt lat="42.8087" lon="0.80372">
        <ele>1428</ele>
        <time>2018-11-24T09:25:49Z</time>
      </trkpt>
      <trkpt lat="42.80866" lon="0.80372">
        <ele>1428.7</ele>
        <time>2018-11-24T09:25:50Z</time>
      </trkpt>
      <trkpt lat="42.80862" lon="0.80371">
        <ele>1429.5</ele>
        <time>2018-11-24T09:25:52Z</time>
      </trkpt>
      <trkpt lat="42.80858" lon="0.80371">
        <ele>1429.4</ele>
        <time>2018-11-24T09:25:53Z</time>
      </trkpt>
      <trkpt lat="42.80855" lon="0.8037">
        <ele>1428.9</ele>
        <time>2018-11-24T09:25:55Z</time>
      </trkpt>
      <trkpt lat="42.80851" lon="0.8037">
        <ele>1428.5</ele>
        <time>2018-11-24T09:25:56Z</time>
      </trkpt>
      <trkpt lat="42.80847" lon="0.80369">
        <ele>1428.1</ele>
        <time>2018-11-24T09:25:58Z</time>
      </trkpt>
      <trkpt lat="42.80843" lon="0.80369">
        <ele>1427.5</ele>
        <time>2018-11-24T09:25:59Z</time>
      </trkpt>
      <trkpt lat="42.80839" lon="0.80369">
        <ele>1426.8</ele>
        <time>2018-11-24T09:26:01Z</time>
      </trkpt>
      <trkpt lat="42.80836" lon="0.80369">
        <ele>1426.1</ele>
        <time>2018-11-24T09:26:03Z</time>
      </trkpt>
      <trkpt lat="42.80832" lon="0.80369">
        <ele>1425.5</ele>
        <time>2018-11-24T09:26:04Z</time>
      </trkpt>
      <trkpt lat="42.80828" lon="0.80369">
        <ele>1424.4</ele>
        <time>2018-11-24T09:26:06Z</time>
      </trkpt>
      <trkpt lat="42.80824" lon="0.80369">
        <ele>1423.6</ele>
        <time>2018-11-24T09:26:07Z</time>
      </trkpt>
      <trkpt lat="42.8082" lon="0.80369">
        <ele>1422.5</ele>
        <time>2018-11-24T09:26:09Z</time>
      </trkpt>
      <trkpt lat="42.80816" lon="0.80369">
        <ele>1421.5</ele>
        <time>2018-11-24T09:26:11Z</time>
      </trkpt>
      <trkpt lat="42.80811" lon="0.80369">
        <ele>1420.6</ele>
        <time>2018-11-24T09:26:12Z</time>
      </trkpt>
      <trkpt lat="42.80807" lon="0.80369">
        <ele>1419.5</ele>
        <time>2018-11-24T09:26:14Z</time>
      </trkpt>
      <trkpt lat="42.80803" lon="0.80369">
        <ele>1418.7</ele>
        <time>2018-11-24T09:26:16Z</time>
      </trkpt>
      <trkpt lat="42.80799" lon="0.80369">
        <ele>1417.5</ele>
        <time>2018-11-24T09:26:17Z</time>
      </trkpt>
      <trkpt lat="42.80795" lon="0.80369">
        <ele>1416.5</ele>
        <time>2018-11-24T09:26:19Z</time>
      </trkpt>
      <trkpt lat="42.80791" lon="0.80368">
        <ele>1415.6</ele>
        <time>2018-11-24T09:26:20Z</time>
      </trkpt>
      <trkpt lat="42.80787" lon="0.80368">
        <ele>1414.5</ele>
        <time>2018-11-24T09:26:22Z</time>
      </trkpt>
      <trkpt lat="42.80783" lon="0.80368">
        <ele>1413.5</ele>
        <time>2018-11-24T09:26:24Z</time>
      </trkpt>
      <trkpt lat="42.80779" lon="0.80369">
        <ele>1412.1</ele>
        <time>2018-11-24T09:26:25Z</time>
      </trkpt>
      <trkpt lat="42.80775" lon="0.80369">
        <ele>1411.2</ele>
        <time>2018-11-24T09:26:27Z</time>
      </trkpt>
      <trkpt lat="42.80772" lon="0.8037">
        <ele>1410.5</ele>
        <time>2018-11-24T09:26:28Z</time>
      </trkpt>
      <trkpt lat="42.80768" lon="0.8037">
        <ele>1409.7</ele>
        <time>2018-11-24T09:26:30Z</time>
      </trkpt>
      <trkpt lat="42.80764" lon="0.80371">
        <ele>1409.1</ele>
        <time>2018-11-24T09:26:31Z</time>
      </trkpt>
      <trkpt lat="42.8076" lon="0.80371">
        <ele>1408.6</ele>
        <time>2018-11-24T09:26:33Z</time>
      </trkpt>
      <trkpt lat="42.80756" lon="0.80371">
        <ele>1408.3</ele>
        <time>2018-11-24T09:26:34Z</time>
      </trkpt>
      <trkpt lat="42.80752" lon="0.80371">
        <ele>1407.8</ele>
        <time>2018-11-24T09:26:36Z</time>
      </trkpt>
      <trkpt lat="42.80748" lon="0.80371">
        <ele>1407.6</ele>
        <time>2018-11-24T09:26:38Z</time>
      </trkpt>
      <trkpt lat="42.80745" lon="0.80371">
        <ele>1407.6</ele>
        <time>2018-11-24T09:26:39Z</time>
      </trkpt>
      <trkpt lat="42.80741" lon="0.80371">
        <ele>1407.3</ele>
        <time>2018-11-24T09:26:40Z</time>
      </trkpt>
      <trkpt lat="42.80738" lon="0.80371">
        <ele>1407.2</ele>
        <time>2018-11-24T09:26:42Z</time>
      </trkpt>
      <trkpt lat="42.80734" lon="0.80371">
        <ele>1407.2</ele>
        <time>2018-11-24T09:26:43Z</time>
      </trkpt>
      <trkpt lat="42.8073" lon="0.80371">
        <ele>1406.9</ele>
        <time>2018-11-24T09:26:45Z</time>
      </trkpt>
      <trkpt lat="42.80726" lon="0.80371">
        <ele>1406.9</ele>
        <time>2018-11-24T09:26:46Z</time>
      </trkpt>
      <trkpt lat="42.80722" lon="0.8037">
        <ele>1407.1</ele>
        <time>2018-11-24T09:26:48Z</time>
      </trkpt>
      <trkpt lat="42.80718" lon="0.8037">
        <ele>1407.6</ele>
        <time>2018-11-24T09:26:50Z</time>
      </trkpt>
      <trkpt lat="42.80715" lon="0.80369">
        <ele>1408.3</ele>
        <time>2018-11-24T09:26:51Z</time>
      </trkpt>
      <trkpt lat="42.80711" lon="0.80369">
        <ele>1408.9</ele>
        <time>2018-11-24T09:26:53Z</time>
      </trkpt>
      <trkpt lat="42.80707" lon="0.80368">
        <ele>1409.4</ele>
        <time>2018-11-24T09:26:54Z</time>
      </trkpt>
      <trkpt lat="42.80703" lon="0.80367">
        <ele>1410.2</ele>
        <time>2018-11-24T09:26:56Z</time>
      </trkpt>
      <trkpt lat="42.80699" lon="0.80366">
        <ele>1411</ele>
        <time>2018-11-24T09:26:57Z</time>
      </trkpt>
      <trkpt lat="42.80695" lon="0.80365">
        <ele>1412</ele>
        <time>2018-11-24T09:26:59Z</time>
      </trkpt>
      <trkpt lat="42.80691" lon="0.80364">
        <ele>1413</ele>
        <time>2018-11-24T09:27:01Z</time>
      </trkpt>
      <trkpt lat="42.80687" lon="0.80363">
        <ele>1414.1</ele>
        <time>2018-11-24T09:27:02Z</time>
      </trkpt>
      <trkpt lat="42.80683" lon="0.80362">
        <ele>1415.3</ele>
        <time>2018-11-24T09:27:04Z</time>
      </trkpt>
      <trkpt lat="42.80679" lon="0.8036">
        <ele>1416.6</ele>
        <time>2018-11-24T09:27:05Z</time>
      </trkpt>
      <trkpt lat="42.80675" lon="0.80359">
        <ele>1418.2</ele>
        <time>2018-11-24T09:27:07Z</time>
      </trkpt>
      <trkpt lat="42.80672" lon="0.80357">
        <ele>1419.6</ele>
        <time>2018-11-24T09:27:09Z</time>
      </trkpt>
      <trkpt lat="42.80668" lon="0.80356">
        <ele>1421</ele>
        <time>2018-11-24T09:27:10Z</time>
      </trkpt>
      <trkpt lat="42.80664" lon="0.80354">
        <ele>1422.9</ele>
        <time>2018-11-24T09:27:12Z</time>
      </trkpt>
      <trkpt lat="42.8066" lon="0.80353">
        <ele>1424.7</ele>
        <time>2018-11-24T09:27:13Z</time>
      </trkpt>
      <trkpt lat="42.80656" lon="0.80352">
        <ele>1426.5</ele>
        <time>2018-11-24T09:27:15Z</time>
      </trkpt>
      <trkpt lat="42.80652" lon="0.80351">
        <ele>1428.5</ele>
        <time>2018-11-24T09:27:17Z</time>
      </trkpt>
      <trkpt lat="42.80649" lon="0.80349">
        <ele>1430.3</ele>
        <time>2018-11-24T09:27:18Z</time>
      </trkpt>
      <trkpt lat="42.80645" lon="0.80348">
        <ele>1432.1</ele>
        <time>2018-11-24T09:27:20Z</time>
      </trkpt>
      <trkpt lat="42.80641" lon="0.80347">
        <ele>1434.1</ele>
        <time>2018-11-24T09:27:21Z</time>
      </trkpt>
      <trkpt lat="42.80637" lon="0.80346">
        <ele>1435.8</ele>
        <time>2018-11-24T09:27:23Z</time>
      </trkpt>
      <trkpt lat="42.80633" lon="0.80345">
        <ele>1437.5</ele>
        <time>2018-11-24T09:27:25Z</time>
      </trkpt>
      <trkpt lat="42.80629" lon="0.80343">
        <ele>1439.4</ele>
        <time>2018-11-24T09:27:26Z</time>
      </trkpt>
      <trkpt lat="42.80625" lon="0.80342">
        <ele>1441.3</ele>
        <time>2018-11-24T09:27:28Z</time>
      </trkpt>
      <trkpt lat="42.80621" lon="0.8034">
        <ele>1443.3</ele>
        <time>2018-11-24T09:27:30Z</time>
      </trkpt>
      <trkpt lat="42.80617" lon="0.80339">
        <ele>1445.2</ele>
        <time>2018-11-24T09:27:31Z</time>
      </trkpt>
      <trkpt lat="42.80613" lon="0.80338">
        <ele>1447.1</ele>
        <time>2018-11-24T09:27:33Z</time>
      </trkpt>
      <trkpt lat="42.8061" lon="0.80337">
        <ele>1448.5</ele>
        <time>2018-11-24T09:27:34Z</time>
      </trkpt>
      <trkpt lat="42.80606" lon="0.80335">
        <ele>1449.3</ele>
        <time>2018-11-24T09:27:36Z</time>
      </trkpt>
      <trkpt lat="42.80602" lon="0.80334">
        <ele>1450</ele>
        <time>2018-11-24T09:27:37Z</time>
      </trkpt>
      <trkpt lat="42.80598" lon="0.80333">
        <ele>1450.4</ele>
        <time>2018-11-24T09:27:39Z</time>
      </trkpt>
      <trkpt lat="42.80594" lon="0.80332">
        <ele>1450.7</ele>
        <time>2018-11-24T09:27:40Z</time>
      </trkpt>
      <trkpt lat="42.80591" lon="0.80331">
        <ele>1451.1</ele>
        <time>2018-11-24T09:27:42Z</time>
      </trkpt>
      <trkpt lat="42.80587" lon="0.8033">
        <ele>1451.5</ele>
        <time>2018-11-24T09:27:44Z</time>
      </trkpt>
      <trkpt lat="42.80583" lon="0.80329">
        <ele>1452.1</ele>
        <time>2018-11-24T09:27:45Z</time>
      </trkpt>
      <trkpt lat="42.80579" lon="0.80328">
        <ele>1452.6</ele>
        <time>2018-11-24T09:27:47Z</time>
      </trkpt>
      <trkpt lat="42.80575" lon="0.80327">
        <ele>1452.9</ele>
        <time>2018-11-24T09:27:48Z</time>
      </trkpt>
      <trkpt lat="42.80571" lon="0.80326">
        <ele>1453.3</ele>
        <time>2018-11-24T09:27:50Z</time>
      </trkpt>
      <trkpt lat="42.80568" lon="0.80326">
        <ele>1453.7</ele>
        <time>2018-11-24T09:27:51Z</time>
      </trkpt>
      <trkpt lat="42.80564" lon="0.80325">
        <ele>1454</ele>
        <time>2018-11-24T09:27:53Z</time>
      </trkpt>
      <trkpt lat="42.8056" lon="0.80324">
        <ele>1454.3</ele>
        <time>2018-11-24T09:27:54Z</time>
      </trkpt>
      <trkpt lat="42.80557" lon="0.80321">
        <ele>1455.6</ele>
        <time>2018-11-24T09:27:56Z</time>
      </trkpt>
      <trkpt lat="42.80553" lon="0.80319">
        <ele>1456.9</ele>
        <time>2018-11-24T09:27:58Z</time>
      </trkpt>
      <trkpt lat="42.8055" lon="0.80316">
        <ele>1458.4</ele>
        <time>2018-11-24T09:27:59Z</time>
      </trkpt>
      <trkpt lat="42.80546" lon="0.80314">
        <ele>1459.8</ele>
        <time>2018-11-24T09:28:01Z</time>
      </trkpt>
      <trkpt lat="42.80543" lon="0.80311">
        <ele>1461.3</ele>
        <time>2018-11-24T09:28:02Z</time>
      </trkpt>
      <trkpt lat="42.8054" lon="0.80308">
        <ele>1462.7</ele>
        <time>2018-11-24T09:28:04Z</time>
      </trkpt>
      <trkpt lat="42.80536" lon="0.80306">
        <ele>1464</ele>
        <time>2018-11-24T09:28:05Z</time>
      </trkpt>
      <trkpt lat="42.80533" lon="0.80303">
        <ele>1465.3</ele>
        <time>2018-11-24T09:28:07Z</time>
      </trkpt>
      <trkpt lat="42.80529" lon="0.803">
        <ele>1466.7</ele>
        <time>2018-11-24T09:28:09Z</time>
      </trkpt>
      <trkpt lat="42.80526" lon="0.80297">
        <ele>1468.2</ele>
        <time>2018-11-24T09:28:10Z</time>
      </trkpt>
      <trkpt lat="42.80522" lon="0.80295">
        <ele>1469.7</ele>
        <time>2018-11-24T09:28:12Z</time>
      </trkpt>
      <trkpt lat="42.80519" lon="0.80292">
        <ele>1471.3</ele>
        <time>2018-11-24T09:28:13Z</time>
      </trkpt>
      <trkpt lat="42.80515" lon="0.80289">
        <ele>1472.7</ele>
        <time>2018-11-24T09:28:15Z</time>
      </trkpt>
      <trkpt lat="42.80511" lon="0.80287">
        <ele>1473.9</ele>
        <time>2018-11-24T09:28:17Z</time>
      </trkpt>
      <trkpt lat="42.80507" lon="0.80284">
        <ele>1475.3</ele>
        <time>2018-11-24T09:28:19Z</time>
      </trkpt>
      <trkpt lat="42.80504" lon="0.80281">
        <ele>1476.5</ele>
        <time>2018-11-24T09:28:20Z</time>
      </trkpt>
      <trkpt lat="42.805" lon="0.80278">
        <ele>1477.9</ele>
        <time>2018-11-24T09:28:22Z</time>
      </trkpt>
      <trkpt lat="42.80496" lon="0.80276">
        <ele>1479.7</ele>
        <time>2018-11-24T09:28:24Z</time>
      </trkpt>
      <trkpt lat="42.80492" lon="0.80273">
        <ele>1481.5</ele>
        <time>2018-11-24T09:28:25Z</time>
      </trkpt>
      <trkpt lat="42.80489" lon="0.80269">
        <ele>1483.8</ele>
        <time>2018-11-24T09:28:27Z</time>
      </trkpt>
      <trkpt lat="42.80486" lon="0.80266">
        <ele>1485.8</ele>
        <time>2018-11-24T09:28:29Z</time>
      </trkpt>
      <trkpt lat="42.80483" lon="0.80262">
        <ele>1487.9</ele>
        <time>2018-11-24T09:28:30Z</time>
      </trkpt>
      <trkpt lat="42.80479" lon="0.80258">
        <ele>1489.9</ele>
        <time>2018-11-24T09:28:32Z</time>
      </trkpt>
      <trkpt lat="42.80476" lon="0.80255">
        <ele>1491.8</ele>
        <time>2018-11-24T09:28:34Z</time>
      </trkpt>
      <trkpt lat="42.80473" lon="0.80251">
        <ele>1493.6</ele>
        <time>2018-11-24T09:28:35Z</time>
      </trkpt>
      <trkpt lat="42.8047" lon="0.80248">
        <ele>1495</ele>
        <time>2018-11-24T09:28:37Z</time>
      </trkpt>
      <trkpt lat="42.80466" lon="0.80245">
        <ele>1496.7</ele>
        <time>2018-11-24T09:28:39Z</time>
      </trkpt>
      <trkpt lat="42.80463" lon="0.80243">
        <ele>1498.1</ele>
        <time>2018-11-24T09:28:40Z</time>
      </trkpt>
      <trkpt lat="42.8046" lon="0.8024">
        <ele>1499.4</ele>
        <time>2018-11-24T09:28:42Z</time>
      </trkpt>
      <trkpt lat="42.80456" lon="0.80237">
        <ele>1500.6</ele>
        <time>2018-11-24T09:28:43Z</time>
      </trkpt>
      <trkpt lat="42.80453" lon="0.80234">
        <ele>1501.7</ele>
        <time>2018-11-24T09:28:45Z</time>
      </trkpt>
      <trkpt lat="42.8045" lon="0.8023">
        <ele>1503.1</ele>
        <time>2018-11-24T09:28:47Z</time>
      </trkpt>
      <trkpt lat="42.80446" lon="0.80227">
        <ele>1504.2</ele>
        <time>2018-11-24T09:28:48Z</time>
      </trkpt>
      <trkpt lat="42.80443" lon="0.80223">
        <ele>1505.6</ele>
        <time>2018-11-24T09:28:50Z</time>
      </trkpt>
      <trkpt lat="42.8044" lon="0.8022">
        <ele>1507.2</ele>
        <time>2018-11-24T09:28:52Z</time>
      </trkpt>
      <trkpt lat="42.80437" lon="0.80216">
        <ele>1508.8</ele>
        <time>2018-11-24T09:28:53Z</time>
      </trkpt>
      <trkpt lat="42.80433" lon="0.80213">
        <ele>1510.1</ele>
        <time>2018-11-24T09:28:55Z</time>
      </trkpt>
      <trkpt lat="42.8043" lon="0.80209">
        <ele>1511.3</ele>
        <time>2018-11-24T09:28:57Z</time>
      </trkpt>
      <trkpt lat="42.80426" lon="0.80207">
        <ele>1511.6</ele>
        <time>2018-11-24T09:28:58Z</time>
      </trkpt>
      <trkpt lat="42.80423" lon="0.80205">
        <ele>1512</ele>
        <time>2018-11-24T09:29:00Z</time>
      </trkpt>
      <trkpt lat="42.80419" lon="0.80202">
        <ele>1512.2</ele>
        <time>2018-11-24T09:29:01Z</time>
      </trkpt>
      <trkpt lat="42.80416" lon="0.802">
        <ele>1512.7</ele>
        <time>2018-11-24T09:29:03Z</time>
      </trkpt>
      <trkpt lat="42.80412" lon="0.80198">
        <ele>1513.9</ele>
        <time>2018-11-24T09:29:05Z</time>
      </trkpt>
      <trkpt lat="42.80409" lon="0.80195">
        <ele>1515</ele>
        <time>2018-11-24T09:29:06Z</time>
      </trkpt>
      <trkpt lat="42.80406" lon="0.80192">
        <ele>1516.6</ele>
        <time>2018-11-24T09:29:08Z</time>
      </trkpt>
      <trkpt lat="42.80403" lon="0.8019">
        <ele>1518.1</ele>
        <time>2018-11-24T09:29:09Z</time>
      </trkpt>
      <trkpt lat="42.80399" lon="0.80187">
        <ele>1519.5</ele>
        <time>2018-11-24T09:29:11Z</time>
      </trkpt>
      <trkpt lat="42.80396" lon="0.80184">
        <ele>1520.8</ele>
        <time>2018-11-24T09:29:12Z</time>
      </trkpt>
      <trkpt lat="42.80393" lon="0.80181">
        <ele>1521.9</ele>
        <time>2018-11-24T09:29:14Z</time>
      </trkpt>
      <trkpt lat="42.8039" lon="0.80177">
        <ele>1523.1</ele>
        <time>2018-11-24T09:29:15Z</time>
      </trkpt>
      <trkpt lat="42.80387" lon="0.80173">
        <ele>1524.5</ele>
        <time>2018-11-24T09:29:17Z</time>
      </trkpt>
      <trkpt lat="42.80384" lon="0.8017">
        <ele>1525.8</ele>
        <time>2018-11-24T09:29:19Z</time>
      </trkpt>
      <trkpt lat="42.80381" lon="0.80166">
        <ele>1527.1</ele>
        <time>2018-11-24T09:29:20Z</time>
      </trkpt>
      <trkpt lat="42.80378" lon="0.80162">
        <ele>1528.8</ele>
        <time>2018-11-24T09:29:22Z</time>
      </trkpt>
      <trkpt lat="42.80376" lon="0.80158">
        <ele>1530.5</ele>
        <time>2018-11-24T09:29:23Z</time>
      </trkpt>
      <trkpt lat="42.80373" lon="0.80153">
        <ele>1532.3</ele>
        <time>2018-11-24T09:29:25Z</time>
      </trkpt>
      <trkpt lat="42.80371" lon="0.80149">
        <ele>1533.7</ele>
        <time>2018-11-24T09:29:27Z</time>
      </trkpt>
      <trkpt lat="42.80368" lon="0.80145">
        <ele>1535</ele>
        <time>2018-11-24T09:29:28Z</time>
      </trkpt>
      <trkpt lat="42.80366" lon="0.8014">
        <ele>1536.2</ele>
        <time>2018-11-24T09:29:30Z</time>
      </trkpt>
      <trkpt lat="42.80363" lon="0.80136">
        <ele>1537.6</ele>
        <time>2018-11-24T09:29:32Z</time>
      </trkpt>
      <trkpt lat="42.8036" lon="0.80132">
        <ele>1538.8</ele>
        <time>2018-11-24T09:29:33Z</time>
      </trkpt>
      <trkpt lat="42.80357" lon="0.80129">
        <ele>1540.2</ele>
        <time>2018-11-24T09:29:35Z</time>
      </trkpt>
      <trkpt lat="42.80354" lon="0.80125">
        <ele>1541.5</ele>
        <time>2018-11-24T09:29:37Z</time>
      </trkpt>
      <trkpt lat="42.8035" lon="0.80121">
        <ele>1542.5</ele>
        <time>2018-11-24T09:29:38Z</time>
      </trkpt>
      <trkpt lat="42.80347" lon="0.80118">
        <ele>1543.3</ele>
        <time>2018-11-24T09:29:40Z</time>
      </trkpt>
      <trkpt lat="42.80344" lon="0.80114">
        <ele>1544</ele>
        <time>2018-11-24T09:29:42Z</time>
      </trkpt>
      <trkpt lat="42.8034" lon="0.80112">
        <ele>1543.9</ele>
        <time>2018-11-24T09:29:43Z</time>
      </trkpt>
      <trkpt lat="42.80337" lon="0.8011">
        <ele>1544.3</ele>
        <time>2018-11-24T09:29:45Z</time>
      </trkpt>
      <trkpt lat="42.80333" lon="0.80108">
        <ele>1545.5</ele>
        <time>2018-11-24T09:29:46Z</time>
      </trkpt>
      <trkpt lat="42.80329" lon="0.80106">
        <ele>1547.4</ele>
        <time>2018-11-24T09:29:48Z</time>
      </trkpt>
      <trkpt lat="42.80326" lon="0.80104">
        <ele>1549</ele>
        <time>2018-11-24T09:29:49Z</time>
      </trkpt>
      <trkpt lat="42.80322" lon="0.80102">
        <ele>1550.3</ele>
        <time>2018-11-24T09:29:51Z</time>
      </trkpt>
      <trkpt lat="42.80318" lon="0.80099">
        <ele>1551.6</ele>
        <time>2018-11-24T09:29:53Z</time>
      </trkpt>
      <trkpt lat="42.80315" lon="0.80097">
        <ele>1552.3</ele>
        <time>2018-11-24T09:29:54Z</time>
      </trkpt>
      <trkpt lat="42.80311" lon="0.80094">
        <ele>1552.7</ele>
        <time>2018-11-24T09:29:56Z</time>
      </trkpt>
      <trkpt lat="42.80308" lon="0.80092">
        <ele>1552.6</ele>
        <time>2018-11-24T09:29:58Z</time>
      </trkpt>
      <trkpt lat="42.80304" lon="0.80089">
        <ele>1552.8</ele>
        <time>2018-11-24T09:29:59Z</time>
      </trkpt>
      <trkpt lat="42.80301" lon="0.80086">
        <ele>1553.7</ele>
        <time>2018-11-24T09:30:01Z</time>
      </trkpt>
      <trkpt lat="42.80297" lon="0.80082">
        <ele>1554.8</ele>
        <time>2018-11-24T09:30:02Z</time>
      </trkpt>
      <trkpt lat="42.80294" lon="0.80079">
        <ele>1556.9</ele>
        <time>2018-11-24T09:30:04Z</time>
      </trkpt>
      <trkpt lat="42.80291" lon="0.80076">
        <ele>1558.9</ele>
        <time>2018-11-24T09:30:06Z</time>
      </trkpt>
      <trkpt lat="42.80288" lon="0.80073">
        <ele>1560.3</ele>
        <time>2018-11-24T09:30:07Z</time>
      </trkpt>
      <trkpt lat="42.80284" lon="0.80069">
        <ele>1561.5</ele>
        <time>2018-11-24T09:30:09Z</time>
      </trkpt>
      <trkpt lat="42.80281" lon="0.80066">
        <ele>1562.5</ele>
        <time>2018-11-24T09:30:11Z</time>
      </trkpt>
      <trkpt lat="42.80277" lon="0.80063">
        <ele>1563</ele>
        <time>2018-11-24T09:30:12Z</time>
      </trkpt>
      <trkpt lat="42.80274" lon="0.80059">
        <ele>1564.4</ele>
        <time>2018-11-24T09:30:14Z</time>
      </trkpt>
      <trkpt lat="42.8027" lon="0.80056">
        <ele>1565.3</ele>
        <time>2018-11-24T09:30:16Z</time>
      </trkpt>
      <trkpt lat="42.80267" lon="0.80052">
        <ele>1566.5</ele>
        <time>2018-11-24T09:30:18Z</time>
      </trkpt>
      <trkpt lat="42.80263" lon="0.80049">
        <ele>1567.7</ele>
        <time>2018-11-24T09:30:19Z</time>
      </trkpt>
      <trkpt lat="42.80261" lon="0.80044">
        <ele>1569</ele>
        <time>2018-11-24T09:30:21Z</time>
      </trkpt>
      <trkpt lat="42.80258" lon="0.80039">
        <ele>1570.1</ele>
        <time>2018-11-24T09:30:23Z</time>
      </trkpt>
      <trkpt lat="42.80256" lon="0.80035">
        <ele>1570.8</ele>
        <time>2018-11-24T09:30:25Z</time>
      </trkpt>
      <trkpt lat="42.80253" lon="0.8003">
        <ele>1571.4</ele>
        <time>2018-11-24T09:30:26Z</time>
      </trkpt>
      <trkpt lat="42.80251" lon="0.80025">
        <ele>1572</ele>
        <time>2018-11-24T09:30:28Z</time>
      </trkpt>
      <trkpt lat="42.80248" lon="0.80021">
        <ele>1573</ele>
        <time>2018-11-24T09:30:30Z</time>
      </trkpt>
      <trkpt lat="42.80244" lon="0.80018">
        <ele>1574.2</ele>
        <time>2018-11-24T09:30:31Z</time>
      </trkpt>
      <trkpt lat="42.80241" lon="0.80014">
        <ele>1575.2</ele>
        <time>2018-11-24T09:30:33Z</time>
      </trkpt>
      <trkpt lat="42.80237" lon="0.8001">
        <ele>1575.9</ele>
        <time>2018-11-24T09:30:35Z</time>
      </trkpt>
      <trkpt lat="42.80234" lon="0.80006">
        <ele>1576.4</ele>
        <time>2018-11-24T09:30:37Z</time>
      </trkpt>
      <trkpt lat="42.80231" lon="0.80002">
        <ele>1576.5</ele>
        <time>2018-11-24T09:30:38Z</time>
      </trkpt>
      <trkpt lat="42.80228" lon="0.79999">
        <ele>1577.2</ele>
        <time>2018-11-24T09:30:40Z</time>
      </trkpt>
      <trkpt lat="42.80225" lon="0.79995">
        <ele>1578.6</ele>
        <time>2018-11-24T09:30:42Z</time>
      </trkpt>
      <trkpt lat="42.80222" lon="0.79991">
        <ele>1580.4</ele>
        <time>2018-11-24T09:30:43Z</time>
      </trkpt>
      <trkpt lat="42.80218" lon="0.79988">
        <ele>1582.7</ele>
        <time>2018-11-24T09:30:45Z</time>
      </trkpt>
      <trkpt lat="42.80215" lon="0.79984">
        <ele>1584.5</ele>
        <time>2018-11-24T09:30:47Z</time>
      </trkpt>
      <trkpt lat="42.80211" lon="0.79981">
        <ele>1585.8</ele>
        <time>2018-11-24T09:30:49Z</time>
      </trkpt>
      <trkpt lat="42.80208" lon="0.79977">
        <ele>1586.6</ele>
        <time>2018-11-24T09:30:50Z</time>
      </trkpt>
      <trkpt lat="42.80204" lon="0.79974">
        <ele>1587</ele>
        <time>2018-11-24T09:30:52Z</time>
      </trkpt>
      <trkpt lat="42.80202" lon="0.79969">
        <ele>1588.5</ele>
        <time>2018-11-24T09:30:54Z</time>
      </trkpt>
      <trkpt lat="42.802" lon="0.79964">
        <ele>1590.7</ele>
        <time>2018-11-24T09:30:55Z</time>
      </trkpt>
      <trkpt lat="42.80197" lon="0.7996">
        <ele>1592</ele>
        <time>2018-11-24T09:30:57Z</time>
      </trkpt>
      <trkpt lat="42.80195" lon="0.79955">
        <ele>1592.8</ele>
        <time>2018-11-24T09:30:59Z</time>
      </trkpt>
      <trkpt lat="42.80193" lon="0.7995">
        <ele>1594</ele>
        <time>2018-11-24T09:31:00Z</time>
      </trkpt>
      <trkpt lat="42.8019" lon="0.79947">
        <ele>1595.1</ele>
        <time>2018-11-24T09:31:02Z</time>
      </trkpt>
      <trkpt lat="42.80187" lon="0.79943">
        <ele>1596.1</ele>
        <time>2018-11-24T09:31:03Z</time>
      </trkpt>
      <trkpt lat="42.80185" lon="0.7994">
        <ele>1597.2</ele>
        <time>2018-11-24T09:31:05Z</time>
      </trkpt>
      <trkpt lat="42.80182" lon="0.79936">
        <ele>1598.1</ele>
        <time>2018-11-24T09:31:06Z</time>
      </trkpt>
      <trkpt lat="42.80179" lon="0.79933">
        <ele>1598.4</ele>
        <time>2018-11-24T09:31:08Z</time>
      </trkpt>
      <trkpt lat="42.80176" lon="0.79929">
        <ele>1598.5</ele>
        <time>2018-11-24T09:31:10Z</time>
      </trkpt>
      <trkpt lat="42.80172" lon="0.79927">
        <ele>1597.4</ele>
        <time>2018-11-24T09:31:11Z</time>
      </trkpt>
      <trkpt lat="42.80168" lon="0.79925">
        <ele>1595.8</ele>
        <time>2018-11-24T09:31:13Z</time>
      </trkpt>
      <trkpt lat="42.80164" lon="0.79922">
        <ele>1596</ele>
        <time>2018-11-24T09:31:15Z</time>
      </trkpt>
      <trkpt lat="42.8016" lon="0.7992">
        <ele>1597</ele>
        <time>2018-11-24T09:31:16Z</time>
      </trkpt>
      <trkpt lat="42.80156" lon="0.79918">
        <ele>1597.7</ele>
        <time>2018-11-24T09:31:18Z</time>
      </trkpt>
      <trkpt lat="42.80155" lon="0.79913">
        <ele>1598.6</ele>
        <time>2018-11-24T09:31:20Z</time>
      </trkpt>
      <trkpt lat="42.80154" lon="0.79908">
        <ele>1599.8</ele>
        <time>2018-11-24T09:31:21Z</time>
      </trkpt>
      <trkpt lat="42.80153" lon="0.79904">
        <ele>1600.8</ele>
        <time>2018-11-24T09:31:23Z</time>
      </trkpt>
      <trkpt lat="42.80152" lon="0.79899">
        <ele>1601.9</ele>
        <time>2018-11-24T09:31:24Z</time>
      </trkpt>
      <trkpt lat="42.80151" lon="0.79894">
        <ele>1602.8</ele>
        <time>2018-11-24T09:31:25Z</time>
      </trkpt>
      <trkpt lat="42.80147" lon="0.79891">
        <ele>1602.8</ele>
        <time>2018-11-24T09:31:27Z</time>
      </trkpt>
      <trkpt lat="42.80143" lon="0.79889">
        <ele>1602.7</ele>
        <time>2018-11-24T09:31:29Z</time>
      </trkpt>
      <trkpt lat="42.80139" lon="0.79886">
        <ele>1602.9</ele>
        <time>2018-11-24T09:31:31Z</time>
      </trkpt>
      <trkpt lat="42.80135" lon="0.79883">
        <ele>1604.2</ele>
        <time>2018-11-24T09:31:33Z</time>
      </trkpt>
      <trkpt lat="42.80136" lon="0.79877">
        <ele>1605.7</ele>
        <time>2018-11-24T09:31:34Z</time>
      </trkpt>
      <trkpt lat="42.80136" lon="0.79871">
        <ele>1607.2</ele>
        <time>2018-11-24T09:31:36Z</time>
      </trkpt>
      <trkpt lat="42.80137" lon="0.79865">
        <ele>1608.6</ele>
        <time>2018-11-24T09:31:38Z</time>
      </trkpt>
      <trkpt lat="42.80137" lon="0.79859">
        <ele>1610.1</ele>
        <time>2018-11-24T09:31:40Z</time>
      </trkpt>
      <trkpt lat="42.80138" lon="0.79853">
        <ele>1610.9</ele>
        <time>2018-11-24T09:31:42Z</time>
      </trkpt>
      <trkpt lat="42.80138" lon="0.79847">
        <ele>1611.9</ele>
        <time>2018-11-24T09:31:43Z</time>
      </trkpt>
      <trkpt lat="42.80136" lon="0.79842">
        <ele>1612.2</ele>
        <time>2018-11-24T09:31:45Z</time>
      </trkpt>
      <trkpt lat="42.80133" lon="0.79838">
        <ele>1612.3</ele>
        <time>2018-11-24T09:31:47Z</time>
      </trkpt>
      <trkpt lat="42.80131" lon="0.79833">
        <ele>1612.4</ele>
        <time>2018-11-24T09:31:48Z</time>
      </trkpt>
      <trkpt lat="42.80129" lon="0.79828">
        <ele>1613</ele>
        <time>2018-11-24T09:31:50Z</time>
      </trkpt>
      <trkpt lat="42.80126" lon="0.79824">
        <ele>1613.3</ele>
        <time>2018-11-24T09:31:52Z</time>
      </trkpt>
      <trkpt lat="42.80124" lon="0.79819">
        <ele>1613.6</ele>
        <time>2018-11-24T09:31:53Z</time>
      </trkpt>
      <trkpt lat="42.80121" lon="0.79815">
        <ele>1613.2</ele>
        <time>2018-11-24T09:31:55Z</time>
      </trkpt>
      <trkpt lat="42.80119" lon="0.79811">
        <ele>1612.8</ele>
        <time>2018-11-24T09:31:56Z</time>
      </trkpt>
      <trkpt lat="42.80116" lon="0.79807">
        <ele>1612.2</ele>
        <time>2018-11-24T09:31:58Z</time>
      </trkpt>
      <trkpt lat="42.80113" lon="0.79803">
        <ele>1612.1</ele>
        <time>2018-11-24T09:32:00Z</time>
      </trkpt>
      <trkpt lat="42.80111" lon="0.79799">
        <ele>1612.4</ele>
        <time>2018-11-24T09:32:01Z</time>
      </trkpt>
      <trkpt lat="42.80108" lon="0.79795">
        <ele>1613.8</ele>
        <time>2018-11-24T09:32:03Z</time>
      </trkpt>
      <trkpt lat="42.80104" lon="0.79793">
        <ele>1614.4</ele>
        <time>2018-11-24T09:32:04Z</time>
      </trkpt>
      <trkpt lat="42.80101" lon="0.7979">
        <ele>1615.1</ele>
        <time>2018-11-24T09:32:06Z</time>
      </trkpt>
      <trkpt lat="42.80097" lon="0.79788">
        <ele>1615.4</ele>
        <time>2018-11-24T09:32:08Z</time>
      </trkpt>
      <trkpt lat="42.80093" lon="0.79786">
        <ele>1615.7</ele>
        <time>2018-11-24T09:32:09Z</time>
      </trkpt>
      <trkpt lat="42.8009" lon="0.79783">
        <ele>1615.9</ele>
        <time>2018-11-24T09:32:11Z</time>
      </trkpt>
      <trkpt lat="42.80086" lon="0.79781">
        <ele>1616</ele>
        <time>2018-11-24T09:32:12Z</time>
      </trkpt>
      <trkpt lat="42.80083" lon="0.79777">
        <ele>1616.5</ele>
        <time>2018-11-24T09:32:14Z</time>
      </trkpt>
      <trkpt lat="42.8008" lon="0.79773">
        <ele>1618.6</ele>
        <time>2018-11-24T09:32:16Z</time>
      </trkpt>
      <trkpt lat="42.80077" lon="0.79769">
        <ele>1620.5</ele>
        <time>2018-11-24T09:32:17Z</time>
      </trkpt>
      <trkpt lat="42.80075" lon="0.79765">
        <ele>1622.3</ele>
        <time>2018-11-24T09:32:19Z</time>
      </trkpt>
      <trkpt lat="42.80072" lon="0.79761">
        <ele>1623.8</ele>
        <time>2018-11-24T09:32:21Z</time>
      </trkpt>
      <trkpt lat="42.80069" lon="0.79757">
        <ele>1625.2</ele>
        <time>2018-11-24T09:32:22Z</time>
      </trkpt>
      <trkpt lat="42.80066" lon="0.79753">
        <ele>1626.3</ele>
        <time>2018-11-24T09:32:24Z</time>
      </trkpt>
      <trkpt lat="42.80065" lon="0.79748">
        <ele>1627.5</ele>
        <time>2018-11-24T09:32:26Z</time>
      </trkpt>
      <trkpt lat="42.80065" lon="0.79743">
        <ele>1628.5</ele>
        <time>2018-11-24T09:32:27Z</time>
      </trkpt>
      <trkpt lat="42.80064" lon="0.79737">
        <ele>1629.5</ele>
        <time>2018-11-24T09:32:29Z</time>
      </trkpt>
      <trkpt lat="42.80063" lon="0.79732">
        <ele>1630.6</ele>
        <time>2018-11-24T09:32:30Z</time>
      </trkpt>
      <trkpt lat="42.80061" lon="0.79727">
        <ele>1631.1</ele>
        <time>2018-11-24T09:32:32Z</time>
      </trkpt>
      <trkpt lat="42.80059" lon="0.79721">
        <ele>1631.8</ele>
        <time>2018-11-24T09:32:34Z</time>
      </trkpt>
      <trkpt lat="42.80057" lon="0.79716">
        <ele>1632.9</ele>
        <time>2018-11-24T09:32:36Z</time>
      </trkpt>
      <trkpt lat="42.80054" lon="0.79711">
        <ele>1634.2</ele>
        <time>2018-11-24T09:32:37Z</time>
      </trkpt>
      <trkpt lat="42.80052" lon="0.79705">
        <ele>1636</ele>
        <time>2018-11-24T09:32:39Z</time>
      </trkpt>
      <trkpt lat="42.8005" lon="0.797">
        <ele>1637.6</ele>
        <time>2018-11-24T09:32:41Z</time>
      </trkpt>
      <trkpt lat="42.80047" lon="0.79696">
        <ele>1638.6</ele>
        <time>2018-11-24T09:32:43Z</time>
      </trkpt>
      <trkpt lat="42.80044" lon="0.79693">
        <ele>1640.1</ele>
        <time>2018-11-24T09:32:44Z</time>
      </trkpt>
      <trkpt lat="42.80041" lon="0.79689">
        <ele>1641.7</ele>
        <time>2018-11-24T09:32:46Z</time>
      </trkpt>
      <trkpt lat="42.80037" lon="0.79687">
        <ele>1642.5</ele>
        <time>2018-11-24T09:32:47Z</time>
      </trkpt>
      <trkpt lat="42.80034" lon="0.79686">
        <ele>1643.2</ele>
        <time>2018-11-24T09:32:49Z</time>
      </trkpt>
      <trkpt lat="42.8003" lon="0.79684">
        <ele>1643.9</ele>
        <time>2018-11-24T09:32:50Z</time>
      </trkpt>
      <trkpt lat="42.80026" lon="0.79683">
        <ele>1644.7</ele>
        <time>2018-11-24T09:32:52Z</time>
      </trkpt>
      <trkpt lat="42.80022" lon="0.79681">
        <ele>1645.5</ele>
        <time>2018-11-24T09:32:54Z</time>
      </trkpt>
      <trkpt lat="42.80019" lon="0.7968">
        <ele>1646.3</ele>
        <time>2018-11-24T09:32:55Z</time>
      </trkpt>
      <trkpt lat="42.80015" lon="0.79678">
        <ele>1646.9</ele>
        <time>2018-11-24T09:32:57Z</time>
      </trkpt>
      <trkpt lat="42.80013" lon="0.79673">
        <ele>1648</ele>
        <time>2018-11-24T09:32:58Z</time>
      </trkpt>
      <trkpt lat="42.80011" lon="0.79669">
        <ele>1648.8</ele>
        <time>2018-11-24T09:33:00Z</time>
      </trkpt>
      <trkpt lat="42.80008" lon="0.79664">
        <ele>1649.9</ele>
        <time>2018-11-24T09:33:02Z</time>
      </trkpt>
      <trkpt lat="42.80006" lon="0.79659">
        <ele>1650.9</ele>
        <time>2018-11-24T09:33:03Z</time>
      </trkpt>
      <trkpt lat="42.80003" lon="0.79655">
        <ele>1651.9</ele>
        <time>2018-11-24T09:33:05Z</time>
      </trkpt>
      <trkpt lat="42.8" lon="0.7965">
        <ele>1652.6</ele>
        <time>2018-11-24T09:33:07Z</time>
      </trkpt>
      <trkpt lat="42.79997" lon="0.79646">
        <ele>1653.8</ele>
        <time>2018-11-24T09:33:09Z</time>
      </trkpt>
      <trkpt lat="42.79995" lon="0.79641">
        <ele>1654.9</ele>
        <time>2018-11-24T09:33:10Z</time>
      </trkpt>
      <trkpt lat="42.79992" lon="0.79637">
        <ele>1656</ele>
        <time>2018-11-24T09:33:12Z</time>
      </trkpt>
      <trkpt lat="42.79989" lon="0.79632">
        <ele>1657.2</ele>
        <time>2018-11-24T09:33:14Z</time>
      </trkpt>
      <trkpt lat="42.79986" lon="0.79628">
        <ele>1658.3</ele>
        <time>2018-11-24T09:33:16Z</time>
      </trkpt>
      <trkpt lat="42.79983" lon="0.79625">
        <ele>1658.9</ele>
        <time>2018-11-24T09:33:17Z</time>
      </trkpt>
      <trkpt lat="42.79979" lon="0.79621">
        <ele>1659.3</ele>
        <time>2018-11-24T09:33:19Z</time>
      </trkpt>
      <trkpt lat="42.79976" lon="0.79618">
        <ele>1659.5</ele>
        <time>2018-11-24T09:33:20Z</time>
      </trkpt>
      <trkpt lat="42.79973" lon="0.79615">
        <ele>1659.6</ele>
        <time>2018-11-24T09:33:22Z</time>
      </trkpt>
      <trkpt lat="42.7997" lon="0.79612">
        <ele>1660.2</ele>
        <time>2018-11-24T09:33:24Z</time>
      </trkpt>
      <trkpt lat="42.79966" lon="0.79608">
        <ele>1661.2</ele>
        <time>2018-11-24T09:33:25Z</time>
      </trkpt>
      <trkpt lat="42.79963" lon="0.79605">
        <ele>1662.2</ele>
        <time>2018-11-24T09:33:27Z</time>
      </trkpt>
      <trkpt lat="42.7996" lon="0.79602">
        <ele>1663.1</ele>
        <time>2018-11-24T09:33:29Z</time>
      </trkpt>
      <trkpt lat="42.79956" lon="0.79598">
        <ele>1663.8</ele>
        <time>2018-11-24T09:33:30Z</time>
      </trkpt>
      <trkpt lat="42.79953" lon="0.79595">
        <ele>1664.2</ele>
        <time>2018-11-24T09:33:32Z</time>
      </trkpt>
      <trkpt lat="42.79951" lon="0.7959">
        <ele>1665</ele>
        <time>2018-11-24T09:33:34Z</time>
      </trkpt>
      <trkpt lat="42.7995" lon="0.79585">
        <ele>1665.5</ele>
        <time>2018-11-24T09:33:35Z</time>
      </trkpt>
      <trkpt lat="42.79948" lon="0.7958">
        <ele>1666.4</ele>
        <time>2018-11-24T09:33:37Z</time>
      </trkpt>
      <trkpt lat="42.79946" lon="0.79576">
        <ele>1666.9</ele>
        <time>2018-11-24T09:33:38Z</time>
      </trkpt>
      <trkpt lat="42.79944" lon="0.79571">
        <ele>1667.7</ele>
        <time>2018-11-24T09:33:40Z</time>
      </trkpt>
      <trkpt lat="42.79942" lon="0.79567">
        <ele>1669.2</ele>
        <time>2018-11-24T09:33:41Z</time>
      </trkpt>
      <trkpt lat="42.79939" lon="0.79563">
        <ele>1671</ele>
        <time>2018-11-24T09:33:43Z</time>
      </trkpt>
      <trkpt lat="42.79936" lon="0.7956">
        <ele>1672.6</ele>
        <time>2018-11-24T09:33:45Z</time>
      </trkpt>
      <trkpt lat="42.79932" lon="0.79556">
        <ele>1674</ele>
        <time>2018-11-24T09:33:46Z</time>
      </trkpt>
      <trkpt lat="42.79929" lon="0.79552">
        <ele>1675.6</ele>
        <time>2018-11-24T09:33:48Z</time>
      </trkpt>
      <trkpt lat="42.79925" lon="0.7955">
        <ele>1677.2</ele>
        <time>2018-11-24T09:33:50Z</time>
      </trkpt>
      <trkpt lat="42.79921" lon="0.79548">
        <ele>1678.6</ele>
        <time>2018-11-24T09:33:52Z</time>
      </trkpt>
      <trkpt lat="42.79917" lon="0.79546">
        <ele>1680.1</ele>
        <time>2018-11-24T09:33:53Z</time>
      </trkpt>
      <trkpt lat="42.79912" lon="0.79544">
        <ele>1681.3</ele>
        <time>2018-11-24T09:33:55Z</time>
      </trkpt>
      <trkpt lat="42.79908" lon="0.79542">
        <ele>1682.4</ele>
        <time>2018-11-24T09:33:57Z</time>
      </trkpt>
      <trkpt lat="42.79904" lon="0.7954">
        <ele>1683.3</ele>
        <time>2018-11-24T09:33:59Z</time>
      </trkpt>
      <trkpt lat="42.79901" lon="0.79536">
        <ele>1684.5</ele>
        <time>2018-11-24T09:34:00Z</time>
      </trkpt>
      <trkpt lat="42.79897" lon="0.79532">
        <ele>1685.6</ele>
        <time>2018-11-24T09:34:02Z</time>
      </trkpt>
      <trkpt lat="42.79894" lon="0.79528">
        <ele>1686.5</ele>
        <time>2018-11-24T09:34:04Z</time>
      </trkpt>
      <trkpt lat="42.7989" lon="0.79524">
        <ele>1687.5</ele>
        <time>2018-11-24T09:34:06Z</time>
      </trkpt>
      <trkpt lat="42.79887" lon="0.7952">
        <ele>1689.2</ele>
        <time>2018-11-24T09:34:08Z</time>
      </trkpt>
      <trkpt lat="42.79883" lon="0.79517">
        <ele>1691.5</ele>
        <time>2018-11-24T09:34:09Z</time>
      </trkpt>
      <trkpt lat="42.7988" lon="0.79514">
        <ele>1694</ele>
        <time>2018-11-24T09:34:11Z</time>
      </trkpt>
      <trkpt lat="42.79876" lon="0.79511">
        <ele>1696.8</ele>
        <time>2018-11-24T09:34:13Z</time>
      </trkpt>
      <trkpt lat="42.79872" lon="0.79507">
        <ele>1699.8</ele>
        <time>2018-11-24T09:34:15Z</time>
      </trkpt>
      <trkpt lat="42.79869" lon="0.79504">
        <ele>1702.8</ele>
        <time>2018-11-24T09:34:16Z</time>
      </trkpt>
      <trkpt lat="42.79865" lon="0.79501">
        <ele>1706.2</ele>
        <time>2018-11-24T09:34:18Z</time>
      </trkpt>
      <trkpt lat="42.79862" lon="0.79498">
        <ele>1709.3</ele>
        <time>2018-11-24T09:34:20Z</time>
      </trkpt>
      <trkpt lat="42.79859" lon="0.79495">
        <ele>1712</ele>
        <time>2018-11-24T09:34:21Z</time>
      </trkpt>
      <trkpt lat="42.79855" lon="0.79492">
        <ele>1714.6</ele>
        <time>2018-11-24T09:34:23Z</time>
      </trkpt>
      <trkpt lat="42.79852" lon="0.79489">
        <ele>1717.4</ele>
        <time>2018-11-24T09:34:24Z</time>
      </trkpt>
      <trkpt lat="42.79849" lon="0.79486">
        <ele>1719.9</ele>
        <time>2018-11-24T09:34:26Z</time>
      </trkpt>
      <trkpt lat="42.79847" lon="0.79482">
        <ele>1722.6</ele>
        <time>2018-11-24T09:34:27Z</time>
      </trkpt>
      <trkpt lat="42.79844" lon="0.79478">
        <ele>1725.3</ele>
        <time>2018-11-24T09:34:29Z</time>
      </trkpt>
      <trkpt lat="42.79842" lon="0.79474">
        <ele>1727.9</ele>
        <time>2018-11-24T09:34:30Z</time>
      </trkpt>
      <trkpt lat="42.7984" lon="0.7947">
        <ele>1730.1</ele>
        <time>2018-11-24T09:34:32Z</time>
      </trkpt>
      <trkpt lat="42.79837" lon="0.79466">
        <ele>1732.1</ele>
        <time>2018-11-24T09:34:33Z</time>
      </trkpt>
      <trkpt lat="42.79835" lon="0.79462">
        <ele>1734</ele>
        <time>2018-11-24T09:34:35Z</time>
      </trkpt>
      <trkpt lat="42.79833" lon="0.79458">
        <ele>1735.9</ele>
        <time>2018-11-24T09:34:36Z</time>
      </trkpt>
      <trkpt lat="42.79831" lon="0.79454">
        <ele>1737.6</ele>
        <time>2018-11-24T09:34:38Z</time>
      </trkpt>
      <trkpt lat="42.79828" lon="0.79449">
        <ele>1739.4</ele>
        <time>2018-11-24T09:34:39Z</time>
      </trkpt>
      <trkpt lat="42.79826" lon="0.79445">
        <ele>1741.1</ele>
        <time>2018-11-24T09:34:41Z</time>
      </trkpt>
      <trkpt lat="42.79824" lon="0.79441">
        <ele>1741.8</ele>
        <time>2018-11-24T09:34:42Z</time>
      </trkpt>
      <trkpt lat="42.79823" lon="0.79436">
        <ele>1741.5</ele>
        <time>2018-11-24T09:34:44Z</time>
      </trkpt>
      <trkpt lat="42.79822" lon="0.7943">
        <ele>1741.3</ele>
        <time>2018-11-24T09:34:46Z</time>
      </trkpt>
      <trkpt lat="42.79821" lon="0.79425">
        <ele>1741.3</ele>
        <time>2018-11-24T09:34:47Z</time>
      </trkpt>
      <trkpt lat="42.79821" lon="0.7942">
        <ele>1741.3</ele>
        <time>2018-11-24T09:34:49Z</time>
      </trkpt>
      <trkpt lat="42.7982" lon="0.79415">
        <ele>1741.6</ele>
        <time>2018-11-24T09:34:50Z</time>
      </trkpt>
      <trkpt lat="42.79819" lon="0.79409">
        <ele>1742.3</ele>
        <time>2018-11-24T09:34:52Z</time>
      </trkpt>
      <trkpt lat="42.79818" lon="0.79404">
        <ele>1743</ele>
        <time>2018-11-24T09:34:54Z</time>
      </trkpt>
      <trkpt lat="42.79819" lon="0.79398">
        <ele>1743</ele>
        <time>2018-11-24T09:34:55Z</time>
      </trkpt>
      <trkpt lat="42.79819" lon="0.79393">
        <ele>1743</ele>
        <time>2018-11-24T09:34:57Z</time>
      </trkpt>
      <trkpt lat="42.7982" lon="0.79387">
        <ele>1743.8</ele>
        <time>2018-11-24T09:34:59Z</time>
      </trkpt>
      <trkpt lat="42.7982" lon="0.79381">
        <ele>1745.7</ele>
        <time>2018-11-24T09:35:00Z</time>
      </trkpt>
      <trkpt lat="42.79821" lon="0.79376">
        <ele>1747.6</ele>
        <time>2018-11-24T09:35:02Z</time>
      </trkpt>
      <trkpt lat="42.79821" lon="0.7937">
        <ele>1749.7</ele>
        <time>2018-11-24T09:35:04Z</time>
      </trkpt>
      <trkpt lat="42.79823" lon="0.79366">
        <ele>1750.2</ele>
        <time>2018-11-24T09:35:05Z</time>
      </trkpt>
      <trkpt lat="42.79826" lon="0.79362">
        <ele>1750.9</ele>
        <time>2018-11-24T09:35:07Z</time>
      </trkpt>
      <trkpt lat="42.79828" lon="0.79359">
        <ele>1751.9</ele>
        <time>2018-11-24T09:35:08Z</time>
      </trkpt>
      <trkpt lat="42.79831" lon="0.79355">
        <ele>1752.6</ele>
        <time>2018-11-24T09:35:10Z</time>
      </trkpt>
      <trkpt lat="42.79833" lon="0.79351">
        <ele>1753.6</ele>
        <time>2018-11-24T09:35:11Z</time>
      </trkpt>
      <trkpt lat="42.79835" lon="0.79346">
        <ele>1755.3</ele>
        <time>2018-11-24T09:35:13Z</time>
      </trkpt>
      <trkpt lat="42.79836" lon="0.79341">
        <ele>1757.1</ele>
        <time>2018-11-24T09:35:14Z</time>
      </trkpt>
      <trkpt lat="42.79838" lon="0.79335">
        <ele>1758.9</ele>
        <time>2018-11-24T09:35:16Z</time>
      </trkpt>
      <trkpt lat="42.79839" lon="0.7933">
        <ele>1760.7</ele>
        <time>2018-11-24T09:35:18Z</time>
      </trkpt>
      <trkpt lat="42.79841" lon="0.79325">
        <ele>1762.7</ele>
        <time>2018-11-24T09:35:19Z</time>
      </trkpt>
      <trkpt lat="42.79842" lon="0.7932">
        <ele>1764.8</ele>
        <time>2018-11-24T09:35:21Z</time>
      </trkpt>
      <trkpt lat="42.79844" lon="0.79314">
        <ele>1766.8</ele>
        <time>2018-11-24T09:35:23Z</time>
      </trkpt>
      <trkpt lat="42.79845" lon="0.79309">
        <ele>1768.7</ele>
        <time>2018-11-24T09:35:24Z</time>
      </trkpt>
      <trkpt lat="42.79847" lon="0.79303">
        <ele>1771.1</ele>
        <time>2018-11-24T09:35:26Z</time>
      </trkpt>
      <trkpt lat="42.79848" lon="0.79298">
        <ele>1774.2</ele>
        <time>2018-11-24T09:35:28Z</time>
      </trkpt>
      <trkpt lat="42.7985" lon="0.79292">
        <ele>1777.1</ele>
        <time>2018-11-24T09:35:29Z</time>
      </trkpt>
      <trkpt lat="42.79851" lon="0.79287">
        <ele>1780</ele>
        <time>2018-11-24T09:35:31Z</time>
      </trkpt>
      <trkpt lat="42.79853" lon="0.79281">
        <ele>1782.9</ele>
        <time>2018-11-24T09:35:33Z</time>
      </trkpt>
      <trkpt lat="42.79854" lon="0.79276">
        <ele>1785.4</ele>
        <time>2018-11-24T09:35:35Z</time>
      </trkpt>
      <trkpt lat="42.79856" lon="0.79272">
        <ele>1786.3</ele>
        <time>2018-11-24T09:35:36Z</time>
      </trkpt>
      <trkpt lat="42.79858" lon="0.79269">
        <ele>1787.1</ele>
        <time>2018-11-24T09:35:37Z</time>
      </trkpt>
      <trkpt lat="42.7986" lon="0.79265">
        <ele>1787.8</ele>
        <time>2018-11-24T09:35:39Z</time>
      </trkpt>
      <trkpt lat="42.79862" lon="0.79261">
        <ele>1788.1</ele>
        <time>2018-11-24T09:35:40Z</time>
      </trkpt>
      <trkpt lat="42.79862" lon="0.79255">
        <ele>1790.2</ele>
        <time>2018-11-24T09:35:42Z</time>
      </trkpt>
      <trkpt lat="42.79863" lon="0.79249">
        <ele>1792.3</ele>
        <time>2018-11-24T09:35:44Z</time>
      </trkpt>
      <trkpt lat="42.79863" lon="0.79243">
        <ele>1793.6</ele>
        <time>2018-11-24T09:35:45Z</time>
      </trkpt>
      <trkpt lat="42.79863" lon="0.79237">
        <ele>1795</ele>
        <time>2018-11-24T09:35:47Z</time>
      </trkpt>
      <trkpt lat="42.79864" lon="0.79232">
        <ele>1795.6</ele>
        <time>2018-11-24T09:35:49Z</time>
      </trkpt>
      <trkpt lat="42.79865" lon="0.79228">
        <ele>1796.1</ele>
        <time>2018-11-24T09:35:50Z</time>
      </trkpt>
      <trkpt lat="42.79866" lon="0.79223">
        <ele>1796.6</ele>
        <time>2018-11-24T09:35:51Z</time>
      </trkpt>
      <trkpt lat="42.79867" lon="0.79218">
        <ele>1797</ele>
        <time>2018-11-24T09:35:53Z</time>
      </trkpt>
      <trkpt lat="42.79868" lon="0.79212">
        <ele>1797.9</ele>
        <time>2018-11-24T09:35:55Z</time>
      </trkpt>
      <trkpt lat="42.79868" lon="0.79207">
        <ele>1799</ele>
        <time>2018-11-24T09:35:56Z</time>
      </trkpt>
      <trkpt lat="42.79869" lon="0.79201">
        <ele>1799.9</ele>
        <time>2018-11-24T09:35:58Z</time>
      </trkpt>
      <trkpt lat="42.79869" lon="0.79196">
        <ele>1800.9</ele>
        <time>2018-11-24T09:36:00Z</time>
      </trkpt>
      <trkpt lat="42.7987" lon="0.7919">
        <ele>1801.9</ele>
        <time>2018-11-24T09:36:01Z</time>
      </trkpt>
      <trkpt lat="42.79869" lon="0.79184">
        <ele>1803.9</ele>
        <time>2018-11-24T09:36:03Z</time>
      </trkpt>
      <trkpt lat="42.79868" lon="0.79179">
        <ele>1805.7</ele>
        <time>2018-11-24T09:36:05Z</time>
      </trkpt>
      <trkpt lat="42.79867" lon="0.79173">
        <ele>1807.7</ele>
        <time>2018-11-24T09:36:06Z</time>
      </trkpt>
      <trkpt lat="42.79865" lon="0.79169">
        <ele>1809.5</ele>
        <time>2018-11-24T09:36:08Z</time>
      </trkpt>
      <trkpt lat="42.79864" lon="0.79164">
        <ele>1811.1</ele>
        <time>2018-11-24T09:36:09Z</time>
      </trkpt>
      <trkpt lat="42.79862" lon="0.7916">
        <ele>1812.4</ele>
        <time>2018-11-24T09:36:11Z</time>
      </trkpt>
      <trkpt lat="42.79861" lon="0.79155">
        <ele>1813.3</ele>
        <time>2018-11-24T09:36:12Z</time>
      </trkpt>
      <trkpt lat="42.7986" lon="0.7915">
        <ele>1814</ele>
        <time>2018-11-24T09:36:14Z</time>
      </trkpt>
      <trkpt lat="42.79859" lon="0.79144">
        <ele>1814.7</ele>
        <time>2018-11-24T09:36:15Z</time>
      </trkpt>
      <trkpt lat="42.79858" lon="0.79139">
        <ele>1815.3</ele>
        <time>2018-11-24T09:36:17Z</time>
      </trkpt>
      <trkpt lat="42.79857" lon="0.79134">
        <ele>1815</ele>
        <time>2018-11-24T09:36:19Z</time>
      </trkpt>
      <trkpt lat="42.79856" lon="0.7913">
        <ele>1814.7</ele>
        <time>2018-11-24T09:36:20Z</time>
      </trkpt>
      <trkpt lat="42.79854" lon="0.79126">
        <ele>1814.5</ele>
        <time>2018-11-24T09:36:21Z</time>
      </trkpt>
      <trkpt lat="42.79853" lon="0.79121">
        <ele>1814.3</ele>
        <time>2018-11-24T09:36:23Z</time>
      </trkpt>
      <trkpt lat="42.79851" lon="0.79117">
        <ele>1814.3</ele>
        <time>2018-11-24T09:36:24Z</time>
      </trkpt>
      <trkpt lat="42.79849" lon="0.79113">
        <ele>1814</ele>
        <time>2018-11-24T09:36:25Z</time>
      </trkpt>
      <trkpt lat="42.79848" lon="0.7911">
        <ele>1814.1</ele>
        <time>2018-11-24T09:36:27Z</time>
      </trkpt>
      <trkpt lat="42.79846" lon="0.79106">
        <ele>1814.6</ele>
        <time>2018-11-24T09:36:28Z</time>
      </trkpt>
      <trkpt lat="42.79845" lon="0.79102">
        <ele>1815</ele>
        <time>2018-11-24T09:36:29Z</time>
      </trkpt>
      <trkpt lat="42.79843" lon="0.79098">
        <ele>1815.4</ele>
        <time>2018-11-24T09:36:31Z</time>
      </trkpt>
      <trkpt lat="42.79841" lon="0.79094">
        <ele>1815.6</ele>
        <time>2018-11-24T09:36:32Z</time>
      </trkpt>
      <trkpt lat="42.79838" lon="0.79091">
        <ele>1815.8</ele>
        <time>2018-11-24T09:36:34Z</time>
      </trkpt>
      <trkpt lat="42.79836" lon="0.79087">
        <ele>1815.9</ele>
        <time>2018-11-24T09:36:35Z</time>
      </trkpt>
      <trkpt lat="42.79833" lon="0.79083">
        <ele>1816.1</ele>
        <time>2018-11-24T09:36:36Z</time>
      </trkpt>
      <trkpt lat="42.7983" lon="0.79079">
        <ele>1816.4</ele>
        <time>2018-11-24T09:36:38Z</time>
      </trkpt>
      <trkpt lat="42.79827" lon="0.79076">
        <ele>1816.7</ele>
        <time>2018-11-24T09:36:40Z</time>
      </trkpt>
      <trkpt lat="42.79824" lon="0.79072">
        <ele>1817</ele>
        <time>2018-11-24T09:36:41Z</time>
      </trkpt>
      <trkpt lat="42.79821" lon="0.79068">
        <ele>1817.3</ele>
        <time>2018-11-24T09:36:43Z</time>
      </trkpt>
      <trkpt lat="42.79817" lon="0.79066">
        <ele>1817.5</ele>
        <time>2018-11-24T09:36:45Z</time>
      </trkpt>
      <trkpt lat="42.79813" lon="0.79064">
        <ele>1817.7</ele>
        <time>2018-11-24T09:36:46Z</time>
      </trkpt>
      <trkpt lat="42.7981" lon="0.79063">
        <ele>1817.8</ele>
        <time>2018-11-24T09:36:48Z</time>
      </trkpt>
      <trkpt lat="42.79806" lon="0.79061">
        <ele>1817.9</ele>
        <time>2018-11-24T09:36:49Z</time>
      </trkpt>
      <trkpt lat="42.79802" lon="0.79059">
        <ele>1819.2</ele>
        <time>2018-11-24T09:36:51Z</time>
      </trkpt>
      <trkpt lat="42.79798" lon="0.79059">
        <ele>1820.8</ele>
        <time>2018-11-24T09:36:53Z</time>
      </trkpt>
      <trkpt lat="42.79794" lon="0.79059">
        <ele>1822.4</ele>
        <time>2018-11-24T09:36:54Z</time>
      </trkpt>
      <trkpt lat="42.7979" lon="0.79059">
        <ele>1823.9</ele>
        <time>2018-11-24T09:36:56Z</time>
      </trkpt>
      <trkpt lat="42.79786" lon="0.79059">
        <ele>1825.4</ele>
        <time>2018-11-24T09:36:57Z</time>
      </trkpt>
      <trkpt lat="42.79782" lon="0.79059">
        <ele>1827</ele>
        <time>2018-11-24T09:36:59Z</time>
      </trkpt>
      <trkpt lat="42.79778" lon="0.7906">
        <ele>1828.7</ele>
        <time>2018-11-24T09:37:01Z</time>
      </trkpt>
      <trkpt lat="42.79774" lon="0.7906">
        <ele>1829.5</ele>
        <time>2018-11-24T09:37:02Z</time>
      </trkpt>
      <trkpt lat="42.79769" lon="0.7906">
        <ele>1830.5</ele>
        <time>2018-11-24T09:37:04Z</time>
      </trkpt>
      <trkpt lat="42.79765" lon="0.79061">
        <ele>1831.5</ele>
        <time>2018-11-24T09:37:06Z</time>
      </trkpt>
      <trkpt lat="42.79761" lon="0.79061">
        <ele>1832.3</ele>
        <time>2018-11-24T09:37:07Z</time>
      </trkpt>
      <trkpt lat="42.79757" lon="0.79061">
        <ele>1833.2</ele>
        <time>2018-11-24T09:37:09Z</time>
      </trkpt>
      <trkpt lat="42.79753" lon="0.79061">
        <ele>1834</ele>
        <time>2018-11-24T09:37:11Z</time>
      </trkpt>
      <trkpt lat="42.79749" lon="0.79061">
        <ele>1834.7</ele>
        <time>2018-11-24T09:37:12Z</time>
      </trkpt>
      <trkpt lat="42.79745" lon="0.79061">
        <ele>1834.9</ele>
        <time>2018-11-24T09:37:14Z</time>
      </trkpt>
      <trkpt lat="42.79741" lon="0.79058">
        <ele>1834.9</ele>
        <time>2018-11-24T09:37:16Z</time>
      </trkpt>
      <trkpt lat="42.79738" lon="0.79056">
        <ele>1834.9</ele>
        <time>2018-11-24T09:37:17Z</time>
      </trkpt>
      <trkpt lat="42.79734" lon="0.79053">
        <ele>1834.9</ele>
        <time>2018-11-24T09:37:19Z</time>
      </trkpt>
      <trkpt lat="42.7973" lon="0.79052">
        <ele>1835.1</ele>
        <time>2018-11-24T09:37:20Z</time>
      </trkpt>
      <trkpt lat="42.79727" lon="0.79051">
        <ele>1835.2</ele>
        <time>2018-11-24T09:37:22Z</time>
      </trkpt>
      <trkpt lat="42.79723" lon="0.7905">
        <ele>1835.3</ele>
        <time>2018-11-24T09:37:23Z</time>
      </trkpt>
      <trkpt lat="42.79719" lon="0.79048">
        <ele>1835.3</ele>
        <time>2018-11-24T09:37:25Z</time>
      </trkpt>
      <trkpt lat="42.79716" lon="0.79047">
        <ele>1835.3</ele>
        <time>2018-11-24T09:37:26Z</time>
      </trkpt>
      <trkpt lat="42.79712" lon="0.79046">
        <ele>1835.3</ele>
        <time>2018-11-24T09:37:28Z</time>
      </trkpt>
      <trkpt lat="42.79708" lon="0.79045">
        <ele>1835.3</ele>
        <time>2018-11-24T09:37:30Z</time>
      </trkpt>
      <trkpt lat="42.79704" lon="0.79043">
        <ele>1835.4</ele>
        <time>2018-11-24T09:37:31Z</time>
      </trkpt>
      <trkpt lat="42.797" lon="0.79042">
        <ele>1835.4</ele>
        <time>2018-11-24T09:37:33Z</time>
      </trkpt>
      <trkpt lat="42.79696" lon="0.7904">
        <ele>1835.3</ele>
        <time>2018-11-24T09:37:35Z</time>
      </trkpt>
      <trkpt lat="42.79693" lon="0.79037">
        <ele>1835.4</ele>
        <time>2018-11-24T09:37:36Z</time>
      </trkpt>
      <trkpt lat="42.7969" lon="0.79035">
        <ele>1835.7</ele>
        <time>2018-11-24T09:37:38Z</time>
      </trkpt>
      <trkpt lat="42.79686" lon="0.79032">
        <ele>1836</ele>
        <time>2018-11-24T09:37:39Z</time>
      </trkpt>
      <trkpt lat="42.79683" lon="0.79029">
        <ele>1835.9</ele>
        <time>2018-11-24T09:37:41Z</time>
      </trkpt>
      <trkpt lat="42.79679" lon="0.79027">
        <ele>1836.3</ele>
        <time>2018-11-24T09:37:42Z</time>
      </trkpt>
      <trkpt lat="42.79675" lon="0.79024">
        <ele>1836.8</ele>
        <time>2018-11-24T09:37:44Z</time>
      </trkpt>
      <trkpt lat="42.79671" lon="0.79022">
        <ele>1837.4</ele>
        <time>2018-11-24T09:37:46Z</time>
      </trkpt>
      <trkpt lat="42.79668" lon="0.79018">
        <ele>1838</ele>
        <time>2018-11-24T09:37:48Z</time>
      </trkpt>
      <trkpt lat="42.79664" lon="0.79015">
        <ele>1838.6</ele>
        <time>2018-11-24T09:37:49Z</time>
      </trkpt>
      <trkpt lat="42.79661" lon="0.79011">
        <ele>1839.1</ele>
        <time>2018-11-24T09:37:51Z</time>
      </trkpt>
      <trkpt lat="42.79657" lon="0.79007">
        <ele>1839.6</ele>
        <time>2018-11-24T09:37:53Z</time>
      </trkpt>
      <trkpt lat="42.79653" lon="0.79005">
        <ele>1840.2</ele>
        <time>2018-11-24T09:37:55Z</time>
      </trkpt>
      <trkpt lat="42.79649" lon="0.79002">
        <ele>1840.6</ele>
        <time>2018-11-24T09:37:57Z</time>
      </trkpt>
      <trkpt lat="42.79645" lon="0.79">
        <ele>1841.2</ele>
        <time>2018-11-24T09:37:58Z</time>
      </trkpt>
      <trkpt lat="42.79641" lon="0.78997">
        <ele>1841.9</ele>
        <time>2018-11-24T09:38:00Z</time>
      </trkpt>
      <trkpt lat="42.79638" lon="0.78993">
        <ele>1842.7</ele>
        <time>2018-11-24T09:38:02Z</time>
      </trkpt>
      <trkpt lat="42.79635" lon="0.78989">
        <ele>1843.7</ele>
        <time>2018-11-24T09:38:03Z</time>
      </trkpt>
      <trkpt lat="42.79632" lon="0.78985">
        <ele>1844.4</ele>
        <time>2018-11-24T09:38:05Z</time>
      </trkpt>
      <trkpt lat="42.79629" lon="0.78981">
        <ele>1845.3</ele>
        <time>2018-11-24T09:38:07Z</time>
      </trkpt>
      <trkpt lat="42.79626" lon="0.78978">
        <ele>1846.1</ele>
        <time>2018-11-24T09:38:08Z</time>
      </trkpt>
      <trkpt lat="42.79623" lon="0.78974">
        <ele>1846.8</ele>
        <time>2018-11-24T09:38:10Z</time>
      </trkpt>
      <trkpt lat="42.7962" lon="0.7897">
        <ele>1847.7</ele>
        <time>2018-11-24T09:38:12Z</time>
      </trkpt>
      <trkpt lat="42.79617" lon="0.78966">
        <ele>1848.7</ele>
        <time>2018-11-24T09:38:13Z</time>
      </trkpt>
      <trkpt lat="42.79614" lon="0.78962">
        <ele>1849.7</ele>
        <time>2018-11-24T09:38:15Z</time>
      </trkpt>
      <trkpt lat="42.79611" lon="0.78958">
        <ele>1850.6</ele>
        <time>2018-11-24T09:38:17Z</time>
      </trkpt>
      <trkpt lat="42.79609" lon="0.78954">
        <ele>1851.4</ele>
        <time>2018-11-24T09:38:18Z</time>
      </trkpt>
      <trkpt lat="42.79607" lon="0.7895">
        <ele>1852.4</ele>
        <time>2018-11-24T09:38:20Z</time>
      </trkpt>
      <trkpt lat="42.79604" lon="0.78945">
        <ele>1853.1</ele>
        <time>2018-11-24T09:38:21Z</time>
      </trkpt>
      <trkpt lat="42.79602" lon="0.78941">
        <ele>1854.3</ele>
        <time>2018-11-24T09:38:23Z</time>
      </trkpt>
      <trkpt lat="42.796" lon="0.78937">
        <ele>1855.7</ele>
        <time>2018-11-24T09:38:24Z</time>
      </trkpt>
      <trkpt lat="42.79598" lon="0.78932">
        <ele>1857.2</ele>
        <time>2018-11-24T09:38:26Z</time>
      </trkpt>
      <trkpt lat="42.79595" lon="0.78927">
        <ele>1858.6</ele>
        <time>2018-11-24T09:38:28Z</time>
      </trkpt>
      <trkpt lat="42.79593" lon="0.78923">
        <ele>1860</ele>
        <time>2018-11-24T09:38:29Z</time>
      </trkpt>
      <trkpt lat="42.7959" lon="0.78918">
        <ele>1861.5</ele>
        <time>2018-11-24T09:38:31Z</time>
      </trkpt>
      <trkpt lat="42.79588" lon="0.78913">
        <ele>1863.2</ele>
        <time>2018-11-24T09:38:33Z</time>
      </trkpt>
      <trkpt lat="42.79585" lon="0.78909">
        <ele>1865</ele>
        <time>2018-11-24T09:38:35Z</time>
      </trkpt>
      <trkpt lat="42.79581" lon="0.78906">
        <ele>1866.6</ele>
        <time>2018-11-24T09:38:36Z</time>
      </trkpt>
      <trkpt lat="42.79578" lon="0.78902">
        <ele>1868.4</ele>
        <time>2018-11-24T09:38:38Z</time>
      </trkpt>
      <trkpt lat="42.79575" lon="0.78901">
        <ele>1869.5</ele>
        <time>2018-11-24T09:38:39Z</time>
      </trkpt>
      <trkpt lat="42.79571" lon="0.789">
        <ele>1870.5</ele>
        <time>2018-11-24T09:38:41Z</time>
      </trkpt>
      <trkpt lat="42.79568" lon="0.78899">
        <ele>1871.5</ele>
        <time>2018-11-24T09:38:42Z</time>
      </trkpt>
      <trkpt lat="42.79564" lon="0.78898">
        <ele>1872.4</ele>
        <time>2018-11-24T09:38:44Z</time>
      </trkpt>
      <trkpt lat="42.7956" lon="0.78898">
        <ele>1873.3</ele>
        <time>2018-11-24T09:38:45Z</time>
      </trkpt>
      <trkpt lat="42.79555" lon="0.78898">
        <ele>1874.2</ele>
        <time>2018-11-24T09:38:47Z</time>
      </trkpt>
      <trkpt lat="42.79551" lon="0.78898">
        <ele>1875.9</ele>
        <time>2018-11-24T09:38:49Z</time>
      </trkpt>
      <trkpt lat="42.79548" lon="0.789">
        <ele>1876.8</ele>
        <time>2018-11-24T09:38:50Z</time>
      </trkpt>
      <trkpt lat="42.79544" lon="0.78903">
        <ele>1877.7</ele>
        <time>2018-11-24T09:38:52Z</time>
      </trkpt>
      <trkpt lat="42.79541" lon="0.78905">
        <ele>1878.6</ele>
        <time>2018-11-24T09:38:54Z</time>
      </trkpt>
      <trkpt lat="42.79537" lon="0.78907">
        <ele>1879.4</ele>
        <time>2018-11-24T09:38:55Z</time>
      </trkpt>
      <trkpt lat="42.79533" lon="0.78909">
        <ele>1880.5</ele>
        <time>2018-11-24T09:38:57Z</time>
      </trkpt>
      <trkpt lat="42.79529" lon="0.78911">
        <ele>1881.6</ele>
        <time>2018-11-24T09:38:58Z</time>
      </trkpt>
      <trkpt lat="42.79526" lon="0.78913">
        <ele>1883.6</ele>
        <time>2018-11-24T09:39:00Z</time>
      </trkpt>
      <trkpt lat="42.79522" lon="0.78915">
        <ele>1886.1</ele>
        <time>2018-11-24T09:39:02Z</time>
      </trkpt>
      <trkpt lat="42.79518" lon="0.78917">
        <ele>1888.8</ele>
        <time>2018-11-24T09:39:03Z</time>
      </trkpt>
      <trkpt lat="42.79517" lon="0.78923">
        <ele>1888.9</ele>
        <time>2018-11-24T09:39:05Z</time>
      </trkpt>
      <trkpt lat="42.79515" lon="0.78928">
        <ele>1888.9</ele>
        <time>2018-11-24T09:39:07Z</time>
      </trkpt>
      <trkpt lat="42.79514" lon="0.78933">
        <ele>1888.6</ele>
        <time>2018-11-24T09:39:08Z</time>
      </trkpt>
      <trkpt lat="42.79513" lon="0.78938">
        <ele>1888.3</ele>
        <time>2018-11-24T09:39:10Z</time>
      </trkpt>
      <trkpt lat="42.79512" lon="0.78944">
        <ele>1888</ele>
        <time>2018-11-24T09:39:11Z</time>
      </trkpt>
      <trkpt lat="42.79511" lon="0.78949">
        <ele>1888.7</ele>
        <time>2018-11-24T09:39:13Z</time>
      </trkpt>
      <trkpt lat="42.7951" lon="0.78954">
        <ele>1889.6</ele>
        <time>2018-11-24T09:39:15Z</time>
      </trkpt>
      <trkpt lat="42.7951" lon="0.7896">
        <ele>1890.2</ele>
        <time>2018-11-24T09:39:16Z</time>
      </trkpt>
      <trkpt lat="42.79509" lon="0.78965">
        <ele>1890.9</ele>
        <time>2018-11-24T09:39:18Z</time>
      </trkpt>
      <trkpt lat="42.79509" lon="0.78971">
        <ele>1891.5</ele>
        <time>2018-11-24T09:39:20Z</time>
      </trkpt>
      <trkpt lat="42.79508" lon="0.78977">
        <ele>1892.4</ele>
        <time>2018-11-24T09:39:21Z</time>
      </trkpt>
      <trkpt lat="42.79508" lon="0.78982">
        <ele>1893.3</ele>
        <time>2018-11-24T09:39:23Z</time>
      </trkpt>
      <trkpt lat="42.79507" lon="0.78988">
        <ele>1894.2</ele>
        <time>2018-11-24T09:39:25Z</time>
      </trkpt>
      <trkpt lat="42.79508" lon="0.78994">
        <ele>1894.4</ele>
        <time>2018-11-24T09:39:26Z</time>
      </trkpt>
      <trkpt lat="42.79509" lon="0.79">
        <ele>1894.4</ele>
        <time>2018-11-24T09:39:28Z</time>
      </trkpt>
      <trkpt lat="42.7951" lon="0.79006">
        <ele>1895.5</ele>
        <time>2018-11-24T09:39:30Z</time>
      </trkpt>
      <trkpt lat="42.79511" lon="0.79011">
        <ele>1896.5</ele>
        <time>2018-11-24T09:39:32Z</time>
      </trkpt>
      <trkpt lat="42.79512" lon="0.79017">
        <ele>1897.5</ele>
        <time>2018-11-24T09:39:33Z</time>
      </trkpt>
      <trkpt lat="42.79513" lon="0.79023">
        <ele>1898.6</ele>
        <time>2018-11-24T09:39:35Z</time>
      </trkpt>
      <trkpt lat="42.79514" lon="0.79029">
        <ele>1899.9</ele>
        <time>2018-11-24T09:39:37Z</time>
      </trkpt>
      <trkpt lat="42.79516" lon="0.79034">
        <ele>1901.2</ele>
        <time>2018-11-24T09:39:39Z</time>
      </trkpt>
      <trkpt lat="42.79517" lon="0.79039">
        <ele>1902.4</ele>
        <time>2018-11-24T09:39:40Z</time>
      </trkpt>
      <trkpt lat="42.79519" lon="0.79044">
        <ele>1903.7</ele>
        <time>2018-11-24T09:39:42Z</time>
      </trkpt>
      <trkpt lat="42.7952" lon="0.79048">
        <ele>1905.2</ele>
        <time>2018-11-24T09:39:43Z</time>
      </trkpt>
      <trkpt lat="42.79522" lon="0.79053">
        <ele>1906.7</ele>
        <time>2018-11-24T09:39:45Z</time>
      </trkpt>
      <trkpt lat="42.79523" lon="0.79058">
        <ele>1908.1</ele>
        <time>2018-11-24T09:39:46Z</time>
      </trkpt>
      <trkpt lat="42.79525" lon="0.79063">
        <ele>1909.9</ele>
        <time>2018-11-24T09:39:48Z</time>
      </trkpt>
      <trkpt lat="42.79527" lon="0.79068">
        <ele>1911.6</ele>
        <time>2018-11-24T09:39:49Z</time>
      </trkpt>
      <trkpt lat="42.79528" lon="0.79073">
        <ele>1913.6</ele>
        <time>2018-11-24T09:39:51Z</time>
      </trkpt>
      <trkpt lat="42.7953" lon="0.79078">
        <ele>1915.6</ele>
        <time>2018-11-24T09:39:53Z</time>
      </trkpt>
      <trkpt lat="42.79531" lon="0.79083">
        <ele>1917.6</ele>
        <time>2018-11-24T09:39:54Z</time>
      </trkpt>
      <trkpt lat="42.79533" lon="0.79088">
        <ele>1918.8</ele>
        <time>2018-11-24T09:39:56Z</time>
      </trkpt>
      <trkpt lat="42.79534" lon="0.79094">
        <ele>1920</ele>
        <time>2018-11-24T09:39:58Z</time>
      </trkpt>
      <trkpt lat="42.79536" lon="0.79099">
        <ele>1921.1</ele>
        <time>2018-11-24T09:39:59Z</time>
      </trkpt>
      <trkpt lat="42.79537" lon="0.79104">
        <ele>1922.4</ele>
        <time>2018-11-24T09:40:01Z</time>
      </trkpt>
      <trkpt lat="42.79538" lon="0.79109">
        <ele>1923.6</ele>
        <time>2018-11-24T09:40:02Z</time>
      </trkpt>
      <trkpt lat="42.79538" lon="0.79114">
        <ele>1924.5</ele>
        <time>2018-11-24T09:40:04Z</time>
      </trkpt>
      <trkpt lat="42.79539" lon="0.79119">
        <ele>1925.1</ele>
        <time>2018-11-24T09:40:05Z</time>
      </trkpt>
      <trkpt lat="42.79538" lon="0.79125">
        <ele>1925.6</ele>
        <time>2018-11-24T09:40:07Z</time>
      </trkpt>
      <trkpt lat="42.79538" lon="0.7913">
        <ele>1926.4</ele>
        <time>2018-11-24T09:40:09Z</time>
      </trkpt>
      <trkpt lat="42.79537" lon="0.79136">
        <ele>1927.1</ele>
        <time>2018-11-24T09:40:10Z</time>
      </trkpt>
      <trkpt lat="42.79537" lon="0.79141">
        <ele>1927.2</ele>
        <time>2018-11-24T09:40:12Z</time>
      </trkpt>
      <trkpt lat="42.79536" lon="0.79147">
        <ele>1926.9</ele>
        <time>2018-11-24T09:40:14Z</time>
      </trkpt>
      <trkpt lat="42.79535" lon="0.79153">
        <ele>1926.6</ele>
        <time>2018-11-24T09:40:15Z</time>
      </trkpt>
      <trkpt lat="42.79534" lon="0.79159">
        <ele>1926.3</ele>
        <time>2018-11-24T09:40:17Z</time>
      </trkpt>
      <trkpt lat="42.79534" lon="0.79165">
        <ele>1926.2</ele>
        <time>2018-11-24T09:40:19Z</time>
      </trkpt>
      <trkpt lat="42.79533" lon="0.79171">
        <ele>1925.4</ele>
        <time>2018-11-24T09:40:21Z</time>
      </trkpt>
      <trkpt lat="42.79532" lon="0.79177">
        <ele>1924.7</ele>
        <time>2018-11-24T09:40:23Z</time>
      </trkpt>
      <trkpt lat="42.79531" lon="0.79182">
        <ele>1924.2</ele>
        <time>2018-11-24T09:40:24Z</time>
      </trkpt>
      <trkpt lat="42.79529" lon="0.79186">
        <ele>1923.8</ele>
        <time>2018-11-24T09:40:26Z</time>
      </trkpt>
      <trkpt lat="42.79526" lon="0.79188">
        <ele>1924.5</ele>
        <time>2018-11-24T09:40:27Z</time>
      </trkpt>
      <trkpt lat="42.79523" lon="0.7919">
        <ele>1925.5</ele>
        <time>2018-11-24T09:40:28Z</time>
      </trkpt>
      <trkpt lat="42.7952" lon="0.79192">
        <ele>1926.6</ele>
        <time>2018-11-24T09:40:30Z</time>
      </trkpt>
      <trkpt lat="42.79516" lon="0.79194">
        <ele>1928</ele>
        <time>2018-11-24T09:40:31Z</time>
      </trkpt>
      <trkpt lat="42.79512" lon="0.79196">
        <ele>1929.8</ele>
        <time>2018-11-24T09:40:33Z</time>
      </trkpt>
      <trkpt lat="42.79509" lon="0.79197">
        <ele>1931.7</ele>
        <time>2018-11-24T09:40:34Z</time>
      </trkpt>
      <trkpt lat="42.79505" lon="0.79199">
        <ele>1933.6</ele>
        <time>2018-11-24T09:40:36Z</time>
      </trkpt>
      <trkpt lat="42.79501" lon="0.79201">
        <ele>1935.7</ele>
        <time>2018-11-24T09:40:38Z</time>
      </trkpt>
      <trkpt lat="42.79498" lon="0.79203">
        <ele>1937.9</ele>
        <time>2018-11-24T09:40:39Z</time>
      </trkpt>
      <trkpt lat="42.79495" lon="0.79206">
        <ele>1940</ele>
        <time>2018-11-24T09:40:41Z</time>
      </trkpt>
      <trkpt lat="42.79491" lon="0.79208">
        <ele>1942.2</ele>
        <time>2018-11-24T09:40:42Z</time>
      </trkpt>
      <trkpt lat="42.79488" lon="0.79211">
        <ele>1944.3</ele>
        <time>2018-11-24T09:40:43Z</time>
      </trkpt>
      <trkpt lat="42.79485" lon="0.79213">
        <ele>1946.3</ele>
        <time>2018-11-24T09:40:45Z</time>
      </trkpt>
      <trkpt lat="42.79483" lon="0.79217">
        <ele>1947.8</ele>
        <time>2018-11-24T09:40:46Z</time>
      </trkpt>
      <trkpt lat="42.79481" lon="0.7922">
        <ele>1949.4</ele>
        <time>2018-11-24T09:40:48Z</time>
      </trkpt>
      <trkpt lat="42.79479" lon="0.79224">
        <ele>1951.3</ele>
        <time>2018-11-24T09:40:49Z</time>
      </trkpt>
      <trkpt lat="42.79478" lon="0.79228">
        <ele>1952.9</ele>
        <time>2018-11-24T09:40:50Z</time>
      </trkpt>
      <trkpt lat="42.79478" lon="0.79233">
        <ele>1954.5</ele>
        <time>2018-11-24T09:40:52Z</time>
      </trkpt>
      <trkpt lat="42.79477" lon="0.79237">
        <ele>1956.1</ele>
        <time>2018-11-24T09:40:53Z</time>
      </trkpt>
      <trkpt lat="42.79477" lon="0.79242">
        <ele>1957.6</ele>
        <time>2018-11-24T09:40:54Z</time>
      </trkpt>
      <trkpt lat="42.79477" lon="0.79247">
        <ele>1959.1</ele>
        <time>2018-11-24T09:40:56Z</time>
      </trkpt>
      <trkpt lat="42.79477" lon="0.79252">
        <ele>1960.2</ele>
        <time>2018-11-24T09:40:57Z</time>
      </trkpt>
      <trkpt lat="42.79476" lon="0.79257">
        <ele>1960.3</ele>
        <time>2018-11-24T09:40:59Z</time>
      </trkpt>
      <trkpt lat="42.79474" lon="0.79262">
        <ele>1960.6</ele>
        <time>2018-11-24T09:41:00Z</time>
      </trkpt>
      <trkpt lat="42.79473" lon="0.79267">
        <ele>1960.7</ele>
        <time>2018-11-24T09:41:02Z</time>
      </trkpt>
      <trkpt lat="42.79471" lon="0.79271">
        <ele>1960.8</ele>
        <time>2018-11-24T09:41:03Z</time>
      </trkpt>
      <trkpt lat="42.7947" lon="0.79274">
        <ele>1960.9</ele>
        <time>2018-11-24T09:41:04Z</time>
      </trkpt>
      <trkpt lat="42.79468" lon="0.79278">
        <ele>1960.8</ele>
        <time>2018-11-24T09:41:06Z</time>
      </trkpt>
      <trkpt lat="42.79466" lon="0.79283">
        <ele>1960.4</ele>
        <time>2018-11-24T09:41:07Z</time>
      </trkpt>
      <trkpt lat="42.79464" lon="0.79288">
        <ele>1959.9</ele>
        <time>2018-11-24T09:41:09Z</time>
      </trkpt>
      <trkpt lat="42.79462" lon="0.79293">
        <ele>1959.3</ele>
        <time>2018-11-24T09:41:11Z</time>
      </trkpt>
      <trkpt lat="42.79461" lon="0.79298">
        <ele>1958.9</ele>
        <time>2018-11-24T09:41:12Z</time>
      </trkpt>
      <trkpt lat="42.7946" lon="0.79303">
        <ele>1958.3</ele>
        <time>2018-11-24T09:41:14Z</time>
      </trkpt>
      <trkpt lat="42.79459" lon="0.79308">
        <ele>1958.1</ele>
        <time>2018-11-24T09:41:15Z</time>
      </trkpt>
      <trkpt lat="42.79458" lon="0.79313">
        <ele>1958.2</ele>
        <time>2018-11-24T09:41:17Z</time>
      </trkpt>
      <trkpt lat="42.79456" lon="0.79319">
        <ele>1958.1</ele>
        <time>2018-11-24T09:41:19Z</time>
      </trkpt>
      <trkpt lat="42.79455" lon="0.79324">
        <ele>1958.1</ele>
        <time>2018-11-24T09:41:20Z</time>
      </trkpt>
      <trkpt lat="42.79453" lon="0.79329">
        <ele>1958.3</ele>
        <time>2018-11-24T09:41:22Z</time>
      </trkpt>
      <trkpt lat="42.79453" lon="0.79333">
        <ele>1958.4</ele>
        <time>2018-11-24T09:41:23Z</time>
      </trkpt>
      <trkpt lat="42.79452" lon="0.79338">
        <ele>1958.2</ele>
        <time>2018-11-24T09:41:25Z</time>
      </trkpt>
      <trkpt lat="42.79452" lon="0.79342">
        <ele>1958</ele>
        <time>2018-11-24T09:41:26Z</time>
      </trkpt>
      <trkpt lat="42.79454" lon="0.79347">
        <ele>1958</ele>
        <time>2018-11-24T09:41:27Z</time>
      </trkpt>
      <trkpt lat="42.79457" lon="0.79351">
        <ele>1958.1</ele>
        <time>2018-11-24T09:41:29Z</time>
      </trkpt>
      <trkpt lat="42.79459" lon="0.79356">
        <ele>1958.1</ele>
        <time>2018-11-24T09:41:31Z</time>
      </trkpt>
      <trkpt lat="42.79462" lon="0.7936">
        <ele>1958.3</ele>
        <time>2018-11-24T09:41:32Z</time>
      </trkpt>
      <trkpt lat="42.79465" lon="0.79364">
        <ele>1958.4</ele>
        <time>2018-11-24T09:41:34Z</time>
      </trkpt>
      <trkpt lat="42.79468" lon="0.79368">
        <ele>1958.6</ele>
        <time>2018-11-24T09:41:36Z</time>
      </trkpt>
      <trkpt lat="42.79471" lon="0.79372">
        <ele>1958.7</ele>
        <time>2018-11-24T09:41:37Z</time>
      </trkpt>
      <trkpt lat="42.79471" lon="0.79376">
        <ele>1958.5</ele>
        <time>2018-11-24T09:41:39Z</time>
      </trkpt>
      <trkpt lat="42.79471" lon="0.79381">
        <ele>1958.4</ele>
        <time>2018-11-24T09:41:40Z</time>
      </trkpt>
      <trkpt lat="42.79471" lon="0.79385">
        <ele>1958.2</ele>
        <time>2018-11-24T09:41:41Z</time>
      </trkpt>
      <trkpt lat="42.79467" lon="0.79388">
        <ele>1958</ele>
        <time>2018-11-24T09:41:43Z</time>
      </trkpt>
      <trkpt lat="42.79463" lon="0.7939">
        <ele>1958</ele>
        <time>2018-11-24T09:41:45Z</time>
      </trkpt>
      <trkpt lat="42.79459" lon="0.79391">
        <ele>1958</ele>
        <time>2018-11-24T09:41:46Z</time>
      </trkpt>
      <trkpt lat="42.79455" lon="0.79392">
        <ele>1958</ele>
        <time>2018-11-24T09:41:48Z</time>
      </trkpt>
      <trkpt lat="42.79451" lon="0.79393">
        <ele>1958.1</ele>
        <time>2018-11-24T09:41:50Z</time>
      </trkpt>
      <trkpt lat="42.79447" lon="0.79394">
        <ele>1958</ele>
        <time>2018-11-24T09:41:51Z</time>
      </trkpt>
      <trkpt lat="42.79444" lon="0.79395">
        <ele>1958</ele>
        <time>2018-11-24T09:41:53Z</time>
      </trkpt>
      <trkpt lat="42.7944" lon="0.79396">
        <ele>1957.8</ele>
        <time>2018-11-24T09:41:54Z</time>
      </trkpt>
      <trkpt lat="42.79436" lon="0.79396">
        <ele>1957.8</ele>
        <time>2018-11-24T09:41:56Z</time>
      </trkpt>
      <trkpt lat="42.79432" lon="0.79395">
        <ele>1957.7</ele>
        <time>2018-11-24T09:41:57Z</time>
      </trkpt>
      <trkpt lat="42.79432" lon="0.79401">
        <ele>1957.7</ele>
        <time>2018-11-24T09:41:59Z</time>
      </trkpt>
      <trkpt lat="42.79432" lon="0.79406">
        <ele>1957.7</ele>
        <time>2018-11-24T09:42:01Z</time>
      </trkpt>
      <trkpt lat="42.79433" lon="0.7941">
        <ele>1957.6</ele>
        <time>2018-11-24T09:42:02Z</time>
      </trkpt>
      <trkpt lat="42.79434" lon="0.79414">
        <ele>1957.6</ele>
        <time>2018-11-24T09:42:03Z</time>
      </trkpt>
      <trkpt lat="42.79433" lon="0.79419">
        <ele>1957.7</ele>
        <time>2018-11-24T09:42:05Z</time>
      </trkpt>
      <trkpt lat="42.79431" lon="0.79425">
        <ele>1958.2</ele>
        <time>2018-11-24T09:42:06Z</time>
      </trkpt>
      <trkpt lat="42.7943" lon="0.7943">
        <ele>1958.5</ele>
        <time>2018-11-24T09:42:08Z</time>
      </trkpt>
      <trkpt lat="42.79428" lon="0.79435">
        <ele>1958.9</ele>
        <time>2018-11-24T09:42:10Z</time>
      </trkpt>
      <trkpt lat="42.79425" lon="0.79438">
        <ele>1959.1</ele>
        <time>2018-11-24T09:42:11Z</time>
      </trkpt>
      <trkpt lat="42.79422" lon="0.7944">
        <ele>1959.4</ele>
        <time>2018-11-24T09:42:13Z</time>
      </trkpt>
      <trkpt lat="42.79419" lon="0.79443">
        <ele>1959.8</ele>
        <time>2018-11-24T09:42:14Z</time>
      </trkpt>
      <trkpt lat="42.79416" lon="0.79445">
        <ele>1960</ele>
        <time>2018-11-24T09:42:15Z</time>
      </trkpt>
      <trkpt lat="42.79414" lon="0.79448">
        <ele>1959.9</ele>
        <time>2018-11-24T09:42:17Z</time>
      </trkpt>
      <trkpt lat="42.79412" lon="0.79451">
        <ele>1959.7</ele>
        <time>2018-11-24T09:42:18Z</time>
      </trkpt>
      <trkpt lat="42.7941" lon="0.79456">
        <ele>1959.5</ele>
        <time>2018-11-24T09:42:19Z</time>
      </trkpt>
      <trkpt lat="42.79409" lon="0.79462">
        <ele>1959.2</ele>
        <time>2018-11-24T09:42:21Z</time>
      </trkpt>
      <trkpt lat="42.79407" lon="0.79467">
        <ele>1959</ele>
        <time>2018-11-24T09:42:23Z</time>
      </trkpt>
      <trkpt lat="42.79406" lon="0.79473">
        <ele>1958.9</ele>
        <time>2018-11-24T09:42:25Z</time>
      </trkpt>
      <trkpt lat="42.79404" lon="0.79478">
        <ele>1958.7</ele>
        <time>2018-11-24T09:42:26Z</time>
      </trkpt>
      <trkpt lat="42.79404" lon="0.79483">
        <ele>1958.7</ele>
        <time>2018-11-24T09:42:28Z</time>
      </trkpt>
      <trkpt lat="42.79404" lon="0.79488">
        <ele>1958.7</ele>
        <time>2018-11-24T09:42:29Z</time>
      </trkpt>
      <trkpt lat="42.79404" lon="0.79493">
        <ele>1958.7</ele>
        <time>2018-11-24T09:42:31Z</time>
      </trkpt>
      <trkpt lat="42.79403" lon="0.79498">
        <ele>1958.5</ele>
        <time>2018-11-24T09:42:32Z</time>
      </trkpt>
      <trkpt lat="42.79401" lon="0.79504">
        <ele>1958.5</ele>
        <time>2018-11-24T09:42:34Z</time>
      </trkpt>
      <trkpt lat="42.794" lon="0.79509">
        <ele>1958.4</ele>
        <time>2018-11-24T09:42:36Z</time>
      </trkpt>
      <trkpt lat="42.79398" lon="0.79514">
        <ele>1958.3</ele>
        <time>2018-11-24T09:42:37Z</time>
      </trkpt>
      <trkpt lat="42.79395" lon="0.79519">
        <ele>1958.5</ele>
        <time>2018-11-24T09:42:39Z</time>
      </trkpt>
      <trkpt lat="42.79394" lon="0.79523">
        <ele>1958.6</ele>
        <time>2018-11-24T09:42:40Z</time>
      </trkpt>
      <trkpt lat="42.79392" lon="0.79526">
        <ele>1958.7</ele>
        <time>2018-11-24T09:42:42Z</time>
      </trkpt>
      <trkpt lat="42.79391" lon="0.7953">
        <ele>1959.2</ele>
        <time>2018-11-24T09:42:43Z</time>
      </trkpt>
      <trkpt lat="42.79389" lon="0.79533">
        <ele>1959.6</ele>
        <time>2018-11-24T09:42:44Z</time>
      </trkpt>
      <trkpt lat="42.79386" lon="0.79535">
        <ele>1959.8</ele>
        <time>2018-11-24T09:42:45Z</time>
      </trkpt>
      <trkpt lat="42.79384" lon="0.79538">
        <ele>1959.8</ele>
        <time>2018-11-24T09:42:47Z</time>
      </trkpt>
      <trkpt lat="42.79383" lon="0.79544">
        <ele>1960.2</ele>
        <time>2018-11-24T09:42:48Z</time>
      </trkpt>
      <trkpt lat="42.79381" lon="0.79549">
        <ele>1960.6</ele>
        <time>2018-11-24T09:42:50Z</time>
      </trkpt>
      <trkpt lat="42.79379" lon="0.79553">
        <ele>1960.7</ele>
        <time>2018-11-24T09:42:51Z</time>
      </trkpt>
      <trkpt lat="42.79377" lon="0.79557">
        <ele>1960.7</ele>
        <time>2018-11-24T09:42:53Z</time>
      </trkpt>
      <trkpt lat="42.79375" lon="0.79561">
        <ele>1960</ele>
        <time>2018-11-24T09:42:54Z</time>
      </trkpt>
      <trkpt lat="42.79373" lon="0.79565">
        <ele>1959.5</ele>
        <time>2018-11-24T09:42:56Z</time>
      </trkpt>
      <trkpt lat="42.79371" lon="0.7957">
        <ele>1959.2</ele>
        <time>2018-11-24T09:42:57Z</time>
      </trkpt>
      <trkpt lat="42.79369" lon="0.79574">
        <ele>1958.9</ele>
        <time>2018-11-24T09:42:59Z</time>
      </trkpt>
      <trkpt lat="42.79367" lon="0.79578">
        <ele>1958.8</ele>
        <time>2018-11-24T09:43:00Z</time>
      </trkpt>
      <trkpt lat="42.79364" lon="0.79581">
        <ele>1959</ele>
        <time>2018-11-24T09:43:02Z</time>
      </trkpt>
      <trkpt lat="42.7936" lon="0.79583">
        <ele>1959</ele>
        <time>2018-11-24T09:43:03Z</time>
      </trkpt>
      <trkpt lat="42.79357" lon="0.79586">
        <ele>1958.5</ele>
        <time>2018-11-24T09:43:05Z</time>
      </trkpt>
      <trkpt lat="42.79357" lon="0.7959">
        <ele>1958.3</ele>
        <time>2018-11-24T09:43:06Z</time>
      </trkpt>
      <trkpt lat="42.79357" lon="0.79593">
        <ele>1958.2</ele>
        <time>2018-11-24T09:43:07Z</time>
      </trkpt>
      <trkpt lat="42.79358" lon="0.79598">
        <ele>1957.8</ele>
        <time>2018-11-24T09:43:08Z</time>
      </trkpt>
      <trkpt lat="42.79359" lon="0.79603">
        <ele>1957.6</ele>
        <time>2018-11-24T09:43:10Z</time>
      </trkpt>
      <trkpt lat="42.7936" lon="0.79608">
        <ele>1957.3</ele>
        <time>2018-11-24T09:43:11Z</time>
      </trkpt>
      <trkpt lat="42.7936" lon="0.79612">
        <ele>1957.1</ele>
        <time>2018-11-24T09:43:12Z</time>
      </trkpt>
      <trkpt lat="42.79359" lon="0.79615">
        <ele>1957.2</ele>
        <time>2018-11-24T09:43:14Z</time>
      </trkpt>
      <trkpt lat="42.79358" lon="0.7962">
        <ele>1957.5</ele>
        <time>2018-11-24T09:43:15Z</time>
      </trkpt>
      <trkpt lat="42.79356" lon="0.79625">
        <ele>1957.8</ele>
        <time>2018-11-24T09:43:17Z</time>
      </trkpt>
      <trkpt lat="42.79354" lon="0.7963">
        <ele>1958</ele>
        <time>2018-11-24T09:43:18Z</time>
      </trkpt>
      <trkpt lat="42.79353" lon="0.79634">
        <ele>1958.1</ele>
        <time>2018-11-24T09:43:20Z</time>
      </trkpt>
      <trkpt lat="42.79351" lon="0.79639">
        <ele>1958.4</ele>
        <time>2018-11-24T09:43:21Z</time>
      </trkpt>
      <trkpt lat="42.79348" lon="0.79642">
        <ele>1959.8</ele>
        <time>2018-11-24T09:43:23Z</time>
      </trkpt>
      <trkpt lat="42.79346" lon="0.79646">
        <ele>1961.3</ele>
        <time>2018-11-24T09:43:24Z</time>
      </trkpt>
      <trkpt lat="42.79343" lon="0.79649">
        <ele>1962.4</ele>
        <time>2018-11-24T09:43:26Z</time>
      </trkpt>
      <trkpt lat="42.79341" lon="0.79653">
        <ele>1963.5</ele>
        <time>2018-11-24T09:43:27Z</time>
      </trkpt>
      <trkpt lat="42.79338" lon="0.79656">
        <ele>1964.2</ele>
        <time>2018-11-24T09:43:28Z</time>
      </trkpt>
      <trkpt lat="42.79336" lon="0.7966">
        <ele>1965.3</ele>
        <time>2018-11-24T09:43:30Z</time>
      </trkpt>
      <trkpt lat="42.79334" lon="0.79664">
        <ele>1966.2</ele>
        <time>2018-11-24T09:43:31Z</time>
      </trkpt>
      <trkpt lat="42.79332" lon="0.79668">
        <ele>1967.9</ele>
        <time>2018-11-24T09:43:33Z</time>
      </trkpt>
      <trkpt lat="42.7933" lon="0.79672">
        <ele>1970.5</ele>
        <time>2018-11-24T09:43:34Z</time>
      </trkpt>
      <trkpt lat="42.79328" lon="0.79675">
        <ele>1972.7</ele>
        <time>2018-11-24T09:43:35Z</time>
      </trkpt>
      <trkpt lat="42.79325" lon="0.79679">
        <ele>1974.5</ele>
        <time>2018-11-24T09:43:37Z</time>
      </trkpt>
      <trkpt lat="42.79323" lon="0.79682">
        <ele>1975.8</ele>
        <time>2018-11-24T09:43:38Z</time>
      </trkpt>
      <trkpt lat="42.79319" lon="0.79684">
        <ele>1974.7</ele>
        <time>2018-11-24T09:43:40Z</time>
      </trkpt>
      <trkpt lat="42.79316" lon="0.79687">
        <ele>1973.2</ele>
        <time>2018-11-24T09:43:41Z</time>
      </trkpt>
      <trkpt lat="42.79312" lon="0.79689">
        <ele>1971.2</ele>
        <time>2018-11-24T09:43:43Z</time>
      </trkpt>
      <trkpt lat="42.79309" lon="0.79693">
        <ele>1970.2</ele>
        <time>2018-11-24T09:43:45Z</time>
      </trkpt>
      <trkpt lat="42.79307" lon="0.79696">
        <ele>1969.3</ele>
        <time>2018-11-24T09:43:46Z</time>
      </trkpt>
      <trkpt lat="42.79304" lon="0.797">
        <ele>1969.3</ele>
        <time>2018-11-24T09:43:48Z</time>
      </trkpt>
      <trkpt lat="42.79302" lon="0.79703">
        <ele>1969.7</ele>
        <time>2018-11-24T09:43:49Z</time>
      </trkpt>
      <trkpt lat="42.79299" lon="0.79706">
        <ele>1970.1</ele>
        <time>2018-11-24T09:43:50Z</time>
      </trkpt>
      <trkpt lat="42.79296" lon="0.79709">
        <ele>1970</ele>
        <time>2018-11-24T09:43:52Z</time>
      </trkpt>
      <trkpt lat="42.79293" lon="0.79711">
        <ele>1969.9</ele>
        <time>2018-11-24T09:43:53Z</time>
      </trkpt>
      <trkpt lat="42.7929" lon="0.79714">
        <ele>1969.6</ele>
        <time>2018-11-24T09:43:55Z</time>
      </trkpt>
      <trkpt lat="42.79287" lon="0.79717">
        <ele>1969</ele>
        <time>2018-11-24T09:43:56Z</time>
      </trkpt>
      <trkpt lat="42.79284" lon="0.79719">
        <ele>1968.5</ele>
        <time>2018-11-24T09:43:57Z</time>
      </trkpt>
      <trkpt lat="42.79281" lon="0.79722">
        <ele>1967.7</ele>
        <time>2018-11-24T09:43:59Z</time>
      </trkpt>
      <trkpt lat="42.7928" lon="0.79726">
        <ele>1968.4</ele>
        <time>2018-11-24T09:44:00Z</time>
      </trkpt>
      <trkpt lat="42.79278" lon="0.79731">
        <ele>1969.2</ele>
        <time>2018-11-24T09:44:02Z</time>
      </trkpt>
      <trkpt lat="42.79277" lon="0.79735">
        <ele>1970.1</ele>
        <time>2018-11-24T09:44:03Z</time>
      </trkpt>
      <trkpt lat="42.79275" lon="0.79739">
        <ele>1971.1</ele>
        <time>2018-11-24T09:44:04Z</time>
      </trkpt>
      <trkpt lat="42.79276" lon="0.79744">
        <ele>1973.1</ele>
        <time>2018-11-24T09:44:06Z</time>
      </trkpt>
      <trkpt lat="42.79277" lon="0.79749">
        <ele>1975.1</ele>
        <time>2018-11-24T09:44:07Z</time>
      </trkpt>
      <trkpt lat="42.79277" lon="0.79754">
        <ele>1977.4</ele>
        <time>2018-11-24T09:44:09Z</time>
      </trkpt>
      <trkpt lat="42.79278" lon="0.79759">
        <ele>1979.7</ele>
        <time>2018-11-24T09:44:10Z</time>
      </trkpt>
      <trkpt lat="42.79278" lon="0.79764">
        <ele>1981.5</ele>
        <time>2018-11-24T09:44:12Z</time>
      </trkpt>
      <trkpt lat="42.79278" lon="0.79769">
        <ele>1983.2</ele>
        <time>2018-11-24T09:44:13Z</time>
      </trkpt>
      <trkpt lat="42.79277" lon="0.79773">
        <ele>1985</ele>
        <time>2018-11-24T09:44:15Z</time>
      </trkpt>
      <trkpt lat="42.79277" lon="0.79778">
        <ele>1986.9</ele>
        <time>2018-11-24T09:44:16Z</time>
      </trkpt>
      <trkpt lat="42.79277" lon="0.79784">
        <ele>1989</ele>
        <time>2018-11-24T09:44:18Z</time>
      </trkpt>
      <trkpt lat="42.79277" lon="0.79789">
        <ele>1991.1</ele>
        <time>2018-11-24T09:44:19Z</time>
      </trkpt>
      <trkpt lat="42.79277" lon="0.79795">
        <ele>1993.4</ele>
        <time>2018-11-24T09:44:21Z</time>
      </trkpt>
      <trkpt lat="42.79277" lon="0.798">
        <ele>1995.5</ele>
        <time>2018-11-24T09:44:22Z</time>
      </trkpt>
      <trkpt lat="42.79277" lon="0.79806">
        <ele>1997.6</ele>
        <time>2018-11-24T09:44:24Z</time>
      </trkpt>
      <trkpt lat="42.79277" lon="0.79811">
        <ele>1999.4</ele>
        <time>2018-11-24T09:44:26Z</time>
      </trkpt>
      <trkpt lat="42.79277" lon="0.79817">
        <ele>2001.3</ele>
        <time>2018-11-24T09:44:27Z</time>
      </trkpt>
      <trkpt lat="42.79277" lon="0.79822">
        <ele>2003.1</ele>
        <time>2018-11-24T09:44:29Z</time>
      </trkpt>
      <trkpt lat="42.79277" lon="0.79828">
        <ele>2005</ele>
        <time>2018-11-24T09:44:31Z</time>
      </trkpt>
      <trkpt lat="42.79277" lon="0.79834">
        <ele>2006.9</ele>
        <time>2018-11-24T09:44:32Z</time>
      </trkpt>
      <trkpt lat="42.79277" lon="0.7984">
        <ele>2009</ele>
        <time>2018-11-24T09:44:34Z</time>
      </trkpt>
      <trkpt lat="42.79277" lon="0.79846">
        <ele>2010.9</ele>
        <time>2018-11-24T09:44:36Z</time>
      </trkpt>
      <trkpt lat="42.79279" lon="0.79852">
        <ele>2013.5</ele>
        <time>2018-11-24T09:44:38Z</time>
      </trkpt>
      <trkpt lat="42.7928" lon="0.79857">
        <ele>2016.3</ele>
        <time>2018-11-24T09:44:40Z</time>
      </trkpt>
      <trkpt lat="42.79282" lon="0.79863">
        <ele>2018.9</ele>
        <time>2018-11-24T09:44:41Z</time>
      </trkpt>
      <trkpt lat="42.79284" lon="0.79868">
        <ele>2021.8</ele>
        <time>2018-11-24T09:44:43Z</time>
      </trkpt>
      <trkpt lat="42.79287" lon="0.79873">
        <ele>2024.7</ele>
        <time>2018-11-24T09:44:45Z</time>
      </trkpt>
      <trkpt lat="42.79289" lon="0.79878">
        <ele>2027.5</ele>
        <time>2018-11-24T09:44:47Z</time>
      </trkpt>
      <trkpt lat="42.79291" lon="0.79884">
        <ele>2030.1</ele>
        <time>2018-11-24T09:44:48Z</time>
      </trkpt>
      <trkpt lat="42.79292" lon="0.79889">
        <ele>2032.8</ele>
        <time>2018-11-24T09:44:50Z</time>
      </trkpt>
      <trkpt lat="42.79294" lon="0.79895">
        <ele>2035.4</ele>
        <time>2018-11-24T09:44:52Z</time>
      </trkpt>
      <trkpt lat="42.79295" lon="0.799">
        <ele>2038.2</ele>
        <time>2018-11-24T09:44:53Z</time>
      </trkpt>
      <trkpt lat="42.79295" lon="0.79906">
        <ele>2040.1</ele>
        <time>2018-11-24T09:44:55Z</time>
      </trkpt>
      <trkpt lat="42.79295" lon="0.79912">
        <ele>2041.9</ele>
        <time>2018-11-24T09:44:57Z</time>
      </trkpt>
      <trkpt lat="42.79295" lon="0.79917">
        <ele>2043.9</ele>
        <time>2018-11-24T09:44:59Z</time>
      </trkpt>
      <trkpt lat="42.79295" lon="0.79923">
        <ele>2045.7</ele>
        <time>2018-11-24T09:45:00Z</time>
      </trkpt>
      <trkpt lat="42.79295" lon="0.79927">
        <ele>2047</ele>
        <time>2018-11-24T09:45:02Z</time>
      </trkpt>
      <trkpt lat="42.79295" lon="0.79932">
        <ele>2048.3</ele>
        <time>2018-11-24T09:45:03Z</time>
      </trkpt>
      <trkpt lat="42.79295" lon="0.79936">
        <ele>2049.5</ele>
        <time>2018-11-24T09:45:04Z</time>
      </trkpt>
      <trkpt lat="42.79296" lon="0.79942">
        <ele>2051.4</ele>
        <time>2018-11-24T09:45:06Z</time>
      </trkpt>
      <trkpt lat="42.79296" lon="0.79947">
        <ele>2053.3</ele>
        <time>2018-11-24T09:45:07Z</time>
      </trkpt>
      <trkpt lat="42.79297" lon="0.79951">
        <ele>2054.7</ele>
        <time>2018-11-24T09:45:09Z</time>
      </trkpt>
      <trkpt lat="42.79299" lon="0.79955">
        <ele>2056.4</ele>
        <time>2018-11-24T09:45:10Z</time>
      </trkpt>
      <trkpt lat="42.793" lon="0.79959">
        <ele>2057.6</ele>
        <time>2018-11-24T09:45:11Z</time>
      </trkpt>
      <trkpt lat="42.79302" lon="0.79962">
        <ele>2058.9</ele>
        <time>2018-11-24T09:45:12Z</time>
      </trkpt>
      <trkpt lat="42.79304" lon="0.79964">
        <ele>2060.1</ele>
        <time>2018-11-24T09:45:13Z</time>
      </trkpt>
      <trkpt lat="42.79304" lon="0.79969">
        <ele>2061.2</ele>
        <time>2018-11-24T09:45:15Z</time>
      </trkpt>
      <trkpt lat="42.79304" lon="0.79974">
        <ele>2062</ele>
        <time>2018-11-24T09:45:16Z</time>
      </trkpt>
      <trkpt lat="42.79305" lon="0.7998">
        <ele>2063</ele>
        <time>2018-11-24T09:45:18Z</time>
      </trkpt>
      <trkpt lat="42.79305" lon="0.79985">
        <ele>2063.7</ele>
        <time>2018-11-24T09:45:19Z</time>
      </trkpt>
      <trkpt lat="42.79305" lon="0.7999">
        <ele>2064.5</ele>
        <time>2018-11-24T09:45:21Z</time>
      </trkpt>
      <trkpt lat="42.79306" lon="0.79995">
        <ele>2065.4</ele>
        <time>2018-11-24T09:45:23Z</time>
      </trkpt>
      <trkpt lat="42.79306" lon="0.8">
        <ele>2066.4</ele>
        <time>2018-11-24T09:45:24Z</time>
      </trkpt>
      <trkpt lat="42.79307" lon="0.80005">
        <ele>2067.9</ele>
        <time>2018-11-24T09:45:25Z</time>
      </trkpt>
      <trkpt lat="42.79307" lon="0.80011">
        <ele>2069</ele>
        <time>2018-11-24T09:45:27Z</time>
      </trkpt>
      <trkpt lat="42.79306" lon="0.80016">
        <ele>2070.1</ele>
        <time>2018-11-24T09:45:29Z</time>
      </trkpt>
      <trkpt lat="42.79306" lon="0.80022">
        <ele>2071.1</ele>
        <time>2018-11-24T09:45:31Z</time>
      </trkpt>
      <trkpt lat="42.79307" lon="0.80027">
        <ele>2072.6</ele>
        <time>2018-11-24T09:45:32Z</time>
      </trkpt>
      <trkpt lat="42.79307" lon="0.80033">
        <ele>2074.5</ele>
        <time>2018-11-24T09:45:34Z</time>
      </trkpt>
      <trkpt lat="42.79308" lon="0.80038">
        <ele>2076.2</ele>
        <time>2018-11-24T09:45:35Z</time>
      </trkpt>
      <trkpt lat="42.79308" lon="0.80043">
        <ele>2077.5</ele>
        <time>2018-11-24T09:45:37Z</time>
      </trkpt>
      <trkpt lat="42.79308" lon="0.80047">
        <ele>2078.7</ele>
        <time>2018-11-24T09:45:38Z</time>
      </trkpt>
      <trkpt lat="42.79308" lon="0.80052">
        <ele>2079.8</ele>
        <time>2018-11-24T09:45:39Z</time>
      </trkpt>
      <trkpt lat="42.79308" lon="0.80057">
        <ele>2081.1</ele>
        <time>2018-11-24T09:45:41Z</time>
      </trkpt>
      <trkpt lat="42.79308" lon="0.80062">
        <ele>2082.7</ele>
        <time>2018-11-24T09:45:42Z</time>
      </trkpt>
      <trkpt lat="42.79306" lon="0.80065">
        <ele>2082.2</ele>
        <time>2018-11-24T09:45:44Z</time>
      </trkpt>
      <trkpt lat="42.79303" lon="0.80068">
        <ele>2083</ele>
        <time>2018-11-24T09:45:45Z</time>
      </trkpt>
      <trkpt lat="42.79302" lon="0.80072">
        <ele>2084.4</ele>
        <time>2018-11-24T09:45:46Z</time>
      </trkpt>
      <trkpt lat="42.793" lon="0.80076">
        <ele>2085.6</ele>
        <time>2018-11-24T09:45:48Z</time>
      </trkpt>
      <trkpt lat="42.79298" lon="0.80079">
        <ele>2086.6</ele>
        <time>2018-11-24T09:45:49Z</time>
      </trkpt>
      <trkpt lat="42.79294" lon="0.80081">
        <ele>2087.1</ele>
        <time>2018-11-24T09:45:50Z</time>
      </trkpt>
      <trkpt lat="42.79291" lon="0.80082">
        <ele>2087.8</ele>
        <time>2018-11-24T09:45:52Z</time>
      </trkpt>
      <trkpt lat="42.79287" lon="0.80084">
        <ele>2088.3</ele>
        <time>2018-11-24T09:45:53Z</time>
      </trkpt>
      <trkpt lat="42.79284" lon="0.80085">
        <ele>2088.8</ele>
        <time>2018-11-24T09:45:55Z</time>
      </trkpt>
      <trkpt lat="42.7928" lon="0.80087">
        <ele>2089.2</ele>
        <time>2018-11-24T09:45:56Z</time>
      </trkpt>
      <trkpt lat="42.79277" lon="0.80088">
        <ele>2090.1</ele>
        <time>2018-11-24T09:45:58Z</time>
      </trkpt>
      <trkpt lat="42.79273" lon="0.80088">
        <ele>2092.3</ele>
        <time>2018-11-24T09:45:59Z</time>
      </trkpt>
      <trkpt lat="42.7927" lon="0.80089">
        <ele>2094.3</ele>
        <time>2018-11-24T09:46:01Z</time>
      </trkpt>
      <trkpt lat="42.79266" lon="0.80089">
        <ele>2096.4</ele>
        <time>2018-11-24T09:46:02Z</time>
      </trkpt>
      <trkpt lat="42.79263" lon="0.80091">
        <ele>2098.6</ele>
        <time>2018-11-24T09:46:03Z</time>
      </trkpt>
      <trkpt lat="42.79259" lon="0.80092">
        <ele>2100.6</ele>
        <time>2018-11-24T09:46:05Z</time>
      </trkpt>
      <trkpt lat="42.79256" lon="0.80094">
        <ele>2102.7</ele>
        <time>2018-11-24T09:46:06Z</time>
      </trkpt>
      <trkpt lat="42.79252" lon="0.80094">
        <ele>2104.6</ele>
        <time>2018-11-24T09:46:08Z</time>
      </trkpt>
      <trkpt lat="42.79249" lon="0.80095">
        <ele>2106.1</ele>
        <time>2018-11-24T09:46:09Z</time>
      </trkpt>
      <trkpt lat="42.79245" lon="0.80095">
        <ele>2107.4</ele>
        <time>2018-11-24T09:46:11Z</time>
      </trkpt>
      <trkpt lat="42.79241" lon="0.80093">
        <ele>2108.6</ele>
        <time>2018-11-24T09:46:12Z</time>
      </trkpt>
      <trkpt lat="42.79237" lon="0.80091">
        <ele>2109.7</ele>
        <time>2018-11-24T09:46:14Z</time>
      </trkpt>
      <trkpt lat="42.79233" lon="0.8009">
        <ele>2110.8</ele>
        <time>2018-11-24T09:46:16Z</time>
      </trkpt>
      <trkpt lat="42.7923" lon="0.80089">
        <ele>2112</ele>
        <time>2018-11-24T09:46:17Z</time>
      </trkpt>
      <trkpt lat="42.79226" lon="0.80088">
        <ele>2113.2</ele>
        <time>2018-11-24T09:46:19Z</time>
      </trkpt>
      <trkpt lat="42.79222" lon="0.80087">
        <ele>2114.6</ele>
        <time>2018-11-24T09:46:20Z</time>
      </trkpt>
      <trkpt lat="42.79218" lon="0.80086">
        <ele>2115.8</ele>
        <time>2018-11-24T09:46:22Z</time>
      </trkpt>
      <trkpt lat="42.79214" lon="0.80085">
        <ele>2117.3</ele>
        <time>2018-11-24T09:46:24Z</time>
      </trkpt>
      <trkpt lat="42.7921" lon="0.80084">
        <ele>2118.6</ele>
        <time>2018-11-24T09:46:25Z</time>
      </trkpt>
      <trkpt lat="42.79207" lon="0.80083">
        <ele>2119.5</ele>
        <time>2018-11-24T09:46:26Z</time>
      </trkpt>
      <trkpt lat="42.79204" lon="0.80083">
        <ele>2120.7</ele>
        <time>2018-11-24T09:46:28Z</time>
      </trkpt>
      <trkpt lat="42.79201" lon="0.80082">
        <ele>2122</ele>
        <time>2018-11-24T09:46:29Z</time>
      </trkpt>
      <trkpt lat="42.79197" lon="0.80081">
        <ele>2124</ele>
        <time>2018-11-24T09:46:30Z</time>
      </trkpt>
      <trkpt lat="42.79193" lon="0.8008">
        <ele>2126</ele>
        <time>2018-11-24T09:46:32Z</time>
      </trkpt>
      <trkpt lat="42.79188" lon="0.80079">
        <ele>2128.4</ele>
        <time>2018-11-24T09:46:34Z</time>
      </trkpt>
      <trkpt lat="42.79184" lon="0.80078">
        <ele>2130.9</ele>
        <time>2018-11-24T09:46:36Z</time>
      </trkpt>
      <trkpt lat="42.79181" lon="0.80077">
        <ele>2132.9</ele>
        <time>2018-11-24T09:46:37Z</time>
      </trkpt>
      <trkpt lat="42.79178" lon="0.80076">
        <ele>2134.8</ele>
        <time>2018-11-24T09:46:38Z</time>
      </trkpt>
      <trkpt lat="42.79174" lon="0.80074">
        <ele>2136.6</ele>
        <time>2018-11-24T09:46:40Z</time>
      </trkpt>
      <trkpt lat="42.79171" lon="0.80073">
        <ele>2138.6</ele>
        <time>2018-11-24T09:46:41Z</time>
      </trkpt>
      <trkpt lat="42.79168" lon="0.80075">
        <ele>2139.6</ele>
        <time>2018-11-24T09:46:42Z</time>
      </trkpt>
      <trkpt lat="42.79165" lon="0.80077">
        <ele>2140.5</ele>
        <time>2018-11-24T09:46:44Z</time>
      </trkpt>
      <trkpt lat="42.79161" lon="0.80077">
        <ele>2143</ele>
        <time>2018-11-24T09:46:46Z</time>
      </trkpt>
      <trkpt lat="42.79156" lon="0.80077">
        <ele>2145.4</ele>
        <time>2018-11-24T09:46:47Z</time>
      </trkpt>
      <trkpt lat="42.79153" lon="0.80077">
        <ele>2147.1</ele>
        <time>2018-11-24T09:46:49Z</time>
      </trkpt>
      <trkpt lat="42.79149" lon="0.80077">
        <ele>2149</ele>
        <time>2018-11-24T09:46:50Z</time>
      </trkpt>
      <trkpt lat="42.79146" lon="0.80077">
        <ele>2150.8</ele>
        <time>2018-11-24T09:46:51Z</time>
      </trkpt>
      <trkpt lat="42.79142" lon="0.80078">
        <ele>2153</ele>
        <time>2018-11-24T09:46:53Z</time>
      </trkpt>
      <trkpt lat="42.79137" lon="0.80078">
        <ele>2155.4</ele>
        <time>2018-11-24T09:46:55Z</time>
      </trkpt>
      <trkpt lat="42.79133" lon="0.80079">
        <ele>2157.9</ele>
        <time>2018-11-24T09:46:57Z</time>
      </trkpt>
      <trkpt lat="42.79129" lon="0.80081">
        <ele>2159.9</ele>
        <time>2018-11-24T09:46:58Z</time>
      </trkpt>
      <trkpt lat="42.79126" lon="0.80082">
        <ele>2161.8</ele>
        <time>2018-11-24T09:47:00Z</time>
      </trkpt>
      <trkpt lat="42.79122" lon="0.80084">
        <ele>2164</ele>
        <time>2018-11-24T09:47:01Z</time>
      </trkpt>
      <trkpt lat="42.79119" lon="0.80084">
        <ele>2166.1</ele>
        <time>2018-11-24T09:47:03Z</time>
      </trkpt>
      <trkpt lat="42.79115" lon="0.80084">
        <ele>2168.5</ele>
        <time>2018-11-24T09:47:04Z</time>
      </trkpt>
      <trkpt lat="42.79112" lon="0.80084">
        <ele>2170.3</ele>
        <time>2018-11-24T09:47:05Z</time>
      </trkpt>
      <trkpt lat="42.79109" lon="0.80085">
        <ele>2172.7</ele>
        <time>2018-11-24T09:47:06Z</time>
      </trkpt>
      <trkpt lat="42.79106" lon="0.80085">
        <ele>2175</ele>
        <time>2018-11-24T09:47:08Z</time>
      </trkpt>
      <trkpt lat="42.79103" lon="0.80087">
        <ele>2177.4</ele>
        <time>2018-11-24T09:47:09Z</time>
      </trkpt>
      <trkpt lat="42.791" lon="0.80089">
        <ele>2179.9</ele>
        <time>2018-11-24T09:47:10Z</time>
      </trkpt>
      <trkpt lat="42.79098" lon="0.80092">
        <ele>2181.6</ele>
        <time>2018-11-24T09:47:12Z</time>
      </trkpt>
      <trkpt lat="42.79095" lon="0.80096">
        <ele>2183.6</ele>
        <time>2018-11-24T09:47:13Z</time>
      </trkpt>
      <trkpt lat="42.79093" lon="0.80099">
        <ele>2185.6</ele>
        <time>2018-11-24T09:47:14Z</time>
      </trkpt>
      <trkpt lat="42.79092" lon="0.80103">
        <ele>2186.5</ele>
        <time>2018-11-24T09:47:16Z</time>
      </trkpt>
      <trkpt lat="42.79091" lon="0.80108">
        <ele>2187.4</ele>
        <time>2018-11-24T09:47:17Z</time>
      </trkpt>
      <trkpt lat="42.7909" lon="0.80112">
        <ele>2188.4</ele>
        <time>2018-11-24T09:47:18Z</time>
      </trkpt>
      <trkpt lat="42.79089" lon="0.80117">
        <ele>2190.1</ele>
        <time>2018-11-24T09:47:20Z</time>
      </trkpt>
      <trkpt lat="42.79088" lon="0.80122">
        <ele>2191.5</ele>
        <time>2018-11-24T09:47:21Z</time>
      </trkpt>
      <trkpt lat="42.79086" lon="0.80126">
        <ele>2193.5</ele>
        <time>2018-11-24T09:47:23Z</time>
      </trkpt>
      <trkpt lat="42.79084" lon="0.8013">
        <ele>2195.2</ele>
        <time>2018-11-24T09:47:24Z</time>
      </trkpt>
      <trkpt lat="42.79081" lon="0.8013">
        <ele>2195.7</ele>
        <time>2018-11-24T09:47:26Z</time>
      </trkpt>
      <trkpt lat="42.79078" lon="0.8013">
        <ele>2195.7</ele>
        <time>2018-11-24T09:47:27Z</time>
      </trkpt>
      <trkpt lat="42.79075" lon="0.80131">
        <ele>2195.7</ele>
        <time>2018-11-24T09:47:28Z</time>
      </trkpt>
      <trkpt lat="42.79072" lon="0.80133">
        <ele>2195.2</ele>
        <time>2018-11-24T09:47:29Z</time>
      </trkpt>
      <trkpt lat="42.79069" lon="0.80136">
        <ele>2194.3</ele>
        <time>2018-11-24T09:47:31Z</time>
      </trkpt>
      <trkpt lat="42.79065" lon="0.80138">
        <ele>2193.1</ele>
        <time>2018-11-24T09:47:32Z</time>
      </trkpt>
      <trkpt lat="42.79062" lon="0.8014">
        <ele>2191.6</ele>
        <time>2018-11-24T09:47:34Z</time>
      </trkpt>
      <trkpt lat="42.79058" lon="0.80141">
        <ele>2190.4</ele>
        <time>2018-11-24T09:47:35Z</time>
      </trkpt>
      <trkpt lat="42.79054" lon="0.80141">
        <ele>2190.1</ele>
        <time>2018-11-24T09:47:37Z</time>
      </trkpt>
      <trkpt lat="42.7905" lon="0.80142">
        <ele>2190.8</ele>
        <time>2018-11-24T09:47:39Z</time>
      </trkpt>
      <trkpt lat="42.79046" lon="0.80142">
        <ele>2192.1</ele>
        <time>2018-11-24T09:47:40Z</time>
      </trkpt>
      <trkpt lat="42.79042" lon="0.80142">
        <ele>2193.2</ele>
        <time>2018-11-24T09:47:42Z</time>
      </trkpt>
      <trkpt lat="42.79038" lon="0.80142">
        <ele>2194.3</ele>
        <time>2018-11-24T09:47:43Z</time>
      </trkpt>
      <trkpt lat="42.79035" lon="0.80142">
        <ele>2195</ele>
        <time>2018-11-24T09:47:45Z</time>
      </trkpt>
      <trkpt lat="42.79032" lon="0.80143">
        <ele>2195.8</ele>
        <time>2018-11-24T09:47:46Z</time>
      </trkpt>
      <trkpt lat="42.79029" lon="0.80143">
        <ele>2196.4</ele>
        <time>2018-11-24T09:47:47Z</time>
      </trkpt>
      <trkpt lat="42.79025" lon="0.80144">
        <ele>2197.9</ele>
        <time>2018-11-24T09:47:49Z</time>
      </trkpt>
      <trkpt lat="42.79022" lon="0.80145">
        <ele>2199.6</ele>
        <time>2018-11-24T09:47:50Z</time>
      </trkpt>
      <trkpt lat="42.79018" lon="0.80146">
        <ele>2201.4</ele>
        <time>2018-11-24T09:47:52Z</time>
      </trkpt>
      <trkpt lat="42.79014" lon="0.80147">
        <ele>2203.1</ele>
        <time>2018-11-24T09:47:53Z</time>
      </trkpt>
      <trkpt lat="42.7901" lon="0.80149">
        <ele>2204.6</ele>
        <time>2018-11-24T09:47:55Z</time>
      </trkpt>
      <trkpt lat="42.79007" lon="0.8015">
        <ele>2205.9</ele>
        <time>2018-11-24T09:47:56Z</time>
      </trkpt>
      <trkpt lat="42.79003" lon="0.80152">
        <ele>2207.2</ele>
        <time>2018-11-24T09:47:58Z</time>
      </trkpt>
      <trkpt lat="42.78999" lon="0.80153">
        <ele>2208.5</ele>
        <time>2018-11-24T09:47:59Z</time>
      </trkpt>
      <trkpt lat="42.78995" lon="0.80153">
        <ele>2211.1</ele>
        <time>2018-11-24T09:48:01Z</time>
      </trkpt>
      <trkpt lat="42.78991" lon="0.80153">
        <ele>2214</ele>
        <time>2018-11-24T09:48:03Z</time>
      </trkpt>
      <trkpt lat="42.78986" lon="0.80153">
        <ele>2216.5</ele>
        <time>2018-11-24T09:48:05Z</time>
      </trkpt>
      <trkpt lat="42.78982" lon="0.80153">
        <ele>2219.3</ele>
        <time>2018-11-24T09:48:06Z</time>
      </trkpt>
      <trkpt lat="42.78979" lon="0.80153">
        <ele>2221.4</ele>
        <time>2018-11-24T09:48:08Z</time>
      </trkpt>
      <trkpt lat="42.78975" lon="0.80153">
        <ele>2223.6</ele>
        <time>2018-11-24T09:48:09Z</time>
      </trkpt>
      <trkpt lat="42.78972" lon="0.80152">
        <ele>2226.4</ele>
        <time>2018-11-24T09:48:10Z</time>
      </trkpt>
      <trkpt lat="42.78968" lon="0.80151">
        <ele>2229.7</ele>
        <time>2018-11-24T09:48:12Z</time>
      </trkpt>
      <trkpt lat="42.78964" lon="0.80152">
        <ele>2233</ele>
        <time>2018-11-24T09:48:14Z</time>
      </trkpt>
      <trkpt lat="42.78959" lon="0.80152">
        <ele>2236.3</ele>
        <time>2018-11-24T09:48:15Z</time>
      </trkpt>
      <trkpt lat="42.78955" lon="0.80153">
        <ele>2239.4</ele>
        <time>2018-11-24T09:48:17Z</time>
      </trkpt>
      <trkpt lat="42.78952" lon="0.80153">
        <ele>2241.9</ele>
        <time>2018-11-24T09:48:18Z</time>
      </trkpt>
      <trkpt lat="42.78949" lon="0.80152">
        <ele>2244.5</ele>
        <time>2018-11-24T09:48:20Z</time>
      </trkpt>
      <trkpt lat="42.78946" lon="0.80152">
        <ele>2247.2</ele>
        <time>2018-11-24T09:48:21Z</time>
      </trkpt>
      <trkpt lat="42.78943" lon="0.80154">
        <ele>2249.6</ele>
        <time>2018-11-24T09:48:22Z</time>
      </trkpt>
      <trkpt lat="42.78939" lon="0.80156">
        <ele>2252.7</ele>
        <time>2018-11-24T09:48:24Z</time>
      </trkpt>
      <trkpt lat="42.78936" lon="0.80158">
        <ele>2255.7</ele>
        <time>2018-11-24T09:48:25Z</time>
      </trkpt>
      <trkpt lat="42.78932" lon="0.80159">
        <ele>2259.9</ele>
        <time>2018-11-24T09:48:27Z</time>
      </trkpt>
      <trkpt lat="42.78931" lon="0.80164">
        <ele>2259.3</ele>
        <time>2018-11-24T09:48:28Z</time>
      </trkpt>
      <trkpt lat="42.78929" lon="0.80169">
        <ele>2258.6</ele>
        <time>2018-11-24T09:48:30Z</time>
      </trkpt>
      <trkpt lat="42.78927" lon="0.80172">
        <ele>2259.6</ele>
        <time>2018-11-24T09:48:31Z</time>
      </trkpt>
      <trkpt lat="42.78924" lon="0.80175">
        <ele>2260.4</ele>
        <time>2018-11-24T09:48:33Z</time>
      </trkpt>
      <trkpt lat="42.7892" lon="0.80173">
        <ele>2266</ele>
        <time>2018-11-24T09:48:34Z</time>
      </trkpt>
      <trkpt lat="42.78916" lon="0.80171">
        <ele>2271.2</ele>
        <time>2018-11-24T09:48:36Z</time>
      </trkpt>
      <trkpt lat="42.78913" lon="0.80171">
        <ele>2272.6</ele>
        <time>2018-11-24T09:48:37Z</time>
      </trkpt>
      <trkpt lat="42.78909" lon="0.8017">
        <ele>2273.9</ele>
        <time>2018-11-24T09:48:39Z</time>
      </trkpt>
      <trkpt lat="42.78906" lon="0.80173">
        <ele>2273.4</ele>
        <time>2018-11-24T09:48:40Z</time>
      </trkpt>
      <trkpt lat="42.78903" lon="0.80175">
        <ele>2273.1</ele>
        <time>2018-11-24T09:48:42Z</time>
      </trkpt>
      <trkpt lat="42.789" lon="0.80178">
        <ele>2272.9</ele>
        <time>2018-11-24T09:48:43Z</time>
      </trkpt>
      <trkpt lat="42.78897" lon="0.8018">
        <ele>2273</ele>
        <time>2018-11-24T09:48:44Z</time>
      </trkpt>
      <trkpt lat="42.78894" lon="0.80183">
        <ele>2273.4</ele>
        <time>2018-11-24T09:48:46Z</time>
      </trkpt>
      <trkpt lat="42.7889" lon="0.80185">
        <ele>2273.9</ele>
        <time>2018-11-24T09:48:48Z</time>
      </trkpt>
      <trkpt lat="42.78887" lon="0.80188">
        <ele>2274.4</ele>
        <time>2018-11-24T09:48:49Z</time>
      </trkpt>
      <trkpt lat="42.78883" lon="0.8019">
        <ele>2274.9</ele>
        <time>2018-11-24T09:48:51Z</time>
      </trkpt>
      <trkpt lat="42.7888" lon="0.80192">
        <ele>2275.4</ele>
        <time>2018-11-24T09:48:52Z</time>
      </trkpt>
      <trkpt lat="42.78877" lon="0.80193">
        <ele>2276.1</ele>
        <time>2018-11-24T09:48:53Z</time>
      </trkpt>
      <trkpt lat="42.78874" lon="0.80195">
        <ele>2277</ele>
        <time>2018-11-24T09:48:55Z</time>
      </trkpt>
      <trkpt lat="42.7887" lon="0.80195">
        <ele>2278.5</ele>
        <time>2018-11-24T09:48:56Z</time>
      </trkpt>
      <trkpt lat="42.78867" lon="0.80196">
        <ele>2280</ele>
        <time>2018-11-24T09:48:58Z</time>
      </trkpt>
      <trkpt lat="42.78863" lon="0.80196">
        <ele>2281.4</ele>
        <time>2018-11-24T09:48:59Z</time>
      </trkpt>
      <trkpt lat="42.7886" lon="0.80196">
        <ele>2282.3</ele>
        <time>2018-11-24T09:49:00Z</time>
      </trkpt>
      <trkpt lat="42.78856" lon="0.80196">
        <ele>2282.2</ele>
        <time>2018-11-24T09:49:02Z</time>
      </trkpt>
      <trkpt lat="42.78853" lon="0.80196">
        <ele>2282.4</ele>
        <time>2018-11-24T09:49:03Z</time>
      </trkpt>
      <trkpt lat="42.7885" lon="0.80195">
        <ele>2282.1</ele>
        <time>2018-11-24T09:49:04Z</time>
      </trkpt>
      <trkpt lat="42.78846" lon="0.80194">
        <ele>2282.1</ele>
        <time>2018-11-24T09:49:06Z</time>
      </trkpt>
      <trkpt lat="42.78843" lon="0.80193">
        <ele>2282.5</ele>
        <time>2018-11-24T09:49:07Z</time>
      </trkpt>
      <trkpt lat="42.78842" lon="0.80189">
        <ele>2283.5</ele>
        <time>2018-11-24T09:49:09Z</time>
      </trkpt>
      <trkpt lat="42.7884" lon="0.80184">
        <ele>2284.6</ele>
        <time>2018-11-24T09:49:10Z</time>
      </trkpt>
      <trkpt lat="42.78839" lon="0.8018">
        <ele>2285.7</ele>
        <time>2018-11-24T09:49:11Z</time>
      </trkpt>
      <trkpt lat="42.78838" lon="0.80176">
        <ele>2286.8</ele>
        <time>2018-11-24T09:49:13Z</time>
      </trkpt>
      <trkpt lat="42.78837" lon="0.80172">
        <ele>2287.8</ele>
        <time>2018-11-24T09:49:14Z</time>
      </trkpt>
      <trkpt lat="42.78836" lon="0.80168">
        <ele>2288.8</ele>
        <time>2018-11-24T09:49:15Z</time>
      </trkpt>
      <trkpt lat="42.78835" lon="0.80163">
        <ele>2291.4</ele>
        <time>2018-11-24T09:49:16Z</time>
      </trkpt>
      <trkpt lat="42.78835" lon="0.80159">
        <ele>2294.8</ele>
        <time>2018-11-24T09:49:18Z</time>
      </trkpt>
      <trkpt lat="42.78834" lon="0.80154">
        <ele>2298.2</ele>
        <time>2018-11-24T09:49:19Z</time>
      </trkpt>
      <trkpt lat="42.78834" lon="0.80148">
        <ele>2302.5</ele>
        <time>2018-11-24T09:49:21Z</time>
      </trkpt>
      <trkpt lat="42.78834" lon="0.80142">
        <ele>2306.6</ele>
        <time>2018-11-24T09:49:23Z</time>
      </trkpt>
      <trkpt lat="42.78834" lon="0.80136">
        <ele>2309.3</ele>
        <time>2018-11-24T09:49:25Z</time>
      </trkpt>
      <trkpt lat="42.78834" lon="0.80131">
        <ele>2309.8</ele>
        <time>2018-11-24T09:49:26Z</time>
      </trkpt>
      <trkpt lat="42.78835" lon="0.80125">
        <ele>2310.4</ele>
        <time>2018-11-24T09:49:28Z</time>
      </trkpt>
      <trkpt lat="42.78835" lon="0.8012">
        <ele>2311.1</ele>
        <time>2018-11-24T09:49:29Z</time>
      </trkpt>
      <trkpt lat="42.78836" lon="0.80114">
        <ele>2312</ele>
        <time>2018-11-24T09:49:31Z</time>
      </trkpt>
      <trkpt lat="42.78836" lon="0.80108">
        <ele>2312.2</ele>
        <time>2018-11-24T09:49:33Z</time>
      </trkpt>
      <trkpt lat="42.78838" lon="0.80103">
        <ele>2312.1</ele>
        <time>2018-11-24T09:49:35Z</time>
      </trkpt>
      <trkpt lat="42.78839" lon="0.80097">
        <ele>2312.7</ele>
        <time>2018-11-24T09:49:36Z</time>
      </trkpt>
      <trkpt lat="42.7884" lon="0.80092">
        <ele>2313.2</ele>
        <time>2018-11-24T09:49:38Z</time>
      </trkpt>
      <trkpt lat="42.78842" lon="0.80088">
        <ele>2314.7</ele>
        <time>2018-11-24T09:49:39Z</time>
      </trkpt>
      <trkpt lat="42.78844" lon="0.80084">
        <ele>2316.6</ele>
        <time>2018-11-24T09:49:41Z</time>
      </trkpt>
      <trkpt lat="42.78846" lon="0.8008">
        <ele>2319.7</ele>
        <time>2018-11-24T09:49:42Z</time>
      </trkpt>
      <trkpt lat="42.78847" lon="0.80076">
        <ele>2322</ele>
        <time>2018-11-24T09:49:43Z</time>
      </trkpt>
      <trkpt lat="42.78848" lon="0.80072">
        <ele>2324.4</ele>
        <time>2018-11-24T09:49:44Z</time>
      </trkpt>
      <trkpt lat="42.78849" lon="0.80068">
        <ele>2326.7</ele>
        <time>2018-11-24T09:49:46Z</time>
      </trkpt>
      <trkpt lat="42.78849" lon="0.80064">
        <ele>2328.5</ele>
        <time>2018-11-24T09:49:47Z</time>
      </trkpt>
      <trkpt lat="42.7885" lon="0.80059">
        <ele>2330.6</ele>
        <time>2018-11-24T09:49:48Z</time>
      </trkpt>
      <trkpt lat="42.7885" lon="0.80055">
        <ele>2332.4</ele>
        <time>2018-11-24T09:49:50Z</time>
      </trkpt>
      <trkpt lat="42.78851" lon="0.8005">
        <ele>2333.9</ele>
        <time>2018-11-24T09:49:51Z</time>
      </trkpt>
      <trkpt lat="42.78852" lon="0.80046">
        <ele>2335.4</ele>
        <time>2018-11-24T09:49:52Z</time>
      </trkpt>
      <trkpt lat="42.78853" lon="0.80041">
        <ele>2337.1</ele>
        <time>2018-11-24T09:49:54Z</time>
      </trkpt>
      <trkpt lat="42.78854" lon="0.80036">
        <ele>2338.7</ele>
        <time>2018-11-24T09:49:55Z</time>
      </trkpt>
      <trkpt lat="42.78855" lon="0.80031">
        <ele>2340</ele>
        <time>2018-11-24T09:49:57Z</time>
      </trkpt>
      <trkpt lat="42.78855" lon="0.80025">
        <ele>2340.7</ele>
        <time>2018-11-24T09:49:59Z</time>
      </trkpt>
      <trkpt lat="42.78856" lon="0.8002">
        <ele>2342</ele>
        <time>2018-11-24T09:50:00Z</time>
      </trkpt>
      <trkpt lat="42.78858" lon="0.80015">
        <ele>2343.6</ele>
        <time>2018-11-24T09:50:02Z</time>
      </trkpt>
      <trkpt lat="42.78859" lon="0.8001">
        <ele>2345.1</ele>
        <time>2018-11-24T09:50:03Z</time>
      </trkpt>
      <trkpt lat="42.7886" lon="0.80004">
        <ele>2345.9</ele>
        <time>2018-11-24T09:50:05Z</time>
      </trkpt>
      <trkpt lat="42.7886" lon="0.79998">
        <ele>2346.4</ele>
        <time>2018-11-24T09:50:07Z</time>
      </trkpt>
      <trkpt lat="42.78861" lon="0.79992">
        <ele>2345.8</ele>
        <time>2018-11-24T09:50:09Z</time>
      </trkpt>
      <trkpt lat="42.78861" lon="0.79987">
        <ele>2344.5</ele>
        <time>2018-11-24T09:50:10Z</time>
      </trkpt>
      <trkpt lat="42.78861" lon="0.79982">
        <ele>2343.4</ele>
        <time>2018-11-24T09:50:12Z</time>
      </trkpt>
      <trkpt lat="42.78861" lon="0.79977">
        <ele>2342.1</ele>
        <time>2018-11-24T09:50:13Z</time>
      </trkpt>
      <trkpt lat="42.78861" lon="0.79971">
        <ele>2340.6</ele>
        <time>2018-11-24T09:50:15Z</time>
      </trkpt>
      <trkpt lat="42.78861" lon="0.79966">
        <ele>2339.3</ele>
        <time>2018-11-24T09:50:16Z</time>
      </trkpt>
      <trkpt lat="42.78861" lon="0.7996">
        <ele>2337.8</ele>
        <time>2018-11-24T09:50:18Z</time>
      </trkpt>
      <trkpt lat="42.78861" lon="0.79955">
        <ele>2336.6</ele>
        <time>2018-11-24T09:50:20Z</time>
      </trkpt>
      <trkpt lat="42.78861" lon="0.7995">
        <ele>2335.3</ele>
        <time>2018-11-24T09:50:21Z</time>
      </trkpt>
      <trkpt lat="42.78861" lon="0.79945">
        <ele>2334</ele>
        <time>2018-11-24T09:50:22Z</time>
      </trkpt>
      <trkpt lat="42.78861" lon="0.79939">
        <ele>2331.8</ele>
        <time>2018-11-24T09:50:24Z</time>
      </trkpt>
      <trkpt lat="42.78861" lon="0.79934">
        <ele>2329.6</ele>
        <time>2018-11-24T09:50:26Z</time>
      </trkpt>
      <trkpt lat="42.78861" lon="0.79928">
        <ele>2327.3</ele>
        <time>2018-11-24T09:50:28Z</time>
      </trkpt>
      <trkpt lat="42.78861" lon="0.79922">
        <ele>2325</ele>
        <time>2018-11-24T09:50:29Z</time>
      </trkpt>
      <trkpt lat="42.7886" lon="0.79918">
        <ele>2322.6</ele>
        <time>2018-11-24T09:50:31Z</time>
      </trkpt>
      <trkpt lat="42.7886" lon="0.79913">
        <ele>2319.8</ele>
        <time>2018-11-24T09:50:32Z</time>
      </trkpt>
      <trkpt lat="42.78859" lon="0.79909">
        <ele>2317.1</ele>
        <time>2018-11-24T09:50:33Z</time>
      </trkpt>
      <trkpt lat="42.78859" lon="0.79903">
        <ele>2314.1</ele>
        <time>2018-11-24T09:50:35Z</time>
      </trkpt>
      <trkpt lat="42.78858" lon="0.79897">
        <ele>2310.9</ele>
        <time>2018-11-24T09:50:37Z</time>
      </trkpt>
      <trkpt lat="42.78858" lon="0.79891">
        <ele>2308</ele>
        <time>2018-11-24T09:50:38Z</time>
      </trkpt>
      <trkpt lat="42.78857" lon="0.79886">
        <ele>2305</ele>
        <time>2018-11-24T09:50:40Z</time>
      </trkpt>
      <trkpt lat="42.78857" lon="0.7988">
        <ele>2302.3</ele>
        <time>2018-11-24T09:50:42Z</time>
      </trkpt>
      <trkpt lat="42.78856" lon="0.79875">
        <ele>2299.8</ele>
        <time>2018-11-24T09:50:43Z</time>
      </trkpt>
      <trkpt lat="42.78855" lon="0.79869">
        <ele>2297.5</ele>
        <time>2018-11-24T09:50:45Z</time>
      </trkpt>
      <trkpt lat="42.78855" lon="0.79864">
        <ele>2295.5</ele>
        <time>2018-11-24T09:50:47Z</time>
      </trkpt>
      <trkpt lat="42.78855" lon="0.79858">
        <ele>2293.7</ele>
        <time>2018-11-24T09:50:48Z</time>
      </trkpt>
      <trkpt lat="42.78855" lon="0.79853">
        <ele>2292</ele>
        <time>2018-11-24T09:50:50Z</time>
      </trkpt>
      <trkpt lat="42.78855" lon="0.79847">
        <ele>2290.1</ele>
        <time>2018-11-24T09:50:51Z</time>
      </trkpt>
      <trkpt lat="42.78855" lon="0.79842">
        <ele>2288.4</ele>
        <time>2018-11-24T09:50:53Z</time>
      </trkpt>
      <trkpt lat="42.78855" lon="0.79836">
        <ele>2286.1</ele>
        <time>2018-11-24T09:50:55Z</time>
      </trkpt>
      <trkpt lat="42.78854" lon="0.7983">
        <ele>2284.3</ele>
        <time>2018-11-24T09:50:56Z</time>
      </trkpt>
      <trkpt lat="42.78854" lon="0.79824">
        <ele>2282.6</ele>
        <time>2018-11-24T09:50:58Z</time>
      </trkpt>
      <trkpt lat="42.78853" lon="0.79818">
        <ele>2280.9</ele>
        <time>2018-11-24T09:51:00Z</time>
      </trkpt>
      <trkpt lat="42.78853" lon="0.79812">
        <ele>2279.4</ele>
        <time>2018-11-24T09:51:02Z</time>
      </trkpt>
      <trkpt lat="42.78852" lon="0.79806">
        <ele>2277.8</ele>
        <time>2018-11-24T09:51:04Z</time>
      </trkpt>
      <trkpt lat="42.78852" lon="0.798">
        <ele>2276.1</ele>
        <time>2018-11-24T09:51:05Z</time>
      </trkpt>
      <trkpt lat="42.78851" lon="0.79794">
        <ele>2274.4</ele>
        <time>2018-11-24T09:51:07Z</time>
      </trkpt>
      <trkpt lat="42.7885" lon="0.79788">
        <ele>2273</ele>
        <time>2018-11-24T09:51:09Z</time>
      </trkpt>
      <trkpt lat="42.78849" lon="0.79783">
        <ele>2271.5</ele>
        <time>2018-11-24T09:51:11Z</time>
      </trkpt>
      <trkpt lat="42.78847" lon="0.79777">
        <ele>2270.2</ele>
        <time>2018-11-24T09:51:12Z</time>
      </trkpt>
      <trkpt lat="42.78846" lon="0.79771">
        <ele>2269</ele>
        <time>2018-11-24T09:51:14Z</time>
      </trkpt>
      <trkpt lat="42.78845" lon="0.79766">
        <ele>2267.7</ele>
        <time>2018-11-24T09:51:16Z</time>
      </trkpt>
      <trkpt lat="42.78844" lon="0.79761">
        <ele>2266.6</ele>
        <time>2018-11-24T09:51:17Z</time>
      </trkpt>
      <trkpt lat="42.78844" lon="0.79755">
        <ele>2265.5</ele>
        <time>2018-11-24T09:51:19Z</time>
      </trkpt>
      <trkpt lat="42.78843" lon="0.7975">
        <ele>2264.4</ele>
        <time>2018-11-24T09:51:20Z</time>
      </trkpt>
      <trkpt lat="42.78842" lon="0.79745">
        <ele>2263.4</ele>
        <time>2018-11-24T09:51:22Z</time>
      </trkpt>
      <trkpt lat="42.7884" lon="0.7974">
        <ele>2263</ele>
        <time>2018-11-24T09:51:24Z</time>
      </trkpt>
      <trkpt lat="42.78837" lon="0.79735">
        <ele>2262.8</ele>
        <time>2018-11-24T09:51:25Z</time>
      </trkpt>
      <trkpt lat="42.78835" lon="0.7973">
        <ele>2262.8</ele>
        <time>2018-11-24T09:51:27Z</time>
      </trkpt>
      <trkpt lat="42.78835" lon="0.79725">
        <ele>2261.9</ele>
        <time>2018-11-24T09:51:29Z</time>
      </trkpt>
      <trkpt lat="42.78834" lon="0.79719">
        <ele>2261.6</ele>
        <time>2018-11-24T09:51:30Z</time>
      </trkpt>
      <trkpt lat="42.78834" lon="0.79714">
        <ele>2261.5</ele>
        <time>2018-11-24T09:51:32Z</time>
      </trkpt>
      <trkpt lat="42.78834" lon="0.79709">
        <ele>2261.3</ele>
        <time>2018-11-24T09:51:34Z</time>
      </trkpt>
      <trkpt lat="42.78834" lon="0.79704">
        <ele>2261.1</ele>
        <time>2018-11-24T09:51:35Z</time>
      </trkpt>
      <trkpt lat="42.78834" lon="0.79698">
        <ele>2261.1</ele>
        <time>2018-11-24T09:51:37Z</time>
      </trkpt>
      <trkpt lat="42.78834" lon="0.79693">
        <ele>2261</ele>
        <time>2018-11-24T09:51:38Z</time>
      </trkpt>
      <trkpt lat="42.78834" lon="0.79687">
        <ele>2261.3</ele>
        <time>2018-11-24T09:51:40Z</time>
      </trkpt>
      <trkpt lat="42.78834" lon="0.79682">
        <ele>2261.4</ele>
        <time>2018-11-24T09:51:41Z</time>
      </trkpt>
      <trkpt lat="42.78833" lon="0.79676">
        <ele>2261.6</ele>
        <time>2018-11-24T09:51:43Z</time>
      </trkpt>
      <trkpt lat="42.78833" lon="0.7967">
        <ele>2261.8</ele>
        <time>2018-11-24T09:51:45Z</time>
      </trkpt>
      <trkpt lat="42.78831" lon="0.79666">
        <ele>2260.8</ele>
        <time>2018-11-24T09:51:46Z</time>
      </trkpt>
      <trkpt lat="42.7883" lon="0.79661">
        <ele>2260.2</ele>
        <time>2018-11-24T09:51:48Z</time>
      </trkpt>
      <trkpt lat="42.78828" lon="0.79657">
        <ele>2259.5</ele>
        <time>2018-11-24T09:51:49Z</time>
      </trkpt>
      <trkpt lat="42.78828" lon="0.79651">
        <ele>2260</ele>
        <time>2018-11-24T09:51:51Z</time>
      </trkpt>
      <trkpt lat="42.78828" lon="0.79645">
        <ele>2260.4</ele>
        <time>2018-11-24T09:51:53Z</time>
      </trkpt>
      <trkpt lat="42.78827" lon="0.7964">
        <ele>2260.9</ele>
        <time>2018-11-24T09:51:54Z</time>
      </trkpt>
      <trkpt lat="42.78827" lon="0.79634">
        <ele>2261.6</ele>
        <time>2018-11-24T09:51:56Z</time>
      </trkpt>
      <trkpt lat="42.78827" lon="0.79628">
        <ele>2262.3</ele>
        <time>2018-11-24T09:51:58Z</time>
      </trkpt>
      <trkpt lat="42.78827" lon="0.79623">
        <ele>2262.8</ele>
        <time>2018-11-24T09:51:59Z</time>
      </trkpt>
      <trkpt lat="42.78826" lon="0.79618">
        <ele>2263.2</ele>
        <time>2018-11-24T09:52:01Z</time>
      </trkpt>
      <trkpt lat="42.78826" lon="0.79612">
        <ele>2263.7</ele>
        <time>2018-11-24T09:52:02Z</time>
      </trkpt>
      <trkpt lat="42.78825" lon="0.79607">
        <ele>2263.9</ele>
        <time>2018-11-24T09:52:04Z</time>
      </trkpt>
      <trkpt lat="42.78825" lon="0.79602">
        <ele>2264.3</ele>
        <time>2018-11-24T09:52:06Z</time>
      </trkpt>
      <trkpt lat="42.78825" lon="0.79596">
        <ele>2264.7</ele>
        <time>2018-11-24T09:52:07Z</time>
      </trkpt>
      <trkpt lat="42.78825" lon="0.79591">
        <ele>2265</ele>
        <time>2018-11-24T09:52:09Z</time>
      </trkpt>
      <trkpt lat="42.78825" lon="0.79586">
        <ele>2265.3</ele>
        <time>2018-11-24T09:52:10Z</time>
      </trkpt>
      <trkpt lat="42.78825" lon="0.7958">
        <ele>2265.2</ele>
        <time>2018-11-24T09:52:12Z</time>
      </trkpt>
      <trkpt lat="42.78825" lon="0.79575">
        <ele>2264.8</ele>
        <time>2018-11-24T09:52:13Z</time>
      </trkpt>
      <trkpt lat="42.78825" lon="0.7957">
        <ele>2264.7</ele>
        <time>2018-11-24T09:52:15Z</time>
      </trkpt>
      <trkpt lat="42.78825" lon="0.79565">
        <ele>2264.3</ele>
        <time>2018-11-24T09:52:16Z</time>
      </trkpt>
      <trkpt lat="42.78825" lon="0.79559">
        <ele>2264.1</ele>
        <time>2018-11-24T09:52:18Z</time>
      </trkpt>
      <trkpt lat="42.78825" lon="0.79554">
        <ele>2263.7</ele>
        <time>2018-11-24T09:52:19Z</time>
      </trkpt>
      <trkpt lat="42.78825" lon="0.79549">
        <ele>2263.2</ele>
        <time>2018-11-24T09:52:21Z</time>
      </trkpt>
      <trkpt lat="42.78826" lon="0.79543">
        <ele>2262.8</ele>
        <time>2018-11-24T09:52:23Z</time>
      </trkpt>
      <trkpt lat="42.78826" lon="0.79538">
        <ele>2262.2</ele>
        <time>2018-11-24T09:52:24Z</time>
      </trkpt>
      <trkpt lat="42.78827" lon="0.79532">
        <ele>2261.8</ele>
        <time>2018-11-24T09:52:26Z</time>
      </trkpt>
      <trkpt lat="42.78827" lon="0.79527">
        <ele>2261.4</ele>
        <time>2018-11-24T09:52:28Z</time>
      </trkpt>
      <trkpt lat="42.78827" lon="0.79522">
        <ele>2261.5</ele>
        <time>2018-11-24T09:52:29Z</time>
      </trkpt>
      <trkpt lat="42.78827" lon="0.79516">
        <ele>2261.6</ele>
        <time>2018-11-24T09:52:31Z</time>
      </trkpt>
      <trkpt lat="42.78827" lon="0.79511">
        <ele>2261.9</ele>
        <time>2018-11-24T09:52:32Z</time>
      </trkpt>
      <trkpt lat="42.78827" lon="0.79506">
        <ele>2262</ele>
        <time>2018-11-24T09:52:34Z</time>
      </trkpt>
      <trkpt lat="42.78828" lon="0.79501">
        <ele>2262.3</ele>
        <time>2018-11-24T09:52:35Z</time>
      </trkpt>
      <trkpt lat="42.78829" lon="0.79497">
        <ele>2263.1</ele>
        <time>2018-11-24T09:52:37Z</time>
      </trkpt>
      <trkpt lat="42.78829" lon="0.79492">
        <ele>2264.1</ele>
        <time>2018-11-24T09:52:38Z</time>
      </trkpt>
      <trkpt lat="42.7883" lon="0.79487">
        <ele>2265.3</ele>
        <time>2018-11-24T09:52:39Z</time>
      </trkpt>
      <trkpt lat="42.78828" lon="0.79482">
        <ele>2265.9</ele>
        <time>2018-11-24T09:52:41Z</time>
      </trkpt>
      <trkpt lat="42.78826" lon="0.79477">
        <ele>2266</ele>
        <time>2018-11-24T09:52:43Z</time>
      </trkpt>
      <trkpt lat="42.78824" lon="0.79472">
        <ele>2266.1</ele>
        <time>2018-11-24T09:52:44Z</time>
      </trkpt>
      <trkpt lat="42.78825" lon="0.79467">
        <ele>2268.2</ele>
        <time>2018-11-24T09:52:46Z</time>
      </trkpt>
      <trkpt lat="42.78826" lon="0.79462">
        <ele>2270.2</ele>
        <time>2018-11-24T09:52:47Z</time>
      </trkpt>
      <trkpt lat="42.78826" lon="0.79457">
        <ele>2272.4</ele>
        <time>2018-11-24T09:52:49Z</time>
      </trkpt>
      <trkpt lat="42.78827" lon="0.79452">
        <ele>2274.6</ele>
        <time>2018-11-24T09:52:50Z</time>
      </trkpt>
      <trkpt lat="42.78828" lon="0.79447">
        <ele>2277</ele>
        <time>2018-11-24T09:52:52Z</time>
      </trkpt>
      <trkpt lat="42.78828" lon="0.79441">
        <ele>2279.1</ele>
        <time>2018-11-24T09:52:54Z</time>
      </trkpt>
      <trkpt lat="42.78828" lon="0.79436">
        <ele>2281.2</ele>
        <time>2018-11-24T09:52:55Z</time>
      </trkpt>
      <trkpt lat="42.78828" lon="0.7943">
        <ele>2283.4</ele>
        <time>2018-11-24T09:52:57Z</time>
      </trkpt>
      <trkpt lat="42.78829" lon="0.79425">
        <ele>2285.9</ele>
        <time>2018-11-24T09:52:59Z</time>
      </trkpt>
      <trkpt lat="42.78829" lon="0.79419">
        <ele>2288.4</ele>
        <time>2018-11-24T09:53:00Z</time>
      </trkpt>
      <trkpt lat="42.78831" lon="0.79415">
        <ele>2291.4</ele>
        <time>2018-11-24T09:53:02Z</time>
      </trkpt>
      <trkpt lat="42.78833" lon="0.7941">
        <ele>2293.9</ele>
        <time>2018-11-24T09:53:03Z</time>
      </trkpt>
      <trkpt lat="42.78834" lon="0.79406">
        <ele>2295</ele>
        <time>2018-11-24T09:53:05Z</time>
      </trkpt>
      <trkpt lat="42.78836" lon="0.79401">
        <ele>2295.3</ele>
        <time>2018-11-24T09:53:06Z</time>
      </trkpt>
      <trkpt lat="42.78836" lon="0.79396">
        <ele>2296.4</ele>
        <time>2018-11-24T09:53:08Z</time>
      </trkpt>
      <trkpt lat="42.78835" lon="0.79391">
        <ele>2297.8</ele>
        <time>2018-11-24T09:53:09Z</time>
      </trkpt>
      <trkpt lat="42.78835" lon="0.79386">
        <ele>2298.6</ele>
        <time>2018-11-24T09:53:11Z</time>
      </trkpt>
      <trkpt lat="42.78837" lon="0.79382">
        <ele>2298.6</ele>
        <time>2018-11-24T09:53:12Z</time>
      </trkpt>
      <trkpt lat="42.78838" lon="0.79377">
        <ele>2298.4</ele>
        <time>2018-11-24T09:53:13Z</time>
      </trkpt>
      <trkpt lat="42.7884" lon="0.79373">
        <ele>2298.4</ele>
        <time>2018-11-24T09:53:15Z</time>
      </trkpt>
      <trkpt lat="42.78841" lon="0.79368">
        <ele>2298.4</ele>
        <time>2018-11-24T09:53:16Z</time>
      </trkpt>
      <trkpt lat="42.78842" lon="0.79363">
        <ele>2298.7</ele>
        <time>2018-11-24T09:53:18Z</time>
      </trkpt>
      <trkpt lat="42.78843" lon="0.79358">
        <ele>2299</ele>
        <time>2018-11-24T09:53:19Z</time>
      </trkpt>
      <trkpt lat="42.78844" lon="0.79353">
        <ele>2299.2</ele>
        <time>2018-11-24T09:53:21Z</time>
      </trkpt>
      <trkpt lat="42.78846" lon="0.79349">
        <ele>2299</ele>
        <time>2018-11-24T09:53:22Z</time>
      </trkpt>
      <trkpt lat="42.78848" lon="0.79346">
        <ele>2298.7</ele>
        <time>2018-11-24T09:53:24Z</time>
      </trkpt>
      <trkpt lat="42.7885" lon="0.79342">
        <ele>2298.6</ele>
        <time>2018-11-24T09:53:25Z</time>
      </trkpt>
      <trkpt lat="42.7885" lon="0.79337">
        <ele>2299.2</ele>
        <time>2018-11-24T09:53:26Z</time>
      </trkpt>
      <trkpt lat="42.7885" lon="0.79332">
        <ele>2299.8</ele>
        <time>2018-11-24T09:53:28Z</time>
      </trkpt>
      <trkpt lat="42.7885" lon="0.79327">
        <ele>2299.9</ele>
        <time>2018-11-24T09:53:29Z</time>
      </trkpt>
      <trkpt lat="42.78851" lon="0.79322">
        <ele>2300</ele>
        <time>2018-11-24T09:53:31Z</time>
      </trkpt>
      <trkpt lat="42.78852" lon="0.79317">
        <ele>2299.9</ele>
        <time>2018-11-24T09:53:32Z</time>
      </trkpt>
      <trkpt lat="42.78852" lon="0.79312">
        <ele>2299.9</ele>
        <time>2018-11-24T09:53:34Z</time>
      </trkpt>
      <trkpt lat="42.78853" lon="0.79307">
        <ele>2300</ele>
        <time>2018-11-24T09:53:35Z</time>
      </trkpt>
      <trkpt lat="42.78853" lon="0.79302">
        <ele>2299.6</ele>
        <time>2018-11-24T09:53:37Z</time>
      </trkpt>
      <trkpt lat="42.78853" lon="0.79296">
        <ele>2299</ele>
        <time>2018-11-24T09:53:39Z</time>
      </trkpt>
      <trkpt lat="42.78853" lon="0.79291">
        <ele>2298.3</ele>
        <time>2018-11-24T09:53:40Z</time>
      </trkpt>
      <trkpt lat="42.78851" lon="0.79287">
        <ele>2298.4</ele>
        <time>2018-11-24T09:53:41Z</time>
      </trkpt>
      <trkpt lat="42.7885" lon="0.79283">
        <ele>2298.2</ele>
        <time>2018-11-24T09:53:43Z</time>
      </trkpt>
      <trkpt lat="42.78848" lon="0.79279">
        <ele>2298.1</ele>
        <time>2018-11-24T09:53:44Z</time>
      </trkpt>
      <trkpt lat="42.78846" lon="0.79275">
        <ele>2297.6</ele>
        <time>2018-11-24T09:53:46Z</time>
      </trkpt>
      <trkpt lat="42.78845" lon="0.7927">
        <ele>2296.2</ele>
        <time>2018-11-24T09:53:47Z</time>
      </trkpt>
      <trkpt lat="42.78843" lon="0.79264">
        <ele>2294.9</ele>
        <time>2018-11-24T09:53:49Z</time>
      </trkpt>
      <trkpt lat="42.78844" lon="0.79259">
        <ele>2293.3</ele>
        <time>2018-11-24T09:53:50Z</time>
      </trkpt>
      <trkpt lat="42.78844" lon="0.79255">
        <ele>2291.8</ele>
        <time>2018-11-24T09:53:52Z</time>
      </trkpt>
      <trkpt lat="42.78845" lon="0.7925">
        <ele>2290.4</ele>
        <time>2018-11-24T09:53:53Z</time>
      </trkpt>
      <trkpt lat="42.78846" lon="0.79245">
        <ele>2287.7</ele>
        <time>2018-11-24T09:53:55Z</time>
      </trkpt>
      <trkpt lat="42.78847" lon="0.79239">
        <ele>2285.2</ele>
        <time>2018-11-24T09:53:57Z</time>
      </trkpt>
      <trkpt lat="42.78849" lon="0.79234">
        <ele>2282.7</ele>
        <time>2018-11-24T09:53:58Z</time>
      </trkpt>
      <trkpt lat="42.7885" lon="0.79228">
        <ele>2280.4</ele>
        <time>2018-11-24T09:54:00Z</time>
      </trkpt>
      <trkpt lat="42.78851" lon="0.79223">
        <ele>2278.3</ele>
        <time>2018-11-24T09:54:01Z</time>
      </trkpt>
      <trkpt lat="42.78852" lon="0.79218">
        <ele>2276.5</ele>
        <time>2018-11-24T09:54:03Z</time>
      </trkpt>
      <trkpt lat="42.78853" lon="0.79213">
        <ele>2274.8</ele>
        <time>2018-11-24T09:54:05Z</time>
      </trkpt>
      <trkpt lat="42.78854" lon="0.79208">
        <ele>2273.1</ele>
        <time>2018-11-24T09:54:06Z</time>
      </trkpt>
      <trkpt lat="42.78854" lon="0.79203">
        <ele>2271.1</ele>
        <time>2018-11-24T09:54:08Z</time>
      </trkpt>
      <trkpt lat="42.78854" lon="0.79198">
        <ele>2269.3</ele>
        <time>2018-11-24T09:54:09Z</time>
      </trkpt>
      <trkpt lat="42.78854" lon="0.79193">
        <ele>2267.3</ele>
        <time>2018-11-24T09:54:10Z</time>
      </trkpt>
      <trkpt lat="42.78855" lon="0.79189">
        <ele>2265.5</ele>
        <time>2018-11-24T09:54:12Z</time>
      </trkpt>
      <trkpt lat="42.78856" lon="0.79184">
        <ele>2263.8</ele>
        <time>2018-11-24T09:54:13Z</time>
      </trkpt>
      <trkpt lat="42.78855" lon="0.79179">
        <ele>2260.9</ele>
        <time>2018-11-24T09:54:15Z</time>
      </trkpt>
      <trkpt lat="42.78854" lon="0.79173">
        <ele>2257.8</ele>
        <time>2018-11-24T09:54:17Z</time>
      </trkpt>
      <trkpt lat="42.78854" lon="0.79168">
        <ele>2254.8</ele>
        <time>2018-11-24T09:54:18Z</time>
      </trkpt>
      <trkpt lat="42.78853" lon="0.79162">
        <ele>2252.9</ele>
        <time>2018-11-24T09:54:20Z</time>
      </trkpt>
      <trkpt lat="42.78853" lon="0.79157">
        <ele>2251.7</ele>
        <time>2018-11-24T09:54:21Z</time>
      </trkpt>
      <trkpt lat="42.78853" lon="0.79153">
        <ele>2250.4</ele>
        <time>2018-11-24T09:54:23Z</time>
      </trkpt>
      <trkpt lat="42.78852" lon="0.79148">
        <ele>2249.2</ele>
        <time>2018-11-24T09:54:24Z</time>
      </trkpt>
      <trkpt lat="42.78852" lon="0.79143">
        <ele>2248</ele>
        <time>2018-11-24T09:54:25Z</time>
      </trkpt>
      <trkpt lat="42.78852" lon="0.79138">
        <ele>2247.2</ele>
        <time>2018-11-24T09:54:27Z</time>
      </trkpt>
      <trkpt lat="42.78853" lon="0.79133">
        <ele>2246.6</ele>
        <time>2018-11-24T09:54:28Z</time>
      </trkpt>
      <trkpt lat="42.78853" lon="0.79128">
        <ele>2246.1</ele>
        <time>2018-11-24T09:54:30Z</time>
      </trkpt>
      <trkpt lat="42.78853" lon="0.79123">
        <ele>2245.6</ele>
        <time>2018-11-24T09:54:31Z</time>
      </trkpt>
      <trkpt lat="42.78854" lon="0.79117">
        <ele>2245</ele>
        <time>2018-11-24T09:54:33Z</time>
      </trkpt>
      <trkpt lat="42.78854" lon="0.79111">
        <ele>2244.3</ele>
        <time>2018-11-24T09:54:35Z</time>
      </trkpt>
      <trkpt lat="42.78852" lon="0.79106">
        <ele>2243.6</ele>
        <time>2018-11-24T09:54:37Z</time>
      </trkpt>
      <trkpt lat="42.7885" lon="0.79101">
        <ele>2243.4</ele>
        <time>2018-11-24T09:54:38Z</time>
      </trkpt>
      <trkpt lat="42.78849" lon="0.79096">
        <ele>2243.8</ele>
        <time>2018-11-24T09:54:40Z</time>
      </trkpt>
      <trkpt lat="42.78848" lon="0.79091">
        <ele>2244.2</ele>
        <time>2018-11-24T09:54:41Z</time>
      </trkpt>
      <trkpt lat="42.78846" lon="0.79086">
        <ele>2244.7</ele>
        <time>2018-11-24T09:54:43Z</time>
      </trkpt>
      <trkpt lat="42.78844" lon="0.79082">
        <ele>2245.5</ele>
        <time>2018-11-24T09:54:44Z</time>
      </trkpt>
      <trkpt lat="42.78842" lon="0.79077">
        <ele>2246.6</ele>
        <time>2018-11-24T09:54:46Z</time>
      </trkpt>
      <trkpt lat="42.78841" lon="0.79072">
        <ele>2248</ele>
        <time>2018-11-24T09:54:48Z</time>
      </trkpt>
      <trkpt lat="42.78839" lon="0.79067">
        <ele>2249.5</ele>
        <time>2018-11-24T09:54:49Z</time>
      </trkpt>
      <trkpt lat="42.78838" lon="0.79062">
        <ele>2251.2</ele>
        <time>2018-11-24T09:54:51Z</time>
      </trkpt>
      <trkpt lat="42.78836" lon="0.79059">
        <ele>2252.9</ele>
        <time>2018-11-24T09:54:52Z</time>
      </trkpt>
      <trkpt lat="42.78834" lon="0.79056">
        <ele>2254.5</ele>
        <time>2018-11-24T09:54:53Z</time>
      </trkpt>
      <trkpt lat="42.78833" lon="0.79051">
        <ele>2255.8</ele>
        <time>2018-11-24T09:54:55Z</time>
      </trkpt>
      <trkpt lat="42.78832" lon="0.79046">
        <ele>2256.7</ele>
        <time>2018-11-24T09:54:56Z</time>
      </trkpt>
      <trkpt lat="42.78831" lon="0.79041">
        <ele>2257.9</ele>
        <time>2018-11-24T09:54:58Z</time>
      </trkpt>
      <trkpt lat="42.7883" lon="0.79037">
        <ele>2258.8</ele>
        <time>2018-11-24T09:54:59Z</time>
      </trkpt>
      <trkpt lat="42.78828" lon="0.79033">
        <ele>2260</ele>
        <time>2018-11-24T09:55:00Z</time>
      </trkpt>
      <trkpt lat="42.78827" lon="0.79029">
        <ele>2261.4</ele>
        <time>2018-11-24T09:55:02Z</time>
      </trkpt>
      <trkpt lat="42.78826" lon="0.79025">
        <ele>2262.5</ele>
        <time>2018-11-24T09:55:03Z</time>
      </trkpt>
      <trkpt lat="42.78824" lon="0.79021">
        <ele>2263.7</ele>
        <time>2018-11-24T09:55:04Z</time>
      </trkpt>
      <trkpt lat="42.78823" lon="0.79017">
        <ele>2264.9</ele>
        <time>2018-11-24T09:55:05Z</time>
      </trkpt>
      <trkpt lat="42.78821" lon="0.79012">
        <ele>2266.7</ele>
        <time>2018-11-24T09:55:07Z</time>
      </trkpt>
      <trkpt lat="42.78818" lon="0.79007">
        <ele>2268.4</ele>
        <time>2018-11-24T09:55:09Z</time>
      </trkpt>
      <trkpt lat="42.78817" lon="0.79003">
        <ele>2269.7</ele>
        <time>2018-11-24T09:55:10Z</time>
      </trkpt>
      <trkpt lat="42.78817" lon="0.78998">
        <ele>2270.6</ele>
        <time>2018-11-24T09:55:12Z</time>
      </trkpt>
      <trkpt lat="42.78816" lon="0.78994">
        <ele>2271.3</ele>
        <time>2018-11-24T09:55:13Z</time>
      </trkpt>
      <trkpt lat="42.78816" lon="0.78988">
        <ele>2272</ele>
        <time>2018-11-24T09:55:15Z</time>
      </trkpt>
      <trkpt lat="42.78816" lon="0.78982">
        <ele>2272.8</ele>
        <time>2018-11-24T09:55:16Z</time>
      </trkpt>
      <trkpt lat="42.78817" lon="0.78977">
        <ele>2273.3</ele>
        <time>2018-11-24T09:55:18Z</time>
      </trkpt>
      <trkpt lat="42.78817" lon="0.78971">
        <ele>2274</ele>
        <time>2018-11-24T09:55:20Z</time>
      </trkpt>
      <trkpt lat="42.78817" lon="0.78965">
        <ele>2274.9</ele>
        <time>2018-11-24T09:55:21Z</time>
      </trkpt>
      <trkpt lat="42.78817" lon="0.78959">
        <ele>2275.8</ele>
        <time>2018-11-24T09:55:23Z</time>
      </trkpt>
      <trkpt lat="42.78818" lon="0.78953">
        <ele>2276.9</ele>
        <time>2018-11-24T09:55:25Z</time>
      </trkpt>
      <trkpt lat="42.78818" lon="0.78947">
        <ele>2277.9</ele>
        <time>2018-11-24T09:55:27Z</time>
      </trkpt>
      <trkpt lat="42.78819" lon="0.78942">
        <ele>2279.1</ele>
        <time>2018-11-24T09:55:28Z</time>
      </trkpt>
      <trkpt lat="42.78819" lon="0.78937">
        <ele>2280.6</ele>
        <time>2018-11-24T09:55:30Z</time>
      </trkpt>
      <trkpt lat="42.7882" lon="0.78932">
        <ele>2282.1</ele>
        <time>2018-11-24T09:55:31Z</time>
      </trkpt>
      <trkpt lat="42.7882" lon="0.78926">
        <ele>2283.6</ele>
        <time>2018-11-24T09:55:33Z</time>
      </trkpt>
      <trkpt lat="42.78819" lon="0.7892">
        <ele>2285.2</ele>
        <time>2018-11-24T09:55:35Z</time>
      </trkpt>
      <trkpt lat="42.78819" lon="0.78914">
        <ele>2286.8</ele>
        <time>2018-11-24T09:55:36Z</time>
      </trkpt>
      <trkpt lat="42.78819" lon="0.7891">
        <ele>2287.9</ele>
        <time>2018-11-24T09:55:38Z</time>
      </trkpt>
      <trkpt lat="42.78819" lon="0.78905">
        <ele>2289.3</ele>
        <time>2018-11-24T09:55:39Z</time>
      </trkpt>
      <trkpt lat="42.78819" lon="0.78901">
        <ele>2290.4</ele>
        <time>2018-11-24T09:55:40Z</time>
      </trkpt>
      <trkpt lat="42.78818" lon="0.78896">
        <ele>2291.7</ele>
        <time>2018-11-24T09:55:42Z</time>
      </trkpt>
      <trkpt lat="42.78816" lon="0.7889">
        <ele>2292.9</ele>
        <time>2018-11-24T09:55:44Z</time>
      </trkpt>
      <trkpt lat="42.78817" lon="0.78885">
        <ele>2294.5</ele>
        <time>2018-11-24T09:55:45Z</time>
      </trkpt>
      <trkpt lat="42.78817" lon="0.7888">
        <ele>2296</ele>
        <time>2018-11-24T09:55:47Z</time>
      </trkpt>
      <trkpt lat="42.78818" lon="0.78874">
        <ele>2297.6</ele>
        <time>2018-11-24T09:55:48Z</time>
      </trkpt>
      <trkpt lat="42.78818" lon="0.78869">
        <ele>2299.1</ele>
        <time>2018-11-24T09:55:50Z</time>
      </trkpt>
      <trkpt lat="42.78819" lon="0.78863">
        <ele>2300.9</ele>
        <time>2018-11-24T09:55:52Z</time>
      </trkpt>
      <trkpt lat="42.7882" lon="0.78858">
        <ele>2301.8</ele>
        <time>2018-11-24T09:55:53Z</time>
      </trkpt>
      <trkpt lat="42.7882" lon="0.78852">
        <ele>2302.4</ele>
        <time>2018-11-24T09:55:55Z</time>
      </trkpt>
      <trkpt lat="42.78821" lon="0.78846">
        <ele>2303.2</ele>
        <time>2018-11-24T09:55:57Z</time>
      </trkpt>
      <trkpt lat="42.78821" lon="0.7884">
        <ele>2303.6</ele>
        <time>2018-11-24T09:55:59Z</time>
      </trkpt>
      <trkpt lat="42.78821" lon="0.78835">
        <ele>2304</ele>
        <time>2018-11-24T09:56:00Z</time>
      </trkpt>
      <trkpt lat="42.78821" lon="0.78829">
        <ele>2304.8</ele>
        <time>2018-11-24T09:56:02Z</time>
      </trkpt>
      <trkpt lat="42.78821" lon="0.78823">
        <ele>2305.6</ele>
        <time>2018-11-24T09:56:03Z</time>
      </trkpt>
      <trkpt lat="42.78821" lon="0.78818">
        <ele>2306.4</ele>
        <time>2018-11-24T09:56:05Z</time>
      </trkpt>
      <trkpt lat="42.78821" lon="0.78812">
        <ele>2307.4</ele>
        <time>2018-11-24T09:56:07Z</time>
      </trkpt>
      <trkpt lat="42.78822" lon="0.78808">
        <ele>2308.4</ele>
        <time>2018-11-24T09:56:08Z</time>
      </trkpt>
      <trkpt lat="42.78823" lon="0.78803">
        <ele>2309.7</ele>
        <time>2018-11-24T09:56:10Z</time>
      </trkpt>
      <trkpt lat="42.78823" lon="0.78799">
        <ele>2311.2</ele>
        <time>2018-11-24T09:56:11Z</time>
      </trkpt>
      <trkpt lat="42.78824" lon="0.78794">
        <ele>2312.4</ele>
        <time>2018-11-24T09:56:12Z</time>
      </trkpt>
      <trkpt lat="42.78824" lon="0.78789">
        <ele>2313.7</ele>
        <time>2018-11-24T09:56:14Z</time>
      </trkpt>
      <trkpt lat="42.78824" lon="0.78784">
        <ele>2314.9</ele>
        <time>2018-11-24T09:56:15Z</time>
      </trkpt>
      <trkpt lat="42.78824" lon="0.78779">
        <ele>2316</ele>
        <time>2018-11-24T09:56:17Z</time>
      </trkpt>
      <trkpt lat="42.78824" lon="0.78774">
        <ele>2316.5</ele>
        <time>2018-11-24T09:56:18Z</time>
      </trkpt>
      <trkpt lat="42.78824" lon="0.78769">
        <ele>2316.7</ele>
        <time>2018-11-24T09:56:20Z</time>
      </trkpt>
      <trkpt lat="42.78823" lon="0.78763">
        <ele>2317</ele>
        <time>2018-11-24T09:56:21Z</time>
      </trkpt>
      <trkpt lat="42.78823" lon="0.78758">
        <ele>2317.1</ele>
        <time>2018-11-24T09:56:23Z</time>
      </trkpt>
      <trkpt lat="42.78821" lon="0.78754">
        <ele>2316.8</ele>
        <time>2018-11-24T09:56:24Z</time>
      </trkpt>
      <trkpt lat="42.78819" lon="0.7875">
        <ele>2316.5</ele>
        <time>2018-11-24T09:56:26Z</time>
      </trkpt>
      <trkpt lat="42.78819" lon="0.78745">
        <ele>2316.2</ele>
        <time>2018-11-24T09:56:27Z</time>
      </trkpt>
      <trkpt lat="42.78819" lon="0.78741">
        <ele>2316</ele>
        <time>2018-11-24T09:56:28Z</time>
      </trkpt>
      <trkpt lat="42.78819" lon="0.78736">
        <ele>2315.9</ele>
        <time>2018-11-24T09:56:30Z</time>
      </trkpt>
      <trkpt lat="42.78821" lon="0.78731">
        <ele>2316.1</ele>
        <time>2018-11-24T09:56:31Z</time>
      </trkpt>
      <trkpt lat="42.78822" lon="0.78726">
        <ele>2316.5</ele>
        <time>2018-11-24T09:56:33Z</time>
      </trkpt>
      <trkpt lat="42.78822" lon="0.78721">
        <ele>2316.3</ele>
        <time>2018-11-24T09:56:34Z</time>
      </trkpt>
      <trkpt lat="42.78822" lon="0.78716">
        <ele>2315.7</ele>
        <time>2018-11-24T09:56:36Z</time>
      </trkpt>
      <trkpt lat="42.78823" lon="0.78712">
        <ele>2315.5</ele>
        <time>2018-11-24T09:56:37Z</time>
      </trkpt>
      <trkpt lat="42.78823" lon="0.78707">
        <ele>2315.2</ele>
        <time>2018-11-24T09:56:39Z</time>
      </trkpt>
      <trkpt lat="42.78823" lon="0.78703">
        <ele>2314.9</ele>
        <time>2018-11-24T09:56:40Z</time>
      </trkpt>
      <trkpt lat="42.78824" lon="0.78698">
        <ele>2314.7</ele>
        <time>2018-11-24T09:56:41Z</time>
      </trkpt>
      <trkpt lat="42.78824" lon="0.78694">
        <ele>2314.4</ele>
        <time>2018-11-24T09:56:42Z</time>
      </trkpt>
      <trkpt lat="42.78823" lon="0.78688">
        <ele>2313.7</ele>
        <time>2018-11-24T09:56:44Z</time>
      </trkpt>
      <trkpt lat="42.78823" lon="0.78683">
        <ele>2313.3</ele>
        <time>2018-11-24T09:56:46Z</time>
      </trkpt>
      <trkpt lat="42.78822" lon="0.78677">
        <ele>2312.9</ele>
        <time>2018-11-24T09:56:47Z</time>
      </trkpt>
      <trkpt lat="42.78822" lon="0.78671">
        <ele>2312.6</ele>
        <time>2018-11-24T09:56:49Z</time>
      </trkpt>
      <trkpt lat="42.78823" lon="0.78665">
        <ele>2312.5</ele>
        <time>2018-11-24T09:56:51Z</time>
      </trkpt>
      <trkpt lat="42.78823" lon="0.78659">
        <ele>2312.6</ele>
        <time>2018-11-24T09:56:53Z</time>
      </trkpt>
      <trkpt lat="42.78823" lon="0.78654">
        <ele>2312.6</ele>
        <time>2018-11-24T09:56:54Z</time>
      </trkpt>
      <trkpt lat="42.78822" lon="0.78649">
        <ele>2312.7</ele>
        <time>2018-11-24T09:56:56Z</time>
      </trkpt>
      <trkpt lat="42.78822" lon="0.78644">
        <ele>2312.8</ele>
        <time>2018-11-24T09:56:57Z</time>
      </trkpt>
      <trkpt lat="42.78824" lon="0.78639">
        <ele>2312.7</ele>
        <time>2018-11-24T09:56:59Z</time>
      </trkpt>
      <trkpt lat="42.78825" lon="0.78634">
        <ele>2312.6</ele>
        <time>2018-11-24T09:57:00Z</time>
      </trkpt>
      <trkpt lat="42.78826" lon="0.7863">
        <ele>2312.7</ele>
        <time>2018-11-24T09:57:02Z</time>
      </trkpt>
      <trkpt lat="42.78826" lon="0.78626">
        <ele>2312.7</ele>
        <time>2018-11-24T09:57:03Z</time>
      </trkpt>
      <trkpt lat="42.78827" lon="0.78622">
        <ele>2312.7</ele>
        <time>2018-11-24T09:57:04Z</time>
      </trkpt>
      <trkpt lat="42.78828" lon="0.78617">
        <ele>2312.7</ele>
        <time>2018-11-24T09:57:05Z</time>
      </trkpt>
      <trkpt lat="42.78828" lon="0.78612">
        <ele>2312.8</ele>
        <time>2018-11-24T09:57:07Z</time>
      </trkpt>
      <trkpt lat="42.78829" lon="0.78607">
        <ele>2313</ele>
        <time>2018-11-24T09:57:08Z</time>
      </trkpt>
      <trkpt lat="42.7883" lon="0.78602">
        <ele>2313.2</ele>
        <time>2018-11-24T09:57:10Z</time>
      </trkpt>
      <trkpt lat="42.78832" lon="0.78596">
        <ele>2313.3</ele>
        <time>2018-11-24T09:57:12Z</time>
      </trkpt>
      <trkpt lat="42.78833" lon="0.78591">
        <ele>2313.7</ele>
        <time>2018-11-24T09:57:13Z</time>
      </trkpt>
      <trkpt lat="42.78834" lon="0.78586">
        <ele>2313.8</ele>
        <time>2018-11-24T09:57:15Z</time>
      </trkpt>
      <trkpt lat="42.78835" lon="0.78582">
        <ele>2313.8</ele>
        <time>2018-11-24T09:57:16Z</time>
      </trkpt>
      <trkpt lat="42.78836" lon="0.78577">
        <ele>2314</ele>
        <time>2018-11-24T09:57:18Z</time>
      </trkpt>
      <trkpt lat="42.78837" lon="0.78573">
        <ele>2314.2</ele>
        <time>2018-11-24T09:57:19Z</time>
      </trkpt>
      <trkpt lat="42.78837" lon="0.78568">
        <ele>2314.3</ele>
        <time>2018-11-24T09:57:20Z</time>
      </trkpt>
      <trkpt lat="42.78838" lon="0.78564">
        <ele>2314.5</ele>
        <time>2018-11-24T09:57:22Z</time>
      </trkpt>
      <trkpt lat="42.78839" lon="0.7856">
        <ele>2314.7</ele>
        <time>2018-11-24T09:57:23Z</time>
      </trkpt>
      <trkpt lat="42.7884" lon="0.78555">
        <ele>2314.9</ele>
        <time>2018-11-24T09:57:24Z</time>
      </trkpt>
      <trkpt lat="42.7884" lon="0.78551">
        <ele>2314.9</ele>
        <time>2018-11-24T09:57:26Z</time>
      </trkpt>
      <trkpt lat="42.78841" lon="0.78546">
        <ele>2315.1</ele>
        <time>2018-11-24T09:57:27Z</time>
      </trkpt>
      <trkpt lat="42.78842" lon="0.78542">
        <ele>2315</ele>
        <time>2018-11-24T09:57:28Z</time>
      </trkpt>
      <trkpt lat="42.78844" lon="0.78538">
        <ele>2315.1</ele>
        <time>2018-11-24T09:57:30Z</time>
      </trkpt>
      <trkpt lat="42.78845" lon="0.78534">
        <ele>2315.2</ele>
        <time>2018-11-24T09:57:31Z</time>
      </trkpt>
      <trkpt lat="42.78846" lon="0.78528">
        <ele>2315.5</ele>
        <time>2018-11-24T09:57:33Z</time>
      </trkpt>
      <trkpt lat="42.78848" lon="0.78523">
        <ele>2315.1</ele>
        <time>2018-11-24T09:57:34Z</time>
      </trkpt>
      <trkpt lat="42.78849" lon="0.78517">
        <ele>2314.9</ele>
        <time>2018-11-24T09:57:36Z</time>
      </trkpt>
      <trkpt lat="42.7885" lon="0.78512">
        <ele>2314.8</ele>
        <time>2018-11-24T09:57:38Z</time>
      </trkpt>
      <trkpt lat="42.7885" lon="0.78508">
        <ele>2314.6</ele>
        <time>2018-11-24T09:57:39Z</time>
      </trkpt>
      <trkpt lat="42.78851" lon="0.78503">
        <ele>2314.6</ele>
        <time>2018-11-24T09:57:40Z</time>
      </trkpt>
      <trkpt lat="42.78853" lon="0.78499">
        <ele>2314.7</ele>
        <time>2018-11-24T09:57:42Z</time>
      </trkpt>
      <trkpt lat="42.78855" lon="0.78495">
        <ele>2314.6</ele>
        <time>2018-11-24T09:57:43Z</time>
      </trkpt>
      <trkpt lat="42.78857" lon="0.7849">
        <ele>2314.5</ele>
        <time>2018-11-24T09:57:45Z</time>
      </trkpt>
      <trkpt lat="42.78859" lon="0.78486">
        <ele>2314.7</ele>
        <time>2018-11-24T09:57:46Z</time>
      </trkpt>
      <trkpt lat="42.78861" lon="0.78482">
        <ele>2315</ele>
        <time>2018-11-24T09:57:48Z</time>
      </trkpt>
      <trkpt lat="42.78863" lon="0.78477">
        <ele>2314.3</ele>
        <time>2018-11-24T09:57:49Z</time>
      </trkpt>
      <trkpt lat="42.78866" lon="0.78474">
        <ele>2313.6</ele>
        <time>2018-11-24T09:57:51Z</time>
      </trkpt>
      <trkpt lat="42.78868" lon="0.78471">
        <ele>2313</ele>
        <time>2018-11-24T09:57:52Z</time>
      </trkpt>
      <trkpt lat="42.78871" lon="0.78467">
        <ele>2312</ele>
        <time>2018-11-24T09:57:54Z</time>
      </trkpt>
      <trkpt lat="42.78873" lon="0.78464">
        <ele>2311.2</ele>
        <time>2018-11-24T09:57:55Z</time>
      </trkpt>
      <trkpt lat="42.78875" lon="0.7846">
        <ele>2310.5</ele>
        <time>2018-11-24T09:57:56Z</time>
      </trkpt>
      <trkpt lat="42.78877" lon="0.78455">
        <ele>2309.9</ele>
        <time>2018-11-24T09:57:58Z</time>
      </trkpt>
      <trkpt lat="42.78877" lon="0.78449">
        <ele>2309</ele>
        <time>2018-11-24T09:58:00Z</time>
      </trkpt>
      <trkpt lat="42.78877" lon="0.78443">
        <ele>2308</ele>
        <time>2018-11-24T09:58:02Z</time>
      </trkpt>
      <trkpt lat="42.78878" lon="0.78438">
        <ele>2307.1</ele>
        <time>2018-11-24T09:58:03Z</time>
      </trkpt>
      <trkpt lat="42.7888" lon="0.78433">
        <ele>2306.2</ele>
        <time>2018-11-24T09:58:05Z</time>
      </trkpt>
      <trkpt lat="42.78881" lon="0.78428">
        <ele>2305.5</ele>
        <time>2018-11-24T09:58:06Z</time>
      </trkpt>
      <trkpt lat="42.78883" lon="0.78424">
        <ele>2305.2</ele>
        <time>2018-11-24T09:58:08Z</time>
      </trkpt>
      <trkpt lat="42.78885" lon="0.7842">
        <ele>2305.1</ele>
        <time>2018-11-24T09:58:09Z</time>
      </trkpt>
      <trkpt lat="42.78886" lon="0.78416">
        <ele>2304.9</ele>
        <time>2018-11-24T09:58:10Z</time>
      </trkpt>
      <trkpt lat="42.78888" lon="0.78412">
        <ele>2304.8</ele>
        <time>2018-11-24T09:58:12Z</time>
      </trkpt>
      <trkpt lat="42.78888" lon="0.78406">
        <ele>2303.7</ele>
        <time>2018-11-24T09:58:13Z</time>
      </trkpt>
      <trkpt lat="42.78888" lon="0.784">
        <ele>2302.5</ele>
        <time>2018-11-24T09:58:15Z</time>
      </trkpt>
      <trkpt lat="42.78891" lon="0.78397">
        <ele>2301.9</ele>
        <time>2018-11-24T09:58:17Z</time>
      </trkpt>
      <trkpt lat="42.78894" lon="0.78394">
        <ele>2300.6</ele>
        <time>2018-11-24T09:58:18Z</time>
      </trkpt>
      <trkpt lat="42.78896" lon="0.78389">
        <ele>2299.3</ele>
        <time>2018-11-24T09:58:20Z</time>
      </trkpt>
      <trkpt lat="42.78898" lon="0.78384">
        <ele>2296.5</ele>
        <time>2018-11-24T09:58:22Z</time>
      </trkpt>
      <trkpt lat="42.78901" lon="0.78382">
        <ele>2295.2</ele>
        <time>2018-11-24T09:58:23Z</time>
      </trkpt>
      <trkpt lat="42.78904" lon="0.7838">
        <ele>2294</ele>
        <time>2018-11-24T09:58:24Z</time>
      </trkpt>
      <trkpt lat="42.78906" lon="0.78375">
        <ele>2292.1</ele>
        <time>2018-11-24T09:58:26Z</time>
      </trkpt>
      <trkpt lat="42.78909" lon="0.7837">
        <ele>2290.5</ele>
        <time>2018-11-24T09:58:28Z</time>
      </trkpt>
      <trkpt lat="42.78911" lon="0.78365">
        <ele>2289.3</ele>
        <time>2018-11-24T09:58:29Z</time>
      </trkpt>
      <trkpt lat="42.78913" lon="0.78361">
        <ele>2288.4</ele>
        <time>2018-11-24T09:58:31Z</time>
      </trkpt>
      <trkpt lat="42.78915" lon="0.78357">
        <ele>2288</ele>
        <time>2018-11-24T09:58:32Z</time>
      </trkpt>
      <trkpt lat="42.78916" lon="0.78353">
        <ele>2287.4</ele>
        <time>2018-11-24T09:58:34Z</time>
      </trkpt>
      <trkpt lat="42.78917" lon="0.78349">
        <ele>2286.7</ele>
        <time>2018-11-24T09:58:35Z</time>
      </trkpt>
      <trkpt lat="42.78917" lon="0.78346">
        <ele>2286.2</ele>
        <time>2018-11-24T09:58:36Z</time>
      </trkpt>
      <trkpt lat="42.78917" lon="0.78342">
        <ele>2285.5</ele>
        <time>2018-11-24T09:58:37Z</time>
      </trkpt>
      <trkpt lat="42.78918" lon="0.78337">
        <ele>2284.5</ele>
        <time>2018-11-24T09:58:38Z</time>
      </trkpt>
      <trkpt lat="42.7892" lon="0.78332">
        <ele>2284.3</ele>
        <time>2018-11-24T09:58:40Z</time>
      </trkpt>
      <trkpt lat="42.78921" lon="0.78327">
        <ele>2285.3</ele>
        <time>2018-11-24T09:58:42Z</time>
      </trkpt>
      <trkpt lat="42.78923" lon="0.78324">
        <ele>2286.3</ele>
        <time>2018-11-24T09:58:43Z</time>
      </trkpt>
      <trkpt lat="42.78925" lon="0.78321">
        <ele>2287.5</ele>
        <time>2018-11-24T09:58:44Z</time>
      </trkpt>
      <trkpt lat="42.78927" lon="0.78317">
        <ele>2289.2</ele>
        <time>2018-11-24T09:58:45Z</time>
      </trkpt>
      <trkpt lat="42.78929" lon="0.78312">
        <ele>2291.2</ele>
        <time>2018-11-24T09:58:47Z</time>
      </trkpt>
      <trkpt lat="42.78931" lon="0.78307">
        <ele>2293.6</ele>
        <time>2018-11-24T09:58:49Z</time>
      </trkpt>
      <trkpt lat="42.78932" lon="0.78301">
        <ele>2296</ele>
        <time>2018-11-24T09:58:50Z</time>
      </trkpt>
      <trkpt lat="42.78932" lon="0.78297">
        <ele>2297.3</ele>
        <time>2018-11-24T09:58:52Z</time>
      </trkpt>
      <trkpt lat="42.78932" lon="0.78292">
        <ele>2298.6</ele>
        <time>2018-11-24T09:58:53Z</time>
      </trkpt>
      <trkpt lat="42.78932" lon="0.78288">
        <ele>2300</ele>
        <time>2018-11-24T09:58:54Z</time>
      </trkpt>
      <trkpt lat="42.78934" lon="0.78283">
        <ele>2302.7</ele>
        <time>2018-11-24T09:58:56Z</time>
      </trkpt>
      <trkpt lat="42.78936" lon="0.78279">
        <ele>2305.6</ele>
        <time>2018-11-24T09:58:57Z</time>
      </trkpt>
      <trkpt lat="42.78938" lon="0.78274">
        <ele>2308</ele>
        <time>2018-11-24T09:58:59Z</time>
      </trkpt>
      <trkpt lat="42.7894" lon="0.7827">
        <ele>2310.4</ele>
        <time>2018-11-24T09:59:01Z</time>
      </trkpt>
      <trkpt lat="42.78942" lon="0.78265">
        <ele>2312.8</ele>
        <time>2018-11-24T09:59:02Z</time>
      </trkpt>
      <trkpt lat="42.78944" lon="0.7826">
        <ele>2315.4</ele>
        <time>2018-11-24T09:59:04Z</time>
      </trkpt>
      <trkpt lat="42.78946" lon="0.78256">
        <ele>2316.5</ele>
        <time>2018-11-24T09:59:05Z</time>
      </trkpt>
      <trkpt lat="42.78948" lon="0.78251">
        <ele>2317.3</ele>
        <time>2018-11-24T09:59:07Z</time>
      </trkpt>
      <trkpt lat="42.7895" lon="0.78246">
        <ele>2317</ele>
        <time>2018-11-24T09:59:09Z</time>
      </trkpt>
      <trkpt lat="42.78953" lon="0.78241">
        <ele>2316.9</ele>
        <time>2018-11-24T09:59:10Z</time>
      </trkpt>
      <trkpt lat="42.78955" lon="0.78236">
        <ele>2317.4</ele>
        <time>2018-11-24T09:59:12Z</time>
      </trkpt>
      <trkpt lat="42.78957" lon="0.78232">
        <ele>2318.4</ele>
        <time>2018-11-24T09:59:14Z</time>
      </trkpt>
      <trkpt lat="42.7896" lon="0.78229">
        <ele>2319.6</ele>
        <time>2018-11-24T09:59:15Z</time>
      </trkpt>
      <trkpt lat="42.78962" lon="0.78225">
        <ele>2321.2</ele>
        <time>2018-11-24T09:59:16Z</time>
      </trkpt>
      <trkpt lat="42.78964" lon="0.78221">
        <ele>2322.7</ele>
        <time>2018-11-24T09:59:18Z</time>
      </trkpt>
      <trkpt lat="42.78965" lon="0.78216">
        <ele>2324</ele>
        <time>2018-11-24T09:59:19Z</time>
      </trkpt>
      <trkpt lat="42.78968" lon="0.78212">
        <ele>2325.8</ele>
        <time>2018-11-24T09:59:21Z</time>
      </trkpt>
      <trkpt lat="42.7897" lon="0.78207">
        <ele>2327.8</ele>
        <time>2018-11-24T09:59:23Z</time>
      </trkpt>
      <trkpt lat="42.78971" lon="0.78203">
        <ele>2328.9</ele>
        <time>2018-11-24T09:59:24Z</time>
      </trkpt>
      <trkpt lat="42.78971" lon="0.78199">
        <ele>2329.8</ele>
        <time>2018-11-24T09:59:25Z</time>
      </trkpt>
      <trkpt lat="42.78972" lon="0.78195">
        <ele>2330.9</ele>
        <time>2018-11-24T09:59:26Z</time>
      </trkpt>
      <trkpt lat="42.78975" lon="0.78193">
        <ele>2331.6</ele>
        <time>2018-11-24T09:59:27Z</time>
      </trkpt>
      <trkpt lat="42.78977" lon="0.7819">
        <ele>2332.3</ele>
        <time>2018-11-24T09:59:29Z</time>
      </trkpt>
      <trkpt lat="42.7898" lon="0.78188">
        <ele>2333.1</ele>
        <time>2018-11-24T09:59:30Z</time>
      </trkpt>
      <trkpt lat="42.78982" lon="0.78184">
        <ele>2334.6</ele>
        <time>2018-11-24T09:59:32Z</time>
      </trkpt>
      <trkpt lat="42.78984" lon="0.78179">
        <ele>2336.2</ele>
        <time>2018-11-24T09:59:33Z</time>
      </trkpt>
      <trkpt lat="42.78986" lon="0.78176">
        <ele>2337.6</ele>
        <time>2018-11-24T09:59:34Z</time>
      </trkpt>
      <trkpt lat="42.78987" lon="0.78173">
        <ele>2339.2</ele>
        <time>2018-11-24T09:59:35Z</time>
      </trkpt>
      <trkpt lat="42.78988" lon="0.78169">
        <ele>2340.8</ele>
        <time>2018-11-24T09:59:36Z</time>
      </trkpt>
      <trkpt lat="42.7899" lon="0.78166">
        <ele>2342.7</ele>
        <time>2018-11-24T09:59:38Z</time>
      </trkpt>
      <trkpt lat="42.78991" lon="0.78162">
        <ele>2344.1</ele>
        <time>2018-11-24T09:59:39Z</time>
      </trkpt>
      <trkpt lat="42.78992" lon="0.78158">
        <ele>2345.6</ele>
        <time>2018-11-24T09:59:40Z</time>
      </trkpt>
      <trkpt lat="42.78994" lon="0.78154">
        <ele>2347.2</ele>
        <time>2018-11-24T09:59:41Z</time>
      </trkpt>
      <trkpt lat="42.78995" lon="0.7815">
        <ele>2348.9</ele>
        <time>2018-11-24T09:59:43Z</time>
      </trkpt>
      <trkpt lat="42.78997" lon="0.78145">
        <ele>2351.2</ele>
        <time>2018-11-24T09:59:44Z</time>
      </trkpt>
      <trkpt lat="42.78998" lon="0.78139">
        <ele>2353.6</ele>
        <time>2018-11-24T09:59:46Z</time>
      </trkpt>
      <trkpt lat="42.78998" lon="0.78134">
        <ele>2354.2</ele>
        <time>2018-11-24T09:59:48Z</time>
      </trkpt>
      <trkpt lat="42.78998" lon="0.78128">
        <ele>2354.9</ele>
        <time>2018-11-24T09:59:49Z</time>
      </trkpt>
      <trkpt lat="42.78999" lon="0.78123">
        <ele>2356.6</ele>
        <time>2018-11-24T09:59:51Z</time>
      </trkpt>
      <trkpt lat="42.79" lon="0.78118">
        <ele>2358</ele>
        <time>2018-11-24T09:59:52Z</time>
      </trkpt>
      <trkpt lat="42.79002" lon="0.78113">
        <ele>2358.9</ele>
        <time>2018-11-24T09:59:54Z</time>
      </trkpt>
      <trkpt lat="42.79003" lon="0.78108">
        <ele>2359.2</ele>
        <time>2018-11-24T09:59:56Z</time>
      </trkpt>
      <trkpt lat="42.79004" lon="0.78103">
        <ele>2359.3</ele>
        <time>2018-11-24T09:59:57Z</time>
      </trkpt>
      <trkpt lat="42.79005" lon="0.78098">
        <ele>2359.2</ele>
        <time>2018-11-24T09:59:59Z</time>
      </trkpt>
      <trkpt lat="42.79007" lon="0.78094">
        <ele>2359.6</ele>
        <time>2018-11-24T10:00:00Z</time>
      </trkpt>
      <trkpt lat="42.79009" lon="0.7809">
        <ele>2360.1</ele>
        <time>2018-11-24T10:00:02Z</time>
      </trkpt>
      <trkpt lat="42.79011" lon="0.78085">
        <ele>2360.6</ele>
        <time>2018-11-24T10:00:03Z</time>
      </trkpt>
      <trkpt lat="42.79013" lon="0.78081">
        <ele>2361.6</ele>
        <time>2018-11-24T10:00:05Z</time>
      </trkpt>
      <trkpt lat="42.79014" lon="0.78075">
        <ele>2362.4</ele>
        <time>2018-11-24T10:00:06Z</time>
      </trkpt>
      <trkpt lat="42.79014" lon="0.78069">
        <ele>2363.3</ele>
        <time>2018-11-24T10:00:08Z</time>
      </trkpt>
      <trkpt lat="42.79014" lon="0.78064">
        <ele>2363.9</ele>
        <time>2018-11-24T10:00:10Z</time>
      </trkpt>
      <trkpt lat="42.79013" lon="0.78058">
        <ele>2364.5</ele>
        <time>2018-11-24T10:00:11Z</time>
      </trkpt>
      <trkpt lat="42.79013" lon="0.78053">
        <ele>2364.9</ele>
        <time>2018-11-24T10:00:13Z</time>
      </trkpt>
      <trkpt lat="42.79012" lon="0.78047">
        <ele>2365.3</ele>
        <time>2018-11-24T10:00:15Z</time>
      </trkpt>
      <trkpt lat="42.79011" lon="0.78042">
        <ele>2365.4</ele>
        <time>2018-11-24T10:00:16Z</time>
      </trkpt>
      <trkpt lat="42.79011" lon="0.78036">
        <ele>2365.9</ele>
        <time>2018-11-24T10:00:18Z</time>
      </trkpt>
      <trkpt lat="42.7901" lon="0.78031">
        <ele>2366.1</ele>
        <time>2018-11-24T10:00:19Z</time>
      </trkpt>
      <trkpt lat="42.79008" lon="0.78026">
        <ele>2366.2</ele>
        <time>2018-11-24T10:00:21Z</time>
      </trkpt>
      <trkpt lat="42.79005" lon="0.78022">
        <ele>2366.3</ele>
        <time>2018-11-24T10:00:23Z</time>
      </trkpt>
      <trkpt lat="42.79003" lon="0.78017">
        <ele>2366.6</ele>
        <time>2018-11-24T10:00:24Z</time>
      </trkpt>
      <trkpt lat="42.79001" lon="0.78012">
        <ele>2367.3</ele>
        <time>2018-11-24T10:00:26Z</time>
      </trkpt>
      <trkpt lat="42.78998" lon="0.78008">
        <ele>2367</ele>
        <time>2018-11-24T10:00:28Z</time>
      </trkpt>
      <trkpt lat="42.78996" lon="0.78003">
        <ele>2366.7</ele>
        <time>2018-11-24T10:00:29Z</time>
      </trkpt>
      <trkpt lat="42.78995" lon="0.77998">
        <ele>2367.2</ele>
        <time>2018-11-24T10:00:31Z</time>
      </trkpt>
      <trkpt lat="42.78993" lon="0.77993">
        <ele>2367.9</ele>
        <time>2018-11-24T10:00:33Z</time>
      </trkpt>
      <trkpt lat="42.78992" lon="0.77987">
        <ele>2368.5</ele>
        <time>2018-11-24T10:00:34Z</time>
      </trkpt>
      <trkpt lat="42.7899" lon="0.77982">
        <ele>2369.3</ele>
        <time>2018-11-24T10:00:36Z</time>
      </trkpt>
      <trkpt lat="42.78988" lon="0.77977">
        <ele>2369.7</ele>
        <time>2018-11-24T10:00:38Z</time>
      </trkpt>
      <trkpt lat="42.78987" lon="0.77972">
        <ele>2370.2</ele>
        <time>2018-11-24T10:00:39Z</time>
      </trkpt>
      <trkpt lat="42.78985" lon="0.77967">
        <ele>2370.1</ele>
        <time>2018-11-24T10:00:41Z</time>
      </trkpt>
      <trkpt lat="42.78983" lon="0.77962">
        <ele>2369.8</ele>
        <time>2018-11-24T10:00:42Z</time>
      </trkpt>
      <trkpt lat="42.78983" lon="0.77957">
        <ele>2370.5</ele>
        <time>2018-11-24T10:00:44Z</time>
      </trkpt>
      <trkpt lat="42.78984" lon="0.77953">
        <ele>2371.2</ele>
        <time>2018-11-24T10:00:45Z</time>
      </trkpt>
      <trkpt lat="42.78984" lon="0.77948">
        <ele>2371.8</ele>
        <time>2018-11-24T10:00:47Z</time>
      </trkpt>
      <trkpt lat="42.78984" lon="0.77943">
        <ele>2372.5</ele>
        <time>2018-11-24T10:00:48Z</time>
      </trkpt>
      <trkpt lat="42.78985" lon="0.77937">
        <ele>2373</ele>
        <time>2018-11-24T10:00:50Z</time>
      </trkpt>
      <trkpt lat="42.78985" lon="0.77932">
        <ele>2373.3</ele>
        <time>2018-11-24T10:00:51Z</time>
      </trkpt>
      <trkpt lat="42.78985" lon="0.77927">
        <ele>2373.7</ele>
        <time>2018-11-24T10:00:53Z</time>
      </trkpt>
      <trkpt lat="42.78986" lon="0.77923">
        <ele>2374.1</ele>
        <time>2018-11-24T10:00:54Z</time>
      </trkpt>
      <trkpt lat="42.78987" lon="0.77918">
        <ele>2374.7</ele>
        <time>2018-11-24T10:00:55Z</time>
      </trkpt>
      <trkpt lat="42.78988" lon="0.77914">
        <ele>2374.6</ele>
        <time>2018-11-24T10:00:57Z</time>
      </trkpt>
      <trkpt lat="42.78988" lon="0.77909">
        <ele>2374</ele>
        <time>2018-11-24T10:00:58Z</time>
      </trkpt>
      <trkpt lat="42.78988" lon="0.77904">
        <ele>2373.2</ele>
        <time>2018-11-24T10:01:00Z</time>
      </trkpt>
      <trkpt lat="42.78988" lon="0.77898">
        <ele>2372.5</ele>
        <time>2018-11-24T10:01:01Z</time>
      </trkpt>
      <trkpt lat="42.78988" lon="0.77893">
        <ele>2371.7</ele>
        <time>2018-11-24T10:01:03Z</time>
      </trkpt>
      <trkpt lat="42.78987" lon="0.77888">
        <ele>2370.9</ele>
        <time>2018-11-24T10:01:04Z</time>
      </trkpt>
      <trkpt lat="42.78987" lon="0.77884">
        <ele>2370.4</ele>
        <time>2018-11-24T10:01:06Z</time>
      </trkpt>
      <trkpt lat="42.78986" lon="0.77879">
        <ele>2370.2</ele>
        <time>2018-11-24T10:01:07Z</time>
      </trkpt>
      <trkpt lat="42.78985" lon="0.77874">
        <ele>2369.8</ele>
        <time>2018-11-24T10:01:09Z</time>
      </trkpt>
      <trkpt lat="42.78985" lon="0.77869">
        <ele>2369.5</ele>
        <time>2018-11-24T10:01:10Z</time>
      </trkpt>
      <trkpt lat="42.78984" lon="0.77863">
        <ele>2369.3</ele>
        <time>2018-11-24T10:01:12Z</time>
      </trkpt>
      <trkpt lat="42.78984" lon="0.77858">
        <ele>2369</ele>
        <time>2018-11-24T10:01:13Z</time>
      </trkpt>
      <trkpt lat="42.78984" lon="0.77852">
        <ele>2368.6</ele>
        <time>2018-11-24T10:01:15Z</time>
      </trkpt>
      <trkpt lat="42.78985" lon="0.77847">
        <ele>2368.2</ele>
        <time>2018-11-24T10:01:17Z</time>
      </trkpt>
      <trkpt lat="42.78985" lon="0.77841">
        <ele>2368</ele>
        <time>2018-11-24T10:01:18Z</time>
      </trkpt>
      <trkpt lat="42.78986" lon="0.77835">
        <ele>2367.6</ele>
        <time>2018-11-24T10:01:20Z</time>
      </trkpt>
      <trkpt lat="42.78986" lon="0.7783">
        <ele>2367.4</ele>
        <time>2018-11-24T10:01:22Z</time>
      </trkpt>
      <trkpt lat="42.78987" lon="0.77824">
        <ele>2367.3</ele>
        <time>2018-11-24T10:01:23Z</time>
      </trkpt>
      <trkpt lat="42.78988" lon="0.77818">
        <ele>2367.2</ele>
        <time>2018-11-24T10:01:25Z</time>
      </trkpt>
      <trkpt lat="42.78988" lon="0.77812">
        <ele>2367.2</ele>
        <time>2018-11-24T10:01:27Z</time>
      </trkpt>
      <trkpt lat="42.78989" lon="0.77808">
        <ele>2367.1</ele>
        <time>2018-11-24T10:01:28Z</time>
      </trkpt>
      <trkpt lat="42.78989" lon="0.77804">
        <ele>2367</ele>
        <time>2018-11-24T10:01:29Z</time>
      </trkpt>
      <trkpt lat="42.7899" lon="0.778">
        <ele>2367.2</ele>
        <time>2018-11-24T10:01:31Z</time>
      </trkpt>
      <trkpt lat="42.78991" lon="0.77794">
        <ele>2367</ele>
        <time>2018-11-24T10:01:32Z</time>
      </trkpt>
      <trkpt lat="42.78991" lon="0.77788">
        <ele>2367</ele>
        <time>2018-11-24T10:01:34Z</time>
      </trkpt>
      <trkpt lat="42.78991" lon="0.77784">
        <ele>2366.9</ele>
        <time>2018-11-24T10:01:35Z</time>
      </trkpt>
      <trkpt lat="42.78991" lon="0.77781">
        <ele>2366.9</ele>
        <time>2018-11-24T10:01:36Z</time>
      </trkpt>
      <trkpt lat="42.78991" lon="0.77777">
        <ele>2366.8</ele>
        <time>2018-11-24T10:01:37Z</time>
      </trkpt>
      <trkpt lat="42.78992" lon="0.77773">
        <ele>2366.7</ele>
        <time>2018-11-24T10:01:39Z</time>
      </trkpt>
      <trkpt lat="42.78993" lon="0.77768">
        <ele>2366.5</ele>
        <time>2018-11-24T10:01:40Z</time>
      </trkpt>
      <trkpt lat="42.78994" lon="0.77762">
        <ele>2366.4</ele>
        <time>2018-11-24T10:01:42Z</time>
      </trkpt>
      <trkpt lat="42.78995" lon="0.77758">
        <ele>2366.4</ele>
        <time>2018-11-24T10:01:43Z</time>
      </trkpt>
      <trkpt lat="42.78995" lon="0.77754">
        <ele>2366.3</ele>
        <time>2018-11-24T10:01:44Z</time>
      </trkpt>
      <trkpt lat="42.78997" lon="0.7775">
        <ele>2366.6</ele>
        <time>2018-11-24T10:01:46Z</time>
      </trkpt>
      <trkpt lat="42.78998" lon="0.77745">
        <ele>2366.4</ele>
        <time>2018-11-24T10:01:47Z</time>
      </trkpt>
      <trkpt lat="42.78999" lon="0.77741">
        <ele>2365.8</ele>
        <time>2018-11-24T10:01:49Z</time>
      </trkpt>
      <trkpt lat="42.78999" lon="0.77736">
        <ele>2365.2</ele>
        <time>2018-11-24T10:01:50Z</time>
      </trkpt>
      <trkpt lat="42.79" lon="0.77732">
        <ele>2364.6</ele>
        <time>2018-11-24T10:01:51Z</time>
      </trkpt>
      <trkpt lat="42.79" lon="0.77728">
        <ele>2364</ele>
        <time>2018-11-24T10:01:52Z</time>
      </trkpt>
      <trkpt lat="42.79002" lon="0.77723">
        <ele>2362.6</ele>
        <time>2018-11-24T10:01:54Z</time>
      </trkpt>
      <trkpt lat="42.79003" lon="0.77718">
        <ele>2361.1</ele>
        <time>2018-11-24T10:01:56Z</time>
      </trkpt>
      <trkpt lat="42.79003" lon="0.77713">
        <ele>2360.3</ele>
        <time>2018-11-24T10:01:57Z</time>
      </trkpt>
      <trkpt lat="42.79003" lon="0.77707">
        <ele>2359.4</ele>
        <time>2018-11-24T10:01:59Z</time>
      </trkpt>
      <trkpt lat="42.79003" lon="0.77702">
        <ele>2358.7</ele>
        <time>2018-11-24T10:02:00Z</time>
      </trkpt>
      <trkpt lat="42.79003" lon="0.77697">
        <ele>2357.9</ele>
        <time>2018-11-24T10:02:02Z</time>
      </trkpt>
      <trkpt lat="42.79003" lon="0.77692">
        <ele>2357.3</ele>
        <time>2018-11-24T10:02:03Z</time>
      </trkpt>
      <trkpt lat="42.79004" lon="0.77687">
        <ele>2356.1</ele>
        <time>2018-11-24T10:02:05Z</time>
      </trkpt>
      <trkpt lat="42.79005" lon="0.77681">
        <ele>2355.1</ele>
        <time>2018-11-24T10:02:06Z</time>
      </trkpt>
      <trkpt lat="42.79006" lon="0.77676">
        <ele>2354.1</ele>
        <time>2018-11-24T10:02:08Z</time>
      </trkpt>
      <trkpt lat="42.79007" lon="0.77671">
        <ele>2353.2</ele>
        <time>2018-11-24T10:02:09Z</time>
      </trkpt>
      <trkpt lat="42.79007" lon="0.77667">
        <ele>2352.5</ele>
        <time>2018-11-24T10:02:11Z</time>
      </trkpt>
      <trkpt lat="42.79008" lon="0.77662">
        <ele>2352.4</ele>
        <time>2018-11-24T10:02:12Z</time>
      </trkpt>
      <trkpt lat="42.79008" lon="0.77657">
        <ele>2352.1</ele>
        <time>2018-11-24T10:02:14Z</time>
      </trkpt>
      <trkpt lat="42.79009" lon="0.77652">
        <ele>2351.7</ele>
        <time>2018-11-24T10:02:15Z</time>
      </trkpt>
      <trkpt lat="42.7901" lon="0.77647">
        <ele>2351.5</ele>
        <time>2018-11-24T10:02:17Z</time>
      </trkpt>
      <trkpt lat="42.7901" lon="0.77642">
        <ele>2351.2</ele>
        <time>2018-11-24T10:02:18Z</time>
      </trkpt>
      <trkpt lat="42.79011" lon="0.77637">
        <ele>2351.1</ele>
        <time>2018-11-24T10:02:20Z</time>
      </trkpt>
      <trkpt lat="42.79012" lon="0.77632">
        <ele>2350.9</ele>
        <time>2018-11-24T10:02:21Z</time>
      </trkpt>
      <trkpt lat="42.79013" lon="0.77627">
        <ele>2350.8</ele>
        <time>2018-11-24T10:02:23Z</time>
      </trkpt>
      <trkpt lat="42.79014" lon="0.77622">
        <ele>2350.8</ele>
        <time>2018-11-24T10:02:24Z</time>
      </trkpt>
      <trkpt lat="42.79016" lon="0.77617">
        <ele>2350.5</ele>
        <time>2018-11-24T10:02:26Z</time>
      </trkpt>
      <trkpt lat="42.79017" lon="0.77612">
        <ele>2350.2</ele>
        <time>2018-11-24T10:02:27Z</time>
      </trkpt>
      <trkpt lat="42.79019" lon="0.77607">
        <ele>2350.2</ele>
        <time>2018-11-24T10:02:29Z</time>
      </trkpt>
      <trkpt lat="42.7902" lon="0.77602">
        <ele>2350.3</ele>
        <time>2018-11-24T10:02:31Z</time>
      </trkpt>
      <trkpt lat="42.79022" lon="0.77596">
        <ele>2350.3</ele>
        <time>2018-11-24T10:02:32Z</time>
      </trkpt>
      <trkpt lat="42.79023" lon="0.77591">
        <ele>2350.5</ele>
        <time>2018-11-24T10:02:34Z</time>
      </trkpt>
      <trkpt lat="42.79025" lon="0.77585">
        <ele>2350.7</ele>
        <time>2018-11-24T10:02:36Z</time>
      </trkpt>
      <trkpt lat="42.79026" lon="0.7758">
        <ele>2350.7</ele>
        <time>2018-11-24T10:02:37Z</time>
      </trkpt>
      <trkpt lat="42.79027" lon="0.77575">
        <ele>2350.7</ele>
        <time>2018-11-24T10:02:39Z</time>
      </trkpt>
      <trkpt lat="42.79028" lon="0.7757">
        <ele>2350.3</ele>
        <time>2018-11-24T10:02:40Z</time>
      </trkpt>
      <trkpt lat="42.79029" lon="0.77565">
        <ele>2349.7</ele>
        <time>2018-11-24T10:02:42Z</time>
      </trkpt>
      <trkpt lat="42.7903" lon="0.77559">
        <ele>2349.5</ele>
        <time>2018-11-24T10:02:44Z</time>
      </trkpt>
      <trkpt lat="42.7903" lon="0.77553">
        <ele>2349.4</ele>
        <time>2018-11-24T10:02:46Z</time>
      </trkpt>
      <trkpt lat="42.79031" lon="0.77547">
        <ele>2349.4</ele>
        <time>2018-11-24T10:02:47Z</time>
      </trkpt>
      <trkpt lat="42.79031" lon="0.77542">
        <ele>2349.7</ele>
        <time>2018-11-24T10:02:49Z</time>
      </trkpt>
      <trkpt lat="42.79031" lon="0.77536">
        <ele>2350.1</ele>
        <time>2018-11-24T10:02:51Z</time>
      </trkpt>
      <trkpt lat="42.79031" lon="0.77531">
        <ele>2350.5</ele>
        <time>2018-11-24T10:02:52Z</time>
      </trkpt>
      <trkpt lat="42.79031" lon="0.77526">
        <ele>2350.7</ele>
        <time>2018-11-24T10:02:54Z</time>
      </trkpt>
      <trkpt lat="42.79032" lon="0.77521">
        <ele>2350.5</ele>
        <time>2018-11-24T10:02:55Z</time>
      </trkpt>
      <trkpt lat="42.79032" lon="0.77516">
        <ele>2350.3</ele>
        <time>2018-11-24T10:02:56Z</time>
      </trkpt>
      <trkpt lat="42.79032" lon="0.77511">
        <ele>2350.5</ele>
        <time>2018-11-24T10:02:58Z</time>
      </trkpt>
      <trkpt lat="42.79032" lon="0.77506">
        <ele>2350.6</ele>
        <time>2018-11-24T10:02:59Z</time>
      </trkpt>
      <trkpt lat="42.79034" lon="0.77504">
        <ele>2349.6</ele>
        <time>2018-11-24T10:03:00Z</time>
      </trkpt>
      <trkpt lat="42.79035" lon="0.77501">
        <ele>2348.6</ele>
        <time>2018-11-24T10:03:01Z</time>
      </trkpt>
      <trkpt lat="42.79039" lon="0.77501">
        <ele>2345.6</ele>
        <time>2018-11-24T10:03:03Z</time>
      </trkpt>
      <trkpt lat="42.79041" lon="0.77505">
        <ele>2344.2</ele>
        <time>2018-11-24T10:03:04Z</time>
      </trkpt>
      <trkpt lat="42.79043" lon="0.77509">
        <ele>2342.7</ele>
        <time>2018-11-24T10:03:06Z</time>
      </trkpt>
      <trkpt lat="42.79044" lon="0.77513">
        <ele>2341.4</ele>
        <time>2018-11-24T10:03:07Z</time>
      </trkpt>
      <trkpt lat="42.79046" lon="0.77517">
        <ele>2340.1</ele>
        <time>2018-11-24T10:03:08Z</time>
      </trkpt>
      <trkpt lat="42.79049" lon="0.7752">
        <ele>2337.8</ele>
        <time>2018-11-24T10:03:10Z</time>
      </trkpt>
      <trkpt lat="42.79052" lon="0.77524">
        <ele>2335.6</ele>
        <time>2018-11-24T10:03:12Z</time>
      </trkpt>
      <trkpt lat="42.79055" lon="0.77527">
        <ele>2333.5</ele>
        <time>2018-11-24T10:03:13Z</time>
      </trkpt>
      <trkpt lat="42.79059" lon="0.77527">
        <ele>2330</ele>
        <time>2018-11-24T10:03:15Z</time>
      </trkpt>
      <trkpt lat="42.79064" lon="0.77527">
        <ele>2326.3</ele>
        <time>2018-11-24T10:03:17Z</time>
      </trkpt>
      <trkpt lat="42.79068" lon="0.77527">
        <ele>2322.7</ele>
        <time>2018-11-24T10:03:18Z</time>
      </trkpt>
      <trkpt lat="42.79071" lon="0.77527">
        <ele>2320.7</ele>
        <time>2018-11-24T10:03:19Z</time>
      </trkpt>
      <trkpt lat="42.79073" lon="0.77526">
        <ele>2318.5</ele>
        <time>2018-11-24T10:03:20Z</time>
      </trkpt>
      <trkpt lat="42.79077" lon="0.77524">
        <ele>2315.1</ele>
        <time>2018-11-24T10:03:22Z</time>
      </trkpt>
      <trkpt lat="42.79081" lon="0.77522">
        <ele>2311.6</ele>
        <time>2018-11-24T10:03:24Z</time>
      </trkpt>
      <trkpt lat="42.79085" lon="0.77519">
        <ele>2308.5</ele>
        <time>2018-11-24T10:03:25Z</time>
      </trkpt>
      <trkpt lat="42.79088" lon="0.77515">
        <ele>2305.6</ele>
        <time>2018-11-24T10:03:27Z</time>
      </trkpt>
      <trkpt lat="42.79092" lon="0.77512">
        <ele>2302.7</ele>
        <time>2018-11-24T10:03:29Z</time>
      </trkpt>
      <trkpt lat="42.79095" lon="0.77508">
        <ele>2299.9</ele>
        <time>2018-11-24T10:03:31Z</time>
      </trkpt>
      <trkpt lat="42.79099" lon="0.77507">
        <ele>2297.4</ele>
        <time>2018-11-24T10:03:32Z</time>
      </trkpt>
      <trkpt lat="42.79102" lon="0.77505">
        <ele>2294.8</ele>
        <time>2018-11-24T10:03:34Z</time>
      </trkpt>
      <trkpt lat="42.79105" lon="0.77509">
        <ele>2292.3</ele>
        <time>2018-11-24T10:03:35Z</time>
      </trkpt>
      <trkpt lat="42.79109" lon="0.77512">
        <ele>2289.8</ele>
        <time>2018-11-24T10:03:37Z</time>
      </trkpt>
      <trkpt lat="42.79112" lon="0.77516">
        <ele>2287.5</ele>
        <time>2018-11-24T10:03:39Z</time>
      </trkpt>
      <trkpt lat="42.79115" lon="0.7752">
        <ele>2285.9</ele>
        <time>2018-11-24T10:03:40Z</time>
      </trkpt>
      <trkpt lat="42.79117" lon="0.77524">
        <ele>2284.4</ele>
        <time>2018-11-24T10:03:42Z</time>
      </trkpt>
      <trkpt lat="42.7912" lon="0.77527">
        <ele>2282.9</ele>
        <time>2018-11-24T10:03:43Z</time>
      </trkpt>
      <trkpt lat="42.79122" lon="0.77531">
        <ele>2281.7</ele>
        <time>2018-11-24T10:03:45Z</time>
      </trkpt>
      <trkpt lat="42.79125" lon="0.77534">
        <ele>2280.5</ele>
        <time>2018-11-24T10:03:46Z</time>
      </trkpt>
      <trkpt lat="42.79127" lon="0.77537">
        <ele>2279.1</ele>
        <time>2018-11-24T10:03:47Z</time>
      </trkpt>
      <trkpt lat="42.7913" lon="0.77542">
        <ele>2277.8</ele>
        <time>2018-11-24T10:03:49Z</time>
      </trkpt>
      <trkpt lat="42.79132" lon="0.77546">
        <ele>2276.6</ele>
        <time>2018-11-24T10:03:51Z</time>
      </trkpt>
      <trkpt lat="42.79135" lon="0.77551">
        <ele>2275.2</ele>
        <time>2018-11-24T10:03:53Z</time>
      </trkpt>
      <trkpt lat="42.79139" lon="0.77553">
        <ele>2273.1</ele>
        <time>2018-11-24T10:03:54Z</time>
      </trkpt>
      <trkpt lat="42.79142" lon="0.77554">
        <ele>2272.6</ele>
        <time>2018-11-24T10:03:55Z</time>
      </trkpt>
      <trkpt lat="42.79144" lon="0.77551">
        <ele>2272.3</ele>
        <time>2018-11-24T10:03:57Z</time>
      </trkpt>
      <trkpt lat="42.79147" lon="0.77549">
        <ele>2271.7</ele>
        <time>2018-11-24T10:03:58Z</time>
      </trkpt>
      <trkpt lat="42.79149" lon="0.77546">
        <ele>2271.1</ele>
        <time>2018-11-24T10:03:59Z</time>
      </trkpt>
      <trkpt lat="42.79152" lon="0.77543">
        <ele>2270</ele>
        <time>2018-11-24T10:04:01Z</time>
      </trkpt>
      <trkpt lat="42.79155" lon="0.77539">
        <ele>2269.1</ele>
        <time>2018-11-24T10:04:02Z</time>
      </trkpt>
      <trkpt lat="42.79158" lon="0.77536">
        <ele>2267.9</ele>
        <time>2018-11-24T10:04:04Z</time>
      </trkpt>
      <trkpt lat="42.79162" lon="0.77534">
        <ele>2266.6</ele>
        <time>2018-11-24T10:04:05Z</time>
      </trkpt>
      <trkpt lat="42.79165" lon="0.77531">
        <ele>2265.2</ele>
        <time>2018-11-24T10:04:07Z</time>
      </trkpt>
      <trkpt lat="42.79168" lon="0.77526">
        <ele>2263.7</ele>
        <time>2018-11-24T10:04:09Z</time>
      </trkpt>
      <trkpt lat="42.7917" lon="0.77521">
        <ele>2263</ele>
        <time>2018-11-24T10:04:11Z</time>
      </trkpt>
      <trkpt lat="42.79172" lon="0.77517">
        <ele>2262.3</ele>
        <time>2018-11-24T10:04:12Z</time>
      </trkpt>
      <trkpt lat="42.79174" lon="0.77514">
        <ele>2261.9</ele>
        <time>2018-11-24T10:04:13Z</time>
      </trkpt>
      <trkpt lat="42.79176" lon="0.7751">
        <ele>2261.2</ele>
        <time>2018-11-24T10:04:15Z</time>
      </trkpt>
      <trkpt lat="42.79176" lon="0.77505">
        <ele>2259.9</ele>
        <time>2018-11-24T10:04:16Z</time>
      </trkpt>
      <trkpt lat="42.79177" lon="0.775">
        <ele>2258.5</ele>
        <time>2018-11-24T10:04:17Z</time>
      </trkpt>
      <trkpt lat="42.79177" lon="0.77495">
        <ele>2257.6</ele>
        <time>2018-11-24T10:04:19Z</time>
      </trkpt>
      <trkpt lat="42.79177" lon="0.7749">
        <ele>2256.4</ele>
        <time>2018-11-24T10:04:20Z</time>
      </trkpt>
      <trkpt lat="42.79177" lon="0.77485">
        <ele>2255.2</ele>
        <time>2018-11-24T10:04:22Z</time>
      </trkpt>
      <trkpt lat="42.79177" lon="0.7748">
        <ele>2254.1</ele>
        <time>2018-11-24T10:04:23Z</time>
      </trkpt>
      <trkpt lat="42.79177" lon="0.77475">
        <ele>2253</ele>
        <time>2018-11-24T10:04:25Z</time>
      </trkpt>
      <trkpt lat="42.79177" lon="0.7747">
        <ele>2251.4</ele>
        <time>2018-11-24T10:04:26Z</time>
      </trkpt>
      <trkpt lat="42.79177" lon="0.77464">
        <ele>2249.7</ele>
        <time>2018-11-24T10:04:28Z</time>
      </trkpt>
      <trkpt lat="42.79178" lon="0.7746">
        <ele>2248.2</ele>
        <time>2018-11-24T10:04:29Z</time>
      </trkpt>
      <trkpt lat="42.79179" lon="0.77455">
        <ele>2246.7</ele>
        <time>2018-11-24T10:04:31Z</time>
      </trkpt>
      <trkpt lat="42.79179" lon="0.77451">
        <ele>2245.4</ele>
        <time>2018-11-24T10:04:32Z</time>
      </trkpt>
      <trkpt lat="42.7918" lon="0.77446">
        <ele>2243.9</ele>
        <time>2018-11-24T10:04:33Z</time>
      </trkpt>
      <trkpt lat="42.79179" lon="0.7744">
        <ele>2241.5</ele>
        <time>2018-11-24T10:04:35Z</time>
      </trkpt>
      <trkpt lat="42.79178" lon="0.77435">
        <ele>2238.7</ele>
        <time>2018-11-24T10:04:37Z</time>
      </trkpt>
      <trkpt lat="42.79177" lon="0.77429">
        <ele>2235.8</ele>
        <time>2018-11-24T10:04:39Z</time>
      </trkpt>
      <trkpt lat="42.79175" lon="0.77425">
        <ele>2233.3</ele>
        <time>2018-11-24T10:04:40Z</time>
      </trkpt>
      <trkpt lat="42.79173" lon="0.77421">
        <ele>2230.4</ele>
        <time>2018-11-24T10:04:42Z</time>
      </trkpt>
      <trkpt lat="42.79171" lon="0.77416">
        <ele>2227.5</ele>
        <time>2018-11-24T10:04:43Z</time>
      </trkpt>
      <trkpt lat="42.79169" lon="0.77412">
        <ele>2224.5</ele>
        <time>2018-11-24T10:04:45Z</time>
      </trkpt>
      <trkpt lat="42.79167" lon="0.77407">
        <ele>2221.5</ele>
        <time>2018-11-24T10:04:46Z</time>
      </trkpt>
      <trkpt lat="42.79165" lon="0.77403">
        <ele>2219.5</ele>
        <time>2018-11-24T10:04:48Z</time>
      </trkpt>
      <trkpt lat="42.79163" lon="0.77398">
        <ele>2217.7</ele>
        <time>2018-11-24T10:04:49Z</time>
      </trkpt>
      <trkpt lat="42.7916" lon="0.77396">
        <ele>2217.8</ele>
        <time>2018-11-24T10:04:51Z</time>
      </trkpt>
      <trkpt lat="42.79156" lon="0.77395">
        <ele>2217.8</ele>
        <time>2018-11-24T10:04:52Z</time>
      </trkpt>
      <trkpt lat="42.79153" lon="0.77393">
        <ele>2218</ele>
        <time>2018-11-24T10:04:54Z</time>
      </trkpt>
      <trkpt lat="42.79152" lon="0.7739">
        <ele>2216.7</ele>
        <time>2018-11-24T10:04:55Z</time>
      </trkpt>
      <trkpt lat="42.7915" lon="0.77386">
        <ele>2214.7</ele>
        <time>2018-11-24T10:04:56Z</time>
      </trkpt>
      <trkpt lat="42.79152" lon="0.77382">
        <ele>2211.4</ele>
        <time>2018-11-24T10:04:57Z</time>
      </trkpt>
      <trkpt lat="42.79155" lon="0.77379">
        <ele>2208.2</ele>
        <time>2018-11-24T10:04:59Z</time>
      </trkpt>
      <trkpt lat="42.79157" lon="0.77375">
        <ele>2204.9</ele>
        <time>2018-11-24T10:05:00Z</time>
      </trkpt>
      <trkpt lat="42.7916" lon="0.77373">
        <ele>2202.6</ele>
        <time>2018-11-24T10:05:02Z</time>
      </trkpt>
      <trkpt lat="42.79163" lon="0.7737">
        <ele>2200.3</ele>
        <time>2018-11-24T10:05:03Z</time>
      </trkpt>
      <trkpt lat="42.79166" lon="0.77368">
        <ele>2198</ele>
        <time>2018-11-24T10:05:04Z</time>
      </trkpt>
      <trkpt lat="42.79165" lon="0.77364">
        <ele>2195</ele>
        <time>2018-11-24T10:05:06Z</time>
      </trkpt>
      <trkpt lat="42.79164" lon="0.77359">
        <ele>2192.5</ele>
        <time>2018-11-24T10:05:07Z</time>
      </trkpt>
      <trkpt lat="42.79162" lon="0.77354">
        <ele>2190</ele>
        <time>2018-11-24T10:05:09Z</time>
      </trkpt>
      <trkpt lat="42.79161" lon="0.77349">
        <ele>2187.5</ele>
        <time>2018-11-24T10:05:10Z</time>
      </trkpt>
      <trkpt lat="42.79159" lon="0.77344">
        <ele>2185</ele>
        <time>2018-11-24T10:05:12Z</time>
      </trkpt>
      <trkpt lat="42.79157" lon="0.7734">
        <ele>2183</ele>
        <time>2018-11-24T10:05:13Z</time>
      </trkpt>
      <trkpt lat="42.79156" lon="0.77337">
        <ele>2181.2</ele>
        <time>2018-11-24T10:05:15Z</time>
      </trkpt>
      <trkpt lat="42.79154" lon="0.77333">
        <ele>2179.2</ele>
        <time>2018-11-24T10:05:16Z</time>
      </trkpt>
      <trkpt lat="42.79154" lon="0.77329">
        <ele>2177.6</ele>
        <time>2018-11-24T10:05:17Z</time>
      </trkpt>
      <trkpt lat="42.79153" lon="0.77324">
        <ele>2176</ele>
        <time>2018-11-24T10:05:18Z</time>
      </trkpt>
      <trkpt lat="42.79153" lon="0.77319">
        <ele>2174.2</ele>
        <time>2018-11-24T10:05:20Z</time>
      </trkpt>
      <trkpt lat="42.79152" lon="0.77315">
        <ele>2172.5</ele>
        <time>2018-11-24T10:05:21Z</time>
      </trkpt>
      <trkpt lat="42.79152" lon="0.7731">
        <ele>2170.9</ele>
        <time>2018-11-24T10:05:23Z</time>
      </trkpt>
      <trkpt lat="42.7915" lon="0.77306">
        <ele>2169.6</ele>
        <time>2018-11-24T10:05:24Z</time>
      </trkpt>
      <trkpt lat="42.79149" lon="0.77301">
        <ele>2169.1</ele>
        <time>2018-11-24T10:05:25Z</time>
      </trkpt>
      <trkpt lat="42.79147" lon="0.77297">
        <ele>2168.8</ele>
        <time>2018-11-24T10:05:27Z</time>
      </trkpt>
      <trkpt lat="42.79146" lon="0.77294">
        <ele>2168.4</ele>
        <time>2018-11-24T10:05:28Z</time>
      </trkpt>
      <trkpt lat="42.79145" lon="0.7729">
        <ele>2167.9</ele>
        <time>2018-11-24T10:05:29Z</time>
      </trkpt>
      <trkpt lat="42.79144" lon="0.77286">
        <ele>2167.6</ele>
        <time>2018-11-24T10:05:30Z</time>
      </trkpt>
      <trkpt lat="42.79142" lon="0.77282">
        <ele>2167.1</ele>
        <time>2018-11-24T10:05:32Z</time>
      </trkpt>
      <trkpt lat="42.79141" lon="0.77277">
        <ele>2166.5</ele>
        <time>2018-11-24T10:05:33Z</time>
      </trkpt>
      <trkpt lat="42.79139" lon="0.77271">
        <ele>2166.1</ele>
        <time>2018-11-24T10:05:35Z</time>
      </trkpt>
      <trkpt lat="42.79138" lon="0.77266">
        <ele>2165.7</ele>
        <time>2018-11-24T10:05:37Z</time>
      </trkpt>
      <trkpt lat="42.79137" lon="0.77261">
        <ele>2165.4</ele>
        <time>2018-11-24T10:05:38Z</time>
      </trkpt>
      <trkpt lat="42.79136" lon="0.77256">
        <ele>2165.1</ele>
        <time>2018-11-24T10:05:40Z</time>
      </trkpt>
      <trkpt lat="42.79135" lon="0.77251">
        <ele>2164.8</ele>
        <time>2018-11-24T10:05:41Z</time>
      </trkpt>
      <trkpt lat="42.79135" lon="0.77245">
        <ele>2163.9</ele>
        <time>2018-11-24T10:05:43Z</time>
      </trkpt>
      <trkpt lat="42.79136" lon="0.7724">
        <ele>2163.2</ele>
        <time>2018-11-24T10:05:45Z</time>
      </trkpt>
      <trkpt lat="42.79136" lon="0.77234">
        <ele>2162.5</ele>
        <time>2018-11-24T10:05:46Z</time>
      </trkpt>
      <trkpt lat="42.79135" lon="0.77228">
        <ele>2162.1</ele>
        <time>2018-11-24T10:05:48Z</time>
      </trkpt>
      <trkpt lat="42.79135" lon="0.77223">
        <ele>2161.7</ele>
        <time>2018-11-24T10:05:50Z</time>
      </trkpt>
      <trkpt lat="42.79134" lon="0.77217">
        <ele>2161.3</ele>
        <time>2018-11-24T10:05:51Z</time>
      </trkpt>
      <trkpt lat="42.79133" lon="0.77214">
        <ele>2161.5</ele>
        <time>2018-11-24T10:05:53Z</time>
      </trkpt>
      <trkpt lat="42.79131" lon="0.7721">
        <ele>2161.7</ele>
        <time>2018-11-24T10:05:54Z</time>
      </trkpt>
      <trkpt lat="42.79131" lon="0.77205">
        <ele>2161.5</ele>
        <time>2018-11-24T10:05:55Z</time>
      </trkpt>
      <trkpt lat="42.7913" lon="0.77199">
        <ele>2161</ele>
        <time>2018-11-24T10:05:57Z</time>
      </trkpt>
      <trkpt lat="42.79129" lon="0.77194">
        <ele>2161</ele>
        <time>2018-11-24T10:05:59Z</time>
      </trkpt>
      <trkpt lat="42.79127" lon="0.77188">
        <ele>2161.3</ele>
        <time>2018-11-24T10:06:00Z</time>
      </trkpt>
      <trkpt lat="42.79127" lon="0.77182">
        <ele>2161.2</ele>
        <time>2018-11-24T10:06:02Z</time>
      </trkpt>
      <trkpt lat="42.79126" lon="0.77176">
        <ele>2161.1</ele>
        <time>2018-11-24T10:06:04Z</time>
      </trkpt>
      <trkpt lat="42.79125" lon="0.77171">
        <ele>2161.2</ele>
        <time>2018-11-24T10:06:06Z</time>
      </trkpt>
      <trkpt lat="42.79124" lon="0.77165">
        <ele>2161.5</ele>
        <time>2018-11-24T10:06:07Z</time>
      </trkpt>
      <trkpt lat="42.79123" lon="0.7716">
        <ele>2162.5</ele>
        <time>2018-11-24T10:06:09Z</time>
      </trkpt>
      <trkpt lat="42.79121" lon="0.77156">
        <ele>2163.7</ele>
        <time>2018-11-24T10:06:10Z</time>
      </trkpt>
      <trkpt lat="42.79119" lon="0.77151">
        <ele>2164.8</ele>
        <time>2018-11-24T10:06:12Z</time>
      </trkpt>
      <trkpt lat="42.79119" lon="0.77146">
        <ele>2165.4</ele>
        <time>2018-11-24T10:06:13Z</time>
      </trkpt>
      <trkpt lat="42.79119" lon="0.77144">
        <ele>2165.7</ele>
        <time>2018-11-24T10:06:14Z</time>
      </trkpt>
      <trkpt lat="42.79116" lon="0.77142">
        <ele>2166.5</ele>
        <time>2018-11-24T10:06:15Z</time>
      </trkpt>
      <trkpt lat="42.79114" lon="0.77139">
        <ele>2167.4</ele>
        <time>2018-11-24T10:06:16Z</time>
      </trkpt>
      <trkpt lat="42.79113" lon="0.77135">
        <ele>2168.5</ele>
        <time>2018-11-24T10:06:18Z</time>
      </trkpt>
      <trkpt lat="42.79111" lon="0.7713">
        <ele>2169.7</ele>
        <time>2018-11-24T10:06:19Z</time>
      </trkpt>
      <trkpt lat="42.7911" lon="0.77127">
        <ele>2170.9</ele>
        <time>2018-11-24T10:06:20Z</time>
      </trkpt>
      <trkpt lat="42.79109" lon="0.77123">
        <ele>2171.9</ele>
        <time>2018-11-24T10:06:21Z</time>
      </trkpt>
      <trkpt lat="42.79109" lon="0.77119">
        <ele>2173</ele>
        <time>2018-11-24T10:06:23Z</time>
      </trkpt>
      <trkpt lat="42.79108" lon="0.77114">
        <ele>2174.1</ele>
        <time>2018-11-24T10:06:24Z</time>
      </trkpt>
      <trkpt lat="42.79107" lon="0.7711">
        <ele>2175.3</ele>
        <time>2018-11-24T10:06:25Z</time>
      </trkpt>
      <trkpt lat="42.79106" lon="0.77106">
        <ele>2176.6</ele>
        <time>2018-11-24T10:06:27Z</time>
      </trkpt>
      <trkpt lat="42.79105" lon="0.77101">
        <ele>2178.1</ele>
        <time>2018-11-24T10:06:28Z</time>
      </trkpt>
      <trkpt lat="42.79103" lon="0.77097">
        <ele>2179.7</ele>
        <time>2018-11-24T10:06:30Z</time>
      </trkpt>
      <trkpt lat="42.79102" lon="0.77092">
        <ele>2181.1</ele>
        <time>2018-11-24T10:06:31Z</time>
      </trkpt>
      <trkpt lat="42.791" lon="0.77088">
        <ele>2182.7</ele>
        <time>2018-11-24T10:06:33Z</time>
      </trkpt>
      <trkpt lat="42.79098" lon="0.77084">
        <ele>2184.5</ele>
        <time>2018-11-24T10:06:34Z</time>
      </trkpt>
      <trkpt lat="42.79095" lon="0.77079">
        <ele>2186.7</ele>
        <time>2018-11-24T10:06:36Z</time>
      </trkpt>
      <trkpt lat="42.79093" lon="0.77075">
        <ele>2188.8</ele>
        <time>2018-11-24T10:06:37Z</time>
      </trkpt>
      <trkpt lat="42.79091" lon="0.7707">
        <ele>2190.9</ele>
        <time>2018-11-24T10:06:39Z</time>
      </trkpt>
      <trkpt lat="42.7909" lon="0.77064">
        <ele>2193</ele>
        <time>2018-11-24T10:06:41Z</time>
      </trkpt>
      <trkpt lat="42.79088" lon="0.77059">
        <ele>2195</ele>
        <time>2018-11-24T10:06:42Z</time>
      </trkpt>
      <trkpt lat="42.79087" lon="0.77054">
        <ele>2196.4</ele>
        <time>2018-11-24T10:06:44Z</time>
      </trkpt>
      <trkpt lat="42.79087" lon="0.7705">
        <ele>2197.9</ele>
        <time>2018-11-24T10:06:45Z</time>
      </trkpt>
      <trkpt lat="42.79086" lon="0.77045">
        <ele>2199.6</ele>
        <time>2018-11-24T10:06:46Z</time>
      </trkpt>
      <trkpt lat="42.79085" lon="0.77039">
        <ele>2201.5</ele>
        <time>2018-11-24T10:06:48Z</time>
      </trkpt>
      <trkpt lat="42.79085" lon="0.77033">
        <ele>2203.3</ele>
        <time>2018-11-24T10:06:50Z</time>
      </trkpt>
      <trkpt lat="42.79084" lon="0.77028">
        <ele>2204.9</ele>
        <time>2018-11-24T10:06:52Z</time>
      </trkpt>
      <trkpt lat="42.79084" lon="0.77022">
        <ele>2206.3</ele>
        <time>2018-11-24T10:06:53Z</time>
      </trkpt>
      <trkpt lat="42.79083" lon="0.77016">
        <ele>2207.9</ele>
        <time>2018-11-24T10:06:55Z</time>
      </trkpt>
      <trkpt lat="42.79082" lon="0.77012">
        <ele>2209.2</ele>
        <time>2018-11-24T10:06:56Z</time>
      </trkpt>
      <trkpt lat="42.79082" lon="0.77008">
        <ele>2210.4</ele>
        <time>2018-11-24T10:06:57Z</time>
      </trkpt>
      <trkpt lat="42.79081" lon="0.77004">
        <ele>2211.6</ele>
        <time>2018-11-24T10:06:59Z</time>
      </trkpt>
      <trkpt lat="42.79081" lon="0.76998">
        <ele>2212.9</ele>
        <time>2018-11-24T10:07:00Z</time>
      </trkpt>
      <trkpt lat="42.7908" lon="0.76993">
        <ele>2214.1</ele>
        <time>2018-11-24T10:07:02Z</time>
      </trkpt>
      <trkpt lat="42.7908" lon="0.76987">
        <ele>2215.3</ele>
        <time>2018-11-24T10:07:04Z</time>
      </trkpt>
      <trkpt lat="42.7908" lon="0.76982">
        <ele>2216.5</ele>
        <time>2018-11-24T10:07:05Z</time>
      </trkpt>
      <trkpt lat="42.7908" lon="0.76977">
        <ele>2217.7</ele>
        <time>2018-11-24T10:07:07Z</time>
      </trkpt>
      <trkpt lat="42.79079" lon="0.76971">
        <ele>2218.7</ele>
        <time>2018-11-24T10:07:08Z</time>
      </trkpt>
      <trkpt lat="42.79079" lon="0.76966">
        <ele>2219.7</ele>
        <time>2018-11-24T10:07:10Z</time>
      </trkpt>
      <trkpt lat="42.79079" lon="0.76961">
        <ele>2220.9</ele>
        <time>2018-11-24T10:07:11Z</time>
      </trkpt>
      <trkpt lat="42.79078" lon="0.76956">
        <ele>2222</ele>
        <time>2018-11-24T10:07:13Z</time>
      </trkpt>
      <trkpt lat="42.79078" lon="0.76951">
        <ele>2223</ele>
        <time>2018-11-24T10:07:14Z</time>
      </trkpt>
      <trkpt lat="42.79077" lon="0.76947">
        <ele>2224.3</ele>
        <time>2018-11-24T10:07:16Z</time>
      </trkpt>
      <trkpt lat="42.79076" lon="0.76942">
        <ele>2225.8</ele>
        <time>2018-11-24T10:07:17Z</time>
      </trkpt>
      <trkpt lat="42.79075" lon="0.76938">
        <ele>2227</ele>
        <time>2018-11-24T10:07:18Z</time>
      </trkpt>
      <trkpt lat="42.79074" lon="0.76933">
        <ele>2228.3</ele>
        <time>2018-11-24T10:07:20Z</time>
      </trkpt>
      <trkpt lat="42.79073" lon="0.76928">
        <ele>2229.6</ele>
        <time>2018-11-24T10:07:21Z</time>
      </trkpt>
      <trkpt lat="42.79072" lon="0.76923">
        <ele>2231</ele>
        <time>2018-11-24T10:07:23Z</time>
      </trkpt>
      <trkpt lat="42.79069" lon="0.76919">
        <ele>2232.7</ele>
        <time>2018-11-24T10:07:24Z</time>
      </trkpt>
      <trkpt lat="42.79066" lon="0.76915">
        <ele>2234.6</ele>
        <time>2018-11-24T10:07:26Z</time>
      </trkpt>
      <trkpt lat="42.79064" lon="0.76912">
        <ele>2236.3</ele>
        <time>2018-11-24T10:07:28Z</time>
      </trkpt>
      <trkpt lat="42.79061" lon="0.76908">
        <ele>2237.6</ele>
        <time>2018-11-24T10:07:29Z</time>
      </trkpt>
      <trkpt lat="42.79058" lon="0.76904">
        <ele>2238.9</ele>
        <time>2018-11-24T10:07:31Z</time>
      </trkpt>
      <trkpt lat="42.79056" lon="0.769">
        <ele>2239.5</ele>
        <time>2018-11-24T10:07:32Z</time>
      </trkpt>
      <trkpt lat="42.79054" lon="0.76897">
        <ele>2240.9</ele>
        <time>2018-11-24T10:07:34Z</time>
      </trkpt>
      <trkpt lat="42.79052" lon="0.76893">
        <ele>2242.4</ele>
        <time>2018-11-24T10:07:35Z</time>
      </trkpt>
      <trkpt lat="42.7905" lon="0.76889">
        <ele>2243.8</ele>
        <time>2018-11-24T10:07:36Z</time>
      </trkpt>
      <trkpt lat="42.79048" lon="0.76885">
        <ele>2245.9</ele>
        <time>2018-11-24T10:07:38Z</time>
      </trkpt>
      <trkpt lat="42.79047" lon="0.76881">
        <ele>2247.9</ele>
        <time>2018-11-24T10:07:39Z</time>
      </trkpt>
      <trkpt lat="42.79045" lon="0.76877">
        <ele>2249.8</ele>
        <time>2018-11-24T10:07:40Z</time>
      </trkpt>
      <trkpt lat="42.79043" lon="0.76873">
        <ele>2251.5</ele>
        <time>2018-11-24T10:07:42Z</time>
      </trkpt>
      <trkpt lat="42.7904" lon="0.76869">
        <ele>2253.5</ele>
        <time>2018-11-24T10:07:43Z</time>
      </trkpt>
      <trkpt lat="42.79037" lon="0.76864">
        <ele>2255.5</ele>
        <time>2018-11-24T10:07:45Z</time>
      </trkpt>
      <trkpt lat="42.79034" lon="0.7686">
        <ele>2257.2</ele>
        <time>2018-11-24T10:07:47Z</time>
      </trkpt>
      <trkpt lat="42.79031" lon="0.76855">
        <ele>2259.2</ele>
        <time>2018-11-24T10:07:49Z</time>
      </trkpt>
      <trkpt lat="42.79028" lon="0.76852">
        <ele>2260.6</ele>
        <time>2018-11-24T10:07:50Z</time>
      </trkpt>
      <trkpt lat="42.79025" lon="0.76848">
        <ele>2262.5</ele>
        <time>2018-11-24T10:07:52Z</time>
      </trkpt>
      <trkpt lat="42.79023" lon="0.76845">
        <ele>2264</ele>
        <time>2018-11-24T10:07:53Z</time>
      </trkpt>
      <trkpt lat="42.7902" lon="0.76841">
        <ele>2265.4</ele>
        <time>2018-11-24T10:07:55Z</time>
      </trkpt>
      <trkpt lat="42.79017" lon="0.76838">
        <ele>2266.5</ele>
        <time>2018-11-24T10:07:56Z</time>
      </trkpt>
      <trkpt lat="42.79013" lon="0.76835">
        <ele>2267.7</ele>
        <time>2018-11-24T10:07:58Z</time>
      </trkpt>
      <trkpt lat="42.7901" lon="0.76831">
        <ele>2269.1</ele>
        <time>2018-11-24T10:08:00Z</time>
      </trkpt>
      <trkpt lat="42.79006" lon="0.76828">
        <ele>2270.5</ele>
        <time>2018-11-24T10:08:02Z</time>
      </trkpt>
      <trkpt lat="42.79002" lon="0.76824">
        <ele>2271.8</ele>
        <time>2018-11-24T10:08:04Z</time>
      </trkpt>
      <trkpt lat="42.78999" lon="0.76821">
        <ele>2272.2</ele>
        <time>2018-11-24T10:08:05Z</time>
      </trkpt>
      <trkpt lat="42.78995" lon="0.76817">
        <ele>2271.7</ele>
        <time>2018-11-24T10:08:07Z</time>
      </trkpt>
      <trkpt lat="42.78991" lon="0.76816">
        <ele>2270.5</ele>
        <time>2018-11-24T10:08:09Z</time>
      </trkpt>
      <trkpt lat="42.78987" lon="0.76816">
        <ele>2269.5</ele>
        <time>2018-11-24T10:08:11Z</time>
      </trkpt>
      <trkpt lat="42.78982" lon="0.76815">
        <ele>2268.1</ele>
        <time>2018-11-24T10:08:12Z</time>
      </trkpt>
      <trkpt lat="42.78978" lon="0.76814">
        <ele>2266.7</ele>
        <time>2018-11-24T10:08:14Z</time>
      </trkpt>
      <trkpt lat="42.78974" lon="0.76813">
        <ele>2265.3</ele>
        <time>2018-11-24T10:08:16Z</time>
      </trkpt>
      <trkpt lat="42.7897" lon="0.76812">
        <ele>2263.1</ele>
        <time>2018-11-24T10:08:17Z</time>
      </trkpt>
      <trkpt lat="42.78965" lon="0.76811">
        <ele>2260.9</ele>
        <time>2018-11-24T10:08:19Z</time>
      </trkpt>
      <trkpt lat="42.78961" lon="0.7681">
        <ele>2258.7</ele>
        <time>2018-11-24T10:08:21Z</time>
      </trkpt>
      <trkpt lat="42.78957" lon="0.76812">
        <ele>2257.5</ele>
        <time>2018-11-24T10:08:23Z</time>
      </trkpt>
      <trkpt lat="42.78953" lon="0.76813">
        <ele>2256.4</ele>
        <time>2018-11-24T10:08:24Z</time>
      </trkpt>
      <trkpt lat="42.78948" lon="0.76815">
        <ele>2255.4</ele>
        <time>2018-11-24T10:08:26Z</time>
      </trkpt>
      <trkpt lat="42.78944" lon="0.76816">
        <ele>2254.5</ele>
        <time>2018-11-24T10:08:28Z</time>
      </trkpt>
      <trkpt lat="42.7894" lon="0.76818">
        <ele>2253.8</ele>
        <time>2018-11-24T10:08:30Z</time>
      </trkpt>
      <trkpt lat="42.78936" lon="0.7682">
        <ele>2253.5</ele>
        <time>2018-11-24T10:08:31Z</time>
      </trkpt>
      <trkpt lat="42.78933" lon="0.76822">
        <ele>2253</ele>
        <time>2018-11-24T10:08:33Z</time>
      </trkpt>
      <trkpt lat="42.78929" lon="0.76823">
        <ele>2252.5</ele>
        <time>2018-11-24T10:08:34Z</time>
      </trkpt>
      <trkpt lat="42.78925" lon="0.76825">
        <ele>2251.7</ele>
        <time>2018-11-24T10:08:36Z</time>
      </trkpt>
      <trkpt lat="42.78921" lon="0.76825">
        <ele>2250.2</ele>
        <time>2018-11-24T10:08:38Z</time>
      </trkpt>
      <trkpt lat="42.78917" lon="0.76825">
        <ele>2248.7</ele>
        <time>2018-11-24T10:08:39Z</time>
      </trkpt>
      <trkpt lat="42.78912" lon="0.76825">
        <ele>2247.9</ele>
        <time>2018-11-24T10:08:41Z</time>
      </trkpt>
      <trkpt lat="42.78908" lon="0.76825">
        <ele>2247.1</ele>
        <time>2018-11-24T10:08:43Z</time>
      </trkpt>
      <trkpt lat="42.78904" lon="0.76826">
        <ele>2246.7</ele>
        <time>2018-11-24T10:08:44Z</time>
      </trkpt>
      <trkpt lat="42.789" lon="0.76827">
        <ele>2246.2</ele>
        <time>2018-11-24T10:08:46Z</time>
      </trkpt>
      <trkpt lat="42.78896" lon="0.76828">
        <ele>2245.9</ele>
        <time>2018-11-24T10:08:48Z</time>
      </trkpt>
      <trkpt lat="42.78892" lon="0.76829">
        <ele>2245.5</ele>
        <time>2018-11-24T10:08:49Z</time>
      </trkpt>
      <trkpt lat="42.78888" lon="0.76829">
        <ele>2245</ele>
        <time>2018-11-24T10:08:51Z</time>
      </trkpt>
      <trkpt lat="42.78884" lon="0.7683">
        <ele>2244.3</ele>
        <time>2018-11-24T10:08:52Z</time>
      </trkpt>
      <trkpt lat="42.7888" lon="0.7683">
        <ele>2243.3</ele>
        <time>2018-11-24T10:08:54Z</time>
      </trkpt>
      <trkpt lat="42.78876" lon="0.7683">
        <ele>2242.4</ele>
        <time>2018-11-24T10:08:56Z</time>
      </trkpt>
      <trkpt lat="42.78872" lon="0.7683">
        <ele>2241.3</ele>
        <time>2018-11-24T10:08:57Z</time>
      </trkpt>
      <trkpt lat="42.78868" lon="0.7683">
        <ele>2240.4</ele>
        <time>2018-11-24T10:08:59Z</time>
      </trkpt>
      <trkpt lat="42.78864" lon="0.7683">
        <ele>2239.5</ele>
        <time>2018-11-24T10:09:00Z</time>
      </trkpt>
      <trkpt lat="42.7886" lon="0.7683">
        <ele>2238.8</ele>
        <time>2018-11-24T10:09:02Z</time>
      </trkpt>
      <trkpt lat="42.78857" lon="0.76831">
        <ele>2237.7</ele>
        <time>2018-11-24T10:09:03Z</time>
      </trkpt>
      <trkpt lat="42.78853" lon="0.76831">
        <ele>2236.8</ele>
        <time>2018-11-24T10:09:05Z</time>
      </trkpt>
      <trkpt lat="42.78849" lon="0.76831">
        <ele>2235.8</ele>
        <time>2018-11-24T10:09:07Z</time>
      </trkpt>
      <trkpt lat="42.78845" lon="0.76831">
        <ele>2234.7</ele>
        <time>2018-11-24T10:09:08Z</time>
      </trkpt>
      <trkpt lat="42.7884" lon="0.76831">
        <ele>2233.5</ele>
        <time>2018-11-24T10:09:10Z</time>
      </trkpt>
      <trkpt lat="42.78836" lon="0.7683">
        <ele>2232.3</ele>
        <time>2018-11-24T10:09:12Z</time>
      </trkpt>
      <trkpt lat="42.78832" lon="0.76829">
        <ele>2231.2</ele>
        <time>2018-11-24T10:09:13Z</time>
      </trkpt>
      <trkpt lat="42.78828" lon="0.76827">
        <ele>2230.5</ele>
        <time>2018-11-24T10:09:15Z</time>
      </trkpt>
      <trkpt lat="42.78824" lon="0.76826">
        <ele>2230.1</ele>
        <time>2018-11-24T10:09:17Z</time>
      </trkpt>
      <trkpt lat="42.7882" lon="0.76825">
        <ele>2229.7</ele>
        <time>2018-11-24T10:09:18Z</time>
      </trkpt>
      <trkpt lat="42.78816" lon="0.76825">
        <ele>2229.4</ele>
        <time>2018-11-24T10:09:20Z</time>
      </trkpt>
      <trkpt lat="42.78813" lon="0.76824">
        <ele>2229.2</ele>
        <time>2018-11-24T10:09:21Z</time>
      </trkpt>
      <trkpt lat="42.78809" lon="0.76824">
        <ele>2229</ele>
        <time>2018-11-24T10:09:23Z</time>
      </trkpt>
      <trkpt lat="42.78805" lon="0.76823">
        <ele>2229</ele>
        <time>2018-11-24T10:09:24Z</time>
      </trkpt>
      <trkpt lat="42.78802" lon="0.7682">
        <ele>2230.2</ele>
        <time>2018-11-24T10:09:26Z</time>
      </trkpt>
      <trkpt lat="42.78798" lon="0.76818">
        <ele>2231.2</ele>
        <time>2018-11-24T10:09:28Z</time>
      </trkpt>
      <trkpt lat="42.78795" lon="0.76815">
        <ele>2232.6</ele>
        <time>2018-11-24T10:09:29Z</time>
      </trkpt>
      <trkpt lat="42.78791" lon="0.76812">
        <ele>2233.8</ele>
        <time>2018-11-24T10:09:31Z</time>
      </trkpt>
      <trkpt lat="42.78788" lon="0.76809">
        <ele>2235.1</ele>
        <time>2018-11-24T10:09:32Z</time>
      </trkpt>
      <trkpt lat="42.78786" lon="0.76805">
        <ele>2236.3</ele>
        <time>2018-11-24T10:09:34Z</time>
      </trkpt>
      <trkpt lat="42.78783" lon="0.76802">
        <ele>2237.7</ele>
        <time>2018-11-24T10:09:35Z</time>
      </trkpt>
      <trkpt lat="42.7878" lon="0.76801">
        <ele>2238.8</ele>
        <time>2018-11-24T10:09:37Z</time>
      </trkpt>
      <trkpt lat="42.78777" lon="0.76799">
        <ele>2239.9</ele>
        <time>2018-11-24T10:09:38Z</time>
      </trkpt>
      <trkpt lat="42.78773" lon="0.76798">
        <ele>2241.1</ele>
        <time>2018-11-24T10:09:39Z</time>
      </trkpt>
      <trkpt lat="42.7877" lon="0.76796">
        <ele>2242.1</ele>
        <time>2018-11-24T10:09:41Z</time>
      </trkpt>
      <trkpt lat="42.78766" lon="0.76794">
        <ele>2243.3</ele>
        <time>2018-11-24T10:09:42Z</time>
      </trkpt>
      <trkpt lat="42.78762" lon="0.76792">
        <ele>2244.5</ele>
        <time>2018-11-24T10:09:44Z</time>
      </trkpt>
      <trkpt lat="42.78759" lon="0.7679">
        <ele>2245.6</ele>
        <time>2018-11-24T10:09:46Z</time>
      </trkpt>
      <trkpt lat="42.78755" lon="0.76788">
        <ele>2246.7</ele>
        <time>2018-11-24T10:09:47Z</time>
      </trkpt>
      <trkpt lat="42.78751" lon="0.76786">
        <ele>2247.8</ele>
        <time>2018-11-24T10:09:49Z</time>
      </trkpt>
      <trkpt lat="42.78747" lon="0.76784">
        <ele>2248.5</ele>
        <time>2018-11-24T10:09:51Z</time>
      </trkpt>
      <trkpt lat="42.78745" lon="0.7678">
        <ele>2249.3</ele>
        <time>2018-11-24T10:09:52Z</time>
      </trkpt>
      <trkpt lat="42.78742" lon="0.76775">
        <ele>2250.2</ele>
        <time>2018-11-24T10:09:54Z</time>
      </trkpt>
      <trkpt lat="42.7874" lon="0.76771">
        <ele>2251.1</ele>
        <time>2018-11-24T10:09:55Z</time>
      </trkpt>
      <trkpt lat="42.78738" lon="0.76766">
        <ele>2252.1</ele>
        <time>2018-11-24T10:09:57Z</time>
      </trkpt>
      <trkpt lat="42.78735" lon="0.76762">
        <ele>2253</ele>
        <time>2018-11-24T10:09:59Z</time>
      </trkpt>
      <trkpt lat="42.78733" lon="0.76757">
        <ele>2253.9</ele>
        <time>2018-11-24T10:10:00Z</time>
      </trkpt>
      <trkpt lat="42.7873" lon="0.76755">
        <ele>2254.6</ele>
        <time>2018-11-24T10:10:02Z</time>
      </trkpt>
      <trkpt lat="42.78726" lon="0.76752">
        <ele>2255.4</ele>
        <time>2018-11-24T10:10:03Z</time>
      </trkpt>
      <trkpt lat="42.78723" lon="0.7675">
        <ele>2256.1</ele>
        <time>2018-11-24T10:10:05Z</time>
      </trkpt>
      <trkpt lat="42.78719" lon="0.76747">
        <ele>2256.2</ele>
        <time>2018-11-24T10:10:07Z</time>
      </trkpt>
      <trkpt lat="42.78718" lon="0.76742">
        <ele>2256.5</ele>
        <time>2018-11-24T10:10:08Z</time>
      </trkpt>
      <trkpt lat="42.78716" lon="0.76736">
        <ele>2256.9</ele>
        <time>2018-11-24T10:10:10Z</time>
      </trkpt>
      <trkpt lat="42.78715" lon="0.76731">
        <ele>2257.3</ele>
        <time>2018-11-24T10:10:12Z</time>
      </trkpt>
      <trkpt lat="42.78713" lon="0.76725">
        <ele>2257.4</ele>
        <time>2018-11-24T10:10:13Z</time>
      </trkpt>
      <trkpt lat="42.78711" lon="0.76721">
        <ele>2257.5</ele>
        <time>2018-11-24T10:10:15Z</time>
      </trkpt>
      <trkpt lat="42.78709" lon="0.76716">
        <ele>2257.7</ele>
        <time>2018-11-24T10:10:17Z</time>
      </trkpt>
      <trkpt lat="42.78707" lon="0.76712">
        <ele>2257.9</ele>
        <time>2018-11-24T10:10:18Z</time>
      </trkpt>
      <trkpt lat="42.78704" lon="0.76707">
        <ele>2258.3</ele>
        <time>2018-11-24T10:10:20Z</time>
      </trkpt>
      <trkpt lat="42.78702" lon="0.76703">
        <ele>2258.5</ele>
        <time>2018-11-24T10:10:21Z</time>
      </trkpt>
      <trkpt lat="42.787" lon="0.76698">
        <ele>2259</ele>
        <time>2018-11-24T10:10:23Z</time>
      </trkpt>
      <trkpt lat="42.78698" lon="0.76694">
        <ele>2259.3</ele>
        <time>2018-11-24T10:10:24Z</time>
      </trkpt>
      <trkpt lat="42.78697" lon="0.7669">
        <ele>2259.7</ele>
        <time>2018-11-24T10:10:26Z</time>
      </trkpt>
      <trkpt lat="42.78695" lon="0.76687">
        <ele>2259.9</ele>
        <time>2018-11-24T10:10:27Z</time>
      </trkpt>
      <trkpt lat="42.78694" lon="0.76683">
        <ele>2260.3</ele>
        <time>2018-11-24T10:10:28Z</time>
      </trkpt>
      <trkpt lat="42.78693" lon="0.76678">
        <ele>2260.8</ele>
        <time>2018-11-24T10:10:30Z</time>
      </trkpt>
      <trkpt lat="42.78691" lon="0.76673">
        <ele>2261.3</ele>
        <time>2018-11-24T10:10:31Z</time>
      </trkpt>
      <trkpt lat="42.7869" lon="0.76667">
        <ele>2261.9</ele>
        <time>2018-11-24T10:10:33Z</time>
      </trkpt>
      <trkpt lat="42.78688" lon="0.76662">
        <ele>2263</ele>
        <time>2018-11-24T10:10:35Z</time>
      </trkpt>
      <trkpt lat="42.78686" lon="0.76657">
        <ele>2264.3</ele>
        <time>2018-11-24T10:10:36Z</time>
      </trkpt>
      <trkpt lat="42.78684" lon="0.76653">
        <ele>2265.5</ele>
        <time>2018-11-24T10:10:38Z</time>
      </trkpt>
      <trkpt lat="42.78682" lon="0.76648">
        <ele>2267</ele>
        <time>2018-11-24T10:10:39Z</time>
      </trkpt>
      <trkpt lat="42.78681" lon="0.76643">
        <ele>2268.4</ele>
        <time>2018-11-24T10:10:41Z</time>
      </trkpt>
      <trkpt lat="42.78679" lon="0.76638">
        <ele>2270</ele>
        <time>2018-11-24T10:10:42Z</time>
      </trkpt>
      <trkpt lat="42.78678" lon="0.76634">
        <ele>2271.8</ele>
        <time>2018-11-24T10:10:44Z</time>
      </trkpt>
      <trkpt lat="42.78676" lon="0.76629">
        <ele>2273.7</ele>
        <time>2018-11-24T10:10:45Z</time>
      </trkpt>
      <trkpt lat="42.78675" lon="0.76624">
        <ele>2275.9</ele>
        <time>2018-11-24T10:10:47Z</time>
      </trkpt>
      <trkpt lat="42.78673" lon="0.76619">
        <ele>2278</ele>
        <time>2018-11-24T10:10:49Z</time>
      </trkpt>
      <trkpt lat="42.78672" lon="0.76614">
        <ele>2280.2</ele>
        <time>2018-11-24T10:10:50Z</time>
      </trkpt>
      <trkpt lat="42.78671" lon="0.76608">
        <ele>2282.1</ele>
        <time>2018-11-24T10:10:52Z</time>
      </trkpt>
      <trkpt lat="42.7867" lon="0.76603">
        <ele>2283.9</ele>
        <time>2018-11-24T10:10:54Z</time>
      </trkpt>
      <trkpt lat="42.7867" lon="0.76597">
        <ele>2285.6</ele>
        <time>2018-11-24T10:10:55Z</time>
      </trkpt>
      <trkpt lat="42.78669" lon="0.76592">
        <ele>2287.3</ele>
        <time>2018-11-24T10:10:57Z</time>
      </trkpt>
      <trkpt lat="42.78668" lon="0.76586">
        <ele>2289</ele>
        <time>2018-11-24T10:10:59Z</time>
      </trkpt>
      <trkpt lat="42.78667" lon="0.76581">
        <ele>2290.7</ele>
        <time>2018-11-24T10:11:00Z</time>
      </trkpt>
      <trkpt lat="42.78666" lon="0.76575">
        <ele>2292.3</ele>
        <time>2018-11-24T10:11:02Z</time>
      </trkpt>
      <trkpt lat="42.78666" lon="0.7657">
        <ele>2293.7</ele>
        <time>2018-11-24T10:11:03Z</time>
      </trkpt>
      <trkpt lat="42.78666" lon="0.76564">
        <ele>2295.2</ele>
        <time>2018-11-24T10:11:05Z</time>
      </trkpt>
      <trkpt lat="42.78665" lon="0.76559">
        <ele>2296.6</ele>
        <time>2018-11-24T10:11:07Z</time>
      </trkpt>
      <trkpt lat="42.78665" lon="0.76553">
        <ele>2298.1</ele>
        <time>2018-11-24T10:11:08Z</time>
      </trkpt>
      <trkpt lat="42.78664" lon="0.76548">
        <ele>2299.8</ele>
        <time>2018-11-24T10:11:10Z</time>
      </trkpt>
      <trkpt lat="42.78664" lon="0.76543">
        <ele>2301.4</ele>
        <time>2018-11-24T10:11:11Z</time>
      </trkpt>
      <trkpt lat="42.78663" lon="0.76537">
        <ele>2303</ele>
        <time>2018-11-24T10:11:13Z</time>
      </trkpt>
      <trkpt lat="42.78662" lon="0.76532">
        <ele>2304.8</ele>
        <time>2018-11-24T10:11:15Z</time>
      </trkpt>
      <trkpt lat="42.7866" lon="0.76526">
        <ele>2306.3</ele>
        <time>2018-11-24T10:11:16Z</time>
      </trkpt>
      <trkpt lat="42.78658" lon="0.76521">
        <ele>2307.3</ele>
        <time>2018-11-24T10:11:18Z</time>
      </trkpt>
      <trkpt lat="42.78657" lon="0.76515">
        <ele>2308.2</ele>
        <time>2018-11-24T10:11:20Z</time>
      </trkpt>
      <trkpt lat="42.78655" lon="0.7651">
        <ele>2309</ele>
        <time>2018-11-24T10:11:22Z</time>
      </trkpt>
      <trkpt lat="42.78653" lon="0.76504">
        <ele>2309.7</ele>
        <time>2018-11-24T10:11:24Z</time>
      </trkpt>
      <trkpt lat="42.78652" lon="0.76499">
        <ele>2310.1</ele>
        <time>2018-11-24T10:11:25Z</time>
      </trkpt>
      <trkpt lat="42.78651" lon="0.76494">
        <ele>2310.2</ele>
        <time>2018-11-24T10:11:27Z</time>
      </trkpt>
      <trkpt lat="42.78649" lon="0.76489">
        <ele>2310.2</ele>
        <time>2018-11-24T10:11:28Z</time>
      </trkpt>
      <trkpt lat="42.78648" lon="0.76484">
        <ele>2310.3</ele>
        <time>2018-11-24T10:11:30Z</time>
      </trkpt>
      <trkpt lat="42.78647" lon="0.76479">
        <ele>2310.4</ele>
        <time>2018-11-24T10:11:31Z</time>
      </trkpt>
      <trkpt lat="42.78646" lon="0.76474">
        <ele>2310.6</ele>
        <time>2018-11-24T10:11:33Z</time>
      </trkpt>
      <trkpt lat="42.78645" lon="0.76469">
        <ele>2310.8</ele>
        <time>2018-11-24T10:11:34Z</time>
      </trkpt>
      <trkpt lat="42.78644" lon="0.76464">
        <ele>2311</ele>
        <time>2018-11-24T10:11:36Z</time>
      </trkpt>
      <trkpt lat="42.78643" lon="0.76459">
        <ele>2311.5</ele>
        <time>2018-11-24T10:11:37Z</time>
      </trkpt>
      <trkpt lat="42.78642" lon="0.76455">
        <ele>2311.9</ele>
        <time>2018-11-24T10:11:39Z</time>
      </trkpt>
      <trkpt lat="42.78641" lon="0.7645">
        <ele>2312.3</ele>
        <time>2018-11-24T10:11:40Z</time>
      </trkpt>
      <trkpt lat="42.7864" lon="0.76445">
        <ele>2312.8</ele>
        <time>2018-11-24T10:11:42Z</time>
      </trkpt>
      <trkpt lat="42.78638" lon="0.7644">
        <ele>2313.4</ele>
        <time>2018-11-24T10:11:43Z</time>
      </trkpt>
      <trkpt lat="42.78637" lon="0.76434">
        <ele>2313.9</ele>
        <time>2018-11-24T10:11:45Z</time>
      </trkpt>
      <trkpt lat="42.78635" lon="0.76429">
        <ele>2314.6</ele>
        <time>2018-11-24T10:11:47Z</time>
      </trkpt>
      <trkpt lat="42.78633" lon="0.76424">
        <ele>2315.4</ele>
        <time>2018-11-24T10:11:48Z</time>
      </trkpt>
      <trkpt lat="42.78632" lon="0.76418">
        <ele>2316.2</ele>
        <time>2018-11-24T10:11:50Z</time>
      </trkpt>
      <trkpt lat="42.7863" lon="0.76413">
        <ele>2317.2</ele>
        <time>2018-11-24T10:11:52Z</time>
      </trkpt>
      <trkpt lat="42.78628" lon="0.76408">
        <ele>2318.1</ele>
        <time>2018-11-24T10:11:54Z</time>
      </trkpt>
      <trkpt lat="42.78626" lon="0.76403">
        <ele>2319.1</ele>
        <time>2018-11-24T10:11:55Z</time>
      </trkpt>
      <trkpt lat="42.78625" lon="0.76397">
        <ele>2320.1</ele>
        <time>2018-11-24T10:11:57Z</time>
      </trkpt>
      <trkpt lat="42.78623" lon="0.76392">
        <ele>2321.1</ele>
        <time>2018-11-24T10:11:59Z</time>
      </trkpt>
      <trkpt lat="42.78621" lon="0.76387">
        <ele>2321.9</ele>
        <time>2018-11-24T10:12:00Z</time>
      </trkpt>
      <trkpt lat="42.78619" lon="0.76383">
        <ele>2322.6</ele>
        <time>2018-11-24T10:12:02Z</time>
      </trkpt>
      <trkpt lat="42.78617" lon="0.7638">
        <ele>2323.1</ele>
        <time>2018-11-24T10:12:03Z</time>
      </trkpt>
      <trkpt lat="42.78615" lon="0.76376">
        <ele>2323.5</ele>
        <time>2018-11-24T10:12:04Z</time>
      </trkpt>
      <trkpt lat="42.78612" lon="0.76371">
        <ele>2324.2</ele>
        <time>2018-11-24T10:12:06Z</time>
      </trkpt>
      <trkpt lat="42.7861" lon="0.76367">
        <ele>2324.6</ele>
        <time>2018-11-24T10:12:08Z</time>
      </trkpt>
      <trkpt lat="42.78607" lon="0.76362">
        <ele>2324.8</ele>
        <time>2018-11-24T10:12:09Z</time>
      </trkpt>
      <trkpt lat="42.78605" lon="0.76358">
        <ele>2325.1</ele>
        <time>2018-11-24T10:12:11Z</time>
      </trkpt>
      <trkpt lat="42.78602" lon="0.76353">
        <ele>2325.4</ele>
        <time>2018-11-24T10:12:13Z</time>
      </trkpt>
      <trkpt lat="42.78599" lon="0.76349">
        <ele>2325.8</ele>
        <time>2018-11-24T10:12:15Z</time>
      </trkpt>
      <trkpt lat="42.78596" lon="0.76344">
        <ele>2326.2</ele>
        <time>2018-11-24T10:12:16Z</time>
      </trkpt>
      <trkpt lat="42.78593" lon="0.7634">
        <ele>2326.6</ele>
        <time>2018-11-24T10:12:18Z</time>
      </trkpt>
      <trkpt lat="42.78591" lon="0.76336">
        <ele>2326.8</ele>
        <time>2018-11-24T10:12:19Z</time>
      </trkpt>
      <trkpt lat="42.7859" lon="0.76332">
        <ele>2327</ele>
        <time>2018-11-24T10:12:21Z</time>
      </trkpt>
      <trkpt lat="42.78588" lon="0.76328">
        <ele>2327.7</ele>
        <time>2018-11-24T10:12:22Z</time>
      </trkpt>
      <trkpt lat="42.78586" lon="0.76324">
        <ele>2328.3</ele>
        <time>2018-11-24T10:12:24Z</time>
      </trkpt>
      <trkpt lat="42.78585" lon="0.76319">
        <ele>2328.7</ele>
        <time>2018-11-24T10:12:25Z</time>
      </trkpt>
      <trkpt lat="42.78585" lon="0.76315">
        <ele>2329.1</ele>
        <time>2018-11-24T10:12:26Z</time>
      </trkpt>
      <trkpt lat="42.78584" lon="0.7631">
        <ele>2329.6</ele>
        <time>2018-11-24T10:12:28Z</time>
      </trkpt>
      <trkpt lat="42.78583" lon="0.76305">
        <ele>2330.3</ele>
        <time>2018-11-24T10:12:29Z</time>
      </trkpt>
      <trkpt lat="42.78581" lon="0.76301">
        <ele>2332.7</ele>
        <time>2018-11-24T10:12:31Z</time>
      </trkpt>
      <trkpt lat="42.7858" lon="0.76296">
        <ele>2334.8</ele>
        <time>2018-11-24T10:12:32Z</time>
      </trkpt>
      <trkpt lat="42.78578" lon="0.76292">
        <ele>2336.9</ele>
        <time>2018-11-24T10:12:34Z</time>
      </trkpt>
      <trkpt lat="42.78576" lon="0.76287">
        <ele>2338.9</ele>
        <time>2018-11-24T10:12:35Z</time>
      </trkpt>
      <trkpt lat="42.78572" lon="0.76284">
        <ele>2341.4</ele>
        <time>2018-11-24T10:12:37Z</time>
      </trkpt>
      <trkpt lat="42.78569" lon="0.76281">
        <ele>2343.7</ele>
        <time>2018-11-24T10:12:39Z</time>
      </trkpt>
      <trkpt lat="42.78565" lon="0.76277">
        <ele>2345.8</ele>
        <time>2018-11-24T10:12:41Z</time>
      </trkpt>
      <trkpt lat="42.78561" lon="0.76274">
        <ele>2347.8</ele>
        <time>2018-11-24T10:12:42Z</time>
      </trkpt>
      <trkpt lat="42.78558" lon="0.76273">
        <ele>2349.1</ele>
        <time>2018-11-24T10:12:44Z</time>
      </trkpt>
      <trkpt lat="42.78554" lon="0.76271">
        <ele>2351</ele>
        <time>2018-11-24T10:12:45Z</time>
      </trkpt>
      <trkpt lat="42.78551" lon="0.7627">
        <ele>2353.4</ele>
        <time>2018-11-24T10:12:47Z</time>
      </trkpt>
      <trkpt lat="42.78547" lon="0.76268">
        <ele>2356.6</ele>
        <time>2018-11-24T10:12:48Z</time>
      </trkpt>
      <trkpt lat="42.78543" lon="0.76265">
        <ele>2359.7</ele>
        <time>2018-11-24T10:12:50Z</time>
      </trkpt>
      <trkpt lat="42.78539" lon="0.76267">
        <ele>2362</ele>
        <time>2018-11-24T10:12:52Z</time>
      </trkpt>
      <trkpt lat="42.78535" lon="0.76268">
        <ele>2364.4</ele>
        <time>2018-11-24T10:12:53Z</time>
      </trkpt>
      <trkpt lat="42.78531" lon="0.7627">
        <ele>2366.8</ele>
        <time>2018-11-24T10:12:55Z</time>
      </trkpt>
      <trkpt lat="42.78527" lon="0.76271">
        <ele>2368.9</ele>
        <time>2018-11-24T10:12:57Z</time>
      </trkpt>
      <trkpt lat="42.78523" lon="0.76274">
        <ele>2369.8</ele>
        <time>2018-11-24T10:12:59Z</time>
      </trkpt>
      <trkpt lat="42.7852" lon="0.76278">
        <ele>2370.6</ele>
        <time>2018-11-24T10:13:00Z</time>
      </trkpt>
      <trkpt lat="42.78516" lon="0.76281">
        <ele>2371.2</ele>
        <time>2018-11-24T10:13:02Z</time>
      </trkpt>
      <trkpt lat="42.78513" lon="0.76282">
        <ele>2372.5</ele>
        <time>2018-11-24T10:13:03Z</time>
      </trkpt>
      <trkpt lat="42.78509" lon="0.76283">
        <ele>2373.8</ele>
        <time>2018-11-24T10:13:05Z</time>
      </trkpt>
      <trkpt lat="42.78506" lon="0.76283">
        <ele>2375.2</ele>
        <time>2018-11-24T10:13:06Z</time>
      </trkpt>
      <trkpt lat="42.78502" lon="0.76284">
        <ele>2376.6</ele>
        <time>2018-11-24T10:13:08Z</time>
      </trkpt>
      <trkpt lat="42.78498" lon="0.76285">
        <ele>2378.4</ele>
        <time>2018-11-24T10:13:09Z</time>
      </trkpt>
      <trkpt lat="42.78494" lon="0.76285">
        <ele>2380.5</ele>
        <time>2018-11-24T10:13:11Z</time>
      </trkpt>
      <trkpt lat="42.7849" lon="0.76286">
        <ele>2382.7</ele>
        <time>2018-11-24T10:13:13Z</time>
      </trkpt>
      <trkpt lat="42.78486" lon="0.76286">
        <ele>2384.8</ele>
        <time>2018-11-24T10:13:14Z</time>
      </trkpt>
      <trkpt lat="42.78483" lon="0.76288">
        <ele>2386.2</ele>
        <time>2018-11-24T10:13:15Z</time>
      </trkpt>
      <trkpt lat="42.7848" lon="0.7629">
        <ele>2387.5</ele>
        <time>2018-11-24T10:13:17Z</time>
      </trkpt>
      <trkpt lat="42.78477" lon="0.76292">
        <ele>2388.8</ele>
        <time>2018-11-24T10:13:18Z</time>
      </trkpt>
      <trkpt lat="42.78473" lon="0.76293">
        <ele>2390.7</ele>
        <time>2018-11-24T10:13:20Z</time>
      </trkpt>
      <trkpt lat="42.7847" lon="0.76294">
        <ele>2392.7</ele>
        <time>2018-11-24T10:13:21Z</time>
      </trkpt>
      <trkpt lat="42.78466" lon="0.76295">
        <ele>2395</ele>
        <time>2018-11-24T10:13:23Z</time>
      </trkpt>
      <trkpt lat="42.78462" lon="0.76294">
        <ele>2397.6</ele>
        <time>2018-11-24T10:13:24Z</time>
      </trkpt>
      <trkpt lat="42.78458" lon="0.76294">
        <ele>2400.2</ele>
        <time>2018-11-24T10:13:26Z</time>
      </trkpt>
      <trkpt lat="42.78455" lon="0.76293">
        <ele>2402.8</ele>
        <time>2018-11-24T10:13:27Z</time>
      </trkpt>
      <trkpt lat="42.78451" lon="0.76293">
        <ele>2405.4</ele>
        <time>2018-11-24T10:13:29Z</time>
      </trkpt>
      <trkpt lat="42.78447" lon="0.76292">
        <ele>2407.8</ele>
        <time>2018-11-24T10:13:30Z</time>
      </trkpt>
      <trkpt lat="42.78443" lon="0.7629">
        <ele>2409.4</ele>
        <time>2018-11-24T10:13:32Z</time>
      </trkpt>
      <trkpt lat="42.78441" lon="0.76287">
        <ele>2409.3</ele>
        <time>2018-11-24T10:13:33Z</time>
      </trkpt>
      <trkpt lat="42.78439" lon="0.76284">
        <ele>2408.9</ele>
        <time>2018-11-24T10:13:34Z</time>
      </trkpt>
      <trkpt lat="42.78439" lon="0.76279">
        <ele>2408.5</ele>
        <time>2018-11-24T10:13:36Z</time>
      </trkpt>
      <trkpt lat="42.78438" lon="0.76274">
        <ele>2408.9</ele>
        <time>2018-11-24T10:13:37Z</time>
      </trkpt>
      <trkpt lat="42.78438" lon="0.76269">
        <ele>2409.2</ele>
        <time>2018-11-24T10:13:39Z</time>
      </trkpt>
      <trkpt lat="42.78437" lon="0.76263">
        <ele>2409.5</ele>
        <time>2018-11-24T10:13:41Z</time>
      </trkpt>
      <trkpt lat="42.78437" lon="0.76258">
        <ele>2409.9</ele>
        <time>2018-11-24T10:13:42Z</time>
      </trkpt>
      <trkpt lat="42.78436" lon="0.76253">
        <ele>2410.4</ele>
        <time>2018-11-24T10:13:44Z</time>
      </trkpt>
      <trkpt lat="42.78436" lon="0.76248">
        <ele>2410.8</ele>
        <time>2018-11-24T10:13:45Z</time>
      </trkpt>
      <trkpt lat="42.78436" lon="0.76243">
        <ele>2411.1</ele>
        <time>2018-11-24T10:13:47Z</time>
      </trkpt>
      <trkpt lat="42.78436" lon="0.76238">
        <ele>2411.3</ele>
        <time>2018-11-24T10:13:48Z</time>
      </trkpt>
      <trkpt lat="42.78436" lon="0.76233">
        <ele>2411.6</ele>
        <time>2018-11-24T10:13:49Z</time>
      </trkpt>
      <trkpt lat="42.78436" lon="0.76228">
        <ele>2412</ele>
        <time>2018-11-24T10:13:51Z</time>
      </trkpt>
      <trkpt lat="42.78437" lon="0.76223">
        <ele>2412.4</ele>
        <time>2018-11-24T10:13:52Z</time>
      </trkpt>
      <trkpt lat="42.78437" lon="0.76218">
        <ele>2412.9</ele>
        <time>2018-11-24T10:13:54Z</time>
      </trkpt>
      <trkpt lat="42.78438" lon="0.76213">
        <ele>2413.3</ele>
        <time>2018-11-24T10:13:55Z</time>
      </trkpt>
      <trkpt lat="42.78438" lon="0.76208">
        <ele>2413.9</ele>
        <time>2018-11-24T10:13:57Z</time>
      </trkpt>
      <trkpt lat="42.78438" lon="0.76202">
        <ele>2414.3</ele>
        <time>2018-11-24T10:13:59Z</time>
      </trkpt>
      <trkpt lat="42.78438" lon="0.76196">
        <ele>2414.9</ele>
        <time>2018-11-24T10:14:00Z</time>
      </trkpt>
      <trkpt lat="42.78438" lon="0.7619">
        <ele>2415.8</ele>
        <time>2018-11-24T10:14:02Z</time>
      </trkpt>
      <trkpt lat="42.78438" lon="0.76184">
        <ele>2416.8</ele>
        <time>2018-11-24T10:14:04Z</time>
      </trkpt>
      <trkpt lat="42.78438" lon="0.76178">
        <ele>2417.9</ele>
        <time>2018-11-24T10:14:06Z</time>
      </trkpt>
      <trkpt lat="42.78437" lon="0.76172">
        <ele>2419</ele>
        <time>2018-11-24T10:14:07Z</time>
      </trkpt>
      <trkpt lat="42.78437" lon="0.76166">
        <ele>2420</ele>
        <time>2018-11-24T10:14:09Z</time>
      </trkpt>
      <trkpt lat="42.78436" lon="0.7616">
        <ele>2421.6</ele>
        <time>2018-11-24T10:14:11Z</time>
      </trkpt>
      <trkpt lat="42.78436" lon="0.76155">
        <ele>2422.6</ele>
        <time>2018-11-24T10:14:12Z</time>
      </trkpt>
      <trkpt lat="42.78437" lon="0.76151">
        <ele>2423.8</ele>
        <time>2018-11-24T10:14:14Z</time>
      </trkpt>
      <trkpt lat="42.78437" lon="0.76146">
        <ele>2424.8</ele>
        <time>2018-11-24T10:14:15Z</time>
      </trkpt>
      <trkpt lat="42.78437" lon="0.76141">
        <ele>2425.9</ele>
        <time>2018-11-24T10:14:17Z</time>
      </trkpt>
      <trkpt lat="42.78437" lon="0.76136">
        <ele>2427.1</ele>
        <time>2018-11-24T10:14:18Z</time>
      </trkpt>
      <trkpt lat="42.78437" lon="0.76131">
        <ele>2428.5</ele>
        <time>2018-11-24T10:14:20Z</time>
      </trkpt>
      <trkpt lat="42.78437" lon="0.76126">
        <ele>2429.9</ele>
        <time>2018-11-24T10:14:21Z</time>
      </trkpt>
      <trkpt lat="42.78438" lon="0.76121">
        <ele>2431.3</ele>
        <time>2018-11-24T10:14:23Z</time>
      </trkpt>
      <trkpt lat="42.78439" lon="0.76116">
        <ele>2432.4</ele>
        <time>2018-11-24T10:14:24Z</time>
      </trkpt>
      <trkpt lat="42.7844" lon="0.76111">
        <ele>2433.7</ele>
        <time>2018-11-24T10:14:26Z</time>
      </trkpt>
      <trkpt lat="42.78441" lon="0.76106">
        <ele>2435.1</ele>
        <time>2018-11-24T10:14:27Z</time>
      </trkpt>
      <trkpt lat="42.78442" lon="0.76101">
        <ele>2436.4</ele>
        <time>2018-11-24T10:14:29Z</time>
      </trkpt>
      <trkpt lat="42.78443" lon="0.76096">
        <ele>2437.6</ele>
        <time>2018-11-24T10:14:30Z</time>
      </trkpt>
      <trkpt lat="42.78443" lon="0.76091">
        <ele>2439.1</ele>
        <time>2018-11-24T10:14:32Z</time>
      </trkpt>
      <trkpt lat="42.78444" lon="0.76086">
        <ele>2440.3</ele>
        <time>2018-11-24T10:14:33Z</time>
      </trkpt>
      <trkpt lat="42.78446" lon="0.76081">
        <ele>2441.5</ele>
        <time>2018-11-24T10:14:35Z</time>
      </trkpt>
      <trkpt lat="42.78448" lon="0.76077">
        <ele>2442.9</ele>
        <time>2018-11-24T10:14:36Z</time>
      </trkpt>
      <trkpt lat="42.78449" lon="0.76072">
        <ele>2444.3</ele>
        <time>2018-11-24T10:14:38Z</time>
      </trkpt>
      <trkpt lat="42.78451" lon="0.76067">
        <ele>2445.8</ele>
        <time>2018-11-24T10:14:39Z</time>
      </trkpt>
      <trkpt lat="42.78452" lon="0.76062">
        <ele>2447.5</ele>
        <time>2018-11-24T10:14:41Z</time>
      </trkpt>
      <trkpt lat="42.78453" lon="0.76057">
        <ele>2449.2</ele>
        <time>2018-11-24T10:14:43Z</time>
      </trkpt>
      <trkpt lat="42.78454" lon="0.76051">
        <ele>2450.7</ele>
        <time>2018-11-24T10:14:44Z</time>
      </trkpt>
      <trkpt lat="42.78455" lon="0.76046">
        <ele>2452.1</ele>
        <time>2018-11-24T10:14:46Z</time>
      </trkpt>
      <trkpt lat="42.78458" lon="0.76041">
        <ele>2453</ele>
        <time>2018-11-24T10:14:47Z</time>
      </trkpt>
      <trkpt lat="42.7846" lon="0.76037">
        <ele>2454.1</ele>
        <time>2018-11-24T10:14:49Z</time>
      </trkpt>
      <trkpt lat="42.78463" lon="0.76032">
        <ele>2455.1</ele>
        <time>2018-11-24T10:14:51Z</time>
      </trkpt>
      <trkpt lat="42.78466" lon="0.76028">
        <ele>2456</ele>
        <time>2018-11-24T10:14:53Z</time>
      </trkpt>
      <trkpt lat="42.78468" lon="0.76024">
        <ele>2457.3</ele>
        <time>2018-11-24T10:14:54Z</time>
      </trkpt>
      <trkpt lat="42.78471" lon="0.76019">
        <ele>2458.7</ele>
        <time>2018-11-24T10:14:56Z</time>
      </trkpt>
      <trkpt lat="42.78473" lon="0.76015">
        <ele>2460.2</ele>
        <time>2018-11-24T10:14:57Z</time>
      </trkpt>
      <trkpt lat="42.78476" lon="0.76011">
        <ele>2461.4</ele>
        <time>2018-11-24T10:14:59Z</time>
      </trkpt>
      <trkpt lat="42.78478" lon="0.76006">
        <ele>2463.4</ele>
        <time>2018-11-24T10:15:01Z</time>
      </trkpt>
      <trkpt lat="42.7848" lon="0.76001">
        <ele>2465.3</ele>
        <time>2018-11-24T10:15:02Z</time>
      </trkpt>
      <trkpt lat="42.78481" lon="0.75995">
        <ele>2466.8</ele>
        <time>2018-11-24T10:15:04Z</time>
      </trkpt>
      <trkpt lat="42.78483" lon="0.7599">
        <ele>2468.7</ele>
        <time>2018-11-24T10:15:06Z</time>
      </trkpt>
      <trkpt lat="42.78485" lon="0.75985">
        <ele>2470.2</ele>
        <time>2018-11-24T10:15:07Z</time>
      </trkpt>
      <trkpt lat="42.78488" lon="0.75981">
        <ele>2471.8</ele>
        <time>2018-11-24T10:15:09Z</time>
      </trkpt>
      <trkpt lat="42.7849" lon="0.75976">
        <ele>2473.7</ele>
        <time>2018-11-24T10:15:11Z</time>
      </trkpt>
      <trkpt lat="42.78491" lon="0.75971">
        <ele>2475.8</ele>
        <time>2018-11-24T10:15:12Z</time>
      </trkpt>
      <trkpt lat="42.78492" lon="0.75966">
        <ele>2477.5</ele>
        <time>2018-11-24T10:15:14Z</time>
      </trkpt>
      <trkpt lat="42.78493" lon="0.75961">
        <ele>2479.4</ele>
        <time>2018-11-24T10:15:15Z</time>
      </trkpt>
      <trkpt lat="42.78495" lon="0.75956">
        <ele>2481.4</ele>
        <time>2018-11-24T10:15:17Z</time>
      </trkpt>
      <trkpt lat="42.78497" lon="0.75951">
        <ele>2483.6</ele>
        <time>2018-11-24T10:15:19Z</time>
      </trkpt>
      <trkpt lat="42.78498" lon="0.75946">
        <ele>2486.1</ele>
        <time>2018-11-24T10:15:20Z</time>
      </trkpt>
      <trkpt lat="42.785" lon="0.75941">
        <ele>2488.1</ele>
        <time>2018-11-24T10:15:22Z</time>
      </trkpt>
      <trkpt lat="42.78502" lon="0.75936">
        <ele>2489.5</ele>
        <time>2018-11-24T10:15:23Z</time>
      </trkpt>
      <trkpt lat="42.78503" lon="0.75931">
        <ele>2491.2</ele>
        <time>2018-11-24T10:15:25Z</time>
      </trkpt>
      <trkpt lat="42.78504" lon="0.75926">
        <ele>2492.8</ele>
        <time>2018-11-24T10:15:27Z</time>
      </trkpt>
      <trkpt lat="42.78505" lon="0.75921">
        <ele>2494.5</ele>
        <time>2018-11-24T10:15:28Z</time>
      </trkpt>
      <trkpt lat="42.78506" lon="0.75916">
        <ele>2496.2</ele>
        <time>2018-11-24T10:15:30Z</time>
      </trkpt>
      <trkpt lat="42.78508" lon="0.75912">
        <ele>2497.2</ele>
        <time>2018-11-24T10:15:31Z</time>
      </trkpt>
      <trkpt lat="42.78511" lon="0.75907">
        <ele>2498.6</ele>
        <time>2018-11-24T10:15:33Z</time>
      </trkpt>
      <trkpt lat="42.78513" lon="0.75903">
        <ele>2500.1</ele>
        <time>2018-11-24T10:15:34Z</time>
      </trkpt>
      <trkpt lat="42.78516" lon="0.75898">
        <ele>2502</ele>
        <time>2018-11-24T10:15:36Z</time>
      </trkpt>
      <trkpt lat="42.78518" lon="0.75894">
        <ele>2504.1</ele>
        <time>2018-11-24T10:15:38Z</time>
      </trkpt>
      <trkpt lat="42.7852" lon="0.75889">
        <ele>2506.5</ele>
        <time>2018-11-24T10:15:39Z</time>
      </trkpt>
      <trkpt lat="42.78522" lon="0.75885">
        <ele>2507.7</ele>
        <time>2018-11-24T10:15:41Z</time>
      </trkpt>
      <trkpt lat="42.78524" lon="0.7588">
        <ele>2509</ele>
        <time>2018-11-24T10:15:42Z</time>
      </trkpt>
      <trkpt lat="42.78526" lon="0.75875">
        <ele>2510.4</ele>
        <time>2018-11-24T10:15:44Z</time>
      </trkpt>
      <trkpt lat="42.78524" lon="0.7587">
        <ele>2510.5</ele>
        <time>2018-11-24T10:15:46Z</time>
      </trkpt>
      <trkpt lat="42.78522" lon="0.75864">
        <ele>2510.3</ele>
        <time>2018-11-24T10:15:48Z</time>
      </trkpt>
      <trkpt lat="42.7852" lon="0.75859">
        <ele>2509.8</ele>
        <time>2018-11-24T10:15:49Z</time>
      </trkpt>
      <trkpt lat="42.78519" lon="0.75855">
        <ele>2509.3</ele>
        <time>2018-11-24T10:15:51Z</time>
      </trkpt>
      <trkpt lat="42.78518" lon="0.75851">
        <ele>2508.7</ele>
        <time>2018-11-24T10:15:52Z</time>
      </trkpt>
      <trkpt lat="42.78518" lon="0.75848">
        <ele>2508.4</ele>
        <time>2018-11-24T10:15:53Z</time>
      </trkpt>
      <trkpt lat="42.78517" lon="0.75845">
        <ele>2508.1</ele>
        <time>2018-11-24T10:15:54Z</time>
      </trkpt>
      <trkpt lat="42.78516" lon="0.75842">
        <ele>2507.8</ele>
        <time>2018-11-24T10:15:55Z</time>
      </trkpt>
      <trkpt lat="42.78515" lon="0.75838">
        <ele>2507.4</ele>
        <time>2018-11-24T10:15:56Z</time>
      </trkpt>
      <trkpt lat="42.78514" lon="0.75833">
        <ele>2507.1</ele>
        <time>2018-11-24T10:15:57Z</time>
      </trkpt>
      <trkpt lat="42.78512" lon="0.75828">
        <ele>2506.3</ele>
        <time>2018-11-24T10:15:59Z</time>
      </trkpt>
      <trkpt lat="42.78511" lon="0.75825">
        <ele>2505.9</ele>
        <time>2018-11-24T10:16:00Z</time>
      </trkpt>
      <trkpt lat="42.78509" lon="0.75822">
        <ele>2505.7</ele>
        <time>2018-11-24T10:16:01Z</time>
      </trkpt>
      <trkpt lat="42.78508" lon="0.75819">
        <ele>2505.5</ele>
        <time>2018-11-24T10:16:02Z</time>
      </trkpt>
      <trkpt lat="42.78507" lon="0.75816">
        <ele>2505.4</ele>
        <time>2018-11-24T10:16:03Z</time>
      </trkpt>
      <trkpt lat="42.78506" lon="0.75813">
        <ele>2505.4</ele>
        <time>2018-11-24T10:16:04Z</time>
      </trkpt>
      <trkpt lat="42.78505" lon="0.75809">
        <ele>2505.5</ele>
        <time>2018-11-24T10:16:05Z</time>
      </trkpt>
      <trkpt lat="42.78504" lon="0.75806">
        <ele>2505.6</ele>
        <time>2018-11-24T10:16:06Z</time>
      </trkpt>
      <trkpt lat="42.78503" lon="0.75803">
        <ele>2506</ele>
        <time>2018-11-24T10:16:07Z</time>
      </trkpt>
      <trkpt lat="42.78502" lon="0.758">
        <ele>2506.6</ele>
        <time>2018-11-24T10:16:08Z</time>
      </trkpt>
      <trkpt lat="42.78501" lon="0.75796">
        <ele>2507.2</ele>
        <time>2018-11-24T10:16:09Z</time>
      </trkpt>
      <trkpt lat="42.78501" lon="0.75793">
        <ele>2507.8</ele>
        <time>2018-11-24T10:16:10Z</time>
      </trkpt>
      <trkpt lat="42.785" lon="0.7579">
        <ele>2508.2</ele>
        <time>2018-11-24T10:16:11Z</time>
      </trkpt>
      <trkpt lat="42.78499" lon="0.75787">
        <ele>2508.2</ele>
        <time>2018-11-24T10:16:12Z</time>
      </trkpt>
      <trkpt lat="42.78497" lon="0.75783">
        <ele>2508.3</ele>
        <time>2018-11-24T10:16:14Z</time>
      </trkpt>
      <trkpt lat="42.78497" lon="0.7578">
        <ele>2508.6</ele>
        <time>2018-11-24T10:16:15Z</time>
      </trkpt>
      <trkpt lat="42.78496" lon="0.75777">
        <ele>2508.8</ele>
        <time>2018-11-24T10:16:15Z</time>
      </trkpt>
      <trkpt lat="42.78495" lon="0.75774">
        <ele>2508.6</ele>
        <time>2018-11-24T10:16:17Z</time>
      </trkpt>
      <trkpt lat="42.78494" lon="0.7577">
        <ele>2508.2</ele>
        <time>2018-11-24T10:16:18Z</time>
      </trkpt>
      <trkpt lat="42.78493" lon="0.75767">
        <ele>2508</ele>
        <time>2018-11-24T10:16:19Z</time>
      </trkpt>
      <trkpt lat="42.78492" lon="0.75764">
        <ele>2507.8</ele>
        <time>2018-11-24T10:16:20Z</time>
      </trkpt>
      <trkpt lat="42.78491" lon="0.75761">
        <ele>2507.7</ele>
        <time>2018-11-24T10:16:21Z</time>
      </trkpt>
      <trkpt lat="42.7849" lon="0.75758">
        <ele>2507.5</ele>
        <time>2018-11-24T10:16:22Z</time>
      </trkpt>
      <trkpt lat="42.7849" lon="0.75755">
        <ele>2507.8</ele>
        <time>2018-11-24T10:16:23Z</time>
      </trkpt>
      <trkpt lat="42.7849" lon="0.75751">
        <ele>2507.8</ele>
        <time>2018-11-24T10:16:24Z</time>
      </trkpt>
      <trkpt lat="42.78489" lon="0.75748">
        <ele>2507.7</ele>
        <time>2018-11-24T10:16:25Z</time>
      </trkpt>
      <trkpt lat="42.78488" lon="0.75745">
        <ele>2507.4</ele>
        <time>2018-11-24T10:16:26Z</time>
      </trkpt>
      <trkpt lat="42.78488" lon="0.75742">
        <ele>2507.2</ele>
        <time>2018-11-24T10:16:26Z</time>
      </trkpt>
      <trkpt lat="42.78487" lon="0.75739">
        <ele>2507</ele>
        <time>2018-11-24T10:16:27Z</time>
      </trkpt>
      <trkpt lat="42.78487" lon="0.75736">
        <ele>2506.9</ele>
        <time>2018-11-24T10:16:28Z</time>
      </trkpt>
      <trkpt lat="42.78486" lon="0.75733">
        <ele>2506.7</ele>
        <time>2018-11-24T10:16:29Z</time>
      </trkpt>
      <trkpt lat="42.78486" lon="0.7573">
        <ele>2506.6</ele>
        <time>2018-11-24T10:16:30Z</time>
      </trkpt>
      <trkpt lat="42.78485" lon="0.75727">
        <ele>2506.5</ele>
        <time>2018-11-24T10:16:31Z</time>
      </trkpt>
      <trkpt lat="42.78485" lon="0.75722">
        <ele>2506.6</ele>
        <time>2018-11-24T10:16:32Z</time>
      </trkpt>
      <trkpt lat="42.78486" lon="0.75719">
        <ele>2506.5</ele>
        <time>2018-11-24T10:16:33Z</time>
      </trkpt>
      <trkpt lat="42.78486" lon="0.75716">
        <ele>2506.5</ele>
        <time>2018-11-24T10:16:34Z</time>
      </trkpt>
      <trkpt lat="42.78488" lon="0.75711">
        <ele>2506.4</ele>
        <time>2018-11-24T10:16:36Z</time>
      </trkpt>
      <trkpt lat="42.78489" lon="0.75706">
        <ele>2506.4</ele>
        <time>2018-11-24T10:16:37Z</time>
      </trkpt>
      <trkpt lat="42.78489" lon="0.757">
        <ele>2506.4</ele>
        <time>2018-11-24T10:16:39Z</time>
      </trkpt>
      <trkpt lat="42.78489" lon="0.75694">
        <ele>2506.2</ele>
        <time>2018-11-24T10:16:41Z</time>
      </trkpt>
      <trkpt lat="42.7849" lon="0.75691">
        <ele>2505.7</ele>
        <time>2018-11-24T10:16:42Z</time>
      </trkpt>
      <trkpt lat="42.7849" lon="0.75687">
        <ele>2505.3</ele>
        <time>2018-11-24T10:16:43Z</time>
      </trkpt>
      <trkpt lat="42.78491" lon="0.75684">
        <ele>2504.9</ele>
        <time>2018-11-24T10:16:44Z</time>
      </trkpt>
      <trkpt lat="42.78491" lon="0.75681">
        <ele>2504.4</ele>
        <time>2018-11-24T10:16:45Z</time>
      </trkpt>
      <trkpt lat="42.78492" lon="0.75678">
        <ele>2504.1</ele>
        <time>2018-11-24T10:16:46Z</time>
      </trkpt>
      <trkpt lat="42.78493" lon="0.75674">
        <ele>2503.7</ele>
        <time>2018-11-24T10:16:47Z</time>
      </trkpt>
      <trkpt lat="42.78493" lon="0.75668">
        <ele>2502.9</ele>
        <time>2018-11-24T10:16:49Z</time>
      </trkpt>
      <trkpt lat="42.78494" lon="0.75663">
        <ele>2502.4</ele>
        <time>2018-11-24T10:16:50Z</time>
      </trkpt>
      <trkpt lat="42.78495" lon="0.75658">
        <ele>2501.7</ele>
        <time>2018-11-24T10:16:52Z</time>
      </trkpt>
      <trkpt lat="42.78496" lon="0.75655">
        <ele>2501.4</ele>
        <time>2018-11-24T10:16:53Z</time>
      </trkpt>
      <trkpt lat="42.78497" lon="0.75651">
        <ele>2501.3</ele>
        <time>2018-11-24T10:16:54Z</time>
      </trkpt>
      <trkpt lat="42.78499" lon="0.75646">
        <ele>2501.4</ele>
        <time>2018-11-24T10:16:56Z</time>
      </trkpt>
      <trkpt lat="42.785" lon="0.75643">
        <ele>2501.5</ele>
        <time>2018-11-24T10:16:57Z</time>
      </trkpt>
      <trkpt lat="42.78501" lon="0.7564">
        <ele>2500.8</ele>
        <time>2018-11-24T10:16:58Z</time>
      </trkpt>
      <trkpt lat="42.78502" lon="0.75637">
        <ele>2499.8</ele>
        <time>2018-11-24T10:16:59Z</time>
      </trkpt>
      <trkpt lat="42.78502" lon="0.75633">
        <ele>2498.9</ele>
        <time>2018-11-24T10:17:00Z</time>
      </trkpt>
      <trkpt lat="42.78504" lon="0.75628">
        <ele>2497.1</ele>
        <time>2018-11-24T10:17:01Z</time>
      </trkpt>
      <trkpt lat="42.78505" lon="0.75625">
        <ele>2496.1</ele>
        <time>2018-11-24T10:17:03Z</time>
      </trkpt>
      <trkpt lat="42.78506" lon="0.75621">
        <ele>2495.1</ele>
        <time>2018-11-24T10:17:04Z</time>
      </trkpt>
      <trkpt lat="42.78507" lon="0.75618">
        <ele>2494.2</ele>
        <time>2018-11-24T10:17:05Z</time>
      </trkpt>
      <trkpt lat="42.78507" lon="0.75615">
        <ele>2493.5</ele>
        <time>2018-11-24T10:17:05Z</time>
      </trkpt>
      <trkpt lat="42.78507" lon="0.75609">
        <ele>2492.1</ele>
        <time>2018-11-24T10:17:07Z</time>
      </trkpt>
      <trkpt lat="42.78507" lon="0.75604">
        <ele>2490.9</ele>
        <time>2018-11-24T10:17:09Z</time>
      </trkpt>
      <trkpt lat="42.78507" lon="0.75601">
        <ele>2489.8</ele>
        <time>2018-11-24T10:17:10Z</time>
      </trkpt>
      <trkpt lat="42.78507" lon="0.75597">
        <ele>2488.9</ele>
        <time>2018-11-24T10:17:11Z</time>
      </trkpt>
      <trkpt lat="42.78507" lon="0.75592">
        <ele>2487.5</ele>
        <time>2018-11-24T10:17:12Z</time>
      </trkpt>
      <trkpt lat="42.78508" lon="0.75589">
        <ele>2486.6</ele>
        <time>2018-11-24T10:17:13Z</time>
      </trkpt>
      <trkpt lat="42.78508" lon="0.75586">
        <ele>2485.6</ele>
        <time>2018-11-24T10:17:14Z</time>
      </trkpt>
      <trkpt lat="42.7851" lon="0.75581">
        <ele>2483.9</ele>
        <time>2018-11-24T10:17:16Z</time>
      </trkpt>
      <trkpt lat="42.78511" lon="0.75576">
        <ele>2482.5</ele>
        <time>2018-11-24T10:17:17Z</time>
      </trkpt>
      <trkpt lat="42.78512" lon="0.75573">
        <ele>2481.6</ele>
        <time>2018-11-24T10:17:18Z</time>
      </trkpt>
      <trkpt lat="42.78513" lon="0.7557">
        <ele>2480.9</ele>
        <time>2018-11-24T10:17:19Z</time>
      </trkpt>
      <trkpt lat="42.78514" lon="0.75565">
        <ele>2479.8</ele>
        <time>2018-11-24T10:17:21Z</time>
      </trkpt>
      <trkpt lat="42.78516" lon="0.7556">
        <ele>2478.8</ele>
        <time>2018-11-24T10:17:22Z</time>
      </trkpt>
      <trkpt lat="42.78517" lon="0.75557">
        <ele>2478.3</ele>
        <time>2018-11-24T10:17:23Z</time>
      </trkpt>
      <trkpt lat="42.78517" lon="0.75553">
        <ele>2477.8</ele>
        <time>2018-11-24T10:17:24Z</time>
      </trkpt>
      <trkpt lat="42.78518" lon="0.7555">
        <ele>2477.4</ele>
        <time>2018-11-24T10:17:25Z</time>
      </trkpt>
      <trkpt lat="42.78519" lon="0.75547">
        <ele>2477.3</ele>
        <time>2018-11-24T10:17:26Z</time>
      </trkpt>
      <trkpt lat="42.7852" lon="0.75544">
        <ele>2476.9</ele>
        <time>2018-11-24T10:17:27Z</time>
      </trkpt>
      <trkpt lat="42.7852" lon="0.75541">
        <ele>2476.7</ele>
        <time>2018-11-24T10:17:28Z</time>
      </trkpt>
      <trkpt lat="42.78521" lon="0.75538">
        <ele>2476.4</ele>
        <time>2018-11-24T10:17:29Z</time>
      </trkpt>
      <trkpt lat="42.78521" lon="0.75535">
        <ele>2476.3</ele>
        <time>2018-11-24T10:17:30Z</time>
      </trkpt>
      <trkpt lat="42.78522" lon="0.75532">
        <ele>2476</ele>
        <time>2018-11-24T10:17:31Z</time>
      </trkpt>
      <trkpt lat="42.78522" lon="0.75529">
        <ele>2476</ele>
        <time>2018-11-24T10:17:32Z</time>
      </trkpt>
      <trkpt lat="42.78523" lon="0.75526">
        <ele>2476.1</ele>
        <time>2018-11-24T10:17:33Z</time>
      </trkpt>
      <trkpt lat="42.78524" lon="0.75523">
        <ele>2476.2</ele>
        <time>2018-11-24T10:17:34Z</time>
      </trkpt>
      <trkpt lat="42.78525" lon="0.7552">
        <ele>2476.5</ele>
        <time>2018-11-24T10:17:35Z</time>
      </trkpt>
      <trkpt lat="42.78526" lon="0.75517">
        <ele>2476.7</ele>
        <time>2018-11-24T10:17:36Z</time>
      </trkpt>
      <trkpt lat="42.78528" lon="0.75512">
        <ele>2477.4</ele>
        <time>2018-11-24T10:17:37Z</time>
      </trkpt>
      <trkpt lat="42.78529" lon="0.75509">
        <ele>2476.9</ele>
        <time>2018-11-24T10:17:38Z</time>
      </trkpt>
      <trkpt lat="42.7853" lon="0.75506">
        <ele>2476.6</ele>
        <time>2018-11-24T10:17:39Z</time>
      </trkpt>
      <trkpt lat="42.78533" lon="0.75505">
        <ele>2475.6</ele>
        <time>2018-11-24T10:17:41Z</time>
      </trkpt>
      <trkpt lat="42.78534" lon="0.75502">
        <ele>2475.4</ele>
        <time>2018-11-24T10:17:42Z</time>
      </trkpt>
      <trkpt lat="42.78535" lon="0.75499">
        <ele>2475.1</ele>
        <time>2018-11-24T10:17:42Z</time>
      </trkpt>
      <trkpt lat="42.78536" lon="0.75496">
        <ele>2474.1</ele>
        <time>2018-11-24T10:17:43Z</time>
      </trkpt>
      <trkpt lat="42.78536" lon="0.75493">
        <ele>2473.7</ele>
        <time>2018-11-24T10:17:44Z</time>
      </trkpt>
      <trkpt lat="42.78538" lon="0.75488">
        <ele>2472.4</ele>
        <time>2018-11-24T10:17:46Z</time>
      </trkpt>
      <trkpt lat="42.78539" lon="0.75483">
        <ele>2471.1</ele>
        <time>2018-11-24T10:17:47Z</time>
      </trkpt>
      <trkpt lat="42.78539" lon="0.7548">
        <ele>2470.3</ele>
        <time>2018-11-24T10:17:49Z</time>
      </trkpt>
      <trkpt lat="42.78539" lon="0.75476">
        <ele>2469.8</ele>
        <time>2018-11-24T10:17:50Z</time>
      </trkpt>
      <trkpt lat="42.78537" lon="0.75472">
        <ele>2469.3</ele>
        <time>2018-11-24T10:17:51Z</time>
      </trkpt>
      <trkpt lat="42.78537" lon="0.75467">
        <ele>2467.9</ele>
        <time>2018-11-24T10:17:52Z</time>
      </trkpt>
      <trkpt lat="42.78538" lon="0.75464">
        <ele>2466.7</ele>
        <time>2018-11-24T10:17:53Z</time>
      </trkpt>
      <trkpt lat="42.78538" lon="0.7546">
        <ele>2465.5</ele>
        <time>2018-11-24T10:17:55Z</time>
      </trkpt>
      <trkpt lat="42.78538" lon="0.75457">
        <ele>2464.4</ele>
        <time>2018-11-24T10:17:56Z</time>
      </trkpt>
      <trkpt lat="42.78538" lon="0.75453">
        <ele>2463.4</ele>
        <time>2018-11-24T10:17:57Z</time>
      </trkpt>
      <trkpt lat="42.78536" lon="0.75448">
        <ele>2462.4</ele>
        <time>2018-11-24T10:17:58Z</time>
      </trkpt>
      <trkpt lat="42.78535" lon="0.75444">
        <ele>2461.2</ele>
        <time>2018-11-24T10:18:00Z</time>
      </trkpt>
      <trkpt lat="42.78534" lon="0.75439">
        <ele>2459.6</ele>
        <time>2018-11-24T10:18:01Z</time>
      </trkpt>
      <trkpt lat="42.78534" lon="0.75433">
        <ele>2457.5</ele>
        <time>2018-11-24T10:18:03Z</time>
      </trkpt>
      <trkpt lat="42.78535" lon="0.75428">
        <ele>2455.2</ele>
        <time>2018-11-24T10:18:04Z</time>
      </trkpt>
      <trkpt lat="42.78535" lon="0.75424">
        <ele>2453.7</ele>
        <time>2018-11-24T10:18:05Z</time>
      </trkpt>
      <trkpt lat="42.78534" lon="0.7542">
        <ele>2452.7</ele>
        <time>2018-11-24T10:18:07Z</time>
      </trkpt>
      <trkpt lat="42.78532" lon="0.75416">
        <ele>2451.5</ele>
        <time>2018-11-24T10:18:08Z</time>
      </trkpt>
      <trkpt lat="42.78532" lon="0.75413">
        <ele>2450.2</ele>
        <time>2018-11-24T10:18:09Z</time>
      </trkpt>
      <trkpt lat="42.78531" lon="0.7541">
        <ele>2449</ele>
        <time>2018-11-24T10:18:10Z</time>
      </trkpt>
      <trkpt lat="42.78533" lon="0.75406">
        <ele>2446.5</ele>
        <time>2018-11-24T10:18:11Z</time>
      </trkpt>
      <trkpt lat="42.78534" lon="0.75404">
        <ele>2445.4</ele>
        <time>2018-11-24T10:18:12Z</time>
      </trkpt>
      <trkpt lat="42.78533" lon="0.75401">
        <ele>2444.2</ele>
        <time>2018-11-24T10:18:13Z</time>
      </trkpt>
      <trkpt lat="42.78532" lon="0.754">
        <ele>2444</ele>
        <time>2018-11-24T10:18:14Z</time>
      </trkpt>
      <trkpt lat="42.78531" lon="0.75397">
        <ele>2443</ele>
        <time>2018-11-24T10:18:15Z</time>
      </trkpt>
      <trkpt lat="42.7853" lon="0.75392">
        <ele>2440.8</ele>
        <time>2018-11-24T10:18:16Z</time>
      </trkpt>
      <trkpt lat="42.78529" lon="0.75387">
        <ele>2438.9</ele>
        <time>2018-11-24T10:18:18Z</time>
      </trkpt>
      <trkpt lat="42.78529" lon="0.75384">
        <ele>2437.3</ele>
        <time>2018-11-24T10:18:19Z</time>
      </trkpt>
      <trkpt lat="42.78528" lon="0.7538">
        <ele>2435.8</ele>
        <time>2018-11-24T10:18:20Z</time>
      </trkpt>
      <trkpt lat="42.78528" lon="0.75377">
        <ele>2434.4</ele>
        <time>2018-11-24T10:18:21Z</time>
      </trkpt>
      <trkpt lat="42.78527" lon="0.75374">
        <ele>2432.7</ele>
        <time>2018-11-24T10:18:21Z</time>
      </trkpt>
      <trkpt lat="42.78526" lon="0.7537">
        <ele>2430.2</ele>
        <time>2018-11-24T10:18:23Z</time>
      </trkpt>
      <trkpt lat="42.78525" lon="0.75365">
        <ele>2427.7</ele>
        <time>2018-11-24T10:18:24Z</time>
      </trkpt>
      <trkpt lat="42.78525" lon="0.75359">
        <ele>2424.8</ele>
        <time>2018-11-24T10:18:26Z</time>
      </trkpt>
      <trkpt lat="42.78524" lon="0.75353">
        <ele>2422.2</ele>
        <time>2018-11-24T10:18:28Z</time>
      </trkpt>
      <trkpt lat="42.78523" lon="0.75349">
        <ele>2420.3</ele>
        <time>2018-11-24T10:18:29Z</time>
      </trkpt>
      <trkpt lat="42.78523" lon="0.75345">
        <ele>2418.5</ele>
        <time>2018-11-24T10:18:30Z</time>
      </trkpt>
      <trkpt lat="42.78522" lon="0.75341">
        <ele>2416.5</ele>
        <time>2018-11-24T10:18:31Z</time>
      </trkpt>
      <trkpt lat="42.78521" lon="0.75337">
        <ele>2414.6</ele>
        <time>2018-11-24T10:18:33Z</time>
      </trkpt>
      <trkpt lat="42.78519" lon="0.75334">
        <ele>2412.5</ele>
        <time>2018-11-24T10:18:34Z</time>
      </trkpt>
      <trkpt lat="42.78518" lon="0.7533">
        <ele>2411.1</ele>
        <time>2018-11-24T10:18:35Z</time>
      </trkpt>
      <trkpt lat="42.78517" lon="0.75326">
        <ele>2410.1</ele>
        <time>2018-11-24T10:18:36Z</time>
      </trkpt>
      <trkpt lat="42.78516" lon="0.75322">
        <ele>2408.9</ele>
        <time>2018-11-24T10:18:37Z</time>
      </trkpt>
      <trkpt lat="42.78518" lon="0.75322">
        <ele>2409.6</ele>
        <time>2018-11-24T10:18:38Z</time>
      </trkpt>
      <trkpt lat="42.7852" lon="0.75322">
        <ele>2410.4</ele>
        <time>2018-11-24T10:18:39Z</time>
      </trkpt>
      <trkpt lat="42.78521" lon="0.75319">
        <ele>2410.2</ele>
        <time>2018-11-24T10:18:40Z</time>
      </trkpt>
      <trkpt lat="42.78521" lon="0.75316">
        <ele>2409.6</ele>
        <time>2018-11-24T10:18:41Z</time>
      </trkpt>
      <trkpt lat="42.78521" lon="0.75311">
        <ele>2408.4</ele>
        <time>2018-11-24T10:18:42Z</time>
      </trkpt>
      <trkpt lat="42.78522" lon="0.75308">
        <ele>2407.9</ele>
        <time>2018-11-24T10:18:43Z</time>
      </trkpt>
      <trkpt lat="42.78522" lon="0.75305">
        <ele>2407.5</ele>
        <time>2018-11-24T10:18:44Z</time>
      </trkpt>
      <trkpt lat="42.78522" lon="0.75299">
        <ele>2407.1</ele>
        <time>2018-11-24T10:18:46Z</time>
      </trkpt>
      <trkpt lat="42.78523" lon="0.75296">
        <ele>2407</ele>
        <time>2018-11-24T10:18:47Z</time>
      </trkpt>
      <trkpt lat="42.78523" lon="0.75293">
        <ele>2406.8</ele>
        <time>2018-11-24T10:18:48Z</time>
      </trkpt>
      <trkpt lat="42.78523" lon="0.7529">
        <ele>2406.6</ele>
        <time>2018-11-24T10:18:49Z</time>
      </trkpt>
      <trkpt lat="42.78524" lon="0.75287">
        <ele>2406.6</ele>
        <time>2018-11-24T10:18:50Z</time>
      </trkpt>
      <trkpt lat="42.78525" lon="0.75284">
        <ele>2406.5</ele>
        <time>2018-11-24T10:18:51Z</time>
      </trkpt>
      <trkpt lat="42.78525" lon="0.75281">
        <ele>2406.4</ele>
        <time>2018-11-24T10:18:51Z</time>
      </trkpt>
      <trkpt lat="42.78526" lon="0.75278">
        <ele>2406.4</ele>
        <time>2018-11-24T10:18:52Z</time>
      </trkpt>
      <trkpt lat="42.78526" lon="0.75275">
        <ele>2406.4</ele>
        <time>2018-11-24T10:18:53Z</time>
      </trkpt>
      <trkpt lat="42.78527" lon="0.7527">
        <ele>2406.2</ele>
        <time>2018-11-24T10:18:55Z</time>
      </trkpt>
      <trkpt lat="42.78528" lon="0.75267">
        <ele>2406.1</ele>
        <time>2018-11-24T10:18:56Z</time>
      </trkpt>
      <trkpt lat="42.78528" lon="0.75263">
        <ele>2405.8</ele>
        <time>2018-11-24T10:18:57Z</time>
      </trkpt>
      <trkpt lat="42.78528" lon="0.7526">
        <ele>2405.7</ele>
        <time>2018-11-24T10:18:58Z</time>
      </trkpt>
      <trkpt lat="42.78527" lon="0.75257">
        <ele>2405.4</ele>
        <time>2018-11-24T10:18:59Z</time>
      </trkpt>
      <trkpt lat="42.78528" lon="0.75254">
        <ele>2405.3</ele>
        <time>2018-11-24T10:19:00Z</time>
      </trkpt>
      <trkpt lat="42.78528" lon="0.75251">
        <ele>2404.9</ele>
        <time>2018-11-24T10:19:00Z</time>
      </trkpt>
      <trkpt lat="42.7853" lon="0.75247">
        <ele>2402.1</ele>
        <time>2018-11-24T10:19:02Z</time>
      </trkpt>
      <trkpt lat="42.78531" lon="0.75244">
        <ele>2400.9</ele>
        <time>2018-11-24T10:19:03Z</time>
      </trkpt>
      <trkpt lat="42.78531" lon="0.75241">
        <ele>2399.7</ele>
        <time>2018-11-24T10:19:04Z</time>
      </trkpt>
      <trkpt lat="42.78529" lon="0.75239">
        <ele>2401.2</ele>
        <time>2018-11-24T10:19:05Z</time>
      </trkpt>
      <trkpt lat="42.78527" lon="0.75237">
        <ele>2401.6</ele>
        <time>2018-11-24T10:19:06Z</time>
      </trkpt>
      <trkpt lat="42.78524" lon="0.75233">
        <ele>2399.7</ele>
        <time>2018-11-24T10:19:07Z</time>
      </trkpt>
      <trkpt lat="42.78523" lon="0.7523">
        <ele>2398.8</ele>
        <time>2018-11-24T10:19:08Z</time>
      </trkpt>
      <trkpt lat="42.78522" lon="0.75226">
        <ele>2397.6</ele>
        <time>2018-11-24T10:19:10Z</time>
      </trkpt>
      <trkpt lat="42.7852" lon="0.75221">
        <ele>2396.2</ele>
        <time>2018-11-24T10:19:11Z</time>
      </trkpt>
      <trkpt lat="42.7852" lon="0.75215">
        <ele>2395.1</ele>
        <time>2018-11-24T10:19:13Z</time>
      </trkpt>
      <trkpt lat="42.7852" lon="0.7521">
        <ele>2394.2</ele>
        <time>2018-11-24T10:19:14Z</time>
      </trkpt>
      <trkpt lat="42.7852" lon="0.75207">
        <ele>2393.5</ele>
        <time>2018-11-24T10:19:15Z</time>
      </trkpt>
      <trkpt lat="42.7852" lon="0.75203">
        <ele>2392.8</ele>
        <time>2018-11-24T10:19:17Z</time>
      </trkpt>
      <trkpt lat="42.7852" lon="0.75197">
        <ele>2391.6</ele>
        <time>2018-11-24T10:19:18Z</time>
      </trkpt>
      <trkpt lat="42.7852" lon="0.75191">
        <ele>2390.8</ele>
        <time>2018-11-24T10:19:20Z</time>
      </trkpt>
      <trkpt lat="42.78522" lon="0.75186">
        <ele>2390.6</ele>
        <time>2018-11-24T10:19:22Z</time>
      </trkpt>
      <trkpt lat="42.78522" lon="0.75181">
        <ele>2390.2</ele>
        <time>2018-11-24T10:19:23Z</time>
      </trkpt>
      <trkpt lat="42.78523" lon="0.75178">
        <ele>2390</ele>
        <time>2018-11-24T10:19:24Z</time>
      </trkpt>
      <trkpt lat="42.78523" lon="0.75174">
        <ele>2389.7</ele>
        <time>2018-11-24T10:19:25Z</time>
      </trkpt>
      <trkpt lat="42.78524" lon="0.75171">
        <ele>2389.5</ele>
        <time>2018-11-24T10:19:26Z</time>
      </trkpt>
      <trkpt lat="42.78524" lon="0.75167">
        <ele>2389.2</ele>
        <time>2018-11-24T10:19:27Z</time>
      </trkpt>
      <trkpt lat="42.78524" lon="0.75161">
        <ele>2388.9</ele>
        <time>2018-11-24T10:19:29Z</time>
      </trkpt>
      <trkpt lat="42.78525" lon="0.75158">
        <ele>2388.9</ele>
        <time>2018-11-24T10:19:30Z</time>
      </trkpt>
      <trkpt lat="42.78525" lon="0.75155">
        <ele>2388.9</ele>
        <time>2018-11-24T10:19:31Z</time>
      </trkpt>
      <trkpt lat="42.78524" lon="0.7515">
        <ele>2388.4</ele>
        <time>2018-11-24T10:19:32Z</time>
      </trkpt>
      <trkpt lat="42.78522" lon="0.7515">
        <ele>2387.8</ele>
        <time>2018-11-24T10:19:33Z</time>
      </trkpt>
      <trkpt lat="42.78523" lon="0.75147">
        <ele>2387.9</ele>
        <time>2018-11-24T10:19:34Z</time>
      </trkpt>
      <trkpt lat="42.78524" lon="0.75144">
        <ele>2388.1</ele>
        <time>2018-11-24T10:19:35Z</time>
      </trkpt>
      <trkpt lat="42.78526" lon="0.75139">
        <ele>2388.4</ele>
        <time>2018-11-24T10:19:37Z</time>
      </trkpt>
      <trkpt lat="42.78526" lon="0.75134">
        <ele>2388.2</ele>
        <time>2018-11-24T10:19:38Z</time>
      </trkpt>
      <trkpt lat="42.78528" lon="0.75129">
        <ele>2388.2</ele>
        <time>2018-11-24T10:19:40Z</time>
      </trkpt>
      <trkpt lat="42.78528" lon="0.75126">
        <ele>2388</ele>
        <time>2018-11-24T10:19:41Z</time>
      </trkpt>
      <trkpt lat="42.78528" lon="0.75123">
        <ele>2387.8</ele>
        <time>2018-11-24T10:19:42Z</time>
      </trkpt>
      <trkpt lat="42.78529" lon="0.7512">
        <ele>2387.1</ele>
        <time>2018-11-24T10:19:43Z</time>
      </trkpt>
      <trkpt lat="42.78529" lon="0.75117">
        <ele>2386.5</ele>
        <time>2018-11-24T10:19:44Z</time>
      </trkpt>
      <trkpt lat="42.7853" lon="0.75112">
        <ele>2385.4</ele>
        <time>2018-11-24T10:19:45Z</time>
      </trkpt>
      <trkpt lat="42.78531" lon="0.75109">
        <ele>2385</ele>
        <time>2018-11-24T10:19:46Z</time>
      </trkpt>
      <trkpt lat="42.78531" lon="0.75106">
        <ele>2384.7</ele>
        <time>2018-11-24T10:19:47Z</time>
      </trkpt>
      <trkpt lat="42.78532" lon="0.75103">
        <ele>2384.5</ele>
        <time>2018-11-24T10:19:48Z</time>
      </trkpt>
      <trkpt lat="42.78532" lon="0.75099">
        <ele>2384.2</ele>
        <time>2018-11-24T10:19:49Z</time>
      </trkpt>
      <trkpt lat="42.78533" lon="0.75096">
        <ele>2384</ele>
        <time>2018-11-24T10:19:50Z</time>
      </trkpt>
      <trkpt lat="42.78533" lon="0.75093">
        <ele>2383.8</ele>
        <time>2018-11-24T10:19:51Z</time>
      </trkpt>
      <trkpt lat="42.78534" lon="0.7509">
        <ele>2383.6</ele>
        <time>2018-11-24T10:19:52Z</time>
      </trkpt>
      <trkpt lat="42.78534" lon="0.75086">
        <ele>2383.2</ele>
        <time>2018-11-24T10:19:53Z</time>
      </trkpt>
      <trkpt lat="42.78534" lon="0.7508">
        <ele>2383.2</ele>
        <time>2018-11-24T10:19:55Z</time>
      </trkpt>
      <trkpt lat="42.78535" lon="0.75077">
        <ele>2382.4</ele>
        <time>2018-11-24T10:19:56Z</time>
      </trkpt>
      <trkpt lat="42.78536" lon="0.75074">
        <ele>2381.7</ele>
        <time>2018-11-24T10:19:57Z</time>
      </trkpt>
      <trkpt lat="42.78537" lon="0.75071">
        <ele>2381.2</ele>
        <time>2018-11-24T10:19:58Z</time>
      </trkpt>
      <trkpt lat="42.78537" lon="0.75068">
        <ele>2380.8</ele>
        <time>2018-11-24T10:19:58Z</time>
      </trkpt>
      <trkpt lat="42.78538" lon="0.75065">
        <ele>2380.5</ele>
        <time>2018-11-24T10:19:59Z</time>
      </trkpt>
      <trkpt lat="42.78538" lon="0.75062">
        <ele>2380.1</ele>
        <time>2018-11-24T10:20:00Z</time>
      </trkpt>
      <trkpt lat="42.78538" lon="0.75056">
        <ele>2380.1</ele>
        <time>2018-11-24T10:20:02Z</time>
      </trkpt>
      <trkpt lat="42.78539" lon="0.75051">
        <ele>2379.2</ele>
        <time>2018-11-24T10:20:04Z</time>
      </trkpt>
      <trkpt lat="42.7854" lon="0.75048">
        <ele>2378.7</ele>
        <time>2018-11-24T10:20:05Z</time>
      </trkpt>
      <trkpt lat="42.7854" lon="0.75044">
        <ele>2378.3</ele>
        <time>2018-11-24T10:20:06Z</time>
      </trkpt>
      <trkpt lat="42.7854" lon="0.75038">
        <ele>2378</ele>
        <time>2018-11-24T10:20:07Z</time>
      </trkpt>
      <trkpt lat="42.7854" lon="0.75035">
        <ele>2377.9</ele>
        <time>2018-11-24T10:20:08Z</time>
      </trkpt>
      <trkpt lat="42.7854" lon="0.75031">
        <ele>2377.8</ele>
        <time>2018-11-24T10:20:09Z</time>
      </trkpt>
      <trkpt lat="42.7854" lon="0.75025">
        <ele>2377.1</ele>
        <time>2018-11-24T10:20:11Z</time>
      </trkpt>
      <trkpt lat="42.78539" lon="0.75022">
        <ele>2377.3</ele>
        <time>2018-11-24T10:20:12Z</time>
      </trkpt>
      <trkpt lat="42.78538" lon="0.75019">
        <ele>2377.4</ele>
        <time>2018-11-24T10:20:13Z</time>
      </trkpt>
      <trkpt lat="42.78537" lon="0.75014">
        <ele>2377.2</ele>
        <time>2018-11-24T10:20:15Z</time>
      </trkpt>
      <trkpt lat="42.78537" lon="0.75008">
        <ele>2376.1</ele>
        <time>2018-11-24T10:20:16Z</time>
      </trkpt>
      <trkpt lat="42.78537" lon="0.75005">
        <ele>2376</ele>
        <time>2018-11-24T10:20:17Z</time>
      </trkpt>
      <trkpt lat="42.78536" lon="0.75002">
        <ele>2375.8</ele>
        <time>2018-11-24T10:20:18Z</time>
      </trkpt>
      <trkpt lat="42.78536" lon="0.74999">
        <ele>2375.4</ele>
        <time>2018-11-24T10:20:19Z</time>
      </trkpt>
      <trkpt lat="42.78535" lon="0.74996">
        <ele>2374.9</ele>
        <time>2018-11-24T10:20:20Z</time>
      </trkpt>
      <trkpt lat="42.78534" lon="0.74991">
        <ele>2374.2</ele>
        <time>2018-11-24T10:20:22Z</time>
      </trkpt>
      <trkpt lat="42.78534" lon="0.74986">
        <ele>2372.8</ele>
        <time>2018-11-24T10:20:23Z</time>
      </trkpt>
      <trkpt lat="42.78534" lon="0.74983">
        <ele>2372.4</ele>
        <time>2018-11-24T10:20:24Z</time>
      </trkpt>
      <trkpt lat="42.78533" lon="0.7498">
        <ele>2371.9</ele>
        <time>2018-11-24T10:20:25Z</time>
      </trkpt>
      <trkpt lat="42.78533" lon="0.74977">
        <ele>2370.8</ele>
        <time>2018-11-24T10:20:26Z</time>
      </trkpt>
      <trkpt lat="42.78533" lon="0.74973">
        <ele>2369.8</ele>
        <time>2018-11-24T10:20:27Z</time>
      </trkpt>
      <trkpt lat="42.78533" lon="0.74968">
        <ele>2368.8</ele>
        <time>2018-11-24T10:20:28Z</time>
      </trkpt>
      <trkpt lat="42.78533" lon="0.74962">
        <ele>2367.7</ele>
        <time>2018-11-24T10:20:30Z</time>
      </trkpt>
      <trkpt lat="42.78534" lon="0.74959">
        <ele>2366.8</ele>
        <time>2018-11-24T10:20:31Z</time>
      </trkpt>
      <trkpt lat="42.78534" lon="0.74956">
        <ele>2365.9</ele>
        <time>2018-11-24T10:20:32Z</time>
      </trkpt>
      <trkpt lat="42.78534" lon="0.7495">
        <ele>2364.9</ele>
        <time>2018-11-24T10:20:34Z</time>
      </trkpt>
      <trkpt lat="42.78535" lon="0.74945">
        <ele>2363.3</ele>
        <time>2018-11-24T10:20:35Z</time>
      </trkpt>
      <trkpt lat="42.78535" lon="0.7494">
        <ele>2361.8</ele>
        <time>2018-11-24T10:20:37Z</time>
      </trkpt>
      <trkpt lat="42.78536" lon="0.74937">
        <ele>2360.6</ele>
        <time>2018-11-24T10:20:38Z</time>
      </trkpt>
      <trkpt lat="42.78536" lon="0.74934">
        <ele>2359.3</ele>
        <time>2018-11-24T10:20:38Z</time>
      </trkpt>
      <trkpt lat="42.78537" lon="0.74931">
        <ele>2358</ele>
        <time>2018-11-24T10:20:39Z</time>
      </trkpt>
      <trkpt lat="42.78537" lon="0.74928">
        <ele>2356.9</ele>
        <time>2018-11-24T10:20:40Z</time>
      </trkpt>
      <trkpt lat="42.78537" lon="0.74922">
        <ele>2355.1</ele>
        <time>2018-11-24T10:20:42Z</time>
      </trkpt>
      <trkpt lat="42.78535" lon="0.74917">
        <ele>2354.7</ele>
        <time>2018-11-24T10:20:44Z</time>
      </trkpt>
      <trkpt lat="42.78535" lon="0.74914">
        <ele>2354.1</ele>
        <time>2018-11-24T10:20:45Z</time>
      </trkpt>
      <trkpt lat="42.78534" lon="0.74911">
        <ele>2353.7</ele>
        <time>2018-11-24T10:20:46Z</time>
      </trkpt>
      <trkpt lat="42.78535" lon="0.74906">
        <ele>2351.6</ele>
        <time>2018-11-24T10:20:47Z</time>
      </trkpt>
      <trkpt lat="42.78535" lon="0.74903">
        <ele>2351.2</ele>
        <time>2018-11-24T10:20:48Z</time>
      </trkpt>
      <trkpt lat="42.78534" lon="0.749">
        <ele>2350.6</ele>
        <time>2018-11-24T10:20:49Z</time>
      </trkpt>
      <trkpt lat="42.78535" lon="0.74897">
        <ele>2349.2</ele>
        <time>2018-11-24T10:20:50Z</time>
      </trkpt>
      <trkpt lat="42.78536" lon="0.74894">
        <ele>2347.8</ele>
        <time>2018-11-24T10:20:51Z</time>
      </trkpt>
      <trkpt lat="42.78537" lon="0.7489">
        <ele>2346.1</ele>
        <time>2018-11-24T10:20:52Z</time>
      </trkpt>
      <trkpt lat="42.78538" lon="0.74887">
        <ele>2344.4</ele>
        <time>2018-11-24T10:20:53Z</time>
      </trkpt>
      <trkpt lat="42.78539" lon="0.74884">
        <ele>2342.6</ele>
        <time>2018-11-24T10:20:54Z</time>
      </trkpt>
      <trkpt lat="42.78542" lon="0.74887">
        <ele>2342.1</ele>
        <time>2018-11-24T10:20:55Z</time>
      </trkpt>
      <trkpt lat="42.78544" lon="0.74885">
        <ele>2340.3</ele>
        <time>2018-11-24T10:20:56Z</time>
      </trkpt>
      <trkpt lat="42.78544" lon="0.74882">
        <ele>2339.3</ele>
        <time>2018-11-24T10:20:57Z</time>
      </trkpt>
      <trkpt lat="42.78545" lon="0.74879">
        <ele>2337.9</ele>
        <time>2018-11-24T10:20:58Z</time>
      </trkpt>
      <trkpt lat="42.78546" lon="0.74874">
        <ele>2335.8</ele>
        <time>2018-11-24T10:21:00Z</time>
      </trkpt>
      <trkpt lat="42.78548" lon="0.7487">
        <ele>2334</ele>
        <time>2018-11-24T10:21:01Z</time>
      </trkpt>
      <trkpt lat="42.78549" lon="0.74865">
        <ele>2332.2</ele>
        <time>2018-11-24T10:21:03Z</time>
      </trkpt>
      <trkpt lat="42.78548" lon="0.7486">
        <ele>2331</ele>
        <time>2018-11-24T10:21:04Z</time>
      </trkpt>
      <trkpt lat="42.78548" lon="0.74855">
        <ele>2329.1</ele>
        <time>2018-11-24T10:21:06Z</time>
      </trkpt>
      <trkpt lat="42.78549" lon="0.7485">
        <ele>2327.3</ele>
        <time>2018-11-24T10:21:07Z</time>
      </trkpt>
      <trkpt lat="42.7855" lon="0.74847">
        <ele>2326.4</ele>
        <time>2018-11-24T10:21:08Z</time>
      </trkpt>
      <trkpt lat="42.78551" lon="0.74844">
        <ele>2325.5</ele>
        <time>2018-11-24T10:21:09Z</time>
      </trkpt>
      <trkpt lat="42.78551" lon="0.74839">
        <ele>2324.1</ele>
        <time>2018-11-24T10:21:11Z</time>
      </trkpt>
      <trkpt lat="42.78553" lon="0.74836">
        <ele>2323.6</ele>
        <time>2018-11-24T10:21:12Z</time>
      </trkpt>
      <trkpt lat="42.78555" lon="0.74832">
        <ele>2323.1</ele>
        <time>2018-11-24T10:21:13Z</time>
      </trkpt>
      <trkpt lat="42.78555" lon="0.74827">
        <ele>2320.6</ele>
        <time>2018-11-24T10:21:15Z</time>
      </trkpt>
      <trkpt lat="42.78556" lon="0.74824">
        <ele>2319</ele>
        <time>2018-11-24T10:21:16Z</time>
      </trkpt>
      <trkpt lat="42.78558" lon="0.74823">
        <ele>2317.3</ele>
        <time>2018-11-24T10:21:17Z</time>
      </trkpt>
      <trkpt lat="42.7856" lon="0.74819">
        <ele>2314.3</ele>
        <time>2018-11-24T10:21:18Z</time>
      </trkpt>
      <trkpt lat="42.7856" lon="0.74816">
        <ele>2312.9</ele>
        <time>2018-11-24T10:21:19Z</time>
      </trkpt>
      <trkpt lat="42.7856" lon="0.74813">
        <ele>2311.4</ele>
        <time>2018-11-24T10:21:20Z</time>
      </trkpt>
      <trkpt lat="42.78559" lon="0.74809">
        <ele>2310</ele>
        <time>2018-11-24T10:21:21Z</time>
      </trkpt>
      <trkpt lat="42.7856" lon="0.74806">
        <ele>2308.2</ele>
        <time>2018-11-24T10:21:22Z</time>
      </trkpt>
      <trkpt lat="42.7856" lon="0.74802">
        <ele>2306.8</ele>
        <time>2018-11-24T10:21:23Z</time>
      </trkpt>
      <trkpt lat="42.78561" lon="0.74799">
        <ele>2305.5</ele>
        <time>2018-11-24T10:21:24Z</time>
      </trkpt>
      <trkpt lat="42.78561" lon="0.74795">
        <ele>2304.2</ele>
        <time>2018-11-24T10:21:25Z</time>
      </trkpt>
      <trkpt lat="42.78562" lon="0.7479">
        <ele>2302.2</ele>
        <time>2018-11-24T10:21:27Z</time>
      </trkpt>
      <trkpt lat="42.78564" lon="0.74786">
        <ele>2300.2</ele>
        <time>2018-11-24T10:21:28Z</time>
      </trkpt>
      <trkpt lat="42.78567" lon="0.74782">
        <ele>2297.7</ele>
        <time>2018-11-24T10:21:30Z</time>
      </trkpt>
      <trkpt lat="42.78568" lon="0.74779">
        <ele>2296.6</ele>
        <time>2018-11-24T10:21:31Z</time>
      </trkpt>
      <trkpt lat="42.78568" lon="0.74775">
        <ele>2295.5</ele>
        <time>2018-11-24T10:21:32Z</time>
      </trkpt>
      <trkpt lat="42.78569" lon="0.74772">
        <ele>2294.5</ele>
        <time>2018-11-24T10:21:33Z</time>
      </trkpt>
      <trkpt lat="42.78569" lon="0.74769">
        <ele>2293.7</ele>
        <time>2018-11-24T10:21:34Z</time>
      </trkpt>
      <trkpt lat="42.7857" lon="0.74766">
        <ele>2292.7</ele>
        <time>2018-11-24T10:21:35Z</time>
      </trkpt>
      <trkpt lat="42.78571" lon="0.74763">
        <ele>2291.8</ele>
        <time>2018-11-24T10:21:36Z</time>
      </trkpt>
      <trkpt lat="42.78571" lon="0.7476">
        <ele>2291.2</ele>
        <time>2018-11-24T10:21:36Z</time>
      </trkpt>
      <trkpt lat="42.78572" lon="0.74757">
        <ele>2290.4</ele>
        <time>2018-11-24T10:21:37Z</time>
      </trkpt>
      <trkpt lat="42.78572" lon="0.74753">
        <ele>2289.6</ele>
        <time>2018-11-24T10:21:39Z</time>
      </trkpt>
      <trkpt lat="42.78572" lon="0.74748">
        <ele>2288.7</ele>
        <time>2018-11-24T10:21:40Z</time>
      </trkpt>
      <trkpt lat="42.78572" lon="0.74744">
        <ele>2288.1</ele>
        <time>2018-11-24T10:21:41Z</time>
      </trkpt>
      <trkpt lat="42.78572" lon="0.7474">
        <ele>2287.4</ele>
        <time>2018-11-24T10:21:42Z</time>
      </trkpt>
      <trkpt lat="42.78571" lon="0.74735">
        <ele>2286.6</ele>
        <time>2018-11-24T10:21:44Z</time>
      </trkpt>
      <trkpt lat="42.78572" lon="0.74732">
        <ele>2286.1</ele>
        <time>2018-11-24T10:21:45Z</time>
      </trkpt>
      <trkpt lat="42.78572" lon="0.74729">
        <ele>2285.7</ele>
        <time>2018-11-24T10:21:46Z</time>
      </trkpt>
      <trkpt lat="42.78572" lon="0.74723">
        <ele>2284.8</ele>
        <time>2018-11-24T10:21:47Z</time>
      </trkpt>
      <trkpt lat="42.78573" lon="0.7472">
        <ele>2284.8</ele>
        <time>2018-11-24T10:21:48Z</time>
      </trkpt>
      <trkpt lat="42.78573" lon="0.74717">
        <ele>2285.3</ele>
        <time>2018-11-24T10:21:49Z</time>
      </trkpt>
      <trkpt lat="42.78572" lon="0.74714">
        <ele>2285.2</ele>
        <time>2018-11-24T10:21:50Z</time>
      </trkpt>
      <trkpt lat="42.78571" lon="0.74709">
        <ele>2285.4</ele>
        <time>2018-11-24T10:21:52Z</time>
      </trkpt>
      <trkpt lat="42.78572" lon="0.74706">
        <ele>2285.8</ele>
        <time>2018-11-24T10:21:53Z</time>
      </trkpt>
      <trkpt lat="42.78572" lon="0.74703">
        <ele>2286.1</ele>
        <time>2018-11-24T10:21:54Z</time>
      </trkpt>
      <trkpt lat="42.78574" lon="0.74698">
        <ele>2286.7</ele>
        <time>2018-11-24T10:21:55Z</time>
      </trkpt>
      <trkpt lat="42.78575" lon="0.74695">
        <ele>2287</ele>
        <time>2018-11-24T10:21:56Z</time>
      </trkpt>
      <trkpt lat="42.78575" lon="0.74692">
        <ele>2286.5</ele>
        <time>2018-11-24T10:21:57Z</time>
      </trkpt>
      <trkpt lat="42.78577" lon="0.74692">
        <ele>2286.6</ele>
        <time>2018-11-24T10:21:58Z</time>
      </trkpt>
      <trkpt lat="42.78578" lon="0.7469">
        <ele>2286.2</ele>
        <time>2018-11-24T10:21:59Z</time>
      </trkpt>
      <trkpt lat="42.78579" lon="0.74688">
        <ele>2285.8</ele>
        <time>2018-11-24T10:21:59Z</time>
      </trkpt>
      <trkpt lat="42.78581" lon="0.74686">
        <ele>2285.4</ele>
        <time>2018-11-24T10:22:00Z</time>
      </trkpt>
      <trkpt lat="42.78582" lon="0.74683">
        <ele>2284.9</ele>
        <time>2018-11-24T10:22:01Z</time>
      </trkpt>
      <trkpt lat="42.78584" lon="0.74681">
        <ele>2284.2</ele>
        <time>2018-11-24T10:22:02Z</time>
      </trkpt>
      <trkpt lat="42.78586" lon="0.74678">
        <ele>2282.5</ele>
        <time>2018-11-24T10:22:03Z</time>
      </trkpt>
      <trkpt lat="42.78587" lon="0.74675">
        <ele>2280.8</ele>
        <time>2018-11-24T10:22:04Z</time>
      </trkpt>
      <trkpt lat="42.78588" lon="0.7467">
        <ele>2279.4</ele>
        <time>2018-11-24T10:22:06Z</time>
      </trkpt>
      <trkpt lat="42.78591" lon="0.74666">
        <ele>2277.3</ele>
        <time>2018-11-24T10:22:07Z</time>
      </trkpt>
      <trkpt lat="42.78592" lon="0.74663">
        <ele>2276.8</ele>
        <time>2018-11-24T10:22:09Z</time>
      </trkpt>
      <trkpt lat="42.78592" lon="0.74659">
        <ele>2276.4</ele>
        <time>2018-11-24T10:22:10Z</time>
      </trkpt>
      <trkpt lat="42.78593" lon="0.74655">
        <ele>2275.5</ele>
        <time>2018-11-24T10:22:11Z</time>
      </trkpt>
      <trkpt lat="42.78594" lon="0.74652">
        <ele>2275.1</ele>
        <time>2018-11-24T10:22:12Z</time>
      </trkpt>
      <trkpt lat="42.78594" lon="0.74648">
        <ele>2274.8</ele>
        <time>2018-11-24T10:22:13Z</time>
      </trkpt>
      <trkpt lat="42.78596" lon="0.74643">
        <ele>2274</ele>
        <time>2018-11-24T10:22:15Z</time>
      </trkpt>
      <trkpt lat="42.78597" lon="0.74641">
        <ele>2273.7</ele>
        <time>2018-11-24T10:22:15Z</time>
      </trkpt>
      <trkpt lat="42.78598" lon="0.74638">
        <ele>2273.2</ele>
        <time>2018-11-24T10:22:16Z</time>
      </trkpt>
      <trkpt lat="42.78599" lon="0.74634">
        <ele>2272.5</ele>
        <time>2018-11-24T10:22:18Z</time>
      </trkpt>
      <trkpt lat="42.786" lon="0.74631">
        <ele>2271.9</ele>
        <time>2018-11-24T10:22:19Z</time>
      </trkpt>
      <trkpt lat="42.78601" lon="0.74627">
        <ele>2271.4</ele>
        <time>2018-11-24T10:22:20Z</time>
      </trkpt>
      <trkpt lat="42.78601" lon="0.74624">
        <ele>2271.1</ele>
        <time>2018-11-24T10:22:21Z</time>
      </trkpt>
      <trkpt lat="42.786" lon="0.7462">
        <ele>2270.7</ele>
        <time>2018-11-24T10:22:22Z</time>
      </trkpt>
      <trkpt lat="42.78602" lon="0.74615">
        <ele>2270.2</ele>
        <time>2018-11-24T10:22:23Z</time>
      </trkpt>
      <trkpt lat="42.78603" lon="0.74612">
        <ele>2269.9</ele>
        <time>2018-11-24T10:22:25Z</time>
      </trkpt>
      <trkpt lat="42.78604" lon="0.74608">
        <ele>2269.6</ele>
        <time>2018-11-24T10:22:26Z</time>
      </trkpt>
      <trkpt lat="42.78606" lon="0.74605">
        <ele>2269.4</ele>
        <time>2018-11-24T10:22:27Z</time>
      </trkpt>
      <trkpt lat="42.78607" lon="0.74601">
        <ele>2269.4</ele>
        <time>2018-11-24T10:22:28Z</time>
      </trkpt>
      <trkpt lat="42.78609" lon="0.74596">
        <ele>2269.7</ele>
        <time>2018-11-24T10:22:30Z</time>
      </trkpt>
      <trkpt lat="42.78611" lon="0.74594">
        <ele>2270.1</ele>
        <time>2018-11-24T10:22:31Z</time>
      </trkpt>
      <trkpt lat="42.78612" lon="0.74591">
        <ele>2269.8</ele>
        <time>2018-11-24T10:22:32Z</time>
      </trkpt>
      <trkpt lat="42.78614" lon="0.74589">
        <ele>2268.6</ele>
        <time>2018-11-24T10:22:33Z</time>
      </trkpt>
      <trkpt lat="42.78616" lon="0.74586">
        <ele>2267.4</ele>
        <time>2018-11-24T10:22:34Z</time>
      </trkpt>
      <trkpt lat="42.78618" lon="0.74583">
        <ele>2266.5</ele>
        <time>2018-11-24T10:22:35Z</time>
      </trkpt>
      <trkpt lat="42.78619" lon="0.74579">
        <ele>2265.2</ele>
        <time>2018-11-24T10:22:36Z</time>
      </trkpt>
      <trkpt lat="42.7862" lon="0.74576">
        <ele>2264.5</ele>
        <time>2018-11-24T10:22:37Z</time>
      </trkpt>
      <trkpt lat="42.78621" lon="0.74573">
        <ele>2263.8</ele>
        <time>2018-11-24T10:22:38Z</time>
      </trkpt>
      <trkpt lat="42.78623" lon="0.74569">
        <ele>2262.9</ele>
        <time>2018-11-24T10:22:40Z</time>
      </trkpt>
      <trkpt lat="42.78624" lon="0.74564">
        <ele>2262.1</ele>
        <time>2018-11-24T10:22:41Z</time>
      </trkpt>
      <trkpt lat="42.78625" lon="0.7456">
        <ele>2261.9</ele>
        <time>2018-11-24T10:22:42Z</time>
      </trkpt>
      <trkpt lat="42.78625" lon="0.74556">
        <ele>2261.6</ele>
        <time>2018-11-24T10:22:43Z</time>
      </trkpt>
      <trkpt lat="42.78626" lon="0.74553">
        <ele>2261.8</ele>
        <time>2018-11-24T10:22:44Z</time>
      </trkpt>
      <trkpt lat="42.78627" lon="0.7455">
        <ele>2262</ele>
        <time>2018-11-24T10:22:45Z</time>
      </trkpt>
      <trkpt lat="42.78628" lon="0.74547">
        <ele>2262.4</ele>
        <time>2018-11-24T10:22:46Z</time>
      </trkpt>
      <trkpt lat="42.78628" lon="0.74544">
        <ele>2262.9</ele>
        <time>2018-11-24T10:22:47Z</time>
      </trkpt>
      <trkpt lat="42.78629" lon="0.74541">
        <ele>2263.5</ele>
        <time>2018-11-24T10:22:48Z</time>
      </trkpt>
      <trkpt lat="42.78629" lon="0.74537">
        <ele>2264.1</ele>
        <time>2018-11-24T10:22:49Z</time>
      </trkpt>
      <trkpt lat="42.7863" lon="0.74534">
        <ele>2264.6</ele>
        <time>2018-11-24T10:22:50Z</time>
      </trkpt>
      <trkpt lat="42.7863" lon="0.7453">
        <ele>2265.4</ele>
        <time>2018-11-24T10:22:51Z</time>
      </trkpt>
      <trkpt lat="42.7863" lon="0.74527">
        <ele>2266.1</ele>
        <time>2018-11-24T10:22:52Z</time>
      </trkpt>
      <trkpt lat="42.7863" lon="0.74523">
        <ele>2267.2</ele>
        <time>2018-11-24T10:22:53Z</time>
      </trkpt>
      <trkpt lat="42.7863" lon="0.7452">
        <ele>2268.3</ele>
        <time>2018-11-24T10:22:54Z</time>
      </trkpt>
      <trkpt lat="42.7863" lon="0.74516">
        <ele>2269.3</ele>
        <time>2018-11-24T10:22:55Z</time>
      </trkpt>
      <trkpt lat="42.78631" lon="0.74511">
        <ele>2271.1</ele>
        <time>2018-11-24T10:22:57Z</time>
      </trkpt>
      <trkpt lat="42.78632" lon="0.74508">
        <ele>2272.3</ele>
        <time>2018-11-24T10:22:58Z</time>
      </trkpt>
      <trkpt lat="42.78633" lon="0.74505">
        <ele>2273.4</ele>
        <time>2018-11-24T10:22:59Z</time>
      </trkpt>
      <trkpt lat="42.78633" lon="0.74502">
        <ele>2274.4</ele>
        <time>2018-11-24T10:23:00Z</time>
      </trkpt>
      <trkpt lat="42.78634" lon="0.74499">
        <ele>2275.7</ele>
        <time>2018-11-24T10:23:01Z</time>
      </trkpt>
      <trkpt lat="42.78635" lon="0.74496">
        <ele>2276.9</ele>
        <time>2018-11-24T10:23:02Z</time>
      </trkpt>
      <trkpt lat="42.78638" lon="0.74493">
        <ele>2278.9</ele>
        <time>2018-11-24T10:23:03Z</time>
      </trkpt>
      <trkpt lat="42.7864" lon="0.74491">
        <ele>2279.8</ele>
        <time>2018-11-24T10:23:04Z</time>
      </trkpt>
      <trkpt lat="42.78641" lon="0.74488">
        <ele>2279.9</ele>
        <time>2018-11-24T10:23:05Z</time>
      </trkpt>
      <trkpt lat="42.78641" lon="0.74484">
        <ele>2281.3</ele>
        <time>2018-11-24T10:23:06Z</time>
      </trkpt>
      <trkpt lat="42.78642" lon="0.74481">
        <ele>2282.1</ele>
        <time>2018-11-24T10:23:07Z</time>
      </trkpt>
      <trkpt lat="42.78642" lon="0.74478">
        <ele>2282.9</ele>
        <time>2018-11-24T10:23:08Z</time>
      </trkpt>
      <trkpt lat="42.78644" lon="0.74475">
        <ele>2283.2</ele>
        <time>2018-11-24T10:23:09Z</time>
      </trkpt>
      <trkpt lat="42.78645" lon="0.74472">
        <ele>2283.8</ele>
        <time>2018-11-24T10:23:10Z</time>
      </trkpt>
      <trkpt lat="42.78646" lon="0.74468">
        <ele>2283.5</ele>
        <time>2018-11-24T10:23:12Z</time>
      </trkpt>
      <trkpt lat="42.78648" lon="0.74465">
        <ele>2283</ele>
        <time>2018-11-24T10:23:13Z</time>
      </trkpt>
      <trkpt lat="42.7865" lon="0.74462">
        <ele>2282.6</ele>
        <time>2018-11-24T10:23:14Z</time>
      </trkpt>
      <trkpt lat="42.78651" lon="0.74458">
        <ele>2282.6</ele>
        <time>2018-11-24T10:23:15Z</time>
      </trkpt>
      <trkpt lat="42.78652" lon="0.74454">
        <ele>2282.8</ele>
        <time>2018-11-24T10:23:16Z</time>
      </trkpt>
      <trkpt lat="42.78653" lon="0.74451">
        <ele>2283</ele>
        <time>2018-11-24T10:23:17Z</time>
      </trkpt>
      <trkpt lat="42.78654" lon="0.74447">
        <ele>2283.3</ele>
        <time>2018-11-24T10:23:19Z</time>
      </trkpt>
      <trkpt lat="42.78656" lon="0.74444">
        <ele>2283.5</ele>
        <time>2018-11-24T10:23:20Z</time>
      </trkpt>
      <trkpt lat="42.78657" lon="0.7444">
        <ele>2283.9</ele>
        <time>2018-11-24T10:23:21Z</time>
      </trkpt>
      <trkpt lat="42.78658" lon="0.74435">
        <ele>2284.5</ele>
        <time>2018-11-24T10:23:22Z</time>
      </trkpt>
      <trkpt lat="42.78659" lon="0.74432">
        <ele>2285</ele>
        <time>2018-11-24T10:23:24Z</time>
      </trkpt>
      <trkpt lat="42.78659" lon="0.74428">
        <ele>2285.5</ele>
        <time>2018-11-24T10:23:25Z</time>
      </trkpt>
      <trkpt lat="42.78661" lon="0.74424">
        <ele>2286.2</ele>
        <time>2018-11-24T10:23:26Z</time>
      </trkpt>
      <trkpt lat="42.78662" lon="0.7442">
        <ele>2287.1</ele>
        <time>2018-11-24T10:23:27Z</time>
      </trkpt>
      <trkpt lat="42.78664" lon="0.74417">
        <ele>2288.1</ele>
        <time>2018-11-24T10:23:28Z</time>
      </trkpt>
      <trkpt lat="42.78665" lon="0.74414">
        <ele>2288.6</ele>
        <time>2018-11-24T10:23:29Z</time>
      </trkpt>
      <trkpt lat="42.78667" lon="0.7441">
        <ele>2289</ele>
        <time>2018-11-24T10:23:31Z</time>
      </trkpt>
      <trkpt lat="42.78668" lon="0.74406">
        <ele>2288.3</ele>
        <time>2018-11-24T10:23:32Z</time>
      </trkpt>
      <trkpt lat="42.78669" lon="0.74403">
        <ele>2288</ele>
        <time>2018-11-24T10:23:33Z</time>
      </trkpt>
      <trkpt lat="42.7867" lon="0.74399">
        <ele>2287.6</ele>
        <time>2018-11-24T10:23:34Z</time>
      </trkpt>
      <trkpt lat="42.78672" lon="0.74397">
        <ele>2286.9</ele>
        <time>2018-11-24T10:23:35Z</time>
      </trkpt>
      <trkpt lat="42.78674" lon="0.74394">
        <ele>2286.3</ele>
        <time>2018-11-24T10:23:36Z</time>
      </trkpt>
      <trkpt lat="42.78676" lon="0.74389">
        <ele>2286</ele>
        <time>2018-11-24T10:23:38Z</time>
      </trkpt>
      <trkpt lat="42.78677" lon="0.74386">
        <ele>2285.5</ele>
        <time>2018-11-24T10:23:39Z</time>
      </trkpt>
      <trkpt lat="42.78678" lon="0.74382">
        <ele>2285.2</ele>
        <time>2018-11-24T10:23:40Z</time>
      </trkpt>
      <trkpt lat="42.78679" lon="0.74379">
        <ele>2285</ele>
        <time>2018-11-24T10:23:41Z</time>
      </trkpt>
      <trkpt lat="42.7868" lon="0.74375">
        <ele>2284.9</ele>
        <time>2018-11-24T10:23:42Z</time>
      </trkpt>
      <trkpt lat="42.7868" lon="0.74369">
        <ele>2285</ele>
        <time>2018-11-24T10:23:44Z</time>
      </trkpt>
      <trkpt lat="42.78681" lon="0.74366">
        <ele>2284.9</ele>
        <time>2018-11-24T10:23:45Z</time>
      </trkpt>
      <trkpt lat="42.78682" lon="0.74362">
        <ele>2285.2</ele>
        <time>2018-11-24T10:23:46Z</time>
      </trkpt>
      <trkpt lat="42.78683" lon="0.74359">
        <ele>2285</ele>
        <time>2018-11-24T10:23:47Z</time>
      </trkpt>
      <trkpt lat="42.78683" lon="0.74355">
        <ele>2285</ele>
        <time>2018-11-24T10:23:49Z</time>
      </trkpt>
      <trkpt lat="42.78683" lon="0.74349">
        <ele>2284.8</ele>
        <time>2018-11-24T10:23:50Z</time>
      </trkpt>
      <trkpt lat="42.78683" lon="0.74346">
        <ele>2284.6</ele>
        <time>2018-11-24T10:23:51Z</time>
      </trkpt>
      <trkpt lat="42.78682" lon="0.74342">
        <ele>2284.3</ele>
        <time>2018-11-24T10:23:52Z</time>
      </trkpt>
      <trkpt lat="42.78683" lon="0.74339">
        <ele>2284.4</ele>
        <time>2018-11-24T10:23:53Z</time>
      </trkpt>
      <trkpt lat="42.78684" lon="0.74335">
        <ele>2284.4</ele>
        <time>2018-11-24T10:23:55Z</time>
      </trkpt>
      <trkpt lat="42.78685" lon="0.74331">
        <ele>2283.7</ele>
        <time>2018-11-24T10:23:56Z</time>
      </trkpt>
      <trkpt lat="42.78688" lon="0.74327">
        <ele>2283.3</ele>
        <time>2018-11-24T10:23:58Z</time>
      </trkpt>
      <trkpt lat="42.7869" lon="0.74325">
        <ele>2283</ele>
        <time>2018-11-24T10:23:58Z</time>
      </trkpt>
      <trkpt lat="42.78691" lon="0.74322">
        <ele>2282.7</ele>
        <time>2018-11-24T10:23:59Z</time>
      </trkpt>
      <trkpt lat="42.78693" lon="0.74318">
        <ele>2282.6</ele>
        <time>2018-11-24T10:24:01Z</time>
      </trkpt>
      <trkpt lat="42.78696" lon="0.74314">
        <ele>2281.5</ele>
        <time>2018-11-24T10:24:03Z</time>
      </trkpt>
      <trkpt lat="42.78698" lon="0.74312">
        <ele>2280.5</ele>
        <time>2018-11-24T10:24:03Z</time>
      </trkpt>
      <trkpt lat="42.78699" lon="0.74309">
        <ele>2279.6</ele>
        <time>2018-11-24T10:24:04Z</time>
      </trkpt>
      <trkpt lat="42.78701" lon="0.74307">
        <ele>2278.7</ele>
        <time>2018-11-24T10:24:05Z</time>
      </trkpt>
      <trkpt lat="42.78703" lon="0.74305">
        <ele>2277.5</ele>
        <time>2018-11-24T10:24:06Z</time>
      </trkpt>
      <trkpt lat="42.78705" lon="0.74304">
        <ele>2276.1</ele>
        <time>2018-11-24T10:24:07Z</time>
      </trkpt>
      <trkpt lat="42.78707" lon="0.74302">
        <ele>2274.8</ele>
        <time>2018-11-24T10:24:08Z</time>
      </trkpt>
      <trkpt lat="42.78711" lon="0.74301">
        <ele>2273.7</ele>
        <time>2018-11-24T10:24:10Z</time>
      </trkpt>
      <trkpt lat="42.78714" lon="0.743">
        <ele>2272.8</ele>
        <time>2018-11-24T10:24:11Z</time>
      </trkpt>
      <trkpt lat="42.78715" lon="0.74298">
        <ele>2271.9</ele>
        <time>2018-11-24T10:24:12Z</time>
      </trkpt>
      <trkpt lat="42.78716" lon="0.74296">
        <ele>2271.2</ele>
        <time>2018-11-24T10:24:13Z</time>
      </trkpt>
      <trkpt lat="42.78718" lon="0.74292">
        <ele>2269.7</ele>
        <time>2018-11-24T10:24:14Z</time>
      </trkpt>
      <trkpt lat="42.78719" lon="0.74287">
        <ele>2268.5</ele>
        <time>2018-11-24T10:24:15Z</time>
      </trkpt>
      <trkpt lat="42.78722" lon="0.74283">
        <ele>2268.2</ele>
        <time>2018-11-24T10:24:17Z</time>
      </trkpt>
      <trkpt lat="42.78724" lon="0.74278">
        <ele>2265.1</ele>
        <time>2018-11-24T10:24:19Z</time>
      </trkpt>
      <trkpt lat="42.78724" lon="0.74273">
        <ele>2263.4</ele>
        <time>2018-11-24T10:24:20Z</time>
      </trkpt>
      <trkpt lat="42.78724" lon="0.74268">
        <ele>2261.7</ele>
        <time>2018-11-24T10:24:22Z</time>
      </trkpt>
      <trkpt lat="42.78725" lon="0.74266">
        <ele>2260.1</ele>
        <time>2018-11-24T10:24:22Z</time>
      </trkpt>
      <trkpt lat="42.78726" lon="0.74264">
        <ele>2258.5</ele>
        <time>2018-11-24T10:24:23Z</time>
      </trkpt>
      <trkpt lat="42.78728" lon="0.74259">
        <ele>2255.6</ele>
        <time>2018-11-24T10:24:25Z</time>
      </trkpt>
      <trkpt lat="42.7873" lon="0.74257">
        <ele>2254.2</ele>
        <time>2018-11-24T10:24:26Z</time>
      </trkpt>
      <trkpt lat="42.78731" lon="0.74254">
        <ele>2252.7</ele>
        <time>2018-11-24T10:24:27Z</time>
      </trkpt>
      <trkpt lat="42.78732" lon="0.74251">
        <ele>2251.9</ele>
        <time>2018-11-24T10:24:28Z</time>
      </trkpt>
      <trkpt lat="42.78732" lon="0.74248">
        <ele>2251.8</ele>
        <time>2018-11-24T10:24:28Z</time>
      </trkpt>
      <trkpt lat="42.78734" lon="0.74245">
        <ele>2251.6</ele>
        <time>2018-11-24T10:24:30Z</time>
      </trkpt>
      <trkpt lat="42.78735" lon="0.74241">
        <ele>2251.9</ele>
        <time>2018-11-24T10:24:31Z</time>
      </trkpt>
      <trkpt lat="42.78738" lon="0.74239">
        <ele>2252</ele>
        <time>2018-11-24T10:24:32Z</time>
      </trkpt>
      <trkpt lat="42.7874" lon="0.74236">
        <ele>2252.5</ele>
        <time>2018-11-24T10:24:33Z</time>
      </trkpt>
      <trkpt lat="42.78741" lon="0.74233">
        <ele>2253.6</ele>
        <time>2018-11-24T10:24:34Z</time>
      </trkpt>
      <trkpt lat="42.78742" lon="0.7423">
        <ele>2254.7</ele>
        <time>2018-11-24T10:24:35Z</time>
      </trkpt>
      <trkpt lat="42.78742" lon="0.74227">
        <ele>2255.8</ele>
        <time>2018-11-24T10:24:36Z</time>
      </trkpt>
      <trkpt lat="42.78744" lon="0.74222">
        <ele>2258.3</ele>
        <time>2018-11-24T10:24:38Z</time>
      </trkpt>
      <trkpt lat="42.78746" lon="0.74217">
        <ele>2260.1</ele>
        <time>2018-11-24T10:24:39Z</time>
      </trkpt>
      <trkpt lat="42.78748" lon="0.74215">
        <ele>2261.4</ele>
        <time>2018-11-24T10:24:40Z</time>
      </trkpt>
      <trkpt lat="42.78749" lon="0.74212">
        <ele>2262.5</ele>
        <time>2018-11-24T10:24:41Z</time>
      </trkpt>
      <trkpt lat="42.7875" lon="0.74209">
        <ele>2264.1</ele>
        <time>2018-11-24T10:24:42Z</time>
      </trkpt>
      <trkpt lat="42.78751" lon="0.74205">
        <ele>2264.1</ele>
        <time>2018-11-24T10:24:44Z</time>
      </trkpt>
      <trkpt lat="42.78752" lon="0.74202">
        <ele>2264.8</ele>
        <time>2018-11-24T10:24:45Z</time>
      </trkpt>
      <trkpt lat="42.78752" lon="0.74198">
        <ele>2265.6</ele>
        <time>2018-11-24T10:24:46Z</time>
      </trkpt>
      <trkpt lat="42.78752" lon="0.74192">
        <ele>2267.1</ele>
        <time>2018-11-24T10:24:47Z</time>
      </trkpt>
      <trkpt lat="42.78753" lon="0.74189">
        <ele>2266.9</ele>
        <time>2018-11-24T10:24:48Z</time>
      </trkpt>
      <trkpt lat="42.78754" lon="0.74186">
        <ele>2266.8</ele>
        <time>2018-11-24T10:24:49Z</time>
      </trkpt>
      <trkpt lat="42.78755" lon="0.74183">
        <ele>2267.1</ele>
        <time>2018-11-24T10:24:50Z</time>
      </trkpt>
      <trkpt lat="42.78755" lon="0.74179">
        <ele>2267.5</ele>
        <time>2018-11-24T10:24:51Z</time>
      </trkpt>
      <trkpt lat="42.78756" lon="0.74174">
        <ele>2268.2</ele>
        <time>2018-11-24T10:24:53Z</time>
      </trkpt>
      <trkpt lat="42.78756" lon="0.74171">
        <ele>2268.9</ele>
        <time>2018-11-24T10:24:54Z</time>
      </trkpt>
      <trkpt lat="42.78756" lon="0.74167">
        <ele>2269.6</ele>
        <time>2018-11-24T10:24:55Z</time>
      </trkpt>
      <trkpt lat="42.78757" lon="0.74164">
        <ele>2270.1</ele>
        <time>2018-11-24T10:24:56Z</time>
      </trkpt>
      <trkpt lat="42.78758" lon="0.7416">
        <ele>2270.5</ele>
        <time>2018-11-24T10:24:57Z</time>
      </trkpt>
      <trkpt lat="42.78759" lon="0.74156">
        <ele>2271.3</ele>
        <time>2018-11-24T10:24:58Z</time>
      </trkpt>
      <trkpt lat="42.78759" lon="0.74152">
        <ele>2271.9</ele>
        <time>2018-11-24T10:25:00Z</time>
      </trkpt>
      <trkpt lat="42.78759" lon="0.74149">
        <ele>2272.9</ele>
        <time>2018-11-24T10:25:01Z</time>
      </trkpt>
      <trkpt lat="42.78759" lon="0.74145">
        <ele>2273.7</ele>
        <time>2018-11-24T10:25:02Z</time>
      </trkpt>
      <trkpt lat="42.78759" lon="0.74142">
        <ele>2274.6</ele>
        <time>2018-11-24T10:25:03Z</time>
      </trkpt>
      <trkpt lat="42.78758" lon="0.74138">
        <ele>2275.7</ele>
        <time>2018-11-24T10:25:04Z</time>
      </trkpt>
      <trkpt lat="42.7876" lon="0.74133">
        <ele>2276.4</ele>
        <time>2018-11-24T10:25:05Z</time>
      </trkpt>
      <trkpt lat="42.7876" lon="0.7413">
        <ele>2277.3</ele>
        <time>2018-11-24T10:25:06Z</time>
      </trkpt>
      <trkpt lat="42.78761" lon="0.74127">
        <ele>2277.9</ele>
        <time>2018-11-24T10:25:07Z</time>
      </trkpt>
      <trkpt lat="42.78761" lon="0.74124">
        <ele>2278.7</ele>
        <time>2018-11-24T10:25:08Z</time>
      </trkpt>
      <trkpt lat="42.78761" lon="0.74119">
        <ele>2280.1</ele>
        <time>2018-11-24T10:25:10Z</time>
      </trkpt>
      <trkpt lat="42.78762" lon="0.74116">
        <ele>2280.7</ele>
        <time>2018-11-24T10:25:11Z</time>
      </trkpt>
      <trkpt lat="42.78763" lon="0.74111">
        <ele>2281.7</ele>
        <time>2018-11-24T10:25:12Z</time>
      </trkpt>
      <trkpt lat="42.78764" lon="0.74108">
        <ele>2282.2</ele>
        <time>2018-11-24T10:25:13Z</time>
      </trkpt>
      <trkpt lat="42.78764" lon="0.74104">
        <ele>2282.7</ele>
        <time>2018-11-24T10:25:14Z</time>
      </trkpt>
      <trkpt lat="42.78764" lon="0.74098">
        <ele>2283.6</ele>
        <time>2018-11-24T10:25:16Z</time>
      </trkpt>
      <trkpt lat="42.78765" lon="0.74095">
        <ele>2284</ele>
        <time>2018-11-24T10:25:17Z</time>
      </trkpt>
      <trkpt lat="42.78766" lon="0.74092">
        <ele>2284.2</ele>
        <time>2018-11-24T10:25:18Z</time>
      </trkpt>
      <trkpt lat="42.78767" lon="0.74089">
        <ele>2284.6</ele>
        <time>2018-11-24T10:25:19Z</time>
      </trkpt>
      <trkpt lat="42.78767" lon="0.74086">
        <ele>2285.1</ele>
        <time>2018-11-24T10:25:20Z</time>
      </trkpt>
      <trkpt lat="42.7877" lon="0.74082">
        <ele>2285</ele>
        <time>2018-11-24T10:25:21Z</time>
      </trkpt>
      <trkpt lat="42.78771" lon="0.74079">
        <ele>2284.4</ele>
        <time>2018-11-24T10:25:22Z</time>
      </trkpt>
      <trkpt lat="42.78772" lon="0.74076">
        <ele>2284</ele>
        <time>2018-11-24T10:25:23Z</time>
      </trkpt>
      <trkpt lat="42.78773" lon="0.74073">
        <ele>2283.7</ele>
        <time>2018-11-24T10:25:24Z</time>
      </trkpt>
      <trkpt lat="42.78774" lon="0.7407">
        <ele>2283.5</ele>
        <time>2018-11-24T10:25:25Z</time>
      </trkpt>
      <trkpt lat="42.78776" lon="0.74069">
        <ele>2283.5</ele>
        <time>2018-11-24T10:25:26Z</time>
      </trkpt>
      <trkpt lat="42.78778" lon="0.74067">
        <ele>2283.3</ele>
        <time>2018-11-24T10:25:27Z</time>
      </trkpt>
      <trkpt lat="42.7878" lon="0.74065">
        <ele>2282.4</ele>
        <time>2018-11-24T10:25:28Z</time>
      </trkpt>
      <trkpt lat="42.78783" lon="0.74061">
        <ele>2280.9</ele>
        <time>2018-11-24T10:25:30Z</time>
      </trkpt>
      <trkpt lat="42.78784" lon="0.74058">
        <ele>2280.5</ele>
        <time>2018-11-24T10:25:31Z</time>
      </trkpt>
      <trkpt lat="42.78785" lon="0.74055">
        <ele>2280</ele>
        <time>2018-11-24T10:25:32Z</time>
      </trkpt>
      <trkpt lat="42.78787" lon="0.7405">
        <ele>2278.4</ele>
        <time>2018-11-24T10:25:33Z</time>
      </trkpt>
      <trkpt lat="42.7879" lon="0.74046">
        <ele>2277.4</ele>
        <time>2018-11-24T10:25:35Z</time>
      </trkpt>
      <trkpt lat="42.78792" lon="0.74044">
        <ele>2276.9</ele>
        <time>2018-11-24T10:25:36Z</time>
      </trkpt>
      <trkpt lat="42.78793" lon="0.74041">
        <ele>2276.8</ele>
        <time>2018-11-24T10:25:37Z</time>
      </trkpt>
      <trkpt lat="42.78794" lon="0.74038">
        <ele>2276.7</ele>
        <time>2018-11-24T10:25:38Z</time>
      </trkpt>
      <trkpt lat="42.78795" lon="0.74035">
        <ele>2276.9</ele>
        <time>2018-11-24T10:25:39Z</time>
      </trkpt>
      <trkpt lat="42.78796" lon="0.74032">
        <ele>2277</ele>
        <time>2018-11-24T10:25:40Z</time>
      </trkpt>
      <trkpt lat="42.78797" lon="0.74029">
        <ele>2277.5</ele>
        <time>2018-11-24T10:25:41Z</time>
      </trkpt>
      <trkpt lat="42.78799" lon="0.74028">
        <ele>2278.2</ele>
        <time>2018-11-24T10:25:42Z</time>
      </trkpt>
      <trkpt lat="42.78801" lon="0.74026">
        <ele>2279</ele>
        <time>2018-11-24T10:25:43Z</time>
      </trkpt>
      <trkpt lat="42.78802" lon="0.74023">
        <ele>2279.7</ele>
        <time>2018-11-24T10:25:44Z</time>
      </trkpt>
      <trkpt lat="42.78803" lon="0.74021">
        <ele>2280.4</ele>
        <time>2018-11-24T10:25:44Z</time>
      </trkpt>
      <trkpt lat="42.78805" lon="0.74016">
        <ele>2282.4</ele>
        <time>2018-11-24T10:25:46Z</time>
      </trkpt>
      <trkpt lat="42.78808" lon="0.74012">
        <ele>2283.5</ele>
        <time>2018-11-24T10:25:48Z</time>
      </trkpt>
      <trkpt lat="42.78811" lon="0.74008">
        <ele>2284.7</ele>
        <time>2018-11-24T10:25:49Z</time>
      </trkpt>
      <trkpt lat="42.78813" lon="0.74006">
        <ele>2285.4</ele>
        <time>2018-11-24T10:25:50Z</time>
      </trkpt>
      <trkpt lat="42.78814" lon="0.74003">
        <ele>2286.6</ele>
        <time>2018-11-24T10:25:51Z</time>
      </trkpt>
      <trkpt lat="42.78816" lon="0.73998">
        <ele>2288.5</ele>
        <time>2018-11-24T10:25:53Z</time>
      </trkpt>
      <trkpt lat="42.78818" lon="0.73994">
        <ele>2290.2</ele>
        <time>2018-11-24T10:25:54Z</time>
      </trkpt>
      <trkpt lat="42.78821" lon="0.73994">
        <ele>2291.2</ele>
        <time>2018-11-24T10:25:56Z</time>
      </trkpt>
      <trkpt lat="42.78823" lon="0.73992">
        <ele>2292.6</ele>
        <time>2018-11-24T10:25:57Z</time>
      </trkpt>
      <trkpt lat="42.78824" lon="0.73989">
        <ele>2294.2</ele>
        <time>2018-11-24T10:25:58Z</time>
      </trkpt>
      <trkpt lat="42.78824" lon="0.73986">
        <ele>2295.5</ele>
        <time>2018-11-24T10:25:58Z</time>
      </trkpt>
      <trkpt lat="42.78826" lon="0.73981">
        <ele>2298.8</ele>
        <time>2018-11-24T10:26:00Z</time>
      </trkpt>
      <trkpt lat="42.78828" lon="0.73983">
        <ele>2298.9</ele>
        <time>2018-11-24T10:26:01Z</time>
      </trkpt>
      <trkpt lat="42.7883" lon="0.73983">
        <ele>2299.9</ele>
        <time>2018-11-24T10:26:02Z</time>
      </trkpt>
      <trkpt lat="42.78832" lon="0.73985">
        <ele>2299.7</ele>
        <time>2018-11-24T10:26:03Z</time>
      </trkpt>
      <trkpt lat="42.78833" lon="0.73983">
        <ele>2301.3</ele>
        <time>2018-11-24T10:26:04Z</time>
      </trkpt>
      <trkpt lat="42.78835" lon="0.73982">
        <ele>2302.2</ele>
        <time>2018-11-24T10:26:04Z</time>
      </trkpt>
      <trkpt lat="42.78837" lon="0.73982">
        <ele>2302.4</ele>
        <time>2018-11-24T10:26:05Z</time>
      </trkpt>
      <trkpt lat="42.78839" lon="0.73981">
        <ele>2303.7</ele>
        <time>2018-11-24T10:26:06Z</time>
      </trkpt>
      <trkpt lat="42.78841" lon="0.73979">
        <ele>2304.9</ele>
        <time>2018-11-24T10:26:07Z</time>
      </trkpt>
      <trkpt lat="42.78843" lon="0.73978">
        <ele>2306</ele>
        <time>2018-11-24T10:26:08Z</time>
      </trkpt>
      <trkpt lat="42.78845" lon="0.73976">
        <ele>2308.1</ele>
        <time>2018-11-24T10:26:09Z</time>
      </trkpt>
      <trkpt lat="42.78847" lon="0.73973">
        <ele>2310.4</ele>
        <time>2018-11-24T10:26:10Z</time>
      </trkpt>
      <trkpt lat="42.7885" lon="0.73971">
        <ele>2311.2</ele>
        <time>2018-11-24T10:26:11Z</time>
      </trkpt>
      <trkpt lat="42.78852" lon="0.7397">
        <ele>2311.5</ele>
        <time>2018-11-24T10:26:12Z</time>
      </trkpt>
      <trkpt lat="42.78855" lon="0.7397">
        <ele>2312</ele>
        <time>2018-11-24T10:26:13Z</time>
      </trkpt>
      <trkpt lat="42.78857" lon="0.7397">
        <ele>2312.4</ele>
        <time>2018-11-24T10:26:14Z</time>
      </trkpt>
      <trkpt lat="42.78861" lon="0.73971">
        <ele>2313.6</ele>
        <time>2018-11-24T10:26:16Z</time>
      </trkpt>
      <trkpt lat="42.78864" lon="0.73971">
        <ele>2313.3</ele>
        <time>2018-11-24T10:26:17Z</time>
      </trkpt>
      <trkpt lat="42.78867" lon="0.73974">
        <ele>2312.1</ele>
        <time>2018-11-24T10:26:19Z</time>
      </trkpt>
      <trkpt lat="42.78869" lon="0.73976">
        <ele>2310.8</ele>
        <time>2018-11-24T10:26:19Z</time>
      </trkpt>
      <trkpt lat="42.78871" lon="0.73977">
        <ele>2309.7</ele>
        <time>2018-11-24T10:26:20Z</time>
      </trkpt>
      <trkpt lat="42.78874" lon="0.73978">
        <ele>2309.6</ele>
        <time>2018-11-24T10:26:21Z</time>
      </trkpt>
      <trkpt lat="42.78876" lon="0.73978">
        <ele>2309.4</ele>
        <time>2018-11-24T10:26:22Z</time>
      </trkpt>
      <trkpt lat="42.78878" lon="0.73977">
        <ele>2309.9</ele>
        <time>2018-11-24T10:26:23Z</time>
      </trkpt>
      <trkpt lat="42.7888" lon="0.73979">
        <ele>2309.1</ele>
        <time>2018-11-24T10:26:24Z</time>
      </trkpt>
      <trkpt lat="42.78882" lon="0.7398">
        <ele>2309</ele>
        <time>2018-11-24T10:26:25Z</time>
      </trkpt>
      <trkpt lat="42.78884" lon="0.73983">
        <ele>2308.2</ele>
        <time>2018-11-24T10:26:26Z</time>
      </trkpt>
      <trkpt lat="42.78885" lon="0.73985">
        <ele>2307.9</ele>
        <time>2018-11-24T10:26:27Z</time>
      </trkpt>
      <trkpt lat="42.78887" lon="0.73987">
        <ele>2307.8</ele>
        <time>2018-11-24T10:26:28Z</time>
      </trkpt>
      <trkpt lat="42.7889" lon="0.7399">
        <ele>2307.5</ele>
        <time>2018-11-24T10:26:30Z</time>
      </trkpt>
      <trkpt lat="42.78892" lon="0.73992">
        <ele>2306.6</ele>
        <time>2018-11-24T10:26:31Z</time>
      </trkpt>
      <trkpt lat="42.78894" lon="0.73992">
        <ele>2305.9</ele>
        <time>2018-11-24T10:26:31Z</time>
      </trkpt>
      <trkpt lat="42.78893" lon="0.73989">
        <ele>2306.7</ele>
        <time>2018-11-24T10:26:32Z</time>
      </trkpt>
      <trkpt lat="42.78895" lon="0.73988">
        <ele>2306.2</ele>
        <time>2018-11-24T10:26:33Z</time>
      </trkpt>
      <trkpt lat="42.78899" lon="0.73989">
        <ele>2304.6</ele>
        <time>2018-11-24T10:26:35Z</time>
      </trkpt>
      <trkpt lat="42.78902" lon="0.73991">
        <ele>2303.6</ele>
        <time>2018-11-24T10:26:36Z</time>
      </trkpt>
      <trkpt lat="42.78904" lon="0.73989">
        <ele>2303</ele>
        <time>2018-11-24T10:26:37Z</time>
      </trkpt>
      <trkpt lat="42.78905" lon="0.73986">
        <ele>2302.7</ele>
        <time>2018-11-24T10:26:38Z</time>
      </trkpt>
      <trkpt lat="42.78908" lon="0.73984">
        <ele>2301.6</ele>
        <time>2018-11-24T10:26:39Z</time>
      </trkpt>
      <trkpt lat="42.7891" lon="0.73986">
        <ele>2301</ele>
        <time>2018-11-24T10:26:40Z</time>
      </trkpt>
      <trkpt lat="42.78912" lon="0.73987">
        <ele>2300.3</ele>
        <time>2018-11-24T10:26:41Z</time>
      </trkpt>
      <trkpt lat="42.78913" lon="0.73985">
        <ele>2299.7</ele>
        <time>2018-11-24T10:26:42Z</time>
      </trkpt>
      <trkpt lat="42.78915" lon="0.73983">
        <ele>2299.1</ele>
        <time>2018-11-24T10:26:43Z</time>
      </trkpt>
      <trkpt lat="42.78916" lon="0.7398">
        <ele>2298.2</ele>
        <time>2018-11-24T10:26:44Z</time>
      </trkpt>
      <trkpt lat="42.78917" lon="0.73978">
        <ele>2297.5</ele>
        <time>2018-11-24T10:26:45Z</time>
      </trkpt>
      <trkpt lat="42.78919" lon="0.73975">
        <ele>2296.1</ele>
        <time>2018-11-24T10:26:46Z</time>
      </trkpt>
      <trkpt lat="42.78921" lon="0.73978">
        <ele>2295.3</ele>
        <time>2018-11-24T10:26:47Z</time>
      </trkpt>
      <trkpt lat="42.78925" lon="0.73978">
        <ele>2293.1</ele>
        <time>2018-11-24T10:26:49Z</time>
      </trkpt>
      <trkpt lat="42.78926" lon="0.73981">
        <ele>2292.7</ele>
        <time>2018-11-24T10:26:49Z</time>
      </trkpt>
      <trkpt lat="42.78928" lon="0.73985">
        <ele>2291.7</ele>
        <time>2018-11-24T10:26:51Z</time>
      </trkpt>
      <trkpt lat="42.78929" lon="0.73983">
        <ele>2291.1</ele>
        <time>2018-11-24T10:26:52Z</time>
      </trkpt>
      <trkpt lat="42.7893" lon="0.73981">
        <ele>2290.6</ele>
        <time>2018-11-24T10:26:52Z</time>
      </trkpt>
      <trkpt lat="42.78933" lon="0.73977">
        <ele>2288.9</ele>
        <time>2018-11-24T10:26:54Z</time>
      </trkpt>
      <trkpt lat="42.78935" lon="0.73976">
        <ele>2287.8</ele>
        <time>2018-11-24T10:26:55Z</time>
      </trkpt>
      <trkpt lat="42.78937" lon="0.73974">
        <ele>2286.7</ele>
        <time>2018-11-24T10:26:56Z</time>
      </trkpt>
      <trkpt lat="42.78938" lon="0.73972">
        <ele>2286.3</ele>
        <time>2018-11-24T10:26:57Z</time>
      </trkpt>
      <trkpt lat="42.78939" lon="0.73969">
        <ele>2284.7</ele>
        <time>2018-11-24T10:26:58Z</time>
      </trkpt>
      <trkpt lat="42.7894" lon="0.73966">
        <ele>2283.1</ele>
        <time>2018-11-24T10:26:58Z</time>
      </trkpt>
      <trkpt lat="42.78942" lon="0.73964">
        <ele>2281.7</ele>
        <time>2018-11-24T10:26:59Z</time>
      </trkpt>
      <trkpt lat="42.78943" lon="0.73961">
        <ele>2280</ele>
        <time>2018-11-24T10:27:00Z</time>
      </trkpt>
      <trkpt lat="42.78945" lon="0.73961">
        <ele>2279.1</ele>
        <time>2018-11-24T10:27:01Z</time>
      </trkpt>
      <trkpt lat="42.78948" lon="0.73961">
        <ele>2277.5</ele>
        <time>2018-11-24T10:27:02Z</time>
      </trkpt>
      <trkpt lat="42.78949" lon="0.73963">
        <ele>2277.4</ele>
        <time>2018-11-24T10:27:03Z</time>
      </trkpt>
      <trkpt lat="42.78951" lon="0.73966">
        <ele>2277.5</ele>
        <time>2018-11-24T10:27:04Z</time>
      </trkpt>
      <trkpt lat="42.78952" lon="0.73969">
        <ele>2277.5</ele>
        <time>2018-11-24T10:27:05Z</time>
      </trkpt>
      <trkpt lat="42.78954" lon="0.73974">
        <ele>2277.1</ele>
        <time>2018-11-24T10:27:07Z</time>
      </trkpt>
      <trkpt lat="42.78956" lon="0.73976">
        <ele>2275.6</ele>
        <time>2018-11-24T10:27:08Z</time>
      </trkpt>
      <trkpt lat="42.78958" lon="0.73975">
        <ele>2274.5</ele>
        <time>2018-11-24T10:27:09Z</time>
      </trkpt>
      <trkpt lat="42.78962" lon="0.73975">
        <ele>2272.1</ele>
        <time>2018-11-24T10:27:10Z</time>
      </trkpt>
      <trkpt lat="42.78964" lon="0.73973">
        <ele>2271.1</ele>
        <time>2018-11-24T10:27:11Z</time>
      </trkpt>
      <trkpt lat="42.78966" lon="0.73971">
        <ele>2269.6</ele>
        <time>2018-11-24T10:27:12Z</time>
      </trkpt>
      <trkpt lat="42.78968" lon="0.73969">
        <ele>2267.9</ele>
        <time>2018-11-24T10:27:13Z</time>
      </trkpt>
      <trkpt lat="42.78971" lon="0.73966">
        <ele>2265.6</ele>
        <time>2018-11-24T10:27:15Z</time>
      </trkpt>
      <trkpt lat="42.78973" lon="0.73965">
        <ele>2264.2</ele>
        <time>2018-11-24T10:27:16Z</time>
      </trkpt>
      <trkpt lat="42.78977" lon="0.73964">
        <ele>2261.5</ele>
        <time>2018-11-24T10:27:17Z</time>
      </trkpt>
      <trkpt lat="42.78978" lon="0.73962">
        <ele>2260.6</ele>
        <time>2018-11-24T10:27:18Z</time>
      </trkpt>
      <trkpt lat="42.78979" lon="0.7396">
        <ele>2259.7</ele>
        <time>2018-11-24T10:27:19Z</time>
      </trkpt>
      <trkpt lat="42.78983" lon="0.7396">
        <ele>2257.2</ele>
        <time>2018-11-24T10:27:20Z</time>
      </trkpt>
      <trkpt lat="42.78985" lon="0.7396">
        <ele>2256.1</ele>
        <time>2018-11-24T10:27:21Z</time>
      </trkpt>
      <trkpt lat="42.78989" lon="0.73958">
        <ele>2253.6</ele>
        <time>2018-11-24T10:27:23Z</time>
      </trkpt>
      <trkpt lat="42.78992" lon="0.7396">
        <ele>2251.8</ele>
        <time>2018-11-24T10:27:24Z</time>
      </trkpt>
      <trkpt lat="42.78993" lon="0.73958">
        <ele>2251.3</ele>
        <time>2018-11-24T10:27:25Z</time>
      </trkpt>
      <trkpt lat="42.78994" lon="0.73956">
        <ele>2250.7</ele>
        <time>2018-11-24T10:27:26Z</time>
      </trkpt>
      <trkpt lat="42.78997" lon="0.73952">
        <ele>2249.1</ele>
        <time>2018-11-24T10:27:27Z</time>
      </trkpt>
      <trkpt lat="42.78999" lon="0.7395">
        <ele>2248.1</ele>
        <time>2018-11-24T10:27:28Z</time>
      </trkpt>
      <trkpt lat="42.79001" lon="0.73948">
        <ele>2247.3</ele>
        <time>2018-11-24T10:27:29Z</time>
      </trkpt>
      <trkpt lat="42.79002" lon="0.73946">
        <ele>2246.8</ele>
        <time>2018-11-24T10:27:30Z</time>
      </trkpt>
      <trkpt lat="42.79004" lon="0.73943">
        <ele>2245.3</ele>
        <time>2018-11-24T10:27:31Z</time>
      </trkpt>
      <trkpt lat="42.79005" lon="0.73942">
        <ele>2244.2</ele>
        <time>2018-11-24T10:27:32Z</time>
      </trkpt>
      <trkpt lat="42.79008" lon="0.73942">
        <ele>2242.8</ele>
        <time>2018-11-24T10:27:33Z</time>
      </trkpt>
      <trkpt lat="42.7901" lon="0.73941">
        <ele>2241.3</ele>
        <time>2018-11-24T10:27:34Z</time>
      </trkpt>
      <trkpt lat="42.79014" lon="0.7394">
        <ele>2239.1</ele>
        <time>2018-11-24T10:27:35Z</time>
      </trkpt>
      <trkpt lat="42.79018" lon="0.73939">
        <ele>2236.9</ele>
        <time>2018-11-24T10:27:37Z</time>
      </trkpt>
      <trkpt lat="42.7902" lon="0.73938">
        <ele>2235.6</ele>
        <time>2018-11-24T10:27:38Z</time>
      </trkpt>
      <trkpt lat="42.79022" lon="0.73936">
        <ele>2234.3</ele>
        <time>2018-11-24T10:27:39Z</time>
      </trkpt>
      <trkpt lat="42.79026" lon="0.73935">
        <ele>2232.4</ele>
        <time>2018-11-24T10:27:40Z</time>
      </trkpt>
      <trkpt lat="42.79029" lon="0.73931">
        <ele>2230.6</ele>
        <time>2018-11-24T10:27:42Z</time>
      </trkpt>
      <trkpt lat="42.79031" lon="0.73931">
        <ele>2229.9</ele>
        <time>2018-11-24T10:27:43Z</time>
      </trkpt>
      <trkpt lat="42.79035" lon="0.73929">
        <ele>2228.6</ele>
        <time>2018-11-24T10:27:45Z</time>
      </trkpt>
      <trkpt lat="42.79037" lon="0.7393">
        <ele>2228</ele>
        <time>2018-11-24T10:27:45Z</time>
      </trkpt>
      <trkpt lat="42.79039" lon="0.73928">
        <ele>2227.4</ele>
        <time>2018-11-24T10:27:46Z</time>
      </trkpt>
      <trkpt lat="42.79041" lon="0.73927">
        <ele>2226.9</ele>
        <time>2018-11-24T10:27:47Z</time>
      </trkpt>
      <trkpt lat="42.79043" lon="0.73925">
        <ele>2226.4</ele>
        <time>2018-11-24T10:27:48Z</time>
      </trkpt>
      <trkpt lat="42.79046" lon="0.73922">
        <ele>2226.2</ele>
        <time>2018-11-24T10:27:50Z</time>
      </trkpt>
      <trkpt lat="42.7905" lon="0.73921">
        <ele>2225.6</ele>
        <time>2018-11-24T10:27:51Z</time>
      </trkpt>
      <trkpt lat="42.79054" lon="0.73919">
        <ele>2225.6</ele>
        <time>2018-11-24T10:27:53Z</time>
      </trkpt>
      <trkpt lat="42.79058" lon="0.73917">
        <ele>2225.4</ele>
        <time>2018-11-24T10:27:55Z</time>
      </trkpt>
      <trkpt lat="42.79062" lon="0.73915">
        <ele>2223.8</ele>
        <time>2018-11-24T10:27:56Z</time>
      </trkpt>
      <trkpt lat="42.79064" lon="0.73915">
        <ele>2223.4</ele>
        <time>2018-11-24T10:27:57Z</time>
      </trkpt>
      <trkpt lat="42.79067" lon="0.73915">
        <ele>2222.8</ele>
        <time>2018-11-24T10:27:58Z</time>
      </trkpt>
      <trkpt lat="42.79069" lon="0.73914">
        <ele>2222</ele>
        <time>2018-11-24T10:27:59Z</time>
      </trkpt>
      <trkpt lat="42.79073" lon="0.73913">
        <ele>2220.8</ele>
        <time>2018-11-24T10:28:01Z</time>
      </trkpt>
      <trkpt lat="42.79075" lon="0.73913">
        <ele>2220.4</ele>
        <time>2018-11-24T10:28:02Z</time>
      </trkpt>
      <trkpt lat="42.79077" lon="0.73914">
        <ele>2220.3</ele>
        <time>2018-11-24T10:28:03Z</time>
      </trkpt>
      <trkpt lat="42.79081" lon="0.73916">
        <ele>2220.4</ele>
        <time>2018-11-24T10:28:04Z</time>
      </trkpt>
      <trkpt lat="42.79084" lon="0.73916">
        <ele>2219.5</ele>
        <time>2018-11-24T10:28:05Z</time>
      </trkpt>
      <trkpt lat="42.79086" lon="0.73915">
        <ele>2218.9</ele>
        <time>2018-11-24T10:28:06Z</time>
      </trkpt>
      <trkpt lat="42.79089" lon="0.73914">
        <ele>2218</ele>
        <time>2018-11-24T10:28:07Z</time>
      </trkpt>
      <trkpt lat="42.79091" lon="0.73912">
        <ele>2217.3</ele>
        <time>2018-11-24T10:28:09Z</time>
      </trkpt>
      <trkpt lat="42.79095" lon="0.73912">
        <ele>2216.6</ele>
        <time>2018-11-24T10:28:10Z</time>
      </trkpt>
      <trkpt lat="42.79097" lon="0.73911">
        <ele>2216.2</ele>
        <time>2018-11-24T10:28:11Z</time>
      </trkpt>
      <trkpt lat="42.79099" lon="0.7391">
        <ele>2215.8</ele>
        <time>2018-11-24T10:28:12Z</time>
      </trkpt>
      <trkpt lat="42.79103" lon="0.73908">
        <ele>2215.4</ele>
        <time>2018-11-24T10:28:14Z</time>
      </trkpt>
      <trkpt lat="42.79106" lon="0.73907">
        <ele>2215.1</ele>
        <time>2018-11-24T10:28:15Z</time>
      </trkpt>
      <trkpt lat="42.79108" lon="0.73906">
        <ele>2214.9</ele>
        <time>2018-11-24T10:28:16Z</time>
      </trkpt>
      <trkpt lat="42.7911" lon="0.73905">
        <ele>2215</ele>
        <time>2018-11-24T10:28:17Z</time>
      </trkpt>
      <trkpt lat="42.79112" lon="0.73903">
        <ele>2214.9</ele>
        <time>2018-11-24T10:28:17Z</time>
      </trkpt>
      <trkpt lat="42.79115" lon="0.73902">
        <ele>2214.3</ele>
        <time>2018-11-24T10:28:19Z</time>
      </trkpt>
      <trkpt lat="42.79118" lon="0.73901">
        <ele>2213.7</ele>
        <time>2018-11-24T10:28:20Z</time>
      </trkpt>
      <trkpt lat="42.79121" lon="0.739">
        <ele>2213.4</ele>
        <time>2018-11-24T10:28:21Z</time>
      </trkpt>
      <trkpt lat="42.79123" lon="0.73899">
        <ele>2213.1</ele>
        <time>2018-11-24T10:28:22Z</time>
      </trkpt>
      <trkpt lat="42.79126" lon="0.73897">
        <ele>2213.2</ele>
        <time>2018-11-24T10:28:23Z</time>
      </trkpt>
      <trkpt lat="42.79128" lon="0.73895">
        <ele>2213.5</ele>
        <time>2018-11-24T10:28:24Z</time>
      </trkpt>
      <trkpt lat="42.79132" lon="0.73893">
        <ele>2213.8</ele>
        <time>2018-11-24T10:28:26Z</time>
      </trkpt>
      <trkpt lat="42.79135" lon="0.7389">
        <ele>2214.7</ele>
        <time>2018-11-24T10:28:28Z</time>
      </trkpt>
      <trkpt lat="42.79137" lon="0.73888">
        <ele>2215</ele>
        <time>2018-11-24T10:28:29Z</time>
      </trkpt>
      <trkpt lat="42.79139" lon="0.73886">
        <ele>2214.3</ele>
        <time>2018-11-24T10:28:30Z</time>
      </trkpt>
      <trkpt lat="42.79143" lon="0.73884">
        <ele>2212.3</ele>
        <time>2018-11-24T10:28:31Z</time>
      </trkpt>
      <trkpt lat="42.79145" lon="0.73882">
        <ele>2211.1</ele>
        <time>2018-11-24T10:28:32Z</time>
      </trkpt>
      <trkpt lat="42.79147" lon="0.7388">
        <ele>2210.2</ele>
        <time>2018-11-24T10:28:33Z</time>
      </trkpt>
      <trkpt lat="42.7915" lon="0.73879">
        <ele>2209</ele>
        <time>2018-11-24T10:28:34Z</time>
      </trkpt>
      <trkpt lat="42.79152" lon="0.73878">
        <ele>2208.3</ele>
        <time>2018-11-24T10:28:35Z</time>
      </trkpt>
      <trkpt lat="42.79155" lon="0.73877">
        <ele>2207.5</ele>
        <time>2018-11-24T10:28:36Z</time>
      </trkpt>
      <trkpt lat="42.79157" lon="0.73876">
        <ele>2206.7</ele>
        <time>2018-11-24T10:28:37Z</time>
      </trkpt>
      <trkpt lat="42.79161" lon="0.73875">
        <ele>2205.6</ele>
        <time>2018-11-24T10:28:39Z</time>
      </trkpt>
      <trkpt lat="42.79164" lon="0.73872">
        <ele>2205.3</ele>
        <time>2018-11-24T10:28:40Z</time>
      </trkpt>
      <trkpt lat="42.79167" lon="0.73871">
        <ele>2204.9</ele>
        <time>2018-11-24T10:28:42Z</time>
      </trkpt>
      <trkpt lat="42.79169" lon="0.7387">
        <ele>2204.6</ele>
        <time>2018-11-24T10:28:43Z</time>
      </trkpt>
      <trkpt lat="42.79172" lon="0.7387">
        <ele>2204</ele>
        <time>2018-11-24T10:28:44Z</time>
      </trkpt>
      <trkpt lat="42.79174" lon="0.73869">
        <ele>2203.5</ele>
        <time>2018-11-24T10:28:45Z</time>
      </trkpt>
      <trkpt lat="42.79176" lon="0.7387">
        <ele>2202.7</ele>
        <time>2018-11-24T10:28:45Z</time>
      </trkpt>
      <trkpt lat="42.79179" lon="0.73869">
        <ele>2202.3</ele>
        <time>2018-11-24T10:28:46Z</time>
      </trkpt>
      <trkpt lat="42.79181" lon="0.73868">
        <ele>2202.1</ele>
        <time>2018-11-24T10:28:48Z</time>
      </trkpt>
      <trkpt lat="42.79184" lon="0.73869">
        <ele>2201.3</ele>
        <time>2018-11-24T10:28:49Z</time>
      </trkpt>
      <trkpt lat="42.79186" lon="0.73869">
        <ele>2200.4</ele>
        <time>2018-11-24T10:28:50Z</time>
      </trkpt>
      <trkpt lat="42.79188" lon="0.73869">
        <ele>2199.9</ele>
        <time>2018-11-24T10:28:50Z</time>
      </trkpt>
      <trkpt lat="42.7919" lon="0.73869">
        <ele>2199.4</ele>
        <time>2018-11-24T10:28:51Z</time>
      </trkpt>
      <trkpt lat="42.79193" lon="0.73869">
        <ele>2198.8</ele>
        <time>2018-11-24T10:28:52Z</time>
      </trkpt>
      <trkpt lat="42.79195" lon="0.73868">
        <ele>2198.7</ele>
        <time>2018-11-24T10:28:53Z</time>
      </trkpt>
      <trkpt lat="42.79196" lon="0.73866">
        <ele>2199.7</ele>
        <time>2018-11-24T10:28:54Z</time>
      </trkpt>
      <trkpt lat="42.79199" lon="0.73866">
        <ele>2199.6</ele>
        <time>2018-11-24T10:28:55Z</time>
      </trkpt>
      <trkpt lat="42.79201" lon="0.73865">
        <ele>2199.6</ele>
        <time>2018-11-24T10:28:56Z</time>
      </trkpt>
      <trkpt lat="42.79203" lon="0.73865">
        <ele>2199.5</ele>
        <time>2018-11-24T10:28:57Z</time>
      </trkpt>
      <trkpt lat="42.79207" lon="0.73864">
        <ele>2199.6</ele>
        <time>2018-11-24T10:28:58Z</time>
      </trkpt>
      <trkpt lat="42.7921" lon="0.73863">
        <ele>2200.2</ele>
        <time>2018-11-24T10:28:59Z</time>
      </trkpt>
      <trkpt lat="42.79212" lon="0.73861">
        <ele>2200.8</ele>
        <time>2018-11-24T10:29:01Z</time>
      </trkpt>
      <trkpt lat="42.79214" lon="0.7386">
        <ele>2200.6</ele>
        <time>2018-11-24T10:29:01Z</time>
      </trkpt>
      <trkpt lat="42.79216" lon="0.73858">
        <ele>2200.4</ele>
        <time>2018-11-24T10:29:02Z</time>
      </trkpt>
      <trkpt lat="42.79218" lon="0.73857">
        <ele>2200.4</ele>
        <time>2018-11-24T10:29:03Z</time>
      </trkpt>
      <trkpt lat="42.7922" lon="0.73855">
        <ele>2200.4</ele>
        <time>2018-11-24T10:29:04Z</time>
      </trkpt>
      <trkpt lat="42.79222" lon="0.73854">
        <ele>2200.5</ele>
        <time>2018-11-24T10:29:05Z</time>
      </trkpt>
      <trkpt lat="42.79224" lon="0.73852">
        <ele>2201.6</ele>
        <time>2018-11-24T10:29:06Z</time>
      </trkpt>
      <trkpt lat="42.79228" lon="0.7385">
        <ele>2203.7</ele>
        <time>2018-11-24T10:29:08Z</time>
      </trkpt>
      <trkpt lat="42.79232" lon="0.73848">
        <ele>2206.1</ele>
        <time>2018-11-24T10:29:09Z</time>
      </trkpt>
      <trkpt lat="42.79234" lon="0.73847">
        <ele>2207.2</ele>
        <time>2018-11-24T10:29:10Z</time>
      </trkpt>
      <trkpt lat="42.79236" lon="0.73844">
        <ele>2208.9</ele>
        <time>2018-11-24T10:29:12Z</time>
      </trkpt>
      <trkpt lat="42.79239" lon="0.7384">
        <ele>2211.5</ele>
        <time>2018-11-24T10:29:13Z</time>
      </trkpt>
      <trkpt lat="42.79243" lon="0.73838">
        <ele>2214.2</ele>
        <time>2018-11-24T10:29:15Z</time>
      </trkpt>
      <trkpt lat="42.79245" lon="0.73839">
        <ele>2215.2</ele>
        <time>2018-11-24T10:29:16Z</time>
      </trkpt>
      <trkpt lat="42.79246" lon="0.73837">
        <ele>2216.4</ele>
        <time>2018-11-24T10:29:16Z</time>
      </trkpt>
      <trkpt lat="42.79248" lon="0.73836">
        <ele>2217.9</ele>
        <time>2018-11-24T10:29:17Z</time>
      </trkpt>
      <trkpt lat="42.7925" lon="0.73837">
        <ele>2218.8</ele>
        <time>2018-11-24T10:29:18Z</time>
      </trkpt>
      <trkpt lat="42.79252" lon="0.73839">
        <ele>2218.9</ele>
        <time>2018-11-24T10:29:19Z</time>
      </trkpt>
      <trkpt lat="42.79256" lon="0.73841">
        <ele>2219.4</ele>
        <time>2018-11-24T10:29:21Z</time>
      </trkpt>
      <trkpt lat="42.79259" lon="0.7384">
        <ele>2220.5</ele>
        <time>2018-11-24T10:29:22Z</time>
      </trkpt>
      <trkpt lat="42.79261" lon="0.73839">
        <ele>2221.6</ele>
        <time>2018-11-24T10:29:23Z</time>
      </trkpt>
      <trkpt lat="42.79263" lon="0.73837">
        <ele>2222.8</ele>
        <time>2018-11-24T10:29:24Z</time>
      </trkpt>
      <trkpt lat="42.79266" lon="0.73833">
        <ele>2225.3</ele>
        <time>2018-11-24T10:29:26Z</time>
      </trkpt>
      <trkpt lat="42.79269" lon="0.7383">
        <ele>2226.4</ele>
        <time>2018-11-24T10:29:27Z</time>
      </trkpt>
      <trkpt lat="42.79272" lon="0.73833">
        <ele>2227.2</ele>
        <time>2018-11-24T10:29:29Z</time>
      </trkpt>
      <trkpt lat="42.79273" lon="0.73831">
        <ele>2227.8</ele>
        <time>2018-11-24T10:29:29Z</time>
      </trkpt>
      <trkpt lat="42.79274" lon="0.73829">
        <ele>2228.3</ele>
        <time>2018-11-24T10:29:30Z</time>
      </trkpt>
      <trkpt lat="42.79276" lon="0.73827">
        <ele>2229.1</ele>
        <time>2018-11-24T10:29:31Z</time>
      </trkpt>
      <trkpt lat="42.79277" lon="0.73824">
        <ele>2230.1</ele>
        <time>2018-11-24T10:29:32Z</time>
      </trkpt>
      <trkpt lat="42.79278" lon="0.73821">
        <ele>2230.8</ele>
        <time>2018-11-24T10:29:33Z</time>
      </trkpt>
      <trkpt lat="42.79279" lon="0.73818">
        <ele>2231</ele>
        <time>2018-11-24T10:29:34Z</time>
      </trkpt>
      <trkpt lat="42.79281" lon="0.73814">
        <ele>2231.3</ele>
        <time>2018-11-24T10:29:35Z</time>
      </trkpt>
      <trkpt lat="42.79282" lon="0.7381">
        <ele>2231.5</ele>
        <time>2018-11-24T10:29:36Z</time>
      </trkpt>
      <trkpt lat="42.79283" lon="0.73807">
        <ele>2231.8</ele>
        <time>2018-11-24T10:29:37Z</time>
      </trkpt>
      <trkpt lat="42.79284" lon="0.73804">
        <ele>2231.8</ele>
        <time>2018-11-24T10:29:38Z</time>
      </trkpt>
      <trkpt lat="42.79286" lon="0.73801">
        <ele>2231.5</ele>
        <time>2018-11-24T10:29:39Z</time>
      </trkpt>
      <trkpt lat="42.79287" lon="0.73798">
        <ele>2231.2</ele>
        <time>2018-11-24T10:29:41Z</time>
      </trkpt>
      <trkpt lat="42.79289" lon="0.73795">
        <ele>2231.1</ele>
        <time>2018-11-24T10:29:42Z</time>
      </trkpt>
      <trkpt lat="42.7929" lon="0.73792">
        <ele>2231.1</ele>
        <time>2018-11-24T10:29:43Z</time>
      </trkpt>
      <trkpt lat="42.79292" lon="0.73789">
        <ele>2231.1</ele>
        <time>2018-11-24T10:29:44Z</time>
      </trkpt>
      <trkpt lat="42.79293" lon="0.73785">
        <ele>2231.4</ele>
        <time>2018-11-24T10:29:45Z</time>
      </trkpt>
      <trkpt lat="42.79295" lon="0.73782">
        <ele>2231.7</ele>
        <time>2018-11-24T10:29:46Z</time>
      </trkpt>
      <trkpt lat="42.79296" lon="0.73778">
        <ele>2232</ele>
        <time>2018-11-24T10:29:47Z</time>
      </trkpt>
      <trkpt lat="42.79298" lon="0.73775">
        <ele>2232.3</ele>
        <time>2018-11-24T10:29:49Z</time>
      </trkpt>
      <trkpt lat="42.79299" lon="0.73771">
        <ele>2232.8</ele>
        <time>2018-11-24T10:29:50Z</time>
      </trkpt>
      <trkpt lat="42.79301" lon="0.73768">
        <ele>2233.4</ele>
        <time>2018-11-24T10:29:51Z</time>
      </trkpt>
      <trkpt lat="42.79302" lon="0.73764">
        <ele>2234.1</ele>
        <time>2018-11-24T10:29:52Z</time>
      </trkpt>
      <trkpt lat="42.79304" lon="0.73761">
        <ele>2235.1</ele>
        <time>2018-11-24T10:29:54Z</time>
      </trkpt>
      <trkpt lat="42.79306" lon="0.73757">
        <ele>2235.9</ele>
        <time>2018-11-24T10:29:55Z</time>
      </trkpt>
      <trkpt lat="42.79308" lon="0.73754">
        <ele>2236</ele>
        <time>2018-11-24T10:29:56Z</time>
      </trkpt>
      <trkpt lat="42.79309" lon="0.73751">
        <ele>2236.1</ele>
        <time>2018-11-24T10:29:57Z</time>
      </trkpt>
      <trkpt lat="42.79311" lon="0.73748">
        <ele>2235.9</ele>
        <time>2018-11-24T10:29:58Z</time>
      </trkpt>
      <trkpt lat="42.79312" lon="0.73744">
        <ele>2235.8</ele>
        <time>2018-11-24T10:29:59Z</time>
      </trkpt>
      <trkpt lat="42.79314" lon="0.73742">
        <ele>2235.6</ele>
        <time>2018-11-24T10:30:00Z</time>
      </trkpt>
      <trkpt lat="42.79315" lon="0.73739">
        <ele>2235.5</ele>
        <time>2018-11-24T10:30:01Z</time>
      </trkpt>
      <trkpt lat="42.79317" lon="0.73738">
        <ele>2235.6</ele>
        <time>2018-11-24T10:30:02Z</time>
      </trkpt>
      <trkpt lat="42.79319" lon="0.73736">
        <ele>2235.5</ele>
        <time>2018-11-24T10:30:03Z</time>
      </trkpt>
      <trkpt lat="42.79321" lon="0.73733">
        <ele>2235.9</ele>
        <time>2018-11-24T10:30:04Z</time>
      </trkpt>
      <trkpt lat="42.79322" lon="0.7373">
        <ele>2236.4</ele>
        <time>2018-11-24T10:30:05Z</time>
      </trkpt>
      <trkpt lat="42.79323" lon="0.73727">
        <ele>2236.8</ele>
        <time>2018-11-24T10:30:06Z</time>
      </trkpt>
      <trkpt lat="42.79324" lon="0.73724">
        <ele>2237.4</ele>
        <time>2018-11-24T10:30:07Z</time>
      </trkpt>
      <trkpt lat="42.79325" lon="0.73721">
        <ele>2237.9</ele>
        <time>2018-11-24T10:30:08Z</time>
      </trkpt>
      <trkpt lat="42.79326" lon="0.73718">
        <ele>2238.1</ele>
        <time>2018-11-24T10:30:09Z</time>
      </trkpt>
      <trkpt lat="42.79328" lon="0.73715">
        <ele>2238.6</ele>
        <time>2018-11-24T10:30:10Z</time>
      </trkpt>
      <trkpt lat="42.79329" lon="0.73711">
        <ele>2239.2</ele>
        <time>2018-11-24T10:30:11Z</time>
      </trkpt>
      <trkpt lat="42.79331" lon="0.73706">
        <ele>2240.2</ele>
        <time>2018-11-24T10:30:13Z</time>
      </trkpt>
      <trkpt lat="42.79333" lon="0.73702">
        <ele>2241.1</ele>
        <time>2018-11-24T10:30:15Z</time>
      </trkpt>
      <trkpt lat="42.79334" lon="0.73699">
        <ele>2241.4</ele>
        <time>2018-11-24T10:30:16Z</time>
      </trkpt>
      <trkpt lat="42.79335" lon="0.73696">
        <ele>2241.4</ele>
        <time>2018-11-24T10:30:16Z</time>
      </trkpt>
      <trkpt lat="42.79337" lon="0.73691">
        <ele>2240.5</ele>
        <time>2018-11-24T10:30:18Z</time>
      </trkpt>
      <trkpt lat="42.79339" lon="0.73686">
        <ele>2239.5</ele>
        <time>2018-11-24T10:30:20Z</time>
      </trkpt>
      <trkpt lat="42.7934" lon="0.73683">
        <ele>2238.9</ele>
        <time>2018-11-24T10:30:21Z</time>
      </trkpt>
      <trkpt lat="42.7934" lon="0.7368">
        <ele>2238.3</ele>
        <time>2018-11-24T10:30:22Z</time>
      </trkpt>
      <trkpt lat="42.79342" lon="0.73676">
        <ele>2237.5</ele>
        <time>2018-11-24T10:30:23Z</time>
      </trkpt>
      <trkpt lat="42.79342" lon="0.7367">
        <ele>2236.8</ele>
        <time>2018-11-24T10:30:25Z</time>
      </trkpt>
      <trkpt lat="42.79343" lon="0.73667">
        <ele>2236.4</ele>
        <time>2018-11-24T10:30:26Z</time>
      </trkpt>
      <trkpt lat="42.79343" lon="0.73664">
        <ele>2235.9</ele>
        <time>2018-11-24T10:30:27Z</time>
      </trkpt>
      <trkpt lat="42.79345" lon="0.73662">
        <ele>2235.3</ele>
        <time>2018-11-24T10:30:28Z</time>
      </trkpt>
      <trkpt lat="42.79346" lon="0.73659">
        <ele>2234.9</ele>
        <time>2018-11-24T10:30:29Z</time>
      </trkpt>
      <trkpt lat="42.79348" lon="0.73656">
        <ele>2234.3</ele>
        <time>2018-11-24T10:30:30Z</time>
      </trkpt>
      <trkpt lat="42.79351" lon="0.73652">
        <ele>2233.5</ele>
        <time>2018-11-24T10:30:31Z</time>
      </trkpt>
      <trkpt lat="42.79352" lon="0.73649">
        <ele>2233</ele>
        <time>2018-11-24T10:30:32Z</time>
      </trkpt>
      <trkpt lat="42.79353" lon="0.73646">
        <ele>2232.5</ele>
        <time>2018-11-24T10:30:33Z</time>
      </trkpt>
      <trkpt lat="42.79356" lon="0.73642">
        <ele>2231.7</ele>
        <time>2018-11-24T10:30:35Z</time>
      </trkpt>
      <trkpt lat="42.79359" lon="0.73638">
        <ele>2231</ele>
        <time>2018-11-24T10:30:37Z</time>
      </trkpt>
      <trkpt lat="42.7936" lon="0.73635">
        <ele>2230.1</ele>
        <time>2018-11-24T10:30:38Z</time>
      </trkpt>
      <trkpt lat="42.79361" lon="0.73632">
        <ele>2229.3</ele>
        <time>2018-11-24T10:30:39Z</time>
      </trkpt>
      <trkpt lat="42.79363" lon="0.7363">
        <ele>2228.3</ele>
        <time>2018-11-24T10:30:40Z</time>
      </trkpt>
      <trkpt lat="42.79365" lon="0.73628">
        <ele>2227.4</ele>
        <time>2018-11-24T10:30:41Z</time>
      </trkpt>
      <trkpt lat="42.79366" lon="0.73626">
        <ele>2226.7</ele>
        <time>2018-11-24T10:30:41Z</time>
      </trkpt>
      <trkpt lat="42.79369" lon="0.73622">
        <ele>2225</ele>
        <time>2018-11-24T10:30:43Z</time>
      </trkpt>
      <trkpt lat="42.79371" lon="0.7362">
        <ele>2224</ele>
        <time>2018-11-24T10:30:44Z</time>
      </trkpt>
      <trkpt lat="42.79373" lon="0.73617">
        <ele>2222.9</ele>
        <time>2018-11-24T10:30:45Z</time>
      </trkpt>
      <trkpt lat="42.79375" lon="0.73616">
        <ele>2222.1</ele>
        <time>2018-11-24T10:30:46Z</time>
      </trkpt>
      <trkpt lat="42.79377" lon="0.73614">
        <ele>2221.3</ele>
        <time>2018-11-24T10:30:47Z</time>
      </trkpt>
      <trkpt lat="42.79381" lon="0.73613">
        <ele>2220.2</ele>
        <time>2018-11-24T10:30:49Z</time>
      </trkpt>
      <trkpt lat="42.79383" lon="0.73613">
        <ele>2219.8</ele>
        <time>2018-11-24T10:30:49Z</time>
      </trkpt>
      <trkpt lat="42.79385" lon="0.73613">
        <ele>2219.3</ele>
        <time>2018-11-24T10:30:50Z</time>
      </trkpt>
      <trkpt lat="42.79388" lon="0.73613">
        <ele>2218.7</ele>
        <time>2018-11-24T10:30:51Z</time>
      </trkpt>
      <trkpt lat="42.7939" lon="0.73613">
        <ele>2218</ele>
        <time>2018-11-24T10:30:52Z</time>
      </trkpt>
      <trkpt lat="42.79394" lon="0.73612">
        <ele>2216.5</ele>
        <time>2018-11-24T10:30:54Z</time>
      </trkpt>
      <trkpt lat="42.79398" lon="0.7361">
        <ele>2214.4</ele>
        <time>2018-11-24T10:30:56Z</time>
      </trkpt>
      <trkpt lat="42.79401" lon="0.73611">
        <ele>2213.6</ele>
        <time>2018-11-24T10:30:57Z</time>
      </trkpt>
      <trkpt lat="42.79403" lon="0.73611">
        <ele>2213</ele>
        <time>2018-11-24T10:30:58Z</time>
      </trkpt>
      <trkpt lat="42.79407" lon="0.73613">
        <ele>2212</ele>
        <time>2018-11-24T10:30:59Z</time>
      </trkpt>
      <trkpt lat="42.79409" lon="0.73614">
        <ele>2211.5</ele>
        <time>2018-11-24T10:31:00Z</time>
      </trkpt>
      <trkpt lat="42.79412" lon="0.73616">
        <ele>2210.7</ele>
        <time>2018-11-24T10:31:01Z</time>
      </trkpt>
      <trkpt lat="42.79416" lon="0.73618">
        <ele>2209.8</ele>
        <time>2018-11-24T10:31:03Z</time>
      </trkpt>
      <trkpt lat="42.79418" lon="0.7362">
        <ele>2209.3</ele>
        <time>2018-11-24T10:31:04Z</time>
      </trkpt>
      <trkpt lat="42.7942" lon="0.73622">
        <ele>2208.8</ele>
        <time>2018-11-24T10:31:05Z</time>
      </trkpt>
      <trkpt lat="42.79422" lon="0.73624">
        <ele>2208.2</ele>
        <time>2018-11-24T10:31:06Z</time>
      </trkpt>
      <trkpt lat="42.79424" lon="0.73625">
        <ele>2207.6</ele>
        <time>2018-11-24T10:31:07Z</time>
      </trkpt>
      <trkpt lat="42.79427" lon="0.73627">
        <ele>2206.6</ele>
        <time>2018-11-24T10:31:08Z</time>
      </trkpt>
      <trkpt lat="42.7943" lon="0.73628">
        <ele>2205.6</ele>
        <time>2018-11-24T10:31:09Z</time>
      </trkpt>
      <trkpt lat="42.79432" lon="0.73629">
        <ele>2204.7</ele>
        <time>2018-11-24T10:31:10Z</time>
      </trkpt>
      <trkpt lat="42.79434" lon="0.73631">
        <ele>2204.1</ele>
        <time>2018-11-24T10:31:11Z</time>
      </trkpt>
      <trkpt lat="42.79436" lon="0.73632">
        <ele>2203.5</ele>
        <time>2018-11-24T10:31:12Z</time>
      </trkpt>
      <trkpt lat="42.79439" lon="0.73636">
        <ele>2203</ele>
        <time>2018-11-24T10:31:14Z</time>
      </trkpt>
      <trkpt lat="42.79441" lon="0.73638">
        <ele>2202.3</ele>
        <time>2018-11-24T10:31:15Z</time>
      </trkpt>
      <trkpt lat="42.79443" lon="0.73639">
        <ele>2201.6</ele>
        <time>2018-11-24T10:31:16Z</time>
      </trkpt>
      <trkpt lat="42.79446" lon="0.73642">
        <ele>2199.6</ele>
        <time>2018-11-24T10:31:17Z</time>
      </trkpt>
      <trkpt lat="42.79449" lon="0.73646">
        <ele>2197.3</ele>
        <time>2018-11-24T10:31:19Z</time>
      </trkpt>
      <trkpt lat="42.79452" lon="0.73649">
        <ele>2195.4</ele>
        <time>2018-11-24T10:31:20Z</time>
      </trkpt>
      <trkpt lat="42.79454" lon="0.73652">
        <ele>2194</ele>
        <time>2018-11-24T10:31:22Z</time>
      </trkpt>
      <trkpt lat="42.79456" lon="0.73654">
        <ele>2192.7</ele>
        <time>2018-11-24T10:31:23Z</time>
      </trkpt>
      <trkpt lat="42.7946" lon="0.73656">
        <ele>2190.7</ele>
        <time>2018-11-24T10:31:24Z</time>
      </trkpt>
      <trkpt lat="42.79463" lon="0.73656">
        <ele>2189.8</ele>
        <time>2018-11-24T10:31:25Z</time>
      </trkpt>
      <trkpt lat="42.79465" lon="0.73656">
        <ele>2188.8</ele>
        <time>2018-11-24T10:31:26Z</time>
      </trkpt>
      <trkpt lat="42.79466" lon="0.73655">
        <ele>2188.6</ele>
        <time>2018-11-24T10:31:27Z</time>
      </trkpt>
      <trkpt lat="42.7947" lon="0.73653">
        <ele>2187.4</ele>
        <time>2018-11-24T10:31:29Z</time>
      </trkpt>
      <trkpt lat="42.79473" lon="0.73649">
        <ele>2187</ele>
        <time>2018-11-24T10:31:30Z</time>
      </trkpt>
      <trkpt lat="42.79475" lon="0.73648">
        <ele>2186.3</ele>
        <time>2018-11-24T10:31:31Z</time>
      </trkpt>
      <trkpt lat="42.79477" lon="0.7365">
        <ele>2185.3</ele>
        <time>2018-11-24T10:31:32Z</time>
      </trkpt>
      <trkpt lat="42.79479" lon="0.73652">
        <ele>2184.3</ele>
        <time>2018-11-24T10:31:33Z</time>
      </trkpt>
      <trkpt lat="42.79481" lon="0.73653">
        <ele>2183.3</ele>
        <time>2018-11-24T10:31:34Z</time>
      </trkpt>
      <trkpt lat="42.79484" lon="0.73656">
        <ele>2181.9</ele>
        <time>2018-11-24T10:31:35Z</time>
      </trkpt>
      <trkpt lat="42.79487" lon="0.73659">
        <ele>2180.5</ele>
        <time>2018-11-24T10:31:37Z</time>
      </trkpt>
      <trkpt lat="42.79491" lon="0.7366">
        <ele>2179.1</ele>
        <time>2018-11-24T10:31:38Z</time>
      </trkpt>
      <trkpt lat="42.79495" lon="0.73658">
        <ele>2178</ele>
        <time>2018-11-24T10:31:40Z</time>
      </trkpt>
      <trkpt lat="42.79496" lon="0.73656">
        <ele>2177.8</ele>
        <time>2018-11-24T10:31:41Z</time>
      </trkpt>
      <trkpt lat="42.79499" lon="0.73654">
        <ele>2176.9</ele>
        <time>2018-11-24T10:31:42Z</time>
      </trkpt>
      <trkpt lat="42.79502" lon="0.73656">
        <ele>2175.8</ele>
        <time>2018-11-24T10:31:43Z</time>
      </trkpt>
      <trkpt lat="42.79504" lon="0.73657">
        <ele>2175</ele>
        <time>2018-11-24T10:31:44Z</time>
      </trkpt>
      <trkpt lat="42.79506" lon="0.73658">
        <ele>2174.1</ele>
        <time>2018-11-24T10:31:45Z</time>
      </trkpt>
      <trkpt lat="42.79508" lon="0.73658">
        <ele>2173.3</ele>
        <time>2018-11-24T10:31:46Z</time>
      </trkpt>
      <trkpt lat="42.79508" lon="0.73655">
        <ele>2173.5</ele>
        <time>2018-11-24T10:31:47Z</time>
      </trkpt>
      <trkpt lat="42.79508" lon="0.73649">
        <ele>2173.6</ele>
        <time>2018-11-24T10:31:49Z</time>
      </trkpt>
      <trkpt lat="42.79506" lon="0.73644">
        <ele>2174.5</ele>
        <time>2018-11-24T10:31:50Z</time>
      </trkpt>
      <trkpt lat="42.79506" lon="0.73641">
        <ele>2174.9</ele>
        <time>2018-11-24T10:31:51Z</time>
      </trkpt>
      <trkpt lat="42.79505" lon="0.73638">
        <ele>2174.9</ele>
        <time>2018-11-24T10:31:52Z</time>
      </trkpt>
      <trkpt lat="42.79504" lon="0.73633">
        <ele>2173.8</ele>
        <time>2018-11-24T10:31:54Z</time>
      </trkpt>
      <trkpt lat="42.79503" lon="0.7363">
        <ele>2173.3</ele>
        <time>2018-11-24T10:31:55Z</time>
      </trkpt>
      <trkpt lat="42.79502" lon="0.73627">
        <ele>2172.9</ele>
        <time>2018-11-24T10:31:56Z</time>
      </trkpt>
      <trkpt lat="42.795" lon="0.73622">
        <ele>2172.1</ele>
        <time>2018-11-24T10:31:57Z</time>
      </trkpt>
      <trkpt lat="42.79498" lon="0.73617">
        <ele>2171.6</ele>
        <time>2018-11-24T10:31:59Z</time>
      </trkpt>
      <trkpt lat="42.79498" lon="0.73612">
        <ele>2170.1</ele>
        <time>2018-11-24T10:32:00Z</time>
      </trkpt>
      <trkpt lat="42.79501" lon="0.73613">
        <ele>2169.1</ele>
        <time>2018-11-24T10:32:02Z</time>
      </trkpt>
      <trkpt lat="42.79503" lon="0.73615">
        <ele>2168.9</ele>
        <time>2018-11-24T10:32:03Z</time>
      </trkpt>
      <trkpt lat="42.79505" lon="0.73617">
        <ele>2168.4</ele>
        <time>2018-11-24T10:32:04Z</time>
      </trkpt>
      <trkpt lat="42.79507" lon="0.73618">
        <ele>2168</ele>
        <time>2018-11-24T10:32:05Z</time>
      </trkpt>
      <trkpt lat="42.79511" lon="0.7362">
        <ele>2166.9</ele>
        <time>2018-11-24T10:32:06Z</time>
      </trkpt>
      <trkpt lat="42.79514" lon="0.73621">
        <ele>2166.3</ele>
        <time>2018-11-24T10:32:07Z</time>
      </trkpt>
      <trkpt lat="42.79516" lon="0.73622">
        <ele>2165.5</ele>
        <time>2018-11-24T10:32:08Z</time>
      </trkpt>
      <trkpt lat="42.79519" lon="0.73623">
        <ele>2164.8</ele>
        <time>2018-11-24T10:32:09Z</time>
      </trkpt>
      <trkpt lat="42.79521" lon="0.73624">
        <ele>2164.1</ele>
        <time>2018-11-24T10:32:10Z</time>
      </trkpt>
      <trkpt lat="42.79524" lon="0.73627">
        <ele>2163.7</ele>
        <time>2018-11-24T10:32:12Z</time>
      </trkpt>
      <trkpt lat="42.79526" lon="0.73632">
        <ele>2164.5</ele>
        <time>2018-11-24T10:32:14Z</time>
      </trkpt>
      <trkpt lat="42.79527" lon="0.73635">
        <ele>2165.2</ele>
        <time>2018-11-24T10:32:15Z</time>
      </trkpt>
      <trkpt lat="42.79528" lon="0.73638">
        <ele>2165.6</ele>
        <time>2018-11-24T10:32:16Z</time>
      </trkpt>
      <trkpt lat="42.7953" lon="0.7364">
        <ele>2165</ele>
        <time>2018-11-24T10:32:16Z</time>
      </trkpt>
      <trkpt lat="42.79532" lon="0.73641">
        <ele>2164</ele>
        <time>2018-11-24T10:32:17Z</time>
      </trkpt>
      <trkpt lat="42.79534" lon="0.73642">
        <ele>2163.1</ele>
        <time>2018-11-24T10:32:18Z</time>
      </trkpt>
      <trkpt lat="42.79536" lon="0.73644">
        <ele>2162.3</ele>
        <time>2018-11-24T10:32:19Z</time>
      </trkpt>
      <trkpt lat="42.79538" lon="0.73645">
        <ele>2161.2</ele>
        <time>2018-11-24T10:32:20Z</time>
      </trkpt>
      <trkpt lat="42.7954" lon="0.73647">
        <ele>2160.3</ele>
        <time>2018-11-24T10:32:21Z</time>
      </trkpt>
      <trkpt lat="42.79542" lon="0.73648">
        <ele>2159.3</ele>
        <time>2018-11-24T10:32:22Z</time>
      </trkpt>
      <trkpt lat="42.79544" lon="0.7365">
        <ele>2158.5</ele>
        <time>2018-11-24T10:32:23Z</time>
      </trkpt>
      <trkpt lat="42.79546" lon="0.73651">
        <ele>2157.6</ele>
        <time>2018-11-24T10:32:24Z</time>
      </trkpt>
      <trkpt lat="42.79548" lon="0.73652">
        <ele>2156.5</ele>
        <time>2018-11-24T10:32:25Z</time>
      </trkpt>
      <trkpt lat="42.79552" lon="0.73653">
        <ele>2154.7</ele>
        <time>2018-11-24T10:32:26Z</time>
      </trkpt>
      <trkpt lat="42.79556" lon="0.73653">
        <ele>2152.9</ele>
        <time>2018-11-24T10:32:28Z</time>
      </trkpt>
      <trkpt lat="42.79558" lon="0.73655">
        <ele>2151.8</ele>
        <time>2018-11-24T10:32:29Z</time>
      </trkpt>
      <trkpt lat="42.7956" lon="0.73658">
        <ele>2150.7</ele>
        <time>2018-11-24T10:32:30Z</time>
      </trkpt>
      <trkpt lat="42.79562" lon="0.73663">
        <ele>2149.7</ele>
        <time>2018-11-24T10:32:32Z</time>
      </trkpt>
      <trkpt lat="42.79564" lon="0.73663">
        <ele>2148.8</ele>
        <time>2018-11-24T10:32:32Z</time>
      </trkpt>
      <trkpt lat="42.79565" lon="0.7366">
        <ele>2148.1</ele>
        <time>2018-11-24T10:32:33Z</time>
      </trkpt>
      <trkpt lat="42.79566" lon="0.73657">
        <ele>2147.6</ele>
        <time>2018-11-24T10:32:34Z</time>
      </trkpt>
      <trkpt lat="42.79567" lon="0.73653">
        <ele>2146.9</ele>
        <time>2018-11-24T10:32:36Z</time>
      </trkpt>
      <trkpt lat="42.79567" lon="0.73648">
        <ele>2146.8</ele>
        <time>2018-11-24T10:32:37Z</time>
      </trkpt>
      <trkpt lat="42.79568" lon="0.73645">
        <ele>2146.3</ele>
        <time>2018-11-24T10:32:38Z</time>
      </trkpt>
      <trkpt lat="42.79568" lon="0.73642">
        <ele>2146</ele>
        <time>2018-11-24T10:32:39Z</time>
      </trkpt>
      <trkpt lat="42.79569" lon="0.73639">
        <ele>2145.3</ele>
        <time>2018-11-24T10:32:40Z</time>
      </trkpt>
      <trkpt lat="42.7957" lon="0.73636">
        <ele>2144.1</ele>
        <time>2018-11-24T10:32:41Z</time>
      </trkpt>
      <trkpt lat="42.79571" lon="0.73631">
        <ele>2142.5</ele>
        <time>2018-11-24T10:32:42Z</time>
      </trkpt>
      <trkpt lat="42.79573" lon="0.73633">
        <ele>2141.7</ele>
        <time>2018-11-24T10:32:43Z</time>
      </trkpt>
      <trkpt lat="42.79575" lon="0.73635">
        <ele>2141</ele>
        <time>2018-11-24T10:32:44Z</time>
      </trkpt>
      <trkpt lat="42.79578" lon="0.73638">
        <ele>2140</ele>
        <time>2018-11-24T10:32:46Z</time>
      </trkpt>
      <trkpt lat="42.7958" lon="0.7364">
        <ele>2139.1</ele>
        <time>2018-11-24T10:32:47Z</time>
      </trkpt>
      <trkpt lat="42.79582" lon="0.73641">
        <ele>2138</ele>
        <time>2018-11-24T10:32:48Z</time>
      </trkpt>
      <trkpt lat="42.79585" lon="0.73644">
        <ele>2136.6</ele>
        <time>2018-11-24T10:32:49Z</time>
      </trkpt>
      <trkpt lat="42.79587" lon="0.73646">
        <ele>2135.7</ele>
        <time>2018-11-24T10:32:50Z</time>
      </trkpt>
      <trkpt lat="42.79589" lon="0.73647">
        <ele>2134.9</ele>
        <time>2018-11-24T10:32:51Z</time>
      </trkpt>
      <trkpt lat="42.79592" lon="0.7365">
        <ele>2133.6</ele>
        <time>2018-11-24T10:32:52Z</time>
      </trkpt>
      <trkpt lat="42.79595" lon="0.73653">
        <ele>2132.4</ele>
        <time>2018-11-24T10:32:54Z</time>
      </trkpt>
      <trkpt lat="42.79597" lon="0.73655">
        <ele>2131.7</ele>
        <time>2018-11-24T10:32:55Z</time>
      </trkpt>
      <trkpt lat="42.79599" lon="0.73657">
        <ele>2130.9</ele>
        <time>2018-11-24T10:32:56Z</time>
      </trkpt>
      <trkpt lat="42.796" lon="0.73662">
        <ele>2130.8</ele>
        <time>2018-11-24T10:32:57Z</time>
      </trkpt>
      <trkpt lat="42.79603" lon="0.73665">
        <ele>2129.6</ele>
        <time>2018-11-24T10:32:59Z</time>
      </trkpt>
      <trkpt lat="42.79606" lon="0.73665">
        <ele>2128.2</ele>
        <time>2018-11-24T10:33:00Z</time>
      </trkpt>
      <trkpt lat="42.79607" lon="0.73663">
        <ele>2127.6</ele>
        <time>2018-11-24T10:33:01Z</time>
      </trkpt>
      <trkpt lat="42.79608" lon="0.73661">
        <ele>2126.9</ele>
        <time>2018-11-24T10:33:02Z</time>
      </trkpt>
      <trkpt lat="42.7961" lon="0.7366">
        <ele>2125.9</ele>
        <time>2018-11-24T10:33:02Z</time>
      </trkpt>
      <trkpt lat="42.79612" lon="0.73658">
        <ele>2124.7</ele>
        <time>2018-11-24T10:33:03Z</time>
      </trkpt>
      <trkpt lat="42.79613" lon="0.7366">
        <ele>2124.5</ele>
        <time>2018-11-24T10:33:04Z</time>
      </trkpt>
      <trkpt lat="42.79615" lon="0.73662">
        <ele>2123.9</ele>
        <time>2018-11-24T10:33:05Z</time>
      </trkpt>
      <trkpt lat="42.79618" lon="0.73664">
        <ele>2123</ele>
        <time>2018-11-24T10:33:06Z</time>
      </trkpt>
      <trkpt lat="42.7962" lon="0.73666">
        <ele>2122.4</ele>
        <time>2018-11-24T10:33:07Z</time>
      </trkpt>
      <trkpt lat="42.79622" lon="0.73667">
        <ele>2121.6</ele>
        <time>2018-11-24T10:33:08Z</time>
      </trkpt>
      <trkpt lat="42.79623" lon="0.7367">
        <ele>2119.8</ele>
        <time>2018-11-24T10:33:09Z</time>
      </trkpt>
      <trkpt lat="42.79627" lon="0.73672">
        <ele>2117.5</ele>
        <time>2018-11-24T10:33:11Z</time>
      </trkpt>
      <trkpt lat="42.79629" lon="0.73671">
        <ele>2117.4</ele>
        <time>2018-11-24T10:33:12Z</time>
      </trkpt>
      <trkpt lat="42.7963" lon="0.73669">
        <ele>2117.7</ele>
        <time>2018-11-24T10:33:12Z</time>
      </trkpt>
      <trkpt lat="42.79631" lon="0.73666">
        <ele>2118.1</ele>
        <time>2018-11-24T10:33:13Z</time>
      </trkpt>
      <trkpt lat="42.79634" lon="0.73666">
        <ele>2116.9</ele>
        <time>2018-11-24T10:33:15Z</time>
      </trkpt>
      <trkpt lat="42.79635" lon="0.73667">
        <ele>2116.4</ele>
        <time>2018-11-24T10:33:15Z</time>
      </trkpt>
      <trkpt lat="42.79639" lon="0.73669">
        <ele>2114.5</ele>
        <time>2018-11-24T10:33:17Z</time>
      </trkpt>
      <trkpt lat="42.7964" lon="0.73671">
        <ele>2113.6</ele>
        <time>2018-11-24T10:33:18Z</time>
      </trkpt>
      <trkpt lat="42.79642" lon="0.73674">
        <ele>2112.2</ele>
        <time>2018-11-24T10:33:19Z</time>
      </trkpt>
      <trkpt lat="42.79644" lon="0.73678">
        <ele>2110.7</ele>
        <time>2018-11-24T10:33:20Z</time>
      </trkpt>
      <trkpt lat="42.79647" lon="0.73681">
        <ele>2109.4</ele>
        <time>2018-11-24T10:33:22Z</time>
      </trkpt>
      <trkpt lat="42.79649" lon="0.73683">
        <ele>2108.7</ele>
        <time>2018-11-24T10:33:23Z</time>
      </trkpt>
      <trkpt lat="42.79651" lon="0.73685">
        <ele>2108</ele>
        <time>2018-11-24T10:33:24Z</time>
      </trkpt>
      <trkpt lat="42.79653" lon="0.73687">
        <ele>2107.6</ele>
        <time>2018-11-24T10:33:25Z</time>
      </trkpt>
      <trkpt lat="42.79655" lon="0.73688">
        <ele>2107.1</ele>
        <time>2018-11-24T10:33:25Z</time>
      </trkpt>
      <trkpt lat="42.79658" lon="0.73691">
        <ele>2106.7</ele>
        <time>2018-11-24T10:33:27Z</time>
      </trkpt>
      <trkpt lat="42.7966" lon="0.73693">
        <ele>2106.5</ele>
        <time>2018-11-24T10:33:28Z</time>
      </trkpt>
      <trkpt lat="42.79662" lon="0.73694">
        <ele>2106.4</ele>
        <time>2018-11-24T10:33:29Z</time>
      </trkpt>
      <trkpt lat="42.79665" lon="0.73695">
        <ele>2106</ele>
        <time>2018-11-24T10:33:30Z</time>
      </trkpt>
      <trkpt lat="42.79667" lon="0.73696">
        <ele>2105.4</ele>
        <time>2018-11-24T10:33:31Z</time>
      </trkpt>
      <trkpt lat="42.79671" lon="0.73697">
        <ele>2103.8</ele>
        <time>2018-11-24T10:33:32Z</time>
      </trkpt>
      <trkpt lat="42.79675" lon="0.73699">
        <ele>2102.2</ele>
        <time>2018-11-24T10:33:34Z</time>
      </trkpt>
      <trkpt lat="42.79677" lon="0.73701">
        <ele>2101.3</ele>
        <time>2018-11-24T10:33:35Z</time>
      </trkpt>
      <trkpt lat="42.79679" lon="0.73702">
        <ele>2100.5</ele>
        <time>2018-11-24T10:33:36Z</time>
      </trkpt>
      <trkpt lat="42.79682" lon="0.73705">
        <ele>2099.3</ele>
        <time>2018-11-24T10:33:38Z</time>
      </trkpt>
      <trkpt lat="42.79685" lon="0.73706">
        <ele>2098.8</ele>
        <time>2018-11-24T10:33:39Z</time>
      </trkpt>
      <trkpt lat="42.79687" lon="0.73707">
        <ele>2098.3</ele>
        <time>2018-11-24T10:33:40Z</time>
      </trkpt>
      <trkpt lat="42.79691" lon="0.73709">
        <ele>2097.6</ele>
        <time>2018-11-24T10:33:41Z</time>
      </trkpt>
      <trkpt lat="42.79694" lon="0.73713">
        <ele>2097.1</ele>
        <time>2018-11-24T10:33:43Z</time>
      </trkpt>
      <trkpt lat="42.79697" lon="0.73714">
        <ele>2096.6</ele>
        <time>2018-11-24T10:33:44Z</time>
      </trkpt>
      <trkpt lat="42.79699" lon="0.73715">
        <ele>2095.9</ele>
        <time>2018-11-24T10:33:45Z</time>
      </trkpt>
      <trkpt lat="42.79702" lon="0.73716">
        <ele>2095.2</ele>
        <time>2018-11-24T10:33:46Z</time>
      </trkpt>
      <trkpt lat="42.79705" lon="0.73717">
        <ele>2094.5</ele>
        <time>2018-11-24T10:33:47Z</time>
      </trkpt>
      <trkpt lat="42.79707" lon="0.73717">
        <ele>2094</ele>
        <time>2018-11-24T10:33:48Z</time>
      </trkpt>
      <trkpt lat="42.79711" lon="0.73715">
        <ele>2092.9</ele>
        <time>2018-11-24T10:33:50Z</time>
      </trkpt>
      <trkpt lat="42.79714" lon="0.73714">
        <ele>2092.1</ele>
        <time>2018-11-24T10:33:51Z</time>
      </trkpt>
      <trkpt lat="42.79716" lon="0.73713">
        <ele>2091.3</ele>
        <time>2018-11-24T10:33:52Z</time>
      </trkpt>
      <trkpt lat="42.79718" lon="0.73713">
        <ele>2090.9</ele>
        <time>2018-11-24T10:33:53Z</time>
      </trkpt>
      <trkpt lat="42.79722" lon="0.73711">
        <ele>2089.5</ele>
        <time>2018-11-24T10:33:55Z</time>
      </trkpt>
      <trkpt lat="42.79726" lon="0.73709">
        <ele>2087.2</ele>
        <time>2018-11-24T10:33:56Z</time>
      </trkpt>
      <trkpt lat="42.79728" lon="0.73708">
        <ele>2086</ele>
        <time>2018-11-24T10:33:57Z</time>
      </trkpt>
      <trkpt lat="42.7973" lon="0.73706">
        <ele>2084.9</ele>
        <time>2018-11-24T10:33:58Z</time>
      </trkpt>
      <trkpt lat="42.79732" lon="0.73701">
        <ele>2083.3</ele>
        <time>2018-11-24T10:34:00Z</time>
      </trkpt>
      <trkpt lat="42.79734" lon="0.73697">
        <ele>2081.9</ele>
        <time>2018-11-24T10:34:01Z</time>
      </trkpt>
      <trkpt lat="42.79735" lon="0.73694">
        <ele>2080.9</ele>
        <time>2018-11-24T10:34:02Z</time>
      </trkpt>
      <trkpt lat="42.79737" lon="0.73691">
        <ele>2079.8</ele>
        <time>2018-11-24T10:34:03Z</time>
      </trkpt>
      <trkpt lat="42.79738" lon="0.73688">
        <ele>2078.5</ele>
        <time>2018-11-24T10:34:04Z</time>
      </trkpt>
      <trkpt lat="42.79739" lon="0.73685">
        <ele>2077.7</ele>
        <time>2018-11-24T10:34:05Z</time>
      </trkpt>
      <trkpt lat="42.79739" lon="0.73682">
        <ele>2076.9</ele>
        <time>2018-11-24T10:34:06Z</time>
      </trkpt>
      <trkpt lat="42.79738" lon="0.73677">
        <ele>2076.5</ele>
        <time>2018-11-24T10:34:08Z</time>
      </trkpt>
      <trkpt lat="42.79741" lon="0.73674">
        <ele>2074.6</ele>
        <time>2018-11-24T10:34:09Z</time>
      </trkpt>
      <trkpt lat="42.79744" lon="0.73671">
        <ele>2072.6</ele>
        <time>2018-11-24T10:34:11Z</time>
      </trkpt>
      <trkpt lat="42.79744" lon="0.73665">
        <ele>2071.5</ele>
        <time>2018-11-24T10:34:12Z</time>
      </trkpt>
      <trkpt lat="42.79745" lon="0.73662">
        <ele>2070.4</ele>
        <time>2018-11-24T10:34:13Z</time>
      </trkpt>
      <trkpt lat="42.79748" lon="0.73662">
        <ele>2069</ele>
        <time>2018-11-24T10:34:15Z</time>
      </trkpt>
      <trkpt lat="42.79751" lon="0.73666">
        <ele>2068.5</ele>
        <time>2018-11-24T10:34:16Z</time>
      </trkpt>
      <trkpt lat="42.79752" lon="0.73669">
        <ele>2068.5</ele>
        <time>2018-11-24T10:34:17Z</time>
      </trkpt>
      <trkpt lat="42.79753" lon="0.73672">
        <ele>2068.4</ele>
        <time>2018-11-24T10:34:18Z</time>
      </trkpt>
      <trkpt lat="42.79755" lon="0.73675">
        <ele>2068.1</ele>
        <time>2018-11-24T10:34:19Z</time>
      </trkpt>
      <trkpt lat="42.79756" lon="0.73677">
        <ele>2067.8</ele>
        <time>2018-11-24T10:34:20Z</time>
      </trkpt>
      <trkpt lat="42.79758" lon="0.73682">
        <ele>2067.7</ele>
        <time>2018-11-24T10:34:22Z</time>
      </trkpt>
      <trkpt lat="42.7976" lon="0.73685">
        <ele>2067.5</ele>
        <time>2018-11-24T10:34:23Z</time>
      </trkpt>
      <trkpt lat="42.79761" lon="0.73687">
        <ele>2067.2</ele>
        <time>2018-11-24T10:34:24Z</time>
      </trkpt>
      <trkpt lat="42.79764" lon="0.73691">
        <ele>2066.4</ele>
        <time>2018-11-24T10:34:25Z</time>
      </trkpt>
      <trkpt lat="42.79766" lon="0.73693">
        <ele>2065.8</ele>
        <time>2018-11-24T10:34:26Z</time>
      </trkpt>
      <trkpt lat="42.79768" lon="0.73695">
        <ele>2065.1</ele>
        <time>2018-11-24T10:34:27Z</time>
      </trkpt>
      <trkpt lat="42.7977" lon="0.73698">
        <ele>2064.2</ele>
        <time>2018-11-24T10:34:28Z</time>
      </trkpt>
      <trkpt lat="42.79772" lon="0.737">
        <ele>2063.6</ele>
        <time>2018-11-24T10:34:30Z</time>
      </trkpt>
      <trkpt lat="42.79775" lon="0.73704">
        <ele>2062.5</ele>
        <time>2018-11-24T10:34:31Z</time>
      </trkpt>
      <trkpt lat="42.79776" lon="0.73707">
        <ele>2062.3</ele>
        <time>2018-11-24T10:34:32Z</time>
      </trkpt>
      <trkpt lat="42.79777" lon="0.7371">
        <ele>2062.1</ele>
        <time>2018-11-24T10:34:33Z</time>
      </trkpt>
      <trkpt lat="42.79779" lon="0.73712">
        <ele>2061.3</ele>
        <time>2018-11-24T10:34:34Z</time>
      </trkpt>
      <trkpt lat="42.79781" lon="0.73714">
        <ele>2060.6</ele>
        <time>2018-11-24T10:34:35Z</time>
      </trkpt>
      <trkpt lat="42.79782" lon="0.73717">
        <ele>2060.4</ele>
        <time>2018-11-24T10:34:36Z</time>
      </trkpt>
      <trkpt lat="42.79783" lon="0.7372">
        <ele>2060.3</ele>
        <time>2018-11-24T10:34:37Z</time>
      </trkpt>
      <trkpt lat="42.79785" lon="0.73724">
        <ele>2060.1</ele>
        <time>2018-11-24T10:34:38Z</time>
      </trkpt>
      <trkpt lat="42.79786" lon="0.73727">
        <ele>2059.5</ele>
        <time>2018-11-24T10:34:39Z</time>
      </trkpt>
      <trkpt lat="42.79787" lon="0.7373">
        <ele>2059.4</ele>
        <time>2018-11-24T10:34:40Z</time>
      </trkpt>
      <trkpt lat="42.79788" lon="0.73733">
        <ele>2059.2</ele>
        <time>2018-11-24T10:34:41Z</time>
      </trkpt>
      <trkpt lat="42.7979" lon="0.73738">
        <ele>2058.7</ele>
        <time>2018-11-24T10:34:43Z</time>
      </trkpt>
      <trkpt lat="42.79792" lon="0.73741">
        <ele>2058.2</ele>
        <time>2018-11-24T10:34:44Z</time>
      </trkpt>
      <trkpt lat="42.79793" lon="0.73743">
        <ele>2057.8</ele>
        <time>2018-11-24T10:34:45Z</time>
      </trkpt>
      <trkpt lat="42.79795" lon="0.73747">
        <ele>2057.3</ele>
        <time>2018-11-24T10:34:46Z</time>
      </trkpt>
      <trkpt lat="42.79799" lon="0.73749">
        <ele>2055.7</ele>
        <time>2018-11-24T10:34:48Z</time>
      </trkpt>
      <trkpt lat="42.79803" lon="0.73748">
        <ele>2053.9</ele>
        <time>2018-11-24T10:34:50Z</time>
      </trkpt>
      <trkpt lat="42.79805" lon="0.73748">
        <ele>2053</ele>
        <time>2018-11-24T10:34:51Z</time>
      </trkpt>
      <trkpt lat="42.79809" lon="0.73747">
        <ele>2051.2</ele>
        <time>2018-11-24T10:34:52Z</time>
      </trkpt>
      <trkpt lat="42.79812" lon="0.73747">
        <ele>2050.2</ele>
        <time>2018-11-24T10:34:53Z</time>
      </trkpt>
      <trkpt lat="42.79814" lon="0.73747">
        <ele>2049.1</ele>
        <time>2018-11-24T10:34:54Z</time>
      </trkpt>
      <trkpt lat="42.79815" lon="0.73743">
        <ele>2048.3</ele>
        <time>2018-11-24T10:34:55Z</time>
      </trkpt>
      <trkpt lat="42.79818" lon="0.73741">
        <ele>2046.9</ele>
        <time>2018-11-24T10:34:57Z</time>
      </trkpt>
      <trkpt lat="42.79819" lon="0.73738">
        <ele>2046.2</ele>
        <time>2018-11-24T10:34:58Z</time>
      </trkpt>
      <trkpt lat="42.7982" lon="0.73735">
        <ele>2045.5</ele>
        <time>2018-11-24T10:34:59Z</time>
      </trkpt>
      <trkpt lat="42.79823" lon="0.73731">
        <ele>2043.9</ele>
        <time>2018-11-24T10:35:00Z</time>
      </trkpt>
      <trkpt lat="42.79826" lon="0.73728">
        <ele>2042.4</ele>
        <time>2018-11-24T10:35:02Z</time>
      </trkpt>
      <trkpt lat="42.79827" lon="0.73725">
        <ele>2041.7</ele>
        <time>2018-11-24T10:35:03Z</time>
      </trkpt>
      <trkpt lat="42.79828" lon="0.73721">
        <ele>2040.9</ele>
        <time>2018-11-24T10:35:04Z</time>
      </trkpt>
      <trkpt lat="42.7983" lon="0.73717">
        <ele>2039.6</ele>
        <time>2018-11-24T10:35:05Z</time>
      </trkpt>
      <trkpt lat="42.79831" lon="0.73714">
        <ele>2038.8</ele>
        <time>2018-11-24T10:35:06Z</time>
      </trkpt>
      <trkpt lat="42.79832" lon="0.73711">
        <ele>2038</ele>
        <time>2018-11-24T10:35:07Z</time>
      </trkpt>
      <trkpt lat="42.79834" lon="0.73709">
        <ele>2037.1</ele>
        <time>2018-11-24T10:35:08Z</time>
      </trkpt>
      <trkpt lat="42.79835" lon="0.73706">
        <ele>2036</ele>
        <time>2018-11-24T10:35:09Z</time>
      </trkpt>
      <trkpt lat="42.79836" lon="0.73704">
        <ele>2035.2</ele>
        <time>2018-11-24T10:35:10Z</time>
      </trkpt>
      <trkpt lat="42.79837" lon="0.73701">
        <ele>2034.4</ele>
        <time>2018-11-24T10:35:11Z</time>
      </trkpt>
      <trkpt lat="42.79838" lon="0.73698">
        <ele>2033.5</ele>
        <time>2018-11-24T10:35:12Z</time>
      </trkpt>
      <trkpt lat="42.79838" lon="0.73695">
        <ele>2033.1</ele>
        <time>2018-11-24T10:35:13Z</time>
      </trkpt>
      <trkpt lat="42.79838" lon="0.73691">
        <ele>2032.5</ele>
        <time>2018-11-24T10:35:14Z</time>
      </trkpt>
      <trkpt lat="42.79839" lon="0.73688">
        <ele>2031.7</ele>
        <time>2018-11-24T10:35:15Z</time>
      </trkpt>
      <trkpt lat="42.79839" lon="0.73685">
        <ele>2030.9</ele>
        <time>2018-11-24T10:35:16Z</time>
      </trkpt>
      <trkpt lat="42.7984" lon="0.73682">
        <ele>2030.1</ele>
        <time>2018-11-24T10:35:17Z</time>
      </trkpt>
      <trkpt lat="42.79841" lon="0.73679">
        <ele>2029.1</ele>
        <time>2018-11-24T10:35:18Z</time>
      </trkpt>
      <trkpt lat="42.79843" lon="0.73674">
        <ele>2027.5</ele>
        <time>2018-11-24T10:35:19Z</time>
      </trkpt>
      <trkpt lat="42.79843" lon="0.73668">
        <ele>2026.4</ele>
        <time>2018-11-24T10:35:21Z</time>
      </trkpt>
      <trkpt lat="42.79843" lon="0.73662">
        <ele>2025.3</ele>
        <time>2018-11-24T10:35:23Z</time>
      </trkpt>
      <trkpt lat="42.79844" lon="0.73659">
        <ele>2024.5</ele>
        <time>2018-11-24T10:35:24Z</time>
      </trkpt>
      <trkpt lat="42.79844" lon="0.73656">
        <ele>2023.6</ele>
        <time>2018-11-24T10:35:25Z</time>
      </trkpt>
      <trkpt lat="42.79844" lon="0.73651">
        <ele>2022.7</ele>
        <time>2018-11-24T10:35:26Z</time>
      </trkpt>
      <trkpt lat="42.79844" lon="0.73645">
        <ele>2021.4</ele>
        <time>2018-11-24T10:35:28Z</time>
      </trkpt>
      <trkpt lat="42.79845" lon="0.73642">
        <ele>2020.4</ele>
        <time>2018-11-24T10:35:29Z</time>
      </trkpt>
      <trkpt lat="42.79845" lon="0.73637">
        <ele>2019.4</ele>
        <time>2018-11-24T10:35:30Z</time>
      </trkpt>
      <trkpt lat="42.79847" lon="0.73635">
        <ele>2018.3</ele>
        <time>2018-11-24T10:35:31Z</time>
      </trkpt>
      <trkpt lat="42.79848" lon="0.73632">
        <ele>2017.3</ele>
        <time>2018-11-24T10:35:32Z</time>
      </trkpt>
      <trkpt lat="42.7985" lon="0.7363">
        <ele>2016.2</ele>
        <time>2018-11-24T10:35:33Z</time>
      </trkpt>
      <trkpt lat="42.79852" lon="0.73625">
        <ele>2014.4</ele>
        <time>2018-11-24T10:35:35Z</time>
      </trkpt>
      <trkpt lat="42.79853" lon="0.73622">
        <ele>2013.5</ele>
        <time>2018-11-24T10:35:36Z</time>
      </trkpt>
      <trkpt lat="42.79853" lon="0.73619">
        <ele>2012.6</ele>
        <time>2018-11-24T10:35:37Z</time>
      </trkpt>
      <trkpt lat="42.79854" lon="0.73616">
        <ele>2011.9</ele>
        <time>2018-11-24T10:35:38Z</time>
      </trkpt>
      <trkpt lat="42.79854" lon="0.73613">
        <ele>2011</ele>
        <time>2018-11-24T10:35:39Z</time>
      </trkpt>
      <trkpt lat="42.79855" lon="0.7361">
        <ele>2010.3</ele>
        <time>2018-11-24T10:35:39Z</time>
      </trkpt>
      <trkpt lat="42.79855" lon="0.73607">
        <ele>2009.4</ele>
        <time>2018-11-24T10:35:40Z</time>
      </trkpt>
      <trkpt lat="42.79856" lon="0.73604">
        <ele>2008.8</ele>
        <time>2018-11-24T10:35:41Z</time>
      </trkpt>
      <trkpt lat="42.79856" lon="0.73601">
        <ele>2008</ele>
        <time>2018-11-24T10:35:42Z</time>
      </trkpt>
      <trkpt lat="42.79858" lon="0.73599">
        <ele>2006.8</ele>
        <time>2018-11-24T10:35:43Z</time>
      </trkpt>
      <trkpt lat="42.7986" lon="0.73596">
        <ele>2005.8</ele>
        <time>2018-11-24T10:35:44Z</time>
      </trkpt>
      <trkpt lat="42.79863" lon="0.73594">
        <ele>2004.4</ele>
        <time>2018-11-24T10:35:46Z</time>
      </trkpt>
      <trkpt lat="42.79866" lon="0.73594">
        <ele>2003.5</ele>
        <time>2018-11-24T10:35:47Z</time>
      </trkpt>
      <trkpt lat="42.79868" lon="0.73593">
        <ele>2002.5</ele>
        <time>2018-11-24T10:35:48Z</time>
      </trkpt>
      <trkpt lat="42.79871" lon="0.73589">
        <ele>2000.8</ele>
        <time>2018-11-24T10:35:49Z</time>
      </trkpt>
      <trkpt lat="42.79872" lon="0.73587">
        <ele>2000.1</ele>
        <time>2018-11-24T10:35:50Z</time>
      </trkpt>
      <trkpt lat="42.79875" lon="0.73586">
        <ele>1999.1</ele>
        <time>2018-11-24T10:35:51Z</time>
      </trkpt>
      <trkpt lat="42.79877" lon="0.73584">
        <ele>1998.1</ele>
        <time>2018-11-24T10:35:52Z</time>
      </trkpt>
      <trkpt lat="42.79879" lon="0.73582">
        <ele>1997</ele>
        <time>2018-11-24T10:35:53Z</time>
      </trkpt>
      <trkpt lat="42.79881" lon="0.7358">
        <ele>1996.1</ele>
        <time>2018-11-24T10:35:54Z</time>
      </trkpt>
      <trkpt lat="42.79884" lon="0.73577">
        <ele>1994.6</ele>
        <time>2018-11-24T10:35:56Z</time>
      </trkpt>
      <trkpt lat="42.79886" lon="0.73575">
        <ele>1993.8</ele>
        <time>2018-11-24T10:35:57Z</time>
      </trkpt>
      <trkpt lat="42.79887" lon="0.73572">
        <ele>1993</ele>
        <time>2018-11-24T10:35:58Z</time>
      </trkpt>
      <trkpt lat="42.7989" lon="0.73568">
        <ele>1991.4</ele>
        <time>2018-11-24T10:35:59Z</time>
      </trkpt>
      <trkpt lat="42.79892" lon="0.73566">
        <ele>1990.4</ele>
        <time>2018-11-24T10:36:00Z</time>
      </trkpt>
      <trkpt lat="42.79894" lon="0.73564">
        <ele>1989.5</ele>
        <time>2018-11-24T10:36:01Z</time>
      </trkpt>
      <trkpt lat="42.79896" lon="0.73562">
        <ele>1988.4</ele>
        <time>2018-11-24T10:36:02Z</time>
      </trkpt>
      <trkpt lat="42.79897" lon="0.73559">
        <ele>1987.7</ele>
        <time>2018-11-24T10:36:03Z</time>
      </trkpt>
      <trkpt lat="42.79898" lon="0.73556">
        <ele>1986.9</ele>
        <time>2018-11-24T10:36:04Z</time>
      </trkpt>
      <trkpt lat="42.79901" lon="0.73552">
        <ele>1985</ele>
        <time>2018-11-24T10:36:06Z</time>
      </trkpt>
      <trkpt lat="42.79904" lon="0.73551">
        <ele>1983.9</ele>
        <time>2018-11-24T10:36:07Z</time>
      </trkpt>
      <trkpt lat="42.79906" lon="0.73549">
        <ele>1982.8</ele>
        <time>2018-11-24T10:36:08Z</time>
      </trkpt>
      <trkpt lat="42.79907" lon="0.73547">
        <ele>1982</ele>
        <time>2018-11-24T10:36:09Z</time>
      </trkpt>
      <trkpt lat="42.79909" lon="0.73545">
        <ele>1981</ele>
        <time>2018-11-24T10:36:10Z</time>
      </trkpt>
      <trkpt lat="42.79912" lon="0.73541">
        <ele>1979.4</ele>
        <time>2018-11-24T10:36:12Z</time>
      </trkpt>
      <trkpt lat="42.79914" lon="0.73539">
        <ele>1978.6</ele>
        <time>2018-11-24T10:36:13Z</time>
      </trkpt>
      <trkpt lat="42.79916" lon="0.73537">
        <ele>1977.5</ele>
        <time>2018-11-24T10:36:14Z</time>
      </trkpt>
      <trkpt lat="42.79918" lon="0.73535">
        <ele>1976.7</ele>
        <time>2018-11-24T10:36:14Z</time>
      </trkpt>
      <trkpt lat="42.79919" lon="0.73532">
        <ele>1975.8</ele>
        <time>2018-11-24T10:36:15Z</time>
      </trkpt>
      <trkpt lat="42.79922" lon="0.73531">
        <ele>1974.6</ele>
        <time>2018-11-24T10:36:16Z</time>
      </trkpt>
      <trkpt lat="42.79924" lon="0.73529">
        <ele>1973.4</ele>
        <time>2018-11-24T10:36:18Z</time>
      </trkpt>
      <trkpt lat="42.79928" lon="0.73527">
        <ele>1971.4</ele>
        <time>2018-11-24T10:36:19Z</time>
      </trkpt>
      <trkpt lat="42.79932" lon="0.73525">
        <ele>1969.7</ele>
        <time>2018-11-24T10:36:21Z</time>
      </trkpt>
      <trkpt lat="42.79935" lon="0.73522">
        <ele>1968.1</ele>
        <time>2018-11-24T10:36:22Z</time>
      </trkpt>
      <trkpt lat="42.79939" lon="0.7352">
        <ele>1966.3</ele>
        <time>2018-11-24T10:36:24Z</time>
      </trkpt>
      <trkpt lat="42.79943" lon="0.73518">
        <ele>1964.5</ele>
        <time>2018-11-24T10:36:26Z</time>
      </trkpt>
      <trkpt lat="42.79946" lon="0.73515">
        <ele>1963.1</ele>
        <time>2018-11-24T10:36:27Z</time>
      </trkpt>
      <trkpt lat="42.79949" lon="0.73513">
        <ele>1961.8</ele>
        <time>2018-11-24T10:36:29Z</time>
      </trkpt>
      <trkpt lat="42.79952" lon="0.73511">
        <ele>1960.5</ele>
        <time>2018-11-24T10:36:30Z</time>
      </trkpt>
      <trkpt lat="42.79956" lon="0.7351">
        <ele>1958.9</ele>
        <time>2018-11-24T10:36:32Z</time>
      </trkpt>
      <trkpt lat="42.79959" lon="0.7351">
        <ele>1957.8</ele>
        <time>2018-11-24T10:36:33Z</time>
      </trkpt>
      <trkpt lat="42.79961" lon="0.73509">
        <ele>1956.8</ele>
        <time>2018-11-24T10:36:34Z</time>
      </trkpt>
      <trkpt lat="42.79963" lon="0.73509">
        <ele>1956.1</ele>
        <time>2018-11-24T10:36:35Z</time>
      </trkpt>
      <trkpt lat="42.79966" lon="0.73512">
        <ele>1955.2</ele>
        <time>2018-11-24T10:36:36Z</time>
      </trkpt>
      <trkpt lat="42.79969" lon="0.73514">
        <ele>1954.3</ele>
        <time>2018-11-24T10:36:37Z</time>
      </trkpt>
      <trkpt lat="42.79972" lon="0.73518">
        <ele>1953.5</ele>
        <time>2018-11-24T10:36:39Z</time>
      </trkpt>
      <trkpt lat="42.79975" lon="0.73522">
        <ele>1951.9</ele>
        <time>2018-11-24T10:36:41Z</time>
      </trkpt>
      <trkpt lat="42.79977" lon="0.73526">
        <ele>1950.8</ele>
        <time>2018-11-24T10:36:42Z</time>
      </trkpt>
      <trkpt lat="42.79979" lon="0.73529">
        <ele>1950</ele>
        <time>2018-11-24T10:36:43Z</time>
      </trkpt>
      <trkpt lat="42.7998" lon="0.73532">
        <ele>1948.9</ele>
        <time>2018-11-24T10:36:44Z</time>
      </trkpt>
      <trkpt lat="42.7998" lon="0.73536">
        <ele>1948.9</ele>
        <time>2018-11-24T10:36:45Z</time>
      </trkpt>
      <trkpt lat="42.7998" lon="0.73539">
        <ele>1948.8</ele>
        <time>2018-11-24T10:36:46Z</time>
      </trkpt>
      <trkpt lat="42.7998" lon="0.73542">
        <ele>1949.1</ele>
        <time>2018-11-24T10:36:47Z</time>
      </trkpt>
      <trkpt lat="42.79979" lon="0.73545">
        <ele>1949.4</ele>
        <time>2018-11-24T10:36:48Z</time>
      </trkpt>
      <trkpt lat="42.79979" lon="0.73551">
        <ele>1949.3</ele>
        <time>2018-11-24T10:36:50Z</time>
      </trkpt>
      <trkpt lat="42.79979" lon="0.73555">
        <ele>1949.2</ele>
        <time>2018-11-24T10:36:51Z</time>
      </trkpt>
      <trkpt lat="42.79979" lon="0.73558">
        <ele>1949.2</ele>
        <time>2018-11-24T10:36:52Z</time>
      </trkpt>
      <trkpt lat="42.79979" lon="0.73562">
        <ele>1949.3</ele>
        <time>2018-11-24T10:36:53Z</time>
      </trkpt>
      <trkpt lat="42.79978" lon="0.73565">
        <ele>1949.6</ele>
        <time>2018-11-24T10:36:54Z</time>
      </trkpt>
      <trkpt lat="42.79978" lon="0.73568">
        <ele>1949.8</ele>
        <time>2018-11-24T10:36:55Z</time>
      </trkpt>
      <trkpt lat="42.79977" lon="0.73571">
        <ele>1950.1</ele>
        <time>2018-11-24T10:36:56Z</time>
      </trkpt>
      <trkpt lat="42.79977" lon="0.73575">
        <ele>1950.1</ele>
        <time>2018-11-24T10:36:57Z</time>
      </trkpt>
      <trkpt lat="42.79977" lon="0.73579">
        <ele>1950</ele>
        <time>2018-11-24T10:36:58Z</time>
      </trkpt>
      <trkpt lat="42.79978" lon="0.73583">
        <ele>1949.5</ele>
        <time>2018-11-24T10:36:59Z</time>
      </trkpt>
      <trkpt lat="42.79978" lon="0.73586">
        <ele>1948.8</ele>
        <time>2018-11-24T10:37:00Z</time>
      </trkpt>
      <trkpt lat="42.79978" lon="0.7359">
        <ele>1948.6</ele>
        <time>2018-11-24T10:37:01Z</time>
      </trkpt>
      <trkpt lat="42.79978" lon="0.73593">
        <ele>1948.2</ele>
        <time>2018-11-24T10:37:02Z</time>
      </trkpt>
      <trkpt lat="42.79978" lon="0.73596">
        <ele>1948.3</ele>
        <time>2018-11-24T10:37:03Z</time>
      </trkpt>
      <trkpt lat="42.79977" lon="0.73599">
        <ele>1948.3</ele>
        <time>2018-11-24T10:37:04Z</time>
      </trkpt>
      <trkpt lat="42.79977" lon="0.73603">
        <ele>1948.1</ele>
        <time>2018-11-24T10:37:05Z</time>
      </trkpt>
      <trkpt lat="42.79977" lon="0.73606">
        <ele>1947.7</ele>
        <time>2018-11-24T10:37:06Z</time>
      </trkpt>
      <trkpt lat="42.79978" lon="0.7361">
        <ele>1947.1</ele>
        <time>2018-11-24T10:37:07Z</time>
      </trkpt>
      <trkpt lat="42.79978" lon="0.73614">
        <ele>1946.7</ele>
        <time>2018-11-24T10:37:09Z</time>
      </trkpt>
      <trkpt lat="42.79979" lon="0.73618">
        <ele>1946.3</ele>
        <time>2018-11-24T10:37:10Z</time>
      </trkpt>
      <trkpt lat="42.79979" lon="0.73621">
        <ele>1945.8</ele>
        <time>2018-11-24T10:37:11Z</time>
      </trkpt>
      <trkpt lat="42.79979" lon="0.73627">
        <ele>1945.5</ele>
        <time>2018-11-24T10:37:12Z</time>
      </trkpt>
      <trkpt lat="42.79979" lon="0.73631">
        <ele>1945.4</ele>
        <time>2018-11-24T10:37:14Z</time>
      </trkpt>
      <trkpt lat="42.79979" lon="0.73635">
        <ele>1945.2</ele>
        <time>2018-11-24T10:37:15Z</time>
      </trkpt>
      <trkpt lat="42.79979" lon="0.73639">
        <ele>1945.1</ele>
        <time>2018-11-24T10:37:16Z</time>
      </trkpt>
      <trkpt lat="42.79979" lon="0.73643">
        <ele>1945.2</ele>
        <time>2018-11-24T10:37:17Z</time>
      </trkpt>
      <trkpt lat="42.79979" lon="0.73647">
        <ele>1945.1</ele>
        <time>2018-11-24T10:37:18Z</time>
      </trkpt>
      <trkpt lat="42.79979" lon="0.73651">
        <ele>1945</ele>
        <time>2018-11-24T10:37:19Z</time>
      </trkpt>
      <trkpt lat="42.7998" lon="0.73656">
        <ele>1944.3</ele>
        <time>2018-11-24T10:37:21Z</time>
      </trkpt>
      <trkpt lat="42.79981" lon="0.73659">
        <ele>1943.7</ele>
        <time>2018-11-24T10:37:22Z</time>
      </trkpt>
      <trkpt lat="42.79982" lon="0.73664">
        <ele>1943</ele>
        <time>2018-11-24T10:37:23Z</time>
      </trkpt>
      <trkpt lat="42.79983" lon="0.73667">
        <ele>1942.6</ele>
        <time>2018-11-24T10:37:24Z</time>
      </trkpt>
      <trkpt lat="42.79984" lon="0.7367">
        <ele>1942.4</ele>
        <time>2018-11-24T10:37:25Z</time>
      </trkpt>
      <trkpt lat="42.79984" lon="0.73674">
        <ele>1943.2</ele>
        <time>2018-11-24T10:37:26Z</time>
      </trkpt>
      <trkpt lat="42.79984" lon="0.73677">
        <ele>1943.8</ele>
        <time>2018-11-24T10:37:27Z</time>
      </trkpt>
      <trkpt lat="42.79985" lon="0.7368">
        <ele>1943.6</ele>
        <time>2018-11-24T10:37:28Z</time>
      </trkpt>
      <trkpt lat="42.79986" lon="0.73683">
        <ele>1943.5</ele>
        <time>2018-11-24T10:37:29Z</time>
      </trkpt>
      <trkpt lat="42.79988" lon="0.73687">
        <ele>1943</ele>
        <time>2018-11-24T10:37:31Z</time>
      </trkpt>
      <trkpt lat="42.7999" lon="0.7369">
        <ele>1942.4</ele>
        <time>2018-11-24T10:37:32Z</time>
      </trkpt>
      <trkpt lat="42.79991" lon="0.73693">
        <ele>1942</ele>
        <time>2018-11-24T10:37:33Z</time>
      </trkpt>
      <trkpt lat="42.79992" lon="0.73697">
        <ele>1942.1</ele>
        <time>2018-11-24T10:37:34Z</time>
      </trkpt>
      <trkpt lat="42.79993" lon="0.737">
        <ele>1942.4</ele>
        <time>2018-11-24T10:37:35Z</time>
      </trkpt>
      <trkpt lat="42.79995" lon="0.73703">
        <ele>1942.3</ele>
        <time>2018-11-24T10:37:36Z</time>
      </trkpt>
      <trkpt lat="42.79996" lon="0.73706">
        <ele>1942.2</ele>
        <time>2018-11-24T10:37:37Z</time>
      </trkpt>
      <trkpt lat="42.79998" lon="0.73709">
        <ele>1942</ele>
        <time>2018-11-24T10:37:38Z</time>
      </trkpt>
      <trkpt lat="42.79999" lon="0.73712">
        <ele>1941.9</ele>
        <time>2018-11-24T10:37:39Z</time>
      </trkpt>
      <trkpt lat="42.80001" lon="0.73715">
        <ele>1941.6</ele>
        <time>2018-11-24T10:37:41Z</time>
      </trkpt>
      <trkpt lat="42.80002" lon="0.73718">
        <ele>1941.5</ele>
        <time>2018-11-24T10:37:42Z</time>
      </trkpt>
      <trkpt lat="42.80003" lon="0.73722">
        <ele>1941.7</ele>
        <time>2018-11-24T10:37:43Z</time>
      </trkpt>
      <trkpt lat="42.80004" lon="0.73725">
        <ele>1941.6</ele>
        <time>2018-11-24T10:37:44Z</time>
      </trkpt>
      <trkpt lat="42.80005" lon="0.73729">
        <ele>1941.2</ele>
        <time>2018-11-24T10:37:45Z</time>
      </trkpt>
      <trkpt lat="42.80006" lon="0.73732">
        <ele>1940.7</ele>
        <time>2018-11-24T10:37:46Z</time>
      </trkpt>
      <trkpt lat="42.80007" lon="0.73736">
        <ele>1940.3</ele>
        <time>2018-11-24T10:37:47Z</time>
      </trkpt>
      <trkpt lat="42.80008" lon="0.73739">
        <ele>1939.9</ele>
        <time>2018-11-24T10:37:48Z</time>
      </trkpt>
      <trkpt lat="42.80009" lon="0.73742">
        <ele>1939.6</ele>
        <time>2018-11-24T10:37:49Z</time>
      </trkpt>
      <trkpt lat="42.8001" lon="0.73745">
        <ele>1939.1</ele>
        <time>2018-11-24T10:37:50Z</time>
      </trkpt>
      <trkpt lat="42.80011" lon="0.73748">
        <ele>1938.7</ele>
        <time>2018-11-24T10:37:51Z</time>
      </trkpt>
      <trkpt lat="42.80012" lon="0.73751">
        <ele>1938.3</ele>
        <time>2018-11-24T10:37:52Z</time>
      </trkpt>
      <trkpt lat="42.80013" lon="0.73754">
        <ele>1937.9</ele>
        <time>2018-11-24T10:37:53Z</time>
      </trkpt>
      <trkpt lat="42.80013" lon="0.73757">
        <ele>1937.5</ele>
        <time>2018-11-24T10:37:54Z</time>
      </trkpt>
      <trkpt lat="42.80014" lon="0.73761">
        <ele>1936.8</ele>
        <time>2018-11-24T10:37:55Z</time>
      </trkpt>
      <trkpt lat="42.80015" lon="0.73764">
        <ele>1936.1</ele>
        <time>2018-11-24T10:37:56Z</time>
      </trkpt>
      <trkpt lat="42.80015" lon="0.73768">
        <ele>1936.1</ele>
        <time>2018-11-24T10:37:57Z</time>
      </trkpt>
      <trkpt lat="42.80015" lon="0.73771">
        <ele>1935.9</ele>
        <time>2018-11-24T10:37:58Z</time>
      </trkpt>
      <trkpt lat="42.80016" lon="0.73775">
        <ele>1935.6</ele>
        <time>2018-11-24T10:37:59Z</time>
      </trkpt>
      <trkpt lat="42.80016" lon="0.73778">
        <ele>1935.2</ele>
        <time>2018-11-24T10:38:00Z</time>
      </trkpt>
      <trkpt lat="42.80016" lon="0.73782">
        <ele>1935.3</ele>
        <time>2018-11-24T10:38:01Z</time>
      </trkpt>
      <trkpt lat="42.80015" lon="0.73785">
        <ele>1935.6</ele>
        <time>2018-11-24T10:38:02Z</time>
      </trkpt>
      <trkpt lat="42.80015" lon="0.73789">
        <ele>1935.3</ele>
        <time>2018-11-24T10:38:03Z</time>
      </trkpt>
      <trkpt lat="42.80015" lon="0.73792">
        <ele>1935.2</ele>
        <time>2018-11-24T10:38:04Z</time>
      </trkpt>
      <trkpt lat="42.80016" lon="0.73796">
        <ele>1934.5</ele>
        <time>2018-11-24T10:38:06Z</time>
      </trkpt>
      <trkpt lat="42.80017" lon="0.738">
        <ele>1933.7</ele>
        <time>2018-11-24T10:38:07Z</time>
      </trkpt>
      <trkpt lat="42.80017" lon="0.73804">
        <ele>1933.5</ele>
        <time>2018-11-24T10:38:08Z</time>
      </trkpt>
      <trkpt lat="42.80017" lon="0.73808">
        <ele>1933.3</ele>
        <time>2018-11-24T10:38:09Z</time>
      </trkpt>
      <trkpt lat="42.80017" lon="0.73812">
        <ele>1933.2</ele>
        <time>2018-11-24T10:38:10Z</time>
      </trkpt>
      <trkpt lat="42.80016" lon="0.73816">
        <ele>1933.2</ele>
        <time>2018-11-24T10:38:12Z</time>
      </trkpt>
      <trkpt lat="42.80016" lon="0.7382">
        <ele>1932.8</ele>
        <time>2018-11-24T10:38:13Z</time>
      </trkpt>
      <trkpt lat="42.80016" lon="0.73823">
        <ele>1932.5</ele>
        <time>2018-11-24T10:38:14Z</time>
      </trkpt>
      <trkpt lat="42.80015" lon="0.73826">
        <ele>1932.7</ele>
        <time>2018-11-24T10:38:15Z</time>
      </trkpt>
      <trkpt lat="42.80014" lon="0.73829">
        <ele>1932.8</ele>
        <time>2018-11-24T10:38:16Z</time>
      </trkpt>
      <trkpt lat="42.80012" lon="0.73832">
        <ele>1933.4</ele>
        <time>2018-11-24T10:38:17Z</time>
      </trkpt>
      <trkpt lat="42.8001" lon="0.73834">
        <ele>1934</ele>
        <time>2018-11-24T10:38:18Z</time>
      </trkpt>
      <trkpt lat="42.80009" lon="0.73837">
        <ele>1933.7</ele>
        <time>2018-11-24T10:38:19Z</time>
      </trkpt>
      <trkpt lat="42.80007" lon="0.7384">
        <ele>1933.6</ele>
        <time>2018-11-24T10:38:20Z</time>
      </trkpt>
      <trkpt lat="42.80005" lon="0.73844">
        <ele>1933.5</ele>
        <time>2018-11-24T10:38:21Z</time>
      </trkpt>
      <trkpt lat="42.80003" lon="0.73847">
        <ele>1933.5</ele>
        <time>2018-11-24T10:38:23Z</time>
      </trkpt>
      <trkpt lat="42.80002" lon="0.7385">
        <ele>1933.2</ele>
        <time>2018-11-24T10:38:24Z</time>
      </trkpt>
      <trkpt lat="42.8" lon="0.73853">
        <ele>1933</ele>
        <time>2018-11-24T10:38:25Z</time>
      </trkpt>
      <trkpt lat="42.79998" lon="0.73855">
        <ele>1933.9</ele>
        <time>2018-11-24T10:38:26Z</time>
      </trkpt>
      <trkpt lat="42.79995" lon="0.73856">
        <ele>1934.7</ele>
        <time>2018-11-24T10:38:27Z</time>
      </trkpt>
      <trkpt lat="42.79993" lon="0.73859">
        <ele>1935.2</ele>
        <time>2018-11-24T10:38:28Z</time>
      </trkpt>
      <trkpt lat="42.7999" lon="0.73861">
        <ele>1935.8</ele>
        <time>2018-11-24T10:38:29Z</time>
      </trkpt>
      <trkpt lat="42.79988" lon="0.73864">
        <ele>1935.8</ele>
        <time>2018-11-24T10:38:30Z</time>
      </trkpt>
      <trkpt lat="42.79986" lon="0.73866">
        <ele>1935.8</ele>
        <time>2018-11-24T10:38:31Z</time>
      </trkpt>
      <trkpt lat="42.79984" lon="0.73867">
        <ele>1936.5</ele>
        <time>2018-11-24T10:38:33Z</time>
      </trkpt>
      <trkpt lat="42.79981" lon="0.73868">
        <ele>1937.2</ele>
        <time>2018-11-24T10:38:34Z</time>
      </trkpt>
      <trkpt lat="42.79979" lon="0.7387">
        <ele>1937.8</ele>
        <time>2018-11-24T10:38:35Z</time>
      </trkpt>
      <trkpt lat="42.79976" lon="0.73871">
        <ele>1938.5</ele>
        <time>2018-11-24T10:38:36Z</time>
      </trkpt>
      <trkpt lat="42.79974" lon="0.73873">
        <ele>1938.7</ele>
        <time>2018-11-24T10:38:37Z</time>
      </trkpt>
      <trkpt lat="42.79971" lon="0.73875">
        <ele>1939.1</ele>
        <time>2018-11-24T10:38:38Z</time>
      </trkpt>
      <trkpt lat="42.79969" lon="0.73876">
        <ele>1939.6</ele>
        <time>2018-11-24T10:38:39Z</time>
      </trkpt>
      <trkpt lat="42.79966" lon="0.73877">
        <ele>1940.1</ele>
        <time>2018-11-24T10:38:40Z</time>
      </trkpt>
      <trkpt lat="42.79964" lon="0.73879">
        <ele>1940.1</ele>
        <time>2018-11-24T10:38:41Z</time>
      </trkpt>
      <trkpt lat="42.79962" lon="0.73881">
        <ele>1940.1</ele>
        <time>2018-11-24T10:38:42Z</time>
      </trkpt>
      <trkpt lat="42.7996" lon="0.73883">
        <ele>1939.9</ele>
        <time>2018-11-24T10:38:43Z</time>
      </trkpt>
      <trkpt lat="42.7996" lon="0.73888">
        <ele>1937.8</ele>
        <time>2018-11-24T10:38:45Z</time>
      </trkpt>
      <trkpt lat="42.79958" lon="0.73891">
        <ele>1937.4</ele>
        <time>2018-11-24T10:38:46Z</time>
      </trkpt>
      <trkpt lat="42.79956" lon="0.73894">
        <ele>1937.1</ele>
        <time>2018-11-24T10:38:47Z</time>
      </trkpt>
      <trkpt lat="42.79954" lon="0.73897">
        <ele>1937</ele>
        <time>2018-11-24T10:38:48Z</time>
      </trkpt>
      <trkpt lat="42.79956" lon="0.73901">
        <ele>1934.8</ele>
        <time>2018-11-24T10:38:50Z</time>
      </trkpt>
      <trkpt lat="42.79956" lon="0.73903">
        <ele>1934.1</ele>
        <time>2018-11-24T10:38:50Z</time>
      </trkpt>
      <trkpt lat="42.79958" lon="0.73906">
        <ele>1932.1</ele>
        <time>2018-11-24T10:38:51Z</time>
      </trkpt>
      <trkpt lat="42.7996" lon="0.73904">
        <ele>1931.8</ele>
        <time>2018-11-24T10:38:52Z</time>
      </trkpt>
      <trkpt lat="42.79961" lon="0.73907">
        <ele>1930.1</ele>
        <time>2018-11-24T10:38:53Z</time>
      </trkpt>
      <trkpt lat="42.79963" lon="0.73912">
        <ele>1927.2</ele>
        <time>2018-11-24T10:38:55Z</time>
      </trkpt>
      <trkpt lat="42.79966" lon="0.73912">
        <ele>1925.5</ele>
        <time>2018-11-24T10:38:56Z</time>
      </trkpt>
      <trkpt lat="42.79968" lon="0.73913">
        <ele>1924</ele>
        <time>2018-11-24T10:38:57Z</time>
      </trkpt>
      <trkpt lat="42.79968" lon="0.73915">
        <ele>1923.2</ele>
        <time>2018-11-24T10:38:58Z</time>
      </trkpt>
      <trkpt lat="42.7997" lon="0.73918">
        <ele>1921.2</ele>
        <time>2018-11-24T10:38:59Z</time>
      </trkpt>
      <trkpt lat="42.79972" lon="0.73916">
        <ele>1920.5</ele>
        <time>2018-11-24T10:39:00Z</time>
      </trkpt>
      <trkpt lat="42.79973" lon="0.73919">
        <ele>1919.6</ele>
        <time>2018-11-24T10:39:01Z</time>
      </trkpt>
      <trkpt lat="42.79974" lon="0.73921">
        <ele>1919</ele>
        <time>2018-11-24T10:39:02Z</time>
      </trkpt>
      <trkpt lat="42.79977" lon="0.73923">
        <ele>1917.7</ele>
        <time>2018-11-24T10:39:03Z</time>
      </trkpt>
      <trkpt lat="42.79977" lon="0.73926">
        <ele>1917.3</ele>
        <time>2018-11-24T10:39:04Z</time>
      </trkpt>
      <trkpt lat="42.79979" lon="0.73928">
        <ele>1916.1</ele>
        <time>2018-11-24T10:39:05Z</time>
      </trkpt>
      <trkpt lat="42.7998" lon="0.7393">
        <ele>1915.4</ele>
        <time>2018-11-24T10:39:05Z</time>
      </trkpt>
      <trkpt lat="42.79981" lon="0.73933">
        <ele>1914.6</ele>
        <time>2018-11-24T10:39:06Z</time>
      </trkpt>
      <trkpt lat="42.79981" lon="0.73936">
        <ele>1913.9</ele>
        <time>2018-11-24T10:39:07Z</time>
      </trkpt>
      <trkpt lat="42.79982" lon="0.73938">
        <ele>1913</ele>
        <time>2018-11-24T10:39:08Z</time>
      </trkpt>
      <trkpt lat="42.79984" lon="0.73939">
        <ele>1911.9</ele>
        <time>2018-11-24T10:39:09Z</time>
      </trkpt>
      <trkpt lat="42.79986" lon="0.73941">
        <ele>1910.5</ele>
        <time>2018-11-24T10:39:10Z</time>
      </trkpt>
      <trkpt lat="42.79988" lon="0.73943">
        <ele>1908.9</ele>
        <time>2018-11-24T10:39:11Z</time>
      </trkpt>
      <trkpt lat="42.7999" lon="0.73944">
        <ele>1907.5</ele>
        <time>2018-11-24T10:39:12Z</time>
      </trkpt>
      <trkpt lat="42.79992" lon="0.73941">
        <ele>1907.3</ele>
        <time>2018-11-24T10:39:13Z</time>
      </trkpt>
      <trkpt lat="42.79993" lon="0.7394">
        <ele>1907.1</ele>
        <time>2018-11-24T10:39:13Z</time>
      </trkpt>
      <trkpt lat="42.79997" lon="0.73939">
        <ele>1905.4</ele>
        <time>2018-11-24T10:39:15Z</time>
      </trkpt>
      <trkpt lat="42.80001" lon="0.73941">
        <ele>1903.2</ele>
        <time>2018-11-24T10:39:17Z</time>
      </trkpt>
      <trkpt lat="42.8" lon="0.73944">
        <ele>1902.2</ele>
        <time>2018-11-24T10:39:18Z</time>
      </trkpt>
      <trkpt lat="42.80001" lon="0.73947">
        <ele>1901.6</ele>
        <time>2018-11-24T10:39:19Z</time>
      </trkpt>
      <trkpt lat="42.80003" lon="0.73951">
        <ele>1900.8</ele>
        <time>2018-11-24T10:39:20Z</time>
      </trkpt>
      <trkpt lat="42.80004" lon="0.7395">
        <ele>1900.8</ele>
        <time>2018-11-24T10:39:21Z</time>
      </trkpt>
      <trkpt lat="42.80006" lon="0.73949">
        <ele>1900.8</ele>
        <time>2018-11-24T10:39:21Z</time>
      </trkpt>
      <trkpt lat="42.8001" lon="0.7395">
        <ele>1900</ele>
        <time>2018-11-24T10:39:23Z</time>
      </trkpt>
      <trkpt lat="42.8001" lon="0.73953">
        <ele>1899.2</ele>
        <time>2018-11-24T10:39:24Z</time>
      </trkpt>
      <trkpt lat="42.8001" lon="0.73956">
        <ele>1898.3</ele>
        <time>2018-11-24T10:39:25Z</time>
      </trkpt>
      <trkpt lat="42.80012" lon="0.73961">
        <ele>1896.4</ele>
        <time>2018-11-24T10:39:26Z</time>
      </trkpt>
      <trkpt lat="42.80014" lon="0.73961">
        <ele>1895.8</ele>
        <time>2018-11-24T10:39:27Z</time>
      </trkpt>
      <trkpt lat="42.80016" lon="0.7396">
        <ele>1895.6</ele>
        <time>2018-11-24T10:39:28Z</time>
      </trkpt>
      <trkpt lat="42.8002" lon="0.73959">
        <ele>1895</ele>
        <time>2018-11-24T10:39:30Z</time>
      </trkpt>
      <trkpt lat="42.80023" lon="0.73962">
        <ele>1892.9</ele>
        <time>2018-11-24T10:39:31Z</time>
      </trkpt>
      <trkpt lat="42.80023" lon="0.73964">
        <ele>1892</ele>
        <time>2018-11-24T10:39:32Z</time>
      </trkpt>
      <trkpt lat="42.80022" lon="0.73968">
        <ele>1890.8</ele>
        <time>2018-11-24T10:39:33Z</time>
      </trkpt>
      <trkpt lat="42.80021" lon="0.73971">
        <ele>1889.5</ele>
        <time>2018-11-24T10:39:34Z</time>
      </trkpt>
      <trkpt lat="42.80022" lon="0.73974">
        <ele>1888.2</ele>
        <time>2018-11-24T10:39:35Z</time>
      </trkpt>
      <trkpt lat="42.80023" lon="0.73977">
        <ele>1887.3</ele>
        <time>2018-11-24T10:39:36Z</time>
      </trkpt>
      <trkpt lat="42.80025" lon="0.73976">
        <ele>1886.5</ele>
        <time>2018-11-24T10:39:37Z</time>
      </trkpt>
      <trkpt lat="42.80027" lon="0.73978">
        <ele>1885.4</ele>
        <time>2018-11-24T10:39:38Z</time>
      </trkpt>
      <trkpt lat="42.8003" lon="0.73978">
        <ele>1884.5</ele>
        <time>2018-11-24T10:39:39Z</time>
      </trkpt>
      <trkpt lat="42.80031" lon="0.7398">
        <ele>1883.7</ele>
        <time>2018-11-24T10:39:40Z</time>
      </trkpt>
      <trkpt lat="42.80033" lon="0.7398">
        <ele>1883.1</ele>
        <time>2018-11-24T10:39:40Z</time>
      </trkpt>
      <trkpt lat="42.80036" lon="0.7398">
        <ele>1882.2</ele>
        <time>2018-11-24T10:39:42Z</time>
      </trkpt>
      <trkpt lat="42.80038" lon="0.7398">
        <ele>1881.7</ele>
        <time>2018-11-24T10:39:42Z</time>
      </trkpt>
      <trkpt lat="42.8004" lon="0.73982">
        <ele>1880.6</ele>
        <time>2018-11-24T10:39:43Z</time>
      </trkpt>
      <trkpt lat="42.8004" lon="0.73988">
        <ele>1878.9</ele>
        <time>2018-11-24T10:39:45Z</time>
      </trkpt>
      <trkpt lat="42.80042" lon="0.73989">
        <ele>1877.8</ele>
        <time>2018-11-24T10:39:46Z</time>
      </trkpt>
      <trkpt lat="42.80043" lon="0.73987">
        <ele>1878</ele>
        <time>2018-11-24T10:39:47Z</time>
      </trkpt>
      <trkpt lat="42.80045" lon="0.73985">
        <ele>1878</ele>
        <time>2018-11-24T10:39:48Z</time>
      </trkpt>
      <trkpt lat="42.80047" lon="0.73984">
        <ele>1878</ele>
        <time>2018-11-24T10:39:49Z</time>
      </trkpt>
      <trkpt lat="42.80049" lon="0.73982">
        <ele>1877.9</ele>
        <time>2018-11-24T10:39:50Z</time>
      </trkpt>
      <trkpt lat="42.80052" lon="0.73982">
        <ele>1877.1</ele>
        <time>2018-11-24T10:39:51Z</time>
      </trkpt>
      <trkpt lat="42.80054" lon="0.73982">
        <ele>1876.3</ele>
        <time>2018-11-24T10:39:52Z</time>
      </trkpt>
      <trkpt lat="42.80057" lon="0.73983">
        <ele>1875.1</ele>
        <time>2018-11-24T10:39:53Z</time>
      </trkpt>
      <trkpt lat="42.80059" lon="0.73984">
        <ele>1874</ele>
        <time>2018-11-24T10:39:54Z</time>
      </trkpt>
      <trkpt lat="42.80062" lon="0.73987">
        <ele>1871.9</ele>
        <time>2018-11-24T10:39:55Z</time>
      </trkpt>
      <trkpt lat="42.80065" lon="0.7399">
        <ele>1869.9</ele>
        <time>2018-11-24T10:39:57Z</time>
      </trkpt>
      <trkpt lat="42.80067" lon="0.73992">
        <ele>1868.5</ele>
        <time>2018-11-24T10:39:58Z</time>
      </trkpt>
      <trkpt lat="42.8007" lon="0.73994">
        <ele>1866.8</ele>
        <time>2018-11-24T10:39:59Z</time>
      </trkpt>
      <trkpt lat="42.80072" lon="0.73995">
        <ele>1865.9</ele>
        <time>2018-11-24T10:40:00Z</time>
      </trkpt>
      <trkpt lat="42.80074" lon="0.73997">
        <ele>1864.9</ele>
        <time>2018-11-24T10:40:01Z</time>
      </trkpt>
      <trkpt lat="42.80076" lon="0.73998">
        <ele>1863.7</ele>
        <time>2018-11-24T10:40:02Z</time>
      </trkpt>
      <trkpt lat="42.80077" lon="0.73999">
        <ele>1863</ele>
        <time>2018-11-24T10:40:02Z</time>
      </trkpt>
      <trkpt lat="42.80076" lon="0.74001">
        <ele>1862.7</ele>
        <time>2018-11-24T10:40:03Z</time>
      </trkpt>
      <trkpt lat="42.80074" lon="0.74002">
        <ele>1862.9</ele>
        <time>2018-11-24T10:40:04Z</time>
      </trkpt>
      <trkpt lat="42.80072" lon="0.74004">
        <ele>1863.2</ele>
        <time>2018-11-24T10:40:05Z</time>
      </trkpt>
      <trkpt lat="42.8007" lon="0.74006">
        <ele>1863.4</ele>
        <time>2018-11-24T10:40:06Z</time>
      </trkpt>
      <trkpt lat="42.80069" lon="0.7401">
        <ele>1863</ele>
        <time>2018-11-24T10:40:07Z</time>
      </trkpt>
      <trkpt lat="42.80069" lon="0.74016">
        <ele>1862.1</ele>
        <time>2018-11-24T10:40:09Z</time>
      </trkpt>
      <trkpt lat="42.80071" lon="0.74019">
        <ele>1860.8</ele>
        <time>2018-11-24T10:40:10Z</time>
      </trkpt>
      <trkpt lat="42.80073" lon="0.74021">
        <ele>1859.6</ele>
        <time>2018-11-24T10:40:11Z</time>
      </trkpt>
      <trkpt lat="42.80075" lon="0.74023">
        <ele>1858.3</ele>
        <time>2018-11-24T10:40:12Z</time>
      </trkpt>
      <trkpt lat="42.80077" lon="0.74025">
        <ele>1856.8</ele>
        <time>2018-11-24T10:40:13Z</time>
      </trkpt>
      <trkpt lat="42.80079" lon="0.74027">
        <ele>1855.5</ele>
        <time>2018-11-24T10:40:14Z</time>
      </trkpt>
      <trkpt lat="42.8008" lon="0.7403">
        <ele>1854.7</ele>
        <time>2018-11-24T10:40:15Z</time>
      </trkpt>
      <trkpt lat="42.8008" lon="0.74033">
        <ele>1853.9</ele>
        <time>2018-11-24T10:40:16Z</time>
      </trkpt>
      <trkpt lat="42.80081" lon="0.74038">
        <ele>1852.7</ele>
        <time>2018-11-24T10:40:17Z</time>
      </trkpt>
      <trkpt lat="42.80083" lon="0.74041">
        <ele>1851.3</ele>
        <time>2018-11-24T10:40:18Z</time>
      </trkpt>
      <trkpt lat="42.80085" lon="0.74043">
        <ele>1850.3</ele>
        <time>2018-11-24T10:40:19Z</time>
      </trkpt>
      <trkpt lat="42.80087" lon="0.74045">
        <ele>1849.3</ele>
        <time>2018-11-24T10:40:20Z</time>
      </trkpt>
      <trkpt lat="42.80089" lon="0.74046">
        <ele>1848.4</ele>
        <time>2018-11-24T10:40:21Z</time>
      </trkpt>
      <trkpt lat="42.80092" lon="0.74046">
        <ele>1847.4</ele>
        <time>2018-11-24T10:40:22Z</time>
      </trkpt>
      <trkpt lat="42.80096" lon="0.74045">
        <ele>1846.2</ele>
        <time>2018-11-24T10:40:24Z</time>
      </trkpt>
      <trkpt lat="42.801" lon="0.74045">
        <ele>1844.8</ele>
        <time>2018-11-24T10:40:26Z</time>
      </trkpt>
      <trkpt lat="42.80104" lon="0.74044">
        <ele>1843.7</ele>
        <time>2018-11-24T10:40:27Z</time>
      </trkpt>
      <trkpt lat="42.80108" lon="0.74043">
        <ele>1842.7</ele>
        <time>2018-11-24T10:40:29Z</time>
      </trkpt>
      <trkpt lat="42.8011" lon="0.74045">
        <ele>1841.5</ele>
        <time>2018-11-24T10:40:30Z</time>
      </trkpt>
      <trkpt lat="42.80112" lon="0.74046">
        <ele>1840.2</ele>
        <time>2018-11-24T10:40:31Z</time>
      </trkpt>
      <trkpt lat="42.80114" lon="0.7405">
        <ele>1838</ele>
        <time>2018-11-24T10:40:32Z</time>
      </trkpt>
      <trkpt lat="42.80115" lon="0.74052">
        <ele>1836.8</ele>
        <time>2018-11-24T10:40:33Z</time>
      </trkpt>
      <trkpt lat="42.80117" lon="0.74052">
        <ele>1836.1</ele>
        <time>2018-11-24T10:40:34Z</time>
      </trkpt>
      <trkpt lat="42.80121" lon="0.74051">
        <ele>1834.9</ele>
        <time>2018-11-24T10:40:35Z</time>
      </trkpt>
      <trkpt lat="42.80124" lon="0.74049">
        <ele>1834.4</ele>
        <time>2018-11-24T10:40:37Z</time>
      </trkpt>
      <trkpt lat="42.80128" lon="0.74048">
        <ele>1833.2</ele>
        <time>2018-11-24T10:40:38Z</time>
      </trkpt>
      <trkpt lat="42.80131" lon="0.74048">
        <ele>1832.3</ele>
        <time>2018-11-24T10:40:39Z</time>
      </trkpt>
      <trkpt lat="42.80133" lon="0.74048">
        <ele>1831.2</ele>
        <time>2018-11-24T10:40:40Z</time>
      </trkpt>
      <trkpt lat="42.80137" lon="0.74048">
        <ele>1829.7</ele>
        <time>2018-11-24T10:40:42Z</time>
      </trkpt>
      <trkpt lat="42.8014" lon="0.74046">
        <ele>1828.7</ele>
        <time>2018-11-24T10:40:43Z</time>
      </trkpt>
      <trkpt lat="42.80142" lon="0.74044">
        <ele>1828</ele>
        <time>2018-11-24T10:40:44Z</time>
      </trkpt>
      <trkpt lat="42.80144" lon="0.74042">
        <ele>1827.3</ele>
        <time>2018-11-24T10:40:45Z</time>
      </trkpt>
      <trkpt lat="42.80145" lon="0.74041">
        <ele>1826.8</ele>
        <time>2018-11-24T10:40:46Z</time>
      </trkpt>
      <trkpt lat="42.80147" lon="0.7404">
        <ele>1825.8</ele>
        <time>2018-11-24T10:40:47Z</time>
      </trkpt>
      <trkpt lat="42.80148" lon="0.74042">
        <ele>1824.7</ele>
        <time>2018-11-24T10:40:47Z</time>
      </trkpt>
      <trkpt lat="42.80148" lon="0.74046">
        <ele>1823.8</ele>
        <time>2018-11-24T10:40:48Z</time>
      </trkpt>
      <trkpt lat="42.80151" lon="0.7405">
        <ele>1821.3</ele>
        <time>2018-11-24T10:40:50Z</time>
      </trkpt>
      <trkpt lat="42.80152" lon="0.74048">
        <ele>1821</ele>
        <time>2018-11-24T10:40:51Z</time>
      </trkpt>
      <trkpt lat="42.80153" lon="0.74045">
        <ele>1821</ele>
        <time>2018-11-24T10:40:52Z</time>
      </trkpt>
      <trkpt lat="42.80155" lon="0.74043">
        <ele>1820.2</ele>
        <time>2018-11-24T10:40:53Z</time>
      </trkpt>
      <trkpt lat="42.80157" lon="0.7404">
        <ele>1819.4</ele>
        <time>2018-11-24T10:40:54Z</time>
      </trkpt>
      <trkpt lat="42.80159" lon="0.74036">
        <ele>1818.8</ele>
        <time>2018-11-24T10:40:55Z</time>
      </trkpt>
      <trkpt lat="42.80162" lon="0.74032">
        <ele>1817.5</ele>
        <time>2018-11-24T10:40:57Z</time>
      </trkpt>
      <trkpt lat="42.80164" lon="0.7403">
        <ele>1816.9</ele>
        <time>2018-11-24T10:40:58Z</time>
      </trkpt>
      <trkpt lat="42.80165" lon="0.74027">
        <ele>1816.3</ele>
        <time>2018-11-24T10:40:59Z</time>
      </trkpt>
      <trkpt lat="42.80167" lon="0.74025">
        <ele>1815.7</ele>
        <time>2018-11-24T10:41:00Z</time>
      </trkpt>
      <trkpt lat="42.80168" lon="0.74022">
        <ele>1815.6</ele>
        <time>2018-11-24T10:41:01Z</time>
      </trkpt>
      <trkpt lat="42.8017" lon="0.74021">
        <ele>1815</ele>
        <time>2018-11-24T10:41:02Z</time>
      </trkpt>
      <trkpt lat="42.80173" lon="0.74018">
        <ele>1814.5</ele>
        <time>2018-11-24T10:41:03Z</time>
      </trkpt>
      <trkpt lat="42.80175" lon="0.74016">
        <ele>1814.2</ele>
        <time>2018-11-24T10:41:04Z</time>
      </trkpt>
      <trkpt lat="42.80177" lon="0.74013">
        <ele>1813.9</ele>
        <time>2018-11-24T10:41:05Z</time>
      </trkpt>
      <trkpt lat="42.80179" lon="0.74011">
        <ele>1813.7</ele>
        <time>2018-11-24T10:41:06Z</time>
      </trkpt>
      <trkpt lat="42.80181" lon="0.74009">
        <ele>1813.2</ele>
        <time>2018-11-24T10:41:07Z</time>
      </trkpt>
      <trkpt lat="42.80184" lon="0.74007">
        <ele>1812.8</ele>
        <time>2018-11-24T10:41:09Z</time>
      </trkpt>
      <trkpt lat="42.80186" lon="0.74005">
        <ele>1812.2</ele>
        <time>2018-11-24T10:41:10Z</time>
      </trkpt>
      <trkpt lat="42.80188" lon="0.74004">
        <ele>1811.8</ele>
        <time>2018-11-24T10:41:11Z</time>
      </trkpt>
      <trkpt lat="42.8019" lon="0.74002">
        <ele>1811.3</ele>
        <time>2018-11-24T10:41:12Z</time>
      </trkpt>
      <trkpt lat="42.80193" lon="0.74001">
        <ele>1810.7</ele>
        <time>2018-11-24T10:41:13Z</time>
      </trkpt>
      <trkpt lat="42.80195" lon="0.73999">
        <ele>1810</ele>
        <time>2018-11-24T10:41:14Z</time>
      </trkpt>
      <trkpt lat="42.80198" lon="0.73999">
        <ele>1809.1</ele>
        <time>2018-11-24T10:41:15Z</time>
      </trkpt>
      <trkpt lat="42.802" lon="0.73998">
        <ele>1808.4</ele>
        <time>2018-11-24T10:41:16Z</time>
      </trkpt>
      <trkpt lat="42.80204" lon="0.73996">
        <ele>1807.2</ele>
        <time>2018-11-24T10:41:17Z</time>
      </trkpt>
      <trkpt lat="42.80206" lon="0.73994">
        <ele>1806.8</ele>
        <time>2018-11-24T10:41:18Z</time>
      </trkpt>
      <trkpt lat="42.80207" lon="0.73991">
        <ele>1806.5</ele>
        <time>2018-11-24T10:41:19Z</time>
      </trkpt>
      <trkpt lat="42.80209" lon="0.73988">
        <ele>1806.3</ele>
        <time>2018-11-24T10:41:20Z</time>
      </trkpt>
      <trkpt lat="42.8021" lon="0.73985">
        <ele>1805.9</ele>
        <time>2018-11-24T10:41:21Z</time>
      </trkpt>
      <trkpt lat="42.80212" lon="0.73982">
        <ele>1805.6</ele>
        <time>2018-11-24T10:41:23Z</time>
      </trkpt>
      <trkpt lat="42.80213" lon="0.73979">
        <ele>1805.2</ele>
        <time>2018-11-24T10:41:24Z</time>
      </trkpt>
      <trkpt lat="42.80214" lon="0.73976">
        <ele>1804.9</ele>
        <time>2018-11-24T10:41:25Z</time>
      </trkpt>
      <trkpt lat="42.80215" lon="0.73973">
        <ele>1804.6</ele>
        <time>2018-11-24T10:41:26Z</time>
      </trkpt>
      <trkpt lat="42.80217" lon="0.7397">
        <ele>1803.6</ele>
        <time>2018-11-24T10:41:27Z</time>
      </trkpt>
      <trkpt lat="42.80219" lon="0.73967">
        <ele>1802.6</ele>
        <time>2018-11-24T10:41:28Z</time>
      </trkpt>
      <trkpt lat="42.80221" lon="0.73964">
        <ele>1801.9</ele>
        <time>2018-11-24T10:41:29Z</time>
      </trkpt>
      <trkpt lat="42.80222" lon="0.7396">
        <ele>1801.2</ele>
        <time>2018-11-24T10:41:30Z</time>
      </trkpt>
      <trkpt lat="42.80224" lon="0.73957">
        <ele>1800.6</ele>
        <time>2018-11-24T10:41:31Z</time>
      </trkpt>
      <trkpt lat="42.80225" lon="0.73953">
        <ele>1800.2</ele>
        <time>2018-11-24T10:41:33Z</time>
      </trkpt>
      <trkpt lat="42.80226" lon="0.7395">
        <ele>1800</ele>
        <time>2018-11-24T10:41:34Z</time>
      </trkpt>
      <trkpt lat="42.80227" lon="0.73947">
        <ele>1799.6</ele>
        <time>2018-11-24T10:41:35Z</time>
      </trkpt>
      <trkpt lat="42.80228" lon="0.73944">
        <ele>1799.4</ele>
        <time>2018-11-24T10:41:36Z</time>
      </trkpt>
      <trkpt lat="42.80229" lon="0.7394">
        <ele>1798.9</ele>
        <time>2018-11-24T10:41:37Z</time>
      </trkpt>
      <trkpt lat="42.8023" lon="0.73936">
        <ele>1798.5</ele>
        <time>2018-11-24T10:41:38Z</time>
      </trkpt>
      <trkpt lat="42.80231" lon="0.73932">
        <ele>1798.1</ele>
        <time>2018-11-24T10:41:39Z</time>
      </trkpt>
      <trkpt lat="42.80233" lon="0.73929">
        <ele>1797.4</ele>
        <time>2018-11-24T10:41:41Z</time>
      </trkpt>
      <trkpt lat="42.80235" lon="0.73926">
        <ele>1796.9</ele>
        <time>2018-11-24T10:41:42Z</time>
      </trkpt>
      <trkpt lat="42.80238" lon="0.73924">
        <ele>1796.3</ele>
        <time>2018-11-24T10:41:43Z</time>
      </trkpt>
      <trkpt lat="42.8024" lon="0.73921">
        <ele>1795.9</ele>
        <time>2018-11-24T10:41:44Z</time>
      </trkpt>
      <trkpt lat="42.80242" lon="0.7392">
        <ele>1795.5</ele>
        <time>2018-11-24T10:41:45Z</time>
      </trkpt>
      <trkpt lat="42.80244" lon="0.73918">
        <ele>1795.1</ele>
        <time>2018-11-24T10:41:46Z</time>
      </trkpt>
      <trkpt lat="42.80247" lon="0.73918">
        <ele>1794.6</ele>
        <time>2018-11-24T10:41:47Z</time>
      </trkpt>
      <trkpt lat="42.8025" lon="0.73918">
        <ele>1794.1</ele>
        <time>2018-11-24T10:41:48Z</time>
      </trkpt>
      <trkpt lat="42.80252" lon="0.73919">
        <ele>1793.6</ele>
        <time>2018-11-24T10:41:49Z</time>
      </trkpt>
      <trkpt lat="42.80254" lon="0.73921">
        <ele>1793.1</ele>
        <time>2018-11-24T10:41:50Z</time>
      </trkpt>
      <trkpt lat="42.80255" lon="0.73924">
        <ele>1792.9</ele>
        <time>2018-11-24T10:41:51Z</time>
      </trkpt>
      <trkpt lat="42.80256" lon="0.73927">
        <ele>1792.6</ele>
        <time>2018-11-24T10:41:52Z</time>
      </trkpt>
      <trkpt lat="42.80257" lon="0.7393">
        <ele>1792.1</ele>
        <time>2018-11-24T10:41:53Z</time>
      </trkpt>
      <trkpt lat="42.80258" lon="0.73933">
        <ele>1791.8</ele>
        <time>2018-11-24T10:41:54Z</time>
      </trkpt>
      <trkpt lat="42.80259" lon="0.73937">
        <ele>1791.5</ele>
        <time>2018-11-24T10:41:55Z</time>
      </trkpt>
      <trkpt lat="42.8026" lon="0.7394">
        <ele>1791.1</ele>
        <time>2018-11-24T10:41:56Z</time>
      </trkpt>
      <trkpt lat="42.80261" lon="0.73944">
        <ele>1790.7</ele>
        <time>2018-11-24T10:41:57Z</time>
      </trkpt>
      <trkpt lat="42.80262" lon="0.73947">
        <ele>1790.3</ele>
        <time>2018-11-24T10:41:59Z</time>
      </trkpt>
      <trkpt lat="42.80264" lon="0.7395">
        <ele>1789.8</ele>
        <time>2018-11-24T10:41:59Z</time>
      </trkpt>
      <trkpt lat="42.80265" lon="0.73952">
        <ele>1789.2</ele>
        <time>2018-11-24T10:42:00Z</time>
      </trkpt>
      <trkpt lat="42.80267" lon="0.73955">
        <ele>1788.7</ele>
        <time>2018-11-24T10:42:01Z</time>
      </trkpt>
      <trkpt lat="42.80268" lon="0.73957">
        <ele>1788.2</ele>
        <time>2018-11-24T10:42:02Z</time>
      </trkpt>
      <trkpt lat="42.80271" lon="0.73959">
        <ele>1787.5</ele>
        <time>2018-11-24T10:42:03Z</time>
      </trkpt>
      <trkpt lat="42.80273" lon="0.73961">
        <ele>1786.8</ele>
        <time>2018-11-24T10:42:05Z</time>
      </trkpt>
      <trkpt lat="42.80276" lon="0.73963">
        <ele>1786.2</ele>
        <time>2018-11-24T10:42:06Z</time>
      </trkpt>
      <trkpt lat="42.80278" lon="0.73964">
        <ele>1785.6</ele>
        <time>2018-11-24T10:42:07Z</time>
      </trkpt>
      <trkpt lat="42.80281" lon="0.73965">
        <ele>1785.2</ele>
        <time>2018-11-24T10:42:08Z</time>
      </trkpt>
      <trkpt lat="42.80283" lon="0.73965">
        <ele>1784.7</ele>
        <time>2018-11-24T10:42:09Z</time>
      </trkpt>
      <trkpt lat="42.80286" lon="0.73966">
        <ele>1784.3</ele>
        <time>2018-11-24T10:42:10Z</time>
      </trkpt>
      <trkpt lat="42.80288" lon="0.73966">
        <ele>1783.7</ele>
        <time>2018-11-24T10:42:11Z</time>
      </trkpt>
      <trkpt lat="42.80291" lon="0.73967">
        <ele>1783.2</ele>
        <time>2018-11-24T10:42:12Z</time>
      </trkpt>
      <trkpt lat="42.80293" lon="0.73967">
        <ele>1782.8</ele>
        <time>2018-11-24T10:42:13Z</time>
      </trkpt>
      <trkpt lat="42.80296" lon="0.73968">
        <ele>1782.3</ele>
        <time>2018-11-24T10:42:14Z</time>
      </trkpt>
      <trkpt lat="42.80299" lon="0.73968">
        <ele>1781.7</ele>
        <time>2018-11-24T10:42:15Z</time>
      </trkpt>
      <trkpt lat="42.80302" lon="0.73968">
        <ele>1781.2</ele>
        <time>2018-11-24T10:42:17Z</time>
      </trkpt>
      <trkpt lat="42.80305" lon="0.73968">
        <ele>1780.7</ele>
        <time>2018-11-24T10:42:18Z</time>
      </trkpt>
      <trkpt lat="42.80307" lon="0.7397">
        <ele>1780</ele>
        <time>2018-11-24T10:42:19Z</time>
      </trkpt>
      <trkpt lat="42.80309" lon="0.73971">
        <ele>1779.5</ele>
        <time>2018-11-24T10:42:20Z</time>
      </trkpt>
      <trkpt lat="42.8031" lon="0.73971">
        <ele>1779.3</ele>
        <time>2018-11-24T10:42:20Z</time>
      </trkpt>
      <trkpt lat="42.80314" lon="0.73971">
        <ele>1778.6</ele>
        <time>2018-11-24T10:42:22Z</time>
      </trkpt>
      <trkpt lat="42.80317" lon="0.73972">
        <ele>1778.2</ele>
        <time>2018-11-24T10:42:23Z</time>
      </trkpt>
      <trkpt lat="42.80319" lon="0.73972">
        <ele>1777.6</ele>
        <time>2018-11-24T10:42:24Z</time>
      </trkpt>
      <trkpt lat="42.80322" lon="0.73972">
        <ele>1777.2</ele>
        <time>2018-11-24T10:42:25Z</time>
      </trkpt>
      <trkpt lat="42.80324" lon="0.73972">
        <ele>1776.8</ele>
        <time>2018-11-24T10:42:26Z</time>
      </trkpt>
      <trkpt lat="42.80327" lon="0.73972">
        <ele>1776.3</ele>
        <time>2018-11-24T10:42:27Z</time>
      </trkpt>
      <trkpt lat="42.80329" lon="0.73972">
        <ele>1775.8</ele>
        <time>2018-11-24T10:42:28Z</time>
      </trkpt>
      <trkpt lat="42.80333" lon="0.73973">
        <ele>1775</ele>
        <time>2018-11-24T10:42:29Z</time>
      </trkpt>
      <trkpt lat="42.80336" lon="0.73973">
        <ele>1774.5</ele>
        <time>2018-11-24T10:42:30Z</time>
      </trkpt>
      <trkpt lat="42.80338" lon="0.73973">
        <ele>1774.1</ele>
        <time>2018-11-24T10:42:31Z</time>
      </trkpt>
      <trkpt lat="42.80341" lon="0.73974">
        <ele>1773.6</ele>
        <time>2018-11-24T10:42:32Z</time>
      </trkpt>
      <trkpt lat="42.80343" lon="0.73974">
        <ele>1773.2</ele>
        <time>2018-11-24T10:42:33Z</time>
      </trkpt>
      <trkpt lat="42.80346" lon="0.73974">
        <ele>1772.6</ele>
        <time>2018-11-24T10:42:34Z</time>
      </trkpt>
      <trkpt lat="42.80349" lon="0.73974">
        <ele>1772.1</ele>
        <time>2018-11-24T10:42:36Z</time>
      </trkpt>
      <trkpt lat="42.80352" lon="0.73975">
        <ele>1771.5</ele>
        <time>2018-11-24T10:42:37Z</time>
      </trkpt>
      <trkpt lat="42.80355" lon="0.73975">
        <ele>1771</ele>
        <time>2018-11-24T10:42:38Z</time>
      </trkpt>
      <trkpt lat="42.80358" lon="0.73974">
        <ele>1770.6</ele>
        <time>2018-11-24T10:42:39Z</time>
      </trkpt>
      <trkpt lat="42.8036" lon="0.73973">
        <ele>1770.2</ele>
        <time>2018-11-24T10:42:40Z</time>
      </trkpt>
      <trkpt lat="42.80362" lon="0.7397">
        <ele>1770.1</ele>
        <time>2018-11-24T10:42:41Z</time>
      </trkpt>
      <trkpt lat="42.80364" lon="0.73967">
        <ele>1770.2</ele>
        <time>2018-11-24T10:42:43Z</time>
      </trkpt>
      <trkpt lat="42.80365" lon="0.73963">
        <ele>1770.3</ele>
        <time>2018-11-24T10:42:44Z</time>
      </trkpt>
      <trkpt lat="42.80367" lon="0.73961">
        <ele>1770.3</ele>
        <time>2018-11-24T10:42:45Z</time>
      </trkpt>
      <trkpt lat="42.80369" lon="0.73958">
        <ele>1770.3</ele>
        <time>2018-11-24T10:42:46Z</time>
      </trkpt>
      <trkpt lat="42.80371" lon="0.73957">
        <ele>1770.3</ele>
        <time>2018-11-24T10:42:47Z</time>
      </trkpt>
      <trkpt lat="42.80373" lon="0.73955">
        <ele>1770.2</ele>
        <time>2018-11-24T10:42:48Z</time>
      </trkpt>
      <trkpt lat="42.80376" lon="0.73954">
        <ele>1770.1</ele>
        <time>2018-11-24T10:42:49Z</time>
      </trkpt>
      <trkpt lat="42.80378" lon="0.73952">
        <ele>1770</ele>
        <time>2018-11-24T10:42:50Z</time>
      </trkpt>
      <trkpt lat="42.80381" lon="0.73951">
        <ele>1769.8</ele>
        <time>2018-11-24T10:42:51Z</time>
      </trkpt>
      <trkpt lat="42.80384" lon="0.73949">
        <ele>1769.7</ele>
        <time>2018-11-24T10:42:52Z</time>
      </trkpt>
      <trkpt lat="42.80387" lon="0.73948">
        <ele>1769.7</ele>
        <time>2018-11-24T10:42:54Z</time>
      </trkpt>
      <trkpt lat="42.8039" lon="0.73946">
        <ele>1769.6</ele>
        <time>2018-11-24T10:42:55Z</time>
      </trkpt>
      <trkpt lat="42.80393" lon="0.73945">
        <ele>1769.8</ele>
        <time>2018-11-24T10:42:56Z</time>
      </trkpt>
      <trkpt lat="42.80396" lon="0.73943">
        <ele>1769.9</ele>
        <time>2018-11-24T10:42:58Z</time>
      </trkpt>
      <trkpt lat="42.80399" lon="0.73942">
        <ele>1769.9</ele>
        <time>2018-11-24T10:42:59Z</time>
      </trkpt>
      <trkpt lat="42.80401" lon="0.7394">
        <ele>1770</ele>
        <time>2018-11-24T10:43:00Z</time>
      </trkpt>
      <trkpt lat="42.80403" lon="0.73938">
        <ele>1770.5</ele>
        <time>2018-11-24T10:43:01Z</time>
      </trkpt>
      <trkpt lat="42.80404" lon="0.73935">
        <ele>1770.8</ele>
        <time>2018-11-24T10:43:02Z</time>
      </trkpt>
      <trkpt lat="42.80406" lon="0.73933">
        <ele>1771</ele>
        <time>2018-11-24T10:43:03Z</time>
      </trkpt>
      <trkpt lat="42.80408" lon="0.7393">
        <ele>1771.3</ele>
        <time>2018-11-24T10:43:04Z</time>
      </trkpt>
      <trkpt lat="42.8041" lon="0.73928">
        <ele>1771.4</ele>
        <time>2018-11-24T10:43:05Z</time>
      </trkpt>
      <trkpt lat="42.80412" lon="0.73925">
        <ele>1771.6</ele>
        <time>2018-11-24T10:43:06Z</time>
      </trkpt>
      <trkpt lat="42.80414" lon="0.73922">
        <ele>1771.8</ele>
        <time>2018-11-24T10:43:07Z</time>
      </trkpt>
      <trkpt lat="42.80416" lon="0.73919">
        <ele>1771.8</ele>
        <time>2018-11-24T10:43:08Z</time>
      </trkpt>
      <trkpt lat="42.80418" lon="0.73914">
        <ele>1771.7</ele>
        <time>2018-11-24T10:43:10Z</time>
      </trkpt>
      <trkpt lat="42.80417" lon="0.73911">
        <ele>1771</ele>
        <time>2018-11-24T10:43:11Z</time>
      </trkpt>
      <trkpt lat="42.80415" lon="0.73907">
        <ele>1770.7</ele>
        <time>2018-11-24T10:43:12Z</time>
      </trkpt>
      <trkpt lat="42.80415" lon="0.73904">
        <ele>1770.3</ele>
        <time>2018-11-24T10:43:13Z</time>
      </trkpt>
      <trkpt lat="42.80414" lon="0.73901">
        <ele>1770</ele>
        <time>2018-11-24T10:43:14Z</time>
      </trkpt>
      <trkpt lat="42.80413" lon="0.73898">
        <ele>1770.1</ele>
        <time>2018-11-24T10:43:15Z</time>
      </trkpt>
      <trkpt lat="42.80411" lon="0.73895">
        <ele>1770.2</ele>
        <time>2018-11-24T10:43:16Z</time>
      </trkpt>
      <trkpt lat="42.8041" lon="0.73892">
        <ele>1770</ele>
        <time>2018-11-24T10:43:17Z</time>
      </trkpt>
      <trkpt lat="42.80409" lon="0.73889">
        <ele>1770.1</ele>
        <time>2018-11-24T10:43:18Z</time>
      </trkpt>
      <trkpt lat="42.80409" lon="0.73886">
        <ele>1769.6</ele>
        <time>2018-11-24T10:43:19Z</time>
      </trkpt>
      <trkpt lat="42.80408" lon="0.73883">
        <ele>1769.2</ele>
        <time>2018-11-24T10:43:20Z</time>
      </trkpt>
      <trkpt lat="42.80408" lon="0.7388">
        <ele>1768.7</ele>
        <time>2018-11-24T10:43:21Z</time>
      </trkpt>
      <trkpt lat="42.80407" lon="0.73877">
        <ele>1768.1</ele>
        <time>2018-11-24T10:43:22Z</time>
      </trkpt>
      <trkpt lat="42.80407" lon="0.73871">
        <ele>1766.9</ele>
        <time>2018-11-24T10:43:24Z</time>
      </trkpt>
      <trkpt lat="42.80407" lon="0.73868">
        <ele>1766</ele>
        <time>2018-11-24T10:43:25Z</time>
      </trkpt>
      <trkpt lat="42.80407" lon="0.73864">
        <ele>1765.2</ele>
        <time>2018-11-24T10:43:26Z</time>
      </trkpt>
      <trkpt lat="42.80408" lon="0.73861">
        <ele>1764.2</ele>
        <time>2018-11-24T10:43:27Z</time>
      </trkpt>
      <trkpt lat="42.80408" lon="0.73857">
        <ele>1763.5</ele>
        <time>2018-11-24T10:43:28Z</time>
      </trkpt>
      <trkpt lat="42.80408" lon="0.73852">
        <ele>1762.9</ele>
        <time>2018-11-24T10:43:29Z</time>
      </trkpt>
      <trkpt lat="42.80408" lon="0.73848">
        <ele>1762.3</ele>
        <time>2018-11-24T10:43:30Z</time>
      </trkpt>
      <trkpt lat="42.80408" lon="0.73844">
        <ele>1761.7</ele>
        <time>2018-11-24T10:43:32Z</time>
      </trkpt>
      <trkpt lat="42.80409" lon="0.73841">
        <ele>1761</ele>
        <time>2018-11-24T10:43:33Z</time>
      </trkpt>
      <trkpt lat="42.80409" lon="0.73838">
        <ele>1760.4</ele>
        <time>2018-11-24T10:43:33Z</time>
      </trkpt>
      <trkpt lat="42.80411" lon="0.73833">
        <ele>1759.1</ele>
        <time>2018-11-24T10:43:35Z</time>
      </trkpt>
      <trkpt lat="42.80413" lon="0.7383">
        <ele>1757.9</ele>
        <time>2018-11-24T10:43:36Z</time>
      </trkpt>
      <trkpt lat="42.80416" lon="0.7383">
        <ele>1756.8</ele>
        <time>2018-11-24T10:43:37Z</time>
      </trkpt>
      <trkpt lat="42.80418" lon="0.73829">
        <ele>1756</ele>
        <time>2018-11-24T10:43:38Z</time>
      </trkpt>
      <trkpt lat="42.80421" lon="0.7383">
        <ele>1755.4</ele>
        <time>2018-11-24T10:43:40Z</time>
      </trkpt>
      <trkpt lat="42.80424" lon="0.73832">
        <ele>1755.1</ele>
        <time>2018-11-24T10:43:41Z</time>
      </trkpt>
      <trkpt lat="42.80426" lon="0.73833">
        <ele>1754.6</ele>
        <time>2018-11-24T10:43:42Z</time>
      </trkpt>
      <trkpt lat="42.80429" lon="0.73835">
        <ele>1754.3</ele>
        <time>2018-11-24T10:43:43Z</time>
      </trkpt>
      <trkpt lat="42.80432" lon="0.73836">
        <ele>1753.7</ele>
        <time>2018-11-24T10:43:44Z</time>
      </trkpt>
      <trkpt lat="42.80435" lon="0.73837">
        <ele>1753.2</ele>
        <time>2018-11-24T10:43:46Z</time>
      </trkpt>
      <trkpt lat="42.80439" lon="0.73838">
        <ele>1752.5</ele>
        <time>2018-11-24T10:43:47Z</time>
      </trkpt>
      <trkpt lat="42.80442" lon="0.73838">
        <ele>1751.7</ele>
        <time>2018-11-24T10:43:48Z</time>
      </trkpt>
      <trkpt lat="42.80445" lon="0.73839">
        <ele>1751.5</ele>
        <time>2018-11-24T10:43:49Z</time>
      </trkpt>
      <trkpt lat="42.80447" lon="0.7384">
        <ele>1751.1</ele>
        <time>2018-11-24T10:43:50Z</time>
      </trkpt>
      <trkpt lat="42.8045" lon="0.73841">
        <ele>1750.6</ele>
        <time>2018-11-24T10:43:52Z</time>
      </trkpt>
      <trkpt lat="42.80452" lon="0.73841">
        <ele>1750.2</ele>
        <time>2018-11-24T10:43:53Z</time>
      </trkpt>
      <trkpt lat="42.80455" lon="0.73841">
        <ele>1749.6</ele>
        <time>2018-11-24T10:43:54Z</time>
      </trkpt>
      <trkpt lat="42.80457" lon="0.73841">
        <ele>1749</ele>
        <time>2018-11-24T10:43:55Z</time>
      </trkpt>
      <trkpt lat="42.8046" lon="0.7384">
        <ele>1748</ele>
        <time>2018-11-24T10:43:56Z</time>
      </trkpt>
      <trkpt lat="42.80464" lon="0.73842">
        <ele>1747.8</ele>
        <time>2018-11-24T10:43:57Z</time>
      </trkpt>
      <trkpt lat="42.80467" lon="0.73841">
        <ele>1746.8</ele>
        <time>2018-11-24T10:43:59Z</time>
      </trkpt>
      <trkpt lat="42.80469" lon="0.73839">
        <ele>1745.6</ele>
        <time>2018-11-24T10:44:00Z</time>
      </trkpt>
      <trkpt lat="42.8047" lon="0.73836">
        <ele>1744.5</ele>
        <time>2018-11-24T10:44:01Z</time>
      </trkpt>
      <trkpt lat="42.8047" lon="0.73833">
        <ele>1743.5</ele>
        <time>2018-11-24T10:44:01Z</time>
      </trkpt>
      <trkpt lat="42.80471" lon="0.73828">
        <ele>1742.4</ele>
        <time>2018-11-24T10:44:03Z</time>
      </trkpt>
      <trkpt lat="42.80471" lon="0.73824">
        <ele>1741.9</ele>
        <time>2018-11-24T10:44:04Z</time>
      </trkpt>
      <trkpt lat="42.8047" lon="0.7382">
        <ele>1741.2</ele>
        <time>2018-11-24T10:44:05Z</time>
      </trkpt>
      <trkpt lat="42.80468" lon="0.73818">
        <ele>1741.2</ele>
        <time>2018-11-24T10:44:06Z</time>
      </trkpt>
      <trkpt lat="42.80466" lon="0.73815">
        <ele>1741.3</ele>
        <time>2018-11-24T10:44:08Z</time>
      </trkpt>
      <trkpt lat="42.80464" lon="0.73813">
        <ele>1741.4</ele>
        <time>2018-11-24T10:44:09Z</time>
      </trkpt>
      <trkpt lat="42.80462" lon="0.73811">
        <ele>1741.7</ele>
        <time>2018-11-24T10:44:10Z</time>
      </trkpt>
      <trkpt lat="42.80461" lon="0.73809">
        <ele>1741.5</ele>
        <time>2018-11-24T10:44:11Z</time>
      </trkpt>
      <trkpt lat="42.80459" lon="0.73806">
        <ele>1741.4</ele>
        <time>2018-11-24T10:44:11Z</time>
      </trkpt>
      <trkpt lat="42.80457" lon="0.73804">
        <ele>1741.6</ele>
        <time>2018-11-24T10:44:13Z</time>
      </trkpt>
      <trkpt lat="42.80454" lon="0.73802">
        <ele>1742</ele>
        <time>2018-11-24T10:44:14Z</time>
      </trkpt>
      <trkpt lat="42.80452" lon="0.73797">
        <ele>1741.5</ele>
        <time>2018-11-24T10:44:15Z</time>
      </trkpt>
      <trkpt lat="42.80451" lon="0.73793">
        <ele>1741</ele>
        <time>2018-11-24T10:44:17Z</time>
      </trkpt>
      <trkpt lat="42.8045" lon="0.7379">
        <ele>1740.6</ele>
        <time>2018-11-24T10:44:18Z</time>
      </trkpt>
      <trkpt lat="42.80449" lon="0.73787">
        <ele>1740.3</ele>
        <time>2018-11-24T10:44:19Z</time>
      </trkpt>
      <trkpt lat="42.80448" lon="0.73784">
        <ele>1739.9</ele>
        <time>2018-11-24T10:44:20Z</time>
      </trkpt>
      <trkpt lat="42.80447" lon="0.7378">
        <ele>1739.6</ele>
        <time>2018-11-24T10:44:21Z</time>
      </trkpt>
      <trkpt lat="42.80447" lon="0.73776">
        <ele>1739.1</ele>
        <time>2018-11-24T10:44:22Z</time>
      </trkpt>
      <trkpt lat="42.80446" lon="0.73772">
        <ele>1738.4</ele>
        <time>2018-11-24T10:44:23Z</time>
      </trkpt>
      <trkpt lat="42.80445" lon="0.7377">
        <ele>1738.5</ele>
        <time>2018-11-24T10:44:24Z</time>
      </trkpt>
      <trkpt lat="42.80443" lon="0.73767">
        <ele>1738.2</ele>
        <time>2018-11-24T10:44:25Z</time>
      </trkpt>
      <trkpt lat="42.8044" lon="0.73763">
        <ele>1737.4</ele>
        <time>2018-11-24T10:44:27Z</time>
      </trkpt>
      <trkpt lat="42.80438" lon="0.73762">
        <ele>1737</ele>
        <time>2018-11-24T10:44:28Z</time>
      </trkpt>
      <trkpt lat="42.80436" lon="0.7376">
        <ele>1736.6</ele>
        <time>2018-11-24T10:44:29Z</time>
      </trkpt>
      <trkpt lat="42.80434" lon="0.73759">
        <ele>1736.2</ele>
        <time>2018-11-24T10:44:30Z</time>
      </trkpt>
      <trkpt lat="42.80431" lon="0.73757">
        <ele>1735.5</ele>
        <time>2018-11-24T10:44:31Z</time>
      </trkpt>
      <trkpt lat="42.80427" lon="0.73755">
        <ele>1734.7</ele>
        <time>2018-11-24T10:44:33Z</time>
      </trkpt>
      <trkpt lat="42.80424" lon="0.73753">
        <ele>1733.8</ele>
        <time>2018-11-24T10:44:34Z</time>
      </trkpt>
      <trkpt lat="42.80421" lon="0.7375">
        <ele>1732.5</ele>
        <time>2018-11-24T10:44:35Z</time>
      </trkpt>
      <trkpt lat="42.80419" lon="0.73749">
        <ele>1731.8</ele>
        <time>2018-11-24T10:44:36Z</time>
      </trkpt>
      <trkpt lat="42.80417" lon="0.73747">
        <ele>1731.1</ele>
        <time>2018-11-24T10:44:37Z</time>
      </trkpt>
      <trkpt lat="42.80415" lon="0.73746">
        <ele>1730.7</ele>
        <time>2018-11-24T10:44:38Z</time>
      </trkpt>
      <trkpt lat="42.80413" lon="0.73744">
        <ele>1730.4</ele>
        <time>2018-11-24T10:44:39Z</time>
      </trkpt>
      <trkpt lat="42.80411" lon="0.73743">
        <ele>1730.1</ele>
        <time>2018-11-24T10:44:40Z</time>
      </trkpt>
      <trkpt lat="42.80409" lon="0.73741">
        <ele>1729.7</ele>
        <time>2018-11-24T10:44:41Z</time>
      </trkpt>
      <trkpt lat="42.80406" lon="0.73738">
        <ele>1729</ele>
        <time>2018-11-24T10:44:42Z</time>
      </trkpt>
      <trkpt lat="42.80404" lon="0.73735">
        <ele>1728.4</ele>
        <time>2018-11-24T10:44:44Z</time>
      </trkpt>
      <trkpt lat="42.80402" lon="0.73732">
        <ele>1727.6</ele>
        <time>2018-11-24T10:44:45Z</time>
      </trkpt>
      <trkpt lat="42.80401" lon="0.73729">
        <ele>1726.8</ele>
        <time>2018-11-24T10:44:46Z</time>
      </trkpt>
      <trkpt lat="42.804" lon="0.73726">
        <ele>1725.9</ele>
        <time>2018-11-24T10:44:47Z</time>
      </trkpt>
      <trkpt lat="42.804" lon="0.7372">
        <ele>1724.4</ele>
        <time>2018-11-24T10:44:48Z</time>
      </trkpt>
      <trkpt lat="42.804" lon="0.73717">
        <ele>1724</ele>
        <time>2018-11-24T10:44:49Z</time>
      </trkpt>
      <trkpt lat="42.80399" lon="0.73714">
        <ele>1723.5</ele>
        <time>2018-11-24T10:44:50Z</time>
      </trkpt>
      <trkpt lat="42.80399" lon="0.73708">
        <ele>1722.4</ele>
        <time>2018-11-24T10:44:52Z</time>
      </trkpt>
      <trkpt lat="42.80399" lon="0.73705">
        <ele>1721.9</ele>
        <time>2018-11-24T10:44:53Z</time>
      </trkpt>
      <trkpt lat="42.80398" lon="0.73702">
        <ele>1721.5</ele>
        <time>2018-11-24T10:44:54Z</time>
      </trkpt>
      <trkpt lat="42.80398" lon="0.73699">
        <ele>1720.9</ele>
        <time>2018-11-24T10:44:55Z</time>
      </trkpt>
      <trkpt lat="42.80398" lon="0.73696">
        <ele>1720.4</ele>
        <time>2018-11-24T10:44:56Z</time>
      </trkpt>
      <trkpt lat="42.80397" lon="0.73693">
        <ele>1720.1</ele>
        <time>2018-11-24T10:44:56Z</time>
      </trkpt>
      <trkpt lat="42.80398" lon="0.73688">
        <ele>1719.3</ele>
        <time>2018-11-24T10:44:58Z</time>
      </trkpt>
      <trkpt lat="42.80399" lon="0.73686">
        <ele>1718.9</ele>
        <time>2018-11-24T10:44:59Z</time>
      </trkpt>
      <trkpt lat="42.80401" lon="0.73685">
        <ele>1718</ele>
        <time>2018-11-24T10:45:00Z</time>
      </trkpt>
      <trkpt lat="42.80403" lon="0.73683">
        <ele>1717.3</ele>
        <time>2018-11-24T10:45:01Z</time>
      </trkpt>
      <trkpt lat="42.80407" lon="0.73681">
        <ele>1715.9</ele>
        <time>2018-11-24T10:45:02Z</time>
      </trkpt>
      <trkpt lat="42.8041" lon="0.7368">
        <ele>1715</ele>
        <time>2018-11-24T10:45:03Z</time>
      </trkpt>
      <trkpt lat="42.80412" lon="0.73678">
        <ele>1713.9</ele>
        <time>2018-11-24T10:45:04Z</time>
      </trkpt>
      <trkpt lat="42.80414" lon="0.73677">
        <ele>1712.9</ele>
        <time>2018-11-24T10:45:05Z</time>
      </trkpt>
      <trkpt lat="42.80416" lon="0.73675">
        <ele>1712</ele>
        <time>2018-11-24T10:45:06Z</time>
      </trkpt>
      <trkpt lat="42.80419" lon="0.73671">
        <ele>1710.7</ele>
        <time>2018-11-24T10:45:08Z</time>
      </trkpt>
      <trkpt lat="42.80422" lon="0.7367">
        <ele>1710</ele>
        <time>2018-11-24T10:45:09Z</time>
      </trkpt>
      <trkpt lat="42.80424" lon="0.73669">
        <ele>1709.6</ele>
        <time>2018-11-24T10:45:10Z</time>
      </trkpt>
      <trkpt lat="42.80428" lon="0.73667">
        <ele>1708.5</ele>
        <time>2018-11-24T10:45:12Z</time>
      </trkpt>
      <trkpt lat="42.8043" lon="0.73666">
        <ele>1708</ele>
        <time>2018-11-24T10:45:13Z</time>
      </trkpt>
      <trkpt lat="42.80432" lon="0.73664">
        <ele>1707.4</ele>
        <time>2018-11-24T10:45:14Z</time>
      </trkpt>
      <trkpt lat="42.80435" lon="0.73663">
        <ele>1706.9</ele>
        <time>2018-11-24T10:45:15Z</time>
      </trkpt>
      <trkpt lat="42.80437" lon="0.73662">
        <ele>1706.3</ele>
        <time>2018-11-24T10:45:16Z</time>
      </trkpt>
      <trkpt lat="42.80439" lon="0.73661">
        <ele>1705.8</ele>
        <time>2018-11-24T10:45:17Z</time>
      </trkpt>
      <trkpt lat="42.80441" lon="0.73659">
        <ele>1705.3</ele>
        <time>2018-11-24T10:45:17Z</time>
      </trkpt>
      <trkpt lat="42.80444" lon="0.73658">
        <ele>1704.6</ele>
        <time>2018-11-24T10:45:19Z</time>
      </trkpt>
      <trkpt lat="42.80446" lon="0.73656">
        <ele>1703.8</ele>
        <time>2018-11-24T10:45:20Z</time>
      </trkpt>
      <trkpt lat="42.80448" lon="0.73654">
        <ele>1703</ele>
        <time>2018-11-24T10:45:21Z</time>
      </trkpt>
      <trkpt lat="42.8045" lon="0.73652">
        <ele>1702.2</ele>
        <time>2018-11-24T10:45:22Z</time>
      </trkpt>
      <trkpt lat="42.80453" lon="0.7365">
        <ele>1701.3</ele>
        <time>2018-11-24T10:45:23Z</time>
      </trkpt>
      <trkpt lat="42.80455" lon="0.73647">
        <ele>1700.5</ele>
        <time>2018-11-24T10:45:24Z</time>
      </trkpt>
      <trkpt lat="42.80456" lon="0.73645">
        <ele>1700.1</ele>
        <time>2018-11-24T10:45:25Z</time>
      </trkpt>
      <trkpt lat="42.80458" lon="0.73643">
        <ele>1699.4</ele>
        <time>2018-11-24T10:45:26Z</time>
      </trkpt>
      <trkpt lat="42.8046" lon="0.7364">
        <ele>1698.9</ele>
        <time>2018-11-24T10:45:27Z</time>
      </trkpt>
      <trkpt lat="42.80462" lon="0.73638">
        <ele>1698.4</ele>
        <time>2018-11-24T10:45:28Z</time>
      </trkpt>
      <trkpt lat="42.80464" lon="0.73635">
        <ele>1697.8</ele>
        <time>2018-11-24T10:45:29Z</time>
      </trkpt>
      <trkpt lat="42.80466" lon="0.73633">
        <ele>1697.5</ele>
        <time>2018-11-24T10:45:30Z</time>
      </trkpt>
      <trkpt lat="42.80467" lon="0.7363">
        <ele>1697</ele>
        <time>2018-11-24T10:45:31Z</time>
      </trkpt>
      <trkpt lat="42.8047" lon="0.73626">
        <ele>1696.4</ele>
        <time>2018-11-24T10:45:33Z</time>
      </trkpt>
      <trkpt lat="42.80472" lon="0.73623">
        <ele>1695.8</ele>
        <time>2018-11-24T10:45:34Z</time>
      </trkpt>
      <trkpt lat="42.80474" lon="0.73619">
        <ele>1694.9</ele>
        <time>2018-11-24T10:45:35Z</time>
      </trkpt>
      <trkpt lat="42.80476" lon="0.73617">
        <ele>1694</ele>
        <time>2018-11-24T10:45:36Z</time>
      </trkpt>
      <trkpt lat="42.80477" lon="0.73614">
        <ele>1693.2</ele>
        <time>2018-11-24T10:45:37Z</time>
      </trkpt>
      <trkpt lat="42.8048" lon="0.7361">
        <ele>1691.8</ele>
        <time>2018-11-24T10:45:39Z</time>
      </trkpt>
      <trkpt lat="42.80482" lon="0.73608">
        <ele>1690.8</ele>
        <time>2018-11-24T10:45:40Z</time>
      </trkpt>
      <trkpt lat="42.80483" lon="0.73605">
        <ele>1690</ele>
        <time>2018-11-24T10:45:41Z</time>
      </trkpt>
      <trkpt lat="42.80484" lon="0.73602">
        <ele>1689.3</ele>
        <time>2018-11-24T10:45:42Z</time>
      </trkpt>
      <trkpt lat="42.80485" lon="0.73599">
        <ele>1688.8</ele>
        <time>2018-11-24T10:45:43Z</time>
      </trkpt>
      <trkpt lat="42.80487" lon="0.73594">
        <ele>1687.7</ele>
        <time>2018-11-24T10:45:44Z</time>
      </trkpt>
      <trkpt lat="42.80488" lon="0.73591">
        <ele>1687.5</ele>
        <time>2018-11-24T10:45:45Z</time>
      </trkpt>
      <trkpt lat="42.80488" lon="0.73587">
        <ele>1687</ele>
        <time>2018-11-24T10:45:47Z</time>
      </trkpt>
      <trkpt lat="42.80488" lon="0.73581">
        <ele>1686.6</ele>
        <time>2018-11-24T10:45:48Z</time>
      </trkpt>
      <trkpt lat="42.80489" lon="0.73578">
        <ele>1686.3</ele>
        <time>2018-11-24T10:45:49Z</time>
      </trkpt>
      <trkpt lat="42.80489" lon="0.73575">
        <ele>1686.1</ele>
        <time>2018-11-24T10:45:50Z</time>
      </trkpt>
      <trkpt lat="42.8049" lon="0.73572">
        <ele>1685.9</ele>
        <time>2018-11-24T10:45:51Z</time>
      </trkpt>
      <trkpt lat="42.8049" lon="0.73569">
        <ele>1685.6</ele>
        <time>2018-11-24T10:45:52Z</time>
      </trkpt>
      <trkpt lat="42.80492" lon="0.73567">
        <ele>1685.2</ele>
        <time>2018-11-24T10:45:53Z</time>
      </trkpt>
      <trkpt lat="42.80494" lon="0.73565">
        <ele>1684.9</ele>
        <time>2018-11-24T10:45:54Z</time>
      </trkpt>
      <trkpt lat="42.80497" lon="0.73567">
        <ele>1684.8</ele>
        <time>2018-11-24T10:45:55Z</time>
      </trkpt>
      <trkpt lat="42.80499" lon="0.7357">
        <ele>1684.8</ele>
        <time>2018-11-24T10:45:56Z</time>
      </trkpt>
      <trkpt lat="42.805" lon="0.73572">
        <ele>1684.6</ele>
        <time>2018-11-24T10:45:57Z</time>
      </trkpt>
      <trkpt lat="42.80502" lon="0.73576">
        <ele>1683.6</ele>
        <time>2018-11-24T10:45:58Z</time>
      </trkpt>
      <trkpt lat="42.80503" lon="0.73579">
        <ele>1682.8</ele>
        <time>2018-11-24T10:46:00Z</time>
      </trkpt>
      <trkpt lat="42.80504" lon="0.73584">
        <ele>1682.2</ele>
        <time>2018-11-24T10:46:01Z</time>
      </trkpt>
      <trkpt lat="42.80505" lon="0.73588">
        <ele>1681.5</ele>
        <time>2018-11-24T10:46:02Z</time>
      </trkpt>
      <trkpt lat="42.80505" lon="0.73592">
        <ele>1681.7</ele>
        <time>2018-11-24T10:46:03Z</time>
      </trkpt>
      <trkpt lat="42.80504" lon="0.73595">
        <ele>1682</ele>
        <time>2018-11-24T10:46:04Z</time>
      </trkpt>
      <trkpt lat="42.80505" lon="0.73599">
        <ele>1681.6</ele>
        <time>2018-11-24T10:46:05Z</time>
      </trkpt>
      <trkpt lat="42.80505" lon="0.73602">
        <ele>1681.2</ele>
        <time>2018-11-24T10:46:06Z</time>
      </trkpt>
      <trkpt lat="42.80506" lon="0.73605">
        <ele>1680.9</ele>
        <time>2018-11-24T10:46:07Z</time>
      </trkpt>
      <trkpt lat="42.80506" lon="0.73608">
        <ele>1680.6</ele>
        <time>2018-11-24T10:46:08Z</time>
      </trkpt>
      <trkpt lat="42.80506" lon="0.73612">
        <ele>1680.9</ele>
        <time>2018-11-24T10:46:09Z</time>
      </trkpt>
      <trkpt lat="42.80505" lon="0.73615">
        <ele>1681.1</ele>
        <time>2018-11-24T10:46:10Z</time>
      </trkpt>
      <trkpt lat="42.80505" lon="0.73619">
        <ele>1681</ele>
        <time>2018-11-24T10:46:11Z</time>
      </trkpt>
      <trkpt lat="42.80505" lon="0.73622">
        <ele>1680.9</ele>
        <time>2018-11-24T10:46:12Z</time>
      </trkpt>
      <trkpt lat="42.80506" lon="0.73627">
        <ele>1680.3</ele>
        <time>2018-11-24T10:46:14Z</time>
      </trkpt>
      <trkpt lat="42.80508" lon="0.7363">
        <ele>1679.4</ele>
        <time>2018-11-24T10:46:15Z</time>
      </trkpt>
      <trkpt lat="42.80511" lon="0.73634">
        <ele>1678.4</ele>
        <time>2018-11-24T10:46:17Z</time>
      </trkpt>
      <trkpt lat="42.80513" lon="0.73636">
        <ele>1677.7</ele>
        <time>2018-11-24T10:46:18Z</time>
      </trkpt>
      <trkpt lat="42.80515" lon="0.73637">
        <ele>1677</ele>
        <time>2018-11-24T10:46:19Z</time>
      </trkpt>
      <trkpt lat="42.80518" lon="0.73638">
        <ele>1676.3</ele>
        <time>2018-11-24T10:46:20Z</time>
      </trkpt>
      <trkpt lat="42.8052" lon="0.73639">
        <ele>1675.5</ele>
        <time>2018-11-24T10:46:21Z</time>
      </trkpt>
      <trkpt lat="42.80523" lon="0.73639">
        <ele>1674.8</ele>
        <time>2018-11-24T10:46:22Z</time>
      </trkpt>
      <trkpt lat="42.80525" lon="0.73639">
        <ele>1673.9</ele>
        <time>2018-11-24T10:46:23Z</time>
      </trkpt>
      <trkpt lat="42.80527" lon="0.73641">
        <ele>1673.6</ele>
        <time>2018-11-24T10:46:24Z</time>
      </trkpt>
      <trkpt lat="42.80529" lon="0.73642">
        <ele>1673.3</ele>
        <time>2018-11-24T10:46:25Z</time>
      </trkpt>
      <trkpt lat="42.80532" lon="0.73644">
        <ele>1672.8</ele>
        <time>2018-11-24T10:46:26Z</time>
      </trkpt>
      <trkpt lat="42.80536" lon="0.73646">
        <ele>1671.9</ele>
        <time>2018-11-24T10:46:28Z</time>
      </trkpt>
      <trkpt lat="42.8054" lon="0.73647">
        <ele>1671</ele>
        <time>2018-11-24T10:46:29Z</time>
      </trkpt>
      <trkpt lat="42.80544" lon="0.73648">
        <ele>1670.1</ele>
        <time>2018-11-24T10:46:31Z</time>
      </trkpt>
      <trkpt lat="42.80547" lon="0.73649">
        <ele>1669.4</ele>
        <time>2018-11-24T10:46:32Z</time>
      </trkpt>
      <trkpt lat="42.80549" lon="0.73649">
        <ele>1668.8</ele>
        <time>2018-11-24T10:46:33Z</time>
      </trkpt>
      <trkpt lat="42.80552" lon="0.7365">
        <ele>1668.2</ele>
        <time>2018-11-24T10:46:34Z</time>
      </trkpt>
      <trkpt lat="42.80554" lon="0.73651">
        <ele>1667.6</ele>
        <time>2018-11-24T10:46:35Z</time>
      </trkpt>
      <trkpt lat="42.80557" lon="0.73653">
        <ele>1667.2</ele>
        <time>2018-11-24T10:46:36Z</time>
      </trkpt>
      <trkpt lat="42.80559" lon="0.73654">
        <ele>1667</ele>
        <time>2018-11-24T10:46:37Z</time>
      </trkpt>
      <trkpt lat="42.80562" lon="0.73654">
        <ele>1666.4</ele>
        <time>2018-11-24T10:46:38Z</time>
      </trkpt>
      <trkpt lat="42.80565" lon="0.73654">
        <ele>1665.8</ele>
        <time>2018-11-24T10:46:40Z</time>
      </trkpt>
      <trkpt lat="42.80568" lon="0.73654">
        <ele>1665</ele>
        <time>2018-11-24T10:46:41Z</time>
      </trkpt>
      <trkpt lat="42.8057" lon="0.73653">
        <ele>1664.5</ele>
        <time>2018-11-24T10:46:42Z</time>
      </trkpt>
      <trkpt lat="42.80574" lon="0.73652">
        <ele>1663.4</ele>
        <time>2018-11-24T10:46:43Z</time>
      </trkpt>
      <trkpt lat="42.80576" lon="0.7365">
        <ele>1662.7</ele>
        <time>2018-11-24T10:46:44Z</time>
      </trkpt>
      <trkpt lat="42.80578" lon="0.73649">
        <ele>1661.9</ele>
        <time>2018-11-24T10:46:45Z</time>
      </trkpt>
      <trkpt lat="42.8058" lon="0.73647">
        <ele>1661.2</ele>
        <time>2018-11-24T10:46:46Z</time>
      </trkpt>
      <trkpt lat="42.80582" lon="0.73645">
        <ele>1660.4</ele>
        <time>2018-11-24T10:46:47Z</time>
      </trkpt>
      <trkpt lat="42.80584" lon="0.73643">
        <ele>1659.6</ele>
        <time>2018-11-24T10:46:48Z</time>
      </trkpt>
      <trkpt lat="42.80586" lon="0.73641">
        <ele>1658.8</ele>
        <time>2018-11-24T10:46:49Z</time>
      </trkpt>
      <trkpt lat="42.80588" lon="0.73639">
        <ele>1658.1</ele>
        <time>2018-11-24T10:46:50Z</time>
      </trkpt>
      <trkpt lat="42.80591" lon="0.73635">
        <ele>1657.1</ele>
        <time>2018-11-24T10:46:52Z</time>
      </trkpt>
      <trkpt lat="42.80594" lon="0.73633">
        <ele>1656.5</ele>
        <time>2018-11-24T10:46:53Z</time>
      </trkpt>
      <trkpt lat="42.80596" lon="0.73631">
        <ele>1655.8</ele>
        <time>2018-11-24T10:46:54Z</time>
      </trkpt>
      <trkpt lat="42.80599" lon="0.7363">
        <ele>1655</ele>
        <time>2018-11-24T10:46:55Z</time>
      </trkpt>
      <trkpt lat="42.80601" lon="0.73628">
        <ele>1654.5</ele>
        <time>2018-11-24T10:46:56Z</time>
      </trkpt>
      <trkpt lat="42.80605" lon="0.73627">
        <ele>1653.6</ele>
        <time>2018-11-24T10:46:58Z</time>
      </trkpt>
      <trkpt lat="42.80609" lon="0.73628">
        <ele>1652.8</ele>
        <time>2018-11-24T10:46:59Z</time>
      </trkpt>
      <trkpt lat="42.80613" lon="0.7363">
        <ele>1651.7</ele>
        <time>2018-11-24T10:47:01Z</time>
      </trkpt>
      <trkpt lat="42.80615" lon="0.73632">
        <ele>1651.1</ele>
        <time>2018-11-24T10:47:02Z</time>
      </trkpt>
      <trkpt lat="42.80617" lon="0.73634">
        <ele>1650.5</ele>
        <time>2018-11-24T10:47:03Z</time>
      </trkpt>
      <trkpt lat="42.80619" lon="0.73637">
        <ele>1650.1</ele>
        <time>2018-11-24T10:47:04Z</time>
      </trkpt>
      <trkpt lat="42.80621" lon="0.73639">
        <ele>1649.4</ele>
        <time>2018-11-24T10:47:05Z</time>
      </trkpt>
      <trkpt lat="42.80623" lon="0.73641">
        <ele>1648.9</ele>
        <time>2018-11-24T10:47:06Z</time>
      </trkpt>
      <trkpt lat="42.80625" lon="0.73642">
        <ele>1648.4</ele>
        <time>2018-11-24T10:47:07Z</time>
      </trkpt>
      <trkpt lat="42.80627" lon="0.73644">
        <ele>1647.9</ele>
        <time>2018-11-24T10:47:08Z</time>
      </trkpt>
      <trkpt lat="42.80629" lon="0.73646">
        <ele>1647.3</ele>
        <time>2018-11-24T10:47:09Z</time>
      </trkpt>
      <trkpt lat="42.80631" lon="0.73649">
        <ele>1646.8</ele>
        <time>2018-11-24T10:47:10Z</time>
      </trkpt>
      <trkpt lat="42.80633" lon="0.73651">
        <ele>1646.3</ele>
        <time>2018-11-24T10:47:11Z</time>
      </trkpt>
      <trkpt lat="42.80635" lon="0.73654">
        <ele>1646</ele>
        <time>2018-11-24T10:47:12Z</time>
      </trkpt>
      <trkpt lat="42.80637" lon="0.73656">
        <ele>1645.6</ele>
        <time>2018-11-24T10:47:13Z</time>
      </trkpt>
      <trkpt lat="42.80639" lon="0.73658">
        <ele>1645</ele>
        <time>2018-11-24T10:47:14Z</time>
      </trkpt>
      <trkpt lat="42.80641" lon="0.73659">
        <ele>1645</ele>
        <time>2018-11-24T10:47:15Z</time>
      </trkpt>
      <trkpt lat="42.80644" lon="0.7366">
        <ele>1644.9</ele>
        <time>2018-11-24T10:47:16Z</time>
      </trkpt>
      <trkpt lat="42.80646" lon="0.7366">
        <ele>1644.9</ele>
        <time>2018-11-24T10:47:17Z</time>
      </trkpt>
      <trkpt lat="42.8065" lon="0.73661">
        <ele>1644.7</ele>
        <time>2018-11-24T10:47:19Z</time>
      </trkpt>
      <trkpt lat="42.80653" lon="0.7366">
        <ele>1644.5</ele>
        <time>2018-11-24T10:47:20Z</time>
      </trkpt>
      <trkpt lat="42.80656" lon="0.73656">
        <ele>1643.5</ele>
        <time>2018-11-24T10:47:22Z</time>
      </trkpt>
      <trkpt lat="42.80659" lon="0.73651">
        <ele>1642.4</ele>
        <time>2018-11-24T10:47:24Z</time>
      </trkpt>
      <trkpt lat="42.80662" lon="0.73647">
        <ele>1641.3</ele>
        <time>2018-11-24T10:47:25Z</time>
      </trkpt>
      <trkpt lat="42.80663" lon="0.73645">
        <ele>1640.8</ele>
        <time>2018-11-24T10:47:26Z</time>
      </trkpt>
      <trkpt lat="42.80663" lon="0.73642">
        <ele>1640.2</ele>
        <time>2018-11-24T10:47:27Z</time>
      </trkpt>
      <trkpt lat="42.80663" lon="0.73638">
        <ele>1639.3</ele>
        <time>2018-11-24T10:47:28Z</time>
      </trkpt>
      <trkpt lat="42.80663" lon="0.73632">
        <ele>1638</ele>
        <time>2018-11-24T10:47:30Z</time>
      </trkpt>
      <trkpt lat="42.80663" lon="0.73626">
        <ele>1636.6</ele>
        <time>2018-11-24T10:47:32Z</time>
      </trkpt>
      <trkpt lat="42.80663" lon="0.73622">
        <ele>1635.7</ele>
        <time>2018-11-24T10:47:33Z</time>
      </trkpt>
      <trkpt lat="42.80663" lon="0.73618">
        <ele>1634.8</ele>
        <time>2018-11-24T10:47:34Z</time>
      </trkpt>
      <trkpt lat="42.80662" lon="0.73615">
        <ele>1634.5</ele>
        <time>2018-11-24T10:47:35Z</time>
      </trkpt>
      <trkpt lat="42.8066" lon="0.73611">
        <ele>1634.1</ele>
        <time>2018-11-24T10:47:36Z</time>
      </trkpt>
      <trkpt lat="42.80659" lon="0.73607">
        <ele>1633.7</ele>
        <time>2018-11-24T10:47:38Z</time>
      </trkpt>
      <trkpt lat="42.80658" lon="0.73603">
        <ele>1633.4</ele>
        <time>2018-11-24T10:47:39Z</time>
      </trkpt>
      <trkpt lat="42.80658" lon="0.736">
        <ele>1633.1</ele>
        <time>2018-11-24T10:47:40Z</time>
      </trkpt>
      <trkpt lat="42.80657" lon="0.73597">
        <ele>1632.7</ele>
        <time>2018-11-24T10:47:41Z</time>
      </trkpt>
      <trkpt lat="42.80657" lon="0.73594">
        <ele>1632.1</ele>
        <time>2018-11-24T10:47:42Z</time>
      </trkpt>
      <trkpt lat="42.80657" lon="0.7359">
        <ele>1631.4</ele>
        <time>2018-11-24T10:47:43Z</time>
      </trkpt>
      <trkpt lat="42.80657" lon="0.73587">
        <ele>1631</ele>
        <time>2018-11-24T10:47:44Z</time>
      </trkpt>
      <trkpt lat="42.80656" lon="0.73583">
        <ele>1630.6</ele>
        <time>2018-11-24T10:47:45Z</time>
      </trkpt>
      <trkpt lat="42.80656" lon="0.73579">
        <ele>1630.2</ele>
        <time>2018-11-24T10:47:46Z</time>
      </trkpt>
      <trkpt lat="42.80655" lon="0.73575">
        <ele>1629.9</ele>
        <time>2018-11-24T10:47:47Z</time>
      </trkpt>
      <trkpt lat="42.80655" lon="0.73572">
        <ele>1629.4</ele>
        <time>2018-11-24T10:47:48Z</time>
      </trkpt>
      <trkpt lat="42.80655" lon="0.73568">
        <ele>1628.9</ele>
        <time>2018-11-24T10:47:49Z</time>
      </trkpt>
      <trkpt lat="42.80655" lon="0.73564">
        <ele>1628.3</ele>
        <time>2018-11-24T10:47:50Z</time>
      </trkpt>
      <trkpt lat="42.80655" lon="0.7356">
        <ele>1627.8</ele>
        <time>2018-11-24T10:47:52Z</time>
      </trkpt>
      <trkpt lat="42.80655" lon="0.73557">
        <ele>1627.3</ele>
        <time>2018-11-24T10:47:53Z</time>
      </trkpt>
      <trkpt lat="42.80655" lon="0.73553">
        <ele>1626.7</ele>
        <time>2018-11-24T10:47:54Z</time>
      </trkpt>
      <trkpt lat="42.80655" lon="0.73549">
        <ele>1626.3</ele>
        <time>2018-11-24T10:47:55Z</time>
      </trkpt>
      <trkpt lat="42.80654" lon="0.73545">
        <ele>1625.9</ele>
        <time>2018-11-24T10:47:56Z</time>
      </trkpt>
      <trkpt lat="42.80655" lon="0.73541">
        <ele>1625</ele>
        <time>2018-11-24T10:47:57Z</time>
      </trkpt>
      <trkpt lat="42.80655" lon="0.73536">
        <ele>1624.1</ele>
        <time>2018-11-24T10:47:59Z</time>
      </trkpt>
      <trkpt lat="42.80655" lon="0.73532">
        <ele>1623.8</ele>
        <time>2018-11-24T10:48:00Z</time>
      </trkpt>
      <trkpt lat="42.80654" lon="0.73527">
        <ele>1623.3</ele>
        <time>2018-11-24T10:48:01Z</time>
      </trkpt>
      <trkpt lat="42.80654" lon="0.73523">
        <ele>1622.7</ele>
        <time>2018-11-24T10:48:03Z</time>
      </trkpt>
      <trkpt lat="42.80654" lon="0.73518">
        <ele>1622.1</ele>
        <time>2018-11-24T10:48:04Z</time>
      </trkpt>
      <trkpt lat="42.80655" lon="0.73515">
        <ele>1621.4</ele>
        <time>2018-11-24T10:48:05Z</time>
      </trkpt>
      <trkpt lat="42.80655" lon="0.73511">
        <ele>1620.7</ele>
        <time>2018-11-24T10:48:06Z</time>
      </trkpt>
      <trkpt lat="42.80655" lon="0.73507">
        <ele>1620.1</ele>
        <time>2018-11-24T10:48:07Z</time>
      </trkpt>
      <trkpt lat="42.80655" lon="0.73503">
        <ele>1619.6</ele>
        <time>2018-11-24T10:48:09Z</time>
      </trkpt>
      <trkpt lat="42.80655" lon="0.73499">
        <ele>1619</ele>
        <time>2018-11-24T10:48:10Z</time>
      </trkpt>
      <trkpt lat="42.80655" lon="0.73495">
        <ele>1618.5</ele>
        <time>2018-11-24T10:48:11Z</time>
      </trkpt>
      <trkpt lat="42.80654" lon="0.73491">
        <ele>1618.4</ele>
        <time>2018-11-24T10:48:12Z</time>
      </trkpt>
      <trkpt lat="42.80653" lon="0.73487">
        <ele>1618.3</ele>
        <time>2018-11-24T10:48:13Z</time>
      </trkpt>
      <trkpt lat="42.80653" lon="0.73484">
        <ele>1618.1</ele>
        <time>2018-11-24T10:48:14Z</time>
      </trkpt>
      <trkpt lat="42.80652" lon="0.7348">
        <ele>1617.8</ele>
        <time>2018-11-24T10:48:15Z</time>
      </trkpt>
      <trkpt lat="42.8065" lon="0.73475">
        <ele>1617.9</ele>
        <time>2018-11-24T10:48:17Z</time>
      </trkpt>
      <trkpt lat="42.8065" lon="0.7347">
        <ele>1617.1</ele>
        <time>2018-11-24T10:48:19Z</time>
      </trkpt>
      <trkpt lat="42.8065" lon="0.73467">
        <ele>1616.7</ele>
        <time>2018-11-24T10:48:20Z</time>
      </trkpt>
      <trkpt lat="42.80649" lon="0.73463">
        <ele>1616.4</ele>
        <time>2018-11-24T10:48:21Z</time>
      </trkpt>
      <trkpt lat="42.80649" lon="0.73459">
        <ele>1615.8</ele>
        <time>2018-11-24T10:48:22Z</time>
      </trkpt>
      <trkpt lat="42.80649" lon="0.73455">
        <ele>1615.2</ele>
        <time>2018-11-24T10:48:23Z</time>
      </trkpt>
      <trkpt lat="42.80647" lon="0.73451">
        <ele>1615</ele>
        <time>2018-11-24T10:48:24Z</time>
      </trkpt>
      <trkpt lat="42.80645" lon="0.73447">
        <ele>1615</ele>
        <time>2018-11-24T10:48:26Z</time>
      </trkpt>
      <trkpt lat="42.80643" lon="0.73443">
        <ele>1614.7</ele>
        <time>2018-11-24T10:48:27Z</time>
      </trkpt>
      <trkpt lat="42.80642" lon="0.73439">
        <ele>1614.3</ele>
        <time>2018-11-24T10:48:29Z</time>
      </trkpt>
      <trkpt lat="42.80641" lon="0.73435">
        <ele>1613.9</ele>
        <time>2018-11-24T10:48:30Z</time>
      </trkpt>
      <trkpt lat="42.8064" lon="0.73431">
        <ele>1613.4</ele>
        <time>2018-11-24T10:48:31Z</time>
      </trkpt>
      <trkpt lat="42.80639" lon="0.73427">
        <ele>1612.9</ele>
        <time>2018-11-24T10:48:32Z</time>
      </trkpt>
      <trkpt lat="42.80638" lon="0.73424">
        <ele>1612.6</ele>
        <time>2018-11-24T10:48:33Z</time>
      </trkpt>
      <trkpt lat="42.80636" lon="0.7342">
        <ele>1612</ele>
        <time>2018-11-24T10:48:35Z</time>
      </trkpt>
      <trkpt lat="42.80634" lon="0.73417">
        <ele>1611.8</ele>
        <time>2018-11-24T10:48:36Z</time>
      </trkpt>
      <trkpt lat="42.80632" lon="0.73414">
        <ele>1611.6</ele>
        <time>2018-11-24T10:48:37Z</time>
      </trkpt>
      <trkpt lat="42.8063" lon="0.73412">
        <ele>1611.5</ele>
        <time>2018-11-24T10:48:38Z</time>
      </trkpt>
      <trkpt lat="42.80627" lon="0.73409">
        <ele>1611.7</ele>
        <time>2018-11-24T10:48:40Z</time>
      </trkpt>
      <trkpt lat="42.80625" lon="0.73407">
        <ele>1611.9</ele>
        <time>2018-11-24T10:48:41Z</time>
      </trkpt>
      <trkpt lat="42.80622" lon="0.73405">
        <ele>1612.2</ele>
        <time>2018-11-24T10:48:42Z</time>
      </trkpt>
      <trkpt lat="42.80621" lon="0.73403">
        <ele>1612.3</ele>
        <time>2018-11-24T10:48:43Z</time>
      </trkpt>
      <trkpt lat="42.80619" lon="0.734">
        <ele>1612.4</ele>
        <time>2018-11-24T10:48:44Z</time>
      </trkpt>
      <trkpt lat="42.8062" lon="0.73396">
        <ele>1611.9</ele>
        <time>2018-11-24T10:48:45Z</time>
      </trkpt>
      <trkpt lat="42.80623" lon="0.73394">
        <ele>1610.7</ele>
        <time>2018-11-24T10:48:46Z</time>
      </trkpt>
      <trkpt lat="42.80625" lon="0.73395">
        <ele>1610.3</ele>
        <time>2018-11-24T10:48:47Z</time>
      </trkpt>
      <trkpt lat="42.80628" lon="0.73395">
        <ele>1609.5</ele>
        <time>2018-11-24T10:48:48Z</time>
      </trkpt>
      <trkpt lat="42.8063" lon="0.73394">
        <ele>1608.8</ele>
        <time>2018-11-24T10:48:49Z</time>
      </trkpt>
      <trkpt lat="42.80632" lon="0.73393">
        <ele>1608</ele>
        <time>2018-11-24T10:48:50Z</time>
      </trkpt>
      <trkpt lat="42.80635" lon="0.73393">
        <ele>1607.2</ele>
        <time>2018-11-24T10:48:51Z</time>
      </trkpt>
      <trkpt lat="42.80637" lon="0.73392">
        <ele>1606.3</ele>
        <time>2018-11-24T10:48:52Z</time>
      </trkpt>
      <trkpt lat="42.80641" lon="0.73392">
        <ele>1605.3</ele>
        <time>2018-11-24T10:48:54Z</time>
      </trkpt>
      <trkpt lat="42.80644" lon="0.73392">
        <ele>1604.7</ele>
        <time>2018-11-24T10:48:55Z</time>
      </trkpt>
      <trkpt lat="42.80646" lon="0.73392">
        <ele>1604.1</ele>
        <time>2018-11-24T10:48:56Z</time>
      </trkpt>
      <trkpt lat="42.80649" lon="0.73393">
        <ele>1603.8</ele>
        <time>2018-11-24T10:48:57Z</time>
      </trkpt>
      <trkpt lat="42.80651" lon="0.73393">
        <ele>1603.3</ele>
        <time>2018-11-24T10:48:58Z</time>
      </trkpt>
      <trkpt lat="42.80654" lon="0.73394">
        <ele>1602.8</ele>
        <time>2018-11-24T10:48:59Z</time>
      </trkpt>
      <trkpt lat="42.80657" lon="0.73395">
        <ele>1602.5</ele>
        <time>2018-11-24T10:49:00Z</time>
      </trkpt>
      <trkpt lat="42.8066" lon="0.73396">
        <ele>1601.9</ele>
        <time>2018-11-24T10:49:01Z</time>
      </trkpt>
      <trkpt lat="42.80663" lon="0.73396">
        <ele>1601.3</ele>
        <time>2018-11-24T10:49:03Z</time>
      </trkpt>
      <trkpt lat="42.80666" lon="0.73396">
        <ele>1600.6</ele>
        <time>2018-11-24T10:49:04Z</time>
      </trkpt>
      <trkpt lat="42.80669" lon="0.73395">
        <ele>1599.8</ele>
        <time>2018-11-24T10:49:05Z</time>
      </trkpt>
      <trkpt lat="42.80673" lon="0.73396">
        <ele>1598.9</ele>
        <time>2018-11-24T10:49:07Z</time>
      </trkpt>
      <trkpt lat="42.80677" lon="0.73396">
        <ele>1597.7</ele>
        <time>2018-11-24T10:49:08Z</time>
      </trkpt>
      <trkpt lat="42.80679" lon="0.73397">
        <ele>1597.3</ele>
        <time>2018-11-24T10:49:09Z</time>
      </trkpt>
      <trkpt lat="42.80682" lon="0.73397">
        <ele>1596.6</ele>
        <time>2018-11-24T10:49:10Z</time>
      </trkpt>
      <trkpt lat="42.80684" lon="0.73397">
        <ele>1596</ele>
        <time>2018-11-24T10:49:11Z</time>
      </trkpt>
      <trkpt lat="42.80687" lon="0.73396">
        <ele>1595</ele>
        <time>2018-11-24T10:49:12Z</time>
      </trkpt>
      <trkpt lat="42.8069" lon="0.73396">
        <ele>1594.1</ele>
        <time>2018-11-24T10:49:13Z</time>
      </trkpt>
      <trkpt lat="42.80692" lon="0.73395">
        <ele>1593.2</ele>
        <time>2018-11-24T10:49:14Z</time>
      </trkpt>
      <trkpt lat="42.80695" lon="0.73395">
        <ele>1592.5</ele>
        <time>2018-11-24T10:49:16Z</time>
      </trkpt>
      <trkpt lat="42.80698" lon="0.73395">
        <ele>1591.9</ele>
        <time>2018-11-24T10:49:17Z</time>
      </trkpt>
      <trkpt lat="42.80701" lon="0.73395">
        <ele>1591.3</ele>
        <time>2018-11-24T10:49:18Z</time>
      </trkpt>
      <trkpt lat="42.80703" lon="0.73394">
        <ele>1590.8</ele>
        <time>2018-11-24T10:49:19Z</time>
      </trkpt>
      <trkpt lat="42.80707" lon="0.73393">
        <ele>1589.7</ele>
        <time>2018-11-24T10:49:20Z</time>
      </trkpt>
      <trkpt lat="42.8071" lon="0.73392">
        <ele>1588.9</ele>
        <time>2018-11-24T10:49:22Z</time>
      </trkpt>
      <trkpt lat="42.80713" lon="0.73391">
        <ele>1588.1</ele>
        <time>2018-11-24T10:49:23Z</time>
      </trkpt>
      <trkpt lat="42.80717" lon="0.73389">
        <ele>1587</ele>
        <time>2018-11-24T10:49:25Z</time>
      </trkpt>
      <trkpt lat="42.80721" lon="0.73387">
        <ele>1585.8</ele>
        <time>2018-11-24T10:49:26Z</time>
      </trkpt>
      <trkpt lat="42.80724" lon="0.73386">
        <ele>1585</ele>
        <time>2018-11-24T10:49:27Z</time>
      </trkpt>
      <trkpt lat="42.80726" lon="0.73385">
        <ele>1584.1</ele>
        <time>2018-11-24T10:49:28Z</time>
      </trkpt>
      <trkpt lat="42.80729" lon="0.73385">
        <ele>1583.5</ele>
        <time>2018-11-24T10:49:29Z</time>
      </trkpt>
      <trkpt lat="42.80731" lon="0.73384">
        <ele>1582.8</ele>
        <time>2018-11-24T10:49:30Z</time>
      </trkpt>
      <trkpt lat="42.80733" lon="0.73384">
        <ele>1582.4</ele>
        <time>2018-11-24T10:49:31Z</time>
      </trkpt>
      <trkpt lat="42.80735" lon="0.73382">
        <ele>1581.4</ele>
        <time>2018-11-24T10:49:32Z</time>
      </trkpt>
      <trkpt lat="42.80736" lon="0.73379">
        <ele>1580.5</ele>
        <time>2018-11-24T10:49:33Z</time>
      </trkpt>
      <trkpt lat="42.80736" lon="0.73376">
        <ele>1579.6</ele>
        <time>2018-11-24T10:49:34Z</time>
      </trkpt>
      <trkpt lat="42.80736" lon="0.73373">
        <ele>1578.7</ele>
        <time>2018-11-24T10:49:35Z</time>
      </trkpt>
      <trkpt lat="42.80735" lon="0.73369">
        <ele>1577.8</ele>
        <time>2018-11-24T10:49:36Z</time>
      </trkpt>
      <trkpt lat="42.80734" lon="0.73366">
        <ele>1577.2</ele>
        <time>2018-11-24T10:49:37Z</time>
      </trkpt>
      <trkpt lat="42.80733" lon="0.73364">
        <ele>1576.8</ele>
        <time>2018-11-24T10:49:38Z</time>
      </trkpt>
      <trkpt lat="42.80731" lon="0.73361">
        <ele>1576.4</ele>
        <time>2018-11-24T10:49:39Z</time>
      </trkpt>
      <trkpt lat="42.8073" lon="0.73358">
        <ele>1575.7</ele>
        <time>2018-11-24T10:49:40Z</time>
      </trkpt>
      <trkpt lat="42.80729" lon="0.73354">
        <ele>1574.9</ele>
        <time>2018-11-24T10:49:41Z</time>
      </trkpt>
      <trkpt lat="42.80728" lon="0.73351">
        <ele>1574.2</ele>
        <time>2018-11-24T10:49:42Z</time>
      </trkpt>
      <trkpt lat="42.80727" lon="0.73348">
        <ele>1573.7</ele>
        <time>2018-11-24T10:49:43Z</time>
      </trkpt>
      <trkpt lat="42.80726" lon="0.73345">
        <ele>1573.1</ele>
        <time>2018-11-24T10:49:44Z</time>
      </trkpt>
      <trkpt lat="42.80724" lon="0.73342">
        <ele>1572.7</ele>
        <time>2018-11-24T10:49:45Z</time>
      </trkpt>
      <trkpt lat="42.80721" lon="0.73338">
        <ele>1572.5</ele>
        <time>2018-11-24T10:49:47Z</time>
      </trkpt>
      <trkpt lat="42.80719" lon="0.73336">
        <ele>1572.4</ele>
        <time>2018-11-24T10:49:48Z</time>
      </trkpt>
      <trkpt lat="42.80717" lon="0.73334">
        <ele>1572.3</ele>
        <time>2018-11-24T10:49:49Z</time>
      </trkpt>
      <trkpt lat="42.80715" lon="0.73329">
        <ele>1571.5</ele>
        <time>2018-11-24T10:49:51Z</time>
      </trkpt>
      <trkpt lat="42.80713" lon="0.73324">
        <ele>1571</ele>
        <time>2018-11-24T10:49:52Z</time>
      </trkpt>
      <trkpt lat="42.80713" lon="0.73321">
        <ele>1570.1</ele>
        <time>2018-11-24T10:49:53Z</time>
      </trkpt>
      <trkpt lat="42.80713" lon="0.73317">
        <ele>1569.3</ele>
        <time>2018-11-24T10:49:54Z</time>
      </trkpt>
      <trkpt lat="42.80715" lon="0.73316">
        <ele>1568.6</ele>
        <time>2018-11-24T10:49:55Z</time>
      </trkpt>
      <trkpt lat="42.80717" lon="0.73316">
        <ele>1568.1</ele>
        <time>2018-11-24T10:49:56Z</time>
      </trkpt>
      <trkpt lat="42.8072" lon="0.73317">
        <ele>1567.6</ele>
        <time>2018-11-24T10:49:57Z</time>
      </trkpt>
      <trkpt lat="42.80723" lon="0.73318">
        <ele>1567</ele>
        <time>2018-11-24T10:49:58Z</time>
      </trkpt>
      <trkpt lat="42.80725" lon="0.73319">
        <ele>1566.6</ele>
        <time>2018-11-24T10:49:59Z</time>
      </trkpt>
      <trkpt lat="42.80728" lon="0.73319">
        <ele>1565.6</ele>
        <time>2018-11-24T10:50:00Z</time>
      </trkpt>
      <trkpt lat="42.8073" lon="0.73318">
        <ele>1564.7</ele>
        <time>2018-11-24T10:50:01Z</time>
      </trkpt>
      <trkpt lat="42.80732" lon="0.73316">
        <ele>1563.6</ele>
        <time>2018-11-24T10:50:02Z</time>
      </trkpt>
      <trkpt lat="42.80736" lon="0.73314">
        <ele>1561.8</ele>
        <time>2018-11-24T10:50:04Z</time>
      </trkpt>
      <trkpt lat="42.80739" lon="0.73314">
        <ele>1560.9</ele>
        <time>2018-11-24T10:50:05Z</time>
      </trkpt>
      <trkpt lat="42.80741" lon="0.73313">
        <ele>1560.1</ele>
        <time>2018-11-24T10:50:06Z</time>
      </trkpt>
      <trkpt lat="42.80743" lon="0.73314">
        <ele>1559.7</ele>
        <time>2018-11-24T10:50:07Z</time>
      </trkpt>
      <trkpt lat="42.80746" lon="0.73315">
        <ele>1559.1</ele>
        <time>2018-11-24T10:50:08Z</time>
      </trkpt>
      <trkpt lat="42.80749" lon="0.73316">
        <ele>1558.4</ele>
        <time>2018-11-24T10:50:09Z</time>
      </trkpt>
      <trkpt lat="42.80753" lon="0.73316">
        <ele>1556.7</ele>
        <time>2018-11-24T10:50:11Z</time>
      </trkpt>
      <trkpt lat="42.80756" lon="0.73316">
        <ele>1555.4</ele>
        <time>2018-11-24T10:50:12Z</time>
      </trkpt>
      <trkpt lat="42.80759" lon="0.73318">
        <ele>1554.6</ele>
        <time>2018-11-24T10:50:13Z</time>
      </trkpt>
      <trkpt lat="42.80761" lon="0.73319">
        <ele>1554</ele>
        <time>2018-11-24T10:50:14Z</time>
      </trkpt>
      <trkpt lat="42.80763" lon="0.73321">
        <ele>1553.4</ele>
        <time>2018-11-24T10:50:15Z</time>
      </trkpt>
      <trkpt lat="42.80765" lon="0.73322">
        <ele>1552.9</ele>
        <time>2018-11-24T10:50:16Z</time>
      </trkpt>
      <trkpt lat="42.80769" lon="0.73324">
        <ele>1551.7</ele>
        <time>2018-11-24T10:50:18Z</time>
      </trkpt>
      <trkpt lat="42.80771" lon="0.73326">
        <ele>1551.4</ele>
        <time>2018-11-24T10:50:19Z</time>
      </trkpt>
      <trkpt lat="42.80774" lon="0.73328">
        <ele>1550.4</ele>
        <time>2018-11-24T10:50:20Z</time>
      </trkpt>
      <trkpt lat="42.80777" lon="0.7333">
        <ele>1549.6</ele>
        <time>2018-11-24T10:50:21Z</time>
      </trkpt>
      <trkpt lat="42.80779" lon="0.73331">
        <ele>1549</ele>
        <time>2018-11-24T10:50:22Z</time>
      </trkpt>
      <trkpt lat="42.80782" lon="0.73334">
        <ele>1548.9</ele>
        <time>2018-11-24T10:50:24Z</time>
      </trkpt>
      <trkpt lat="42.80785" lon="0.73336">
        <ele>1548.9</ele>
        <time>2018-11-24T10:50:25Z</time>
      </trkpt>
      <trkpt lat="42.80787" lon="0.73338">
        <ele>1548.7</ele>
        <time>2018-11-24T10:50:26Z</time>
      </trkpt>
      <trkpt lat="42.80789" lon="0.7334">
        <ele>1548.4</ele>
        <time>2018-11-24T10:50:27Z</time>
      </trkpt>
      <trkpt lat="42.80791" lon="0.73341">
        <ele>1548.3</ele>
        <time>2018-11-24T10:50:28Z</time>
      </trkpt>
      <trkpt lat="42.80794" lon="0.73343">
        <ele>1547.9</ele>
        <time>2018-11-24T10:50:29Z</time>
      </trkpt>
      <trkpt lat="42.80796" lon="0.73345">
        <ele>1547.6</ele>
        <time>2018-11-24T10:50:30Z</time>
      </trkpt>
      <trkpt lat="42.80799" lon="0.73347">
        <ele>1547.2</ele>
        <time>2018-11-24T10:50:31Z</time>
      </trkpt>
      <trkpt lat="42.80801" lon="0.73349">
        <ele>1546.8</ele>
        <time>2018-11-24T10:50:33Z</time>
      </trkpt>
      <trkpt lat="42.80804" lon="0.73351">
        <ele>1546.2</ele>
        <time>2018-11-24T10:50:34Z</time>
      </trkpt>
      <trkpt lat="42.80807" lon="0.73353">
        <ele>1545.4</ele>
        <time>2018-11-24T10:50:35Z</time>
      </trkpt>
      <trkpt lat="42.8081" lon="0.73355">
        <ele>1544.8</ele>
        <time>2018-11-24T10:50:36Z</time>
      </trkpt>
      <trkpt lat="42.80812" lon="0.73356">
        <ele>1544.2</ele>
        <time>2018-11-24T10:50:37Z</time>
      </trkpt>
      <trkpt lat="42.80815" lon="0.73358">
        <ele>1543.6</ele>
        <time>2018-11-24T10:50:39Z</time>
      </trkpt>
      <trkpt lat="42.80817" lon="0.7336">
        <ele>1542.9</ele>
        <time>2018-11-24T10:50:40Z</time>
      </trkpt>
      <trkpt lat="42.80819" lon="0.73364">
        <ele>1542.7</ele>
        <time>2018-11-24T10:50:41Z</time>
      </trkpt>
      <trkpt lat="42.80821" lon="0.73368">
        <ele>1542.8</ele>
        <time>2018-11-24T10:50:42Z</time>
      </trkpt>
      <trkpt lat="42.80822" lon="0.73371">
        <ele>1542.6</ele>
        <time>2018-11-24T10:50:44Z</time>
      </trkpt>
      <trkpt lat="42.80823" lon="0.73375">
        <ele>1542.7</ele>
        <time>2018-11-24T10:50:45Z</time>
      </trkpt>
      <trkpt lat="42.80824" lon="0.73379">
        <ele>1542.8</ele>
        <time>2018-11-24T10:50:46Z</time>
      </trkpt>
      <trkpt lat="42.80826" lon="0.73383">
        <ele>1542.4</ele>
        <time>2018-11-24T10:50:47Z</time>
      </trkpt>
      <trkpt lat="42.80828" lon="0.73386">
        <ele>1541.8</ele>
        <time>2018-11-24T10:50:49Z</time>
      </trkpt>
      <trkpt lat="42.8083" lon="0.7339">
        <ele>1541.5</ele>
        <time>2018-11-24T10:50:50Z</time>
      </trkpt>
      <trkpt lat="42.80831" lon="0.73393">
        <ele>1541.4</ele>
        <time>2018-11-24T10:50:51Z</time>
      </trkpt>
      <trkpt lat="42.80833" lon="0.73397">
        <ele>1541.1</ele>
        <time>2018-11-24T10:50:52Z</time>
      </trkpt>
      <trkpt lat="42.80835" lon="0.734">
        <ele>1541.2</ele>
        <time>2018-11-24T10:50:54Z</time>
      </trkpt>
      <trkpt lat="42.80837" lon="0.73404">
        <ele>1541.2</ele>
        <time>2018-11-24T10:50:55Z</time>
      </trkpt>
      <trkpt lat="42.80839" lon="0.73408">
        <ele>1541.3</ele>
        <time>2018-11-24T10:50:57Z</time>
      </trkpt>
      <trkpt lat="42.80841" lon="0.73411">
        <ele>1541</ele>
        <time>2018-11-24T10:50:58Z</time>
      </trkpt>
      <trkpt lat="42.80843" lon="0.73414">
        <ele>1540.6</ele>
        <time>2018-11-24T10:50:59Z</time>
      </trkpt>
      <trkpt lat="42.80845" lon="0.73418">
        <ele>1540.2</ele>
        <time>2018-11-24T10:51:00Z</time>
      </trkpt>
      <trkpt lat="42.80847" lon="0.73421">
        <ele>1539.5</ele>
        <time>2018-11-24T10:51:02Z</time>
      </trkpt>
      <trkpt lat="42.80849" lon="0.73425">
        <ele>1538.8</ele>
        <time>2018-11-24T10:51:03Z</time>
      </trkpt>
      <trkpt lat="42.80851" lon="0.73428">
        <ele>1538.2</ele>
        <time>2018-11-24T10:51:04Z</time>
      </trkpt>
      <trkpt lat="42.80853" lon="0.73431">
        <ele>1537.6</ele>
        <time>2018-11-24T10:51:05Z</time>
      </trkpt>
      <trkpt lat="42.80855" lon="0.73434">
        <ele>1536.9</ele>
        <time>2018-11-24T10:51:07Z</time>
      </trkpt>
      <trkpt lat="42.80856" lon="0.73438">
        <ele>1536.8</ele>
        <time>2018-11-24T10:51:08Z</time>
      </trkpt>
      <trkpt lat="42.80857" lon="0.73441">
        <ele>1536.7</ele>
        <time>2018-11-24T10:51:09Z</time>
      </trkpt>
      <trkpt lat="42.80859" lon="0.73445">
        <ele>1536</ele>
        <time>2018-11-24T10:51:10Z</time>
      </trkpt>
      <trkpt lat="42.80861" lon="0.73449">
        <ele>1535.5</ele>
        <time>2018-11-24T10:51:12Z</time>
      </trkpt>
      <trkpt lat="42.80863" lon="0.73451">
        <ele>1535.4</ele>
        <time>2018-11-24T10:51:12Z</time>
      </trkpt>
      <trkpt lat="42.80865" lon="0.73452">
        <ele>1535</ele>
        <time>2018-11-24T10:51:13Z</time>
      </trkpt>
      <trkpt lat="42.80868" lon="0.73451">
        <ele>1534.4</ele>
        <time>2018-11-24T10:51:15Z</time>
      </trkpt>
      <trkpt lat="42.80871" lon="0.73451">
        <ele>1533.7</ele>
        <time>2018-11-24T10:51:16Z</time>
      </trkpt>
      <trkpt lat="42.80874" lon="0.7345">
        <ele>1533.1</ele>
        <time>2018-11-24T10:51:17Z</time>
      </trkpt>
      <trkpt lat="42.80872" lon="0.7345">
        <ele>1533.6</ele>
        <time>2018-11-24T10:51:18Z</time>
      </trkpt>
      <trkpt lat="42.80871" lon="0.73447">
        <ele>1533.5</ele>
        <time>2018-11-24T10:51:19Z</time>
      </trkpt>
      <trkpt lat="42.8087" lon="0.73444">
        <ele>1533.5</ele>
        <time>2018-11-24T10:51:20Z</time>
      </trkpt>
      <trkpt lat="42.80869" lon="0.73441">
        <ele>1533.2</ele>
        <time>2018-11-24T10:51:21Z</time>
      </trkpt>
      <trkpt lat="42.80868" lon="0.73437">
        <ele>1533.1</ele>
        <time>2018-11-24T10:51:22Z</time>
      </trkpt>
      <trkpt lat="42.80867" lon="0.73433">
        <ele>1532.7</ele>
        <time>2018-11-24T10:51:23Z</time>
      </trkpt>
      <trkpt lat="42.80867" lon="0.7343">
        <ele>1532.5</ele>
        <time>2018-11-24T10:51:24Z</time>
      </trkpt>
      <trkpt lat="42.80866" lon="0.73427">
        <ele>1532.2</ele>
        <time>2018-11-24T10:51:25Z</time>
      </trkpt>
      <trkpt lat="42.80865" lon="0.73424">
        <ele>1532.1</ele>
        <time>2018-11-24T10:51:26Z</time>
      </trkpt>
      <trkpt lat="42.80863" lon="0.7342">
        <ele>1532</ele>
        <time>2018-11-24T10:51:27Z</time>
      </trkpt>
      <trkpt lat="42.80862" lon="0.73417">
        <ele>1531.9</ele>
        <time>2018-11-24T10:51:29Z</time>
      </trkpt>
      <trkpt lat="42.8086" lon="0.73413">
        <ele>1532.1</ele>
        <time>2018-11-24T10:51:30Z</time>
      </trkpt>
      <trkpt lat="42.80858" lon="0.7341">
        <ele>1532.4</ele>
        <time>2018-11-24T10:51:31Z</time>
      </trkpt>
      <trkpt lat="42.80856" lon="0.73406">
        <ele>1532.9</ele>
        <time>2018-11-24T10:51:32Z</time>
      </trkpt>
      <trkpt lat="42.80854" lon="0.73403">
        <ele>1533.3</ele>
        <time>2018-11-24T10:51:34Z</time>
      </trkpt>
      <trkpt lat="42.80852" lon="0.73399">
        <ele>1533.4</ele>
        <time>2018-11-24T10:51:35Z</time>
      </trkpt>
      <trkpt lat="42.80851" lon="0.73395">
        <ele>1533.3</ele>
        <time>2018-11-24T10:51:36Z</time>
      </trkpt>
      <trkpt lat="42.80849" lon="0.73391">
        <ele>1533.2</ele>
        <time>2018-11-24T10:51:38Z</time>
      </trkpt>
      <trkpt lat="42.80847" lon="0.73387">
        <ele>1533.6</ele>
        <time>2018-11-24T10:51:39Z</time>
      </trkpt>
      <trkpt lat="42.80846" lon="0.73384">
        <ele>1533.8</ele>
        <time>2018-11-24T10:51:40Z</time>
      </trkpt>
      <trkpt lat="42.80845" lon="0.7338">
        <ele>1534.1</ele>
        <time>2018-11-24T10:51:41Z</time>
      </trkpt>
      <trkpt lat="42.80844" lon="0.73376">
        <ele>1534.1</ele>
        <time>2018-11-24T10:51:43Z</time>
      </trkpt>
      <trkpt lat="42.80843" lon="0.73371">
        <ele>1534.1</ele>
        <time>2018-11-24T10:51:44Z</time>
      </trkpt>
      <trkpt lat="42.80843" lon="0.73367">
        <ele>1534.1</ele>
        <time>2018-11-24T10:51:45Z</time>
      </trkpt>
      <trkpt lat="42.80842" lon="0.73363">
        <ele>1534</ele>
        <time>2018-11-24T10:51:46Z</time>
      </trkpt>
      <trkpt lat="42.80842" lon="0.73359">
        <ele>1533.8</ele>
        <time>2018-11-24T10:51:48Z</time>
      </trkpt>
      <trkpt lat="42.80841" lon="0.73355">
        <ele>1533.7</ele>
        <time>2018-11-24T10:51:49Z</time>
      </trkpt>
      <trkpt lat="42.80841" lon="0.73352">
        <ele>1533.4</ele>
        <time>2018-11-24T10:51:50Z</time>
      </trkpt>
      <trkpt lat="42.8084" lon="0.73348">
        <ele>1533.3</ele>
        <time>2018-11-24T10:51:51Z</time>
      </trkpt>
      <trkpt lat="42.8084" lon="0.73345">
        <ele>1533.2</ele>
        <time>2018-11-24T10:51:52Z</time>
      </trkpt>
      <trkpt lat="42.80839" lon="0.73341">
        <ele>1533.1</ele>
        <time>2018-11-24T10:51:53Z</time>
      </trkpt>
      <trkpt lat="42.80838" lon="0.73338">
        <ele>1533</ele>
        <time>2018-11-24T10:51:54Z</time>
      </trkpt>
      <trkpt lat="42.80837" lon="0.73334">
        <ele>1533</ele>
        <time>2018-11-24T10:51:55Z</time>
      </trkpt>
      <trkpt lat="42.80837" lon="0.73331">
        <ele>1532.5</ele>
        <time>2018-11-24T10:51:56Z</time>
      </trkpt>
      <trkpt lat="42.80836" lon="0.73327">
        <ele>1531.8</ele>
        <time>2018-11-24T10:51:57Z</time>
      </trkpt>
      <trkpt lat="42.80835" lon="0.73324">
        <ele>1531.5</ele>
        <time>2018-11-24T10:51:58Z</time>
      </trkpt>
      <trkpt lat="42.80834" lon="0.7332">
        <ele>1531</ele>
        <time>2018-11-24T10:51:59Z</time>
      </trkpt>
      <trkpt lat="42.80832" lon="0.73318">
        <ele>1531</ele>
        <time>2018-11-24T10:52:01Z</time>
      </trkpt>
      <trkpt lat="42.8083" lon="0.73315">
        <ele>1530.8</ele>
        <time>2018-11-24T10:52:02Z</time>
      </trkpt>
      <trkpt lat="42.80829" lon="0.73312">
        <ele>1530.2</ele>
        <time>2018-11-24T10:52:03Z</time>
      </trkpt>
      <trkpt lat="42.80828" lon="0.73308">
        <ele>1529.6</ele>
        <time>2018-11-24T10:52:04Z</time>
      </trkpt>
      <trkpt lat="42.80827" lon="0.73305">
        <ele>1528.9</ele>
        <time>2018-11-24T10:52:05Z</time>
      </trkpt>
      <trkpt lat="42.80825" lon="0.73301">
        <ele>1528</ele>
        <time>2018-11-24T10:52:06Z</time>
      </trkpt>
      <trkpt lat="42.80824" lon="0.73298">
        <ele>1527.1</ele>
        <time>2018-11-24T10:52:07Z</time>
      </trkpt>
      <trkpt lat="42.80822" lon="0.73295">
        <ele>1526.3</ele>
        <time>2018-11-24T10:52:08Z</time>
      </trkpt>
      <trkpt lat="42.8082" lon="0.73292">
        <ele>1525.5</ele>
        <time>2018-11-24T10:52:10Z</time>
      </trkpt>
      <trkpt lat="42.80818" lon="0.73289">
        <ele>1524.8</ele>
        <time>2018-11-24T10:52:11Z</time>
      </trkpt>
      <trkpt lat="42.80816" lon="0.73287">
        <ele>1524.4</ele>
        <time>2018-11-24T10:52:12Z</time>
      </trkpt>
      <trkpt lat="42.80814" lon="0.73284">
        <ele>1523.8</ele>
        <time>2018-11-24T10:52:13Z</time>
      </trkpt>
      <trkpt lat="42.80811" lon="0.73282">
        <ele>1523.6</ele>
        <time>2018-11-24T10:52:14Z</time>
      </trkpt>
      <trkpt lat="42.80808" lon="0.7328">
        <ele>1523.5</ele>
        <time>2018-11-24T10:52:16Z</time>
      </trkpt>
      <trkpt lat="42.80806" lon="0.73278">
        <ele>1523</ele>
        <time>2018-11-24T10:52:17Z</time>
      </trkpt>
      <trkpt lat="42.80804" lon="0.73276">
        <ele>1522.8</ele>
        <time>2018-11-24T10:52:18Z</time>
      </trkpt>
      <trkpt lat="42.80801" lon="0.73272">
        <ele>1522</ele>
        <time>2018-11-24T10:52:19Z</time>
      </trkpt>
      <trkpt lat="42.80799" lon="0.73269">
        <ele>1521.4</ele>
        <time>2018-11-24T10:52:20Z</time>
      </trkpt>
      <trkpt lat="42.80797" lon="0.73266">
        <ele>1521</ele>
        <time>2018-11-24T10:52:22Z</time>
      </trkpt>
      <trkpt lat="42.80795" lon="0.73262">
        <ele>1520</ele>
        <time>2018-11-24T10:52:23Z</time>
      </trkpt>
      <trkpt lat="42.80793" lon="0.73257">
        <ele>1519.2</ele>
        <time>2018-11-24T10:52:25Z</time>
      </trkpt>
      <trkpt lat="42.80791" lon="0.73253">
        <ele>1518.5</ele>
        <time>2018-11-24T10:52:26Z</time>
      </trkpt>
      <trkpt lat="42.8079" lon="0.73249">
        <ele>1517.6</ele>
        <time>2018-11-24T10:52:27Z</time>
      </trkpt>
      <trkpt lat="42.80789" lon="0.73244">
        <ele>1517</ele>
        <time>2018-11-24T10:52:29Z</time>
      </trkpt>
      <trkpt lat="42.80788" lon="0.7324">
        <ele>1516.6</ele>
        <time>2018-11-24T10:52:30Z</time>
      </trkpt>
      <trkpt lat="42.80788" lon="0.73237">
        <ele>1516</ele>
        <time>2018-11-24T10:52:31Z</time>
      </trkpt>
      <trkpt lat="42.80788" lon="0.73231">
        <ele>1514.6</ele>
        <time>2018-11-24T10:52:33Z</time>
      </trkpt>
      <trkpt lat="42.80788" lon="0.73227">
        <ele>1513.8</ele>
        <time>2018-11-24T10:52:34Z</time>
      </trkpt>
      <trkpt lat="42.80787" lon="0.73223">
        <ele>1513.3</ele>
        <time>2018-11-24T10:52:35Z</time>
      </trkpt>
      <trkpt lat="42.80787" lon="0.7322">
        <ele>1512.7</ele>
        <time>2018-11-24T10:52:36Z</time>
      </trkpt>
      <trkpt lat="42.80786" lon="0.73217">
        <ele>1512.2</ele>
        <time>2018-11-24T10:52:37Z</time>
      </trkpt>
      <trkpt lat="42.80784" lon="0.73212">
        <ele>1512.4</ele>
        <time>2018-11-24T10:52:39Z</time>
      </trkpt>
      <trkpt lat="42.80781" lon="0.73208">
        <ele>1512.4</ele>
        <time>2018-11-24T10:52:40Z</time>
      </trkpt>
      <trkpt lat="42.80779" lon="0.73203">
        <ele>1512.5</ele>
        <time>2018-11-24T10:52:42Z</time>
      </trkpt>
      <trkpt lat="42.80778" lon="0.73199">
        <ele>1512</ele>
        <time>2018-11-24T10:52:43Z</time>
      </trkpt>
      <trkpt lat="42.80777" lon="0.73196">
        <ele>1511.8</ele>
        <time>2018-11-24T10:52:44Z</time>
      </trkpt>
      <trkpt lat="42.80776" lon="0.73192">
        <ele>1511.7</ele>
        <time>2018-11-24T10:52:45Z</time>
      </trkpt>
      <trkpt lat="42.80776" lon="0.73189">
        <ele>1511.7</ele>
        <time>2018-11-24T10:52:46Z</time>
      </trkpt>
      <trkpt lat="42.80775" lon="0.73185">
        <ele>1511.4</ele>
        <time>2018-11-24T10:52:48Z</time>
      </trkpt>
      <trkpt lat="42.80775" lon="0.73181">
        <ele>1511</ele>
        <time>2018-11-24T10:52:49Z</time>
      </trkpt>
      <trkpt lat="42.80775" lon="0.73177">
        <ele>1510.4</ele>
        <time>2018-11-24T10:52:50Z</time>
      </trkpt>
      <trkpt lat="42.80775" lon="0.73172">
        <ele>1509.7</ele>
        <time>2018-11-24T10:52:51Z</time>
      </trkpt>
      <trkpt lat="42.80775" lon="0.73168">
        <ele>1509.5</ele>
        <time>2018-11-24T10:52:53Z</time>
      </trkpt>
      <trkpt lat="42.80774" lon="0.73164">
        <ele>1508.5</ele>
        <time>2018-11-24T10:52:54Z</time>
      </trkpt>
      <trkpt lat="42.80773" lon="0.7316">
        <ele>1507.4</ele>
        <time>2018-11-24T10:52:55Z</time>
      </trkpt>
      <trkpt lat="42.80772" lon="0.73156">
        <ele>1506.4</ele>
        <time>2018-11-24T10:52:56Z</time>
      </trkpt>
      <trkpt lat="42.8077" lon="0.73152">
        <ele>1505.7</ele>
        <time>2018-11-24T10:52:58Z</time>
      </trkpt>
      <trkpt lat="42.80768" lon="0.73148">
        <ele>1504.8</ele>
        <time>2018-11-24T10:52:59Z</time>
      </trkpt>
      <trkpt lat="42.80767" lon="0.73145">
        <ele>1504</ele>
        <time>2018-11-24T10:53:00Z</time>
      </trkpt>
      <trkpt lat="42.80765" lon="0.73141">
        <ele>1503.1</ele>
        <time>2018-11-24T10:53:01Z</time>
      </trkpt>
      <trkpt lat="42.80764" lon="0.73138">
        <ele>1502.1</ele>
        <time>2018-11-24T10:53:02Z</time>
      </trkpt>
      <trkpt lat="42.80763" lon="0.73135">
        <ele>1501</ele>
        <time>2018-11-24T10:53:03Z</time>
      </trkpt>
      <trkpt lat="42.80761" lon="0.73133">
        <ele>1500.3</ele>
        <time>2018-11-24T10:53:04Z</time>
      </trkpt>
      <trkpt lat="42.80759" lon="0.7313">
        <ele>1499.7</ele>
        <time>2018-11-24T10:53:06Z</time>
      </trkpt>
      <trkpt lat="42.80756" lon="0.73128">
        <ele>1499.5</ele>
        <time>2018-11-24T10:53:07Z</time>
      </trkpt>
      <trkpt lat="42.80753" lon="0.73126">
        <ele>1499.2</ele>
        <time>2018-11-24T10:53:08Z</time>
      </trkpt>
      <trkpt lat="42.80751" lon="0.73125">
        <ele>1499.4</ele>
        <time>2018-11-24T10:53:09Z</time>
      </trkpt>
      <trkpt lat="42.80748" lon="0.73124">
        <ele>1498.7</ele>
        <time>2018-11-24T10:53:10Z</time>
      </trkpt>
      <trkpt lat="42.80745" lon="0.73124">
        <ele>1498.2</ele>
        <time>2018-11-24T10:53:12Z</time>
      </trkpt>
      <trkpt lat="42.80741" lon="0.73124">
        <ele>1497.6</ele>
        <time>2018-11-24T10:53:13Z</time>
      </trkpt>
      <trkpt lat="42.80738" lon="0.73124">
        <ele>1497.1</ele>
        <time>2018-11-24T10:53:14Z</time>
      </trkpt>
      <trkpt lat="42.80735" lon="0.73124">
        <ele>1496.6</ele>
        <time>2018-11-24T10:53:16Z</time>
      </trkpt>
      <trkpt lat="42.80732" lon="0.73125">
        <ele>1496.4</ele>
        <time>2018-11-24T10:53:17Z</time>
      </trkpt>
      <trkpt lat="42.80729" lon="0.73125">
        <ele>1496.2</ele>
        <time>2018-11-24T10:53:18Z</time>
      </trkpt>
      <trkpt lat="42.80727" lon="0.73126">
        <ele>1496.3</ele>
        <time>2018-11-24T10:53:19Z</time>
      </trkpt>
      <trkpt lat="42.80724" lon="0.73127">
        <ele>1496.4</ele>
        <time>2018-11-24T10:53:20Z</time>
      </trkpt>
      <trkpt lat="42.80721" lon="0.73128">
        <ele>1496.5</ele>
        <time>2018-11-24T10:53:21Z</time>
      </trkpt>
      <trkpt lat="42.80718" lon="0.73129">
        <ele>1496.3</ele>
        <time>2018-11-24T10:53:22Z</time>
      </trkpt>
      <trkpt lat="42.80716" lon="0.7313">
        <ele>1496.3</ele>
        <time>2018-11-24T10:53:24Z</time>
      </trkpt>
      <trkpt lat="42.80713" lon="0.73131">
        <ele>1496.3</ele>
        <time>2018-11-24T10:53:25Z</time>
      </trkpt>
      <trkpt lat="42.80711" lon="0.73133">
        <ele>1497</ele>
        <time>2018-11-24T10:53:26Z</time>
      </trkpt>
      <trkpt lat="42.80708" lon="0.73135">
        <ele>1497.6</ele>
        <time>2018-11-24T10:53:27Z</time>
      </trkpt>
      <trkpt lat="42.80706" lon="0.73137">
        <ele>1498.4</ele>
        <time>2018-11-24T10:53:28Z</time>
      </trkpt>
      <trkpt lat="42.80704" lon="0.73139">
        <ele>1499.2</ele>
        <time>2018-11-24T10:53:29Z</time>
      </trkpt>
      <trkpt lat="42.80702" lon="0.73141">
        <ele>1499.5</ele>
        <time>2018-11-24T10:53:30Z</time>
      </trkpt>
      <trkpt lat="42.807" lon="0.73142">
        <ele>1499.7</ele>
        <time>2018-11-24T10:53:31Z</time>
      </trkpt>
      <trkpt lat="42.80696" lon="0.73144">
        <ele>1499.7</ele>
        <time>2018-11-24T10:53:32Z</time>
      </trkpt>
      <trkpt lat="42.80694" lon="0.73144">
        <ele>1499.7</ele>
        <time>2018-11-24T10:53:33Z</time>
      </trkpt>
      <trkpt lat="42.80691" lon="0.73144">
        <ele>1500.1</ele>
        <time>2018-11-24T10:53:34Z</time>
      </trkpt>
      <trkpt lat="42.80689" lon="0.73145">
        <ele>1500.8</ele>
        <time>2018-11-24T10:53:35Z</time>
      </trkpt>
      <trkpt lat="42.80686" lon="0.73145">
        <ele>1501.3</ele>
        <time>2018-11-24T10:53:36Z</time>
      </trkpt>
      <trkpt lat="42.80683" lon="0.73146">
        <ele>1502.1</ele>
        <time>2018-11-24T10:53:38Z</time>
      </trkpt>
      <trkpt lat="42.8068" lon="0.73146">
        <ele>1502.9</ele>
        <time>2018-11-24T10:53:39Z</time>
      </trkpt>
      <trkpt lat="42.80678" lon="0.73146">
        <ele>1503.2</ele>
        <time>2018-11-24T10:53:40Z</time>
      </trkpt>
      <trkpt lat="42.80675" lon="0.73146">
        <ele>1503.6</ele>
        <time>2018-11-24T10:53:41Z</time>
      </trkpt>
      <trkpt lat="42.80672" lon="0.73146">
        <ele>1504.3</ele>
        <time>2018-11-24T10:53:42Z</time>
      </trkpt>
      <trkpt lat="42.80669" lon="0.73146">
        <ele>1504.7</ele>
        <time>2018-11-24T10:53:43Z</time>
      </trkpt>
      <trkpt lat="42.80666" lon="0.73146">
        <ele>1505.3</ele>
        <time>2018-11-24T10:53:44Z</time>
      </trkpt>
      <trkpt lat="42.80663" lon="0.73145">
        <ele>1506.7</ele>
        <time>2018-11-24T10:53:46Z</time>
      </trkpt>
      <trkpt lat="42.80661" lon="0.73144">
        <ele>1507.3</ele>
        <time>2018-11-24T10:53:47Z</time>
      </trkpt>
      <trkpt lat="42.80659" lon="0.73142">
        <ele>1507.7</ele>
        <time>2018-11-24T10:53:48Z</time>
      </trkpt>
      <trkpt lat="42.80657" lon="0.73141">
        <ele>1508.3</ele>
        <time>2018-11-24T10:53:48Z</time>
      </trkpt>
      <trkpt lat="42.80655" lon="0.73139">
        <ele>1508.8</ele>
        <time>2018-11-24T10:53:49Z</time>
      </trkpt>
      <trkpt lat="42.80652" lon="0.73135">
        <ele>1508.6</ele>
        <time>2018-11-24T10:53:51Z</time>
      </trkpt>
      <trkpt lat="42.8065" lon="0.73133">
        <ele>1509</ele>
        <time>2018-11-24T10:53:52Z</time>
      </trkpt>
      <trkpt lat="42.80647" lon="0.7313">
        <ele>1509.3</ele>
        <time>2018-11-24T10:53:53Z</time>
      </trkpt>
      <trkpt lat="42.80644" lon="0.73127">
        <ele>1509.6</ele>
        <time>2018-11-24T10:53:55Z</time>
      </trkpt>
      <trkpt lat="42.80642" lon="0.73125">
        <ele>1509.7</ele>
        <time>2018-11-24T10:53:56Z</time>
      </trkpt>
      <trkpt lat="42.8064" lon="0.73123">
        <ele>1509.9</ele>
        <time>2018-11-24T10:53:57Z</time>
      </trkpt>
      <trkpt lat="42.80637" lon="0.7312">
        <ele>1509.8</ele>
        <time>2018-11-24T10:53:58Z</time>
      </trkpt>
      <trkpt lat="42.80635" lon="0.73119">
        <ele>1509.7</ele>
        <time>2018-11-24T10:53:59Z</time>
      </trkpt>
      <trkpt lat="42.80633" lon="0.73117">
        <ele>1509.6</ele>
        <time>2018-11-24T10:54:00Z</time>
      </trkpt>
      <trkpt lat="42.8063" lon="0.73116">
        <ele>1509.5</ele>
        <time>2018-11-24T10:54:02Z</time>
      </trkpt>
      <trkpt lat="42.80627" lon="0.73114">
        <ele>1509.6</ele>
        <time>2018-11-24T10:54:03Z</time>
      </trkpt>
      <trkpt lat="42.80624" lon="0.73113">
        <ele>1510</ele>
        <time>2018-11-24T10:54:04Z</time>
      </trkpt>
      <trkpt lat="42.8062" lon="0.73112">
        <ele>1510.3</ele>
        <time>2018-11-24T10:54:06Z</time>
      </trkpt>
      <trkpt lat="42.80617" lon="0.73112">
        <ele>1511</ele>
        <time>2018-11-24T10:54:07Z</time>
      </trkpt>
      <trkpt lat="42.80613" lon="0.73111">
        <ele>1511.4</ele>
        <time>2018-11-24T10:54:09Z</time>
      </trkpt>
      <trkpt lat="42.80611" lon="0.7311">
        <ele>1511.1</ele>
        <time>2018-11-24T10:54:10Z</time>
      </trkpt>
      <trkpt lat="42.80608" lon="0.73108">
        <ele>1510.6</ele>
        <time>2018-11-24T10:54:11Z</time>
      </trkpt>
      <trkpt lat="42.80605" lon="0.73107">
        <ele>1510.7</ele>
        <time>2018-11-24T10:54:12Z</time>
      </trkpt>
      <trkpt lat="42.80602" lon="0.73106">
        <ele>1510.7</ele>
        <time>2018-11-24T10:54:13Z</time>
      </trkpt>
      <trkpt lat="42.80598" lon="0.73104">
        <ele>1510.9</ele>
        <time>2018-11-24T10:54:15Z</time>
      </trkpt>
      <trkpt lat="42.80595" lon="0.73104">
        <ele>1511.4</ele>
        <time>2018-11-24T10:54:16Z</time>
      </trkpt>
      <trkpt lat="42.80592" lon="0.73103">
        <ele>1512.1</ele>
        <time>2018-11-24T10:54:17Z</time>
      </trkpt>
      <trkpt lat="42.80589" lon="0.73104">
        <ele>1513.5</ele>
        <time>2018-11-24T10:54:19Z</time>
      </trkpt>
      <trkpt lat="42.80587" lon="0.73104">
        <ele>1513.9</ele>
        <time>2018-11-24T10:54:20Z</time>
      </trkpt>
      <trkpt lat="42.80584" lon="0.73103">
        <ele>1514.4</ele>
        <time>2018-11-24T10:54:21Z</time>
      </trkpt>
      <trkpt lat="42.80581" lon="0.73104">
        <ele>1516.9</ele>
        <time>2018-11-24T10:54:22Z</time>
      </trkpt>
      <trkpt lat="42.80578" lon="0.73105">
        <ele>1519.6</ele>
        <time>2018-11-24T10:54:23Z</time>
      </trkpt>
      <trkpt lat="42.80574" lon="0.73105">
        <ele>1522.6</ele>
        <time>2018-11-24T10:54:25Z</time>
      </trkpt>
      <trkpt lat="42.80571" lon="0.73101">
        <ele>1523.2</ele>
        <time>2018-11-24T10:54:26Z</time>
      </trkpt>
      <trkpt lat="42.80569" lon="0.73098">
        <ele>1524.1</ele>
        <time>2018-11-24T10:54:28Z</time>
      </trkpt>
      <trkpt lat="42.80566" lon="0.73095">
        <ele>1525.2</ele>
        <time>2018-11-24T10:54:29Z</time>
      </trkpt>
      <trkpt lat="42.80566" lon="0.73091">
        <ele>1524.1</ele>
        <time>2018-11-24T10:54:30Z</time>
      </trkpt>
      <trkpt lat="42.80565" lon="0.73086">
        <ele>1523.1</ele>
        <time>2018-11-24T10:54:32Z</time>
      </trkpt>
      <trkpt lat="42.80565" lon="0.73082">
        <ele>1522.2</ele>
        <time>2018-11-24T10:54:33Z</time>
      </trkpt>
      <trkpt lat="42.80564" lon="0.73079">
        <ele>1522.5</ele>
        <time>2018-11-24T10:54:34Z</time>
      </trkpt>
      <trkpt lat="42.80563" lon="0.73076">
        <ele>1523</ele>
        <time>2018-11-24T10:54:35Z</time>
      </trkpt>
      <trkpt lat="42.80561" lon="0.73073">
        <ele>1523.6</ele>
        <time>2018-11-24T10:54:36Z</time>
      </trkpt>
      <trkpt lat="42.80559" lon="0.7307">
        <ele>1525.1</ele>
        <time>2018-11-24T10:54:37Z</time>
      </trkpt>
      <trkpt lat="42.80556" lon="0.73067">
        <ele>1526.3</ele>
        <time>2018-11-24T10:54:39Z</time>
      </trkpt>
      <trkpt lat="42.80554" lon="0.73065">
        <ele>1527</ele>
        <time>2018-11-24T10:54:40Z</time>
      </trkpt>
      <trkpt lat="42.80552" lon="0.73062">
        <ele>1527.8</ele>
        <time>2018-11-24T10:54:41Z</time>
      </trkpt>
      <trkpt lat="42.80551" lon="0.73059">
        <ele>1527.4</ele>
        <time>2018-11-24T10:54:42Z</time>
      </trkpt>
      <trkpt lat="42.8055" lon="0.73055">
        <ele>1526.9</ele>
        <time>2018-11-24T10:54:43Z</time>
      </trkpt>
      <trkpt lat="42.80549" lon="0.73053">
        <ele>1527.3</ele>
        <time>2018-11-24T10:54:44Z</time>
      </trkpt>
      <trkpt lat="42.80548" lon="0.73051">
        <ele>1527.6</ele>
        <time>2018-11-24T10:54:44Z</time>
      </trkpt>
      <trkpt lat="42.80547" lon="0.73048">
        <ele>1528.1</ele>
        <time>2018-11-24T10:54:46Z</time>
      </trkpt>
      <trkpt lat="42.80545" lon="0.73044">
        <ele>1528.5</ele>
        <time>2018-11-24T10:54:47Z</time>
      </trkpt>
      <trkpt lat="42.80545" lon="0.7304">
        <ele>1528</ele>
        <time>2018-11-24T10:54:48Z</time>
      </trkpt>
      <trkpt lat="42.80544" lon="0.73036">
        <ele>1527.7</ele>
        <time>2018-11-24T10:54:49Z</time>
      </trkpt>
      <trkpt lat="42.80544" lon="0.73032">
        <ele>1527.3</ele>
        <time>2018-11-24T10:54:50Z</time>
      </trkpt>
      <trkpt lat="42.80543" lon="0.73028">
        <ele>1527</ele>
        <time>2018-11-24T10:54:52Z</time>
      </trkpt>
      <trkpt lat="42.80542" lon="0.73025">
        <ele>1527.7</ele>
        <time>2018-11-24T10:54:53Z</time>
      </trkpt>
      <trkpt lat="42.8054" lon="0.73021">
        <ele>1528.2</ele>
        <time>2018-11-24T10:54:54Z</time>
      </trkpt>
      <trkpt lat="42.80539" lon="0.73017">
        <ele>1528.3</ele>
        <time>2018-11-24T10:54:55Z</time>
      </trkpt>
      <trkpt lat="42.80538" lon="0.73013">
        <ele>1528.5</ele>
        <time>2018-11-24T10:54:56Z</time>
      </trkpt>
      <trkpt lat="42.80537" lon="0.73009">
        <ele>1528.6</ele>
        <time>2018-11-24T10:54:58Z</time>
      </trkpt>
      <trkpt lat="42.80536" lon="0.73004">
        <ele>1528.6</ele>
        <time>2018-11-24T10:54:59Z</time>
      </trkpt>
      <trkpt lat="42.80535" lon="0.73001">
        <ele>1529.1</ele>
        <time>2018-11-24T10:55:00Z</time>
      </trkpt>
      <trkpt lat="42.80533" lon="0.72998">
        <ele>1529.6</ele>
        <time>2018-11-24T10:55:01Z</time>
      </trkpt>
      <trkpt lat="42.80532" lon="0.72995">
        <ele>1530</ele>
        <time>2018-11-24T10:55:02Z</time>
      </trkpt>
      <trkpt lat="42.8053" lon="0.72991">
        <ele>1530.4</ele>
        <time>2018-11-24T10:55:04Z</time>
      </trkpt>
      <trkpt lat="42.80529" lon="0.72988">
        <ele>1530.9</ele>
        <time>2018-11-24T10:55:05Z</time>
      </trkpt>
      <trkpt lat="42.80527" lon="0.72984">
        <ele>1531.2</ele>
        <time>2018-11-24T10:55:06Z</time>
      </trkpt>
      <trkpt lat="42.80526" lon="0.72981">
        <ele>1531.5</ele>
        <time>2018-11-24T10:55:07Z</time>
      </trkpt>
      <trkpt lat="42.80524" lon="0.72978">
        <ele>1531.9</ele>
        <time>2018-11-24T10:55:08Z</time>
      </trkpt>
      <trkpt lat="42.80522" lon="0.72976">
        <ele>1532.6</ele>
        <time>2018-11-24T10:55:09Z</time>
      </trkpt>
      <trkpt lat="42.8052" lon="0.72974">
        <ele>1533.6</ele>
        <time>2018-11-24T10:55:10Z</time>
      </trkpt>
      <trkpt lat="42.80519" lon="0.72971">
        <ele>1533.3</ele>
        <time>2018-11-24T10:55:11Z</time>
      </trkpt>
      <trkpt lat="42.80518" lon="0.72967">
        <ele>1533.1</ele>
        <time>2018-11-24T10:55:12Z</time>
      </trkpt>
      <trkpt lat="42.80518" lon="0.72961">
        <ele>1531.4</ele>
        <time>2018-11-24T10:55:14Z</time>
      </trkpt>
      <trkpt lat="42.80519" lon="0.72958">
        <ele>1530.1</ele>
        <time>2018-11-24T10:55:15Z</time>
      </trkpt>
      <trkpt lat="42.80519" lon="0.72954">
        <ele>1528.9</ele>
        <time>2018-11-24T10:55:16Z</time>
      </trkpt>
      <trkpt lat="42.80518" lon="0.72951">
        <ele>1528.7</ele>
        <time>2018-11-24T10:55:17Z</time>
      </trkpt>
      <trkpt lat="42.80517" lon="0.72948">
        <ele>1528.6</ele>
        <time>2018-11-24T10:55:18Z</time>
      </trkpt>
      <trkpt lat="42.80514" lon="0.72944">
        <ele>1529.4</ele>
        <time>2018-11-24T10:55:20Z</time>
      </trkpt>
      <trkpt lat="42.80516" lon="0.72942">
        <ele>1527.8</ele>
        <time>2018-11-24T10:55:21Z</time>
      </trkpt>
      <trkpt lat="42.80516" lon="0.72939">
        <ele>1527.1</ele>
        <time>2018-11-24T10:55:22Z</time>
      </trkpt>
      <trkpt lat="42.80517" lon="0.72936">
        <ele>1526.1</ele>
        <time>2018-11-24T10:55:23Z</time>
      </trkpt>
      <trkpt lat="42.80518" lon="0.72933">
        <ele>1524.9</ele>
        <time>2018-11-24T10:55:24Z</time>
      </trkpt>
      <trkpt lat="42.80519" lon="0.7293">
        <ele>1524</ele>
        <time>2018-11-24T10:55:25Z</time>
      </trkpt>
      <trkpt lat="42.80519" lon="0.72927">
        <ele>1523.1</ele>
        <time>2018-11-24T10:55:25Z</time>
      </trkpt>
      <trkpt lat="42.8052" lon="0.72924">
        <ele>1522.2</ele>
        <time>2018-11-24T10:55:27Z</time>
      </trkpt>
      <trkpt lat="42.8052" lon="0.7292">
        <ele>1521.2</ele>
        <time>2018-11-24T10:55:28Z</time>
      </trkpt>
      <trkpt lat="42.8052" lon="0.72914">
        <ele>1520</ele>
        <time>2018-11-24T10:55:29Z</time>
      </trkpt>
      <trkpt lat="42.80522" lon="0.72909">
        <ele>1518.2</ele>
        <time>2018-11-24T10:55:31Z</time>
      </trkpt>
      <trkpt lat="42.80523" lon="0.72905">
        <ele>1516.5</ele>
        <time>2018-11-24T10:55:32Z</time>
      </trkpt>
      <trkpt lat="42.80525" lon="0.729">
        <ele>1514.7</ele>
        <time>2018-11-24T10:55:34Z</time>
      </trkpt>
      <trkpt lat="42.80525" lon="0.72894">
        <ele>1513.6</ele>
        <time>2018-11-24T10:55:36Z</time>
      </trkpt>
      <trkpt lat="42.80525" lon="0.72889">
        <ele>1512.6</ele>
        <time>2018-11-24T10:55:37Z</time>
      </trkpt>
      <trkpt lat="42.80524" lon="0.72886">
        <ele>1512.5</ele>
        <time>2018-11-24T10:55:38Z</time>
      </trkpt>
      <trkpt lat="42.80523" lon="0.72882">
        <ele>1512.5</ele>
        <time>2018-11-24T10:55:39Z</time>
      </trkpt>
      <trkpt lat="42.80521" lon="0.72878">
        <ele>1512.3</ele>
        <time>2018-11-24T10:55:41Z</time>
      </trkpt>
      <trkpt lat="42.80521" lon="0.72875">
        <ele>1511.9</ele>
        <time>2018-11-24T10:55:42Z</time>
      </trkpt>
      <trkpt lat="42.8052" lon="0.72872">
        <ele>1511.5</ele>
        <time>2018-11-24T10:55:43Z</time>
      </trkpt>
      <trkpt lat="42.8052" lon="0.72866">
        <ele>1510</ele>
        <time>2018-11-24T10:55:44Z</time>
      </trkpt>
      <trkpt lat="42.80519" lon="0.72863">
        <ele>1509.8</ele>
        <time>2018-11-24T10:55:45Z</time>
      </trkpt>
      <trkpt lat="42.80518" lon="0.7286">
        <ele>1509.8</ele>
        <time>2018-11-24T10:55:46Z</time>
      </trkpt>
      <trkpt lat="42.80518" lon="0.72857">
        <ele>1509.5</ele>
        <time>2018-11-24T10:55:47Z</time>
      </trkpt>
      <trkpt lat="42.80517" lon="0.72854">
        <ele>1509.4</ele>
        <time>2018-11-24T10:55:48Z</time>
      </trkpt>
      <trkpt lat="42.80517" lon="0.72851">
        <ele>1509.1</ele>
        <time>2018-11-24T10:55:49Z</time>
      </trkpt>
      <trkpt lat="42.80516" lon="0.72848">
        <ele>1508.9</ele>
        <time>2018-11-24T10:55:50Z</time>
      </trkpt>
      <trkpt lat="42.80515" lon="0.72843">
        <ele>1508.7</ele>
        <time>2018-11-24T10:55:51Z</time>
      </trkpt>
      <trkpt lat="42.80515" lon="0.7284">
        <ele>1507.9</ele>
        <time>2018-11-24T10:55:52Z</time>
      </trkpt>
      <trkpt lat="42.80515" lon="0.72836">
        <ele>1507.3</ele>
        <time>2018-11-24T10:55:53Z</time>
      </trkpt>
      <trkpt lat="42.80516" lon="0.72833">
        <ele>1506</ele>
        <time>2018-11-24T10:55:55Z</time>
      </trkpt>
      <trkpt lat="42.80517" lon="0.72829">
        <ele>1504.6</ele>
        <time>2018-11-24T10:55:56Z</time>
      </trkpt>
      <trkpt lat="42.80518" lon="0.72826">
        <ele>1503.4</ele>
        <time>2018-11-24T10:55:57Z</time>
      </trkpt>
      <trkpt lat="42.80518" lon="0.72823">
        <ele>1502.4</ele>
        <time>2018-11-24T10:55:57Z</time>
      </trkpt>
      <trkpt lat="42.80516" lon="0.72821">
        <ele>1503</ele>
        <time>2018-11-24T10:55:58Z</time>
      </trkpt>
      <trkpt lat="42.80514" lon="0.72818">
        <ele>1503.4</ele>
        <time>2018-11-24T10:56:00Z</time>
      </trkpt>
      <trkpt lat="42.80511" lon="0.72814">
        <ele>1503.9</ele>
        <time>2018-11-24T10:56:01Z</time>
      </trkpt>
      <trkpt lat="42.80511" lon="0.72811">
        <ele>1503.2</ele>
        <time>2018-11-24T10:56:02Z</time>
      </trkpt>
      <trkpt lat="42.8051" lon="0.72808">
        <ele>1502.8</ele>
        <time>2018-11-24T10:56:03Z</time>
      </trkpt>
      <trkpt lat="42.80509" lon="0.72806">
        <ele>1502.8</ele>
        <time>2018-11-24T10:56:04Z</time>
      </trkpt>
      <trkpt lat="42.80507" lon="0.72803">
        <ele>1502.8</ele>
        <time>2018-11-24T10:56:05Z</time>
      </trkpt>
      <trkpt lat="42.80506" lon="0.728">
        <ele>1502.5</ele>
        <time>2018-11-24T10:56:06Z</time>
      </trkpt>
      <trkpt lat="42.80505" lon="0.72797">
        <ele>1502.1</ele>
        <time>2018-11-24T10:56:07Z</time>
      </trkpt>
      <trkpt lat="42.80503" lon="0.72795">
        <ele>1502.3</ele>
        <time>2018-11-24T10:56:08Z</time>
      </trkpt>
      <trkpt lat="42.80501" lon="0.72791">
        <ele>1502</ele>
        <time>2018-11-24T10:56:09Z</time>
      </trkpt>
      <trkpt lat="42.80501" lon="0.72789">
        <ele>1501.3</ele>
        <time>2018-11-24T10:56:10Z</time>
      </trkpt>
      <trkpt lat="42.80503" lon="0.72787">
        <ele>1499.9</ele>
        <time>2018-11-24T10:56:11Z</time>
      </trkpt>
      <trkpt lat="42.80506" lon="0.72787">
        <ele>1498.8</ele>
        <time>2018-11-24T10:56:12Z</time>
      </trkpt>
      <trkpt lat="42.80509" lon="0.72788">
        <ele>1498.1</ele>
        <time>2018-11-24T10:56:13Z</time>
      </trkpt>
      <trkpt lat="42.80511" lon="0.72787">
        <ele>1497.1</ele>
        <time>2018-11-24T10:56:14Z</time>
      </trkpt>
      <trkpt lat="42.80514" lon="0.72787">
        <ele>1495.9</ele>
        <time>2018-11-24T10:56:15Z</time>
      </trkpt>
      <trkpt lat="42.80517" lon="0.72786">
        <ele>1494.8</ele>
        <time>2018-11-24T10:56:17Z</time>
      </trkpt>
      <trkpt lat="42.8052" lon="0.72785">
        <ele>1493.7</ele>
        <time>2018-11-24T10:56:18Z</time>
      </trkpt>
      <trkpt lat="42.80522" lon="0.72784">
        <ele>1492.7</ele>
        <time>2018-11-24T10:56:19Z</time>
      </trkpt>
      <trkpt lat="42.80524" lon="0.7278">
        <ele>1491.4</ele>
        <time>2018-11-24T10:56:20Z</time>
      </trkpt>
      <trkpt lat="42.80526" lon="0.72776">
        <ele>1490.1</ele>
        <time>2018-11-24T10:56:22Z</time>
      </trkpt>
      <trkpt lat="42.80526" lon="0.72773">
        <ele>1489.4</ele>
        <time>2018-11-24T10:56:22Z</time>
      </trkpt>
      <trkpt lat="42.80526" lon="0.7277">
        <ele>1488.3</ele>
        <time>2018-11-24T10:56:23Z</time>
      </trkpt>
      <trkpt lat="42.80526" lon="0.72766">
        <ele>1487.4</ele>
        <time>2018-11-24T10:56:25Z</time>
      </trkpt>
      <trkpt lat="42.80523" lon="0.72762">
        <ele>1487</ele>
        <time>2018-11-24T10:56:26Z</time>
      </trkpt>
      <trkpt lat="42.8052" lon="0.7276">
        <ele>1486.9</ele>
        <time>2018-11-24T10:56:28Z</time>
      </trkpt>
      <trkpt lat="42.80518" lon="0.72758">
        <ele>1486.6</ele>
        <time>2018-11-24T10:56:29Z</time>
      </trkpt>
      <trkpt lat="42.80515" lon="0.72755">
        <ele>1486.2</ele>
        <time>2018-11-24T10:56:30Z</time>
      </trkpt>
      <trkpt lat="42.80513" lon="0.72754">
        <ele>1486.1</ele>
        <time>2018-11-24T10:56:31Z</time>
      </trkpt>
      <trkpt lat="42.80511" lon="0.72749">
        <ele>1484.3</ele>
        <time>2018-11-24T10:56:33Z</time>
      </trkpt>
      <trkpt lat="42.80513" lon="0.72744">
        <ele>1481.6</ele>
        <time>2018-11-24T10:56:34Z</time>
      </trkpt>
      <trkpt lat="42.80515" lon="0.72739">
        <ele>1479.2</ele>
        <time>2018-11-24T10:56:36Z</time>
      </trkpt>
      <trkpt lat="42.80514" lon="0.72737">
        <ele>1478.2</ele>
        <time>2018-11-24T10:56:37Z</time>
      </trkpt>
      <trkpt lat="42.80512" lon="0.72735">
        <ele>1477.2</ele>
        <time>2018-11-24T10:56:38Z</time>
      </trkpt>
      <trkpt lat="42.8051" lon="0.72733">
        <ele>1476.2</ele>
        <time>2018-11-24T10:56:39Z</time>
      </trkpt>
      <trkpt lat="42.80508" lon="0.72734">
        <ele>1476.7</ele>
        <time>2018-11-24T10:56:39Z</time>
      </trkpt>
      <trkpt lat="42.80506" lon="0.72734">
        <ele>1476.9</ele>
        <time>2018-11-24T10:56:40Z</time>
      </trkpt>
      <trkpt lat="42.80504" lon="0.72733">
        <ele>1476.3</ele>
        <time>2018-11-24T10:56:41Z</time>
      </trkpt>
      <trkpt lat="42.80501" lon="0.72731">
        <ele>1475.1</ele>
        <time>2018-11-24T10:56:42Z</time>
      </trkpt>
      <trkpt lat="42.80497" lon="0.72729">
        <ele>1473.8</ele>
        <time>2018-11-24T10:56:44Z</time>
      </trkpt>
      <trkpt lat="42.80493" lon="0.72728">
        <ele>1473</ele>
        <time>2018-11-24T10:56:46Z</time>
      </trkpt>
      <trkpt lat="42.80489" lon="0.72726">
        <ele>1471.5</ele>
        <time>2018-11-24T10:56:47Z</time>
      </trkpt>
      <trkpt lat="42.80486" lon="0.72726">
        <ele>1471.4</ele>
        <time>2018-11-24T10:56:49Z</time>
      </trkpt>
      <trkpt lat="42.80482" lon="0.72725">
        <ele>1470.1</ele>
        <time>2018-11-24T10:56:50Z</time>
      </trkpt>
      <trkpt lat="42.80478" lon="0.72723">
        <ele>1469</ele>
        <time>2018-11-24T10:56:52Z</time>
      </trkpt>
      <trkpt lat="42.80476" lon="0.72722">
        <ele>1467.8</ele>
        <time>2018-11-24T10:56:53Z</time>
      </trkpt>
      <trkpt lat="42.80474" lon="0.7272">
        <ele>1466.6</ele>
        <time>2018-11-24T10:56:54Z</time>
      </trkpt>
      <trkpt lat="42.80472" lon="0.72718">
        <ele>1464.8</ele>
        <time>2018-11-24T10:56:55Z</time>
      </trkpt>
      <trkpt lat="42.8047" lon="0.72715">
        <ele>1463.6</ele>
        <time>2018-11-24T10:56:56Z</time>
      </trkpt>
      <trkpt lat="42.80469" lon="0.72712">
        <ele>1461.8</ele>
        <time>2018-11-24T10:56:57Z</time>
      </trkpt>
      <trkpt lat="42.80467" lon="0.72708">
        <ele>1459.5</ele>
        <time>2018-11-24T10:56:58Z</time>
      </trkpt>
      <trkpt lat="42.80464" lon="0.72707">
        <ele>1459.5</ele>
        <time>2018-11-24T10:57:00Z</time>
      </trkpt>
      <trkpt lat="42.80465" lon="0.7271">
        <ele>1461.4</ele>
        <time>2018-11-24T10:57:01Z</time>
      </trkpt>
      <trkpt lat="42.80465" lon="0.72713">
        <ele>1463.2</ele>
        <time>2018-11-24T10:57:01Z</time>
      </trkpt>
      <trkpt lat="42.80464" lon="0.72716">
        <ele>1465.4</ele>
        <time>2018-11-24T10:57:02Z</time>
      </trkpt>
      <trkpt lat="42.80463" lon="0.72713">
        <ele>1463.7</ele>
        <time>2018-11-24T10:57:03Z</time>
      </trkpt>
      <trkpt lat="42.80461" lon="0.7271">
        <ele>1462</ele>
        <time>2018-11-24T10:57:05Z</time>
      </trkpt>
      <trkpt lat="42.80459" lon="0.7271">
        <ele>1462.4</ele>
        <time>2018-11-24T10:57:05Z</time>
      </trkpt>
      <trkpt lat="42.80457" lon="0.72709">
        <ele>1462.2</ele>
        <time>2018-11-24T10:57:06Z</time>
      </trkpt>
      <trkpt lat="42.80454" lon="0.72705">
        <ele>1460.3</ele>
        <time>2018-11-24T10:57:08Z</time>
      </trkpt>
      <trkpt lat="42.80452" lon="0.72703">
        <ele>1459.6</ele>
        <time>2018-11-24T10:57:09Z</time>
      </trkpt>
      <trkpt lat="42.8045" lon="0.72701">
        <ele>1458.8</ele>
        <time>2018-11-24T10:57:10Z</time>
      </trkpt>
      <trkpt lat="42.80447" lon="0.72697">
        <ele>1457</ele>
        <time>2018-11-24T10:57:12Z</time>
      </trkpt>
      <trkpt lat="42.80446" lon="0.72695">
        <ele>1455.8</ele>
        <time>2018-11-24T10:57:12Z</time>
      </trkpt>
      <trkpt lat="42.80444" lon="0.72692">
        <ele>1454.8</ele>
        <time>2018-11-24T10:57:13Z</time>
      </trkpt>
      <trkpt lat="42.80441" lon="0.72689">
        <ele>1453.7</ele>
        <time>2018-11-24T10:57:15Z</time>
      </trkpt>
      <trkpt lat="42.8044" lon="0.72687">
        <ele>1452.6</ele>
        <time>2018-11-24T10:57:16Z</time>
      </trkpt>
      <trkpt lat="42.80438" lon="0.72684">
        <ele>1451.5</ele>
        <time>2018-11-24T10:57:17Z</time>
      </trkpt>
      <trkpt lat="42.80438" lon="0.72681">
        <ele>1450</ele>
        <time>2018-11-24T10:57:18Z</time>
      </trkpt>
      <trkpt lat="42.80438" lon="0.72679">
        <ele>1448.8</ele>
        <time>2018-11-24T10:57:18Z</time>
      </trkpt>
      <trkpt lat="42.80437" lon="0.72677">
        <ele>1447.8</ele>
        <time>2018-11-24T10:57:19Z</time>
      </trkpt>
      <trkpt lat="42.80435" lon="0.72674">
        <ele>1446.8</ele>
        <time>2018-11-24T10:57:20Z</time>
      </trkpt>
      <trkpt lat="42.80433" lon="0.72669">
        <ele>1444.6</ele>
        <time>2018-11-24T10:57:22Z</time>
      </trkpt>
      <trkpt lat="42.80432" lon="0.72666">
        <ele>1443.1</ele>
        <time>2018-11-24T10:57:23Z</time>
      </trkpt>
      <trkpt lat="42.80431" lon="0.72662">
        <ele>1441.7</ele>
        <time>2018-11-24T10:57:24Z</time>
      </trkpt>
      <trkpt lat="42.8043" lon="0.7266">
        <ele>1440.8</ele>
        <time>2018-11-24T10:57:25Z</time>
      </trkpt>
      <trkpt lat="42.80428" lon="0.72657">
        <ele>1440.1</ele>
        <time>2018-11-24T10:57:26Z</time>
      </trkpt>
      <trkpt lat="42.80427" lon="0.72655">
        <ele>1439.3</ele>
        <time>2018-11-24T10:57:27Z</time>
      </trkpt>
      <trkpt lat="42.80425" lon="0.72652">
        <ele>1438.5</ele>
        <time>2018-11-24T10:57:28Z</time>
      </trkpt>
      <trkpt lat="42.80422" lon="0.72648">
        <ele>1437.2</ele>
        <time>2018-11-24T10:57:30Z</time>
      </trkpt>
      <trkpt lat="42.80422" lon="0.72645">
        <ele>1435.8</ele>
        <time>2018-11-24T10:57:30Z</time>
      </trkpt>
      <trkpt lat="42.80421" lon="0.72641">
        <ele>1433.7</ele>
        <time>2018-11-24T10:57:32Z</time>
      </trkpt>
      <trkpt lat="42.8042" lon="0.72636">
        <ele>1432</ele>
        <time>2018-11-24T10:57:33Z</time>
      </trkpt>
      <trkpt lat="42.80419" lon="0.72633">
        <ele>1431.1</ele>
        <time>2018-11-24T10:57:34Z</time>
      </trkpt>
      <trkpt lat="42.80418" lon="0.7263">
        <ele>1430.2</ele>
        <time>2018-11-24T10:57:35Z</time>
      </trkpt>
      <trkpt lat="42.80418" lon="0.72627">
        <ele>1429.2</ele>
        <time>2018-11-24T10:57:36Z</time>
      </trkpt>
      <trkpt lat="42.80417" lon="0.72624">
        <ele>1428.1</ele>
        <time>2018-11-24T10:57:37Z</time>
      </trkpt>
      <trkpt lat="42.80418" lon="0.72619">
        <ele>1425.9</ele>
        <time>2018-11-24T10:57:38Z</time>
      </trkpt>
      <trkpt lat="42.80417" lon="0.72617">
        <ele>1425.3</ele>
        <time>2018-11-24T10:57:39Z</time>
      </trkpt>
      <trkpt lat="42.80416" lon="0.72615">
        <ele>1424.8</ele>
        <time>2018-11-24T10:57:40Z</time>
      </trkpt>
      <trkpt lat="42.80414" lon="0.72612">
        <ele>1424.2</ele>
        <time>2018-11-24T10:57:41Z</time>
      </trkpt>
      <trkpt lat="42.80411" lon="0.72608">
        <ele>1423.4</ele>
        <time>2018-11-24T10:57:43Z</time>
      </trkpt>
      <trkpt lat="42.80409" lon="0.72603">
        <ele>1421.9</ele>
        <time>2018-11-24T10:57:44Z</time>
      </trkpt>
      <trkpt lat="42.80409" lon="0.726">
        <ele>1420.8</ele>
        <time>2018-11-24T10:57:45Z</time>
      </trkpt>
      <trkpt lat="42.80408" lon="0.72597">
        <ele>1419.7</ele>
        <time>2018-11-24T10:57:46Z</time>
      </trkpt>
      <trkpt lat="42.80408" lon="0.72592">
        <ele>1417.7</ele>
        <time>2018-11-24T10:57:48Z</time>
      </trkpt>
      <trkpt lat="42.80406" lon="0.72587">
        <ele>1416.4</ele>
        <time>2018-11-24T10:57:49Z</time>
      </trkpt>
      <trkpt lat="42.80404" lon="0.72582">
        <ele>1415.1</ele>
        <time>2018-11-24T10:57:51Z</time>
      </trkpt>
      <trkpt lat="42.80405" lon="0.72579">
        <ele>1413.5</ele>
        <time>2018-11-24T10:57:52Z</time>
      </trkpt>
      <trkpt lat="42.80406" lon="0.72576">
        <ele>1412.1</ele>
        <time>2018-11-24T10:57:53Z</time>
      </trkpt>
      <trkpt lat="42.80406" lon="0.72573">
        <ele>1410.7</ele>
        <time>2018-11-24T10:57:54Z</time>
      </trkpt>
      <trkpt lat="42.80404" lon="0.72568">
        <ele>1409.3</ele>
        <time>2018-11-24T10:57:55Z</time>
      </trkpt>
      <trkpt lat="42.80404" lon="0.72565">
        <ele>1408</ele>
        <time>2018-11-24T10:57:56Z</time>
      </trkpt>
      <trkpt lat="42.80402" lon="0.72563">
        <ele>1407.8</ele>
        <time>2018-11-24T10:57:57Z</time>
      </trkpt>
      <trkpt lat="42.804" lon="0.72558">
        <ele>1406.5</ele>
        <time>2018-11-24T10:57:59Z</time>
      </trkpt>
      <trkpt lat="42.804" lon="0.72552">
        <ele>1403.9</ele>
        <time>2018-11-24T10:58:01Z</time>
      </trkpt>
      <trkpt lat="42.80399" lon="0.72548">
        <ele>1402.6</ele>
        <time>2018-11-24T10:58:02Z</time>
      </trkpt>
      <trkpt lat="42.80399" lon="0.72543">
        <ele>1400.5</ele>
        <time>2018-11-24T10:58:03Z</time>
      </trkpt>
      <trkpt lat="42.80397" lon="0.72538">
        <ele>1399.1</ele>
        <time>2018-11-24T10:58:05Z</time>
      </trkpt>
      <trkpt lat="42.80395" lon="0.72533">
        <ele>1397.6</ele>
        <time>2018-11-24T10:58:07Z</time>
      </trkpt>
      <trkpt lat="42.80393" lon="0.72528">
        <ele>1396</ele>
        <time>2018-11-24T10:58:09Z</time>
      </trkpt>
      <trkpt lat="42.80392" lon="0.72524">
        <ele>1394.5</ele>
        <time>2018-11-24T10:58:10Z</time>
      </trkpt>
      <trkpt lat="42.80392" lon="0.7252">
        <ele>1392.8</ele>
        <time>2018-11-24T10:58:11Z</time>
      </trkpt>
      <trkpt lat="42.80391" lon="0.72516">
        <ele>1391.3</ele>
        <time>2018-11-24T10:58:12Z</time>
      </trkpt>
      <trkpt lat="42.80392" lon="0.72512">
        <ele>1389.3</ele>
        <time>2018-11-24T10:58:13Z</time>
      </trkpt>
      <trkpt lat="42.80392" lon="0.72509">
        <ele>1388</ele>
        <time>2018-11-24T10:58:14Z</time>
      </trkpt>
      <trkpt lat="42.80391" lon="0.72505">
        <ele>1386.7</ele>
        <time>2018-11-24T10:58:15Z</time>
      </trkpt>
      <trkpt lat="42.8039" lon="0.72501">
        <ele>1385.4</ele>
        <time>2018-11-24T10:58:17Z</time>
      </trkpt>
      <trkpt lat="42.80388" lon="0.72498">
        <ele>1384.3</ele>
        <time>2018-11-24T10:58:18Z</time>
      </trkpt>
      <trkpt lat="42.80387" lon="0.72494">
        <ele>1383.4</ele>
        <time>2018-11-24T10:58:19Z</time>
      </trkpt>
      <trkpt lat="42.80387" lon="0.7249">
        <ele>1381.7</ele>
        <time>2018-11-24T10:58:20Z</time>
      </trkpt>
      <trkpt lat="42.80387" lon="0.72485">
        <ele>1380.2</ele>
        <time>2018-11-24T10:58:22Z</time>
      </trkpt>
      <trkpt lat="42.80386" lon="0.72482">
        <ele>1379.3</ele>
        <time>2018-11-24T10:58:23Z</time>
      </trkpt>
      <trkpt lat="42.80385" lon="0.72478">
        <ele>1378.1</ele>
        <time>2018-11-24T10:58:24Z</time>
      </trkpt>
      <trkpt lat="42.80384" lon="0.72474">
        <ele>1377</ele>
        <time>2018-11-24T10:58:25Z</time>
      </trkpt>
      <trkpt lat="42.80383" lon="0.72471">
        <ele>1376.1</ele>
        <time>2018-11-24T10:58:26Z</time>
      </trkpt>
      <trkpt lat="42.80382" lon="0.72468">
        <ele>1375.1</ele>
        <time>2018-11-24T10:58:27Z</time>
      </trkpt>
      <trkpt lat="42.80382" lon="0.72465">
        <ele>1373.9</ele>
        <time>2018-11-24T10:58:28Z</time>
      </trkpt>
      <trkpt lat="42.80382" lon="0.72462">
        <ele>1372.6</ele>
        <time>2018-11-24T10:58:29Z</time>
      </trkpt>
      <trkpt lat="42.80381" lon="0.72458">
        <ele>1371.2</ele>
        <time>2018-11-24T10:58:30Z</time>
      </trkpt>
      <trkpt lat="42.8038" lon="0.72453">
        <ele>1369.4</ele>
        <time>2018-11-24T10:58:32Z</time>
      </trkpt>
      <trkpt lat="42.8038" lon="0.72449">
        <ele>1367.8</ele>
        <time>2018-11-24T10:58:33Z</time>
      </trkpt>
      <trkpt lat="42.8038" lon="0.72447">
        <ele>1367</ele>
        <time>2018-11-24T10:58:33Z</time>
      </trkpt>
      <trkpt lat="42.80382" lon="0.72446">
        <ele>1366.1</ele>
        <time>2018-11-24T10:58:34Z</time>
      </trkpt>
      <trkpt lat="42.80386" lon="0.72445">
        <ele>1364.8</ele>
        <time>2018-11-24T10:58:36Z</time>
      </trkpt>
      <trkpt lat="42.80389" lon="0.72449">
        <ele>1365.8</ele>
        <time>2018-11-24T10:58:38Z</time>
      </trkpt>
      <trkpt lat="42.80393" lon="0.72447">
        <ele>1363.6</ele>
        <time>2018-11-24T10:58:39Z</time>
      </trkpt>
      <trkpt lat="42.80397" lon="0.72444">
        <ele>1361.3</ele>
        <time>2018-11-24T10:58:41Z</time>
      </trkpt>
      <trkpt lat="42.804" lon="0.72442">
        <ele>1359.5</ele>
        <time>2018-11-24T10:58:42Z</time>
      </trkpt>
      <trkpt lat="42.80403" lon="0.72441">
        <ele>1357.9</ele>
        <time>2018-11-24T10:58:44Z</time>
      </trkpt>
      <trkpt lat="42.80406" lon="0.72439">
        <ele>1356.4</ele>
        <time>2018-11-24T10:58:45Z</time>
      </trkpt>
      <trkpt lat="42.80408" lon="0.7244">
        <ele>1356.2</ele>
        <time>2018-11-24T10:58:46Z</time>
      </trkpt>
      <trkpt lat="42.80411" lon="0.72441">
        <ele>1355.5</ele>
        <time>2018-11-24T10:58:47Z</time>
      </trkpt>
      <trkpt lat="42.80413" lon="0.72442">
        <ele>1355.3</ele>
        <time>2018-11-24T10:58:48Z</time>
      </trkpt>
      <trkpt lat="42.80414" lon="0.7244">
        <ele>1354.2</ele>
        <time>2018-11-24T10:58:49Z</time>
      </trkpt>
      <trkpt lat="42.80418" lon="0.72439">
        <ele>1352.8</ele>
        <time>2018-11-24T10:58:50Z</time>
      </trkpt>
      <trkpt lat="42.80422" lon="0.72438">
        <ele>1351.1</ele>
        <time>2018-11-24T10:58:52Z</time>
      </trkpt>
      <trkpt lat="42.80426" lon="0.72436">
        <ele>1349.5</ele>
        <time>2018-11-24T10:58:54Z</time>
      </trkpt>
      <trkpt lat="42.80429" lon="0.72436">
        <ele>1348.7</ele>
        <time>2018-11-24T10:58:55Z</time>
      </trkpt>
      <trkpt lat="42.80431" lon="0.72436">
        <ele>1348</ele>
        <time>2018-11-24T10:58:56Z</time>
      </trkpt>
      <trkpt lat="42.80434" lon="0.72436">
        <ele>1347.2</ele>
        <time>2018-11-24T10:58:57Z</time>
      </trkpt>
      <trkpt lat="42.80437" lon="0.72435">
        <ele>1346.2</ele>
        <time>2018-11-24T10:58:58Z</time>
      </trkpt>
      <trkpt lat="42.8044" lon="0.72435">
        <ele>1345.2</ele>
        <time>2018-11-24T10:58:59Z</time>
      </trkpt>
      <trkpt lat="42.80443" lon="0.72433">
        <ele>1343.8</ele>
        <time>2018-11-24T10:59:00Z</time>
      </trkpt>
      <trkpt lat="42.80446" lon="0.72432">
        <ele>1342.4</ele>
        <time>2018-11-24T10:59:02Z</time>
      </trkpt>
      <trkpt lat="42.80449" lon="0.7243">
        <ele>1340.8</ele>
        <time>2018-11-24T10:59:03Z</time>
      </trkpt>
      <trkpt lat="42.80452" lon="0.72428">
        <ele>1339.3</ele>
        <time>2018-11-24T10:59:04Z</time>
      </trkpt>
      <trkpt lat="42.80454" lon="0.72425">
        <ele>1337.5</ele>
        <time>2018-11-24T10:59:06Z</time>
      </trkpt>
      <trkpt lat="42.80457" lon="0.72423">
        <ele>1335.7</ele>
        <time>2018-11-24T10:59:07Z</time>
      </trkpt>
      <trkpt lat="42.8046" lon="0.72422">
        <ele>1334.4</ele>
        <time>2018-11-24T10:59:08Z</time>
      </trkpt>
      <trkpt lat="42.80463" lon="0.72421">
        <ele>1333</ele>
        <time>2018-11-24T10:59:09Z</time>
      </trkpt>
      <trkpt lat="42.80466" lon="0.7242">
        <ele>1331.6</ele>
        <time>2018-11-24T10:59:11Z</time>
      </trkpt>
      <trkpt lat="42.80469" lon="0.72425">
        <ele>1332.4</ele>
        <time>2018-11-24T10:59:12Z</time>
      </trkpt>
      <trkpt lat="42.80471" lon="0.72429">
        <ele>1333.3</ele>
        <time>2018-11-24T10:59:14Z</time>
      </trkpt>
      <trkpt lat="42.80475" lon="0.72429">
        <ele>1332.6</ele>
        <time>2018-11-24T10:59:15Z</time>
      </trkpt>
      <trkpt lat="42.80478" lon="0.72429">
        <ele>1332</ele>
        <time>2018-11-24T10:59:17Z</time>
      </trkpt>
      <trkpt lat="42.80482" lon="0.72429">
        <ele>1331.3</ele>
        <time>2018-11-24T10:59:18Z</time>
      </trkpt>
      <trkpt lat="42.80484" lon="0.72426">
        <ele>1329.8</ele>
        <time>2018-11-24T10:59:20Z</time>
      </trkpt>
      <trkpt lat="42.80487" lon="0.72423">
        <ele>1328.4</ele>
        <time>2018-11-24T10:59:21Z</time>
      </trkpt>
      <trkpt lat="42.80489" lon="0.7242">
        <ele>1326.8</ele>
        <time>2018-11-24T10:59:22Z</time>
      </trkpt>
      <trkpt lat="42.80492" lon="0.72417">
        <ele>1325.5</ele>
        <time>2018-11-24T10:59:23Z</time>
      </trkpt>
      <trkpt lat="42.80494" lon="0.72415">
        <ele>1324</ele>
        <time>2018-11-24T10:59:25Z</time>
      </trkpt>
      <trkpt lat="42.80497" lon="0.72412">
        <ele>1322.5</ele>
        <time>2018-11-24T10:59:26Z</time>
      </trkpt>
      <trkpt lat="42.805" lon="0.72411">
        <ele>1321.7</ele>
        <time>2018-11-24T10:59:27Z</time>
      </trkpt>
      <trkpt lat="42.80503" lon="0.72411">
        <ele>1320.4</ele>
        <time>2018-11-24T10:59:29Z</time>
      </trkpt>
      <trkpt lat="42.80506" lon="0.7241">
        <ele>1319.1</ele>
        <time>2018-11-24T10:59:30Z</time>
      </trkpt>
      <trkpt lat="42.80509" lon="0.72409">
        <ele>1317.6</ele>
        <time>2018-11-24T10:59:31Z</time>
      </trkpt>
      <trkpt lat="42.80512" lon="0.72409">
        <ele>1316.4</ele>
        <time>2018-11-24T10:59:32Z</time>
      </trkpt>
      <trkpt lat="42.80515" lon="0.72408">
        <ele>1315</ele>
        <time>2018-11-24T10:59:33Z</time>
      </trkpt>
      <trkpt lat="42.80518" lon="0.72406">
        <ele>1313.3</ele>
        <time>2018-11-24T10:59:35Z</time>
      </trkpt>
      <trkpt lat="42.8052" lon="0.72403">
        <ele>1311.6</ele>
        <time>2018-11-24T10:59:36Z</time>
      </trkpt>
      <trkpt lat="42.80523" lon="0.72401">
        <ele>1310</ele>
        <time>2018-11-24T10:59:37Z</time>
      </trkpt>
      <trkpt lat="42.80526" lon="0.72399">
        <ele>1308.6</ele>
        <time>2018-11-24T10:59:38Z</time>
      </trkpt>
      <trkpt lat="42.80529" lon="0.72398">
        <ele>1307.1</ele>
        <time>2018-11-24T10:59:40Z</time>
      </trkpt>
      <trkpt lat="42.80532" lon="0.72396">
        <ele>1305.8</ele>
        <time>2018-11-24T10:59:41Z</time>
      </trkpt>
      <trkpt lat="42.80534" lon="0.72393">
        <ele>1304.1</ele>
        <time>2018-11-24T10:59:42Z</time>
      </trkpt>
      <trkpt lat="42.80537" lon="0.7239">
        <ele>1302.4</ele>
        <time>2018-11-24T10:59:44Z</time>
      </trkpt>
      <trkpt lat="42.80539" lon="0.72387">
        <ele>1301</ele>
        <time>2018-11-24T10:59:45Z</time>
      </trkpt>
      <trkpt lat="42.8054" lon="0.72383">
        <ele>1299.5</ele>
        <time>2018-11-24T10:59:46Z</time>
      </trkpt>
      <trkpt lat="42.80541" lon="0.72378">
        <ele>1298.1</ele>
        <time>2018-11-24T10:59:48Z</time>
      </trkpt>
      <trkpt lat="42.80542" lon="0.72374">
        <ele>1296.7</ele>
        <time>2018-11-24T10:59:49Z</time>
      </trkpt>
      <trkpt lat="42.80542" lon="0.72371">
        <ele>1296</ele>
        <time>2018-11-24T10:59:50Z</time>
      </trkpt>
      <trkpt lat="42.80541" lon="0.72368">
        <ele>1295.5</ele>
        <time>2018-11-24T10:59:51Z</time>
      </trkpt>
      <trkpt lat="42.80539" lon="0.72363">
        <ele>1294.6</ele>
        <time>2018-11-24T10:59:52Z</time>
      </trkpt>
      <trkpt lat="42.80537" lon="0.72359">
        <ele>1294.1</ele>
        <time>2018-11-24T10:59:54Z</time>
      </trkpt>
      <trkpt lat="42.80535" lon="0.72354">
        <ele>1293.7</ele>
        <time>2018-11-24T10:59:56Z</time>
      </trkpt>
      <trkpt lat="42.80535" lon="0.72351">
        <ele>1293.2</ele>
        <time>2018-11-24T10:59:56Z</time>
      </trkpt>
      <trkpt lat="42.80535" lon="0.72348">
        <ele>1292.8</ele>
        <time>2018-11-24T10:59:57Z</time>
      </trkpt>
      <trkpt lat="42.80534" lon="0.72345">
        <ele>1292.4</ele>
        <time>2018-11-24T10:59:58Z</time>
      </trkpt>
      <trkpt lat="42.80533" lon="0.72342">
        <ele>1292</ele>
        <time>2018-11-24T10:59:59Z</time>
      </trkpt>
      <trkpt lat="42.80531" lon="0.72338">
        <ele>1291.6</ele>
        <time>2018-11-24T11:00:01Z</time>
      </trkpt>
      <trkpt lat="42.8053" lon="0.72335">
        <ele>1291</ele>
        <time>2018-11-24T11:00:02Z</time>
      </trkpt>
      <trkpt lat="42.80529" lon="0.72331">
        <ele>1290.4</ele>
        <time>2018-11-24T11:00:03Z</time>
      </trkpt>
      <trkpt lat="42.80528" lon="0.72329">
        <ele>1290</ele>
        <time>2018-11-24T11:00:04Z</time>
      </trkpt>
      <trkpt lat="42.80526" lon="0.72326">
        <ele>1289.6</ele>
        <time>2018-11-24T11:00:05Z</time>
      </trkpt>
      <trkpt lat="42.80524" lon="0.72324">
        <ele>1289.4</ele>
        <time>2018-11-24T11:00:06Z</time>
      </trkpt>
      <trkpt lat="42.80522" lon="0.72321">
        <ele>1289</ele>
        <time>2018-11-24T11:00:07Z</time>
      </trkpt>
      <trkpt lat="42.80521" lon="0.72318">
        <ele>1288.4</ele>
        <time>2018-11-24T11:00:08Z</time>
      </trkpt>
      <trkpt lat="42.80519" lon="0.72314">
        <ele>1287.7</ele>
        <time>2018-11-24T11:00:09Z</time>
      </trkpt>
      <trkpt lat="42.80517" lon="0.72311">
        <ele>1287.1</ele>
        <time>2018-11-24T11:00:10Z</time>
      </trkpt>
      <trkpt lat="42.80515" lon="0.72308">
        <ele>1286.6</ele>
        <time>2018-11-24T11:00:12Z</time>
      </trkpt>
      <trkpt lat="42.80513" lon="0.72306">
        <ele>1286.2</ele>
        <time>2018-11-24T11:00:13Z</time>
      </trkpt>
      <trkpt lat="42.80511" lon="0.72304">
        <ele>1285.9</ele>
        <time>2018-11-24T11:00:14Z</time>
      </trkpt>
      <trkpt lat="42.8051" lon="0.72302">
        <ele>1285.3</ele>
        <time>2018-11-24T11:00:15Z</time>
      </trkpt>
      <trkpt lat="42.80508" lon="0.72299">
        <ele>1284.8</ele>
        <time>2018-11-24T11:00:16Z</time>
      </trkpt>
      <trkpt lat="42.80506" lon="0.72294">
        <ele>1283.7</ele>
        <time>2018-11-24T11:00:17Z</time>
      </trkpt>
      <trkpt lat="42.80505" lon="0.72292">
        <ele>1283.2</ele>
        <time>2018-11-24T11:00:18Z</time>
      </trkpt>
      <trkpt lat="42.80503" lon="0.72289">
        <ele>1282.6</ele>
        <time>2018-11-24T11:00:19Z</time>
      </trkpt>
      <trkpt lat="42.80501" lon="0.72287">
        <ele>1282.3</ele>
        <time>2018-11-24T11:00:20Z</time>
      </trkpt>
      <trkpt lat="42.80498" lon="0.72285">
        <ele>1282.2</ele>
        <time>2018-11-24T11:00:21Z</time>
      </trkpt>
      <trkpt lat="42.80495" lon="0.72283">
        <ele>1282.3</ele>
        <time>2018-11-24T11:00:23Z</time>
      </trkpt>
      <trkpt lat="42.80492" lon="0.72281">
        <ele>1282.3</ele>
        <time>2018-11-24T11:00:24Z</time>
      </trkpt>
      <trkpt lat="42.80489" lon="0.7228">
        <ele>1282.5</ele>
        <time>2018-11-24T11:00:25Z</time>
      </trkpt>
      <trkpt lat="42.80486" lon="0.72278">
        <ele>1282.7</ele>
        <time>2018-11-24T11:00:27Z</time>
      </trkpt>
      <trkpt lat="42.80484" lon="0.72277">
        <ele>1282.6</ele>
        <time>2018-11-24T11:00:28Z</time>
      </trkpt>
      <trkpt lat="42.80481" lon="0.72275">
        <ele>1282.8</ele>
        <time>2018-11-24T11:00:29Z</time>
      </trkpt>
      <trkpt lat="42.80479" lon="0.72274">
        <ele>1282.8</ele>
        <time>2018-11-24T11:00:30Z</time>
      </trkpt>
      <trkpt lat="42.80476" lon="0.72272">
        <ele>1282.8</ele>
        <time>2018-11-24T11:00:31Z</time>
      </trkpt>
      <trkpt lat="42.80474" lon="0.7227">
        <ele>1282.7</ele>
        <time>2018-11-24T11:00:32Z</time>
      </trkpt>
      <trkpt lat="42.80472" lon="0.72268">
        <ele>1282.6</ele>
        <time>2018-11-24T11:00:33Z</time>
      </trkpt>
      <trkpt lat="42.8047" lon="0.72266">
        <ele>1282.3</ele>
        <time>2018-11-24T11:00:34Z</time>
      </trkpt>
      <trkpt lat="42.80467" lon="0.72263">
        <ele>1282</ele>
        <time>2018-11-24T11:00:35Z</time>
      </trkpt>
      <trkpt lat="42.80465" lon="0.72261">
        <ele>1281.7</ele>
        <time>2018-11-24T11:00:37Z</time>
      </trkpt>
      <trkpt lat="42.80463" lon="0.72258">
        <ele>1281.3</ele>
        <time>2018-11-24T11:00:38Z</time>
      </trkpt>
      <trkpt lat="42.8046" lon="0.72254">
        <ele>1280.8</ele>
        <time>2018-11-24T11:00:39Z</time>
      </trkpt>
      <trkpt lat="42.80458" lon="0.72252">
        <ele>1280.5</ele>
        <time>2018-11-24T11:00:41Z</time>
      </trkpt>
      <trkpt lat="42.80455" lon="0.72249">
        <ele>1280.3</ele>
        <time>2018-11-24T11:00:42Z</time>
      </trkpt>
      <trkpt lat="42.80453" lon="0.72247">
        <ele>1279.9</ele>
        <time>2018-11-24T11:00:43Z</time>
      </trkpt>
      <trkpt lat="42.80451" lon="0.72245">
        <ele>1279.6</ele>
        <time>2018-11-24T11:00:44Z</time>
      </trkpt>
      <trkpt lat="42.80449" lon="0.72244">
        <ele>1279.7</ele>
        <time>2018-11-24T11:00:45Z</time>
      </trkpt>
      <trkpt lat="42.80446" lon="0.72243">
        <ele>1279.9</ele>
        <time>2018-11-24T11:00:46Z</time>
      </trkpt>
      <trkpt lat="42.80443" lon="0.72241">
        <ele>1279.6</ele>
        <time>2018-11-24T11:00:47Z</time>
      </trkpt>
      <trkpt lat="42.80441" lon="0.72239">
        <ele>1279.2</ele>
        <time>2018-11-24T11:00:48Z</time>
      </trkpt>
      <trkpt lat="42.80439" lon="0.72236">
        <ele>1278.5</ele>
        <time>2018-11-24T11:00:49Z</time>
      </trkpt>
      <trkpt lat="42.80437" lon="0.72233">
        <ele>1277.8</ele>
        <time>2018-11-24T11:00:51Z</time>
      </trkpt>
      <trkpt lat="42.80434" lon="0.7223">
        <ele>1277.4</ele>
        <time>2018-11-24T11:00:52Z</time>
      </trkpt>
      <trkpt lat="42.80432" lon="0.72229">
        <ele>1277.1</ele>
        <time>2018-11-24T11:00:53Z</time>
      </trkpt>
      <trkpt lat="42.8043" lon="0.72227">
        <ele>1276.8</ele>
        <time>2018-11-24T11:00:54Z</time>
      </trkpt>
      <trkpt lat="42.8043" lon="0.72223">
        <ele>1275.9</ele>
        <time>2018-11-24T11:00:55Z</time>
      </trkpt>
      <trkpt lat="42.80432" lon="0.72221">
        <ele>1275.1</ele>
        <time>2018-11-24T11:00:56Z</time>
      </trkpt>
      <trkpt lat="42.80434" lon="0.7222">
        <ele>1274.6</ele>
        <time>2018-11-24T11:00:57Z</time>
      </trkpt>
      <trkpt lat="42.80437" lon="0.7222">
        <ele>1274.3</ele>
        <time>2018-11-24T11:00:58Z</time>
      </trkpt>
      <trkpt lat="42.8044" lon="0.7222">
        <ele>1274</ele>
        <time>2018-11-24T11:00:59Z</time>
      </trkpt>
      <trkpt lat="42.80443" lon="0.7222">
        <ele>1273.7</ele>
        <time>2018-11-24T11:01:01Z</time>
      </trkpt>
      <trkpt lat="42.80446" lon="0.72217">
        <ele>1272.6</ele>
        <time>2018-11-24T11:01:02Z</time>
      </trkpt>
      <trkpt lat="42.80446" lon="0.72214">
        <ele>1272.1</ele>
        <time>2018-11-24T11:01:03Z</time>
      </trkpt>
      <trkpt lat="42.80444" lon="0.72213">
        <ele>1272.1</ele>
        <time>2018-11-24T11:01:04Z</time>
      </trkpt>
      <trkpt lat="42.80442" lon="0.72212">
        <ele>1272</ele>
        <time>2018-11-24T11:01:05Z</time>
      </trkpt>
      <trkpt lat="42.8044" lon="0.7221">
        <ele>1271.8</ele>
        <time>2018-11-24T11:01:06Z</time>
      </trkpt>
      <trkpt lat="42.80438" lon="0.72208">
        <ele>1271.7</ele>
        <time>2018-11-24T11:01:07Z</time>
      </trkpt>
      <trkpt lat="42.80436" lon="0.72206">
        <ele>1271.5</ele>
        <time>2018-11-24T11:01:08Z</time>
      </trkpt>
      <trkpt lat="42.80434" lon="0.72204">
        <ele>1271.2</ele>
        <time>2018-11-24T11:01:09Z</time>
      </trkpt>
      <trkpt lat="42.80432" lon="0.72201">
        <ele>1270.8</ele>
        <time>2018-11-24T11:01:10Z</time>
      </trkpt>
      <trkpt lat="42.8043" lon="0.72199">
        <ele>1270.4</ele>
        <time>2018-11-24T11:01:11Z</time>
      </trkpt>
      <trkpt lat="42.80428" lon="0.72196">
        <ele>1270.2</ele>
        <time>2018-11-24T11:01:12Z</time>
      </trkpt>
      <trkpt lat="42.80426" lon="0.72191">
        <ele>1269.6</ele>
        <time>2018-11-24T11:01:14Z</time>
      </trkpt>
      <trkpt lat="42.80425" lon="0.72188">
        <ele>1269.3</ele>
        <time>2018-11-24T11:01:15Z</time>
      </trkpt>
      <trkpt lat="42.80423" lon="0.72185">
        <ele>1268.9</ele>
        <time>2018-11-24T11:01:16Z</time>
      </trkpt>
      <trkpt lat="42.80422" lon="0.72183">
        <ele>1268.8</ele>
        <time>2018-11-24T11:01:16Z</time>
      </trkpt>
      <trkpt lat="42.8042" lon="0.72181">
        <ele>1268.7</ele>
        <time>2018-11-24T11:01:17Z</time>
      </trkpt>
      <trkpt lat="42.80419" lon="0.72179">
        <ele>1268.6</ele>
        <time>2018-11-24T11:01:18Z</time>
      </trkpt>
      <trkpt lat="42.80417" lon="0.72176">
        <ele>1268.4</ele>
        <time>2018-11-24T11:01:19Z</time>
      </trkpt>
      <trkpt lat="42.80415" lon="0.72174">
        <ele>1268.1</ele>
        <time>2018-11-24T11:01:20Z</time>
      </trkpt>
      <trkpt lat="42.80413" lon="0.72172">
        <ele>1268.1</ele>
        <time>2018-11-24T11:01:21Z</time>
      </trkpt>
      <trkpt lat="42.80411" lon="0.72171">
        <ele>1267.9</ele>
        <time>2018-11-24T11:01:22Z</time>
      </trkpt>
      <trkpt lat="42.80408" lon="0.7217">
        <ele>1267.9</ele>
        <time>2018-11-24T11:01:23Z</time>
      </trkpt>
      <trkpt lat="42.80406" lon="0.72171">
        <ele>1268.2</ele>
        <time>2018-11-24T11:01:24Z</time>
      </trkpt>
      <trkpt lat="42.80403" lon="0.72169">
        <ele>1267.9</ele>
        <time>2018-11-24T11:01:26Z</time>
      </trkpt>
      <trkpt lat="42.80402" lon="0.72166">
        <ele>1267.5</ele>
        <time>2018-11-24T11:01:27Z</time>
      </trkpt>
      <trkpt lat="42.80402" lon="0.72161">
        <ele>1266.4</ele>
        <time>2018-11-24T11:01:28Z</time>
      </trkpt>
      <trkpt lat="42.80404" lon="0.72159">
        <ele>1265.8</ele>
        <time>2018-11-24T11:01:29Z</time>
      </trkpt>
      <trkpt lat="42.80405" lon="0.72156">
        <ele>1265.2</ele>
        <time>2018-11-24T11:01:30Z</time>
      </trkpt>
      <trkpt lat="42.80408" lon="0.72152">
        <ele>1264.2</ele>
        <time>2018-11-24T11:01:32Z</time>
      </trkpt>
      <trkpt lat="42.8041" lon="0.72149">
        <ele>1263.3</ele>
        <time>2018-11-24T11:01:33Z</time>
      </trkpt>
      <trkpt lat="42.80411" lon="0.72145">
        <ele>1262.5</ele>
        <time>2018-11-24T11:01:34Z</time>
      </trkpt>
      <trkpt lat="42.80411" lon="0.7214">
        <ele>1261.4</ele>
        <time>2018-11-24T11:01:35Z</time>
      </trkpt>
      <trkpt lat="42.80411" lon="0.72137">
        <ele>1260.7</ele>
        <time>2018-11-24T11:01:36Z</time>
      </trkpt>
      <trkpt lat="42.80413" lon="0.72134">
        <ele>1259.8</ele>
        <time>2018-11-24T11:01:38Z</time>
      </trkpt>
      <trkpt lat="42.80414" lon="0.7213">
        <ele>1258.8</ele>
        <time>2018-11-24T11:01:39Z</time>
      </trkpt>
      <trkpt lat="42.80415" lon="0.72127">
        <ele>1258.1</ele>
        <time>2018-11-24T11:01:40Z</time>
      </trkpt>
      <trkpt lat="42.80416" lon="0.72124">
        <ele>1257.3</ele>
        <time>2018-11-24T11:01:41Z</time>
      </trkpt>
      <trkpt lat="42.80419" lon="0.7212">
        <ele>1256.1</ele>
        <time>2018-11-24T11:01:42Z</time>
      </trkpt>
      <trkpt lat="42.80421" lon="0.72118">
        <ele>1255.4</ele>
        <time>2018-11-24T11:01:43Z</time>
      </trkpt>
      <trkpt lat="42.80422" lon="0.72113">
        <ele>1254.2</ele>
        <time>2018-11-24T11:01:45Z</time>
      </trkpt>
      <trkpt lat="42.80423" lon="0.7211">
        <ele>1253.2</ele>
        <time>2018-11-24T11:01:46Z</time>
      </trkpt>
      <trkpt lat="42.80423" lon="0.72107">
        <ele>1252.3</ele>
        <time>2018-11-24T11:01:47Z</time>
      </trkpt>
      <trkpt lat="42.80425" lon="0.72103">
        <ele>1250.9</ele>
        <time>2018-11-24T11:01:48Z</time>
      </trkpt>
      <trkpt lat="42.80426" lon="0.721">
        <ele>1249.8</ele>
        <time>2018-11-24T11:01:49Z</time>
      </trkpt>
      <trkpt lat="42.80426" lon="0.72097">
        <ele>1248.8</ele>
        <time>2018-11-24T11:01:50Z</time>
      </trkpt>
      <trkpt lat="42.80425" lon="0.72094">
        <ele>1247.9</ele>
        <time>2018-11-24T11:01:51Z</time>
      </trkpt>
      <trkpt lat="42.80423" lon="0.72089">
        <ele>1246.4</ele>
        <time>2018-11-24T11:01:53Z</time>
      </trkpt>
      <trkpt lat="42.80421" lon="0.72085">
        <ele>1245.4</ele>
        <time>2018-11-24T11:01:54Z</time>
      </trkpt>
      <trkpt lat="42.80418" lon="0.72081">
        <ele>1244.2</ele>
        <time>2018-11-24T11:01:56Z</time>
      </trkpt>
      <trkpt lat="42.80417" lon="0.72077">
        <ele>1242.5</ele>
        <time>2018-11-24T11:01:57Z</time>
      </trkpt>
      <trkpt lat="42.80416" lon="0.72072">
        <ele>1241</ele>
        <time>2018-11-24T11:01:58Z</time>
      </trkpt>
      <trkpt lat="42.80415" lon="0.72069">
        <ele>1239.8</ele>
        <time>2018-11-24T11:02:00Z</time>
      </trkpt>
      <trkpt lat="42.80413" lon="0.72065">
        <ele>1238.7</ele>
        <time>2018-11-24T11:02:01Z</time>
      </trkpt>
      <trkpt lat="42.80411" lon="0.72062">
        <ele>1237.6</ele>
        <time>2018-11-24T11:02:02Z</time>
      </trkpt>
      <trkpt lat="42.80409" lon="0.72059">
        <ele>1236.7</ele>
        <time>2018-11-24T11:02:03Z</time>
      </trkpt>
      <trkpt lat="42.8041" lon="0.72056">
        <ele>1235.6</ele>
        <time>2018-11-24T11:02:04Z</time>
      </trkpt>
      <trkpt lat="42.8041" lon="0.72051">
        <ele>1234</ele>
        <time>2018-11-24T11:02:06Z</time>
      </trkpt>
      <trkpt lat="42.80413" lon="0.72051">
        <ele>1233.9</ele>
        <time>2018-11-24T11:02:07Z</time>
      </trkpt>
      <trkpt lat="42.80415" lon="0.72051">
        <ele>1233.8</ele>
        <time>2018-11-24T11:02:08Z</time>
      </trkpt>
      <trkpt lat="42.80418" lon="0.72051">
        <ele>1233.7</ele>
        <time>2018-11-24T11:02:09Z</time>
      </trkpt>
      <trkpt lat="42.8042" lon="0.72051">
        <ele>1233.3</ele>
        <time>2018-11-24T11:02:10Z</time>
      </trkpt>
      <trkpt lat="42.80423" lon="0.72051">
        <ele>1233.2</ele>
        <time>2018-11-24T11:02:11Z</time>
      </trkpt>
      <trkpt lat="42.80425" lon="0.72051">
        <ele>1232.8</ele>
        <time>2018-11-24T11:02:12Z</time>
      </trkpt>
      <trkpt lat="42.80428" lon="0.72051">
        <ele>1232.4</ele>
        <time>2018-11-24T11:02:13Z</time>
      </trkpt>
      <trkpt lat="42.80431" lon="0.7205">
        <ele>1232.1</ele>
        <time>2018-11-24T11:02:14Z</time>
      </trkpt>
      <trkpt lat="42.80434" lon="0.7205">
        <ele>1231.8</ele>
        <time>2018-11-24T11:02:15Z</time>
      </trkpt>
      <trkpt lat="42.80436" lon="0.72049">
        <ele>1231.3</ele>
        <time>2018-11-24T11:02:16Z</time>
      </trkpt>
      <trkpt lat="42.80438" lon="0.72048">
        <ele>1230.6</ele>
        <time>2018-11-24T11:02:17Z</time>
      </trkpt>
      <trkpt lat="42.8044" lon="0.72046">
        <ele>1230</ele>
        <time>2018-11-24T11:02:18Z</time>
      </trkpt>
      <trkpt lat="42.80443" lon="0.72044">
        <ele>1229.3</ele>
        <time>2018-11-24T11:02:19Z</time>
      </trkpt>
      <trkpt lat="42.80445" lon="0.72042">
        <ele>1228.5</ele>
        <time>2018-11-24T11:02:20Z</time>
      </trkpt>
      <trkpt lat="42.80448" lon="0.7204">
        <ele>1227.7</ele>
        <time>2018-11-24T11:02:22Z</time>
      </trkpt>
      <trkpt lat="42.80451" lon="0.72038">
        <ele>1226.7</ele>
        <time>2018-11-24T11:02:23Z</time>
      </trkpt>
      <trkpt lat="42.80454" lon="0.72037">
        <ele>1226</ele>
        <time>2018-11-24T11:02:24Z</time>
      </trkpt>
      <trkpt lat="42.80457" lon="0.72036">
        <ele>1225.2</ele>
        <time>2018-11-24T11:02:25Z</time>
      </trkpt>
      <trkpt lat="42.8046" lon="0.72035">
        <ele>1224.4</ele>
        <time>2018-11-24T11:02:27Z</time>
      </trkpt>
      <trkpt lat="42.80463" lon="0.72034">
        <ele>1223.5</ele>
        <time>2018-11-24T11:02:28Z</time>
      </trkpt>
      <trkpt lat="42.80466" lon="0.72033">
        <ele>1222.6</ele>
        <time>2018-11-24T11:02:29Z</time>
      </trkpt>
      <trkpt lat="42.80468" lon="0.72031">
        <ele>1221.3</ele>
        <time>2018-11-24T11:02:30Z</time>
      </trkpt>
      <trkpt lat="42.80469" lon="0.72028">
        <ele>1219.8</ele>
        <time>2018-11-24T11:02:31Z</time>
      </trkpt>
      <trkpt lat="42.80469" lon="0.72024">
        <ele>1218.3</ele>
        <time>2018-11-24T11:02:32Z</time>
      </trkpt>
      <trkpt lat="42.80471" lon="0.72021">
        <ele>1216.8</ele>
        <time>2018-11-24T11:02:33Z</time>
      </trkpt>
      <trkpt lat="42.80473" lon="0.72018">
        <ele>1215.4</ele>
        <time>2018-11-24T11:02:34Z</time>
      </trkpt>
      <trkpt lat="42.80475" lon="0.72016">
        <ele>1214.4</ele>
        <time>2018-11-24T11:02:35Z</time>
      </trkpt>
      <trkpt lat="42.80477" lon="0.72014">
        <ele>1213.3</ele>
        <time>2018-11-24T11:02:36Z</time>
      </trkpt>
      <trkpt lat="42.80479" lon="0.72011">
        <ele>1211.8</ele>
        <time>2018-11-24T11:02:38Z</time>
      </trkpt>
      <trkpt lat="42.8048" lon="0.72007">
        <ele>1210.3</ele>
        <time>2018-11-24T11:02:39Z</time>
      </trkpt>
      <trkpt lat="42.80481" lon="0.72004">
        <ele>1209</ele>
        <time>2018-11-24T11:02:40Z</time>
      </trkpt>
      <trkpt lat="42.80482" lon="0.72001">
        <ele>1207.7</ele>
        <time>2018-11-24T11:02:41Z</time>
      </trkpt>
      <trkpt lat="42.80483" lon="0.71996">
        <ele>1206.1</ele>
        <time>2018-11-24T11:02:42Z</time>
      </trkpt>
      <trkpt lat="42.80484" lon="0.71991">
        <ele>1204.7</ele>
        <time>2018-11-24T11:02:44Z</time>
      </trkpt>
      <trkpt lat="42.80486" lon="0.71989">
        <ele>1204</ele>
        <time>2018-11-24T11:02:45Z</time>
      </trkpt>
      <trkpt lat="42.80485" lon="0.71987">
        <ele>1203.6</ele>
        <time>2018-11-24T11:02:46Z</time>
      </trkpt>
      <trkpt lat="42.80483" lon="0.71984">
        <ele>1203.3</ele>
        <time>2018-11-24T11:02:47Z</time>
      </trkpt>
      <trkpt lat="42.80487" lon="0.71985">
        <ele>1202.8</ele>
        <time>2018-11-24T11:02:48Z</time>
      </trkpt>
      <trkpt lat="42.80491" lon="0.71986">
        <ele>1202.4</ele>
        <time>2018-11-24T11:02:50Z</time>
      </trkpt>
      <trkpt lat="42.80495" lon="0.71986">
        <ele>1201.9</ele>
        <time>2018-11-24T11:02:51Z</time>
      </trkpt>
      <trkpt lat="42.80498" lon="0.71986">
        <ele>1201.4</ele>
        <time>2018-11-24T11:02:53Z</time>
      </trkpt>
      <trkpt lat="42.805" lon="0.71987">
        <ele>1201.2</ele>
        <time>2018-11-24T11:02:54Z</time>
      </trkpt>
      <trkpt lat="42.80504" lon="0.71985">
        <ele>1200.7</ele>
        <time>2018-11-24T11:02:55Z</time>
      </trkpt>
      <trkpt lat="42.80505" lon="0.71981">
        <ele>1200.2</ele>
        <time>2018-11-24T11:02:57Z</time>
      </trkpt>
      <trkpt lat="42.80507" lon="0.71978">
        <ele>1199.6</ele>
        <time>2018-11-24T11:02:58Z</time>
      </trkpt>
      <trkpt lat="42.80508" lon="0.71974">
        <ele>1199.2</ele>
        <time>2018-11-24T11:02:59Z</time>
      </trkpt>
      <trkpt lat="42.80509" lon="0.71971">
        <ele>1198.7</ele>
        <time>2018-11-24T11:03:00Z</time>
      </trkpt>
      <trkpt lat="42.8051" lon="0.71967">
        <ele>1198.2</ele>
        <time>2018-11-24T11:03:01Z</time>
      </trkpt>
      <trkpt lat="42.80508" lon="0.71964">
        <ele>1197.4</ele>
        <time>2018-11-24T11:03:02Z</time>
      </trkpt>
      <trkpt lat="42.80506" lon="0.7196">
        <ele>1196.5</ele>
        <time>2018-11-24T11:03:04Z</time>
      </trkpt>
      <trkpt lat="42.80503" lon="0.71957">
        <ele>1195.6</ele>
        <time>2018-11-24T11:03:05Z</time>
      </trkpt>
      <trkpt lat="42.80501" lon="0.71954">
        <ele>1194.7</ele>
        <time>2018-11-24T11:03:07Z</time>
      </trkpt>
      <trkpt lat="42.80498" lon="0.7195">
        <ele>1193.9</ele>
        <time>2018-11-24T11:03:08Z</time>
      </trkpt>
      <trkpt lat="42.80497" lon="0.71948">
        <ele>1193.5</ele>
        <time>2018-11-24T11:03:09Z</time>
      </trkpt>
      <trkpt lat="42.80496" lon="0.71944">
        <ele>1192.6</ele>
        <time>2018-11-24T11:03:10Z</time>
      </trkpt>
      <trkpt lat="42.80494" lon="0.7194">
        <ele>1191</ele>
        <time>2018-11-24T11:03:11Z</time>
      </trkpt>
      <trkpt lat="42.80495" lon="0.71937">
        <ele>1190.1</ele>
        <time>2018-11-24T11:03:12Z</time>
      </trkpt>
      <trkpt lat="42.80495" lon="0.71934">
        <ele>1189.3</ele>
        <time>2018-11-24T11:03:13Z</time>
      </trkpt>
      <trkpt lat="42.80492" lon="0.7193">
        <ele>1187.2</ele>
        <time>2018-11-24T11:03:15Z</time>
      </trkpt>
      <trkpt lat="42.8049" lon="0.71926">
        <ele>1185.3</ele>
        <time>2018-11-24T11:03:16Z</time>
      </trkpt>
      <trkpt lat="42.8049" lon="0.71924">
        <ele>1184.5</ele>
        <time>2018-11-24T11:03:17Z</time>
      </trkpt>
      <trkpt lat="42.80489" lon="0.71922">
        <ele>1183.5</ele>
        <time>2018-11-24T11:03:18Z</time>
      </trkpt>
      <trkpt lat="42.80487" lon="0.71921">
        <ele>1182.6</ele>
        <time>2018-11-24T11:03:19Z</time>
      </trkpt>
      <trkpt lat="42.80483" lon="0.71919">
        <ele>1180.5</ele>
        <time>2018-11-24T11:03:20Z</time>
      </trkpt>
      <trkpt lat="42.80481" lon="0.71918">
        <ele>1179.4</ele>
        <time>2018-11-24T11:03:21Z</time>
      </trkpt>
      <trkpt lat="42.80478" lon="0.71917">
        <ele>1178</ele>
        <time>2018-11-24T11:03:22Z</time>
      </trkpt>
      <trkpt lat="42.80476" lon="0.71916">
        <ele>1177.1</ele>
        <time>2018-11-24T11:03:23Z</time>
      </trkpt>
      <trkpt lat="42.80474" lon="0.71916">
        <ele>1176.5</ele>
        <time>2018-11-24T11:03:24Z</time>
      </trkpt>
      <trkpt lat="42.80471" lon="0.71916">
        <ele>1175.3</ele>
        <time>2018-11-24T11:03:25Z</time>
      </trkpt>
      <trkpt lat="42.80468" lon="0.71915">
        <ele>1174.4</ele>
        <time>2018-11-24T11:03:26Z</time>
      </trkpt>
      <trkpt lat="42.80466" lon="0.71917">
        <ele>1174.4</ele>
        <time>2018-11-24T11:03:27Z</time>
      </trkpt>
      <trkpt lat="42.80464" lon="0.71916">
        <ele>1173.3</ele>
        <time>2018-11-24T11:03:28Z</time>
      </trkpt>
      <trkpt lat="42.80461" lon="0.71915">
        <ele>1172.3</ele>
        <time>2018-11-24T11:03:29Z</time>
      </trkpt>
      <trkpt lat="42.80459" lon="0.71914">
        <ele>1171.1</ele>
        <time>2018-11-24T11:03:31Z</time>
      </trkpt>
      <trkpt lat="42.80456" lon="0.71912">
        <ele>1170</ele>
        <time>2018-11-24T11:03:32Z</time>
      </trkpt>
      <trkpt lat="42.80453" lon="0.71911">
        <ele>1168.5</ele>
        <time>2018-11-24T11:03:33Z</time>
      </trkpt>
      <trkpt lat="42.80449" lon="0.7191">
        <ele>1167</ele>
        <time>2018-11-24T11:03:35Z</time>
      </trkpt>
      <trkpt lat="42.80446" lon="0.71908">
        <ele>1165.3</ele>
        <time>2018-11-24T11:03:36Z</time>
      </trkpt>
      <trkpt lat="42.80442" lon="0.71907">
        <ele>1164.2</ele>
        <time>2018-11-24T11:03:37Z</time>
      </trkpt>
      <trkpt lat="42.8044" lon="0.71904">
        <ele>1162.6</ele>
        <time>2018-11-24T11:03:39Z</time>
      </trkpt>
      <trkpt lat="42.80437" lon="0.71901">
        <ele>1161</ele>
        <time>2018-11-24T11:03:40Z</time>
      </trkpt>
      <trkpt lat="42.80435" lon="0.71898">
        <ele>1159.2</ele>
        <time>2018-11-24T11:03:41Z</time>
      </trkpt>
      <trkpt lat="42.80433" lon="0.71897">
        <ele>1158.5</ele>
        <time>2018-11-24T11:03:42Z</time>
      </trkpt>
      <trkpt lat="42.80431" lon="0.71898">
        <ele>1158.4</ele>
        <time>2018-11-24T11:03:43Z</time>
      </trkpt>
      <trkpt lat="42.80428" lon="0.71895">
        <ele>1156.4</ele>
        <time>2018-11-24T11:03:45Z</time>
      </trkpt>
      <trkpt lat="42.80426" lon="0.71893">
        <ele>1155.1</ele>
        <time>2018-11-24T11:03:46Z</time>
      </trkpt>
      <trkpt lat="42.80424" lon="0.71891">
        <ele>1153.9</ele>
        <time>2018-11-24T11:03:47Z</time>
      </trkpt>
      <trkpt lat="42.80421" lon="0.71888">
        <ele>1151.8</ele>
        <time>2018-11-24T11:03:48Z</time>
      </trkpt>
      <trkpt lat="42.80417" lon="0.71886">
        <ele>1150</ele>
        <time>2018-11-24T11:03:50Z</time>
      </trkpt>
      <trkpt lat="42.80414" lon="0.71883">
        <ele>1148.8</ele>
        <time>2018-11-24T11:03:51Z</time>
      </trkpt>
      <trkpt lat="42.80411" lon="0.7188">
        <ele>1147.5</ele>
        <time>2018-11-24T11:03:53Z</time>
      </trkpt>
      <trkpt lat="42.80408" lon="0.71876">
        <ele>1146.1</ele>
        <time>2018-11-24T11:03:54Z</time>
      </trkpt>
      <trkpt lat="42.80405" lon="0.71873">
        <ele>1144.7</ele>
        <time>2018-11-24T11:03:56Z</time>
      </trkpt>
      <trkpt lat="42.80402" lon="0.7187">
        <ele>1143.2</ele>
        <time>2018-11-24T11:03:57Z</time>
      </trkpt>
      <trkpt lat="42.80398" lon="0.7187">
        <ele>1142.8</ele>
        <time>2018-11-24T11:03:59Z</time>
      </trkpt>
      <trkpt lat="42.80398" lon="0.71867">
        <ele>1141.5</ele>
        <time>2018-11-24T11:04:00Z</time>
      </trkpt>
      <trkpt lat="42.80397" lon="0.71864">
        <ele>1140.1</ele>
        <time>2018-11-24T11:04:01Z</time>
      </trkpt>
      <trkpt lat="42.80395" lon="0.71861">
        <ele>1138.6</ele>
        <time>2018-11-24T11:04:02Z</time>
      </trkpt>
      <trkpt lat="42.80393" lon="0.71857">
        <ele>1137.1</ele>
        <time>2018-11-24T11:04:03Z</time>
      </trkpt>
      <trkpt lat="42.80391" lon="0.71854">
        <ele>1135.5</ele>
        <time>2018-11-24T11:04:04Z</time>
      </trkpt>
      <trkpt lat="42.80389" lon="0.7185">
        <ele>1133.5</ele>
        <time>2018-11-24T11:04:06Z</time>
      </trkpt>
      <trkpt lat="42.80386" lon="0.71845">
        <ele>1132</ele>
        <time>2018-11-24T11:04:08Z</time>
      </trkpt>
      <trkpt lat="42.80384" lon="0.71841">
        <ele>1130.4</ele>
        <time>2018-11-24T11:04:09Z</time>
      </trkpt>
      <trkpt lat="42.80382" lon="0.71839">
        <ele>1129.7</ele>
        <time>2018-11-24T11:04:10Z</time>
      </trkpt>
      <trkpt lat="42.8038" lon="0.71835">
        <ele>1128.1</ele>
        <time>2018-11-24T11:04:12Z</time>
      </trkpt>
      <trkpt lat="42.80377" lon="0.71831">
        <ele>1126.7</ele>
        <time>2018-11-24T11:04:13Z</time>
      </trkpt>
      <trkpt lat="42.80375" lon="0.7183">
        <ele>1126.2</ele>
        <time>2018-11-24T11:04:14Z</time>
      </trkpt>
      <trkpt lat="42.80377" lon="0.71825">
        <ele>1124.3</ele>
        <time>2018-11-24T11:04:16Z</time>
      </trkpt>
      <trkpt lat="42.80377" lon="0.71821">
        <ele>1122.7</ele>
        <time>2018-11-24T11:04:17Z</time>
      </trkpt>
      <trkpt lat="42.80377" lon="0.71816">
        <ele>1121.1</ele>
        <time>2018-11-24T11:04:18Z</time>
      </trkpt>
      <trkpt lat="42.80377" lon="0.71812">
        <ele>1119.5</ele>
        <time>2018-11-24T11:04:20Z</time>
      </trkpt>
      <trkpt lat="42.80379" lon="0.71807">
        <ele>1117.6</ele>
        <time>2018-11-24T11:04:21Z</time>
      </trkpt>
      <trkpt lat="42.80381" lon="0.71803">
        <ele>1116.1</ele>
        <time>2018-11-24T11:04:23Z</time>
      </trkpt>
      <trkpt lat="42.80384" lon="0.71798">
        <ele>1114.7</ele>
        <time>2018-11-24T11:04:24Z</time>
      </trkpt>
      <trkpt lat="42.80386" lon="0.71794">
        <ele>1113.3</ele>
        <time>2018-11-24T11:04:26Z</time>
      </trkpt>
      <trkpt lat="42.80389" lon="0.71791">
        <ele>1112.4</ele>
        <time>2018-11-24T11:04:28Z</time>
      </trkpt>
      <trkpt lat="42.80392" lon="0.71789">
        <ele>1112.1</ele>
        <time>2018-11-24T11:04:29Z</time>
      </trkpt>
      <trkpt lat="42.80396" lon="0.71788">
        <ele>1111.7</ele>
        <time>2018-11-24T11:04:30Z</time>
      </trkpt>
      <trkpt lat="42.80399" lon="0.71786">
        <ele>1111.2</ele>
        <time>2018-11-24T11:04:32Z</time>
      </trkpt>
      <trkpt lat="42.80402" lon="0.71784">
        <ele>1110.6</ele>
        <time>2018-11-24T11:04:33Z</time>
      </trkpt>
      <trkpt lat="42.80404" lon="0.71781">
        <ele>1109.8</ele>
        <time>2018-11-24T11:04:34Z</time>
      </trkpt>
      <trkpt lat="42.80407" lon="0.71779">
        <ele>1109.2</ele>
        <time>2018-11-24T11:04:36Z</time>
      </trkpt>
      <trkpt lat="42.80409" lon="0.71776">
        <ele>1108.1</ele>
        <time>2018-11-24T11:04:37Z</time>
      </trkpt>
      <trkpt lat="42.80412" lon="0.71774">
        <ele>1107.1</ele>
        <time>2018-11-24T11:04:38Z</time>
      </trkpt>
      <trkpt lat="42.80414" lon="0.71771">
        <ele>1106.1</ele>
        <time>2018-11-24T11:04:39Z</time>
      </trkpt>
      <trkpt lat="42.80416" lon="0.71768">
        <ele>1104.6</ele>
        <time>2018-11-24T11:04:41Z</time>
      </trkpt>
      <trkpt lat="42.80418" lon="0.71764">
        <ele>1103.7</ele>
        <time>2018-11-24T11:04:42Z</time>
      </trkpt>
      <trkpt lat="42.8042" lon="0.71761">
        <ele>1102.9</ele>
        <time>2018-11-24T11:04:43Z</time>
      </trkpt>
      <trkpt lat="42.80421" lon="0.71756">
        <ele>1100.7</ele>
        <time>2018-11-24T11:04:45Z</time>
      </trkpt>
      <trkpt lat="42.80422" lon="0.71751">
        <ele>1098.6</ele>
        <time>2018-11-24T11:04:46Z</time>
      </trkpt>
      <trkpt lat="42.80423" lon="0.71746">
        <ele>1096.7</ele>
        <time>2018-11-24T11:04:48Z</time>
      </trkpt>
      <trkpt lat="42.80422" lon="0.71741">
        <ele>1094.6</ele>
        <time>2018-11-24T11:04:49Z</time>
      </trkpt>
      <trkpt lat="42.80422" lon="0.71737">
        <ele>1092.7</ele>
        <time>2018-11-24T11:04:50Z</time>
      </trkpt>
      <trkpt lat="42.80421" lon="0.71732">
        <ele>1090.8</ele>
        <time>2018-11-24T11:04:52Z</time>
      </trkpt>
      <trkpt lat="42.80419" lon="0.71728">
        <ele>1089</ele>
        <time>2018-11-24T11:04:53Z</time>
      </trkpt>
      <trkpt lat="42.80417" lon="0.71723">
        <ele>1087.3</ele>
        <time>2018-11-24T11:04:55Z</time>
      </trkpt>
      <trkpt lat="42.80417" lon="0.7172">
        <ele>1086.3</ele>
        <time>2018-11-24T11:04:56Z</time>
      </trkpt>
      <trkpt lat="42.80417" lon="0.71714">
        <ele>1084.4</ele>
        <time>2018-11-24T11:04:58Z</time>
      </trkpt>
      <trkpt lat="42.80418" lon="0.71709">
        <ele>1082.6</ele>
        <time>2018-11-24T11:04:59Z</time>
      </trkpt>
      <trkpt lat="42.80417" lon="0.71707">
        <ele>1081.9</ele>
        <time>2018-11-24T11:05:00Z</time>
      </trkpt>
      <trkpt lat="42.80415" lon="0.71704">
        <ele>1081</ele>
        <time>2018-11-24T11:05:01Z</time>
      </trkpt>
      <trkpt lat="42.80414" lon="0.71702">
        <ele>1080.3</ele>
        <time>2018-11-24T11:05:02Z</time>
      </trkpt>
      <trkpt lat="42.80414" lon="0.71699">
        <ele>1079.2</ele>
        <time>2018-11-24T11:05:03Z</time>
      </trkpt>
      <trkpt lat="42.80413" lon="0.71696">
        <ele>1078.1</ele>
        <time>2018-11-24T11:05:03Z</time>
      </trkpt>
      <trkpt lat="42.80412" lon="0.71693">
        <ele>1077.1</ele>
        <time>2018-11-24T11:05:05Z</time>
      </trkpt>
      <trkpt lat="42.8041" lon="0.7169">
        <ele>1076.2</ele>
        <time>2018-11-24T11:05:06Z</time>
      </trkpt>
      <trkpt lat="42.80408" lon="0.71688">
        <ele>1075.5</ele>
        <time>2018-11-24T11:05:07Z</time>
      </trkpt>
      <trkpt lat="42.80406" lon="0.71686">
        <ele>1074.8</ele>
        <time>2018-11-24T11:05:08Z</time>
      </trkpt>
      <trkpt lat="42.80405" lon="0.71683">
        <ele>1074.1</ele>
        <time>2018-11-24T11:05:09Z</time>
      </trkpt>
      <trkpt lat="42.80404" lon="0.71681">
        <ele>1073.4</ele>
        <time>2018-11-24T11:05:10Z</time>
      </trkpt>
      <trkpt lat="42.80402" lon="0.71678">
        <ele>1072.7</ele>
        <time>2018-11-24T11:05:10Z</time>
      </trkpt>
      <trkpt lat="42.80399" lon="0.71676">
        <ele>1072</ele>
        <time>2018-11-24T11:05:12Z</time>
      </trkpt>
      <trkpt lat="42.80396" lon="0.71676">
        <ele>1071.7</ele>
        <time>2018-11-24T11:05:13Z</time>
      </trkpt>
      <trkpt lat="42.80393" lon="0.71673">
        <ele>1070.7</ele>
        <time>2018-11-24T11:05:15Z</time>
      </trkpt>
      <trkpt lat="42.8039" lon="0.7167">
        <ele>1069.9</ele>
        <time>2018-11-24T11:05:16Z</time>
      </trkpt>
      <trkpt lat="42.80389" lon="0.71668">
        <ele>1069.3</ele>
        <time>2018-11-24T11:05:17Z</time>
      </trkpt>
      <trkpt lat="42.80387" lon="0.71664">
        <ele>1067.6</ele>
        <time>2018-11-24T11:05:18Z</time>
      </trkpt>
      <trkpt lat="42.80385" lon="0.71659">
        <ele>1066.1</ele>
        <time>2018-11-24T11:05:20Z</time>
      </trkpt>
      <trkpt lat="42.80383" lon="0.71655">
        <ele>1064.5</ele>
        <time>2018-11-24T11:05:21Z</time>
      </trkpt>
      <trkpt lat="42.8038" lon="0.71651">
        <ele>1063</ele>
        <time>2018-11-24T11:05:23Z</time>
      </trkpt>
      <trkpt lat="42.80377" lon="0.71647">
        <ele>1061.5</ele>
        <time>2018-11-24T11:05:25Z</time>
      </trkpt>
      <trkpt lat="42.80376" lon="0.71645">
        <ele>1060.6</ele>
        <time>2018-11-24T11:05:26Z</time>
      </trkpt>
      <trkpt lat="42.80374" lon="0.71642">
        <ele>1059.9</ele>
        <time>2018-11-24T11:05:26Z</time>
      </trkpt>
      <trkpt lat="42.80371" lon="0.71641">
        <ele>1059.1</ele>
        <time>2018-11-24T11:05:28Z</time>
      </trkpt>
      <trkpt lat="42.80369" lon="0.71642">
        <ele>1059</ele>
        <time>2018-11-24T11:05:29Z</time>
      </trkpt>
      <trkpt lat="42.80365" lon="0.71644">
        <ele>1058.4</ele>
        <time>2018-11-24T11:05:30Z</time>
      </trkpt>
      <trkpt lat="42.80361" lon="0.71645">
        <ele>1057.6</ele>
        <time>2018-11-24T11:05:32Z</time>
      </trkpt>
      <trkpt lat="42.80359" lon="0.71646">
        <ele>1057.3</ele>
        <time>2018-11-24T11:05:33Z</time>
      </trkpt>
      <trkpt lat="42.80357" lon="0.71646">
        <ele>1056.9</ele>
        <time>2018-11-24T11:05:34Z</time>
      </trkpt>
      <trkpt lat="42.80356" lon="0.71646">
        <ele>1056.8</ele>
        <time>2018-11-24T11:05:34Z</time>
      </trkpt>
      <trkpt lat="42.80354" lon="0.71641">
        <ele>1055.6</ele>
        <time>2018-11-24T11:05:35Z</time>
      </trkpt>
      <trkpt lat="42.80353" lon="0.71639">
        <ele>1055.1</ele>
        <time>2018-11-24T11:05:36Z</time>
      </trkpt>
      <trkpt lat="42.80351" lon="0.71634">
        <ele>1053.7</ele>
        <time>2018-11-24T11:05:38Z</time>
      </trkpt>
      <trkpt lat="42.8035" lon="0.71632">
        <ele>1053.1</ele>
        <time>2018-11-24T11:05:39Z</time>
      </trkpt>
      <trkpt lat="42.80348" lon="0.71629">
        <ele>1052.3</ele>
        <time>2018-11-24T11:05:40Z</time>
      </trkpt>
      <trkpt lat="42.80346" lon="0.71627">
        <ele>1051.5</ele>
        <time>2018-11-24T11:05:41Z</time>
      </trkpt>
      <trkpt lat="42.80344" lon="0.71624">
        <ele>1050.5</ele>
        <time>2018-11-24T11:05:42Z</time>
      </trkpt>
      <trkpt lat="42.80341" lon="0.7162">
        <ele>1049.2</ele>
        <time>2018-11-24T11:05:44Z</time>
      </trkpt>
      <trkpt lat="42.80341" lon="0.71618">
        <ele>1049</ele>
        <time>2018-11-24T11:05:44Z</time>
      </trkpt>
      <trkpt lat="42.80341" lon="0.71614">
        <ele>1048.2</ele>
        <time>2018-11-24T11:05:45Z</time>
      </trkpt>
      <trkpt lat="42.8034" lon="0.7161">
        <ele>1047.4</ele>
        <time>2018-11-24T11:05:47Z</time>
      </trkpt>
      <trkpt lat="42.8034" lon="0.71605">
        <ele>1046</ele>
        <time>2018-11-24T11:05:48Z</time>
      </trkpt>
      <trkpt lat="42.80339" lon="0.716">
        <ele>1044.5</ele>
        <time>2018-11-24T11:05:50Z</time>
      </trkpt>
      <trkpt lat="42.80341" lon="0.71596">
        <ele>1043.6</ele>
        <time>2018-11-24T11:05:51Z</time>
      </trkpt>
      <trkpt lat="42.80343" lon="0.71594">
        <ele>1043.2</ele>
        <time>2018-11-24T11:05:52Z</time>
      </trkpt>
      <trkpt lat="42.80344" lon="0.71591">
        <ele>1042.4</ele>
        <time>2018-11-24T11:05:53Z</time>
      </trkpt>
      <trkpt lat="42.80346" lon="0.7159">
        <ele>1042.1</ele>
        <time>2018-11-24T11:05:54Z</time>
      </trkpt>
      <trkpt lat="42.80348" lon="0.71588">
        <ele>1041.7</ele>
        <time>2018-11-24T11:05:55Z</time>
      </trkpt>
      <trkpt lat="42.80351" lon="0.71585">
        <ele>1040.7</ele>
        <time>2018-11-24T11:05:56Z</time>
      </trkpt>
      <trkpt lat="42.80353" lon="0.71582">
        <ele>1039.4</ele>
        <time>2018-11-24T11:05:57Z</time>
      </trkpt>
      <trkpt lat="42.80355" lon="0.7158">
        <ele>1038.4</ele>
        <time>2018-11-24T11:05:59Z</time>
      </trkpt>
      <trkpt lat="42.80357" lon="0.71577">
        <ele>1037.2</ele>
        <time>2018-11-24T11:06:00Z</time>
      </trkpt>
      <trkpt lat="42.8036" lon="0.71577">
        <ele>1037.1</ele>
        <time>2018-11-24T11:06:01Z</time>
      </trkpt>
      <trkpt lat="42.80364" lon="0.71577">
        <ele>1036.5</ele>
        <time>2018-11-24T11:06:02Z</time>
      </trkpt>
      <trkpt lat="42.80368" lon="0.71578">
        <ele>1036.4</ele>
        <time>2018-11-24T11:06:04Z</time>
      </trkpt>
      <trkpt lat="42.80372" lon="0.71578">
        <ele>1035.5</ele>
        <time>2018-11-24T11:06:05Z</time>
      </trkpt>
      <trkpt lat="42.80375" lon="0.71577">
        <ele>1034.6</ele>
        <time>2018-11-24T11:06:07Z</time>
      </trkpt>
      <trkpt lat="42.80378" lon="0.71576">
        <ele>1033.3</ele>
        <time>2018-11-24T11:06:08Z</time>
      </trkpt>
      <trkpt lat="42.8038" lon="0.71574">
        <ele>1032.1</ele>
        <time>2018-11-24T11:06:09Z</time>
      </trkpt>
      <trkpt lat="42.80382" lon="0.71572">
        <ele>1030.6</ele>
        <time>2018-11-24T11:06:10Z</time>
      </trkpt>
      <trkpt lat="42.80386" lon="0.71573">
        <ele>1030.3</ele>
        <time>2018-11-24T11:06:12Z</time>
      </trkpt>
      <trkpt lat="42.80388" lon="0.71571">
        <ele>1028.6</ele>
        <time>2018-11-24T11:06:13Z</time>
      </trkpt>
      <trkpt lat="42.8039" lon="0.71569">
        <ele>1027</ele>
        <time>2018-11-24T11:06:14Z</time>
      </trkpt>
      <trkpt lat="42.80394" lon="0.71568">
        <ele>1025.4</ele>
        <time>2018-11-24T11:06:15Z</time>
      </trkpt>
      <trkpt lat="42.80397" lon="0.71567">
        <ele>1023.8</ele>
        <time>2018-11-24T11:06:17Z</time>
      </trkpt>
      <trkpt lat="42.804" lon="0.71566">
        <ele>1022.3</ele>
        <time>2018-11-24T11:06:18Z</time>
      </trkpt>
      <trkpt lat="42.80402" lon="0.71564">
        <ele>1020.5</ele>
        <time>2018-11-24T11:06:19Z</time>
      </trkpt>
      <trkpt lat="42.80406" lon="0.71563">
        <ele>1018.7</ele>
        <time>2018-11-24T11:06:20Z</time>
      </trkpt>
      <trkpt lat="42.80411" lon="0.71562">
        <ele>1016.8</ele>
        <time>2018-11-24T11:06:22Z</time>
      </trkpt>
      <trkpt lat="42.80415" lon="0.71561">
        <ele>1015.1</ele>
        <time>2018-11-24T11:06:24Z</time>
      </trkpt>
      <trkpt lat="42.80417" lon="0.71558">
        <ele>1012.5</ele>
        <time>2018-11-24T11:06:25Z</time>
      </trkpt>
      <trkpt lat="42.8042" lon="0.71557">
        <ele>1010.9</ele>
        <time>2018-11-24T11:06:26Z</time>
      </trkpt>
      <trkpt lat="42.80422" lon="0.71556">
        <ele>1009.5</ele>
        <time>2018-11-24T11:06:27Z</time>
      </trkpt>
      <trkpt lat="42.80423" lon="0.71554">
        <ele>1007.9</ele>
        <time>2018-11-24T11:06:28Z</time>
      </trkpt>
      <trkpt lat="42.80426" lon="0.7155">
        <ele>1004.6</ele>
        <time>2018-11-24T11:06:30Z</time>
      </trkpt>
      <trkpt lat="42.80428" lon="0.71545">
        <ele>1001.1</ele>
        <time>2018-11-24T11:06:31Z</time>
      </trkpt>
      <trkpt lat="42.80429" lon="0.7154">
        <ele>998</ele>
        <time>2018-11-24T11:06:33Z</time>
      </trkpt>
      <trkpt lat="42.8043" lon="0.71535">
        <ele>994.9</ele>
        <time>2018-11-24T11:06:34Z</time>
      </trkpt>
      <trkpt lat="42.80431" lon="0.71533">
        <ele>993.3</ele>
        <time>2018-11-24T11:06:35Z</time>
      </trkpt>
      <trkpt lat="42.80434" lon="0.71533">
        <ele>992</ele>
        <time>2018-11-24T11:06:36Z</time>
      </trkpt>
      <trkpt lat="42.80438" lon="0.71533">
        <ele>989.9</ele>
        <time>2018-11-24T11:06:38Z</time>
      </trkpt>
      <trkpt lat="42.80442" lon="0.71532">
        <ele>987.8</ele>
        <time>2018-11-24T11:06:39Z</time>
      </trkpt>
      <trkpt lat="42.80446" lon="0.71532">
        <ele>985.7</ele>
        <time>2018-11-24T11:06:41Z</time>
      </trkpt>
      <trkpt lat="42.8045" lon="0.71531">
        <ele>983.8</ele>
        <time>2018-11-24T11:06:43Z</time>
      </trkpt>
      <trkpt lat="42.80454" lon="0.71533">
        <ele>983.1</ele>
        <time>2018-11-24T11:06:44Z</time>
      </trkpt>
      <trkpt lat="42.80458" lon="0.71534">
        <ele>982.4</ele>
        <time>2018-11-24T11:06:46Z</time>
      </trkpt>
      <trkpt lat="42.80462" lon="0.71536">
        <ele>981.6</ele>
        <time>2018-11-24T11:06:48Z</time>
      </trkpt>
      <trkpt lat="42.80465" lon="0.71535">
        <ele>979.4</ele>
        <time>2018-11-24T11:06:49Z</time>
      </trkpt>
      <trkpt lat="42.80469" lon="0.71533">
        <ele>977.3</ele>
        <time>2018-11-24T11:06:50Z</time>
      </trkpt>
      <trkpt lat="42.80472" lon="0.71532">
        <ele>975.2</ele>
        <time>2018-11-24T11:06:52Z</time>
      </trkpt>
      <trkpt lat="42.80477" lon="0.71532">
        <ele>974.7</ele>
        <time>2018-11-24T11:06:54Z</time>
      </trkpt>
      <trkpt lat="42.80481" lon="0.71532">
        <ele>974.2</ele>
        <time>2018-11-24T11:06:55Z</time>
      </trkpt>
      <trkpt lat="42.80484" lon="0.71528">
        <ele>971.7</ele>
        <time>2018-11-24T11:06:57Z</time>
      </trkpt>
      <trkpt lat="42.80486" lon="0.71523">
        <ele>969.3</ele>
        <time>2018-11-24T11:06:59Z</time>
      </trkpt>
      <trkpt lat="42.80488" lon="0.7152">
        <ele>967.4</ele>
        <time>2018-11-24T11:07:00Z</time>
      </trkpt>
      <trkpt lat="42.80491" lon="0.71516">
        <ele>965.3</ele>
        <time>2018-11-24T11:07:02Z</time>
      </trkpt>
      <trkpt lat="42.80493" lon="0.71513">
        <ele>963.3</ele>
        <time>2018-11-24T11:07:03Z</time>
      </trkpt>
      <trkpt lat="42.80496" lon="0.71511">
        <ele>961.8</ele>
        <time>2018-11-24T11:07:04Z</time>
      </trkpt>
      <trkpt lat="42.80498" lon="0.71509">
        <ele>960.2</ele>
        <time>2018-11-24T11:07:05Z</time>
      </trkpt>
      <trkpt lat="42.805" lon="0.71507">
        <ele>958.8</ele>
        <time>2018-11-24T11:07:06Z</time>
      </trkpt>
      <trkpt lat="42.80503" lon="0.71504">
        <ele>956.5</ele>
        <time>2018-11-24T11:07:08Z</time>
      </trkpt>
      <trkpt lat="42.80506" lon="0.71501">
        <ele>954.2</ele>
        <time>2018-11-24T11:07:09Z</time>
      </trkpt>
      <trkpt lat="42.80509" lon="0.715">
        <ele>953</ele>
        <time>2018-11-24T11:07:10Z</time>
      </trkpt>
      <trkpt lat="42.80511" lon="0.71498">
        <ele>951.6</ele>
        <time>2018-11-24T11:07:11Z</time>
      </trkpt>
      <trkpt lat="42.80513" lon="0.71496">
        <ele>950.1</ele>
        <time>2018-11-24T11:07:12Z</time>
      </trkpt>
      <trkpt lat="42.80515" lon="0.71495">
        <ele>949.1</ele>
        <time>2018-11-24T11:07:13Z</time>
      </trkpt>
      <trkpt lat="42.80518" lon="0.71491">
        <ele>946.2</ele>
        <time>2018-11-24T11:07:15Z</time>
      </trkpt>
      <trkpt lat="42.80521" lon="0.7149">
        <ele>945.1</ele>
        <time>2018-11-24T11:07:16Z</time>
      </trkpt>
      <trkpt lat="42.80524" lon="0.71489">
        <ele>943.9</ele>
        <time>2018-11-24T11:07:17Z</time>
      </trkpt>
      <trkpt lat="42.80525" lon="0.71491">
        <ele>944.8</ele>
        <time>2018-11-24T11:07:18Z</time>
      </trkpt>
      <trkpt lat="42.80526" lon="0.71494">
        <ele>946.2</ele>
        <time>2018-11-24T11:07:19Z</time>
      </trkpt>
      <trkpt lat="42.80527" lon="0.71497">
        <ele>947.5</ele>
        <time>2018-11-24T11:07:20Z</time>
      </trkpt>
      <trkpt lat="42.8053" lon="0.71499">
        <ele>946.6</ele>
        <time>2018-11-24T11:07:21Z</time>
      </trkpt>
      <trkpt lat="42.80533" lon="0.715">
        <ele>945.3</ele>
        <time>2018-11-24T11:07:23Z</time>
      </trkpt>
      <trkpt lat="42.80536" lon="0.71501">
        <ele>943.8</ele>
        <time>2018-11-24T11:07:24Z</time>
      </trkpt>
      <trkpt lat="42.80539" lon="0.71503">
        <ele>942.4</ele>
        <time>2018-11-24T11:07:25Z</time>
      </trkpt>
      <trkpt lat="42.80542" lon="0.71504">
        <ele>940.8</ele>
        <time>2018-11-24T11:07:26Z</time>
      </trkpt>
      <trkpt lat="42.80546" lon="0.71505">
        <ele>938.5</ele>
        <time>2018-11-24T11:07:28Z</time>
      </trkpt>
      <trkpt lat="42.80548" lon="0.71508">
        <ele>939.1</ele>
        <time>2018-11-24T11:07:29Z</time>
      </trkpt>
      <trkpt lat="42.80549" lon="0.71511">
        <ele>939.6</ele>
        <time>2018-11-24T11:07:30Z</time>
      </trkpt>
      <trkpt lat="42.80552" lon="0.71514">
        <ele>939</ele>
        <time>2018-11-24T11:07:32Z</time>
      </trkpt>
      <trkpt lat="42.80555" lon="0.71514">
        <ele>937.4</ele>
        <time>2018-11-24T11:07:33Z</time>
      </trkpt>
      <trkpt lat="42.80557" lon="0.71514">
        <ele>935.8</ele>
        <time>2018-11-24T11:07:34Z</time>
      </trkpt>
      <trkpt lat="42.80561" lon="0.71514">
        <ele>933.6</ele>
        <time>2018-11-24T11:07:35Z</time>
      </trkpt>
      <trkpt lat="42.80564" lon="0.71514">
        <ele>931.5</ele>
        <time>2018-11-24T11:07:36Z</time>
      </trkpt>
      <trkpt lat="42.80567" lon="0.71516">
        <ele>930.9</ele>
        <time>2018-11-24T11:07:37Z</time>
      </trkpt>
      <trkpt lat="42.80569" lon="0.71517">
        <ele>930.2</ele>
        <time>2018-11-24T11:07:39Z</time>
      </trkpt>
      <trkpt lat="42.80573" lon="0.71519">
        <ele>929.2</ele>
        <time>2018-11-24T11:07:40Z</time>
      </trkpt>
      <trkpt lat="42.80576" lon="0.71521">
        <ele>928</ele>
        <time>2018-11-24T11:07:42Z</time>
      </trkpt>
      <trkpt lat="42.80579" lon="0.71523">
        <ele>927.3</ele>
        <time>2018-11-24T11:07:43Z</time>
      </trkpt>
      <trkpt lat="42.80583" lon="0.71523">
        <ele>924.8</ele>
        <time>2018-11-24T11:07:45Z</time>
      </trkpt>
      <trkpt lat="42.80587" lon="0.71523">
        <ele>922.6</ele>
        <time>2018-11-24T11:07:46Z</time>
      </trkpt>
      <trkpt lat="42.8059" lon="0.71521">
        <ele>920</ele>
        <time>2018-11-24T11:07:47Z</time>
      </trkpt>
      <trkpt lat="42.80593" lon="0.71519">
        <ele>917.4</ele>
        <time>2018-11-24T11:07:49Z</time>
      </trkpt>
      <trkpt lat="42.80596" lon="0.71517">
        <ele>914.8</ele>
        <time>2018-11-24T11:07:50Z</time>
      </trkpt>
      <trkpt lat="42.80598" lon="0.71516">
        <ele>913.1</ele>
        <time>2018-11-24T11:07:51Z</time>
      </trkpt>
      <trkpt lat="42.806" lon="0.71514">
        <ele>911.3</ele>
        <time>2018-11-24T11:07:52Z</time>
      </trkpt>
      <trkpt lat="42.80602" lon="0.71512">
        <ele>909.4</ele>
        <time>2018-11-24T11:07:53Z</time>
      </trkpt>
      <trkpt lat="42.80604" lon="0.7151">
        <ele>907.7</ele>
        <time>2018-11-24T11:07:54Z</time>
      </trkpt>
      <trkpt lat="42.80605" lon="0.71505">
        <ele>905.2</ele>
        <time>2018-11-24T11:07:55Z</time>
      </trkpt>
      <trkpt lat="42.80605" lon="0.715">
        <ele>902.9</ele>
        <time>2018-11-24T11:07:57Z</time>
      </trkpt>
      <trkpt lat="42.80606" lon="0.71497">
        <ele>901.1</ele>
        <time>2018-11-24T11:07:58Z</time>
      </trkpt>
      <trkpt lat="42.80606" lon="0.71494">
        <ele>899.8</ele>
        <time>2018-11-24T11:07:59Z</time>
      </trkpt>
      <trkpt lat="42.80605" lon="0.71491">
        <ele>898.7</ele>
        <time>2018-11-24T11:08:00Z</time>
      </trkpt>
      <trkpt lat="42.80602" lon="0.71492">
        <ele>900.6</ele>
        <time>2018-11-24T11:08:01Z</time>
      </trkpt>
      <trkpt lat="42.80599" lon="0.71494">
        <ele>903</ele>
        <time>2018-11-24T11:08:02Z</time>
      </trkpt>
      <trkpt lat="42.80595" lon="0.71495">
        <ele>905.2</ele>
        <time>2018-11-24T11:08:04Z</time>
      </trkpt>
      <trkpt lat="42.80597" lon="0.71491">
        <ele>902.5</ele>
        <time>2018-11-24T11:08:05Z</time>
      </trkpt>
      <trkpt lat="42.80598" lon="0.71487">
        <ele>899.9</ele>
        <time>2018-11-24T11:08:07Z</time>
      </trkpt>
      <trkpt lat="42.806" lon="0.71483">
        <ele>897.3</ele>
        <time>2018-11-24T11:08:08Z</time>
      </trkpt>
      <trkpt lat="42.806" lon="0.71479">
        <ele>895.7</ele>
        <time>2018-11-24T11:08:09Z</time>
      </trkpt>
      <trkpt lat="42.80599" lon="0.71475">
        <ele>894.1</ele>
        <time>2018-11-24T11:08:10Z</time>
      </trkpt>
      <trkpt lat="42.80597" lon="0.71471">
        <ele>893</ele>
        <time>2018-11-24T11:08:12Z</time>
      </trkpt>
      <trkpt lat="42.80595" lon="0.71467">
        <ele>891.9</ele>
        <time>2018-11-24T11:08:13Z</time>
      </trkpt>
      <trkpt lat="42.80594" lon="0.71462">
        <ele>889.8</ele>
        <time>2018-11-24T11:08:15Z</time>
      </trkpt>
      <trkpt lat="42.80594" lon="0.71458">
        <ele>887.9</ele>
        <time>2018-11-24T11:08:16Z</time>
      </trkpt>
      <trkpt lat="42.80593" lon="0.71453">
        <ele>885.9</ele>
        <time>2018-11-24T11:08:17Z</time>
      </trkpt>
      <trkpt lat="42.80592" lon="0.71448">
        <ele>883.9</ele>
        <time>2018-11-24T11:08:19Z</time>
      </trkpt>
      <trkpt lat="42.80593" lon="0.71444">
        <ele>881.1</ele>
        <time>2018-11-24T11:08:20Z</time>
      </trkpt>
      <trkpt lat="42.80594" lon="0.71439">
        <ele>878.5</ele>
        <time>2018-11-24T11:08:22Z</time>
      </trkpt>
      <trkpt lat="42.80595" lon="0.71435">
        <ele>876</ele>
        <time>2018-11-24T11:08:23Z</time>
      </trkpt>
      <trkpt lat="42.80597" lon="0.71435">
        <ele>875</ele>
        <time>2018-11-24T11:08:24Z</time>
      </trkpt>
      <trkpt lat="42.806" lon="0.71437">
        <ele>874.4</ele>
        <time>2018-11-24T11:08:25Z</time>
      </trkpt>
      <trkpt lat="42.80602" lon="0.7144">
        <ele>874.1</ele>
        <time>2018-11-24T11:08:26Z</time>
      </trkpt>
      <trkpt lat="42.80605" lon="0.71442">
        <ele>873.5</ele>
        <time>2018-11-24T11:08:27Z</time>
      </trkpt>
      <trkpt lat="42.80608" lon="0.71444">
        <ele>872.5</ele>
        <time>2018-11-24T11:08:29Z</time>
      </trkpt>
      <trkpt lat="42.80611" lon="0.71445">
        <ele>871.5</ele>
        <time>2018-11-24T11:08:30Z</time>
      </trkpt>
      <trkpt lat="42.80614" lon="0.71445">
        <ele>869.8</ele>
        <time>2018-11-24T11:08:31Z</time>
      </trkpt>
      <trkpt lat="42.80618" lon="0.71445">
        <ele>868.1</ele>
        <time>2018-11-24T11:08:33Z</time>
      </trkpt>
      <trkpt lat="42.80621" lon="0.71445">
        <ele>866.4</ele>
        <time>2018-11-24T11:08:34Z</time>
      </trkpt>
      <trkpt lat="42.80624" lon="0.71446">
        <ele>865.1</ele>
        <time>2018-11-24T11:08:35Z</time>
      </trkpt>
      <trkpt lat="42.80628" lon="0.71446">
        <ele>863.7</ele>
        <time>2018-11-24T11:08:37Z</time>
      </trkpt>
      <trkpt lat="42.80631" lon="0.71447">
        <ele>862.4</ele>
        <time>2018-11-24T11:08:38Z</time>
      </trkpt>
      <trkpt lat="42.80634" lon="0.71447">
        <ele>861</ele>
        <time>2018-11-24T11:08:39Z</time>
      </trkpt>
      <trkpt lat="42.80638" lon="0.71448">
        <ele>859.5</ele>
        <time>2018-11-24T11:08:41Z</time>
      </trkpt>
      <trkpt lat="42.80641" lon="0.71448">
        <ele>858.3</ele>
        <time>2018-11-24T11:08:42Z</time>
      </trkpt>
      <trkpt lat="42.80646" lon="0.71448">
        <ele>856.7</ele>
        <time>2018-11-24T11:08:44Z</time>
      </trkpt>
      <trkpt lat="42.8065" lon="0.71448">
        <ele>855</ele>
        <time>2018-11-24T11:08:46Z</time>
      </trkpt>
      <trkpt lat="42.80653" lon="0.71446">
        <ele>852.9</ele>
        <time>2018-11-24T11:08:47Z</time>
      </trkpt>
      <trkpt lat="42.80656" lon="0.71445">
        <ele>851</ele>
        <time>2018-11-24T11:08:48Z</time>
      </trkpt>
      <trkpt lat="42.80659" lon="0.71443">
        <ele>849</ele>
        <time>2018-11-24T11:08:50Z</time>
      </trkpt>
      <trkpt lat="42.80663" lon="0.71443">
        <ele>847.6</ele>
        <time>2018-11-24T11:08:51Z</time>
      </trkpt>
      <trkpt lat="42.80667" lon="0.71444">
        <ele>846.6</ele>
        <time>2018-11-24T11:08:53Z</time>
      </trkpt>
      <trkpt lat="42.80671" lon="0.71443">
        <ele>844</ele>
        <time>2018-11-24T11:08:54Z</time>
      </trkpt>
      <trkpt lat="42.80675" lon="0.71443">
        <ele>842.3</ele>
        <time>2018-11-24T11:08:56Z</time>
      </trkpt>
      <trkpt lat="42.80678" lon="0.71443">
        <ele>840.5</ele>
        <time>2018-11-24T11:08:57Z</time>
      </trkpt>
      <trkpt lat="42.80682" lon="0.71445">
        <ele>839.8</ele>
        <time>2018-11-24T11:08:59Z</time>
      </trkpt>
      <trkpt lat="42.80686" lon="0.71448">
        <ele>838.7</ele>
        <time>2018-11-24T11:09:01Z</time>
      </trkpt>
      <trkpt lat="42.8069" lon="0.7145">
        <ele>837.6</ele>
        <time>2018-11-24T11:09:02Z</time>
      </trkpt>
      <trkpt lat="42.80692" lon="0.71452">
        <ele>837.3</ele>
        <time>2018-11-24T11:09:03Z</time>
      </trkpt>
      <trkpt lat="42.80695" lon="0.71455">
        <ele>837</ele>
        <time>2018-11-24T11:09:05Z</time>
      </trkpt>
      <trkpt lat="42.80697" lon="0.71457">
        <ele>836.8</ele>
        <time>2018-11-24T11:09:06Z</time>
      </trkpt>
      <trkpt lat="42.80701" lon="0.71458">
        <ele>835.3</ele>
        <time>2018-11-24T11:09:08Z</time>
      </trkpt>
      <trkpt lat="42.80705" lon="0.71458">
        <ele>833.8</ele>
        <time>2018-11-24T11:09:09Z</time>
      </trkpt>
      <trkpt lat="42.80708" lon="0.71458">
        <ele>832.1</ele>
        <time>2018-11-24T11:09:10Z</time>
      </trkpt>
      <trkpt lat="42.80712" lon="0.71456">
        <ele>829.6</ele>
        <time>2018-11-24T11:09:12Z</time>
      </trkpt>
      <trkpt lat="42.80716" lon="0.71455">
        <ele>827.2</ele>
        <time>2018-11-24T11:09:14Z</time>
      </trkpt>
      <trkpt lat="42.8072" lon="0.71453">
        <ele>824.9</ele>
        <time>2018-11-24T11:09:15Z</time>
      </trkpt>
      <trkpt lat="42.80722" lon="0.7145">
        <ele>823</ele>
        <time>2018-11-24T11:09:17Z</time>
      </trkpt>
      <trkpt lat="42.80724" lon="0.71447">
        <ele>821.3</ele>
        <time>2018-11-24T11:09:18Z</time>
      </trkpt>
      <trkpt lat="42.80726" lon="0.71445">
        <ele>820.2</ele>
        <time>2018-11-24T11:09:19Z</time>
      </trkpt>
      <trkpt lat="42.80728" lon="0.71443">
        <ele>818.9</ele>
        <time>2018-11-24T11:09:20Z</time>
      </trkpt>
      <trkpt lat="42.8073" lon="0.71441">
        <ele>817.8</ele>
        <time>2018-11-24T11:09:21Z</time>
      </trkpt>
      <trkpt lat="42.80731" lon="0.71438">
        <ele>816.7</ele>
        <time>2018-11-24T11:09:22Z</time>
      </trkpt>
      <trkpt lat="42.80734" lon="0.71434">
        <ele>814.7</ele>
        <time>2018-11-24T11:09:23Z</time>
      </trkpt>
      <trkpt lat="42.80734" lon="0.71431">
        <ele>813.9</ele>
        <time>2018-11-24T11:09:24Z</time>
      </trkpt>
      <trkpt lat="42.80733" lon="0.71428">
        <ele>813.4</ele>
        <time>2018-11-24T11:09:25Z</time>
      </trkpt>
      <trkpt lat="42.80734" lon="0.71425">
        <ele>812.2</ele>
        <time>2018-11-24T11:09:26Z</time>
      </trkpt>
      <trkpt lat="42.80735" lon="0.71422">
        <ele>811.2</ele>
        <time>2018-11-24T11:09:27Z</time>
      </trkpt>
      <trkpt lat="42.80736" lon="0.71419">
        <ele>810.3</ele>
        <time>2018-11-24T11:09:28Z</time>
      </trkpt>
      <trkpt lat="42.80736" lon="0.71416">
        <ele>809.3</ele>
        <time>2018-11-24T11:09:29Z</time>
      </trkpt>
      <trkpt lat="42.80738" lon="0.71416">
        <ele>809</ele>
        <time>2018-11-24T11:09:30Z</time>
      </trkpt>
      <trkpt lat="42.8074" lon="0.71418">
        <ele>809</ele>
        <time>2018-11-24T11:09:31Z</time>
      </trkpt>
      <trkpt lat="42.80742" lon="0.71419">
        <ele>809.1</ele>
        <time>2018-11-24T11:09:32Z</time>
      </trkpt>
      <trkpt lat="42.80744" lon="0.71422">
        <ele>809.6</ele>
        <time>2018-11-24T11:09:33Z</time>
      </trkpt>
      <trkpt lat="42.80745" lon="0.71425">
        <ele>810</ele>
        <time>2018-11-24T11:09:34Z</time>
      </trkpt>
      <trkpt lat="42.80747" lon="0.71427">
        <ele>810</ele>
        <time>2018-11-24T11:09:35Z</time>
      </trkpt>
      <trkpt lat="42.80749" lon="0.71431">
        <ele>810.4</ele>
        <time>2018-11-24T11:09:36Z</time>
      </trkpt>
      <trkpt lat="42.80751" lon="0.71434">
        <ele>810.4</ele>
        <time>2018-11-24T11:09:37Z</time>
      </trkpt>
      <trkpt lat="42.80752" lon="0.71437">
        <ele>810.1</ele>
        <time>2018-11-24T11:09:38Z</time>
      </trkpt>
      <trkpt lat="42.80754" lon="0.71442">
        <ele>810</ele>
        <time>2018-11-24T11:09:40Z</time>
      </trkpt>
      <trkpt lat="42.80755" lon="0.71446">
        <ele>810.4</ele>
        <time>2018-11-24T11:09:41Z</time>
      </trkpt>
      <trkpt lat="42.80756" lon="0.71449">
        <ele>811.1</ele>
        <time>2018-11-24T11:09:42Z</time>
      </trkpt>
      <trkpt lat="42.80756" lon="0.71455">
        <ele>813.3</ele>
        <time>2018-11-24T11:09:44Z</time>
      </trkpt>
      <trkpt lat="42.80757" lon="0.71459">
        <ele>814.4</ele>
        <time>2018-11-24T11:09:45Z</time>
      </trkpt>
      <trkpt lat="42.80757" lon="0.71464">
        <ele>815.4</ele>
        <time>2018-11-24T11:09:46Z</time>
      </trkpt>
      <trkpt lat="42.80758" lon="0.71468">
        <ele>816.6</ele>
        <time>2018-11-24T11:09:48Z</time>
      </trkpt>
      <trkpt lat="42.80759" lon="0.71474">
        <ele>817.3</ele>
        <time>2018-11-24T11:09:49Z</time>
      </trkpt>
      <trkpt lat="42.80761" lon="0.71479">
        <ele>817.5</ele>
        <time>2018-11-24T11:09:51Z</time>
      </trkpt>
      <trkpt lat="42.80762" lon="0.71485">
        <ele>817.8</ele>
        <time>2018-11-24T11:09:53Z</time>
      </trkpt>
      <trkpt lat="42.80763" lon="0.7149">
        <ele>818.2</ele>
        <time>2018-11-24T11:09:55Z</time>
      </trkpt>
      <trkpt lat="42.80767" lon="0.71493">
        <ele>816.5</ele>
        <time>2018-11-24T11:09:56Z</time>
      </trkpt>
      <trkpt lat="42.80771" lon="0.71495">
        <ele>814.9</ele>
        <time>2018-11-24T11:09:58Z</time>
      </trkpt>
      <trkpt lat="42.80774" lon="0.71497">
        <ele>814.1</ele>
        <time>2018-11-24T11:09:59Z</time>
      </trkpt>
      <trkpt lat="42.80776" lon="0.71499">
        <ele>813.5</ele>
        <time>2018-11-24T11:10:00Z</time>
      </trkpt>
      <trkpt lat="42.80779" lon="0.71501">
        <ele>812.5</ele>
        <time>2018-11-24T11:10:02Z</time>
      </trkpt>
      <trkpt lat="42.8078" lon="0.71505">
        <ele>812.7</ele>
        <time>2018-11-24T11:10:03Z</time>
      </trkpt>
      <trkpt lat="42.80782" lon="0.7151">
        <ele>812.9</ele>
        <time>2018-11-24T11:10:04Z</time>
      </trkpt>
      <trkpt lat="42.80783" lon="0.71514">
        <ele>813.2</ele>
        <time>2018-11-24T11:10:06Z</time>
      </trkpt>
      <trkpt lat="42.80786" lon="0.71517">
        <ele>812.3</ele>
        <time>2018-11-24T11:10:07Z</time>
      </trkpt>
      <trkpt lat="42.80788" lon="0.7152">
        <ele>812.1</ele>
        <time>2018-11-24T11:10:09Z</time>
      </trkpt>
      <trkpt lat="42.8079" lon="0.71523">
        <ele>811.9</ele>
        <time>2018-11-24T11:10:10Z</time>
      </trkpt>
      <trkpt lat="42.80793" lon="0.71526">
        <ele>811.7</ele>
        <time>2018-11-24T11:10:11Z</time>
      </trkpt>
      <trkpt lat="42.80795" lon="0.7153">
        <ele>811.3</ele>
        <time>2018-11-24T11:10:12Z</time>
      </trkpt>
      <trkpt lat="42.80798" lon="0.71533">
        <ele>810.7</ele>
        <time>2018-11-24T11:10:14Z</time>
      </trkpt>
      <trkpt lat="42.808" lon="0.71536">
        <ele>810.1</ele>
        <time>2018-11-24T11:10:15Z</time>
      </trkpt>
      <trkpt lat="42.80802" lon="0.71539">
        <ele>809.6</ele>
        <time>2018-11-24T11:10:17Z</time>
      </trkpt>
      <trkpt lat="42.80805" lon="0.71543">
        <ele>809.2</ele>
        <time>2018-11-24T11:10:18Z</time>
      </trkpt>
      <trkpt lat="42.80807" lon="0.71546">
        <ele>808.7</ele>
        <time>2018-11-24T11:10:19Z</time>
      </trkpt>
      <trkpt lat="42.80809" lon="0.71549">
        <ele>808.2</ele>
        <time>2018-11-24T11:10:21Z</time>
      </trkpt>
      <trkpt lat="42.80812" lon="0.71551">
        <ele>807.7</ele>
        <time>2018-11-24T11:10:22Z</time>
      </trkpt>
      <trkpt lat="42.80814" lon="0.71554">
        <ele>807.3</ele>
        <time>2018-11-24T11:10:23Z</time>
      </trkpt>
      <trkpt lat="42.80817" lon="0.71557">
        <ele>807</ele>
        <time>2018-11-24T11:10:25Z</time>
      </trkpt>
      <trkpt lat="42.80821" lon="0.71561">
        <ele>806.9</ele>
        <time>2018-11-24T11:10:26Z</time>
      </trkpt>
      <trkpt lat="42.80824" lon="0.71564">
        <ele>806.8</ele>
        <time>2018-11-24T11:10:28Z</time>
      </trkpt>
      <trkpt lat="42.80827" lon="0.71566">
        <ele>806.1</ele>
        <time>2018-11-24T11:10:29Z</time>
      </trkpt>
      <trkpt lat="42.80831" lon="0.71568">
        <ele>805.5</ele>
        <time>2018-11-24T11:10:31Z</time>
      </trkpt>
      <trkpt lat="42.80834" lon="0.7157">
        <ele>805</ele>
        <time>2018-11-24T11:10:32Z</time>
      </trkpt>
      <trkpt lat="42.80837" lon="0.71571">
        <ele>804.8</ele>
        <time>2018-11-24T11:10:34Z</time>
      </trkpt>
      <trkpt lat="42.8084" lon="0.71573">
        <ele>804.7</ele>
        <time>2018-11-24T11:10:35Z</time>
      </trkpt>
      <trkpt lat="42.80843" lon="0.71574">
        <ele>804.4</ele>
        <time>2018-11-24T11:10:36Z</time>
      </trkpt>
      <trkpt lat="42.80848" lon="0.71574">
        <ele>803.2</ele>
        <time>2018-11-24T11:10:38Z</time>
      </trkpt>
      <trkpt lat="42.80852" lon="0.71574">
        <ele>802.3</ele>
        <time>2018-11-24T11:10:40Z</time>
      </trkpt>
      <trkpt lat="42.80856" lon="0.71575">
        <ele>801.7</ele>
        <time>2018-11-24T11:10:41Z</time>
      </trkpt>
      <trkpt lat="42.80859" lon="0.71576">
        <ele>801.2</ele>
        <time>2018-11-24T11:10:43Z</time>
      </trkpt>
      <trkpt lat="42.80863" lon="0.71577">
        <ele>800.6</ele>
        <time>2018-11-24T11:10:44Z</time>
      </trkpt>
      <trkpt lat="42.80865" lon="0.7158">
        <ele>801.3</ele>
        <time>2018-11-24T11:10:45Z</time>
      </trkpt>
      <trkpt lat="42.80868" lon="0.71581">
        <ele>801</ele>
        <time>2018-11-24T11:10:46Z</time>
      </trkpt>
      <trkpt lat="42.8087" lon="0.71581">
        <ele>800.7</ele>
        <time>2018-11-24T11:10:47Z</time>
      </trkpt>
      <trkpt lat="42.80872" lon="0.71582">
        <ele>800.6</ele>
        <time>2018-11-24T11:10:48Z</time>
      </trkpt>
      <trkpt lat="42.80874" lon="0.71582">
        <ele>800.3</ele>
        <time>2018-11-24T11:10:49Z</time>
      </trkpt>
      <trkpt lat="42.80877" lon="0.71583">
        <ele>800.2</ele>
        <time>2018-11-24T11:10:50Z</time>
      </trkpt>
      <trkpt lat="42.80879" lon="0.71584">
        <ele>800.1</ele>
        <time>2018-11-24T11:10:51Z</time>
      </trkpt>
      <trkpt lat="42.80882" lon="0.71585">
        <ele>800</ele>
        <time>2018-11-24T11:10:52Z</time>
      </trkpt>
      <trkpt lat="42.80885" lon="0.71586">
        <ele>799.8</ele>
        <time>2018-11-24T11:10:54Z</time>
      </trkpt>
      <trkpt lat="42.80888" lon="0.71587">
        <ele>799.7</ele>
        <time>2018-11-24T11:10:55Z</time>
      </trkpt>
      <trkpt lat="42.80892" lon="0.71587">
        <ele>799.3</ele>
        <time>2018-11-24T11:10:56Z</time>
      </trkpt>
      <trkpt lat="42.80893" lon="0.71586">
        <ele>798.8</ele>
        <time>2018-11-24T11:10:57Z</time>
      </trkpt>
      <trkpt lat="42.80896" lon="0.71585">
        <ele>798.2</ele>
        <time>2018-11-24T11:10:58Z</time>
      </trkpt>
      <trkpt lat="42.80898" lon="0.71586">
        <ele>798.3</ele>
        <time>2018-11-24T11:10:59Z</time>
      </trkpt>
      <trkpt lat="42.80901" lon="0.71588">
        <ele>798.7</ele>
        <time>2018-11-24T11:11:00Z</time>
      </trkpt>
      <trkpt lat="42.80904" lon="0.7159">
        <ele>799</ele>
        <time>2018-11-24T11:11:01Z</time>
      </trkpt>
      <trkpt lat="42.80906" lon="0.71591">
        <ele>799.1</ele>
        <time>2018-11-24T11:11:03Z</time>
      </trkpt>
      <trkpt lat="42.80909" lon="0.71593">
        <ele>799.4</ele>
        <time>2018-11-24T11:11:04Z</time>
      </trkpt>
      <trkpt lat="42.80911" lon="0.71595">
        <ele>799.7</ele>
        <time>2018-11-24T11:11:05Z</time>
      </trkpt>
      <trkpt lat="42.80914" lon="0.71598">
        <ele>800</ele>
        <time>2018-11-24T11:11:06Z</time>
      </trkpt>
      <trkpt lat="42.80916" lon="0.716">
        <ele>800.3</ele>
        <time>2018-11-24T11:11:07Z</time>
      </trkpt>
      <trkpt lat="42.80919" lon="0.71603">
        <ele>800.8</ele>
        <time>2018-11-24T11:11:09Z</time>
      </trkpt>
      <trkpt lat="42.80921" lon="0.71606">
        <ele>801.3</ele>
        <time>2018-11-24T11:11:10Z</time>
      </trkpt>
      <trkpt lat="42.80925" lon="0.71607">
        <ele>801</ele>
        <time>2018-11-24T11:11:12Z</time>
      </trkpt>
      <trkpt lat="42.80926" lon="0.71605">
        <ele>800.3</ele>
        <time>2018-11-24T11:11:12Z</time>
      </trkpt>
      <trkpt lat="42.8093" lon="0.71603">
        <ele>799.2</ele>
        <time>2018-11-24T11:11:14Z</time>
      </trkpt>
      <trkpt lat="42.80931" lon="0.71604">
        <ele>799.4</ele>
        <time>2018-11-24T11:11:15Z</time>
      </trkpt>
      <trkpt lat="42.80934" lon="0.71606">
        <ele>799.5</ele>
        <time>2018-11-24T11:11:16Z</time>
      </trkpt>
      <trkpt lat="42.80936" lon="0.71607">
        <ele>799.7</ele>
        <time>2018-11-24T11:11:17Z</time>
      </trkpt>
      <trkpt lat="42.80939" lon="0.71608">
        <ele>799.6</ele>
        <time>2018-11-24T11:11:18Z</time>
      </trkpt>
      <trkpt lat="42.80941" lon="0.71608">
        <ele>799.4</ele>
        <time>2018-11-24T11:11:19Z</time>
      </trkpt>
      <trkpt lat="42.80945" lon="0.71609">
        <ele>798.9</ele>
        <time>2018-11-24T11:11:20Z</time>
      </trkpt>
      <trkpt lat="42.80948" lon="0.71612">
        <ele>797.3</ele>
        <time>2018-11-24T11:11:22Z</time>
      </trkpt>
      <trkpt lat="42.80948" lon="0.71615">
        <ele>797.4</ele>
        <time>2018-11-24T11:11:23Z</time>
      </trkpt>
      <trkpt lat="42.80947" lon="0.71619">
        <ele>798.2</ele>
        <time>2018-11-24T11:11:24Z</time>
      </trkpt>
      <trkpt lat="42.80946" lon="0.71622">
        <ele>799</ele>
        <time>2018-11-24T11:11:25Z</time>
      </trkpt>
      <trkpt lat="42.80945" lon="0.71625">
        <ele>799.6</ele>
        <time>2018-11-24T11:11:26Z</time>
      </trkpt>
      <trkpt lat="42.80945" lon="0.71628">
        <ele>799.6</ele>
        <time>2018-11-24T11:11:27Z</time>
      </trkpt>
      <trkpt lat="42.80946" lon="0.7163">
        <ele>799</ele>
        <time>2018-11-24T11:11:28Z</time>
      </trkpt>
      <trkpt lat="42.80948" lon="0.71632">
        <ele>797.8</ele>
        <time>2018-11-24T11:11:29Z</time>
      </trkpt>
      <trkpt lat="42.8095" lon="0.71633">
        <ele>796.6</ele>
        <time>2018-11-24T11:11:29Z</time>
      </trkpt>
      <trkpt lat="42.80953" lon="0.71634">
        <ele>794.8</ele>
        <time>2018-11-24T11:11:31Z</time>
      </trkpt>
      <trkpt lat="42.80955" lon="0.71636">
        <ele>793.8</ele>
        <time>2018-11-24T11:11:32Z</time>
      </trkpt>
      <trkpt lat="42.80957" lon="0.71638">
        <ele>792.7</ele>
        <time>2018-11-24T11:11:33Z</time>
      </trkpt>
      <trkpt lat="42.8096" lon="0.71641">
        <ele>791.6</ele>
        <time>2018-11-24T11:11:34Z</time>
      </trkpt>
      <trkpt lat="42.80962" lon="0.71645">
        <ele>791.3</ele>
        <time>2018-11-24T11:11:36Z</time>
      </trkpt>
      <trkpt lat="42.80962" lon="0.71648">
        <ele>791.9</ele>
        <time>2018-11-24T11:11:36Z</time>
      </trkpt>
      <trkpt lat="42.80964" lon="0.71651">
        <ele>791.4</ele>
        <time>2018-11-24T11:11:38Z</time>
      </trkpt>
      <trkpt lat="42.80966" lon="0.71655">
        <ele>791</ele>
        <time>2018-11-24T11:11:39Z</time>
      </trkpt>
      <trkpt lat="42.80969" lon="0.71658">
        <ele>790.7</ele>
        <time>2018-11-24T11:11:40Z</time>
      </trkpt>
      <trkpt lat="42.80971" lon="0.71662">
        <ele>790.4</ele>
        <time>2018-11-24T11:11:42Z</time>
      </trkpt>
      <trkpt lat="42.80974" lon="0.71664">
        <ele>789.6</ele>
        <time>2018-11-24T11:11:43Z</time>
      </trkpt>
      <trkpt lat="42.80977" lon="0.71665">
        <ele>788.9</ele>
        <time>2018-11-24T11:11:44Z</time>
      </trkpt>
      <trkpt lat="42.8098" lon="0.71667">
        <ele>788.4</ele>
        <time>2018-11-24T11:11:46Z</time>
      </trkpt>
      <trkpt lat="42.80982" lon="0.71669">
        <ele>788.1</ele>
        <time>2018-11-24T11:11:47Z</time>
      </trkpt>
      <trkpt lat="42.80985" lon="0.71671">
        <ele>787.7</ele>
        <time>2018-11-24T11:11:48Z</time>
      </trkpt>
      <trkpt lat="42.80986" lon="0.71673">
        <ele>787.9</ele>
        <time>2018-11-24T11:11:49Z</time>
      </trkpt>
      <trkpt lat="42.80988" lon="0.71674">
        <ele>787.2</ele>
        <time>2018-11-24T11:11:50Z</time>
      </trkpt>
      <trkpt lat="42.8099" lon="0.71676">
        <ele>786.8</ele>
        <time>2018-11-24T11:11:51Z</time>
      </trkpt>
      <trkpt lat="42.80994" lon="0.71677">
        <ele>785.3</ele>
        <time>2018-11-24T11:11:52Z</time>
      </trkpt>
      <trkpt lat="42.80996" lon="0.7168">
        <ele>785</ele>
        <time>2018-11-24T11:11:53Z</time>
      </trkpt>
      <trkpt lat="42.80997" lon="0.71682">
        <ele>784.7</ele>
        <time>2018-11-24T11:11:54Z</time>
      </trkpt>
      <trkpt lat="42.80998" lon="0.71685">
        <ele>784.7</ele>
        <time>2018-11-24T11:11:55Z</time>
      </trkpt>
      <trkpt lat="42.81" lon="0.71688">
        <ele>784</ele>
        <time>2018-11-24T11:11:56Z</time>
      </trkpt>
      <trkpt lat="42.81002" lon="0.7169">
        <ele>783.4</ele>
        <time>2018-11-24T11:11:57Z</time>
      </trkpt>
      <trkpt lat="42.81003" lon="0.71692">
        <ele>783.3</ele>
        <time>2018-11-24T11:11:58Z</time>
      </trkpt>
      <trkpt lat="42.81006" lon="0.71694">
        <ele>782</ele>
        <time>2018-11-24T11:11:59Z</time>
      </trkpt>
      <trkpt lat="42.81009" lon="0.71695">
        <ele>781.2</ele>
        <time>2018-11-24T11:12:01Z</time>
      </trkpt>
      <trkpt lat="42.81012" lon="0.71697">
        <ele>780.6</ele>
        <time>2018-11-24T11:12:02Z</time>
      </trkpt>
      <trkpt lat="42.81015" lon="0.71698">
        <ele>779.7</ele>
        <time>2018-11-24T11:12:03Z</time>
      </trkpt>
      <trkpt lat="42.81018" lon="0.71699">
        <ele>778.8</ele>
        <time>2018-11-24T11:12:04Z</time>
      </trkpt>
      <trkpt lat="42.81021" lon="0.717">
        <ele>777.8</ele>
        <time>2018-11-24T11:12:06Z</time>
      </trkpt>
      <trkpt lat="42.81024" lon="0.71701">
        <ele>777</ele>
        <time>2018-11-24T11:12:07Z</time>
      </trkpt>
      <trkpt lat="42.81027" lon="0.71702">
        <ele>775.9</ele>
        <time>2018-11-24T11:12:08Z</time>
      </trkpt>
      <trkpt lat="42.8103" lon="0.71703">
        <ele>775.1</ele>
        <time>2018-11-24T11:12:09Z</time>
      </trkpt>
      <trkpt lat="42.81032" lon="0.71705">
        <ele>775.3</ele>
        <time>2018-11-24T11:12:10Z</time>
      </trkpt>
      <trkpt lat="42.81034" lon="0.71707">
        <ele>775.4</ele>
        <time>2018-11-24T11:12:11Z</time>
      </trkpt>
      <trkpt lat="42.81037" lon="0.71706">
        <ele>773.8</ele>
        <time>2018-11-24T11:12:13Z</time>
      </trkpt>
      <trkpt lat="42.8104" lon="0.71706">
        <ele>772.4</ele>
        <time>2018-11-24T11:12:14Z</time>
      </trkpt>
      <trkpt lat="42.81043" lon="0.71705">
        <ele>770.9</ele>
        <time>2018-11-24T11:12:15Z</time>
      </trkpt>
      <trkpt lat="42.81046" lon="0.71705">
        <ele>769.6</ele>
        <time>2018-11-24T11:12:16Z</time>
      </trkpt>
      <trkpt lat="42.81049" lon="0.71704">
        <ele>768.2</ele>
        <time>2018-11-24T11:12:17Z</time>
      </trkpt>
      <trkpt lat="42.81052" lon="0.71704">
        <ele>767</ele>
        <time>2018-11-24T11:12:19Z</time>
      </trkpt>
      <trkpt lat="42.81055" lon="0.71704">
        <ele>765.4</ele>
        <time>2018-11-24T11:12:20Z</time>
      </trkpt>
      <trkpt lat="42.81059" lon="0.71703">
        <ele>763.8</ele>
        <time>2018-11-24T11:12:21Z</time>
      </trkpt>
      <trkpt lat="42.81062" lon="0.71703">
        <ele>762.2</ele>
        <time>2018-11-24T11:12:23Z</time>
      </trkpt>
      <trkpt lat="42.81065" lon="0.71701">
        <ele>760.4</ele>
        <time>2018-11-24T11:12:24Z</time>
      </trkpt>
      <trkpt lat="42.81068" lon="0.717">
        <ele>758.7</ele>
        <time>2018-11-24T11:12:25Z</time>
      </trkpt>
      <trkpt lat="42.81071" lon="0.71698">
        <ele>757</ele>
        <time>2018-11-24T11:12:26Z</time>
      </trkpt>
      <trkpt lat="42.81074" lon="0.71698">
        <ele>755.6</ele>
        <time>2018-11-24T11:12:28Z</time>
      </trkpt>
      <trkpt lat="42.81078" lon="0.71699">
        <ele>754.3</ele>
        <time>2018-11-24T11:12:29Z</time>
      </trkpt>
      <trkpt lat="42.81081" lon="0.71699">
        <ele>753</ele>
        <time>2018-11-24T11:12:31Z</time>
      </trkpt>
      <trkpt lat="42.81084" lon="0.717">
        <ele>752</ele>
        <time>2018-11-24T11:12:32Z</time>
      </trkpt>
      <trkpt lat="42.81087" lon="0.717">
        <ele>751.7</ele>
        <time>2018-11-24T11:12:33Z</time>
      </trkpt>
      <trkpt lat="42.8109" lon="0.71701">
        <ele>751.3</ele>
        <time>2018-11-24T11:12:34Z</time>
      </trkpt>
      <trkpt lat="42.81093" lon="0.71703">
        <ele>751.4</ele>
        <time>2018-11-24T11:12:35Z</time>
      </trkpt>
      <trkpt lat="42.81095" lon="0.71706">
        <ele>751.9</ele>
        <time>2018-11-24T11:12:37Z</time>
      </trkpt>
      <trkpt lat="42.81097" lon="0.71708">
        <ele>752.2</ele>
        <time>2018-11-24T11:12:38Z</time>
      </trkpt>
      <trkpt lat="42.81099" lon="0.7171">
        <ele>752.6</ele>
        <time>2018-11-24T11:12:39Z</time>
      </trkpt>
      <trkpt lat="42.81101" lon="0.71711">
        <ele>752.8</ele>
        <time>2018-11-24T11:12:40Z</time>
      </trkpt>
      <trkpt lat="42.81104" lon="0.71711">
        <ele>752.5</ele>
        <time>2018-11-24T11:12:41Z</time>
      </trkpt>
      <trkpt lat="42.81106" lon="0.71711">
        <ele>752.2</ele>
        <time>2018-11-24T11:12:42Z</time>
      </trkpt>
      <trkpt lat="42.81108" lon="0.71708">
        <ele>750.8</ele>
        <time>2018-11-24T11:12:43Z</time>
      </trkpt>
      <trkpt lat="42.81109" lon="0.71705">
        <ele>749.6</ele>
        <time>2018-11-24T11:12:44Z</time>
      </trkpt>
      <trkpt lat="42.81088" lon="0.71632">
        <ele>734.7</ele>
        <time>2018-11-24T11:13:07Z</time>
      </trkpt>
      <trkpt lat="42.81098" lon="0.71634">
        <ele>731.5</ele>
        <time>2018-11-24T11:13:11Z</time>
      </trkpt>
      <trkpt lat="42.81107" lon="0.71634">
        <ele>727.7</ele>
        <time>2018-11-24T11:13:14Z</time>
      </trkpt>
      <trkpt lat="42.81117" lon="0.71642">
        <ele>726.9</ele>
        <time>2018-11-24T11:13:19Z</time>
      </trkpt>
      <trkpt lat="42.81126" lon="0.71648">
        <ele>726</ele>
        <time>2018-11-24T11:13:23Z</time>
      </trkpt>
      <trkpt lat="42.81133" lon="0.71656">
        <ele>726.3</ele>
        <time>2018-11-24T11:13:27Z</time>
      </trkpt>
      <trkpt lat="42.81138" lon="0.71667">
        <ele>728.7</ele>
        <time>2018-11-24T11:13:30Z</time>
      </trkpt>
      <trkpt lat="42.81144" lon="0.71676">
        <ele>730.1</ele>
        <time>2018-11-24T11:13:34Z</time>
      </trkpt>
      <trkpt lat="42.81152" lon="0.71687">
        <ele>730</ele>
        <time>2018-11-24T11:13:38Z</time>
      </trkpt>
      <trkpt lat="42.81158" lon="0.71697">
        <ele>730</ele>
        <time>2018-11-24T11:13:42Z</time>
      </trkpt>
      <trkpt lat="42.81162" lon="0.71709">
        <ele>734.6</ele>
        <time>2018-11-24T11:13:46Z</time>
      </trkpt>
      <trkpt lat="42.81171" lon="0.71704">
        <ele>729.2</ele>
        <time>2018-11-24T11:13:50Z</time>
      </trkpt>
      <trkpt lat="42.81179" lon="0.71701">
        <ele>724.7</ele>
        <time>2018-11-24T11:13:54Z</time>
      </trkpt>
      <trkpt lat="42.81187" lon="0.71709">
        <ele>724.6</ele>
        <time>2018-11-24T11:13:58Z</time>
      </trkpt>
      <trkpt lat="42.81197" lon="0.71713">
        <ele>721.8</ele>
        <time>2018-11-24T11:14:02Z</time>
      </trkpt>
      <trkpt lat="42.81205" lon="0.71722">
        <ele>721.5</ele>
        <time>2018-11-24T11:14:06Z</time>
      </trkpt>
      <trkpt lat="42.81212" lon="0.71733">
        <ele>722.4</ele>
        <time>2018-11-24T11:14:10Z</time>
      </trkpt>
      <trkpt lat="42.81219" lon="0.71744">
        <ele>723.2</ele>
        <time>2018-11-24T11:14:15Z</time>
      </trkpt>
      <trkpt lat="42.81221" lon="0.71748">
        <ele>723.6</ele>
        <time>2018-11-24T11:14:16Z</time>
      </trkpt>
      <trkpt lat="42.81223" lon="0.71751">
        <ele>723.7</ele>
        <time>2018-11-24T11:14:17Z</time>
      </trkpt>
      <trkpt lat="42.81229" lon="0.71759">
        <ele>723.7</ele>
        <time>2018-11-24T11:14:21Z</time>
      </trkpt>
      <trkpt lat="42.81231" lon="0.71762">
        <ele>723.7</ele>
        <time>2018-11-24T11:14:22Z</time>
      </trkpt>
      <trkpt lat="42.81238" lon="0.71774">
        <ele>724.4</ele>
        <time>2018-11-24T11:14:26Z</time>
      </trkpt>
      <trkpt lat="42.81244" lon="0.71786">
        <ele>725.6</ele>
        <time>2018-11-24T11:14:30Z</time>
      </trkpt>
      <trkpt lat="42.81251" lon="0.71798">
        <ele>726.8</ele>
        <time>2018-11-24T11:14:35Z</time>
      </trkpt>
      <trkpt lat="42.81262" lon="0.71804">
        <ele>724.5</ele>
        <time>2018-11-24T11:14:39Z</time>
      </trkpt>
      <trkpt lat="42.8127" lon="0.71809">
        <ele>723.1</ele>
        <time>2018-11-24T11:14:43Z</time>
      </trkpt>
      <trkpt lat="42.81275" lon="0.71824">
        <ele>725.5</ele>
        <time>2018-11-24T11:14:48Z</time>
      </trkpt>
      <trkpt lat="42.81279" lon="0.71835">
        <ele>727.9</ele>
        <time>2018-11-24T11:14:52Z</time>
      </trkpt>
      <trkpt lat="42.8128" lon="0.71848">
        <ele>731</ele>
        <time>2018-11-24T11:14:55Z</time>
      </trkpt>
      <trkpt lat="42.81289" lon="0.71854">
        <ele>730.3</ele>
        <time>2018-11-24T11:14:59Z</time>
      </trkpt>
      <trkpt lat="42.81297" lon="0.71848">
        <ele>726</ele>
        <time>2018-11-24T11:15:03Z</time>
      </trkpt>
      <trkpt lat="42.81306" lon="0.7184">
        <ele>720.9</ele>
        <time>2018-11-24T11:15:07Z</time>
      </trkpt>
      <trkpt lat="42.81311" lon="0.71828">
        <ele>716</ele>
        <time>2018-11-24T11:15:11Z</time>
      </trkpt>
      <trkpt lat="42.81316" lon="0.71817">
        <ele>711.5</ele>
        <time>2018-11-24T11:15:15Z</time>
      </trkpt>
      <trkpt lat="42.8132" lon="0.71803">
        <ele>706.7</ele>
        <time>2018-11-24T11:15:20Z</time>
      </trkpt>
      <trkpt lat="42.81327" lon="0.71791">
        <ele>701.7</ele>
        <time>2018-11-24T11:15:24Z</time>
      </trkpt>
      <trkpt lat="42.8133" lon="0.71776">
        <ele>697.3</ele>
        <time>2018-11-24T11:15:29Z</time>
      </trkpt>
      <trkpt lat="42.81329" lon="0.71762">
        <ele>693.9</ele>
        <time>2018-11-24T11:15:33Z</time>
      </trkpt>
      <trkpt lat="42.81332" lon="0.71749">
        <ele>690.2</ele>
        <time>2018-11-24T11:15:37Z</time>
      </trkpt>
      <trkpt lat="42.81336" lon="0.71736">
        <ele>686.2</ele>
        <time>2018-11-24T11:15:41Z</time>
      </trkpt>
      <trkpt lat="42.81334" lon="0.71723">
        <ele>683.4</ele>
        <time>2018-11-24T11:15:45Z</time>
      </trkpt>
      <trkpt lat="42.8133" lon="0.71711">
        <ele>680.9</ele>
        <time>2018-11-24T11:15:49Z</time>
      </trkpt>
      <trkpt lat="42.8133" lon="0.71707">
        <ele>680.2</ele>
        <time>2018-11-24T11:15:50Z</time>
      </trkpt>
      <trkpt lat="42.81328" lon="0.71698">
        <ele>678.4</ele>
        <time>2018-11-24T11:15:52Z</time>
      </trkpt>
      <trkpt lat="42.81326" lon="0.71691">
        <ele>676.8</ele>
        <time>2018-11-24T11:15:55Z</time>
      </trkpt>
      <trkpt lat="42.81326" lon="0.71687">
        <ele>675.9</ele>
        <time>2018-11-24T11:15:56Z</time>
      </trkpt>
      <trkpt lat="42.81327" lon="0.71683">
        <ele>675</ele>
        <time>2018-11-24T11:15:57Z</time>
      </trkpt>
      <trkpt lat="42.81327" lon="0.71679">
        <ele>674</ele>
        <time>2018-11-24T11:15:58Z</time>
      </trkpt>
      <trkpt lat="42.81327" lon="0.71674">
        <ele>673.1</ele>
        <time>2018-11-24T11:15:59Z</time>
      </trkpt>
      <trkpt lat="42.81327" lon="0.7167">
        <ele>672.2</ele>
        <time>2018-11-24T11:16:01Z</time>
      </trkpt>
      <trkpt lat="42.81326" lon="0.71666">
        <ele>671.2</ele>
        <time>2018-11-24T11:16:02Z</time>
      </trkpt>
      <trkpt lat="42.81326" lon="0.71662">
        <ele>670.3</ele>
        <time>2018-11-24T11:16:03Z</time>
      </trkpt>
      <trkpt lat="42.81325" lon="0.71658">
        <ele>670.7</ele>
        <time>2018-11-24T11:16:04Z</time>
      </trkpt>
      <trkpt lat="42.81325" lon="0.71654">
        <ele>668.9</ele>
        <time>2018-11-24T11:16:06Z</time>
      </trkpt>
      <trkpt lat="42.81325" lon="0.71649">
        <ele>668</ele>
        <time>2018-11-24T11:16:07Z</time>
      </trkpt>
      <trkpt lat="42.81326" lon="0.71645">
        <ele>667.3</ele>
        <time>2018-11-24T11:16:08Z</time>
      </trkpt>
      <trkpt lat="42.81326" lon="0.71641">
        <ele>666.5</ele>
        <time>2018-11-24T11:16:09Z</time>
      </trkpt>
      <trkpt lat="42.81326" lon="0.71637">
        <ele>665.6</ele>
        <time>2018-11-24T11:16:10Z</time>
      </trkpt>
      <trkpt lat="42.81326" lon="0.71634">
        <ele>665.1</ele>
        <time>2018-11-24T11:16:11Z</time>
      </trkpt>
      <trkpt lat="42.81326" lon="0.7163">
        <ele>664.2</ele>
        <time>2018-11-24T11:16:13Z</time>
      </trkpt>
      <trkpt lat="42.81326" lon="0.71626">
        <ele>663.6</ele>
        <time>2018-11-24T11:16:14Z</time>
      </trkpt>
      <trkpt lat="42.81326" lon="0.71622">
        <ele>662.9</ele>
        <time>2018-11-24T11:16:15Z</time>
      </trkpt>
      <trkpt lat="42.81326" lon="0.71619">
        <ele>662.1</ele>
        <time>2018-11-24T11:16:16Z</time>
      </trkpt>
      <trkpt lat="42.81327" lon="0.71615">
        <ele>661.4</ele>
        <time>2018-11-24T11:16:17Z</time>
      </trkpt>
      <trkpt lat="42.81327" lon="0.71612">
        <ele>660.9</ele>
        <time>2018-11-24T11:16:18Z</time>
      </trkpt>
      <trkpt lat="42.81328" lon="0.7161">
        <ele>660.3</ele>
        <time>2018-11-24T11:16:18Z</time>
      </trkpt>
      <trkpt lat="42.81334" lon="0.71601">
        <ele>661.3</ele>
        <time>2018-11-24T11:16:22Z</time>
      </trkpt>
      <trkpt lat="42.81334" lon="0.71589">
        <ele>657.5</ele>
        <time>2018-11-24T11:16:26Z</time>
      </trkpt>
      <trkpt lat="42.81334" lon="0.71585">
        <ele>657</ele>
        <time>2018-11-24T11:16:27Z</time>
      </trkpt>
      <trkpt lat="42.81332" lon="0.71578">
        <ele>656.2</ele>
        <time>2018-11-24T11:16:29Z</time>
      </trkpt>
      <trkpt lat="42.81331" lon="0.71573">
        <ele>655.8</ele>
        <time>2018-11-24T11:16:31Z</time>
      </trkpt>
      <trkpt lat="42.8133" lon="0.71569">
        <ele>655.2</ele>
        <time>2018-11-24T11:16:32Z</time>
      </trkpt>
      <trkpt lat="42.8133" lon="0.71565">
        <ele>654.9</ele>
        <time>2018-11-24T11:16:33Z</time>
      </trkpt>
      <trkpt lat="42.81329" lon="0.71562">
        <ele>654.5</ele>
        <time>2018-11-24T11:16:34Z</time>
      </trkpt>
      <trkpt lat="42.81328" lon="0.71559">
        <ele>654</ele>
        <time>2018-11-24T11:16:35Z</time>
      </trkpt>
      <trkpt lat="42.81327" lon="0.71555">
        <ele>653.7</ele>
        <time>2018-11-24T11:16:36Z</time>
      </trkpt>
      <trkpt lat="42.81325" lon="0.71551">
        <ele>653.2</ele>
        <time>2018-11-24T11:16:37Z</time>
      </trkpt>
      <trkpt lat="42.81324" lon="0.71548">
        <ele>652.9</ele>
        <time>2018-11-24T11:16:38Z</time>
      </trkpt>
      <trkpt lat="42.81323" lon="0.71545">
        <ele>652.4</ele>
        <time>2018-11-24T11:16:39Z</time>
      </trkpt>
      <trkpt lat="42.81322" lon="0.71542">
        <ele>652.1</ele>
        <time>2018-11-24T11:16:41Z</time>
      </trkpt>
      <trkpt lat="42.81321" lon="0.71539">
        <ele>651.7</ele>
        <time>2018-11-24T11:16:42Z</time>
      </trkpt>
      <trkpt lat="42.8132" lon="0.71536">
        <ele>651.3</ele>
        <time>2018-11-24T11:16:42Z</time>
      </trkpt>
      <trkpt lat="42.81322" lon="0.71534">
        <ele>651.1</ele>
        <time>2018-11-24T11:16:43Z</time>
      </trkpt>
      <trkpt lat="42.81325" lon="0.71534">
        <ele>651.1</ele>
        <time>2018-11-24T11:16:44Z</time>
      </trkpt>
      <trkpt lat="42.81336" lon="0.71536">
        <ele>651.2</ele>
        <time>2018-11-24T11:16:49Z</time>
      </trkpt>
      <trkpt lat="42.81345" lon="0.71543">
        <ele>651.8</ele>
        <time>2018-11-24T11:16:53Z</time>
      </trkpt>
      <trkpt lat="42.81353" lon="0.71549">
        <ele>652.4</ele>
        <time>2018-11-24T11:16:57Z</time>
      </trkpt>
      <trkpt lat="42.81361" lon="0.71556">
        <ele>653</ele>
        <time>2018-11-24T11:17:01Z</time>
      </trkpt>
      <trkpt lat="42.81366" lon="0.7156">
        <ele>653.2</ele>
        <time>2018-11-24T11:17:03Z</time>
      </trkpt>
      <trkpt lat="42.81369" lon="0.71562">
        <ele>653.3</ele>
        <time>2018-11-24T11:17:04Z</time>
      </trkpt>
      <trkpt lat="42.8137" lon="0.71564">
        <ele>653.5</ele>
        <time>2018-11-24T11:17:05Z</time>
      </trkpt>
      <trkpt lat="42.81372" lon="0.71566">
        <ele>653.8</ele>
        <time>2018-11-24T11:17:06Z</time>
      </trkpt>
      <trkpt lat="42.81373" lon="0.71569">
        <ele>654</ele>
        <time>2018-11-24T11:17:07Z</time>
      </trkpt>
      <trkpt lat="42.81375" lon="0.71571">
        <ele>654.2</ele>
        <time>2018-11-24T11:17:08Z</time>
      </trkpt>
      <trkpt lat="42.81376" lon="0.71574">
        <ele>654.6</ele>
        <time>2018-11-24T11:17:09Z</time>
      </trkpt>
      <trkpt lat="42.81378" lon="0.71576">
        <ele>654.7</ele>
        <time>2018-11-24T11:17:10Z</time>
      </trkpt>
      <trkpt lat="42.8138" lon="0.71578">
        <ele>654.8</ele>
        <time>2018-11-24T11:17:11Z</time>
      </trkpt>
      <trkpt lat="42.81382" lon="0.71579">
        <ele>655</ele>
        <time>2018-11-24T11:17:12Z</time>
      </trkpt>
      <trkpt lat="42.81385" lon="0.7158">
        <ele>655</ele>
        <time>2018-11-24T11:17:13Z</time>
      </trkpt>
      <trkpt lat="42.81386" lon="0.71582">
        <ele>655.1</ele>
        <time>2018-11-24T11:17:13Z</time>
      </trkpt>
      <trkpt lat="42.81388" lon="0.71583">
        <ele>655.3</ele>
        <time>2018-11-24T11:17:14Z</time>
      </trkpt>
      <trkpt lat="42.81391" lon="0.71584">
        <ele>655.3</ele>
        <time>2018-11-24T11:17:15Z</time>
      </trkpt>
      <trkpt lat="42.81393" lon="0.71585">
        <ele>655.4</ele>
        <time>2018-11-24T11:17:16Z</time>
      </trkpt>
      <trkpt lat="42.81395" lon="0.71585">
        <ele>655.4</ele>
        <time>2018-11-24T11:17:17Z</time>
      </trkpt>
      <trkpt lat="42.81399" lon="0.71588">
        <ele>655.4</ele>
        <time>2018-11-24T11:17:19Z</time>
      </trkpt>
      <trkpt lat="42.81402" lon="0.71589">
        <ele>655.5</ele>
        <time>2018-11-24T11:17:20Z</time>
      </trkpt>
      <trkpt lat="42.81404" lon="0.71591">
        <ele>655.7</ele>
        <time>2018-11-24T11:17:21Z</time>
      </trkpt>
      <trkpt lat="42.81405" lon="0.71594">
        <ele>656</ele>
        <time>2018-11-24T11:17:22Z</time>
      </trkpt>
      <trkpt lat="42.81414" lon="0.71603">
        <ele>656.7</ele>
        <time>2018-11-24T11:17:26Z</time>
      </trkpt>
      <trkpt lat="42.81416" lon="0.71605">
        <ele>656.9</ele>
        <time>2018-11-24T11:17:27Z</time>
      </trkpt>
      <trkpt lat="42.81423" lon="0.71613">
        <ele>657.8</ele>
        <time>2018-11-24T11:17:31Z</time>
      </trkpt>
      <trkpt lat="42.81433" lon="0.71618">
        <ele>657.9</ele>
        <time>2018-11-24T11:17:35Z</time>
      </trkpt>
      <trkpt lat="42.81439" lon="0.71622">
        <ele>658</ele>
        <time>2018-11-24T11:17:38Z</time>
      </trkpt>
      <trkpt lat="42.8144" lon="0.71624">
        <ele>658.2</ele>
        <time>2018-11-24T11:17:39Z</time>
      </trkpt>
      <trkpt lat="42.81447" lon="0.71629">
        <ele>658.6</ele>
        <time>2018-11-24T11:17:42Z</time>
      </trkpt>
      <trkpt lat="42.81455" lon="0.71636">
        <ele>658.9</ele>
        <time>2018-11-24T11:17:46Z</time>
      </trkpt>
      <trkpt lat="42.81465" lon="0.7164">
        <ele>658.9</ele>
        <time>2018-11-24T11:17:50Z</time>
      </trkpt>
      <trkpt lat="42.81475" lon="0.71646">
        <ele>659</ele>
        <time>2018-11-24T11:17:54Z</time>
      </trkpt>
      <trkpt lat="42.81483" lon="0.71653">
        <ele>660.7</ele>
        <time>2018-11-24T11:17:58Z</time>
      </trkpt>
      <trkpt lat="42.81492" lon="0.71659">
        <ele>660.5</ele>
        <time>2018-11-24T11:18:02Z</time>
      </trkpt>
      <trkpt lat="42.81502" lon="0.71665">
        <ele>660.4</ele>
        <time>2018-11-24T11:18:07Z</time>
      </trkpt>
      <trkpt lat="42.81511" lon="0.71671">
        <ele>660.4</ele>
        <time>2018-11-24T11:18:10Z</time>
      </trkpt>
      <trkpt lat="42.8152" lon="0.71679">
        <ele>660</ele>
        <time>2018-11-24T11:18:15Z</time>
      </trkpt>
      <trkpt lat="42.81529" lon="0.71686">
        <ele>660.3</ele>
        <time>2018-11-24T11:18:19Z</time>
      </trkpt>
      <trkpt lat="42.81536" lon="0.71695">
        <ele>660.9</ele>
        <time>2018-11-24T11:18:23Z</time>
      </trkpt>
      <trkpt lat="42.81545" lon="0.71702">
        <ele>661</ele>
        <time>2018-11-24T11:18:27Z</time>
      </trkpt>
      <trkpt lat="42.81553" lon="0.71713">
        <ele>661.7</ele>
        <time>2018-11-24T11:18:31Z</time>
      </trkpt>
      <trkpt lat="42.81561" lon="0.71723">
        <ele>662.2</ele>
        <time>2018-11-24T11:18:36Z</time>
      </trkpt>
      <trkpt lat="42.81568" lon="0.71734">
        <ele>663</ele>
        <time>2018-11-24T11:18:40Z</time>
      </trkpt>
      <trkpt lat="42.81579" lon="0.7174">
        <ele>662.4</ele>
        <time>2018-11-24T11:18:45Z</time>
      </trkpt>
      <trkpt lat="42.81586" lon="0.71748">
        <ele>662.5</ele>
        <time>2018-11-24T11:18:48Z</time>
      </trkpt>
      <trkpt lat="42.81593" lon="0.7176">
        <ele>663.3</ele>
        <time>2018-11-24T11:18:53Z</time>
      </trkpt>
      <trkpt lat="42.81599" lon="0.71772">
        <ele>664.3</ele>
        <time>2018-11-24T11:18:57Z</time>
      </trkpt>
      <trkpt lat="42.81604" lon="0.71784">
        <ele>665.3</ele>
        <time>2018-11-24T11:19:01Z</time>
      </trkpt>
      <trkpt lat="42.81611" lon="0.71793">
        <ele>665.5</ele>
        <time>2018-11-24T11:19:05Z</time>
      </trkpt>
      <trkpt lat="42.81615" lon="0.71803">
        <ele>666.2</ele>
        <time>2018-11-24T11:19:08Z</time>
      </trkpt>
      <trkpt lat="42.81619" lon="0.71815">
        <ele>666.9</ele>
        <time>2018-11-24T11:19:12Z</time>
      </trkpt>
      <trkpt lat="42.8162" lon="0.71817">
        <ele>667</ele>
        <time>2018-11-24T11:19:13Z</time>
      </trkpt>
      <trkpt lat="42.81621" lon="0.71819">
        <ele>667.1</ele>
        <time>2018-11-24T11:19:14Z</time>
      </trkpt>
      <trkpt lat="42.81622" lon="0.71822">
        <ele>667.4</ele>
        <time>2018-11-24T11:19:15Z</time>
      </trkpt>
      <trkpt lat="42.81623" lon="0.71825">
        <ele>667.6</ele>
        <time>2018-11-24T11:19:15Z</time>
      </trkpt>
      <trkpt lat="42.81624" lon="0.71829">
        <ele>668.1</ele>
        <time>2018-11-24T11:19:17Z</time>
      </trkpt>
      <trkpt lat="42.81624" lon="0.71832">
        <ele>668.3</ele>
        <time>2018-11-24T11:19:18Z</time>
      </trkpt>
      <trkpt lat="42.81625" lon="0.71835">
        <ele>668.7</ele>
        <time>2018-11-24T11:19:19Z</time>
      </trkpt>
      <trkpt lat="42.81626" lon="0.71837">
        <ele>668.8</ele>
        <time>2018-11-24T11:19:19Z</time>
      </trkpt>
      <trkpt lat="42.81627" lon="0.7184">
        <ele>669</ele>
        <time>2018-11-24T11:19:20Z</time>
      </trkpt>
      <trkpt lat="42.81628" lon="0.71843">
        <ele>669.1</ele>
        <time>2018-11-24T11:19:21Z</time>
      </trkpt>
      <trkpt lat="42.81629" lon="0.71846">
        <ele>669.4</ele>
        <time>2018-11-24T11:19:22Z</time>
      </trkpt>
      <trkpt lat="42.81633" lon="0.7186">
        <ele>670.3</ele>
        <time>2018-11-24T11:19:27Z</time>
      </trkpt>
      <trkpt lat="42.81637" lon="0.71874">
        <ele>671.4</ele>
        <time>2018-11-24T11:19:31Z</time>
      </trkpt>
      <trkpt lat="42.8164" lon="0.71887">
        <ele>672.7</ele>
        <time>2018-11-24T11:19:35Z</time>
      </trkpt>
      <trkpt lat="42.81643" lon="0.719">
        <ele>674</ele>
        <time>2018-11-24T11:19:39Z</time>
      </trkpt>
      <trkpt lat="42.81647" lon="0.71913">
        <ele>675</ele>
        <time>2018-11-24T11:19:43Z</time>
      </trkpt>
      <trkpt lat="42.8165" lon="0.71925">
        <ele>676.7</ele>
        <time>2018-11-24T11:19:47Z</time>
      </trkpt>
      <trkpt lat="42.81653" lon="0.71941">
        <ele>678.8</ele>
        <time>2018-11-24T11:19:52Z</time>
      </trkpt>
      <trkpt lat="42.81658" lon="0.71951">
        <ele>680.2</ele>
        <time>2018-11-24T11:19:55Z</time>
      </trkpt>
      <trkpt lat="42.81664" lon="0.71963">
        <ele>681.1</ele>
        <time>2018-11-24T11:20:00Z</time>
      </trkpt>
      <trkpt lat="42.81671" lon="0.71971">
        <ele>681.1</ele>
        <time>2018-11-24T11:20:03Z</time>
      </trkpt>
      <trkpt lat="42.81678" lon="0.71979">
        <ele>681</ele>
        <time>2018-11-24T11:20:07Z</time>
      </trkpt>
      <trkpt lat="42.81682" lon="0.71991">
        <ele>683.5</ele>
        <time>2018-11-24T11:20:11Z</time>
      </trkpt>
      <trkpt lat="42.81687" lon="0.72006">
        <ele>686.5</ele>
        <time>2018-11-24T11:20:16Z</time>
      </trkpt>
      <trkpt lat="42.81694" lon="0.72017">
        <ele>688.1</ele>
        <time>2018-11-24T11:20:20Z</time>
      </trkpt>
      <trkpt lat="42.81702" lon="0.72027">
        <ele>688.5</ele>
        <time>2018-11-24T11:20:24Z</time>
      </trkpt>
      <trkpt lat="42.81712" lon="0.72032">
        <ele>687.2</ele>
        <time>2018-11-24T11:20:28Z</time>
      </trkpt>
      <trkpt lat="42.81722" lon="0.72037">
        <ele>685.2</ele>
        <time>2018-11-24T11:20:33Z</time>
      </trkpt>
      <trkpt lat="42.81732" lon="0.7204">
        <ele>682.9</ele>
        <time>2018-11-24T11:20:37Z</time>
      </trkpt>
      <trkpt lat="42.81742" lon="0.72044">
        <ele>681.3</ele>
        <time>2018-11-24T11:20:41Z</time>
      </trkpt>
      <trkpt lat="42.81751" lon="0.7205">
        <ele>680.1</ele>
        <time>2018-11-24T11:20:45Z</time>
      </trkpt>
      <trkpt lat="42.8176" lon="0.72058">
        <ele>680.2</ele>
        <time>2018-11-24T11:20:49Z</time>
      </trkpt>
      <trkpt lat="42.81768" lon="0.72067">
        <ele>680.4</ele>
        <time>2018-11-24T11:20:54Z</time>
      </trkpt>
      <trkpt lat="42.81773" lon="0.72079">
        <ele>682.9</ele>
        <time>2018-11-24T11:20:58Z</time>
      </trkpt>
      <trkpt lat="42.81781" lon="0.72086">
        <ele>683.1</ele>
        <time>2018-11-24T11:21:01Z</time>
      </trkpt>
      <trkpt lat="42.81791" lon="0.72093">
        <ele>682.1</ele>
        <time>2018-11-24T11:21:06Z</time>
      </trkpt>
      <trkpt lat="42.81799" lon="0.72098">
        <ele>681.3</ele>
        <time>2018-11-24T11:21:09Z</time>
      </trkpt>
      <trkpt lat="42.81808" lon="0.72106">
        <ele>681</ele>
        <time>2018-11-24T11:21:13Z</time>
      </trkpt>
      <trkpt lat="42.81816" lon="0.7211">
        <ele>679.5</ele>
        <time>2018-11-24T11:21:17Z</time>
      </trkpt>
      <trkpt lat="42.81824" lon="0.72117">
        <ele>679.5</ele>
        <time>2018-11-24T11:21:21Z</time>
      </trkpt>
      <trkpt lat="42.8183" lon="0.72127">
        <ele>681</ele>
        <time>2018-11-24T11:21:25Z</time>
      </trkpt>
      <trkpt lat="42.81838" lon="0.72137">
        <ele>681.7</ele>
        <time>2018-11-24T11:21:29Z</time>
      </trkpt>
      <trkpt lat="42.81846" lon="0.72143">
        <ele>680.7</ele>
        <time>2018-11-24T11:21:33Z</time>
      </trkpt>
      <trkpt lat="42.81853" lon="0.72154">
        <ele>682.1</ele>
        <time>2018-11-24T11:21:37Z</time>
      </trkpt>
      <trkpt lat="42.8186" lon="0.72165">
        <ele>683.1</ele>
        <time>2018-11-24T11:21:41Z</time>
      </trkpt>
      <trkpt lat="42.81861" lon="0.72177">
        <ele>686.9</ele>
        <time>2018-11-24T11:21:45Z</time>
      </trkpt>
      <trkpt lat="42.81862" lon="0.72191">
        <ele>691.1</ele>
        <time>2018-11-24T11:21:49Z</time>
      </trkpt>
      <trkpt lat="42.81865" lon="0.72203">
        <ele>693.9</ele>
        <time>2018-11-24T11:21:53Z</time>
      </trkpt>
      <trkpt lat="42.81871" lon="0.72217">
        <ele>696.3</ele>
        <time>2018-11-24T11:21:57Z</time>
      </trkpt>
      <trkpt lat="42.81877" lon="0.72229">
        <ele>697.5</ele>
        <time>2018-11-24T11:22:01Z</time>
      </trkpt>
      <trkpt lat="42.81883" lon="0.72238">
        <ele>698</ele>
        <time>2018-11-24T11:22:05Z</time>
      </trkpt>
      <trkpt lat="42.81892" lon="0.72244">
        <ele>695.8</ele>
        <time>2018-11-24T11:22:09Z</time>
      </trkpt>
      <trkpt lat="42.819" lon="0.72251">
        <ele>695.1</ele>
        <time>2018-11-24T11:22:13Z</time>
      </trkpt>
      <trkpt lat="42.81909" lon="0.72255">
        <ele>692.8</ele>
        <time>2018-11-24T11:22:17Z</time>
      </trkpt>
      <trkpt lat="42.81918" lon="0.72261">
        <ele>690.9</ele>
        <time>2018-11-24T11:22:21Z</time>
      </trkpt>
      <trkpt lat="42.81928" lon="0.72269">
        <ele>689</ele>
        <time>2018-11-24T11:22:26Z</time>
      </trkpt>
      <trkpt lat="42.81937" lon="0.72275">
        <ele>687.6</ele>
        <time>2018-11-24T11:22:30Z</time>
      </trkpt>
      <trkpt lat="42.81945" lon="0.72281">
        <ele>686.6</ele>
        <time>2018-11-24T11:22:33Z</time>
      </trkpt>
      <trkpt lat="42.81954" lon="0.7229">
        <ele>685.5</ele>
        <time>2018-11-24T11:22:38Z</time>
      </trkpt>
      <trkpt lat="42.81962" lon="0.72299">
        <ele>685</ele>
        <time>2018-11-24T11:22:42Z</time>
      </trkpt>
      <trkpt lat="42.8197" lon="0.72306">
        <ele>683.9</ele>
        <time>2018-11-24T11:22:46Z</time>
      </trkpt>
      <trkpt lat="42.81978" lon="0.72314">
        <ele>683.3</ele>
        <time>2018-11-24T11:22:50Z</time>
      </trkpt>
      <trkpt lat="42.81986" lon="0.72324">
        <ele>683</ele>
        <time>2018-11-24T11:22:54Z</time>
      </trkpt>
      <trkpt lat="42.81991" lon="0.72334">
        <ele>683.6</ele>
        <time>2018-11-24T11:22:57Z</time>
      </trkpt>
      <trkpt lat="42.81998" lon="0.72344">
        <ele>683.6</ele>
        <time>2018-11-24T11:23:02Z</time>
      </trkpt>
      <trkpt lat="42.82007" lon="0.72354">
        <ele>683.1</ele>
        <time>2018-11-24T11:23:06Z</time>
      </trkpt>
      <trkpt lat="42.82017" lon="0.72363">
        <ele>681.8</ele>
        <time>2018-11-24T11:23:11Z</time>
      </trkpt>
      <trkpt lat="42.82027" lon="0.72367">
        <ele>680.6</ele>
        <time>2018-11-24T11:23:15Z</time>
      </trkpt>
      <trkpt lat="42.82036" lon="0.7237">
        <ele>677.2</ele>
        <time>2018-11-24T11:23:19Z</time>
      </trkpt>
      <trkpt lat="42.82048" lon="0.7237">
        <ele>673.6</ele>
        <time>2018-11-24T11:23:24Z</time>
      </trkpt>
      <trkpt lat="42.82058" lon="0.72372">
        <ele>671</ele>
        <time>2018-11-24T11:23:28Z</time>
      </trkpt>
      <trkpt lat="42.82069" lon="0.72377">
        <ele>668.8</ele>
        <time>2018-11-24T11:23:32Z</time>
      </trkpt>
      <trkpt lat="42.82076" lon="0.72387">
        <ele>669.1</ele>
        <time>2018-11-24T11:23:36Z</time>
      </trkpt>
      <trkpt lat="42.82084" lon="0.72398">
        <ele>668.9</ele>
        <time>2018-11-24T11:23:41Z</time>
      </trkpt>
      <trkpt lat="42.82093" lon="0.72407">
        <ele>668.7</ele>
        <time>2018-11-24T11:23:45Z</time>
      </trkpt>
      <trkpt lat="42.821" lon="0.72416">
        <ele>668.3</ele>
        <time>2018-11-24T11:23:49Z</time>
      </trkpt>
      <trkpt lat="42.82104" lon="0.72429">
        <ele>670.1</ele>
        <time>2018-11-24T11:23:53Z</time>
      </trkpt>
      <trkpt lat="42.82106" lon="0.72443">
        <ele>673.3</ele>
        <time>2018-11-24T11:23:58Z</time>
      </trkpt>
      <trkpt lat="42.82113" lon="0.72453">
        <ele>673.9</ele>
        <time>2018-11-24T11:24:01Z</time>
      </trkpt>
      <trkpt lat="42.82117" lon="0.72465">
        <ele>676</ele>
        <time>2018-11-24T11:24:05Z</time>
      </trkpt>
      <trkpt lat="42.82126" lon="0.7247">
        <ele>674.4</ele>
        <time>2018-11-24T11:24:09Z</time>
      </trkpt>
      <trkpt lat="42.82136" lon="0.72466">
        <ele>670.2</ele>
        <time>2018-11-24T11:24:13Z</time>
      </trkpt>
      <trkpt lat="42.82146" lon="0.72467">
        <ele>667.2</ele>
        <time>2018-11-24T11:24:18Z</time>
      </trkpt>
      <trkpt lat="42.82158" lon="0.72466">
        <ele>663.6</ele>
        <time>2018-11-24T11:24:22Z</time>
      </trkpt>
      <trkpt lat="42.82169" lon="0.72471">
        <ele>661.8</ele>
        <time>2018-11-24T11:24:27Z</time>
      </trkpt>
      <trkpt lat="42.82178" lon="0.7248">
        <ele>661.6</ele>
        <time>2018-11-24T11:24:31Z</time>
      </trkpt>
      <trkpt lat="42.82186" lon="0.72487">
        <ele>661.5</ele>
        <time>2018-11-24T11:24:35Z</time>
      </trkpt>
      <trkpt lat="42.82196" lon="0.72496">
        <ele>661.3</ele>
        <time>2018-11-24T11:24:40Z</time>
      </trkpt>
      <trkpt lat="42.82205" lon="0.72505">
        <ele>662</ele>
        <time>2018-11-24T11:24:44Z</time>
      </trkpt>
      <trkpt lat="42.82216" lon="0.72503">
        <ele>658.6</ele>
        <time>2018-11-24T11:24:49Z</time>
      </trkpt>
      <trkpt lat="42.82226" lon="0.72498">
        <ele>655.1</ele>
        <time>2018-11-24T11:24:53Z</time>
      </trkpt>
      <trkpt lat="42.82239" lon="0.72499">
        <ele>653.2</ele>
        <time>2018-11-24T11:24:58Z</time>
      </trkpt>
      <trkpt lat="42.82249" lon="0.725">
        <ele>651.3</ele>
        <time>2018-11-24T11:25:03Z</time>
      </trkpt>
      <trkpt lat="42.82258" lon="0.72496">
        <ele>651.1</ele>
        <time>2018-11-24T11:25:06Z</time>
      </trkpt>
      <trkpt lat="42.82268" lon="0.72493">
        <ele>647</ele>
        <time>2018-11-24T11:25:10Z</time>
      </trkpt>
      <trkpt lat="42.82276" lon="0.72489">
        <ele>645</ele>
        <time>2018-11-24T11:25:14Z</time>
      </trkpt>
      <trkpt lat="42.82286" lon="0.72484">
        <ele>642.7</ele>
        <time>2018-11-24T11:25:18Z</time>
      </trkpt>
      <trkpt lat="42.82295" lon="0.72477">
        <ele>640.3</ele>
        <time>2018-11-24T11:25:22Z</time>
      </trkpt>
      <trkpt lat="42.82304" lon="0.72473">
        <ele>641.6</ele>
        <time>2018-11-24T11:25:26Z</time>
      </trkpt>
      <trkpt lat="42.82314" lon="0.72467">
        <ele>636.7</ele>
        <time>2018-11-24T11:25:30Z</time>
      </trkpt>
      <trkpt lat="42.82324" lon="0.72471">
        <ele>636.2</ele>
        <time>2018-11-24T11:25:35Z</time>
      </trkpt>
      <trkpt lat="42.82332" lon="0.72478">
        <ele>636.4</ele>
        <time>2018-11-24T11:25:38Z</time>
      </trkpt>
      <trkpt lat="42.82344" lon="0.72486">
        <ele>636.3</ele>
        <time>2018-11-24T11:25:44Z</time>
      </trkpt>
      <trkpt lat="42.82351" lon="0.72494">
        <ele>636.4</ele>
        <time>2018-11-24T11:25:47Z</time>
      </trkpt>
      <trkpt lat="42.8236" lon="0.725">
        <ele>636.3</ele>
        <time>2018-11-24T11:25:51Z</time>
      </trkpt>
      <trkpt lat="42.82369" lon="0.72503">
        <ele>635.4</ele>
        <time>2018-11-24T11:25:55Z</time>
      </trkpt>
      <trkpt lat="42.82376" lon="0.72513">
        <ele>636.2</ele>
        <time>2018-11-24T11:25:59Z</time>
      </trkpt>
      <trkpt lat="42.82381" lon="0.72527">
        <ele>638</ele>
        <time>2018-11-24T11:26:04Z</time>
      </trkpt>
      <trkpt lat="42.82386" lon="0.72541">
        <ele>640.2</ele>
        <time>2018-11-24T11:26:08Z</time>
      </trkpt>
      <trkpt lat="42.82388" lon="0.72554">
        <ele>643.6</ele>
        <time>2018-11-24T11:26:12Z</time>
      </trkpt>
      <trkpt lat="42.82394" lon="0.72566">
        <ele>646.3</ele>
        <time>2018-11-24T11:26:16Z</time>
      </trkpt>
      <trkpt lat="42.82397" lon="0.72579">
        <ele>650.1</ele>
        <time>2018-11-24T11:26:20Z</time>
      </trkpt>
      <trkpt lat="42.82402" lon="0.72592">
        <ele>654.3</ele>
        <time>2018-11-24T11:26:25Z</time>
      </trkpt>
      <trkpt lat="42.82412" lon="0.72597">
        <ele>654.8</ele>
        <time>2018-11-24T11:26:29Z</time>
      </trkpt>
      <trkpt lat="42.82421" lon="0.72595">
        <ele>652.8</ele>
        <time>2018-11-24T11:26:33Z</time>
      </trkpt>
      <trkpt lat="42.82431" lon="0.72596">
        <ele>652.1</ele>
        <time>2018-11-24T11:26:37Z</time>
      </trkpt>
      <trkpt lat="42.8244" lon="0.72598">
        <ele>652</ele>
        <time>2018-11-24T11:26:40Z</time>
      </trkpt>
      <trkpt lat="42.8245" lon="0.72594">
        <ele>650.4</ele>
        <time>2018-11-24T11:26:44Z</time>
      </trkpt>
      <trkpt lat="42.8246" lon="0.72597">
        <ele>650</ele>
        <time>2018-11-24T11:26:48Z</time>
      </trkpt>
      <trkpt lat="42.82469" lon="0.72602">
        <ele>651.4</ele>
        <time>2018-11-24T11:26:52Z</time>
      </trkpt>
      <trkpt lat="42.82462" lon="0.72611">
        <ele>655.8</ele>
        <time>2018-11-24T11:26:56Z</time>
      </trkpt>
      <trkpt lat="42.8247" lon="0.72619">
        <ele>658.4</ele>
        <time>2018-11-24T11:27:00Z</time>
      </trkpt>
      <trkpt lat="42.82478" lon="0.72624">
        <ele>660.2</ele>
        <time>2018-11-24T11:27:04Z</time>
      </trkpt>
      <trkpt lat="42.82487" lon="0.72632">
        <ele>662.8</ele>
        <time>2018-11-24T11:27:08Z</time>
      </trkpt>
      <trkpt lat="42.82496" lon="0.72633">
        <ele>662.2</ele>
        <time>2018-11-24T11:27:11Z</time>
      </trkpt>
      <trkpt lat="42.82505" lon="0.7263">
        <ele>660.4</ele>
        <time>2018-11-24T11:27:15Z</time>
      </trkpt>
      <trkpt lat="42.82515" lon="0.72631">
        <ele>659</ele>
        <time>2018-11-24T11:27:19Z</time>
      </trkpt>
      <trkpt lat="42.82524" lon="0.72627">
        <ele>656.1</ele>
        <time>2018-11-24T11:27:23Z</time>
      </trkpt>
      <trkpt lat="42.82534" lon="0.72626">
        <ele>654.1</ele>
        <time>2018-11-24T11:27:27Z</time>
      </trkpt>
      <trkpt lat="42.82542" lon="0.7263">
        <ele>654.4</ele>
        <time>2018-11-24T11:27:30Z</time>
      </trkpt>
      <trkpt lat="42.82552" lon="0.72636">
        <ele>654.6</ele>
        <time>2018-11-24T11:27:35Z</time>
      </trkpt>
      <trkpt lat="42.82562" lon="0.72639">
        <ele>653.8</ele>
        <time>2018-11-24T11:27:39Z</time>
      </trkpt>
      <trkpt lat="42.82571" lon="0.72645">
        <ele>654.4</ele>
        <time>2018-11-24T11:27:43Z</time>
      </trkpt>
      <trkpt lat="42.82579" lon="0.72641">
        <ele>650.4</ele>
        <time>2018-11-24T11:27:46Z</time>
      </trkpt>
      <trkpt lat="42.82586" lon="0.72651">
        <ele>652.4</ele>
        <time>2018-11-24T11:27:50Z</time>
      </trkpt>
      <trkpt lat="42.82594" lon="0.72656">
        <ele>652</ele>
        <time>2018-11-24T11:27:54Z</time>
      </trkpt>
      <trkpt lat="42.82603" lon="0.7265">
        <ele>647.4</ele>
        <time>2018-11-24T11:27:58Z</time>
      </trkpt>
      <trkpt lat="42.82604" lon="0.72638">
        <ele>643.5</ele>
        <time>2018-11-24T11:28:02Z</time>
      </trkpt>
      <trkpt lat="42.826" lon="0.72627">
        <ele>641</ele>
        <time>2018-11-24T11:28:05Z</time>
      </trkpt>
      <trkpt lat="42.82609" lon="0.72628">
        <ele>640.8</ele>
        <time>2018-11-24T11:28:09Z</time>
      </trkpt>
      <trkpt lat="42.82617" lon="0.72635">
        <ele>640.9</ele>
        <time>2018-11-24T11:28:13Z</time>
      </trkpt>
      <trkpt lat="42.82623" lon="0.72645">
        <ele>640.1</ele>
        <time>2018-11-24T11:28:16Z</time>
      </trkpt>
      <trkpt lat="42.82629" lon="0.72654">
        <ele>641.1</ele>
        <time>2018-11-24T11:28:20Z</time>
      </trkpt>
      <trkpt lat="42.82637" lon="0.72666">
        <ele>642.2</ele>
        <time>2018-11-24T11:28:25Z</time>
      </trkpt>
      <trkpt lat="42.82643" lon="0.72676">
        <ele>643.4</ele>
        <time>2018-11-24T11:28:29Z</time>
      </trkpt>
      <trkpt lat="42.82652" lon="0.72684">
        <ele>643</ele>
        <time>2018-11-24T11:28:33Z</time>
      </trkpt>
      <trkpt lat="42.82659" lon="0.72694">
        <ele>643.6</ele>
        <time>2018-11-24T11:28:37Z</time>
      </trkpt>
      <trkpt lat="42.82666" lon="0.72705">
        <ele>644.4</ele>
        <time>2018-11-24T11:28:41Z</time>
      </trkpt>
      <trkpt lat="42.82676" lon="0.7271">
        <ele>642.9</ele>
        <time>2018-11-24T11:28:46Z</time>
      </trkpt>
      <trkpt lat="42.82686" lon="0.72715">
        <ele>641.4</ele>
        <time>2018-11-24T11:28:50Z</time>
      </trkpt>
      <trkpt lat="42.82697" lon="0.72715">
        <ele>641.5</ele>
        <time>2018-11-24T11:28:54Z</time>
      </trkpt>
      <trkpt lat="42.82708" lon="0.72714">
        <ele>636.1</ele>
        <time>2018-11-24T11:28:58Z</time>
      </trkpt>
      <trkpt lat="42.82717" lon="0.72713">
        <ele>634</ele>
        <time>2018-11-24T11:29:02Z</time>
      </trkpt>
      <trkpt lat="42.82726" lon="0.72717">
        <ele>633.2</ele>
        <time>2018-11-24T11:29:06Z</time>
      </trkpt>
      <trkpt lat="42.82735" lon="0.72724">
        <ele>633.2</ele>
        <time>2018-11-24T11:29:10Z</time>
      </trkpt>
      <trkpt lat="42.82743" lon="0.7273">
        <ele>633.1</ele>
        <time>2018-11-24T11:29:14Z</time>
      </trkpt>
      <trkpt lat="42.82748" lon="0.72744">
        <ele>634.9</ele>
        <time>2018-11-24T11:29:18Z</time>
      </trkpt>
      <trkpt lat="42.8275" lon="0.72756">
        <ele>637.1</ele>
        <time>2018-11-24T11:29:22Z</time>
      </trkpt>
      <trkpt lat="42.8275" lon="0.72768">
        <ele>640.3</ele>
        <time>2018-11-24T11:29:26Z</time>
      </trkpt>
      <trkpt lat="42.82754" lon="0.7278">
        <ele>642.7</ele>
        <time>2018-11-24T11:29:29Z</time>
      </trkpt>
      <trkpt lat="42.82759" lon="0.7279">
        <ele>644.1</ele>
        <time>2018-11-24T11:29:33Z</time>
      </trkpt>
      <trkpt lat="42.82766" lon="0.728">
        <ele>645.4</ele>
        <time>2018-11-24T11:29:37Z</time>
      </trkpt>
      <trkpt lat="42.82775" lon="0.72802">
        <ele>643.1</ele>
        <time>2018-11-24T11:29:40Z</time>
      </trkpt>
      <trkpt lat="42.82779" lon="0.72814">
        <ele>645.7</ele>
        <time>2018-11-24T11:29:45Z</time>
      </trkpt>
      <trkpt lat="42.82789" lon="0.72821">
        <ele>644.5</ele>
        <time>2018-11-24T11:29:49Z</time>
      </trkpt>
      <trkpt lat="42.82798" lon="0.72826">
        <ele>642.5</ele>
        <time>2018-11-24T11:29:53Z</time>
      </trkpt>
      <trkpt lat="42.82805" lon="0.72835">
        <ele>642.7</ele>
        <time>2018-11-24T11:29:57Z</time>
      </trkpt>
      <trkpt lat="42.82813" lon="0.7284">
        <ele>641</ele>
        <time>2018-11-24T11:30:00Z</time>
      </trkpt>
      <trkpt lat="42.82822" lon="0.72847">
        <ele>640.3</ele>
        <time>2018-11-24T11:30:04Z</time>
      </trkpt>
      <trkpt lat="42.82832" lon="0.72855">
        <ele>641</ele>
        <time>2018-11-24T11:30:09Z</time>
      </trkpt>
      <trkpt lat="42.8284" lon="0.72861">
        <ele>638.1</ele>
        <time>2018-11-24T11:30:12Z</time>
      </trkpt>
      <trkpt lat="42.82849" lon="0.72866">
        <ele>636.7</ele>
        <time>2018-11-24T11:30:16Z</time>
      </trkpt>
      <trkpt lat="42.82858" lon="0.72871">
        <ele>635.6</ele>
        <time>2018-11-24T11:30:21Z</time>
      </trkpt>
      <trkpt lat="42.82867" lon="0.72878">
        <ele>635.3</ele>
        <time>2018-11-24T11:30:25Z</time>
      </trkpt>
      <trkpt lat="42.82877" lon="0.72882">
        <ele>633.9</ele>
        <time>2018-11-24T11:30:29Z</time>
      </trkpt>
      <trkpt lat="42.82887" lon="0.72883">
        <ele>632</ele>
        <time>2018-11-24T11:30:33Z</time>
      </trkpt>
      <trkpt lat="42.82899" lon="0.72886">
        <ele>630.3</ele>
        <time>2018-11-24T11:30:38Z</time>
      </trkpt>
      <trkpt lat="42.82908" lon="0.72889">
        <ele>630.5</ele>
        <time>2018-11-24T11:30:41Z</time>
      </trkpt>
      <trkpt lat="42.82917" lon="0.72894">
        <ele>630.5</ele>
        <time>2018-11-24T11:30:45Z</time>
      </trkpt>
      <trkpt lat="42.82928" lon="0.72897">
        <ele>631.2</ele>
        <time>2018-11-24T11:30:50Z</time>
      </trkpt>
      <trkpt lat="42.82936" lon="0.72906">
        <ele>630.2</ele>
        <time>2018-11-24T11:30:54Z</time>
      </trkpt>
      <trkpt lat="42.82943" lon="0.72915">
        <ele>631.7</ele>
        <time>2018-11-24T11:30:58Z</time>
      </trkpt>
      <trkpt lat="42.82952" lon="0.72926">
        <ele>633.7</ele>
        <time>2018-11-24T11:31:02Z</time>
      </trkpt>
      <trkpt lat="42.82962" lon="0.7293">
        <ele>633.6</ele>
        <time>2018-11-24T11:31:07Z</time>
      </trkpt>
      <trkpt lat="42.82974" lon="0.72935">
        <ele>633.4</ele>
        <time>2018-11-24T11:31:12Z</time>
      </trkpt>
      <trkpt lat="42.82983" lon="0.72939">
        <ele>633.7</ele>
        <time>2018-11-24T11:31:16Z</time>
      </trkpt>
      <trkpt lat="42.82993" lon="0.72943">
        <ele>634</ele>
        <time>2018-11-24T11:31:20Z</time>
      </trkpt>
      <trkpt lat="42.83003" lon="0.72949">
        <ele>634.7</ele>
        <time>2018-11-24T11:31:24Z</time>
      </trkpt>
      <trkpt lat="42.83015" lon="0.72952">
        <ele>634.3</ele>
        <time>2018-11-24T11:31:29Z</time>
      </trkpt>
      <trkpt lat="42.83026" lon="0.72956">
        <ele>634.4</ele>
        <time>2018-11-24T11:31:33Z</time>
      </trkpt>
      <trkpt lat="42.83034" lon="0.72961">
        <ele>634.9</ele>
        <time>2018-11-24T11:31:37Z</time>
      </trkpt>
      <trkpt lat="42.83044" lon="0.72965">
        <ele>635.1</ele>
        <time>2018-11-24T11:31:41Z</time>
      </trkpt>
      <trkpt lat="42.83053" lon="0.72969">
        <ele>635.2</ele>
        <time>2018-11-24T11:31:45Z</time>
      </trkpt>
      <trkpt lat="42.83062" lon="0.72977">
        <ele>636.5</ele>
        <time>2018-11-24T11:31:49Z</time>
      </trkpt>
      <trkpt lat="42.83072" lon="0.7298">
        <ele>636.2</ele>
        <time>2018-11-24T11:31:53Z</time>
      </trkpt>
      <trkpt lat="42.83081" lon="0.72982">
        <ele>635.6</ele>
        <time>2018-11-24T11:31:57Z</time>
      </trkpt>
      <trkpt lat="42.83091" lon="0.7298">
        <ele>633.4</ele>
        <time>2018-11-24T11:32:01Z</time>
      </trkpt>
      <trkpt lat="42.831" lon="0.72984">
        <ele>632.9</ele>
        <time>2018-11-24T11:32:05Z</time>
      </trkpt>
      <trkpt lat="42.83108" lon="0.72993">
        <ele>634.2</ele>
        <time>2018-11-24T11:32:09Z</time>
      </trkpt>
      <trkpt lat="42.83114" lon="0.73003">
        <ele>635.8</ele>
        <time>2018-11-24T11:32:13Z</time>
      </trkpt>
      <trkpt lat="42.8312" lon="0.73015">
        <ele>638.1</ele>
        <time>2018-11-24T11:32:17Z</time>
      </trkpt>
      <trkpt lat="42.83125" lon="0.73025">
        <ele>640.2</ele>
        <time>2018-11-24T11:32:21Z</time>
      </trkpt>
      <trkpt lat="42.83134" lon="0.73033">
        <ele>640.1</ele>
        <time>2018-11-24T11:32:25Z</time>
      </trkpt>
      <trkpt lat="42.83142" lon="0.73041">
        <ele>640.2</ele>
        <time>2018-11-24T11:32:29Z</time>
      </trkpt>
      <trkpt lat="42.83149" lon="0.7305">
        <ele>641.2</ele>
        <time>2018-11-24T11:32:33Z</time>
      </trkpt>
      <trkpt lat="42.83153" lon="0.73062">
        <ele>644</ele>
        <time>2018-11-24T11:32:37Z</time>
      </trkpt>
      <trkpt lat="42.83161" lon="0.7307">
        <ele>643.7</ele>
        <time>2018-11-24T11:32:41Z</time>
      </trkpt>
      <trkpt lat="42.83168" lon="0.7308">
        <ele>645</ele>
        <time>2018-11-24T11:32:45Z</time>
      </trkpt>
      <trkpt lat="42.83175" lon="0.73091">
        <ele>646.2</ele>
        <time>2018-11-24T11:32:49Z</time>
      </trkpt>
      <trkpt lat="42.83182" lon="0.73102">
        <ele>647.2</ele>
        <time>2018-11-24T11:32:53Z</time>
      </trkpt>
      <trkpt lat="42.8319" lon="0.73109">
        <ele>646.2</ele>
        <time>2018-11-24T11:32:57Z</time>
      </trkpt>
      <trkpt lat="42.832" lon="0.73112">
        <ele>643.2</ele>
        <time>2018-11-24T11:33:01Z</time>
      </trkpt>
      <trkpt lat="42.8321" lon="0.73114">
        <ele>639.1</ele>
        <time>2018-11-24T11:33:05Z</time>
      </trkpt>
      <trkpt lat="42.83215" lon="0.73125">
        <ele>640.3</ele>
        <time>2018-11-24T11:33:09Z</time>
      </trkpt>
      <trkpt lat="42.83224" lon="0.73131">
        <ele>638.4</ele>
        <time>2018-11-24T11:33:13Z</time>
      </trkpt>
      <trkpt lat="42.8323" lon="0.73142">
        <ele>638.9</ele>
        <time>2018-11-24T11:33:17Z</time>
      </trkpt>
      <trkpt lat="42.83236" lon="0.73151">
        <ele>641</ele>
        <time>2018-11-24T11:33:21Z</time>
      </trkpt>
      <trkpt lat="42.83242" lon="0.73163">
        <ele>640.1</ele>
        <time>2018-11-24T11:33:25Z</time>
      </trkpt>
      <trkpt lat="42.83252" lon="0.73162">
        <ele>635.5</ele>
        <time>2018-11-24T11:33:29Z</time>
      </trkpt>
      <trkpt lat="42.8326" lon="0.73169">
        <ele>634.3</ele>
        <time>2018-11-24T11:33:33Z</time>
      </trkpt>
      <trkpt lat="42.83263" lon="0.73183">
        <ele>637.4</ele>
        <time>2018-11-24T11:33:37Z</time>
      </trkpt>
      <trkpt lat="42.83268" lon="0.73195">
        <ele>638.9</ele>
        <time>2018-11-24T11:33:41Z</time>
      </trkpt>
      <trkpt lat="42.83267" lon="0.73207">
        <ele>642.9</ele>
        <time>2018-11-24T11:33:45Z</time>
      </trkpt>
      <trkpt lat="42.8327" lon="0.73223">
        <ele>646.4</ele>
        <time>2018-11-24T11:33:49Z</time>
      </trkpt>
      <trkpt lat="42.83278" lon="0.73233">
        <ele>646.3</ele>
        <time>2018-11-24T11:33:54Z</time>
      </trkpt>
      <trkpt lat="42.83284" lon="0.73242">
        <ele>646.5</ele>
        <time>2018-11-24T11:33:57Z</time>
      </trkpt>
      <trkpt lat="42.83295" lon="0.73243">
        <ele>642.9</ele>
        <time>2018-11-24T11:34:01Z</time>
      </trkpt>
      <trkpt lat="42.83305" lon="0.73245">
        <ele>640.2</ele>
        <time>2018-11-24T11:34:06Z</time>
      </trkpt>
      <trkpt lat="42.83316" lon="0.73249">
        <ele>638.3</ele>
        <time>2018-11-24T11:34:10Z</time>
      </trkpt>
      <trkpt lat="42.83326" lon="0.73256">
        <ele>637.5</ele>
        <time>2018-11-24T11:34:15Z</time>
      </trkpt>
      <trkpt lat="42.83331" lon="0.73268">
        <ele>638.8</ele>
        <time>2018-11-24T11:34:19Z</time>
      </trkpt>
      <trkpt lat="42.83333" lon="0.73281">
        <ele>641.4</ele>
        <time>2018-11-24T11:34:23Z</time>
      </trkpt>
      <trkpt lat="42.83341" lon="0.7329">
        <ele>641.5</ele>
        <time>2018-11-24T11:34:27Z</time>
      </trkpt>
      <trkpt lat="42.83348" lon="0.73282">
        <ele>638.2</ele>
        <time>2018-11-24T11:34:30Z</time>
      </trkpt>
      <trkpt lat="42.83359" lon="0.73282">
        <ele>636</ele>
        <time>2018-11-24T11:34:35Z</time>
      </trkpt>
      <trkpt lat="42.83367" lon="0.73289">
        <ele>635.9</ele>
        <time>2018-11-24T11:34:38Z</time>
      </trkpt>
      <trkpt lat="42.83374" lon="0.73298">
        <ele>636.5</ele>
        <time>2018-11-24T11:34:42Z</time>
      </trkpt>
      <trkpt lat="42.83375" lon="0.73313">
        <ele>640.7</ele>
        <time>2018-11-24T11:34:47Z</time>
      </trkpt>
      <trkpt lat="42.83385" lon="0.73323">
        <ele>640.4</ele>
        <time>2018-11-24T11:34:51Z</time>
      </trkpt>
      <trkpt lat="42.83393" lon="0.73329">
        <ele>640.5</ele>
        <time>2018-11-24T11:34:55Z</time>
      </trkpt>
      <trkpt lat="42.8348" lon="0.73251">
        <ele>617.8</ele>
        <time>2018-11-24T22:01:55Z</time>
      </trkpt>
      <trkpt lat="42.83481" lon="0.73248">
        <ele>617.5</ele>
        <time>2018-11-24T22:01:55Z</time>
      </trkpt>
      <trkpt lat="42.83483" lon="0.73244">
        <ele>617.1</ele>
        <time>2018-11-24T22:01:57Z</time>
      </trkpt>
      <trkpt lat="42.83485" lon="0.73241">
        <ele>616.8</ele>
        <time>2018-11-24T22:01:58Z</time>
      </trkpt>
      <trkpt lat="42.83486" lon="0.73238">
        <ele>616.5</ele>
        <time>2018-11-24T22:01:59Z</time>
      </trkpt>
      <trkpt lat="42.83486" lon="0.73236">
        <ele>616.2</ele>
        <time>2018-11-24T22:02:00Z</time>
      </trkpt>
      <trkpt lat="42.83488" lon="0.73234">
        <ele>615.8</ele>
        <time>2018-11-24T22:02:00Z</time>
      </trkpt>
      <trkpt lat="42.83489" lon="0.73231">
        <ele>615.5</ele>
        <time>2018-11-24T22:02:01Z</time>
      </trkpt>
      <trkpt lat="42.8349" lon="0.73229">
        <ele>615.3</ele>
        <time>2018-11-24T22:02:02Z</time>
      </trkpt>
      <trkpt lat="42.83491" lon="0.73227">
        <ele>615</ele>
        <time>2018-11-24T22:02:03Z</time>
      </trkpt>
      <trkpt lat="42.83492" lon="0.73224">
        <ele>614.7</ele>
        <time>2018-11-24T22:02:04Z</time>
      </trkpt>
      <trkpt lat="42.83493" lon="0.73221">
        <ele>614.5</ele>
        <time>2018-11-24T22:02:05Z</time>
      </trkpt>
      <trkpt lat="42.83494" lon="0.73218">
        <ele>614</ele>
        <time>2018-11-24T22:02:06Z</time>
      </trkpt>
      <trkpt lat="42.83495" lon="0.73215">
        <ele>613.6</ele>
        <time>2018-11-24T22:02:07Z</time>
      </trkpt>
      <trkpt lat="42.83497" lon="0.73211">
        <ele>613.2</ele>
        <time>2018-11-24T22:02:08Z</time>
      </trkpt>
      <trkpt lat="42.83499" lon="0.73209">
        <ele>612.9</ele>
        <time>2018-11-24T22:02:09Z</time>
      </trkpt>
      <trkpt lat="42.835" lon="0.73206">
        <ele>612.5</ele>
        <time>2018-11-24T22:02:10Z</time>
      </trkpt>
      <trkpt lat="42.83502" lon="0.73204">
        <ele>612.1</ele>
        <time>2018-11-24T22:02:11Z</time>
      </trkpt>
      <trkpt lat="42.83504" lon="0.73201">
        <ele>611.8</ele>
        <time>2018-11-24T22:02:12Z</time>
      </trkpt>
      <trkpt lat="42.83506" lon="0.73199">
        <ele>611.6</ele>
        <time>2018-11-24T22:02:13Z</time>
      </trkpt>
      <trkpt lat="42.83508" lon="0.73197">
        <ele>611.2</ele>
        <time>2018-11-24T22:02:14Z</time>
      </trkpt>
      <trkpt lat="42.8351" lon="0.73195">
        <ele>610.9</ele>
        <time>2018-11-24T22:02:15Z</time>
      </trkpt>
      <trkpt lat="42.83512" lon="0.73193">
        <ele>610.6</ele>
        <time>2018-11-24T22:02:16Z</time>
      </trkpt>
      <trkpt lat="42.83513" lon="0.73191">
        <ele>610.1</ele>
        <time>2018-11-24T22:02:17Z</time>
      </trkpt>
      <trkpt lat="42.83515" lon="0.73189">
        <ele>610</ele>
        <time>2018-11-24T22:02:18Z</time>
      </trkpt>
      <trkpt lat="42.83524" lon="0.7318">
        <ele>610</ele>
        <time>2018-11-24T22:02:22Z</time>
      </trkpt>
      <trkpt lat="42.83531" lon="0.73171">
        <ele>610</ele>
        <time>2018-11-24T22:02:26Z</time>
      </trkpt>
      <trkpt lat="42.83534" lon="0.73159">
        <ele>610.1</ele>
        <time>2018-11-24T22:02:30Z</time>
      </trkpt>
      <trkpt lat="42.83536" lon="0.73144">
        <ele>610.1</ele>
        <time>2018-11-24T22:02:34Z</time>
      </trkpt>
      <trkpt lat="42.83537" lon="0.73132">
        <ele>611.7</ele>
        <time>2018-11-24T22:02:38Z</time>
      </trkpt>
      <trkpt lat="42.83538" lon="0.73123">
        <ele>611.1</ele>
        <time>2018-11-24T22:02:40Z</time>
      </trkpt>
      <trkpt lat="42.83539" lon="0.73119">
        <ele>610.6</ele>
        <time>2018-11-24T22:02:42Z</time>
      </trkpt>
      <trkpt lat="42.83539" lon="0.73115">
        <ele>610.2</ele>
        <time>2018-11-24T22:02:43Z</time>
      </trkpt>
      <trkpt lat="42.83539" lon="0.73111">
        <ele>610.4</ele>
        <time>2018-11-24T22:02:44Z</time>
      </trkpt>
      <trkpt lat="42.83539" lon="0.73108">
        <ele>611</ele>
        <time>2018-11-24T22:02:45Z</time>
      </trkpt>
      <trkpt lat="42.83539" lon="0.73104">
        <ele>611.4</ele>
        <time>2018-11-24T22:02:46Z</time>
      </trkpt>
      <trkpt lat="42.8354" lon="0.73101">
        <ele>611.8</ele>
        <time>2018-11-24T22:02:47Z</time>
      </trkpt>
      <trkpt lat="42.8354" lon="0.73099">
        <ele>612.2</ele>
        <time>2018-11-24T22:02:48Z</time>
      </trkpt>
      <trkpt lat="42.83541" lon="0.73094">
        <ele>612.9</ele>
        <time>2018-11-24T22:02:49Z</time>
      </trkpt>
      <trkpt lat="42.83541" lon="0.7309">
        <ele>613.4</ele>
        <time>2018-11-24T22:02:50Z</time>
      </trkpt>
      <trkpt lat="42.83542" lon="0.73086">
        <ele>614</ele>
        <time>2018-11-24T22:02:51Z</time>
      </trkpt>
      <trkpt lat="42.83542" lon="0.73083">
        <ele>614.5</ele>
        <time>2018-11-24T22:02:52Z</time>
      </trkpt>
      <trkpt lat="42.83542" lon="0.73079">
        <ele>615.1</ele>
        <time>2018-11-24T22:02:53Z</time>
      </trkpt>
      <trkpt lat="42.83543" lon="0.73076">
        <ele>615.5</ele>
        <time>2018-11-24T22:02:54Z</time>
      </trkpt>
      <trkpt lat="42.83543" lon="0.73073">
        <ele>616.1</ele>
        <time>2018-11-24T22:02:55Z</time>
      </trkpt>
      <trkpt lat="42.83543" lon="0.7307">
        <ele>616.5</ele>
        <time>2018-11-24T22:02:56Z</time>
      </trkpt>
      <trkpt lat="42.83543" lon="0.73067">
        <ele>616.9</ele>
        <time>2018-11-24T22:02:57Z</time>
      </trkpt>
      <trkpt lat="42.83543" lon="0.73063">
        <ele>617.5</ele>
        <time>2018-11-24T22:02:58Z</time>
      </trkpt>
      <trkpt lat="42.83541" lon="0.7305">
        <ele>620.9</ele>
        <time>2018-11-24T22:03:02Z</time>
      </trkpt>
      <trkpt lat="42.8354" lon="0.73038">
        <ele>621.9</ele>
        <time>2018-11-24T22:03:06Z</time>
      </trkpt>
      <trkpt lat="42.83534" lon="0.73025">
        <ele>624.9</ele>
        <time>2018-11-24T22:03:10Z</time>
      </trkpt>
      <trkpt lat="42.83528" lon="0.73013">
        <ele>627.5</ele>
        <time>2018-11-24T22:03:14Z</time>
      </trkpt>
      <trkpt lat="42.83534" lon="0.73015">
        <ele>627.3</ele>
        <time>2018-11-24T22:03:17Z</time>
      </trkpt>
      <trkpt lat="42.83537" lon="0.73017">
        <ele>627</ele>
        <time>2018-11-24T22:03:18Z</time>
      </trkpt>
      <trkpt lat="42.8354" lon="0.73017">
        <ele>627.2</ele>
        <time>2018-11-24T22:03:19Z</time>
      </trkpt>
      <trkpt lat="42.83544" lon="0.73017">
        <ele>627.5</ele>
        <time>2018-11-24T22:03:21Z</time>
      </trkpt>
      <trkpt lat="42.83547" lon="0.73016">
        <ele>627.7</ele>
        <time>2018-11-24T22:03:22Z</time>
      </trkpt>
      <trkpt lat="42.83551" lon="0.7301">
        <ele>630.8</ele>
        <time>2018-11-24T22:03:24Z</time>
      </trkpt>
      <trkpt lat="42.83553" lon="0.7301">
        <ele>630.7</ele>
        <time>2018-11-24T22:03:25Z</time>
      </trkpt>
      <trkpt lat="42.83555" lon="0.73008">
        <ele>630.1</ele>
        <time>2018-11-24T22:03:26Z</time>
      </trkpt>
      <trkpt lat="42.83561" lon="0.73007">
        <ele>631.1</ele>
        <time>2018-11-24T22:03:29Z</time>
      </trkpt>
      <trkpt lat="42.83563" lon="0.73005">
        <ele>631.7</ele>
        <time>2018-11-24T22:03:29Z</time>
      </trkpt>
      <trkpt lat="42.83565" lon="0.73004">
        <ele>632.5</ele>
        <time>2018-11-24T22:03:30Z</time>
      </trkpt>
      <trkpt lat="42.83566" lon="0.73002">
        <ele>633.1</ele>
        <time>2018-11-24T22:03:31Z</time>
      </trkpt>
      <trkpt lat="42.83568" lon="0.73">
        <ele>633.7</ele>
        <time>2018-11-24T22:03:32Z</time>
      </trkpt>
      <trkpt lat="42.83575" lon="0.72992">
        <ele>637.2</ele>
        <time>2018-11-24T22:03:36Z</time>
      </trkpt>
      <trkpt lat="42.8358" lon="0.72981">
        <ele>641.4</ele>
        <time>2018-11-24T22:03:39Z</time>
      </trkpt>
      <trkpt lat="42.83576" lon="0.72969">
        <ele>645.6</ele>
        <time>2018-11-24T22:03:43Z</time>
      </trkpt>
      <trkpt lat="42.8357" lon="0.72959">
        <ele>648.5</ele>
        <time>2018-11-24T22:03:47Z</time>
      </trkpt>
      <trkpt lat="42.83569" lon="0.72946">
        <ele>653.5</ele>
        <time>2018-11-24T22:03:51Z</time>
      </trkpt>
      <trkpt lat="42.83568" lon="0.72934">
        <ele>658.4</ele>
        <time>2018-11-24T22:03:55Z</time>
      </trkpt>
      <trkpt lat="42.83559" lon="0.72934">
        <ele>657.3</ele>
        <time>2018-11-24T22:03:58Z</time>
      </trkpt>
      <trkpt lat="42.83559" lon="0.72938">
        <ele>655.6</ele>
        <time>2018-11-24T22:03:59Z</time>
      </trkpt>
      <trkpt lat="42.83552" lon="0.72927">
        <ele>659.3</ele>
        <time>2018-11-24T22:04:03Z</time>
      </trkpt>
      <trkpt lat="42.83552" lon="0.72914">
        <ele>665</ele>
        <time>2018-11-24T22:04:07Z</time>
      </trkpt>
      <trkpt lat="42.83557" lon="0.72904">
        <ele>670.2</ele>
        <time>2018-11-24T22:04:11Z</time>
      </trkpt>
      <trkpt lat="42.83567" lon="0.72899">
        <ele>674.3</ele>
        <time>2018-11-24T22:04:15Z</time>
      </trkpt>
      <trkpt lat="42.83577" lon="0.72895">
        <ele>677.3</ele>
        <time>2018-11-24T22:04:19Z</time>
      </trkpt>
      <trkpt lat="42.83579" lon="0.72895">
        <ele>678</ele>
        <time>2018-11-24T22:04:20Z</time>
      </trkpt>
      <trkpt lat="42.83581" lon="0.72895">
        <ele>678.1</ele>
        <time>2018-11-24T22:04:21Z</time>
      </trkpt>
      <trkpt lat="42.83589" lon="0.72889">
        <ele>682.7</ele>
        <time>2018-11-24T22:04:25Z</time>
      </trkpt>
      <trkpt lat="42.8359" lon="0.72876">
        <ele>689.2</ele>
        <time>2018-11-24T22:04:28Z</time>
      </trkpt>
      <trkpt lat="42.83584" lon="0.72865">
        <ele>693.6</ele>
        <time>2018-11-24T22:04:32Z</time>
      </trkpt>
      <trkpt lat="42.83578" lon="0.72855">
        <ele>697.3</ele>
        <time>2018-11-24T22:04:36Z</time>
      </trkpt>
      <trkpt lat="42.83569" lon="0.72853">
        <ele>696.1</ele>
        <time>2018-11-24T22:04:40Z</time>
      </trkpt>
      <trkpt lat="42.83559" lon="0.72855">
        <ele>693.8</ele>
        <time>2018-11-24T22:04:44Z</time>
      </trkpt>
      <trkpt lat="42.83549" lon="0.72851">
        <ele>694.2</ele>
        <time>2018-11-24T22:04:48Z</time>
      </trkpt>
      <trkpt lat="42.83547" lon="0.72838">
        <ele>700.2</ele>
        <time>2018-11-24T22:04:52Z</time>
      </trkpt>
      <trkpt lat="42.83543" lon="0.72827">
        <ele>705.1</ele>
        <time>2018-11-24T22:04:56Z</time>
      </trkpt>
      <trkpt lat="42.83538" lon="0.72816">
        <ele>709.6</ele>
        <time>2018-11-24T22:04:59Z</time>
      </trkpt>
      <trkpt lat="42.83536" lon="0.72804">
        <ele>715.4</ele>
        <time>2018-11-24T22:05:03Z</time>
      </trkpt>
      <trkpt lat="42.8354" lon="0.72793">
        <ele>721.9</ele>
        <time>2018-11-24T22:05:06Z</time>
      </trkpt>
      <trkpt lat="42.83531" lon="0.72787">
        <ele>723.7</ele>
        <time>2018-11-24T22:05:10Z</time>
      </trkpt>
      <trkpt lat="42.83523" lon="0.72783">
        <ele>724.1</ele>
        <time>2018-11-24T22:05:14Z</time>
      </trkpt>
      <trkpt lat="42.83528" lon="0.72771">
        <ele>731.2</ele>
        <time>2018-11-24T22:05:18Z</time>
      </trkpt>
      <trkpt lat="42.83524" lon="0.7276">
        <ele>736.1</ele>
        <time>2018-11-24T22:05:22Z</time>
      </trkpt>
      <trkpt lat="42.83515" lon="0.72759">
        <ele>735.4</ele>
        <time>2018-11-24T22:05:25Z</time>
      </trkpt>
      <trkpt lat="42.83511" lon="0.72762">
        <ele>732.7</ele>
        <time>2018-11-24T22:05:27Z</time>
      </trkpt>
      <trkpt lat="42.83509" lon="0.72761">
        <ele>733.4</ele>
        <time>2018-11-24T22:05:28Z</time>
      </trkpt>
      <trkpt lat="42.83507" lon="0.72762">
        <ele>732.4</ele>
        <time>2018-11-24T22:05:29Z</time>
      </trkpt>
      <trkpt lat="42.83511" lon="0.7275">
        <ele>739.2</ele>
        <time>2018-11-24T22:05:33Z</time>
      </trkpt>
      <trkpt lat="42.83514" lon="0.72739">
        <ele>746.3</ele>
        <time>2018-11-24T22:05:36Z</time>
      </trkpt>
      <trkpt lat="42.8352" lon="0.72728">
        <ele>753.6</ele>
        <time>2018-11-24T22:05:40Z</time>
      </trkpt>
      <trkpt lat="42.83524" lon="0.72715">
        <ele>761.6</ele>
        <time>2018-11-24T22:05:44Z</time>
      </trkpt>
      <trkpt lat="42.83517" lon="0.72705">
        <ele>765.6</ele>
        <time>2018-11-24T22:05:48Z</time>
      </trkpt>
      <trkpt lat="42.83508" lon="0.72701">
        <ele>766.5</ele>
        <time>2018-11-24T22:05:52Z</time>
      </trkpt>
      <trkpt lat="42.83499" lon="0.72696">
        <ele>767.3</ele>
        <time>2018-11-24T22:05:56Z</time>
      </trkpt>
      <trkpt lat="42.83497" lon="0.72684">
        <ele>773.8</ele>
        <time>2018-11-24T22:06:00Z</time>
      </trkpt>
      <trkpt lat="42.83488" lon="0.72681">
        <ele>774.1</ele>
        <time>2018-11-24T22:06:03Z</time>
      </trkpt>
      <trkpt lat="42.83482" lon="0.7267">
        <ele>779.1</ele>
        <time>2018-11-24T22:06:07Z</time>
      </trkpt>
      <trkpt lat="42.83474" lon="0.72661">
        <ele>782.9</ele>
        <time>2018-11-24T22:06:11Z</time>
      </trkpt>
      <trkpt lat="42.83468" lon="0.72651">
        <ele>787.5</ele>
        <time>2018-11-24T22:06:15Z</time>
      </trkpt>
      <trkpt lat="42.83463" lon="0.72641">
        <ele>792.7</ele>
        <time>2018-11-24T22:06:19Z</time>
      </trkpt>
      <trkpt lat="42.83464" lon="0.72633">
        <ele>797.3</ele>
        <time>2018-11-24T22:06:21Z</time>
      </trkpt>
      <trkpt lat="42.83465" lon="0.7263">
        <ele>799.2</ele>
        <time>2018-11-24T22:06:22Z</time>
      </trkpt>
      <trkpt lat="42.8346" lon="0.72619">
        <ele>805.1</ele>
        <time>2018-11-24T22:06:26Z</time>
      </trkpt>
      <trkpt lat="42.83456" lon="0.72607">
        <ele>811.3</ele>
        <time>2018-11-24T22:06:30Z</time>
      </trkpt>
      <trkpt lat="42.83452" lon="0.72603">
        <ele>812.7</ele>
        <time>2018-11-24T22:06:32Z</time>
      </trkpt>
      <trkpt lat="42.83452" lon="0.72601">
        <ele>813.7</ele>
        <time>2018-11-24T22:06:32Z</time>
      </trkpt>
      <trkpt lat="42.8345" lon="0.72603">
        <ele>812.3</ele>
        <time>2018-11-24T22:06:33Z</time>
      </trkpt>
      <trkpt lat="42.83446" lon="0.72601">
        <ele>812.6</ele>
        <time>2018-11-24T22:06:35Z</time>
      </trkpt>
      <trkpt lat="42.83441" lon="0.7259">
        <ele>817.9</ele>
        <time>2018-11-24T22:06:39Z</time>
      </trkpt>
      <trkpt lat="42.83441" lon="0.72586">
        <ele>820.7</ele>
        <time>2018-11-24T22:06:40Z</time>
      </trkpt>
      <trkpt lat="42.83436" lon="0.72575">
        <ele>825.6</ele>
        <time>2018-11-24T22:06:44Z</time>
      </trkpt>
      <trkpt lat="42.83433" lon="0.72563">
        <ele>831.6</ele>
        <time>2018-11-24T22:06:48Z</time>
      </trkpt>
      <trkpt lat="42.83433" lon="0.7255">
        <ele>838.6</ele>
        <time>2018-11-24T22:06:52Z</time>
      </trkpt>
      <trkpt lat="42.83438" lon="0.72539">
        <ele>844.6</ele>
        <time>2018-11-24T22:06:55Z</time>
      </trkpt>
      <trkpt lat="42.83434" lon="0.72527">
        <ele>849.9</ele>
        <time>2018-11-24T22:06:59Z</time>
      </trkpt>
      <trkpt lat="42.83427" lon="0.72519">
        <ele>852.9</ele>
        <time>2018-11-24T22:07:03Z</time>
      </trkpt>
      <trkpt lat="42.83433" lon="0.7251">
        <ele>858</ele>
        <time>2018-11-24T22:07:07Z</time>
      </trkpt>
      <trkpt lat="42.83442" lon="0.72505">
        <ele>861.5</ele>
        <time>2018-11-24T22:07:11Z</time>
      </trkpt>
      <trkpt lat="42.83436" lon="0.72495">
        <ele>865.6</ele>
        <time>2018-11-24T22:07:14Z</time>
      </trkpt>
      <trkpt lat="42.83429" lon="0.72486">
        <ele>868.5</ele>
        <time>2018-11-24T22:07:18Z</time>
      </trkpt>
      <trkpt lat="42.83423" lon="0.72476">
        <ele>871.9</ele>
        <time>2018-11-24T22:07:22Z</time>
      </trkpt>
      <trkpt lat="42.83414" lon="0.72469">
        <ele>873.7</ele>
        <time>2018-11-24T22:07:26Z</time>
      </trkpt>
      <trkpt lat="42.83406" lon="0.72463">
        <ele>875.1</ele>
        <time>2018-11-24T22:07:30Z</time>
      </trkpt>
      <trkpt lat="42.83397" lon="0.72459">
        <ele>875.1</ele>
        <time>2018-11-24T22:07:34Z</time>
      </trkpt>
      <trkpt lat="42.8339" lon="0.72452">
        <ele>876.4</ele>
        <time>2018-11-24T22:07:37Z</time>
      </trkpt>
      <trkpt lat="42.8338" lon="0.72448">
        <ele>875.7</ele>
        <time>2018-11-24T22:07:41Z</time>
      </trkpt>
      <trkpt lat="42.8337" lon="0.72446">
        <ele>873.7</ele>
        <time>2018-11-24T22:07:45Z</time>
      </trkpt>
      <trkpt lat="42.83369" lon="0.72448">
        <ele>872.5</ele>
        <time>2018-11-24T22:07:46Z</time>
      </trkpt>
      <trkpt lat="42.83368" lon="0.72451">
        <ele>871.3</ele>
        <time>2018-11-24T22:07:47Z</time>
      </trkpt>
      <trkpt lat="42.83367" lon="0.72454">
        <ele>869.9</ele>
        <time>2018-11-24T22:07:48Z</time>
      </trkpt>
      <trkpt lat="42.83366" lon="0.72456">
        <ele>868.7</ele>
        <time>2018-11-24T22:07:49Z</time>
      </trkpt>
      <trkpt lat="42.83364" lon="0.72459">
        <ele>867.1</ele>
        <time>2018-11-24T22:07:50Z</time>
      </trkpt>
      <trkpt lat="42.83363" lon="0.72461">
        <ele>866.1</ele>
        <time>2018-11-24T22:07:50Z</time>
      </trkpt>
      <trkpt lat="42.8336" lon="0.72464">
        <ele>864.4</ele>
        <time>2018-11-24T22:07:52Z</time>
      </trkpt>
      <trkpt lat="42.83358" lon="0.72466">
        <ele>862.6</ele>
        <time>2018-11-24T22:07:53Z</time>
      </trkpt>
      <trkpt lat="42.83357" lon="0.72468">
        <ele>861.4</ele>
        <time>2018-11-24T22:07:54Z</time>
      </trkpt>
      <trkpt lat="42.83355" lon="0.7247">
        <ele>860.3</ele>
        <time>2018-11-24T22:07:55Z</time>
      </trkpt>
      <trkpt lat="42.83353" lon="0.72471">
        <ele>859.2</ele>
        <time>2018-11-24T22:07:56Z</time>
      </trkpt>
      <trkpt lat="42.8335" lon="0.72473">
        <ele>857.8</ele>
        <time>2018-11-24T22:07:57Z</time>
      </trkpt>
      <trkpt lat="42.83348" lon="0.72475">
        <ele>856.3</ele>
        <time>2018-11-24T22:07:58Z</time>
      </trkpt>
      <trkpt lat="42.83346" lon="0.72476">
        <ele>855.2</ele>
        <time>2018-11-24T22:07:59Z</time>
      </trkpt>
      <trkpt lat="42.83345" lon="0.72478">
        <ele>854.2</ele>
        <time>2018-11-24T22:07:59Z</time>
      </trkpt>
      <trkpt lat="42.83342" lon="0.7248">
        <ele>852.5</ele>
        <time>2018-11-24T22:08:01Z</time>
      </trkpt>
      <trkpt lat="42.8334" lon="0.72481">
        <ele>851.4</ele>
        <time>2018-11-24T22:08:01Z</time>
      </trkpt>
      <trkpt lat="42.83338" lon="0.7248">
        <ele>851.1</ele>
        <time>2018-11-24T22:08:02Z</time>
      </trkpt>
      <trkpt lat="42.83339" lon="0.72477">
        <ele>852.4</ele>
        <time>2018-11-24T22:08:03Z</time>
      </trkpt>
      <trkpt lat="42.83338" lon="0.72474">
        <ele>853.3</ele>
        <time>2018-11-24T22:08:04Z</time>
      </trkpt>
      <trkpt lat="42.83339" lon="0.72471">
        <ele>854.8</ele>
        <time>2018-11-24T22:08:05Z</time>
      </trkpt>
      <trkpt lat="42.8334" lon="0.72469">
        <ele>856.2</ele>
        <time>2018-11-24T22:08:06Z</time>
      </trkpt>
      <trkpt lat="42.83342" lon="0.72466">
        <ele>857.8</ele>
        <time>2018-11-24T22:08:07Z</time>
      </trkpt>
      <trkpt lat="42.83343" lon="0.72463">
        <ele>859.4</ele>
        <time>2018-11-24T22:08:08Z</time>
      </trkpt>
      <trkpt lat="42.83343" lon="0.7246">
        <ele>860.5</ele>
        <time>2018-11-24T22:08:09Z</time>
      </trkpt>
      <trkpt lat="42.83342" lon="0.72457">
        <ele>861</ele>
        <time>2018-11-24T22:08:09Z</time>
      </trkpt>
      <trkpt lat="42.83342" lon="0.72454">
        <ele>862</ele>
        <time>2018-11-24T22:08:10Z</time>
      </trkpt>
      <trkpt lat="42.83343" lon="0.72451">
        <ele>863.6</ele>
        <time>2018-11-24T22:08:11Z</time>
      </trkpt>
      <trkpt lat="42.83344" lon="0.72449">
        <ele>864.7</ele>
        <time>2018-11-24T22:08:12Z</time>
      </trkpt>
      <trkpt lat="42.83345" lon="0.72446">
        <ele>865.8</ele>
        <time>2018-11-24T22:08:13Z</time>
      </trkpt>
      <trkpt lat="42.83345" lon="0.72443">
        <ele>867.2</ele>
        <time>2018-11-24T22:08:14Z</time>
      </trkpt>
      <trkpt lat="42.83346" lon="0.7244">
        <ele>868.1</ele>
        <time>2018-11-24T22:08:15Z</time>
      </trkpt>
      <trkpt lat="42.83344" lon="0.7244">
        <ele>867.7</ele>
        <time>2018-11-24T22:08:15Z</time>
      </trkpt>
      <trkpt lat="42.83344" lon="0.72437">
        <ele>868.8</ele>
        <time>2018-11-24T22:08:16Z</time>
      </trkpt>
      <trkpt lat="42.83345" lon="0.72434">
        <ele>870</ele>
        <time>2018-11-24T22:08:17Z</time>
      </trkpt>
      <trkpt lat="42.83347" lon="0.72431">
        <ele>871.6</ele>
        <time>2018-11-24T22:08:18Z</time>
      </trkpt>
      <trkpt lat="42.83347" lon="0.72428">
        <ele>872.7</ele>
        <time>2018-11-24T22:08:19Z</time>
      </trkpt>
      <trkpt lat="42.83348" lon="0.72425">
        <ele>873.7</ele>
        <time>2018-11-24T22:08:20Z</time>
      </trkpt>
      <trkpt lat="42.83349" lon="0.72423">
        <ele>874.7</ele>
        <time>2018-11-24T22:08:21Z</time>
      </trkpt>
      <trkpt lat="42.83349" lon="0.7242">
        <ele>875.9</ele>
        <time>2018-11-24T22:08:22Z</time>
      </trkpt>
      <trkpt lat="42.8335" lon="0.72417">
        <ele>876.9</ele>
        <time>2018-11-24T22:08:23Z</time>
      </trkpt>
      <trkpt lat="42.83349" lon="0.72415">
        <ele>877.3</ele>
        <time>2018-11-24T22:08:23Z</time>
      </trkpt>
      <trkpt lat="42.83349" lon="0.72412">
        <ele>878.4</ele>
        <time>2018-11-24T22:08:24Z</time>
      </trkpt>
      <trkpt lat="42.83349" lon="0.72409">
        <ele>879.1</ele>
        <time>2018-11-24T22:08:25Z</time>
      </trkpt>
      <trkpt lat="42.8335" lon="0.72407">
        <ele>880.1</ele>
        <time>2018-11-24T22:08:26Z</time>
      </trkpt>
      <trkpt lat="42.8335" lon="0.72403">
        <ele>881.1</ele>
        <time>2018-11-24T22:08:27Z</time>
      </trkpt>
      <trkpt lat="42.83352" lon="0.72402">
        <ele>882.1</ele>
        <time>2018-11-24T22:08:28Z</time>
      </trkpt>
      <trkpt lat="42.83354" lon="0.72403">
        <ele>882.4</ele>
        <time>2018-11-24T22:08:29Z</time>
      </trkpt>
      <trkpt lat="42.83355" lon="0.72401">
        <ele>883.6</ele>
        <time>2018-11-24T22:08:29Z</time>
      </trkpt>
      <trkpt lat="42.83354" lon="0.72398">
        <ele>883.7</ele>
        <time>2018-11-24T22:08:30Z</time>
      </trkpt>
      <trkpt lat="42.83352" lon="0.72397">
        <ele>883.7</ele>
        <time>2018-11-24T22:08:31Z</time>
      </trkpt>
      <trkpt lat="42.83352" lon="0.72394">
        <ele>884.2</ele>
        <time>2018-11-24T22:08:32Z</time>
      </trkpt>
      <trkpt lat="42.83352" lon="0.72391">
        <ele>885</ele>
        <time>2018-11-24T22:08:33Z</time>
      </trkpt>
      <trkpt lat="42.83351" lon="0.72388">
        <ele>885.4</ele>
        <time>2018-11-24T22:08:34Z</time>
      </trkpt>
      <trkpt lat="42.83351" lon="0.72385">
        <ele>886.4</ele>
        <time>2018-11-24T22:08:35Z</time>
      </trkpt>
      <trkpt lat="42.83351" lon="0.72382">
        <ele>887</ele>
        <time>2018-11-24T22:08:36Z</time>
      </trkpt>
      <trkpt lat="42.83351" lon="0.72379">
        <ele>887.7</ele>
        <time>2018-11-24T22:08:36Z</time>
      </trkpt>
      <trkpt lat="42.83352" lon="0.72376">
        <ele>888.6</ele>
        <time>2018-11-24T22:08:37Z</time>
      </trkpt>
      <trkpt lat="42.83351" lon="0.72373">
        <ele>888.9</ele>
        <time>2018-11-24T22:08:38Z</time>
      </trkpt>
      <trkpt lat="42.8335" lon="0.72371">
        <ele>889.1</ele>
        <time>2018-11-24T22:08:39Z</time>
      </trkpt>
      <trkpt lat="42.8335" lon="0.72368">
        <ele>889.8</ele>
        <time>2018-11-24T22:08:40Z</time>
      </trkpt>
      <trkpt lat="42.83351" lon="0.72366">
        <ele>889.5</ele>
        <time>2018-11-24T22:08:40Z</time>
      </trkpt>
      <trkpt lat="42.83352" lon="0.72363">
        <ele>891.7</ele>
        <time>2018-11-24T22:08:41Z</time>
      </trkpt>
      <trkpt lat="42.83354" lon="0.72362">
        <ele>892.5</ele>
        <time>2018-11-24T22:08:42Z</time>
      </trkpt>
      <trkpt lat="42.83356" lon="0.7236">
        <ele>893.4</ele>
        <time>2018-11-24T22:08:43Z</time>
      </trkpt>
      <trkpt lat="42.83357" lon="0.72358">
        <ele>894.2</ele>
        <time>2018-11-24T22:08:44Z</time>
      </trkpt>
      <trkpt lat="42.83358" lon="0.72357">
        <ele>895</ele>
        <time>2018-11-24T22:08:45Z</time>
      </trkpt>
      <trkpt lat="42.83359" lon="0.72355">
        <ele>895.8</ele>
        <time>2018-11-24T22:08:45Z</time>
      </trkpt>
      <trkpt lat="42.83361" lon="0.72352">
        <ele>896.9</ele>
        <time>2018-11-24T22:08:46Z</time>
      </trkpt>
      <trkpt lat="42.8336" lon="0.7235">
        <ele>897.2</ele>
        <time>2018-11-24T22:08:47Z</time>
      </trkpt>
      <trkpt lat="42.8336" lon="0.72346">
        <ele>898</ele>
        <time>2018-11-24T22:08:48Z</time>
      </trkpt>
      <trkpt lat="42.8336" lon="0.72344">
        <ele>898.2</ele>
        <time>2018-11-24T22:08:49Z</time>
      </trkpt>
      <trkpt lat="42.8336" lon="0.72341">
        <ele>898.8</ele>
        <time>2018-11-24T22:08:50Z</time>
      </trkpt>
      <trkpt lat="42.8336" lon="0.72337">
        <ele>899.6</ele>
        <time>2018-11-24T22:08:51Z</time>
      </trkpt>
      <trkpt lat="42.8336" lon="0.72334">
        <ele>900</ele>
        <time>2018-11-24T22:08:52Z</time>
      </trkpt>
      <trkpt lat="42.8336" lon="0.72331">
        <ele>899.7</ele>
        <time>2018-11-24T22:08:52Z</time>
      </trkpt>
      <trkpt lat="42.83359" lon="0.72328">
        <ele>899.5</ele>
        <time>2018-11-24T22:08:53Z</time>
      </trkpt>
      <trkpt lat="42.83358" lon="0.72326">
        <ele>899.3</ele>
        <time>2018-11-24T22:08:54Z</time>
      </trkpt>
      <trkpt lat="42.83358" lon="0.72322">
        <ele>901.1</ele>
        <time>2018-11-24T22:08:55Z</time>
      </trkpt>
      <trkpt lat="42.83358" lon="0.72318">
        <ele>901.4</ele>
        <time>2018-11-24T22:08:56Z</time>
      </trkpt>
      <trkpt lat="42.83358" lon="0.72316">
        <ele>901.9</ele>
        <time>2018-11-24T22:08:57Z</time>
      </trkpt>
      <trkpt lat="42.83357" lon="0.72313">
        <ele>902.2</ele>
        <time>2018-11-24T22:08:58Z</time>
      </trkpt>
      <trkpt lat="42.83357" lon="0.72309">
        <ele>902.4</ele>
        <time>2018-11-24T22:08:59Z</time>
      </trkpt>
      <trkpt lat="42.83357" lon="0.72306">
        <ele>902.7</ele>
        <time>2018-11-24T22:09:00Z</time>
      </trkpt>
      <trkpt lat="42.83356" lon="0.72303">
        <ele>902.9</ele>
        <time>2018-11-24T22:09:01Z</time>
      </trkpt>
      <trkpt lat="42.83356" lon="0.723">
        <ele>903.4</ele>
        <time>2018-11-24T22:09:02Z</time>
      </trkpt>
      <trkpt lat="42.83357" lon="0.72296">
        <ele>904</ele>
        <time>2018-11-24T22:09:03Z</time>
      </trkpt>
      <trkpt lat="42.83357" lon="0.72293">
        <ele>904.4</ele>
        <time>2018-11-24T22:09:04Z</time>
      </trkpt>
      <trkpt lat="42.83358" lon="0.7229">
        <ele>904.9</ele>
        <time>2018-11-24T22:09:05Z</time>
      </trkpt>
      <trkpt lat="42.83358" lon="0.72287">
        <ele>905.2</ele>
        <time>2018-11-24T22:09:06Z</time>
      </trkpt>
      <trkpt lat="42.83358" lon="0.72284">
        <ele>905.8</ele>
        <time>2018-11-24T22:09:07Z</time>
      </trkpt>
      <trkpt lat="42.83358" lon="0.7228">
        <ele>906.1</ele>
        <time>2018-11-24T22:09:08Z</time>
      </trkpt>
      <trkpt lat="42.83359" lon="0.72275">
        <ele>906.7</ele>
        <time>2018-11-24T22:09:09Z</time>
      </trkpt>
      <trkpt lat="42.83359" lon="0.7227">
        <ele>907.3</ele>
        <time>2018-11-24T22:09:11Z</time>
      </trkpt>
      <trkpt lat="42.83359" lon="0.72268">
        <ele>907.5</ele>
        <time>2018-11-24T22:09:12Z</time>
      </trkpt>
      <trkpt lat="42.83359" lon="0.72265">
        <ele>907.8</ele>
        <time>2018-11-24T22:09:12Z</time>
      </trkpt>
      <trkpt lat="42.8336" lon="0.72262">
        <ele>908</ele>
        <time>2018-11-24T22:09:13Z</time>
      </trkpt>
      <trkpt lat="42.8336" lon="0.72259">
        <ele>908.3</ele>
        <time>2018-11-24T22:09:14Z</time>
      </trkpt>
      <trkpt lat="42.8336" lon="0.72256">
        <ele>908.6</ele>
        <time>2018-11-24T22:09:15Z</time>
      </trkpt>
      <trkpt lat="42.8336" lon="0.72254">
        <ele>908.8</ele>
        <time>2018-11-24T22:09:16Z</time>
      </trkpt>
      <trkpt lat="42.83361" lon="0.72251">
        <ele>908.9</ele>
        <time>2018-11-24T22:09:16Z</time>
      </trkpt>
      <trkpt lat="42.83361" lon="0.72248">
        <ele>909.1</ele>
        <time>2018-11-24T22:09:17Z</time>
      </trkpt>
      <trkpt lat="42.83361" lon="0.72245">
        <ele>909.3</ele>
        <time>2018-11-24T22:09:18Z</time>
      </trkpt>
      <trkpt lat="42.8336" lon="0.72242">
        <ele>909.4</ele>
        <time>2018-11-24T22:09:19Z</time>
      </trkpt>
      <trkpt lat="42.8336" lon="0.72239">
        <ele>909.4</ele>
        <time>2018-11-24T22:09:20Z</time>
      </trkpt>
      <trkpt lat="42.8336" lon="0.72236">
        <ele>909.4</ele>
        <time>2018-11-24T22:09:21Z</time>
      </trkpt>
      <trkpt lat="42.8336" lon="0.72233">
        <ele>909.5</ele>
        <time>2018-11-24T22:09:22Z</time>
      </trkpt>
      <trkpt lat="42.8336" lon="0.7223">
        <ele>909.6</ele>
        <time>2018-11-24T22:09:23Z</time>
      </trkpt>
      <trkpt lat="42.8336" lon="0.72226">
        <ele>909.6</ele>
        <time>2018-11-24T22:09:24Z</time>
      </trkpt>
      <trkpt lat="42.8336" lon="0.72223">
        <ele>909.6</ele>
        <time>2018-11-24T22:09:25Z</time>
      </trkpt>
      <trkpt lat="42.8336" lon="0.7222">
        <ele>909.7</ele>
        <time>2018-11-24T22:09:26Z</time>
      </trkpt>
      <trkpt lat="42.83361" lon="0.72217">
        <ele>909.7</ele>
        <time>2018-11-24T22:09:27Z</time>
      </trkpt>
      <trkpt lat="42.83361" lon="0.72214">
        <ele>909.9</ele>
        <time>2018-11-24T22:09:28Z</time>
      </trkpt>
      <trkpt lat="42.83362" lon="0.7221">
        <ele>910</ele>
        <time>2018-11-24T22:09:28Z</time>
      </trkpt>
      <trkpt lat="42.83362" lon="0.72207">
        <ele>910</ele>
        <time>2018-11-24T22:09:29Z</time>
      </trkpt>
      <trkpt lat="42.83362" lon="0.72204">
        <ele>909.9</ele>
        <time>2018-11-24T22:09:30Z</time>
      </trkpt>
      <trkpt lat="42.83362" lon="0.72201">
        <ele>910</ele>
        <time>2018-11-24T22:09:31Z</time>
      </trkpt>
      <trkpt lat="42.83363" lon="0.72198">
        <ele>910.1</ele>
        <time>2018-11-24T22:09:32Z</time>
      </trkpt>
      <trkpt lat="42.83362" lon="0.72195">
        <ele>910</ele>
        <time>2018-11-24T22:09:33Z</time>
      </trkpt>
      <trkpt lat="42.83362" lon="0.72192">
        <ele>909.7</ele>
        <time>2018-11-24T22:09:34Z</time>
      </trkpt>
      <trkpt lat="42.83363" lon="0.72189">
        <ele>909.7</ele>
        <time>2018-11-24T22:09:35Z</time>
      </trkpt>
      <trkpt lat="42.83363" lon="0.72186">
        <ele>909.9</ele>
        <time>2018-11-24T22:09:36Z</time>
      </trkpt>
      <trkpt lat="42.83364" lon="0.72184">
        <ele>910.1</ele>
        <time>2018-11-24T22:09:36Z</time>
      </trkpt>
      <trkpt lat="42.83367" lon="0.72183">
        <ele>909.2</ele>
        <time>2018-11-24T22:09:38Z</time>
      </trkpt>
      <trkpt lat="42.83369" lon="0.72183">
        <ele>911.3</ele>
        <time>2018-11-24T22:09:38Z</time>
      </trkpt>
      <trkpt lat="42.83371" lon="0.72182">
        <ele>911.9</ele>
        <time>2018-11-24T22:09:39Z</time>
      </trkpt>
      <trkpt lat="42.83374" lon="0.72182">
        <ele>912.6</ele>
        <time>2018-11-24T22:09:40Z</time>
      </trkpt>
      <trkpt lat="42.83377" lon="0.72181">
        <ele>913.3</ele>
        <time>2018-11-24T22:09:41Z</time>
      </trkpt>
      <trkpt lat="42.83379" lon="0.7218">
        <ele>913.8</ele>
        <time>2018-11-24T22:09:42Z</time>
      </trkpt>
      <trkpt lat="42.83381" lon="0.7218">
        <ele>914.5</ele>
        <time>2018-11-24T22:09:43Z</time>
      </trkpt>
      <trkpt lat="42.83383" lon="0.7218">
        <ele>915</ele>
        <time>2018-11-24T22:09:44Z</time>
      </trkpt>
      <trkpt lat="42.83385" lon="0.72179">
        <ele>915.5</ele>
        <time>2018-11-24T22:09:45Z</time>
      </trkpt>
      <trkpt lat="42.83387" lon="0.72179">
        <ele>916.2</ele>
        <time>2018-11-24T22:09:46Z</time>
      </trkpt>
      <trkpt lat="42.8339" lon="0.72178">
        <ele>916.9</ele>
        <time>2018-11-24T22:09:47Z</time>
      </trkpt>
      <trkpt lat="42.83392" lon="0.72178">
        <ele>917.4</ele>
        <time>2018-11-24T22:09:48Z</time>
      </trkpt>
      <trkpt lat="42.83394" lon="0.72179">
        <ele>918</ele>
        <time>2018-11-24T22:09:48Z</time>
      </trkpt>
      <trkpt lat="42.83396" lon="0.72179">
        <ele>918.6</ele>
        <time>2018-11-24T22:09:49Z</time>
      </trkpt>
      <trkpt lat="42.83398" lon="0.72179">
        <ele>919.2</ele>
        <time>2018-11-24T22:09:50Z</time>
      </trkpt>
      <trkpt lat="42.834" lon="0.72179">
        <ele>919.9</ele>
        <time>2018-11-24T22:09:51Z</time>
      </trkpt>
      <trkpt lat="42.83402" lon="0.72179">
        <ele>919.6</ele>
        <time>2018-11-24T22:09:52Z</time>
      </trkpt>
      <trkpt lat="42.83405" lon="0.72179">
        <ele>919.2</ele>
        <time>2018-11-24T22:09:53Z</time>
      </trkpt>
      <trkpt lat="42.83407" lon="0.72178">
        <ele>921.3</ele>
        <time>2018-11-24T22:09:54Z</time>
      </trkpt>
      <trkpt lat="42.83409" lon="0.72178">
        <ele>921.9</ele>
        <time>2018-11-24T22:09:55Z</time>
      </trkpt>
      <trkpt lat="42.83412" lon="0.72177">
        <ele>922.4</ele>
        <time>2018-11-24T22:09:56Z</time>
      </trkpt>
      <trkpt lat="42.83414" lon="0.72175">
        <ele>922.9</ele>
        <time>2018-11-24T22:09:57Z</time>
      </trkpt>
      <trkpt lat="42.83416" lon="0.72174">
        <ele>923.2</ele>
        <time>2018-11-24T22:09:57Z</time>
      </trkpt>
      <trkpt lat="42.83418" lon="0.72172">
        <ele>923.7</ele>
        <time>2018-11-24T22:09:58Z</time>
      </trkpt>
      <trkpt lat="42.83419" lon="0.72169">
        <ele>923.8</ele>
        <time>2018-11-24T22:10:00Z</time>
      </trkpt>
      <trkpt lat="42.8342" lon="0.72166">
        <ele>924</ele>
        <time>2018-11-24T22:10:01Z</time>
      </trkpt>
      <trkpt lat="42.83421" lon="0.72163">
        <ele>924.2</ele>
        <time>2018-11-24T22:10:01Z</time>
      </trkpt>
      <trkpt lat="42.83423" lon="0.7216">
        <ele>924.5</ele>
        <time>2018-11-24T22:10:02Z</time>
      </trkpt>
      <trkpt lat="42.83424" lon="0.72157">
        <ele>924.7</ele>
        <time>2018-11-24T22:10:03Z</time>
      </trkpt>
      <trkpt lat="42.83425" lon="0.72154">
        <ele>924.9</ele>
        <time>2018-11-24T22:10:04Z</time>
      </trkpt>
      <trkpt lat="42.83426" lon="0.72151">
        <ele>925</ele>
        <time>2018-11-24T22:10:05Z</time>
      </trkpt>
      <trkpt lat="42.83427" lon="0.72148">
        <ele>925.3</ele>
        <time>2018-11-24T22:10:06Z</time>
      </trkpt>
      <trkpt lat="42.83429" lon="0.72146">
        <ele>925.5</ele>
        <time>2018-11-24T22:10:07Z</time>
      </trkpt>
      <trkpt lat="42.83431" lon="0.72147">
        <ele>926.3</ele>
        <time>2018-11-24T22:10:08Z</time>
      </trkpt>
      <trkpt lat="42.83432" lon="0.7215">
        <ele>926.5</ele>
        <time>2018-11-24T22:10:09Z</time>
      </trkpt>
      <trkpt lat="42.83432" lon="0.72153">
        <ele>926.6</ele>
        <time>2018-11-24T22:10:10Z</time>
      </trkpt>
      <trkpt lat="42.83433" lon="0.72156">
        <ele>926.9</ele>
        <time>2018-11-24T22:10:11Z</time>
      </trkpt>
      <trkpt lat="42.83434" lon="0.72159">
        <ele>927.2</ele>
        <time>2018-11-24T22:10:12Z</time>
      </trkpt>
      <trkpt lat="42.83435" lon="0.72162">
        <ele>927.5</ele>
        <time>2018-11-24T22:10:13Z</time>
      </trkpt>
      <trkpt lat="42.83435" lon="0.72165">
        <ele>927.9</ele>
        <time>2018-11-24T22:10:14Z</time>
      </trkpt>
      <trkpt lat="42.83436" lon="0.72168">
        <ele>928.1</ele>
        <time>2018-11-24T22:10:14Z</time>
      </trkpt>
      <trkpt lat="42.83437" lon="0.7217">
        <ele>928.3</ele>
        <time>2018-11-24T22:10:15Z</time>
      </trkpt>
      <trkpt lat="42.83437" lon="0.72174">
        <ele>928.4</ele>
        <time>2018-11-24T22:10:16Z</time>
      </trkpt>
      <trkpt lat="42.83438" lon="0.72176">
        <ele>928.6</ele>
        <time>2018-11-24T22:10:17Z</time>
      </trkpt>
      <trkpt lat="42.83439" lon="0.72179">
        <ele>928.8</ele>
        <time>2018-11-24T22:10:18Z</time>
      </trkpt>
      <trkpt lat="42.8344" lon="0.72182">
        <ele>929</ele>
        <time>2018-11-24T22:10:19Z</time>
      </trkpt>
      <trkpt lat="42.8344" lon="0.72185">
        <ele>929</ele>
        <time>2018-11-24T22:10:20Z</time>
      </trkpt>
      <trkpt lat="42.83441" lon="0.72189">
        <ele>929.1</ele>
        <time>2018-11-24T22:10:21Z</time>
      </trkpt>
      <trkpt lat="42.83441" lon="0.72192">
        <ele>929.1</ele>
        <time>2018-11-24T22:10:22Z</time>
      </trkpt>
      <trkpt lat="42.83442" lon="0.72195">
        <ele>929.1</ele>
        <time>2018-11-24T22:10:23Z</time>
      </trkpt>
      <trkpt lat="42.83442" lon="0.72198">
        <ele>929.2</ele>
        <time>2018-11-24T22:10:24Z</time>
      </trkpt>
      <trkpt lat="42.83443" lon="0.72201">
        <ele>929.4</ele>
        <time>2018-11-24T22:10:25Z</time>
      </trkpt>
      <trkpt lat="42.83444" lon="0.72204">
        <ele>930.7</ele>
        <time>2018-11-24T22:10:26Z</time>
      </trkpt>
      <trkpt lat="42.83446" lon="0.72207">
        <ele>930.5</ele>
        <time>2018-11-24T22:10:27Z</time>
      </trkpt>
      <trkpt lat="42.83447" lon="0.72209">
        <ele>930.3</ele>
        <time>2018-11-24T22:10:28Z</time>
      </trkpt>
      <trkpt lat="42.83449" lon="0.72211">
        <ele>930.1</ele>
        <time>2018-11-24T22:10:29Z</time>
      </trkpt>
      <trkpt lat="42.83451" lon="0.72213">
        <ele>930.6</ele>
        <time>2018-11-24T22:10:29Z</time>
      </trkpt>
      <trkpt lat="42.83452" lon="0.72215">
        <ele>930.7</ele>
        <time>2018-11-24T22:10:30Z</time>
      </trkpt>
      <trkpt lat="42.83454" lon="0.72217">
        <ele>930.8</ele>
        <time>2018-11-24T22:10:31Z</time>
      </trkpt>
      <trkpt lat="42.83455" lon="0.72219">
        <ele>931</ele>
        <time>2018-11-24T22:10:32Z</time>
      </trkpt>
      <trkpt lat="42.83457" lon="0.72221">
        <ele>931.2</ele>
        <time>2018-11-24T22:10:33Z</time>
      </trkpt>
      <trkpt lat="42.83459" lon="0.72223">
        <ele>931.3</ele>
        <time>2018-11-24T22:10:34Z</time>
      </trkpt>
      <trkpt lat="42.8346" lon="0.72225">
        <ele>931.4</ele>
        <time>2018-11-24T22:10:35Z</time>
      </trkpt>
      <trkpt lat="42.83462" lon="0.72227">
        <ele>931.6</ele>
        <time>2018-11-24T22:10:36Z</time>
      </trkpt>
      <trkpt lat="42.83463" lon="0.7223">
        <ele>931.7</ele>
        <time>2018-11-24T22:10:36Z</time>
      </trkpt>
      <trkpt lat="42.83465" lon="0.72232">
        <ele>931.9</ele>
        <time>2018-11-24T22:10:37Z</time>
      </trkpt>
      <trkpt lat="42.83467" lon="0.72234">
        <ele>932</ele>
        <time>2018-11-24T22:10:38Z</time>
      </trkpt>
      <trkpt lat="42.83468" lon="0.72237">
        <ele>932.1</ele>
        <time>2018-11-24T22:10:39Z</time>
      </trkpt>
      <trkpt lat="42.8347" lon="0.72239">
        <ele>932.2</ele>
        <time>2018-11-24T22:10:40Z</time>
      </trkpt>
      <trkpt lat="42.83473" lon="0.72241">
        <ele>932.4</ele>
        <time>2018-11-24T22:10:42Z</time>
      </trkpt>
      <trkpt lat="42.83475" lon="0.72243">
        <ele>932.5</ele>
        <time>2018-11-24T22:10:43Z</time>
      </trkpt>
      <trkpt lat="42.83477" lon="0.72245">
        <ele>932.7</ele>
        <time>2018-11-24T22:10:44Z</time>
      </trkpt>
      <trkpt lat="42.83479" lon="0.72247">
        <ele>932.9</ele>
        <time>2018-11-24T22:10:45Z</time>
      </trkpt>
      <trkpt lat="42.83481" lon="0.72249">
        <ele>932.8</ele>
        <time>2018-11-24T22:10:46Z</time>
      </trkpt>
      <trkpt lat="42.83483" lon="0.72252">
        <ele>932.8</ele>
        <time>2018-11-24T22:10:47Z</time>
      </trkpt>
      <trkpt lat="42.83484" lon="0.72255">
        <ele>932.6</ele>
        <time>2018-11-24T22:10:48Z</time>
      </trkpt>
      <trkpt lat="42.83486" lon="0.72258">
        <ele>932.8</ele>
        <time>2018-11-24T22:10:49Z</time>
      </trkpt>
      <trkpt lat="42.83488" lon="0.7226">
        <ele>932.9</ele>
        <time>2018-11-24T22:10:50Z</time>
      </trkpt>
      <trkpt lat="42.8349" lon="0.72262">
        <ele>932.9</ele>
        <time>2018-11-24T22:10:51Z</time>
      </trkpt>
      <trkpt lat="42.83492" lon="0.72264">
        <ele>933.1</ele>
        <time>2018-11-24T22:10:52Z</time>
      </trkpt>
      <trkpt lat="42.83493" lon="0.72266">
        <ele>933.1</ele>
        <time>2018-11-24T22:10:53Z</time>
      </trkpt>
      <trkpt lat="42.83495" lon="0.72268">
        <ele>933.4</ele>
        <time>2018-11-24T22:10:54Z</time>
      </trkpt>
      <trkpt lat="42.83497" lon="0.72269">
        <ele>933.5</ele>
        <time>2018-11-24T22:10:55Z</time>
      </trkpt>
      <trkpt lat="42.83499" lon="0.72271">
        <ele>933.6</ele>
        <time>2018-11-24T22:10:55Z</time>
      </trkpt>
      <trkpt lat="42.83501" lon="0.72273">
        <ele>933.9</ele>
        <time>2018-11-24T22:10:57Z</time>
      </trkpt>
      <trkpt lat="42.83504" lon="0.72274">
        <ele>934.2</ele>
        <time>2018-11-24T22:10:58Z</time>
      </trkpt>
      <trkpt lat="42.83506" lon="0.72276">
        <ele>934.3</ele>
        <time>2018-11-24T22:10:59Z</time>
      </trkpt>
      <trkpt lat="42.83508" lon="0.72278">
        <ele>934.7</ele>
        <time>2018-11-24T22:10:59Z</time>
      </trkpt>
      <trkpt lat="42.83509" lon="0.7228">
        <ele>934.9</ele>
        <time>2018-11-24T22:11:00Z</time>
      </trkpt>
      <trkpt lat="42.83511" lon="0.72282">
        <ele>935.1</ele>
        <time>2018-11-24T22:11:01Z</time>
      </trkpt>
      <trkpt lat="42.83513" lon="0.72284">
        <ele>935.2</ele>
        <time>2018-11-24T22:11:02Z</time>
      </trkpt>
      <trkpt lat="42.83515" lon="0.72287">
        <ele>935.2</ele>
        <time>2018-11-24T22:11:04Z</time>
      </trkpt>
      <trkpt lat="42.83517" lon="0.7229">
        <ele>935.2</ele>
        <time>2018-11-24T22:11:05Z</time>
      </trkpt>
      <trkpt lat="42.83519" lon="0.72293">
        <ele>935.2</ele>
        <time>2018-11-24T22:11:06Z</time>
      </trkpt>
      <trkpt lat="42.83521" lon="0.72295">
        <ele>935.4</ele>
        <time>2018-11-24T22:11:07Z</time>
      </trkpt>
      <trkpt lat="42.83523" lon="0.72298">
        <ele>935.4</ele>
        <time>2018-11-24T22:11:08Z</time>
      </trkpt>
      <trkpt lat="42.83524" lon="0.72301">
        <ele>935.1</ele>
        <time>2018-11-24T22:11:09Z</time>
      </trkpt>
      <trkpt lat="42.83525" lon="0.72304">
        <ele>935</ele>
        <time>2018-11-24T22:11:10Z</time>
      </trkpt>
      <trkpt lat="42.83527" lon="0.72308">
        <ele>934.7</ele>
        <time>2018-11-24T22:11:11Z</time>
      </trkpt>
      <trkpt lat="42.83529" lon="0.72311">
        <ele>934.6</ele>
        <time>2018-11-24T22:11:12Z</time>
      </trkpt>
      <trkpt lat="42.8353" lon="0.72314">
        <ele>934.4</ele>
        <time>2018-11-24T22:11:14Z</time>
      </trkpt>
      <trkpt lat="42.83532" lon="0.72317">
        <ele>934.4</ele>
        <time>2018-11-24T22:11:15Z</time>
      </trkpt>
      <trkpt lat="42.83533" lon="0.7232">
        <ele>934.2</ele>
        <time>2018-11-24T22:11:16Z</time>
      </trkpt>
      <trkpt lat="42.83534" lon="0.72323">
        <ele>933.7</ele>
        <time>2018-11-24T22:11:17Z</time>
      </trkpt>
      <trkpt lat="42.83535" lon="0.72327">
        <ele>933.3</ele>
        <time>2018-11-24T22:11:18Z</time>
      </trkpt>
      <trkpt lat="42.83537" lon="0.72329">
        <ele>933.1</ele>
        <time>2018-11-24T22:11:19Z</time>
      </trkpt>
      <trkpt lat="42.83538" lon="0.72332">
        <ele>932.9</ele>
        <time>2018-11-24T22:11:20Z</time>
      </trkpt>
      <trkpt lat="42.83539" lon="0.72334">
        <ele>932.6</ele>
        <time>2018-11-24T22:11:20Z</time>
      </trkpt>
      <trkpt lat="42.8354" lon="0.72337">
        <ele>932.2</ele>
        <time>2018-11-24T22:11:21Z</time>
      </trkpt>
      <trkpt lat="42.83541" lon="0.7234">
        <ele>931.7</ele>
        <time>2018-11-24T22:11:22Z</time>
      </trkpt>
      <trkpt lat="42.83542" lon="0.72343">
        <ele>931.3</ele>
        <time>2018-11-24T22:11:23Z</time>
      </trkpt>
      <trkpt lat="42.83543" lon="0.72346">
        <ele>930.9</ele>
        <time>2018-11-24T22:11:24Z</time>
      </trkpt>
      <trkpt lat="42.83545" lon="0.72349">
        <ele>930.7</ele>
        <time>2018-11-24T22:11:25Z</time>
      </trkpt>
      <trkpt lat="42.83546" lon="0.72351">
        <ele>930.6</ele>
        <time>2018-11-24T22:11:26Z</time>
      </trkpt>
      <trkpt lat="42.83548" lon="0.72354">
        <ele>930.3</ele>
        <time>2018-11-24T22:11:27Z</time>
      </trkpt>
      <trkpt lat="42.83549" lon="0.72357">
        <ele>930.1</ele>
        <time>2018-11-24T22:11:28Z</time>
      </trkpt>
      <trkpt lat="42.8355" lon="0.7236">
        <ele>929.5</ele>
        <time>2018-11-24T22:11:29Z</time>
      </trkpt>
      <trkpt lat="42.83551" lon="0.72362">
        <ele>929.1</ele>
        <time>2018-11-24T22:11:30Z</time>
      </trkpt>
      <trkpt lat="42.83552" lon="0.72365">
        <ele>928.7</ele>
        <time>2018-11-24T22:11:31Z</time>
      </trkpt>
      <trkpt lat="42.83553" lon="0.72368">
        <ele>928.3</ele>
        <time>2018-11-24T22:11:32Z</time>
      </trkpt>
      <trkpt lat="42.83555" lon="0.72371">
        <ele>927.6</ele>
        <time>2018-11-24T22:11:33Z</time>
      </trkpt>
      <trkpt lat="42.83556" lon="0.72374">
        <ele>927.2</ele>
        <time>2018-11-24T22:11:34Z</time>
      </trkpt>
      <trkpt lat="42.83557" lon="0.72376">
        <ele>926.7</ele>
        <time>2018-11-24T22:11:35Z</time>
      </trkpt>
      <trkpt lat="42.83558" lon="0.72379">
        <ele>926.2</ele>
        <time>2018-11-24T22:11:36Z</time>
      </trkpt>
      <trkpt lat="42.8356" lon="0.72382">
        <ele>925.9</ele>
        <time>2018-11-24T22:11:37Z</time>
      </trkpt>
      <trkpt lat="42.83561" lon="0.72384">
        <ele>925.4</ele>
        <time>2018-11-24T22:11:38Z</time>
      </trkpt>
      <trkpt lat="42.83562" lon="0.72387">
        <ele>924.8</ele>
        <time>2018-11-24T22:11:38Z</time>
      </trkpt>
      <trkpt lat="42.83563" lon="0.72389">
        <ele>924.4</ele>
        <time>2018-11-24T22:11:39Z</time>
      </trkpt>
      <trkpt lat="42.83564" lon="0.72392">
        <ele>923.8</ele>
        <time>2018-11-24T22:11:40Z</time>
      </trkpt>
      <trkpt lat="42.83566" lon="0.72395">
        <ele>923.3</ele>
        <time>2018-11-24T22:11:41Z</time>
      </trkpt>
      <trkpt lat="42.83567" lon="0.72397">
        <ele>923</ele>
        <time>2018-11-24T22:11:42Z</time>
      </trkpt>
      <trkpt lat="42.83568" lon="0.72399">
        <ele>922.6</ele>
        <time>2018-11-24T22:11:43Z</time>
      </trkpt>
      <trkpt lat="42.8357" lon="0.72401">
        <ele>922.4</ele>
        <time>2018-11-24T22:11:44Z</time>
      </trkpt>
      <trkpt lat="42.83571" lon="0.72403">
        <ele>922.2</ele>
        <time>2018-11-24T22:11:45Z</time>
      </trkpt>
      <trkpt lat="42.83573" lon="0.72405">
        <ele>921.9</ele>
        <time>2018-11-24T22:11:45Z</time>
      </trkpt>
      <trkpt lat="42.83574" lon="0.72407">
        <ele>921.7</ele>
        <time>2018-11-24T22:11:46Z</time>
      </trkpt>
      <trkpt lat="42.83575" lon="0.72409">
        <ele>921.5</ele>
        <time>2018-11-24T22:11:47Z</time>
      </trkpt>
      <trkpt lat="42.83577" lon="0.72411">
        <ele>921.1</ele>
        <time>2018-11-24T22:11:48Z</time>
      </trkpt>
      <trkpt lat="42.83578" lon="0.72412">
        <ele>920.9</ele>
        <time>2018-11-24T22:11:48Z</time>
      </trkpt>
      <trkpt lat="42.83579" lon="0.72414">
        <ele>920.5</ele>
        <time>2018-11-24T22:11:49Z</time>
      </trkpt>
      <trkpt lat="42.83581" lon="0.72416">
        <ele>920.3</ele>
        <time>2018-11-24T22:11:50Z</time>
      </trkpt>
      <trkpt lat="42.83583" lon="0.72418">
        <ele>920.3</ele>
        <time>2018-11-24T22:11:51Z</time>
      </trkpt>
      <trkpt lat="42.83585" lon="0.72419">
        <ele>920.2</ele>
        <time>2018-11-24T22:11:52Z</time>
      </trkpt>
      <trkpt lat="42.83586" lon="0.72421">
        <ele>920.1</ele>
        <time>2018-11-24T22:11:53Z</time>
      </trkpt>
      <trkpt lat="42.83588" lon="0.72423">
        <ele>919.7</ele>
        <time>2018-11-24T22:11:53Z</time>
      </trkpt>
      <trkpt lat="42.83589" lon="0.72424">
        <ele>919.6</ele>
        <time>2018-11-24T22:11:54Z</time>
      </trkpt>
      <trkpt lat="42.83591" lon="0.72425">
        <ele>919.7</ele>
        <time>2018-11-24T22:11:55Z</time>
      </trkpt>
      <trkpt lat="42.83593" lon="0.72427">
        <ele>919.7</ele>
        <time>2018-11-24T22:11:56Z</time>
      </trkpt>
      <trkpt lat="42.83595" lon="0.72429">
        <ele>919.6</ele>
        <time>2018-11-24T22:11:57Z</time>
      </trkpt>
      <trkpt lat="42.83596" lon="0.7243">
        <ele>919.6</ele>
        <time>2018-11-24T22:11:57Z</time>
      </trkpt>
      <trkpt lat="42.83598" lon="0.72432">
        <ele>919.4</ele>
        <time>2018-11-24T22:11:58Z</time>
      </trkpt>
      <trkpt lat="42.836" lon="0.72434">
        <ele>919.4</ele>
        <time>2018-11-24T22:11:59Z</time>
      </trkpt>
      <trkpt lat="42.83601" lon="0.72435">
        <ele>919.3</ele>
        <time>2018-11-24T22:12:00Z</time>
      </trkpt>
      <trkpt lat="42.83604" lon="0.72437">
        <ele>919.3</ele>
        <time>2018-11-24T22:12:01Z</time>
      </trkpt>
      <trkpt lat="42.83606" lon="0.72437">
        <ele>919.8</ele>
        <time>2018-11-24T22:12:02Z</time>
      </trkpt>
      <trkpt lat="42.83607" lon="0.72439">
        <ele>919.6</ele>
        <time>2018-11-24T22:12:03Z</time>
      </trkpt>
      <trkpt lat="42.8361" lon="0.72441">
        <ele>919.5</ele>
        <time>2018-11-24T22:12:04Z</time>
      </trkpt>
      <trkpt lat="42.83613" lon="0.72443">
        <ele>919.4</ele>
        <time>2018-11-24T22:12:05Z</time>
      </trkpt>
      <trkpt lat="42.83615" lon="0.72444">
        <ele>919.7</ele>
        <time>2018-11-24T22:12:06Z</time>
      </trkpt>
      <trkpt lat="42.83616" lon="0.72445">
        <ele>920</ele>
        <time>2018-11-24T22:12:07Z</time>
      </trkpt>
      <trkpt lat="42.83618" lon="0.72446">
        <ele>919.8</ele>
        <time>2018-11-24T22:12:08Z</time>
      </trkpt>
      <trkpt lat="42.8362" lon="0.72447">
        <ele>920.4</ele>
        <time>2018-11-24T22:12:08Z</time>
      </trkpt>
      <trkpt lat="42.83623" lon="0.72447">
        <ele>921.2</ele>
        <time>2018-11-24T22:12:09Z</time>
      </trkpt>
      <trkpt lat="42.83626" lon="0.72447">
        <ele>922.2</ele>
        <time>2018-11-24T22:12:11Z</time>
      </trkpt>
      <trkpt lat="42.83629" lon="0.72447">
        <ele>923</ele>
        <time>2018-11-24T22:12:12Z</time>
      </trkpt>
      <trkpt lat="42.83631" lon="0.72448">
        <ele>923.3</ele>
        <time>2018-11-24T22:12:13Z</time>
      </trkpt>
      <trkpt lat="42.83632" lon="0.72449">
        <ele>923.7</ele>
        <time>2018-11-24T22:12:13Z</time>
      </trkpt>
      <trkpt lat="42.83635" lon="0.72449">
        <ele>924.1</ele>
        <time>2018-11-24T22:12:14Z</time>
      </trkpt>
      <trkpt lat="42.83637" lon="0.72449">
        <ele>924.8</ele>
        <time>2018-11-24T22:12:15Z</time>
      </trkpt>
      <trkpt lat="42.8364" lon="0.72452">
        <ele>924.7</ele>
        <time>2018-11-24T22:12:16Z</time>
      </trkpt>
      <trkpt lat="42.83642" lon="0.72453">
        <ele>924.6</ele>
        <time>2018-11-24T22:12:17Z</time>
      </trkpt>
      <trkpt lat="42.83643" lon="0.72455">
        <ele>924.7</ele>
        <time>2018-11-24T22:12:18Z</time>
      </trkpt>
      <trkpt lat="42.83645" lon="0.72456">
        <ele>924.6</ele>
        <time>2018-11-24T22:12:19Z</time>
      </trkpt>
      <trkpt lat="42.83646" lon="0.72458">
        <ele>924.3</ele>
        <time>2018-11-24T22:12:20Z</time>
      </trkpt>
      <trkpt lat="42.83648" lon="0.7246">
        <ele>924.1</ele>
        <time>2018-11-24T22:12:21Z</time>
      </trkpt>
      <trkpt lat="42.8365" lon="0.72461">
        <ele>923.7</ele>
        <time>2018-11-24T22:12:21Z</time>
      </trkpt>
      <trkpt lat="42.83651" lon="0.72463">
        <ele>923.6</ele>
        <time>2018-11-24T22:12:22Z</time>
      </trkpt>
      <trkpt lat="42.83653" lon="0.72465">
        <ele>923.1</ele>
        <time>2018-11-24T22:12:23Z</time>
      </trkpt>
      <trkpt lat="42.83654" lon="0.72467">
        <ele>922.8</ele>
        <time>2018-11-24T22:12:24Z</time>
      </trkpt>
      <trkpt lat="42.83656" lon="0.72469">
        <ele>922.5</ele>
        <time>2018-11-24T22:12:25Z</time>
      </trkpt>
      <trkpt lat="42.83657" lon="0.72471">
        <ele>922.1</ele>
        <time>2018-11-24T22:12:25Z</time>
      </trkpt>
      <trkpt lat="42.83659" lon="0.72475">
        <ele>920.9</ele>
        <time>2018-11-24T22:12:27Z</time>
      </trkpt>
      <trkpt lat="42.83661" lon="0.72476">
        <ele>920.6</ele>
        <time>2018-11-24T22:12:28Z</time>
      </trkpt>
      <trkpt lat="42.83662" lon="0.72478">
        <ele>920.5</ele>
        <time>2018-11-24T22:12:28Z</time>
      </trkpt>
      <trkpt lat="42.83664" lon="0.72479">
        <ele>920.5</ele>
        <time>2018-11-24T22:12:29Z</time>
      </trkpt>
      <trkpt lat="42.83666" lon="0.7248">
        <ele>920.7</ele>
        <time>2018-11-24T22:12:30Z</time>
      </trkpt>
      <trkpt lat="42.83668" lon="0.72481">
        <ele>920.7</ele>
        <time>2018-11-24T22:12:31Z</time>
      </trkpt>
      <trkpt lat="42.83669" lon="0.72483">
        <ele>920.5</ele>
        <time>2018-11-24T22:12:31Z</time>
      </trkpt>
      <trkpt lat="42.83671" lon="0.72484">
        <ele>920.3</ele>
        <time>2018-11-24T22:12:32Z</time>
      </trkpt>
      <trkpt lat="42.83672" lon="0.72486">
        <ele>919.8</ele>
        <time>2018-11-24T22:12:33Z</time>
      </trkpt>
      <trkpt lat="42.83674" lon="0.72489">
        <ele>919.2</ele>
        <time>2018-11-24T22:12:34Z</time>
      </trkpt>
      <trkpt lat="42.83675" lon="0.72491">
        <ele>918.9</ele>
        <time>2018-11-24T22:12:35Z</time>
      </trkpt>
      <trkpt lat="42.83677" lon="0.72492">
        <ele>918.8</ele>
        <time>2018-11-24T22:12:36Z</time>
      </trkpt>
      <trkpt lat="42.8368" lon="0.72492">
        <ele>919.3</ele>
        <time>2018-11-24T22:12:37Z</time>
      </trkpt>
      <trkpt lat="42.83681" lon="0.72493">
        <ele>919.4</ele>
        <time>2018-11-24T22:12:37Z</time>
      </trkpt>
      <trkpt lat="42.83683" lon="0.72493">
        <ele>920.2</ele>
        <time>2018-11-24T22:12:38Z</time>
      </trkpt>
      <trkpt lat="42.83686" lon="0.72492">
        <ele>921.2</ele>
        <time>2018-11-24T22:12:39Z</time>
      </trkpt>
      <trkpt lat="42.83688" lon="0.72492">
        <ele>922.1</ele>
        <time>2018-11-24T22:12:40Z</time>
      </trkpt>
      <trkpt lat="42.8369" lon="0.72491">
        <ele>923.1</ele>
        <time>2018-11-24T22:12:41Z</time>
      </trkpt>
      <trkpt lat="42.83692" lon="0.72491">
        <ele>923.6</ele>
        <time>2018-11-24T22:12:42Z</time>
      </trkpt>
      <trkpt lat="42.83694" lon="0.72492">
        <ele>924</ele>
        <time>2018-11-24T22:12:42Z</time>
      </trkpt>
      <trkpt lat="42.83696" lon="0.72492">
        <ele>924.4</ele>
        <time>2018-11-24T22:12:43Z</time>
      </trkpt>
      <trkpt lat="42.83698" lon="0.72493">
        <ele>924.9</ele>
        <time>2018-11-24T22:12:44Z</time>
      </trkpt>
      <trkpt lat="42.837" lon="0.72494">
        <ele>924.8</ele>
        <time>2018-11-24T22:12:45Z</time>
      </trkpt>
      <trkpt lat="42.83702" lon="0.72495">
        <ele>924.8</ele>
        <time>2018-11-24T22:12:46Z</time>
      </trkpt>
      <trkpt lat="42.83704" lon="0.72497">
        <ele>924.7</ele>
        <time>2018-11-24T22:12:47Z</time>
      </trkpt>
      <trkpt lat="42.83708" lon="0.725">
        <ele>924</ele>
        <time>2018-11-24T22:12:49Z</time>
      </trkpt>
      <trkpt lat="42.83716" lon="0.72508">
        <ele>922.4</ele>
        <time>2018-11-24T22:12:53Z</time>
      </trkpt>
      <trkpt lat="42.83718" lon="0.7251">
        <ele>922.1</ele>
        <time>2018-11-24T22:12:53Z</time>
      </trkpt>
      <trkpt lat="42.8372" lon="0.72511">
        <ele>921.6</ele>
        <time>2018-11-24T22:12:54Z</time>
      </trkpt>
      <trkpt lat="42.83722" lon="0.72513">
        <ele>921.1</ele>
        <time>2018-11-24T22:12:55Z</time>
      </trkpt>
      <trkpt lat="42.83724" lon="0.72515">
        <ele>920.9</ele>
        <time>2018-11-24T22:12:56Z</time>
      </trkpt>
      <trkpt lat="42.83726" lon="0.72516">
        <ele>920.8</ele>
        <time>2018-11-24T22:12:57Z</time>
      </trkpt>
      <trkpt lat="42.83728" lon="0.72518">
        <ele>920.3</ele>
        <time>2018-11-24T22:12:58Z</time>
      </trkpt>
      <trkpt lat="42.83729" lon="0.72519">
        <ele>920.2</ele>
        <time>2018-11-24T22:12:59Z</time>
      </trkpt>
      <trkpt lat="42.83731" lon="0.7252">
        <ele>919.8</ele>
        <time>2018-11-24T22:13:00Z</time>
      </trkpt>
      <trkpt lat="42.83733" lon="0.72522">
        <ele>919</ele>
        <time>2018-11-24T22:13:01Z</time>
      </trkpt>
      <trkpt lat="42.83734" lon="0.72524">
        <ele>918.5</ele>
        <time>2018-11-24T22:13:01Z</time>
      </trkpt>
      <trkpt lat="42.83736" lon="0.72526">
        <ele>918</ele>
        <time>2018-11-24T22:13:02Z</time>
      </trkpt>
      <trkpt lat="42.83738" lon="0.72527">
        <ele>917.6</ele>
        <time>2018-11-24T22:13:03Z</time>
      </trkpt>
      <trkpt lat="42.83739" lon="0.72529">
        <ele>917.1</ele>
        <time>2018-11-24T22:13:04Z</time>
      </trkpt>
      <trkpt lat="42.83741" lon="0.7253">
        <ele>916.7</ele>
        <time>2018-11-24T22:13:05Z</time>
      </trkpt>
      <trkpt lat="42.83743" lon="0.72533">
        <ele>915.9</ele>
        <time>2018-11-24T22:13:06Z</time>
      </trkpt>
      <trkpt lat="42.83744" lon="0.72535">
        <ele>914.9</ele>
        <time>2018-11-24T22:13:07Z</time>
      </trkpt>
      <trkpt lat="42.83746" lon="0.72537">
        <ele>914</ele>
        <time>2018-11-24T22:13:08Z</time>
      </trkpt>
      <trkpt lat="42.83748" lon="0.7254">
        <ele>913.1</ele>
        <time>2018-11-24T22:13:09Z</time>
      </trkpt>
      <trkpt lat="42.8375" lon="0.72541">
        <ele>912.6</ele>
        <time>2018-11-24T22:13:09Z</time>
      </trkpt>
      <trkpt lat="42.83752" lon="0.72544">
        <ele>911.5</ele>
        <time>2018-11-24T22:13:10Z</time>
      </trkpt>
      <trkpt lat="42.83754" lon="0.72546">
        <ele>910.7</ele>
        <time>2018-11-24T22:13:11Z</time>
      </trkpt>
      <trkpt lat="42.83755" lon="0.72548">
        <ele>909.9</ele>
        <time>2018-11-24T22:13:12Z</time>
      </trkpt>
      <trkpt lat="42.83757" lon="0.72549">
        <ele>909.2</ele>
        <time>2018-11-24T22:13:13Z</time>
      </trkpt>
      <trkpt lat="42.83759" lon="0.72551">
        <ele>908.5</ele>
        <time>2018-11-24T22:13:14Z</time>
      </trkpt>
      <trkpt lat="42.8376" lon="0.72554">
        <ele>907.4</ele>
        <time>2018-11-24T22:13:15Z</time>
      </trkpt>
      <trkpt lat="42.83762" lon="0.72555">
        <ele>906.6</ele>
        <time>2018-11-24T22:13:16Z</time>
      </trkpt>
      <trkpt lat="42.83763" lon="0.72557">
        <ele>905.9</ele>
        <time>2018-11-24T22:13:17Z</time>
      </trkpt>
      <trkpt lat="42.83764" lon="0.72559">
        <ele>905.1</ele>
        <time>2018-11-24T22:13:17Z</time>
      </trkpt>
      <trkpt lat="42.83768" lon="0.72559">
        <ele>905.2</ele>
        <time>2018-11-24T22:13:19Z</time>
      </trkpt>
      <trkpt lat="42.83771" lon="0.72558">
        <ele>906.2</ele>
        <time>2018-11-24T22:13:20Z</time>
      </trkpt>
      <trkpt lat="42.83772" lon="0.72557">
        <ele>907</ele>
        <time>2018-11-24T22:13:21Z</time>
      </trkpt>
      <trkpt lat="42.83774" lon="0.72557">
        <ele>907.7</ele>
        <time>2018-11-24T22:13:21Z</time>
      </trkpt>
      <trkpt lat="42.83777" lon="0.72557">
        <ele>907.8</ele>
        <time>2018-11-24T22:13:22Z</time>
      </trkpt>
      <trkpt lat="42.83779" lon="0.72557">
        <ele>907.8</ele>
        <time>2018-11-24T22:13:23Z</time>
      </trkpt>
      <trkpt lat="42.83781" lon="0.72557">
        <ele>907.9</ele>
        <time>2018-11-24T22:13:24Z</time>
      </trkpt>
      <trkpt lat="42.83783" lon="0.72557">
        <ele>908.5</ele>
        <time>2018-11-24T22:13:25Z</time>
      </trkpt>
      <trkpt lat="42.83786" lon="0.72558">
        <ele>908.3</ele>
        <time>2018-11-24T22:13:26Z</time>
      </trkpt>
      <trkpt lat="42.83788" lon="0.72557">
        <ele>909</ele>
        <time>2018-11-24T22:13:27Z</time>
      </trkpt>
      <trkpt lat="42.8379" lon="0.72556">
        <ele>909.7</ele>
        <time>2018-11-24T22:13:28Z</time>
      </trkpt>
      <trkpt lat="42.83792" lon="0.72555">
        <ele>910.4</ele>
        <time>2018-11-24T22:13:29Z</time>
      </trkpt>
      <trkpt lat="42.83793" lon="0.72553">
        <ele>911.8</ele>
        <time>2018-11-24T22:13:29Z</time>
      </trkpt>
      <trkpt lat="42.83796" lon="0.72551">
        <ele>913.2</ele>
        <time>2018-11-24T22:13:30Z</time>
      </trkpt>
      <trkpt lat="42.83797" lon="0.72549">
        <ele>914.3</ele>
        <time>2018-11-24T22:13:31Z</time>
      </trkpt>
      <trkpt lat="42.83799" lon="0.72547">
        <ele>915.4</ele>
        <time>2018-11-24T22:13:32Z</time>
      </trkpt>
      <trkpt lat="42.83802" lon="0.72545">
        <ele>917.1</ele>
        <time>2018-11-24T22:13:34Z</time>
      </trkpt>
      <trkpt lat="42.83804" lon="0.72544">
        <ele>917.9</ele>
        <time>2018-11-24T22:13:34Z</time>
      </trkpt>
      <trkpt lat="42.83806" lon="0.72543">
        <ele>918.3</ele>
        <time>2018-11-24T22:13:35Z</time>
      </trkpt>
      <trkpt lat="42.83808" lon="0.72542">
        <ele>919.4</ele>
        <time>2018-11-24T22:13:36Z</time>
      </trkpt>
      <trkpt lat="42.83813" lon="0.7254">
        <ele>920.7</ele>
        <time>2018-11-24T22:13:38Z</time>
      </trkpt>
      <trkpt lat="42.83815" lon="0.72539">
        <ele>921.1</ele>
        <time>2018-11-24T22:13:39Z</time>
      </trkpt>
      <trkpt lat="42.83818" lon="0.72539">
        <ele>921.3</ele>
        <time>2018-11-24T22:13:40Z</time>
      </trkpt>
      <trkpt lat="42.8382" lon="0.72539">
        <ele>921</ele>
        <time>2018-11-24T22:13:41Z</time>
      </trkpt>
      <trkpt lat="42.83822" lon="0.72538">
        <ele>921.8</ele>
        <time>2018-11-24T22:13:42Z</time>
      </trkpt>
      <trkpt lat="42.83823" lon="0.72536">
        <ele>923.4</ele>
        <time>2018-11-24T22:13:43Z</time>
      </trkpt>
      <trkpt lat="42.83827" lon="0.72533">
        <ele>925</ele>
        <time>2018-11-24T22:13:44Z</time>
      </trkpt>
      <trkpt lat="42.83829" lon="0.7253">
        <ele>926.7</ele>
        <time>2018-11-24T22:13:46Z</time>
      </trkpt>
      <trkpt lat="42.83832" lon="0.72528">
        <ele>927.9</ele>
        <time>2018-11-24T22:13:47Z</time>
      </trkpt>
      <trkpt lat="42.8384" lon="0.72521">
        <ele>931.1</ele>
        <time>2018-11-24T22:13:51Z</time>
      </trkpt>
      <trkpt lat="42.83845" lon="0.72515">
        <ele>934.8</ele>
        <time>2018-11-24T22:13:53Z</time>
      </trkpt>
      <trkpt lat="42.83851" lon="0.72504">
        <ele>940.7</ele>
        <time>2018-11-24T22:13:58Z</time>
      </trkpt>
      <trkpt lat="42.8386" lon="0.72497">
        <ele>944</ele>
        <time>2018-11-24T22:14:01Z</time>
      </trkpt>
      <trkpt lat="42.83868" lon="0.72489">
        <ele>947</ele>
        <time>2018-11-24T22:14:05Z</time>
      </trkpt>
      <trkpt lat="42.83875" lon="0.72482">
        <ele>950.3</ele>
        <time>2018-11-24T22:14:09Z</time>
      </trkpt>
      <trkpt lat="42.83884" lon="0.72475">
        <ele>952.2</ele>
        <time>2018-11-24T22:14:13Z</time>
      </trkpt>
      <trkpt lat="42.83893" lon="0.72471">
        <ele>952.4</ele>
        <time>2018-11-24T22:14:17Z</time>
      </trkpt>
      <trkpt lat="42.83899" lon="0.72462">
        <ele>956.7</ele>
        <time>2018-11-24T22:14:20Z</time>
      </trkpt>
      <trkpt lat="42.83906" lon="0.72453">
        <ele>960.1</ele>
        <time>2018-11-24T22:14:24Z</time>
      </trkpt>
      <trkpt lat="42.83912" lon="0.72444">
        <ele>964.1</ele>
        <time>2018-11-24T22:14:28Z</time>
      </trkpt>
      <trkpt lat="42.8392" lon="0.72437">
        <ele>965.7</ele>
        <time>2018-11-24T22:14:31Z</time>
      </trkpt>
      <trkpt lat="42.83927" lon="0.72431">
        <ele>966.9</ele>
        <time>2018-11-24T22:14:35Z</time>
      </trkpt>
      <trkpt lat="42.83936" lon="0.72424">
        <ele>968.4</ele>
        <time>2018-11-24T22:14:39Z</time>
      </trkpt>
      <trkpt lat="42.83944" lon="0.7242">
        <ele>967.2</ele>
        <time>2018-11-24T22:14:43Z</time>
      </trkpt>
      <trkpt lat="42.83952" lon="0.72413">
        <ele>969</ele>
        <time>2018-11-24T22:14:46Z</time>
      </trkpt>
      <trkpt lat="42.8396" lon="0.72406">
        <ele>969.5</ele>
        <time>2018-11-24T22:14:50Z</time>
      </trkpt>
      <trkpt lat="42.83969" lon="0.72403">
        <ele>967.8</ele>
        <time>2018-11-24T22:14:54Z</time>
      </trkpt>
      <trkpt lat="42.83978" lon="0.72398">
        <ele>966.4</ele>
        <time>2018-11-24T22:14:58Z</time>
      </trkpt>
      <trkpt lat="42.83986" lon="0.72392">
        <ele>966.1</ele>
        <time>2018-11-24T22:15:02Z</time>
      </trkpt>
      <trkpt lat="42.83995" lon="0.72386">
        <ele>965.7</ele>
        <time>2018-11-24T22:15:05Z</time>
      </trkpt>
      <trkpt lat="42.84004" lon="0.72381">
        <ele>964.5</ele>
        <time>2018-11-24T22:15:09Z</time>
      </trkpt>
      <trkpt lat="42.84007" lon="0.7238">
        <ele>964</ele>
        <time>2018-11-24T22:15:10Z</time>
      </trkpt>
      <trkpt lat="42.84009" lon="0.72379">
        <ele>963.2</ele>
        <time>2018-11-24T22:15:12Z</time>
      </trkpt>
      <trkpt lat="42.84011" lon="0.72377">
        <ele>963.5</ele>
        <time>2018-11-24T22:15:12Z</time>
      </trkpt>
      <trkpt lat="42.84015" lon="0.72365">
        <ele>968.7</ele>
        <time>2018-11-24T22:15:16Z</time>
      </trkpt>
      <trkpt lat="42.84021" lon="0.72355">
        <ele>971.3</ele>
        <time>2018-11-24T22:15:20Z</time>
      </trkpt>
      <trkpt lat="42.8403" lon="0.72349">
        <ele>970.8</ele>
        <time>2018-11-24T22:15:24Z</time>
      </trkpt>
      <trkpt lat="42.84038" lon="0.72342">
        <ele>970.4</ele>
        <time>2018-11-24T22:15:28Z</time>
      </trkpt>
      <trkpt lat="42.84044" lon="0.72331">
        <ele>973.4</ele>
        <time>2018-11-24T22:15:32Z</time>
      </trkpt>
      <trkpt lat="42.84049" lon="0.7232">
        <ele>976.8</ele>
        <time>2018-11-24T22:15:36Z</time>
      </trkpt>
      <trkpt lat="42.84055" lon="0.72309">
        <ele>979.8</ele>
        <time>2018-11-24T22:15:40Z</time>
      </trkpt>
      <trkpt lat="42.8406" lon="0.72297">
        <ele>983.9</ele>
        <time>2018-11-24T22:15:44Z</time>
      </trkpt>
      <trkpt lat="42.84063" lon="0.72286">
        <ele>988.3</ele>
        <time>2018-11-24T22:15:47Z</time>
      </trkpt>
      <trkpt lat="42.8407" lon="0.72278">
        <ele>989.6</ele>
        <time>2018-11-24T22:15:51Z</time>
      </trkpt>
      <trkpt lat="42.84073" lon="0.72266">
        <ele>993.8</ele>
        <time>2018-11-24T22:15:55Z</time>
      </trkpt>
      <trkpt lat="42.84082" lon="0.72259">
        <ele>993.9</ele>
        <time>2018-11-24T22:15:59Z</time>
      </trkpt>
      <trkpt lat="42.84089" lon="0.72251">
        <ele>995.6</ele>
        <time>2018-11-24T22:16:02Z</time>
      </trkpt>
      <trkpt lat="42.84097" lon="0.72241">
        <ele>997.7</ele>
        <time>2018-11-24T22:16:07Z</time>
      </trkpt>
      <trkpt lat="42.84106" lon="0.72238">
        <ele>996.8</ele>
        <time>2018-11-24T22:16:10Z</time>
      </trkpt>
      <trkpt lat="42.84115" lon="0.72232">
        <ele>997.3</ele>
        <time>2018-11-24T22:16:14Z</time>
      </trkpt>
      <trkpt lat="42.84124" lon="0.7223">
        <ele>996.3</ele>
        <time>2018-11-24T22:16:18Z</time>
      </trkpt>
      <trkpt lat="42.84135" lon="0.72231">
        <ele>993.6</ele>
        <time>2018-11-24T22:16:22Z</time>
      </trkpt>
      <trkpt lat="42.84144" lon="0.72232">
        <ele>991.3</ele>
        <time>2018-11-24T22:16:26Z</time>
      </trkpt>
      <trkpt lat="42.84153" lon="0.72229">
        <ele>991.5</ele>
        <time>2018-11-24T22:16:30Z</time>
      </trkpt>
      <trkpt lat="42.84164" lon="0.72226">
        <ele>991.4</ele>
        <time>2018-11-24T22:16:34Z</time>
      </trkpt>
      <trkpt lat="42.84173" lon="0.72218">
        <ele>993.6</ele>
        <time>2018-11-24T22:16:38Z</time>
      </trkpt>
      <trkpt lat="42.84179" lon="0.7221">
        <ele>996.8</ele>
        <time>2018-11-24T22:16:42Z</time>
      </trkpt>
      <trkpt lat="42.84186" lon="0.722">
        <ele>1000.2</ele>
        <time>2018-11-24T22:16:46Z</time>
      </trkpt>
      <trkpt lat="42.84196" lon="0.72196">
        <ele>1000.4</ele>
        <time>2018-11-24T22:16:50Z</time>
      </trkpt>
      <trkpt lat="42.84204" lon="0.72192">
        <ele>1000.2</ele>
        <time>2018-11-24T22:16:53Z</time>
      </trkpt>
      <trkpt lat="42.84213" lon="0.72186">
        <ele>1000.9</ele>
        <time>2018-11-24T22:16:57Z</time>
      </trkpt>
      <trkpt lat="42.84223" lon="0.72178">
        <ele>1002.4</ele>
        <time>2018-11-24T22:17:02Z</time>
      </trkpt>
      <trkpt lat="42.8423" lon="0.72171">
        <ele>1004</ele>
        <time>2018-11-24T22:17:06Z</time>
      </trkpt>
      <trkpt lat="42.84237" lon="0.72163">
        <ele>1005.7</ele>
        <time>2018-11-24T22:17:09Z</time>
      </trkpt>
      <trkpt lat="42.84244" lon="0.72152">
        <ele>1008.9</ele>
        <time>2018-11-24T22:17:13Z</time>
      </trkpt>
      <trkpt lat="42.8425" lon="0.72142">
        <ele>1012.1</ele>
        <time>2018-11-24T22:17:17Z</time>
      </trkpt>
      <trkpt lat="42.84256" lon="0.72133">
        <ele>1014.5</ele>
        <time>2018-11-24T22:17:21Z</time>
      </trkpt>
      <trkpt lat="42.84264" lon="0.72125">
        <ele>1015.8</ele>
        <time>2018-11-24T22:17:25Z</time>
      </trkpt>
      <trkpt lat="42.84272" lon="0.72119">
        <ele>1015.6</ele>
        <time>2018-11-24T22:17:28Z</time>
      </trkpt>
      <trkpt lat="42.84279" lon="0.7211">
        <ele>1017.3</ele>
        <time>2018-11-24T22:17:32Z</time>
      </trkpt>
      <trkpt lat="42.84285" lon="0.72099">
        <ele>1020.1</ele>
        <time>2018-11-24T22:17:36Z</time>
      </trkpt>
      <trkpt lat="42.84292" lon="0.72089">
        <ele>1021.9</ele>
        <time>2018-11-24T22:17:40Z</time>
      </trkpt>
      <trkpt lat="42.84299" lon="0.7208">
        <ele>1023.2</ele>
        <time>2018-11-24T22:17:44Z</time>
      </trkpt>
      <trkpt lat="42.84307" lon="0.72072">
        <ele>1024.1</ele>
        <time>2018-11-24T22:17:48Z</time>
      </trkpt>
      <trkpt lat="42.84314" lon="0.72064">
        <ele>1025.1</ele>
        <time>2018-11-24T22:17:52Z</time>
      </trkpt>
      <trkpt lat="42.84322" lon="0.72058">
        <ele>1024.1</ele>
        <time>2018-11-24T22:17:56Z</time>
      </trkpt>
      <trkpt lat="42.8433" lon="0.72051">
        <ele>1024.1</ele>
        <time>2018-11-24T22:17:59Z</time>
      </trkpt>
      <trkpt lat="42.84339" lon="0.72044">
        <ele>1023.6</ele>
        <time>2018-11-24T22:18:04Z</time>
      </trkpt>
      <trkpt lat="42.84347" lon="0.72035">
        <ele>1024.1</ele>
        <time>2018-11-24T22:18:08Z</time>
      </trkpt>
      <trkpt lat="42.84351" lon="0.72023">
        <ele>1026.9</ele>
        <time>2018-11-24T22:18:11Z</time>
      </trkpt>
      <trkpt lat="42.8436" lon="0.72018">
        <ele>1025.7</ele>
        <time>2018-11-24T22:18:15Z</time>
      </trkpt>
      <trkpt lat="42.84363" lon="0.72018">
        <ele>1024.7</ele>
        <time>2018-11-24T22:18:16Z</time>
      </trkpt>
      <trkpt lat="42.84366" lon="0.72005">
        <ele>1027.8</ele>
        <time>2018-11-24T22:18:20Z</time>
      </trkpt>
      <trkpt lat="42.84367" lon="0.71993">
        <ele>1032</ele>
        <time>2018-11-24T22:18:24Z</time>
      </trkpt>
      <trkpt lat="42.84368" lon="0.71985">
        <ele>1034.3</ele>
        <time>2018-11-24T22:18:26Z</time>
      </trkpt>
      <trkpt lat="42.84373" lon="0.71973">
        <ele>1036.7</ele>
        <time>2018-11-24T22:18:30Z</time>
      </trkpt>
      <trkpt lat="42.84374" lon="0.71971">
        <ele>1037.1</ele>
        <time>2018-11-24T22:18:31Z</time>
      </trkpt>
      <trkpt lat="42.84378" lon="0.71958">
        <ele>1039.6</ele>
        <time>2018-11-24T22:18:35Z</time>
      </trkpt>
      <trkpt lat="42.84382" lon="0.71947">
        <ele>1041.8</ele>
        <time>2018-11-24T22:18:39Z</time>
      </trkpt>
      <trkpt lat="42.84386" lon="0.71935">
        <ele>1044.1</ele>
        <time>2018-11-24T22:18:43Z</time>
      </trkpt>
      <trkpt lat="42.84393" lon="0.71926">
        <ele>1044</ele>
        <time>2018-11-24T22:18:47Z</time>
      </trkpt>
      <trkpt lat="42.84385" lon="0.71918">
        <ele>1049.6</ele>
        <time>2018-11-24T22:18:51Z</time>
      </trkpt>
      <trkpt lat="42.84396" lon="0.71919">
        <ele>1045</ele>
        <time>2018-11-24T22:18:56Z</time>
      </trkpt>
      <trkpt lat="42.84405" lon="0.71916">
        <ele>1042.7</ele>
        <time>2018-11-24T22:18:59Z</time>
      </trkpt>
      <trkpt lat="42.84415" lon="0.71913">
        <ele>1040.3</ele>
        <time>2018-11-24T22:19:03Z</time>
      </trkpt>
      <trkpt lat="42.84421" lon="0.71903">
        <ele>1041.2</ele>
        <time>2018-11-24T22:19:07Z</time>
      </trkpt>
      <trkpt lat="42.84429" lon="0.71892">
        <ele>1042</ele>
        <time>2018-11-24T22:19:11Z</time>
      </trkpt>
      <trkpt lat="42.84437" lon="0.71882">
        <ele>1042.7</ele>
        <time>2018-11-24T22:19:16Z</time>
      </trkpt>
      <trkpt lat="42.84445" lon="0.71874">
        <ele>1042.7</ele>
        <time>2018-11-24T22:19:20Z</time>
      </trkpt>
      <trkpt lat="42.84454" lon="0.71865">
        <ele>1043.1</ele>
        <time>2018-11-24T22:19:24Z</time>
      </trkpt>
      <trkpt lat="42.8446" lon="0.71857">
        <ele>1043.9</ele>
        <time>2018-11-24T22:19:28Z</time>
      </trkpt>
      <trkpt lat="42.8447" lon="0.71847">
        <ele>1044.8</ele>
        <time>2018-11-24T22:19:33Z</time>
      </trkpt>
      <trkpt lat="42.84478" lon="0.71841">
        <ele>1044.9</ele>
        <time>2018-11-24T22:19:36Z</time>
      </trkpt>
      <trkpt lat="42.84485" lon="0.71831">
        <ele>1046.5</ele>
        <time>2018-11-24T22:19:41Z</time>
      </trkpt>
      <trkpt lat="42.84492" lon="0.71822">
        <ele>1048</ele>
        <time>2018-11-24T22:19:44Z</time>
      </trkpt>
      <trkpt lat="42.84501" lon="0.71817">
        <ele>1047.5</ele>
        <time>2018-11-24T22:19:48Z</time>
      </trkpt>
      <trkpt lat="42.8451" lon="0.7181">
        <ele>1047.7</ele>
        <time>2018-11-24T22:19:52Z</time>
      </trkpt>
      <trkpt lat="42.84518" lon="0.71805">
        <ele>1047.5</ele>
        <time>2018-11-24T22:19:56Z</time>
      </trkpt>
      <trkpt lat="42.84526" lon="0.71799">
        <ele>1047.2</ele>
        <time>2018-11-24T22:20:00Z</time>
      </trkpt>
      <trkpt lat="42.84531" lon="0.71789">
        <ele>1049.2</ele>
        <time>2018-11-24T22:20:03Z</time>
      </trkpt>
      <trkpt lat="42.8454" lon="0.71783">
        <ele>1049</ele>
        <time>2018-11-24T22:20:07Z</time>
      </trkpt>
      <trkpt lat="42.84548" lon="0.71773">
        <ele>1049.8</ele>
        <time>2018-11-24T22:20:12Z</time>
      </trkpt>
      <trkpt lat="42.84553" lon="0.71761">
        <ele>1051.7</ele>
        <time>2018-11-24T22:20:15Z</time>
      </trkpt>
      <trkpt lat="42.84557" lon="0.71749">
        <ele>1054.4</ele>
        <time>2018-11-24T22:20:19Z</time>
      </trkpt>
      <trkpt lat="42.84561" lon="0.71738">
        <ele>1056.2</ele>
        <time>2018-11-24T22:20:23Z</time>
      </trkpt>
      <trkpt lat="42.84568" lon="0.71725">
        <ele>1057.5</ele>
        <time>2018-11-24T22:20:28Z</time>
      </trkpt>
      <trkpt lat="42.84576" lon="0.71715">
        <ele>1057.3</ele>
        <time>2018-11-24T22:20:32Z</time>
      </trkpt>
      <trkpt lat="42.84581" lon="0.71704">
        <ele>1058.1</ele>
        <time>2018-11-24T22:20:36Z</time>
      </trkpt>
      <trkpt lat="42.84585" lon="0.71693">
        <ele>1059.4</ele>
        <time>2018-11-24T22:20:40Z</time>
      </trkpt>
      <trkpt lat="42.84589" lon="0.71682">
        <ele>1060.8</ele>
        <time>2018-11-24T22:20:43Z</time>
      </trkpt>
      <trkpt lat="42.84593" lon="0.7167">
        <ele>1062.2</ele>
        <time>2018-11-24T22:20:47Z</time>
      </trkpt>
      <trkpt lat="42.84596" lon="0.71658">
        <ele>1064</ele>
        <time>2018-11-24T22:20:51Z</time>
      </trkpt>
      <trkpt lat="42.84602" lon="0.71647">
        <ele>1064.5</ele>
        <time>2018-11-24T22:20:55Z</time>
      </trkpt>
      <trkpt lat="42.84605" lon="0.71635">
        <ele>1066</ele>
        <time>2018-11-24T22:20:59Z</time>
      </trkpt>
      <trkpt lat="42.84608" lon="0.71623">
        <ele>1068</ele>
        <time>2018-11-24T22:21:02Z</time>
      </trkpt>
      <trkpt lat="42.84609" lon="0.7161">
        <ele>1070.9</ele>
        <time>2018-11-24T22:21:06Z</time>
      </trkpt>
      <trkpt lat="42.84615" lon="0.71598">
        <ele>1071.3</ele>
        <time>2018-11-24T22:21:10Z</time>
      </trkpt>
      <trkpt lat="42.84622" lon="0.71587">
        <ele>1071.2</ele>
        <time>2018-11-24T22:21:14Z</time>
      </trkpt>
      <trkpt lat="42.84626" lon="0.71575">
        <ele>1072.8</ele>
        <time>2018-11-24T22:21:18Z</time>
      </trkpt>
      <trkpt lat="42.84631" lon="0.71564">
        <ele>1073.4</ele>
        <time>2018-11-24T22:21:22Z</time>
      </trkpt>
      <trkpt lat="42.84635" lon="0.71552">
        <ele>1075</ele>
        <time>2018-11-24T22:21:26Z</time>
      </trkpt>
      <trkpt lat="42.84641" lon="0.7154">
        <ele>1075.5</ele>
        <time>2018-11-24T22:21:30Z</time>
      </trkpt>
      <trkpt lat="42.84639" lon="0.71528">
        <ele>1080.1</ele>
        <time>2018-11-24T22:21:34Z</time>
      </trkpt>
      <trkpt lat="42.84643" lon="0.71516">
        <ele>1081.6</ele>
        <time>2018-11-24T22:21:38Z</time>
      </trkpt>
      <trkpt lat="42.84649" lon="0.71507">
        <ele>1081.7</ele>
        <time>2018-11-24T22:21:41Z</time>
      </trkpt>
      <trkpt lat="42.84655" lon="0.71496">
        <ele>1082.1</ele>
        <time>2018-11-24T22:21:45Z</time>
      </trkpt>
      <trkpt lat="42.84659" lon="0.71484">
        <ele>1083.7</ele>
        <time>2018-11-24T22:21:49Z</time>
      </trkpt>
      <trkpt lat="42.84663" lon="0.71473">
        <ele>1085.4</ele>
        <time>2018-11-24T22:21:53Z</time>
      </trkpt>
      <trkpt lat="42.84667" lon="0.71462">
        <ele>1087.4</ele>
        <time>2018-11-24T22:21:56Z</time>
      </trkpt>
      <trkpt lat="42.84672" lon="0.71449">
        <ele>1089.2</ele>
        <time>2018-11-24T22:22:01Z</time>
      </trkpt>
      <trkpt lat="42.84679" lon="0.7144">
        <ele>1088.7</ele>
        <time>2018-11-24T22:22:05Z</time>
      </trkpt>
      <trkpt lat="42.84684" lon="0.7143">
        <ele>1090.1</ele>
        <time>2018-11-24T22:22:08Z</time>
      </trkpt>
      <trkpt lat="42.84689" lon="0.71419">
        <ele>1090.8</ele>
        <time>2018-11-24T22:22:12Z</time>
      </trkpt>
      <trkpt lat="42.8469" lon="0.71404">
        <ele>1094.8</ele>
        <time>2018-11-24T22:22:16Z</time>
      </trkpt>
      <trkpt lat="42.84697" lon="0.71395">
        <ele>1094.5</ele>
        <time>2018-11-24T22:22:20Z</time>
      </trkpt>
      <trkpt lat="42.84703" lon="0.71383">
        <ele>1095.6</ele>
        <time>2018-11-24T22:22:24Z</time>
      </trkpt>
      <trkpt lat="42.84709" lon="0.71372">
        <ele>1095.9</ele>
        <time>2018-11-24T22:22:29Z</time>
      </trkpt>
      <trkpt lat="42.84718" lon="0.71368">
        <ele>1093.3</ele>
        <time>2018-11-24T22:22:32Z</time>
      </trkpt>
      <trkpt lat="42.84726" lon="0.71359">
        <ele>1092.8</ele>
        <time>2018-11-24T22:22:36Z</time>
      </trkpt>
      <trkpt lat="42.84729" lon="0.71347">
        <ele>1094.5</ele>
        <time>2018-11-24T22:22:40Z</time>
      </trkpt>
      <trkpt lat="42.84729" lon="0.71332">
        <ele>1098.1</ele>
        <time>2018-11-24T22:22:45Z</time>
      </trkpt>
      <trkpt lat="42.84728" lon="0.71318">
        <ele>1101.7</ele>
        <time>2018-11-24T22:22:49Z</time>
      </trkpt>
      <trkpt lat="42.84731" lon="0.71304">
        <ele>1103.7</ele>
        <time>2018-11-24T22:22:53Z</time>
      </trkpt>
      <trkpt lat="42.84732" lon="0.71291">
        <ele>1106.6</ele>
        <time>2018-11-24T22:22:57Z</time>
      </trkpt>
      <trkpt lat="42.84728" lon="0.71276">
        <ele>1111.2</ele>
        <time>2018-11-24T22:23:01Z</time>
      </trkpt>
      <trkpt lat="42.84728" lon="0.71262">
        <ele>1114.9</ele>
        <time>2018-11-24T22:23:06Z</time>
      </trkpt>
      <trkpt lat="42.84728" lon="0.71248">
        <ele>1118</ele>
        <time>2018-11-24T22:23:10Z</time>
      </trkpt>
      <trkpt lat="42.8473" lon="0.71235">
        <ele>1120.5</ele>
        <time>2018-11-24T22:23:14Z</time>
      </trkpt>
      <trkpt lat="42.84735" lon="0.71223">
        <ele>1122</ele>
        <time>2018-11-24T22:23:18Z</time>
      </trkpt>
      <trkpt lat="42.84739" lon="0.7121">
        <ele>1124.8</ele>
        <time>2018-11-24T22:23:22Z</time>
      </trkpt>
      <trkpt lat="42.84746" lon="0.71218">
        <ele>1121.1</ele>
        <time>2018-11-24T22:23:25Z</time>
      </trkpt>
      <trkpt lat="42.84749" lon="0.71232">
        <ele>1116.6</ele>
        <time>2018-11-24T22:23:30Z</time>
      </trkpt>
      <trkpt lat="42.84757" lon="0.71239">
        <ele>1113</ele>
        <time>2018-11-24T22:23:34Z</time>
      </trkpt>
      <trkpt lat="42.84763" lon="0.71249">
        <ele>1109.2</ele>
        <time>2018-11-24T22:23:37Z</time>
      </trkpt>
      <trkpt lat="42.84772" lon="0.71255">
        <ele>1106.2</ele>
        <time>2018-11-24T22:23:41Z</time>
      </trkpt>
      <trkpt lat="42.84781" lon="0.71258">
        <ele>1104.3</ele>
        <time>2018-11-24T22:23:45Z</time>
      </trkpt>
      <trkpt lat="42.84791" lon="0.71267">
        <ele>1100.8</ele>
        <time>2018-11-24T22:23:50Z</time>
      </trkpt>
      <trkpt lat="42.84801" lon="0.71266">
        <ele>1100.9</ele>
        <time>2018-11-24T22:23:54Z</time>
      </trkpt>
      <trkpt lat="42.84809" lon="0.71262">
        <ele>1102.3</ele>
        <time>2018-11-24T22:23:57Z</time>
      </trkpt>
      <trkpt lat="42.84819" lon="0.71258">
        <ele>1104.6</ele>
        <time>2018-11-24T22:24:01Z</time>
      </trkpt>
      <trkpt lat="42.84827" lon="0.7125">
        <ele>1108.2</ele>
        <time>2018-11-24T22:24:05Z</time>
      </trkpt>
      <trkpt lat="42.84836" lon="0.71244">
        <ele>1111.7</ele>
        <time>2018-11-24T22:24:09Z</time>
      </trkpt>
      <trkpt lat="42.84845" lon="0.71242">
        <ele>1113.5</ele>
        <time>2018-11-24T22:24:13Z</time>
      </trkpt>
      <trkpt lat="42.84854" lon="0.71244">
        <ele>1114.2</ele>
        <time>2018-11-24T22:24:17Z</time>
      </trkpt>
      <trkpt lat="42.84863" lon="0.71243">
        <ele>1115.9</ele>
        <time>2018-11-24T22:24:20Z</time>
      </trkpt>
      <trkpt lat="42.84873" lon="0.71239">
        <ele>1118.9</ele>
        <time>2018-11-24T22:24:24Z</time>
      </trkpt>
      <trkpt lat="42.84881" lon="0.71233">
        <ele>1123.4</ele>
        <time>2018-11-24T22:24:28Z</time>
      </trkpt>
      <trkpt lat="42.8489" lon="0.71231">
        <ele>1126.1</ele>
        <time>2018-11-24T22:24:32Z</time>
      </trkpt>
      <trkpt lat="42.849" lon="0.7123">
        <ele>1127.8</ele>
        <time>2018-11-24T22:24:36Z</time>
      </trkpt>
      <trkpt lat="42.84909" lon="0.71228">
        <ele>1130.2</ele>
        <time>2018-11-24T22:24:39Z</time>
      </trkpt>
      <trkpt lat="42.84918" lon="0.71228">
        <ele>1131.5</ele>
        <time>2018-11-24T22:24:43Z</time>
      </trkpt>
      <trkpt lat="42.84929" lon="0.71225">
        <ele>1134.6</ele>
        <time>2018-11-24T22:24:47Z</time>
      </trkpt>
      <trkpt lat="42.84938" lon="0.71223">
        <ele>1136.6</ele>
        <time>2018-11-24T22:24:51Z</time>
      </trkpt>
      <trkpt lat="42.84947" lon="0.71221">
        <ele>1138.6</ele>
        <time>2018-11-24T22:24:55Z</time>
      </trkpt>
      <trkpt lat="42.84957" lon="0.71221">
        <ele>1139.7</ele>
        <time>2018-11-24T22:24:59Z</time>
      </trkpt>
      <trkpt lat="42.84965" lon="0.71225">
        <ele>1138.6</ele>
        <time>2018-11-24T22:25:02Z</time>
      </trkpt>
      <trkpt lat="42.84976" lon="0.71225">
        <ele>1140.3</ele>
        <time>2018-11-24T22:25:07Z</time>
      </trkpt>
      <trkpt lat="42.84986" lon="0.71217">
        <ele>1144.3</ele>
        <time>2018-11-24T22:25:11Z</time>
      </trkpt>
      <trkpt lat="42.8499" lon="0.71228">
        <ele>1139.6</ele>
        <time>2018-11-24T22:25:15Z</time>
      </trkpt>
      <trkpt lat="42.84999" lon="0.71222">
        <ele>1142.9</ele>
        <time>2018-11-24T22:25:18Z</time>
      </trkpt>
      <trkpt lat="42.85006" lon="0.71215">
        <ele>1146.9</ele>
        <time>2018-11-24T22:25:22Z</time>
      </trkpt>
      <trkpt lat="42.85015" lon="0.71211">
        <ele>1150.4</ele>
        <time>2018-11-24T22:25:26Z</time>
      </trkpt>
      <trkpt lat="42.85024" lon="0.7121">
        <ele>1150.7</ele>
        <time>2018-11-24T22:25:29Z</time>
      </trkpt>
      <trkpt lat="42.85032" lon="0.71204">
        <ele>1154.3</ele>
        <time>2018-11-24T22:25:33Z</time>
      </trkpt>
      <trkpt lat="42.85041" lon="0.712">
        <ele>1156.6</ele>
        <time>2018-11-24T22:25:37Z</time>
      </trkpt>
      <trkpt lat="42.8505" lon="0.712">
        <ele>1157.1</ele>
        <time>2018-11-24T22:25:41Z</time>
      </trkpt>
      <trkpt lat="42.85059" lon="0.71192">
        <ele>1161.4</ele>
        <time>2018-11-24T22:25:45Z</time>
      </trkpt>
      <trkpt lat="42.85067" lon="0.71188">
        <ele>1163.9</ele>
        <time>2018-11-24T22:25:48Z</time>
      </trkpt>
      <trkpt lat="42.85076" lon="0.71184">
        <ele>1166.3</ele>
        <time>2018-11-24T22:25:52Z</time>
      </trkpt>
      <trkpt lat="42.85083" lon="0.71175">
        <ele>1170.7</ele>
        <time>2018-11-24T22:25:56Z</time>
      </trkpt>
      <trkpt lat="42.85093" lon="0.71174">
        <ele>1172.1</ele>
        <time>2018-11-24T22:26:00Z</time>
      </trkpt>
      <trkpt lat="42.85103" lon="0.71168">
        <ele>1175.7</ele>
        <time>2018-11-24T22:26:04Z</time>
      </trkpt>
      <trkpt lat="42.85112" lon="0.71162">
        <ele>1179.2</ele>
        <time>2018-11-24T22:26:08Z</time>
      </trkpt>
      <trkpt lat="42.85112" lon="0.71149">
        <ele>1185</ele>
        <time>2018-11-24T22:26:12Z</time>
      </trkpt>
      <trkpt lat="42.85121" lon="0.71157">
        <ele>1182.6</ele>
        <time>2018-11-24T22:26:16Z</time>
      </trkpt>
      <trkpt lat="42.8513" lon="0.71152">
        <ele>1185.6</ele>
        <time>2018-11-24T22:26:20Z</time>
      </trkpt>
      <trkpt lat="42.85138" lon="0.71146">
        <ele>1189.1</ele>
        <time>2018-11-24T22:26:24Z</time>
      </trkpt>
      <trkpt lat="42.85147" lon="0.71138">
        <ele>1193.9</ele>
        <time>2018-11-24T22:26:28Z</time>
      </trkpt>
      <trkpt lat="42.85156" lon="0.71135">
        <ele>1196.3</ele>
        <time>2018-11-24T22:26:32Z</time>
      </trkpt>
      <trkpt lat="42.85165" lon="0.71136">
        <ele>1197</ele>
        <time>2018-11-24T22:26:35Z</time>
      </trkpt>
      <trkpt lat="42.8516" lon="0.71124">
        <ele>1201.6</ele>
        <time>2018-11-24T22:26:40Z</time>
      </trkpt>
      <trkpt lat="42.85154" lon="0.71113">
        <ele>1205.8</ele>
        <time>2018-11-24T22:26:44Z</time>
      </trkpt>
      <trkpt lat="42.85149" lon="0.71102">
        <ele>1210.8</ele>
        <time>2018-11-24T22:26:47Z</time>
      </trkpt>
      <trkpt lat="42.85142" lon="0.71094">
        <ele>1213.9</ele>
        <time>2018-11-24T22:26:51Z</time>
      </trkpt>
      <trkpt lat="42.85134" lon="0.71086">
        <ele>1217.1</ele>
        <time>2018-11-24T22:26:55Z</time>
      </trkpt>
      <trkpt lat="42.85126" lon="0.7108">
        <ele>1220</ele>
        <time>2018-11-24T22:26:59Z</time>
      </trkpt>
      <trkpt lat="42.85117" lon="0.71077">
        <ele>1220.7</ele>
        <time>2018-11-24T22:27:02Z</time>
      </trkpt>
      <trkpt lat="42.85111" lon="0.71068">
        <ele>1225</ele>
        <time>2018-11-24T22:27:06Z</time>
      </trkpt>
      <trkpt lat="42.85101" lon="0.71068">
        <ele>1224.7</ele>
        <time>2018-11-24T22:27:10Z</time>
      </trkpt>
      <trkpt lat="42.85092" lon="0.71062">
        <ele>1227.1</ele>
        <time>2018-11-24T22:27:14Z</time>
      </trkpt>
      <trkpt lat="42.85083" lon="0.71058">
        <ele>1228.7</ele>
        <time>2018-11-24T22:27:17Z</time>
      </trkpt>
      <trkpt lat="42.85075" lon="0.71056">
        <ele>1229.7</ele>
        <time>2018-11-24T22:27:21Z</time>
      </trkpt>
      <trkpt lat="42.8507" lon="0.71044">
        <ele>1235.1</ele>
        <time>2018-11-24T22:27:25Z</time>
      </trkpt>
      <trkpt lat="42.85061" lon="0.71038">
        <ele>1237</ele>
        <time>2018-11-24T22:27:29Z</time>
      </trkpt>
      <trkpt lat="42.85052" lon="0.71034">
        <ele>1238.1</ele>
        <time>2018-11-24T22:27:33Z</time>
      </trkpt>
      <trkpt lat="42.85042" lon="0.71035">
        <ele>1236.6</ele>
        <time>2018-11-24T22:27:37Z</time>
      </trkpt>
      <trkpt lat="42.85033" lon="0.7104">
        <ele>1233.4</ele>
        <time>2018-11-24T22:27:41Z</time>
      </trkpt>
      <trkpt lat="42.85023" lon="0.71038">
        <ele>1233.1</ele>
        <time>2018-11-24T22:27:45Z</time>
      </trkpt>
      <trkpt lat="42.85014" lon="0.71034">
        <ele>1233.2</ele>
        <time>2018-11-24T22:27:48Z</time>
      </trkpt>
      <trkpt lat="42.85005" lon="0.71034">
        <ele>1232.1</ele>
        <time>2018-11-24T22:27:52Z</time>
      </trkpt>
      <trkpt lat="42.84997" lon="0.71025">
        <ele>1233.8</ele>
        <time>2018-11-24T22:27:56Z</time>
      </trkpt>
      <trkpt lat="42.84988" lon="0.71016">
        <ele>1234.6</ele>
        <time>2018-11-24T22:28:01Z</time>
      </trkpt>
      <trkpt lat="42.8498" lon="0.71014">
        <ele>1233.7</ele>
        <time>2018-11-24T22:28:04Z</time>
      </trkpt>
      <trkpt lat="42.84969" lon="0.71011">
        <ele>1231.7</ele>
        <time>2018-11-24T22:28:08Z</time>
      </trkpt>
      <trkpt lat="42.84961" lon="0.71006">
        <ele>1230.9</ele>
        <time>2018-11-24T22:28:12Z</time>
      </trkpt>
      <trkpt lat="42.84953" lon="0.70997">
        <ele>1230.4</ele>
        <time>2018-11-24T22:28:16Z</time>
      </trkpt>
      <trkpt lat="42.84944" lon="0.7099">
        <ele>1229.1</ele>
        <time>2018-11-24T22:28:20Z</time>
      </trkpt>
      <trkpt lat="42.84936" lon="0.70982">
        <ele>1228</ele>
        <time>2018-11-24T22:28:24Z</time>
      </trkpt>
      <trkpt lat="42.84934" lon="0.7098">
        <ele>1227.4</ele>
        <time>2018-11-24T22:28:25Z</time>
      </trkpt>
      <trkpt lat="42.84931" lon="0.70978">
        <ele>1227</ele>
        <time>2018-11-24T22:28:26Z</time>
      </trkpt>
      <trkpt lat="42.84929" lon="0.70976">
        <ele>1226.3</ele>
        <time>2018-11-24T22:28:28Z</time>
      </trkpt>
      <trkpt lat="42.84926" lon="0.70975">
        <ele>1225.8</ele>
        <time>2018-11-24T22:28:28Z</time>
      </trkpt>
      <trkpt lat="42.84925" lon="0.70973">
        <ele>1225.3</ele>
        <time>2018-11-24T22:28:29Z</time>
      </trkpt>
      <trkpt lat="42.84923" lon="0.70972">
        <ele>1224.9</ele>
        <time>2018-11-24T22:28:30Z</time>
      </trkpt>
      <trkpt lat="42.84921" lon="0.7097">
        <ele>1224.3</ele>
        <time>2018-11-24T22:28:31Z</time>
      </trkpt>
      <trkpt lat="42.84919" lon="0.70969">
        <ele>1223.7</ele>
        <time>2018-11-24T22:28:32Z</time>
      </trkpt>
      <trkpt lat="42.84916" lon="0.70968">
        <ele>1223</ele>
        <time>2018-11-24T22:28:33Z</time>
      </trkpt>
      <trkpt lat="42.84913" lon="0.70967">
        <ele>1221.7</ele>
        <time>2018-11-24T22:28:34Z</time>
      </trkpt>
      <trkpt lat="42.8491" lon="0.70967">
        <ele>1220.7</ele>
        <time>2018-11-24T22:28:35Z</time>
      </trkpt>
      <trkpt lat="42.84907" lon="0.70967">
        <ele>1220.3</ele>
        <time>2018-11-24T22:28:37Z</time>
      </trkpt>
      <trkpt lat="42.84904" lon="0.70965">
        <ele>1218.8</ele>
        <time>2018-11-24T22:28:38Z</time>
      </trkpt>
      <trkpt lat="42.84902" lon="0.70966">
        <ele>1218.1</ele>
        <time>2018-11-24T22:28:39Z</time>
      </trkpt>
      <trkpt lat="42.84898" lon="0.70965">
        <ele>1216.8</ele>
        <time>2018-11-24T22:28:40Z</time>
      </trkpt>
      <trkpt lat="42.84896" lon="0.70965">
        <ele>1215.9</ele>
        <time>2018-11-24T22:28:41Z</time>
      </trkpt>
      <trkpt lat="42.84893" lon="0.70965">
        <ele>1214.6</ele>
        <time>2018-11-24T22:28:43Z</time>
      </trkpt>
      <trkpt lat="42.8489" lon="0.70965">
        <ele>1213.5</ele>
        <time>2018-11-24T22:28:44Z</time>
      </trkpt>
      <trkpt lat="42.84886" lon="0.70965">
        <ele>1212.3</ele>
        <time>2018-11-24T22:28:45Z</time>
      </trkpt>
      <trkpt lat="42.84885" lon="0.70965">
        <ele>1211.5</ele>
        <time>2018-11-24T22:28:46Z</time>
      </trkpt>
      <trkpt lat="42.84882" lon="0.70965">
        <ele>1210.5</ele>
        <time>2018-11-24T22:28:47Z</time>
      </trkpt>
      <trkpt lat="42.84878" lon="0.70964">
        <ele>1209.2</ele>
        <time>2018-11-24T22:28:48Z</time>
      </trkpt>
      <trkpt lat="42.84876" lon="0.70963">
        <ele>1208.6</ele>
        <time>2018-11-24T22:28:49Z</time>
      </trkpt>
      <trkpt lat="42.84874" lon="0.70962">
        <ele>1208</ele>
        <time>2018-11-24T22:28:50Z</time>
      </trkpt>
      <trkpt lat="42.84872" lon="0.70962">
        <ele>1207.3</ele>
        <time>2018-11-24T22:28:51Z</time>
      </trkpt>
      <trkpt lat="42.8487" lon="0.70962">
        <ele>1206.7</ele>
        <time>2018-11-24T22:28:52Z</time>
      </trkpt>
      <trkpt lat="42.84867" lon="0.70961">
        <ele>1205.9</ele>
        <time>2018-11-24T22:28:53Z</time>
      </trkpt>
      <trkpt lat="42.84867" lon="0.70958">
        <ele>1206.1</ele>
        <time>2018-11-24T22:28:54Z</time>
      </trkpt>
      <trkpt lat="42.84867" lon="0.70956">
        <ele>1206.3</ele>
        <time>2018-11-24T22:28:54Z</time>
      </trkpt>
      <trkpt lat="42.84867" lon="0.70953">
        <ele>1206.3</ele>
        <time>2018-11-24T22:28:55Z</time>
      </trkpt>
      <trkpt lat="42.84866" lon="0.7095">
        <ele>1206.4</ele>
        <time>2018-11-24T22:28:56Z</time>
      </trkpt>
      <trkpt lat="42.84866" lon="0.70948">
        <ele>1206.6</ele>
        <time>2018-11-24T22:28:57Z</time>
      </trkpt>
      <trkpt lat="42.84867" lon="0.70945">
        <ele>1207.2</ele>
        <time>2018-11-24T22:28:58Z</time>
      </trkpt>
      <trkpt lat="42.84867" lon="0.70943">
        <ele>1207.4</ele>
        <time>2018-11-24T22:28:58Z</time>
      </trkpt>
      <trkpt lat="42.84867" lon="0.7094">
        <ele>1207.7</ele>
        <time>2018-11-24T22:28:59Z</time>
      </trkpt>
      <trkpt lat="42.84868" lon="0.70937">
        <ele>1208.3</ele>
        <time>2018-11-24T22:29:00Z</time>
      </trkpt>
      <trkpt lat="42.84867" lon="0.70933">
        <ele>1208.4</ele>
        <time>2018-11-24T22:29:01Z</time>
      </trkpt>
      <trkpt lat="42.84867" lon="0.70928">
        <ele>1208.8</ele>
        <time>2018-11-24T22:29:03Z</time>
      </trkpt>
      <trkpt lat="42.84867" lon="0.70926">
        <ele>1209.1</ele>
        <time>2018-11-24T22:29:03Z</time>
      </trkpt>
      <trkpt lat="42.84866" lon="0.70923">
        <ele>1209.1</ele>
        <time>2018-11-24T22:29:04Z</time>
      </trkpt>
      <trkpt lat="42.84865" lon="0.70921">
        <ele>1209.1</ele>
        <time>2018-11-24T22:29:05Z</time>
      </trkpt>
      <trkpt lat="42.84865" lon="0.70918">
        <ele>1209.1</ele>
        <time>2018-11-24T22:29:06Z</time>
      </trkpt>
      <trkpt lat="42.84864" lon="0.70915">
        <ele>1209.2</ele>
        <time>2018-11-24T22:29:07Z</time>
      </trkpt>
      <trkpt lat="42.84863" lon="0.70913">
        <ele>1209.3</ele>
        <time>2018-11-24T22:29:08Z</time>
      </trkpt>
      <trkpt lat="42.84861" lon="0.709">
        <ele>1210.2</ele>
        <time>2018-11-24T22:29:11Z</time>
      </trkpt>
      <trkpt lat="42.84858" lon="0.70886">
        <ele>1211.1</ele>
        <time>2018-11-24T22:29:16Z</time>
      </trkpt>
      <trkpt lat="42.84859" lon="0.70871">
        <ele>1213.6</ele>
        <time>2018-11-24T22:29:20Z</time>
      </trkpt>
      <trkpt lat="42.84855" lon="0.70855">
        <ele>1215.2</ele>
        <time>2018-11-24T22:29:25Z</time>
      </trkpt>
      <trkpt lat="42.84848" lon="0.70847">
        <ele>1215.2</ele>
        <time>2018-11-24T22:29:29Z</time>
      </trkpt>
      <trkpt lat="42.84839" lon="0.70839">
        <ele>1215.5</ele>
        <time>2018-11-24T22:29:33Z</time>
      </trkpt>
      <trkpt lat="42.84833" lon="0.70828">
        <ele>1217.1</ele>
        <time>2018-11-24T22:29:37Z</time>
      </trkpt>
      <trkpt lat="42.84824" lon="0.70824">
        <ele>1217.5</ele>
        <time>2018-11-24T22:29:41Z</time>
      </trkpt>
      <trkpt lat="42.84816" lon="0.70833">
        <ele>1215.1</ele>
        <time>2018-11-24T22:29:45Z</time>
      </trkpt>
      <trkpt lat="42.84809" lon="0.70841">
        <ele>1212.8</ele>
        <time>2018-11-24T22:29:48Z</time>
      </trkpt>
      <trkpt lat="42.84797" lon="0.70846">
        <ele>1211.6</ele>
        <time>2018-11-24T22:29:53Z</time>
      </trkpt>
      <trkpt lat="42.84786" lon="0.70853">
        <ele>1210.2</ele>
        <time>2018-11-24T22:29:58Z</time>
      </trkpt>
      <trkpt lat="42.84779" lon="0.70862">
        <ele>1208.3</ele>
        <time>2018-11-24T22:30:02Z</time>
      </trkpt>
      <trkpt lat="42.84771" lon="0.7087">
        <ele>1206.7</ele>
        <time>2018-11-24T22:30:06Z</time>
      </trkpt>
      <trkpt lat="42.84764" lon="0.70878">
        <ele>1205.2</ele>
        <time>2018-11-24T22:30:10Z</time>
      </trkpt>
      <trkpt lat="42.84755" lon="0.70883">
        <ele>1204.6</ele>
        <time>2018-11-24T22:30:14Z</time>
      </trkpt>
      <trkpt lat="42.84748" lon="0.70893">
        <ele>1202.5</ele>
        <time>2018-11-24T22:30:18Z</time>
      </trkpt>
      <trkpt lat="42.8474" lon="0.70903">
        <ele>1200.9</ele>
        <time>2018-11-24T22:30:22Z</time>
      </trkpt>
      <trkpt lat="42.84734" lon="0.70913">
        <ele>1200.5</ele>
        <time>2018-11-24T22:30:26Z</time>
      </trkpt>
      <trkpt lat="42.84726" lon="0.70919">
        <ele>1200.7</ele>
        <time>2018-11-24T22:30:29Z</time>
      </trkpt>
      <trkpt lat="42.84716" lon="0.70923">
        <ele>1200.7</ele>
        <time>2018-11-24T22:30:33Z</time>
      </trkpt>
      <trkpt lat="42.84708" lon="0.70926">
        <ele>1202.3</ele>
        <time>2018-11-24T22:30:37Z</time>
      </trkpt>
      <trkpt lat="42.84699" lon="0.70933">
        <ele>1202.9</ele>
        <time>2018-11-24T22:30:41Z</time>
      </trkpt>
      <trkpt lat="42.84691" lon="0.7094">
        <ele>1203.8</ele>
        <time>2018-11-24T22:30:45Z</time>
      </trkpt>
      <trkpt lat="42.84685" lon="0.7095">
        <ele>1203.1</ele>
        <time>2018-11-24T22:30:49Z</time>
      </trkpt>
      <trkpt lat="42.84675" lon="0.70954">
        <ele>1205.4</ele>
        <time>2018-11-24T22:30:53Z</time>
      </trkpt>
      <trkpt lat="42.84673" lon="0.70953">
        <ele>1206.3</ele>
        <time>2018-11-24T22:30:53Z</time>
      </trkpt>
      <trkpt lat="42.84672" lon="0.70955">
        <ele>1206.4</ele>
        <time>2018-11-24T22:30:54Z</time>
      </trkpt>
      <trkpt lat="42.8467" lon="0.70957">
        <ele>1206.5</ele>
        <time>2018-11-24T22:30:55Z</time>
      </trkpt>
      <trkpt lat="42.84667" lon="0.70959">
        <ele>1207.1</ele>
        <time>2018-11-24T22:30:56Z</time>
      </trkpt>
      <trkpt lat="42.84663" lon="0.70964">
        <ele>1206.9</ele>
        <time>2018-11-24T22:30:59Z</time>
      </trkpt>
      <trkpt lat="42.84662" lon="0.70967">
        <ele>1206.8</ele>
        <time>2018-11-24T22:30:59Z</time>
      </trkpt>
      <trkpt lat="42.84654" lon="0.70976">
        <ele>1207.4</ele>
        <time>2018-11-24T22:31:03Z</time>
      </trkpt>
      <trkpt lat="42.84652" lon="0.70977">
        <ele>1207.7</ele>
        <time>2018-11-24T22:31:04Z</time>
      </trkpt>
      <trkpt lat="42.84654" lon="0.7098">
        <ele>1206.3</ele>
        <time>2018-11-24T22:31:05Z</time>
      </trkpt>
      <trkpt lat="42.84656" lon="0.70979">
        <ele>1205.8</ele>
        <time>2018-11-24T22:31:06Z</time>
      </trkpt>
      <trkpt lat="42.84658" lon="0.70979">
        <ele>1205</ele>
        <time>2018-11-24T22:31:07Z</time>
      </trkpt>
      <trkpt lat="42.84656" lon="0.70979">
        <ele>1205.7</ele>
        <time>2018-11-24T22:31:08Z</time>
      </trkpt>
      <trkpt lat="42.84654" lon="0.7098">
        <ele>1206.4</ele>
        <time>2018-11-24T22:31:09Z</time>
      </trkpt>
      <trkpt lat="42.84656" lon="0.70979">
        <ele>1205.9</ele>
        <time>2018-11-24T22:31:09Z</time>
      </trkpt>
      <trkpt lat="42.84658" lon="0.70978">
        <ele>1205.3</ele>
        <time>2018-11-24T22:31:10Z</time>
      </trkpt>
      <trkpt lat="42.84658" lon="0.70975">
        <ele>1206.2</ele>
        <time>2018-11-24T22:31:11Z</time>
      </trkpt>
      <trkpt lat="42.84659" lon="0.70971">
        <ele>1206.9</ele>
        <time>2018-11-24T22:31:12Z</time>
      </trkpt>
      <trkpt lat="42.84659" lon="0.70959">
        <ele>1210.2</ele>
        <time>2018-11-24T22:31:16Z</time>
      </trkpt>
      <trkpt lat="42.84659" lon="0.70949">
        <ele>1213.2</ele>
        <time>2018-11-24T22:31:19Z</time>
      </trkpt>
      <trkpt lat="42.84659" lon="0.70946">
        <ele>1213.9</ele>
        <time>2018-11-24T22:31:20Z</time>
      </trkpt>
      <trkpt lat="42.8466" lon="0.70944">
        <ele>1214.3</ele>
        <time>2018-11-24T22:31:20Z</time>
      </trkpt>
      <trkpt lat="42.8466" lon="0.70941">
        <ele>1214.9</ele>
        <time>2018-11-24T22:31:21Z</time>
      </trkpt>
      <trkpt lat="42.84653" lon="0.70931">
        <ele>1220.7</ele>
        <time>2018-11-24T22:31:25Z</time>
      </trkpt>
      <trkpt lat="42.84655" lon="0.70918">
        <ele>1223.9</ele>
        <time>2018-11-24T22:31:29Z</time>
      </trkpt>
      <trkpt lat="42.84657" lon="0.70906">
        <ele>1226.3</ele>
        <time>2018-11-24T22:31:33Z</time>
      </trkpt>
      <trkpt lat="42.84662" lon="0.70895">
        <ele>1227.4</ele>
        <time>2018-11-24T22:31:36Z</time>
      </trkpt>
      <trkpt lat="42.84669" lon="0.70887">
        <ele>1227.4</ele>
        <time>2018-11-24T22:31:40Z</time>
      </trkpt>
      <trkpt lat="42.84672" lon="0.70882">
        <ele>1227.8</ele>
        <time>2018-11-24T22:31:42Z</time>
      </trkpt>
      <trkpt lat="42.84674" lon="0.7087">
        <ele>1230.6</ele>
        <time>2018-11-24T22:31:46Z</time>
      </trkpt>
      <trkpt lat="42.84677" lon="0.70863">
        <ele>1231.8</ele>
        <time>2018-11-24T22:31:48Z</time>
      </trkpt>
      <trkpt lat="42.84678" lon="0.7086">
        <ele>1232.3</ele>
        <time>2018-11-24T22:31:49Z</time>
      </trkpt>
      <trkpt lat="42.84679" lon="0.70857">
        <ele>1233.2</ele>
        <time>2018-11-24T22:31:50Z</time>
      </trkpt>
      <trkpt lat="42.84681" lon="0.70854">
        <ele>1233.3</ele>
        <time>2018-11-24T22:31:51Z</time>
      </trkpt>
      <trkpt lat="42.84682" lon="0.70851">
        <ele>1233.9</ele>
        <time>2018-11-24T22:31:52Z</time>
      </trkpt>
      <trkpt lat="42.84684" lon="0.70848">
        <ele>1234.4</ele>
        <time>2018-11-24T22:31:53Z</time>
      </trkpt>
      <trkpt lat="42.84684" lon="0.70845">
        <ele>1235.3</ele>
        <time>2018-11-24T22:31:54Z</time>
      </trkpt>
      <trkpt lat="42.84684" lon="0.70841">
        <ele>1236.3</ele>
        <time>2018-11-24T22:31:55Z</time>
      </trkpt>
      <trkpt lat="42.84686" lon="0.70839">
        <ele>1236.6</ele>
        <time>2018-11-24T22:31:56Z</time>
      </trkpt>
      <trkpt lat="42.84688" lon="0.70836">
        <ele>1236.9</ele>
        <time>2018-11-24T22:31:57Z</time>
      </trkpt>
      <trkpt lat="42.84689" lon="0.70832">
        <ele>1237.8</ele>
        <time>2018-11-24T22:31:58Z</time>
      </trkpt>
      <trkpt lat="42.84689" lon="0.7083">
        <ele>1238.6</ele>
        <time>2018-11-24T22:31:59Z</time>
      </trkpt>
      <trkpt lat="42.8469" lon="0.70827">
        <ele>1239.5</ele>
        <time>2018-11-24T22:32:00Z</time>
      </trkpt>
      <trkpt lat="42.84691" lon="0.70824">
        <ele>1240.2</ele>
        <time>2018-11-24T22:32:01Z</time>
      </trkpt>
      <trkpt lat="42.84692" lon="0.70816">
        <ele>1242.7</ele>
        <time>2018-11-24T22:32:04Z</time>
      </trkpt>
      <trkpt lat="42.84693" lon="0.70813">
        <ele>1243</ele>
        <time>2018-11-24T22:32:04Z</time>
      </trkpt>
      <trkpt lat="42.847" lon="0.70804">
        <ele>1244.3</ele>
        <time>2018-11-24T22:32:08Z</time>
      </trkpt>
      <trkpt lat="42.84707" lon="0.70796">
        <ele>1245.6</ele>
        <time>2018-11-24T22:32:12Z</time>
      </trkpt>
      <trkpt lat="42.84712" lon="0.70786">
        <ele>1247.7</ele>
        <time>2018-11-24T22:32:15Z</time>
      </trkpt>
      <trkpt lat="42.84713" lon="0.70784">
        <ele>1248.2</ele>
        <time>2018-11-24T22:32:16Z</time>
      </trkpt>
      <trkpt lat="42.84715" lon="0.70782">
        <ele>1248.3</ele>
        <time>2018-11-24T22:32:17Z</time>
      </trkpt>
      <trkpt lat="42.84724" lon="0.70776">
        <ele>1248.3</ele>
        <time>2018-11-24T22:32:21Z</time>
      </trkpt>
      <trkpt lat="42.84729" lon="0.70766">
        <ele>1250.6</ele>
        <time>2018-11-24T22:32:25Z</time>
      </trkpt>
      <trkpt lat="42.84732" lon="0.70764">
        <ele>1250.3</ele>
        <time>2018-11-24T22:32:26Z</time>
      </trkpt>
      <trkpt lat="42.84734" lon="0.70762">
        <ele>1250.9</ele>
        <time>2018-11-24T22:32:27Z</time>
      </trkpt>
      <trkpt lat="42.84738" lon="0.70751">
        <ele>1253.6</ele>
        <time>2018-11-24T22:32:31Z</time>
      </trkpt>
      <trkpt lat="42.84742" lon="0.70741">
        <ele>1255.7</ele>
        <time>2018-11-24T22:32:34Z</time>
      </trkpt>
      <trkpt lat="42.84744" lon="0.70735">
        <ele>1257.3</ele>
        <time>2018-11-24T22:32:36Z</time>
      </trkpt>
      <trkpt lat="42.84744" lon="0.70731">
        <ele>1258.4</ele>
        <time>2018-11-24T22:32:37Z</time>
      </trkpt>
      <trkpt lat="42.84745" lon="0.70729">
        <ele>1258.9</ele>
        <time>2018-11-24T22:32:38Z</time>
      </trkpt>
      <trkpt lat="42.84746" lon="0.70727">
        <ele>1259.3</ele>
        <time>2018-11-24T22:32:39Z</time>
      </trkpt>
      <trkpt lat="42.84744" lon="0.70726">
        <ele>1260.2</ele>
        <time>2018-11-24T22:32:40Z</time>
      </trkpt>
      <trkpt lat="42.84741" lon="0.70726">
        <ele>1260.9</ele>
        <time>2018-11-24T22:32:41Z</time>
      </trkpt>
      <trkpt lat="42.84739" lon="0.70722">
        <ele>1262.4</ele>
        <time>2018-11-24T22:32:42Z</time>
      </trkpt>
      <trkpt lat="42.8474" lon="0.70718">
        <ele>1263.6</ele>
        <time>2018-11-24T22:32:43Z</time>
      </trkpt>
      <trkpt lat="42.84741" lon="0.70715">
        <ele>1264.2</ele>
        <time>2018-11-24T22:32:44Z</time>
      </trkpt>
      <trkpt lat="42.84742" lon="0.70712">
        <ele>1265</ele>
        <time>2018-11-24T22:32:45Z</time>
      </trkpt>
      <trkpt lat="42.84742" lon="0.70709">
        <ele>1265.4</ele>
        <time>2018-11-24T22:32:46Z</time>
      </trkpt>
      <trkpt lat="42.84744" lon="0.70707">
        <ele>1265.6</ele>
        <time>2018-11-24T22:32:47Z</time>
      </trkpt>
      <trkpt lat="42.84744" lon="0.70704">
        <ele>1266.4</ele>
        <time>2018-11-24T22:32:48Z</time>
      </trkpt>
      <trkpt lat="42.84744" lon="0.70702">
        <ele>1267.2</ele>
        <time>2018-11-24T22:32:48Z</time>
      </trkpt>
      <trkpt lat="42.84744" lon="0.70699">
        <ele>1268</ele>
        <time>2018-11-24T22:32:49Z</time>
      </trkpt>
      <trkpt lat="42.84745" lon="0.70696">
        <ele>1268.4</ele>
        <time>2018-11-24T22:32:50Z</time>
      </trkpt>
      <trkpt lat="42.84744" lon="0.7069">
        <ele>1270.2</ele>
        <time>2018-11-24T22:32:52Z</time>
      </trkpt>
      <trkpt lat="42.84746" lon="0.70686">
        <ele>1270.6</ele>
        <time>2018-11-24T22:32:53Z</time>
      </trkpt>
      <trkpt lat="42.84747" lon="0.70684">
        <ele>1270.8</ele>
        <time>2018-11-24T22:32:54Z</time>
      </trkpt>
      <trkpt lat="42.84747" lon="0.70672">
        <ele>1274</ele>
        <time>2018-11-24T22:32:58Z</time>
      </trkpt>
      <trkpt lat="42.84746" lon="0.70661">
        <ele>1276.6</ele>
        <time>2018-11-24T22:33:01Z</time>
      </trkpt>
      <trkpt lat="42.84746" lon="0.70658">
        <ele>1277.6</ele>
        <time>2018-11-24T22:33:02Z</time>
      </trkpt>
      <trkpt lat="42.84745" lon="0.70654">
        <ele>1278.9</ele>
        <time>2018-11-24T22:33:03Z</time>
      </trkpt>
      <trkpt lat="42.84743" lon="0.70649">
        <ele>1280.4</ele>
        <time>2018-11-24T22:33:05Z</time>
      </trkpt>
      <trkpt lat="42.84743" lon="0.70646">
        <ele>1281.3</ele>
        <time>2018-11-24T22:33:06Z</time>
      </trkpt>
      <trkpt lat="42.84737" lon="0.70636">
        <ele>1285.8</ele>
        <time>2018-11-24T22:33:09Z</time>
      </trkpt>
      <trkpt lat="42.84739" lon="0.70623">
        <ele>1287.9</ele>
        <time>2018-11-24T22:33:13Z</time>
      </trkpt>
      <trkpt lat="42.84736" lon="0.70611">
        <ele>1291.8</ele>
        <time>2018-11-24T22:33:17Z</time>
      </trkpt>
      <trkpt lat="42.84738" lon="0.70598">
        <ele>1293.8</ele>
        <time>2018-11-24T22:33:21Z</time>
      </trkpt>
      <trkpt lat="42.84744" lon="0.70589">
        <ele>1293.1</ele>
        <time>2018-11-24T22:33:24Z</time>
      </trkpt>
      <trkpt lat="42.84746" lon="0.70586">
        <ele>1293.2</ele>
        <time>2018-11-24T22:33:25Z</time>
      </trkpt>
      <trkpt lat="42.84747" lon="0.70585">
        <ele>1293.1</ele>
        <time>2018-11-24T22:33:26Z</time>
      </trkpt>
      <trkpt lat="42.84751" lon="0.70574">
        <ele>1293.9</ele>
        <time>2018-11-24T22:33:30Z</time>
      </trkpt>
      <trkpt lat="42.84752" lon="0.70566">
        <ele>1295</ele>
        <time>2018-11-24T22:33:32Z</time>
      </trkpt>
      <trkpt lat="42.84754" lon="0.70563">
        <ele>1294.9</ele>
        <time>2018-11-24T22:33:33Z</time>
      </trkpt>
      <trkpt lat="42.84756" lon="0.7056">
        <ele>1295.1</ele>
        <time>2018-11-24T22:33:34Z</time>
      </trkpt>
      <trkpt lat="42.84757" lon="0.70558">
        <ele>1295.4</ele>
        <time>2018-11-24T22:33:35Z</time>
      </trkpt>
      <trkpt lat="42.84757" lon="0.70555">
        <ele>1295.8</ele>
        <time>2018-11-24T22:33:36Z</time>
      </trkpt>
      <trkpt lat="42.84758" lon="0.70552">
        <ele>1296.1</ele>
        <time>2018-11-24T22:33:37Z</time>
      </trkpt>
      <trkpt lat="42.84758" lon="0.70549">
        <ele>1296.9</ele>
        <time>2018-11-24T22:33:38Z</time>
      </trkpt>
      <trkpt lat="42.84759" lon="0.70546">
        <ele>1297</ele>
        <time>2018-11-24T22:33:39Z</time>
      </trkpt>
      <trkpt lat="42.8476" lon="0.70543">
        <ele>1297.4</ele>
        <time>2018-11-24T22:33:40Z</time>
      </trkpt>
      <trkpt lat="42.84761" lon="0.7054">
        <ele>1297.9</ele>
        <time>2018-11-24T22:33:41Z</time>
      </trkpt>
      <trkpt lat="42.84761" lon="0.70537">
        <ele>1298.3</ele>
        <time>2018-11-24T22:33:41Z</time>
      </trkpt>
      <trkpt lat="42.84762" lon="0.70535">
        <ele>1298.7</ele>
        <time>2018-11-24T22:33:42Z</time>
      </trkpt>
      <trkpt lat="42.84763" lon="0.70532">
        <ele>1299</ele>
        <time>2018-11-24T22:33:43Z</time>
      </trkpt>
      <trkpt lat="42.84764" lon="0.7053">
        <ele>1299.1</ele>
        <time>2018-11-24T22:33:44Z</time>
      </trkpt>
      <trkpt lat="42.84766" lon="0.70528">
        <ele>1298.9</ele>
        <time>2018-11-24T22:33:45Z</time>
      </trkpt>
      <trkpt lat="42.84768" lon="0.70525">
        <ele>1298.9</ele>
        <time>2018-11-24T22:33:46Z</time>
      </trkpt>
      <trkpt lat="42.8477" lon="0.70523">
        <ele>1298.9</ele>
        <time>2018-11-24T22:33:47Z</time>
      </trkpt>
      <trkpt lat="42.84771" lon="0.70521">
        <ele>1299.3</ele>
        <time>2018-11-24T22:33:48Z</time>
      </trkpt>
      <trkpt lat="42.84773" lon="0.70518">
        <ele>1299.2</ele>
        <time>2018-11-24T22:33:49Z</time>
      </trkpt>
      <trkpt lat="42.84774" lon="0.70515">
        <ele>1300.6</ele>
        <time>2018-11-24T22:33:50Z</time>
      </trkpt>
      <trkpt lat="42.84775" lon="0.70512">
        <ele>1300.1</ele>
        <time>2018-11-24T22:33:51Z</time>
      </trkpt>
      <trkpt lat="42.84777" lon="0.70508">
        <ele>1300.7</ele>
        <time>2018-11-24T22:33:52Z</time>
      </trkpt>
      <trkpt lat="42.84777" lon="0.70504">
        <ele>1301.6</ele>
        <time>2018-11-24T22:33:53Z</time>
      </trkpt>
      <trkpt lat="42.84779" lon="0.70502">
        <ele>1301.7</ele>
        <time>2018-11-24T22:33:54Z</time>
      </trkpt>
      <trkpt lat="42.84781" lon="0.70499">
        <ele>1302.3</ele>
        <time>2018-11-24T22:33:55Z</time>
      </trkpt>
      <trkpt lat="42.84782" lon="0.70495">
        <ele>1302.8</ele>
        <time>2018-11-24T22:33:57Z</time>
      </trkpt>
      <trkpt lat="42.84784" lon="0.7049">
        <ele>1303.8</ele>
        <time>2018-11-24T22:33:58Z</time>
      </trkpt>
      <trkpt lat="42.84785" lon="0.70488">
        <ele>1304.2</ele>
        <time>2018-11-24T22:33:59Z</time>
      </trkpt>
      <trkpt lat="42.84786" lon="0.70485">
        <ele>1304.6</ele>
        <time>2018-11-24T22:34:00Z</time>
      </trkpt>
      <trkpt lat="42.84787" lon="0.70481">
        <ele>1305.6</ele>
        <time>2018-11-24T22:34:01Z</time>
      </trkpt>
      <trkpt lat="42.84787" lon="0.70479">
        <ele>1306.2</ele>
        <time>2018-11-24T22:34:02Z</time>
      </trkpt>
      <trkpt lat="42.84789" lon="0.70476">
        <ele>1306.7</ele>
        <time>2018-11-24T22:34:03Z</time>
      </trkpt>
      <trkpt lat="42.8479" lon="0.70473">
        <ele>1307.1</ele>
        <time>2018-11-24T22:34:04Z</time>
      </trkpt>
      <trkpt lat="42.84791" lon="0.7047">
        <ele>1308.1</ele>
        <time>2018-11-24T22:34:05Z</time>
      </trkpt>
      <trkpt lat="42.84792" lon="0.70465">
        <ele>1309.1</ele>
        <time>2018-11-24T22:34:06Z</time>
      </trkpt>
      <trkpt lat="42.84792" lon="0.70462">
        <ele>1310.1</ele>
        <time>2018-11-24T22:34:07Z</time>
      </trkpt>
      <trkpt lat="42.84793" lon="0.70459">
        <ele>1310.7</ele>
        <time>2018-11-24T22:34:08Z</time>
      </trkpt>
      <trkpt lat="42.84793" lon="0.70446">
        <ele>1314.8</ele>
        <time>2018-11-24T22:34:12Z</time>
      </trkpt>
      <trkpt lat="42.84796" lon="0.70435">
        <ele>1317.7</ele>
        <time>2018-11-24T22:34:15Z</time>
      </trkpt>
      <trkpt lat="42.84803" lon="0.70428">
        <ele>1318.4</ele>
        <time>2018-11-24T22:34:19Z</time>
      </trkpt>
      <trkpt lat="42.8481" lon="0.70417">
        <ele>1320.4</ele>
        <time>2018-11-24T22:34:23Z</time>
      </trkpt>
      <trkpt lat="42.84814" lon="0.70404">
        <ele>1323.8</ele>
        <time>2018-11-24T22:34:27Z</time>
      </trkpt>
      <trkpt lat="42.84815" lon="0.70389">
        <ele>1328.3</ele>
        <time>2018-11-24T22:34:32Z</time>
      </trkpt>
      <trkpt lat="42.8482" lon="0.70378">
        <ele>1331.4</ele>
        <time>2018-11-24T22:34:36Z</time>
      </trkpt>
      <trkpt lat="42.84829" lon="0.70377">
        <ele>1330.5</ele>
        <time>2018-11-24T22:34:39Z</time>
      </trkpt>
      <trkpt lat="42.84837" lon="0.70383">
        <ele>1327.9</ele>
        <time>2018-11-24T22:34:43Z</time>
      </trkpt>
      <trkpt lat="42.84839" lon="0.70384">
        <ele>1327.3</ele>
        <time>2018-11-24T22:34:44Z</time>
      </trkpt>
      <trkpt lat="42.84848" lon="0.70389">
        <ele>1325.7</ele>
        <time>2018-11-24T22:34:47Z</time>
      </trkpt>
      <trkpt lat="42.8485" lon="0.7039">
        <ele>1325.2</ele>
        <time>2018-11-24T22:34:48Z</time>
      </trkpt>
      <trkpt lat="42.84855" lon="0.7039">
        <ele>1325.1</ele>
        <time>2018-11-24T22:34:50Z</time>
      </trkpt>
      <trkpt lat="42.84857" lon="0.70389">
        <ele>1325.5</ele>
        <time>2018-11-24T22:34:51Z</time>
      </trkpt>
      <trkpt lat="42.84859" lon="0.70388">
        <ele>1325.7</ele>
        <time>2018-11-24T22:34:52Z</time>
      </trkpt>
      <trkpt lat="42.84861" lon="0.70387">
        <ele>1326.3</ele>
        <time>2018-11-24T22:34:53Z</time>
      </trkpt>
      <trkpt lat="42.84863" lon="0.70385">
        <ele>1326.6</ele>
        <time>2018-11-24T22:34:54Z</time>
      </trkpt>
      <trkpt lat="42.84864" lon="0.70383">
        <ele>1327.5</ele>
        <time>2018-11-24T22:34:55Z</time>
      </trkpt>
      <trkpt lat="42.84866" lon="0.70382">
        <ele>1328.1</ele>
        <time>2018-11-24T22:34:56Z</time>
      </trkpt>
      <trkpt lat="42.84868" lon="0.70379">
        <ele>1328.9</ele>
        <time>2018-11-24T22:34:57Z</time>
      </trkpt>
      <trkpt lat="42.84869" lon="0.70377">
        <ele>1329.5</ele>
        <time>2018-11-24T22:34:57Z</time>
      </trkpt>
      <trkpt lat="42.84869" lon="0.70375">
        <ele>1330.4</ele>
        <time>2018-11-24T22:34:58Z</time>
      </trkpt>
      <trkpt lat="42.84871" lon="0.70372">
        <ele>1331.5</ele>
        <time>2018-11-24T22:34:59Z</time>
      </trkpt>
      <trkpt lat="42.84872" lon="0.7037">
        <ele>1332.3</ele>
        <time>2018-11-24T22:35:00Z</time>
      </trkpt>
      <trkpt lat="42.84875" lon="0.70367">
        <ele>1333.4</ele>
        <time>2018-11-24T22:35:01Z</time>
      </trkpt>
      <trkpt lat="42.84876" lon="0.70365">
        <ele>1334.1</ele>
        <time>2018-11-24T22:35:02Z</time>
      </trkpt>
      <trkpt lat="42.84877" lon="0.70363">
        <ele>1335.2</ele>
        <time>2018-11-24T22:35:03Z</time>
      </trkpt>
      <trkpt lat="42.84879" lon="0.7036">
        <ele>1336</ele>
        <time>2018-11-24T22:35:04Z</time>
      </trkpt>
      <trkpt lat="42.84882" lon="0.70359">
        <ele>1337</ele>
        <time>2018-11-24T22:35:05Z</time>
      </trkpt>
      <trkpt lat="42.84885" lon="0.70356">
        <ele>1338.1</ele>
        <time>2018-11-24T22:35:06Z</time>
      </trkpt>
      <trkpt lat="42.84887" lon="0.70355">
        <ele>1338.7</ele>
        <time>2018-11-24T22:35:07Z</time>
      </trkpt>
      <trkpt lat="42.84889" lon="0.70355">
        <ele>1338.8</ele>
        <time>2018-11-24T22:35:08Z</time>
      </trkpt>
      <trkpt lat="42.84892" lon="0.70355">
        <ele>1339.1</ele>
        <time>2018-11-24T22:35:09Z</time>
      </trkpt>
      <trkpt lat="42.84893" lon="0.70353">
        <ele>1340</ele>
        <time>2018-11-24T22:35:10Z</time>
      </trkpt>
      <trkpt lat="42.84896" lon="0.70352">
        <ele>1340.5</ele>
        <time>2018-11-24T22:35:11Z</time>
      </trkpt>
      <trkpt lat="42.84898" lon="0.70352">
        <ele>1340.8</ele>
        <time>2018-11-24T22:35:12Z</time>
      </trkpt>
      <trkpt lat="42.84902" lon="0.70354">
        <ele>1340.7</ele>
        <time>2018-11-24T22:35:14Z</time>
      </trkpt>
      <trkpt lat="42.84906" lon="0.70356">
        <ele>1340.6</ele>
        <time>2018-11-24T22:35:15Z</time>
      </trkpt>
      <trkpt lat="42.84907" lon="0.70358">
        <ele>1340</ele>
        <time>2018-11-24T22:35:16Z</time>
      </trkpt>
      <trkpt lat="42.84909" lon="0.7036">
        <ele>1339.7</ele>
        <time>2018-11-24T22:35:17Z</time>
      </trkpt>
      <trkpt lat="42.84911" lon="0.70362">
        <ele>1339.3</ele>
        <time>2018-11-24T22:35:18Z</time>
      </trkpt>
      <trkpt lat="42.84913" lon="0.70363">
        <ele>1338.9</ele>
        <time>2018-11-24T22:35:19Z</time>
      </trkpt>
      <trkpt lat="42.84915" lon="0.70365">
        <ele>1338.5</ele>
        <time>2018-11-24T22:35:20Z</time>
      </trkpt>
      <trkpt lat="42.84917" lon="0.70367">
        <ele>1338</ele>
        <time>2018-11-24T22:35:21Z</time>
      </trkpt>
      <trkpt lat="42.84918" lon="0.70369">
        <ele>1337.6</ele>
        <time>2018-11-24T22:35:22Z</time>
      </trkpt>
      <trkpt lat="42.8492" lon="0.7037">
        <ele>1337.6</ele>
        <time>2018-11-24T22:35:23Z</time>
      </trkpt>
      <trkpt lat="42.84923" lon="0.7037">
        <ele>1337.9</ele>
        <time>2018-11-24T22:35:24Z</time>
      </trkpt>
      <trkpt lat="42.84925" lon="0.70369">
        <ele>1338.6</ele>
        <time>2018-11-24T22:35:24Z</time>
      </trkpt>
      <trkpt lat="42.84927" lon="0.70369">
        <ele>1338.9</ele>
        <time>2018-11-24T22:35:25Z</time>
      </trkpt>
      <trkpt lat="42.84929" lon="0.7037">
        <ele>1338.9</ele>
        <time>2018-11-24T22:35:26Z</time>
      </trkpt>
      <trkpt lat="42.8493" lon="0.70369">
        <ele>1339.6</ele>
        <time>2018-11-24T22:35:27Z</time>
      </trkpt>
      <trkpt lat="42.84932" lon="0.70368">
        <ele>1340.3</ele>
        <time>2018-11-24T22:35:28Z</time>
      </trkpt>
      <trkpt lat="42.84935" lon="0.70368">
        <ele>1340.6</ele>
        <time>2018-11-24T22:35:29Z</time>
      </trkpt>
      <trkpt lat="42.84937" lon="0.70367">
        <ele>1341.1</ele>
        <time>2018-11-24T22:35:29Z</time>
      </trkpt>
      <trkpt lat="42.84938" lon="0.70367">
        <ele>1341.7</ele>
        <time>2018-11-24T22:35:30Z</time>
      </trkpt>
      <trkpt lat="42.8494" lon="0.70366">
        <ele>1342</ele>
        <time>2018-11-24T22:35:31Z</time>
      </trkpt>
      <trkpt lat="42.84943" lon="0.70367">
        <ele>1342.2</ele>
        <time>2018-11-24T22:35:32Z</time>
      </trkpt>
      <trkpt lat="42.84944" lon="0.70368">
        <ele>1342.1</ele>
        <time>2018-11-24T22:35:33Z</time>
      </trkpt>
      <trkpt lat="42.84953" lon="0.70373">
        <ele>1341.6</ele>
        <time>2018-11-24T22:35:37Z</time>
      </trkpt>
      <trkpt lat="42.84955" lon="0.70375">
        <ele>1341.3</ele>
        <time>2018-11-24T22:35:37Z</time>
      </trkpt>
      <trkpt lat="42.84957" lon="0.70376">
        <ele>1341.3</ele>
        <time>2018-11-24T22:35:38Z</time>
      </trkpt>
      <trkpt lat="42.84959" lon="0.70377">
        <ele>1341.3</ele>
        <time>2018-11-24T22:35:39Z</time>
      </trkpt>
      <trkpt lat="42.84962" lon="0.70377">
        <ele>1341.8</ele>
        <time>2018-11-24T22:35:40Z</time>
      </trkpt>
      <trkpt lat="42.84964" lon="0.70376">
        <ele>1342.4</ele>
        <time>2018-11-24T22:35:41Z</time>
      </trkpt>
      <trkpt lat="42.84966" lon="0.70376">
        <ele>1342.5</ele>
        <time>2018-11-24T22:35:42Z</time>
      </trkpt>
      <trkpt lat="42.84968" lon="0.70376">
        <ele>1343</ele>
        <time>2018-11-24T22:35:43Z</time>
      </trkpt>
      <trkpt lat="42.8497" lon="0.70376">
        <ele>1343.3</ele>
        <time>2018-11-24T22:35:44Z</time>
      </trkpt>
      <trkpt lat="42.84972" lon="0.70377">
        <ele>1343.4</ele>
        <time>2018-11-24T22:35:44Z</time>
      </trkpt>
      <trkpt lat="42.84974" lon="0.70377">
        <ele>1343.6</ele>
        <time>2018-11-24T22:35:45Z</time>
      </trkpt>
      <trkpt lat="42.84976" lon="0.70377">
        <ele>1343.9</ele>
        <time>2018-11-24T22:35:46Z</time>
      </trkpt>
      <trkpt lat="42.84978" lon="0.70377">
        <ele>1344.2</ele>
        <time>2018-11-24T22:35:47Z</time>
      </trkpt>
      <trkpt lat="42.8498" lon="0.70377">
        <ele>1344.4</ele>
        <time>2018-11-24T22:35:48Z</time>
      </trkpt>
      <trkpt lat="42.84982" lon="0.70377">
        <ele>1344.8</ele>
        <time>2018-11-24T22:35:48Z</time>
      </trkpt>
      <trkpt lat="42.84984" lon="0.70377">
        <ele>1344.9</ele>
        <time>2018-11-24T22:35:49Z</time>
      </trkpt>
      <trkpt lat="42.84986" lon="0.70378">
        <ele>1345.1</ele>
        <time>2018-11-24T22:35:50Z</time>
      </trkpt>
      <trkpt lat="42.8499" lon="0.70378">
        <ele>1345.6</ele>
        <time>2018-11-24T22:35:52Z</time>
      </trkpt>
      <trkpt lat="42.84992" lon="0.70378">
        <ele>1345.8</ele>
        <time>2018-11-24T22:35:52Z</time>
      </trkpt>
      <trkpt lat="42.84994" lon="0.70378">
        <ele>1346.4</ele>
        <time>2018-11-24T22:35:53Z</time>
      </trkpt>
      <trkpt lat="42.84996" lon="0.70378">
        <ele>1346.6</ele>
        <time>2018-11-24T22:35:54Z</time>
      </trkpt>
      <trkpt lat="42.84998" lon="0.70378">
        <ele>1346.8</ele>
        <time>2018-11-24T22:35:55Z</time>
      </trkpt>
      <trkpt lat="42.85001" lon="0.70378">
        <ele>1347.2</ele>
        <time>2018-11-24T22:35:56Z</time>
      </trkpt>
      <trkpt lat="42.85003" lon="0.70378">
        <ele>1347.5</ele>
        <time>2018-11-24T22:35:57Z</time>
      </trkpt>
      <trkpt lat="42.85005" lon="0.70378">
        <ele>1347.7</ele>
        <time>2018-11-24T22:35:58Z</time>
      </trkpt>
      <trkpt lat="42.85007" lon="0.70378">
        <ele>1347.8</ele>
        <time>2018-11-24T22:35:59Z</time>
      </trkpt>
      <trkpt lat="42.8501" lon="0.7038">
        <ele>1347.6</ele>
        <time>2018-11-24T22:36:00Z</time>
      </trkpt>
      <trkpt lat="42.85013" lon="0.70382">
        <ele>1347.4</ele>
        <time>2018-11-24T22:36:01Z</time>
      </trkpt>
      <trkpt lat="42.85016" lon="0.70384">
        <ele>1347.1</ele>
        <time>2018-11-24T22:36:02Z</time>
      </trkpt>
      <trkpt lat="42.85019" lon="0.70385">
        <ele>1346.9</ele>
        <time>2018-11-24T22:36:04Z</time>
      </trkpt>
      <trkpt lat="42.85022" lon="0.70387">
        <ele>1346.7</ele>
        <time>2018-11-24T22:36:05Z</time>
      </trkpt>
      <trkpt lat="42.85024" lon="0.70389">
        <ele>1346.3</ele>
        <time>2018-11-24T22:36:06Z</time>
      </trkpt>
      <trkpt lat="42.85026" lon="0.70389">
        <ele>1346.5</ele>
        <time>2018-11-24T22:36:07Z</time>
      </trkpt>
      <trkpt lat="42.85028" lon="0.70389">
        <ele>1346.6</ele>
        <time>2018-11-24T22:36:08Z</time>
      </trkpt>
      <trkpt lat="42.8503" lon="0.7039">
        <ele>1346.8</ele>
        <time>2018-11-24T22:36:09Z</time>
      </trkpt>
      <trkpt lat="42.85033" lon="0.70388">
        <ele>1347.6</ele>
        <time>2018-11-24T22:36:10Z</time>
      </trkpt>
      <trkpt lat="42.85035" lon="0.70387">
        <ele>1348.2</ele>
        <time>2018-11-24T22:36:11Z</time>
      </trkpt>
      <trkpt lat="42.85038" lon="0.70387">
        <ele>1348.6</ele>
        <time>2018-11-24T22:36:12Z</time>
      </trkpt>
      <trkpt lat="42.8504" lon="0.70386">
        <ele>1349.2</ele>
        <time>2018-11-24T22:36:13Z</time>
      </trkpt>
      <trkpt lat="42.85042" lon="0.70384">
        <ele>1349.8</ele>
        <time>2018-11-24T22:36:14Z</time>
      </trkpt>
      <trkpt lat="42.85045" lon="0.70383">
        <ele>1350.4</ele>
        <time>2018-11-24T22:36:15Z</time>
      </trkpt>
      <trkpt lat="42.85047" lon="0.70383">
        <ele>1350.9</ele>
        <time>2018-11-24T22:36:15Z</time>
      </trkpt>
      <trkpt lat="42.8505" lon="0.7038">
        <ele>1351.8</ele>
        <time>2018-11-24T22:36:17Z</time>
      </trkpt>
      <trkpt lat="42.85052" lon="0.70379">
        <ele>1352.5</ele>
        <time>2018-11-24T22:36:18Z</time>
      </trkpt>
      <trkpt lat="42.85054" lon="0.70378">
        <ele>1353.1</ele>
        <time>2018-11-24T22:36:19Z</time>
      </trkpt>
      <trkpt lat="42.85056" lon="0.70376">
        <ele>1353.7</ele>
        <time>2018-11-24T22:36:20Z</time>
      </trkpt>
      <trkpt lat="42.85058" lon="0.70374">
        <ele>1354.3</ele>
        <time>2018-11-24T22:36:20Z</time>
      </trkpt>
      <trkpt lat="42.8506" lon="0.70372">
        <ele>1355.3</ele>
        <time>2018-11-24T22:36:22Z</time>
      </trkpt>
      <trkpt lat="42.85062" lon="0.70371">
        <ele>1355.9</ele>
        <time>2018-11-24T22:36:22Z</time>
      </trkpt>
      <trkpt lat="42.85064" lon="0.70368">
        <ele>1356.7</ele>
        <time>2018-11-24T22:36:24Z</time>
      </trkpt>
      <trkpt lat="42.85066" lon="0.70366">
        <ele>1357.7</ele>
        <time>2018-11-24T22:36:25Z</time>
      </trkpt>
      <trkpt lat="42.85068" lon="0.70363">
        <ele>1358.4</ele>
        <time>2018-11-24T22:36:26Z</time>
      </trkpt>
      <trkpt lat="42.8507" lon="0.70361">
        <ele>1359.2</ele>
        <time>2018-11-24T22:36:27Z</time>
      </trkpt>
      <trkpt lat="42.85071" lon="0.70358">
        <ele>1360.1</ele>
        <time>2018-11-24T22:36:28Z</time>
      </trkpt>
      <trkpt lat="42.85073" lon="0.70357">
        <ele>1360.7</ele>
        <time>2018-11-24T22:36:29Z</time>
      </trkpt>
      <trkpt lat="42.85075" lon="0.70354">
        <ele>1361.6</ele>
        <time>2018-11-24T22:36:29Z</time>
      </trkpt>
      <trkpt lat="42.85077" lon="0.70352">
        <ele>1362.4</ele>
        <time>2018-11-24T22:36:31Z</time>
      </trkpt>
      <trkpt lat="42.85079" lon="0.7035">
        <ele>1363.2</ele>
        <time>2018-11-24T22:36:32Z</time>
      </trkpt>
      <trkpt lat="42.85081" lon="0.70348">
        <ele>1363.9</ele>
        <time>2018-11-24T22:36:33Z</time>
      </trkpt>
      <trkpt lat="42.85082" lon="0.70346">
        <ele>1364.7</ele>
        <time>2018-11-24T22:36:33Z</time>
      </trkpt>
      <trkpt lat="42.85084" lon="0.70344">
        <ele>1365.4</ele>
        <time>2018-11-24T22:36:34Z</time>
      </trkpt>
      <trkpt lat="42.85086" lon="0.70343">
        <ele>1366</ele>
        <time>2018-11-24T22:36:35Z</time>
      </trkpt>
      <trkpt lat="42.85088" lon="0.70341">
        <ele>1366.4</ele>
        <time>2018-11-24T22:36:36Z</time>
      </trkpt>
      <trkpt lat="42.85089" lon="0.70339">
        <ele>1367.1</ele>
        <time>2018-11-24T22:36:37Z</time>
      </trkpt>
      <trkpt lat="42.85091" lon="0.70338">
        <ele>1367.8</ele>
        <time>2018-11-24T22:36:38Z</time>
      </trkpt>
      <trkpt lat="42.85093" lon="0.70336">
        <ele>1368.4</ele>
        <time>2018-11-24T22:36:39Z</time>
      </trkpt>
      <trkpt lat="42.85095" lon="0.70335">
        <ele>1368.9</ele>
        <time>2018-11-24T22:36:40Z</time>
      </trkpt>
      <trkpt lat="42.85097" lon="0.70333">
        <ele>1370.6</ele>
        <time>2018-11-24T22:36:40Z</time>
      </trkpt>
      <trkpt lat="42.85098" lon="0.70331">
        <ele>1370.2</ele>
        <time>2018-11-24T22:36:41Z</time>
      </trkpt>
      <trkpt lat="42.851" lon="0.7033">
        <ele>1370.8</ele>
        <time>2018-11-24T22:36:42Z</time>
      </trkpt>
      <trkpt lat="42.85102" lon="0.70329">
        <ele>1371.5</ele>
        <time>2018-11-24T22:36:43Z</time>
      </trkpt>
      <trkpt lat="42.85104" lon="0.70328">
        <ele>1371.8</ele>
        <time>2018-11-24T22:36:44Z</time>
      </trkpt>
      <trkpt lat="42.85106" lon="0.70327">
        <ele>1372.6</ele>
        <time>2018-11-24T22:36:45Z</time>
      </trkpt>
      <trkpt lat="42.85108" lon="0.70325">
        <ele>1373.3</ele>
        <time>2018-11-24T22:36:46Z</time>
      </trkpt>
      <trkpt lat="42.8511" lon="0.70325">
        <ele>1374</ele>
        <time>2018-11-24T22:36:47Z</time>
      </trkpt>
      <trkpt lat="42.85112" lon="0.70324">
        <ele>1374.4</ele>
        <time>2018-11-24T22:36:47Z</time>
      </trkpt>
      <trkpt lat="42.85114" lon="0.70324">
        <ele>1374.8</ele>
        <time>2018-11-24T22:36:48Z</time>
      </trkpt>
      <trkpt lat="42.85116" lon="0.70322">
        <ele>1380.1</ele>
        <time>2018-11-24T22:36:49Z</time>
      </trkpt>
      <trkpt lat="42.85117" lon="0.70319">
        <ele>1380.1</ele>
        <time>2018-11-24T22:36:50Z</time>
      </trkpt>
      <trkpt lat="42.85119" lon="0.70317">
        <ele>1380.1</ele>
        <time>2018-11-24T22:36:51Z</time>
      </trkpt>
      <trkpt lat="42.85119" lon="0.70315">
        <ele>1380</ele>
        <time>2018-11-24T22:36:52Z</time>
      </trkpt>
      <trkpt lat="42.85121" lon="0.70314">
        <ele>1380</ele>
        <time>2018-11-24T22:36:52Z</time>
      </trkpt>
      <trkpt lat="42.85123" lon="0.70313">
        <ele>1380</ele>
        <time>2018-11-24T22:36:53Z</time>
      </trkpt>
      <trkpt lat="42.85125" lon="0.70312">
        <ele>1380</ele>
        <time>2018-11-24T22:36:54Z</time>
      </trkpt>
      <trkpt lat="42.85125" lon="0.70309">
        <ele>1380.1</ele>
        <time>2018-11-24T22:36:55Z</time>
      </trkpt>
      <trkpt lat="42.85124" lon="0.70306">
        <ele>1380.1</ele>
        <time>2018-11-24T22:36:56Z</time>
      </trkpt>
      <trkpt lat="42.85124" lon="0.70303">
        <ele>1380.1</ele>
        <time>2018-11-24T22:36:57Z</time>
      </trkpt>
      <trkpt lat="42.85123" lon="0.70298">
        <ele>1380</ele>
        <time>2018-11-24T22:36:58Z</time>
      </trkpt>
      <trkpt lat="42.85122" lon="0.70294">
        <ele>1384.6</ele>
        <time>2018-11-24T22:37:00Z</time>
      </trkpt>
      <trkpt lat="42.8512" lon="0.70292">
        <ele>1384.8</ele>
        <time>2018-11-24T22:37:01Z</time>
      </trkpt>
      <trkpt lat="42.8512" lon="0.70289">
        <ele>1385.5</ele>
        <time>2018-11-24T22:37:01Z</time>
      </trkpt>
      <trkpt lat="42.85119" lon="0.70287">
        <ele>1386.2</ele>
        <time>2018-11-24T22:37:02Z</time>
      </trkpt>
      <trkpt lat="42.85118" lon="0.70285">
        <ele>1386.9</ele>
        <time>2018-11-24T22:37:03Z</time>
      </trkpt>
      <trkpt lat="42.85116" lon="0.70283">
        <ele>1387.1</ele>
        <time>2018-11-24T22:37:04Z</time>
      </trkpt>
      <trkpt lat="42.85115" lon="0.70281">
        <ele>1387.6</ele>
        <time>2018-11-24T22:37:05Z</time>
      </trkpt>
      <trkpt lat="42.85112" lon="0.70279">
        <ele>1388</ele>
        <time>2018-11-24T22:37:06Z</time>
      </trkpt>
      <trkpt lat="42.85111" lon="0.70277">
        <ele>1388.4</ele>
        <time>2018-11-24T22:37:06Z</time>
      </trkpt>
      <trkpt lat="42.85109" lon="0.70276">
        <ele>1388.6</ele>
        <time>2018-11-24T22:37:07Z</time>
      </trkpt>
      <trkpt lat="42.85107" lon="0.70276">
        <ele>1388.5</ele>
        <time>2018-11-24T22:37:08Z</time>
      </trkpt>
      <trkpt lat="42.85104" lon="0.70276">
        <ele>1388.2</ele>
        <time>2018-11-24T22:37:09Z</time>
      </trkpt>
      <trkpt lat="42.85103" lon="0.70276">
        <ele>1388.1</ele>
        <time>2018-11-24T22:37:10Z</time>
      </trkpt>
      <trkpt lat="42.851" lon="0.70276">
        <ele>1387.8</ele>
        <time>2018-11-24T22:37:11Z</time>
      </trkpt>
      <trkpt lat="42.85098" lon="0.70276">
        <ele>1387.5</ele>
        <time>2018-11-24T22:37:12Z</time>
      </trkpt>
      <trkpt lat="42.85096" lon="0.70277">
        <ele>1387.2</ele>
        <time>2018-11-24T22:37:13Z</time>
      </trkpt>
      <trkpt lat="42.85094" lon="0.70277">
        <ele>1387.1</ele>
        <time>2018-11-24T22:37:13Z</time>
      </trkpt>
      <trkpt lat="42.85092" lon="0.70276">
        <ele>1387</ele>
        <time>2018-11-24T22:37:14Z</time>
      </trkpt>
      <trkpt lat="42.8509" lon="0.70277">
        <ele>1386.4</ele>
        <time>2018-11-24T22:37:15Z</time>
      </trkpt>
      <trkpt lat="42.85088" lon="0.70278">
        <ele>1386</ele>
        <time>2018-11-24T22:37:16Z</time>
      </trkpt>
      <trkpt lat="42.85085" lon="0.70279">
        <ele>1385.6</ele>
        <time>2018-11-24T22:37:17Z</time>
      </trkpt>
      <trkpt lat="42.85083" lon="0.70279">
        <ele>1385.2</ele>
        <time>2018-11-24T22:37:18Z</time>
      </trkpt>
      <trkpt lat="42.8508" lon="0.7028">
        <ele>1384.7</ele>
        <time>2018-11-24T22:37:19Z</time>
      </trkpt>
      <trkpt lat="42.85078" lon="0.70281">
        <ele>1384.5</ele>
        <time>2018-11-24T22:37:20Z</time>
      </trkpt>
      <trkpt lat="42.85075" lon="0.70282">
        <ele>1383.9</ele>
        <time>2018-11-24T22:37:21Z</time>
      </trkpt>
      <trkpt lat="42.85072" lon="0.70282">
        <ele>1383.7</ele>
        <time>2018-11-24T22:37:22Z</time>
      </trkpt>
      <trkpt lat="42.8507" lon="0.70283">
        <ele>1383.3</ele>
        <time>2018-11-24T22:37:23Z</time>
      </trkpt>
      <trkpt lat="42.85067" lon="0.70282">
        <ele>1383.4</ele>
        <time>2018-11-24T22:37:24Z</time>
      </trkpt>
      <trkpt lat="42.85065" lon="0.70284">
        <ele>1382.6</ele>
        <time>2018-11-24T22:37:25Z</time>
      </trkpt>
      <trkpt lat="42.85063" lon="0.70284">
        <ele>1382.6</ele>
        <time>2018-11-24T22:37:26Z</time>
      </trkpt>
      <trkpt lat="42.85061" lon="0.70284">
        <ele>1382.5</ele>
        <time>2018-11-24T22:37:27Z</time>
      </trkpt>
      <trkpt lat="42.85058" lon="0.70286">
        <ele>1381.9</ele>
        <time>2018-11-24T22:37:28Z</time>
      </trkpt>
      <trkpt lat="42.85056" lon="0.70288">
        <ele>1381.3</ele>
        <time>2018-11-24T22:37:29Z</time>
      </trkpt>
      <trkpt lat="42.85054" lon="0.70289">
        <ele>1380.7</ele>
        <time>2018-11-24T22:37:30Z</time>
      </trkpt>
      <trkpt lat="42.85052" lon="0.70289">
        <ele>1380.6</ele>
        <time>2018-11-24T22:37:31Z</time>
      </trkpt>
      <trkpt lat="42.8505" lon="0.7029">
        <ele>1380.3</ele>
        <time>2018-11-24T22:37:32Z</time>
      </trkpt>
      <trkpt lat="42.85047" lon="0.70291">
        <ele>1379.7</ele>
        <time>2018-11-24T22:37:33Z</time>
      </trkpt>
      <trkpt lat="42.85045" lon="0.70292">
        <ele>1379.3</ele>
        <time>2018-11-24T22:37:34Z</time>
      </trkpt>
      <trkpt lat="42.85042" lon="0.70293">
        <ele>1378.9</ele>
        <time>2018-11-24T22:37:35Z</time>
      </trkpt>
      <trkpt lat="42.85039" lon="0.70293">
        <ele>1378.8</ele>
        <time>2018-11-24T22:37:36Z</time>
      </trkpt>
      <trkpt lat="42.85036" lon="0.70292">
        <ele>1379</ele>
        <time>2018-11-24T22:37:37Z</time>
      </trkpt>
      <trkpt lat="42.85034" lon="0.70292">
        <ele>1378.7</ele>
        <time>2018-11-24T22:37:38Z</time>
      </trkpt>
      <trkpt lat="42.85031" lon="0.70292">
        <ele>1378.7</ele>
        <time>2018-11-24T22:37:40Z</time>
      </trkpt>
      <trkpt lat="42.85029" lon="0.70291">
        <ele>1378.8</ele>
        <time>2018-11-24T22:37:40Z</time>
      </trkpt>
      <trkpt lat="42.85027" lon="0.70291">
        <ele>1379</ele>
        <time>2018-11-24T22:37:41Z</time>
      </trkpt>
      <trkpt lat="42.85025" lon="0.7029">
        <ele>1379.1</ele>
        <time>2018-11-24T22:37:42Z</time>
      </trkpt>
      <trkpt lat="42.85022" lon="0.70289">
        <ele>1379.4</ele>
        <time>2018-11-24T22:37:43Z</time>
      </trkpt>
      <trkpt lat="42.8502" lon="0.70288">
        <ele>1379.6</ele>
        <time>2018-11-24T22:37:44Z</time>
      </trkpt>
      <trkpt lat="42.85018" lon="0.70287">
        <ele>1379.8</ele>
        <time>2018-11-24T22:37:45Z</time>
      </trkpt>
      <trkpt lat="42.85015" lon="0.70285">
        <ele>1380.3</ele>
        <time>2018-11-24T22:37:46Z</time>
      </trkpt>
      <trkpt lat="42.85013" lon="0.70283">
        <ele>1380.6</ele>
        <time>2018-11-24T22:37:47Z</time>
      </trkpt>
      <trkpt lat="42.85009" lon="0.70281">
        <ele>1381.1</ele>
        <time>2018-11-24T22:37:49Z</time>
      </trkpt>
      <trkpt lat="42.85008" lon="0.70279">
        <ele>1381.4</ele>
        <time>2018-11-24T22:37:50Z</time>
      </trkpt>
      <trkpt lat="42.85006" lon="0.70278">
        <ele>1381.6</ele>
        <time>2018-11-24T22:37:50Z</time>
      </trkpt>
      <trkpt lat="42.85004" lon="0.70278">
        <ele>1381.6</ele>
        <time>2018-11-24T22:37:51Z</time>
      </trkpt>
      <trkpt lat="42.85002" lon="0.70277">
        <ele>1381.8</ele>
        <time>2018-11-24T22:37:52Z</time>
      </trkpt>
      <trkpt lat="42.84999" lon="0.70276">
        <ele>1381.5</ele>
        <time>2018-11-24T22:37:53Z</time>
      </trkpt>
      <trkpt lat="42.84997" lon="0.70276">
        <ele>1381.4</ele>
        <time>2018-11-24T22:37:54Z</time>
      </trkpt>
      <trkpt lat="42.84994" lon="0.70276">
        <ele>1381.2</ele>
        <time>2018-11-24T22:37:55Z</time>
      </trkpt>
      <trkpt lat="42.84991" lon="0.70276">
        <ele>1380.5</ele>
        <time>2018-11-24T22:37:56Z</time>
      </trkpt>
      <trkpt lat="42.84987" lon="0.70275">
        <ele>1380.5</ele>
        <time>2018-11-24T22:37:58Z</time>
      </trkpt>
      <trkpt lat="42.84986" lon="0.70275">
        <ele>1380.4</ele>
        <time>2018-11-24T22:37:59Z</time>
      </trkpt>
      <trkpt lat="42.84983" lon="0.70273">
        <ele>1380.6</ele>
        <time>2018-11-24T22:38:00Z</time>
      </trkpt>
      <trkpt lat="42.84981" lon="0.70273">
        <ele>1380.3</ele>
        <time>2018-11-24T22:38:01Z</time>
      </trkpt>
      <trkpt lat="42.84979" lon="0.70272">
        <ele>1380.4</ele>
        <time>2018-11-24T22:38:01Z</time>
      </trkpt>
      <trkpt lat="42.84977" lon="0.7027">
        <ele>1380.8</ele>
        <time>2018-11-24T22:38:02Z</time>
      </trkpt>
      <trkpt lat="42.84976" lon="0.70266">
        <ele>1381.7</ele>
        <time>2018-11-24T22:38:04Z</time>
      </trkpt>
      <trkpt lat="42.84975" lon="0.70264">
        <ele>1382.3</ele>
        <time>2018-11-24T22:38:04Z</time>
      </trkpt>
      <trkpt lat="42.84973" lon="0.70262">
        <ele>1382.7</ele>
        <time>2018-11-24T22:38:05Z</time>
      </trkpt>
      <trkpt lat="42.84972" lon="0.70259">
        <ele>1383.6</ele>
        <time>2018-11-24T22:38:06Z</time>
      </trkpt>
      <trkpt lat="42.8497" lon="0.70257">
        <ele>1383.9</ele>
        <time>2018-11-24T22:38:07Z</time>
      </trkpt>
      <trkpt lat="42.8497" lon="0.70254">
        <ele>1384.7</ele>
        <time>2018-11-24T22:38:08Z</time>
      </trkpt>
      <trkpt lat="42.8497" lon="0.70251">
        <ele>1385.4</ele>
        <time>2018-11-24T22:38:09Z</time>
      </trkpt>
      <trkpt lat="42.8497" lon="0.70248">
        <ele>1386.4</ele>
        <time>2018-11-24T22:38:10Z</time>
      </trkpt>
      <trkpt lat="42.8497" lon="0.70245">
        <ele>1387.4</ele>
        <time>2018-11-24T22:38:11Z</time>
      </trkpt>
      <trkpt lat="42.84969" lon="0.70242">
        <ele>1388.1</ele>
        <time>2018-11-24T22:38:12Z</time>
      </trkpt>
      <trkpt lat="42.84969" lon="0.70238">
        <ele>1389.3</ele>
        <time>2018-11-24T22:38:13Z</time>
      </trkpt>
      <trkpt lat="42.84969" lon="0.70234">
        <ele>1390.3</ele>
        <time>2018-11-24T22:38:14Z</time>
      </trkpt>
      <trkpt lat="42.8497" lon="0.7023">
        <ele>1391.5</ele>
        <time>2018-11-24T22:38:15Z</time>
      </trkpt>
      <trkpt lat="42.84969" lon="0.70227">
        <ele>1392.6</ele>
        <time>2018-11-24T22:38:16Z</time>
      </trkpt>
      <trkpt lat="42.84968" lon="0.70223">
        <ele>1393.4</ele>
        <time>2018-11-24T22:38:17Z</time>
      </trkpt>
      <trkpt lat="42.84967" lon="0.7022">
        <ele>1394.1</ele>
        <time>2018-11-24T22:38:18Z</time>
      </trkpt>
      <trkpt lat="42.84967" lon="0.70216">
        <ele>1395.2</ele>
        <time>2018-11-24T22:38:19Z</time>
      </trkpt>
      <trkpt lat="42.84967" lon="0.70214">
        <ele>1395.9</ele>
        <time>2018-11-24T22:38:20Z</time>
      </trkpt>
      <trkpt lat="42.84966" lon="0.7021">
        <ele>1396.7</ele>
        <time>2018-11-24T22:38:21Z</time>
      </trkpt>
      <trkpt lat="42.84965" lon="0.70207">
        <ele>1397.5</ele>
        <time>2018-11-24T22:38:22Z</time>
      </trkpt>
      <trkpt lat="42.84965" lon="0.70203">
        <ele>1398.5</ele>
        <time>2018-11-24T22:38:23Z</time>
      </trkpt>
      <trkpt lat="42.84965" lon="0.702">
        <ele>1399.4</ele>
        <time>2018-11-24T22:38:24Z</time>
      </trkpt>
      <trkpt lat="42.84965" lon="0.70198">
        <ele>1400</ele>
        <time>2018-11-24T22:38:25Z</time>
      </trkpt>
      <trkpt lat="42.84965" lon="0.7019">
        <ele>1402</ele>
        <time>2018-11-24T22:38:27Z</time>
      </trkpt>
      <trkpt lat="42.84965" lon="0.70183">
        <ele>1404</ele>
        <time>2018-11-24T22:38:29Z</time>
      </trkpt>
      <trkpt lat="42.84965" lon="0.70179">
        <ele>1405</ele>
        <time>2018-11-24T22:38:30Z</time>
      </trkpt>
      <trkpt lat="42.84965" lon="0.70176">
        <ele>1406</ele>
        <time>2018-11-24T22:38:31Z</time>
      </trkpt>
      <trkpt lat="42.84966" lon="0.70172">
        <ele>1406.9</ele>
        <time>2018-11-24T22:38:32Z</time>
      </trkpt>
      <trkpt lat="42.84966" lon="0.7017">
        <ele>1407.6</ele>
        <time>2018-11-24T22:38:33Z</time>
      </trkpt>
      <trkpt lat="42.84966" lon="0.70166">
        <ele>1408.6</ele>
        <time>2018-11-24T22:38:34Z</time>
      </trkpt>
      <trkpt lat="42.84965" lon="0.70163">
        <ele>1409.2</ele>
        <time>2018-11-24T22:38:35Z</time>
      </trkpt>
      <trkpt lat="42.84965" lon="0.7016">
        <ele>1409.8</ele>
        <time>2018-11-24T22:38:36Z</time>
      </trkpt>
      <trkpt lat="42.84966" lon="0.70158">
        <ele>1410.6</ele>
        <time>2018-11-24T22:38:37Z</time>
      </trkpt>
      <trkpt lat="42.84965" lon="0.70155">
        <ele>1411.3</ele>
        <time>2018-11-24T22:38:38Z</time>
      </trkpt>
      <trkpt lat="42.84965" lon="0.70152">
        <ele>1412</ele>
        <time>2018-11-24T22:38:39Z</time>
      </trkpt>
      <trkpt lat="42.84966" lon="0.7015">
        <ele>1412.7</ele>
        <time>2018-11-24T22:38:39Z</time>
      </trkpt>
      <trkpt lat="42.84968" lon="0.70137">
        <ele>1416.3</ele>
        <time>2018-11-24T22:38:43Z</time>
      </trkpt>
      <trkpt lat="42.84967" lon="0.70132">
        <ele>1417.3</ele>
        <time>2018-11-24T22:38:45Z</time>
      </trkpt>
      <trkpt lat="42.84967" lon="0.70128">
        <ele>1418.3</ele>
        <time>2018-11-24T22:38:46Z</time>
      </trkpt>
      <trkpt lat="42.84967" lon="0.70124">
        <ele>1419.3</ele>
        <time>2018-11-24T22:38:47Z</time>
      </trkpt>
      <trkpt lat="42.84967" lon="0.7012">
        <ele>1419.8</ele>
        <time>2018-11-24T22:38:48Z</time>
      </trkpt>
      <trkpt lat="42.84967" lon="0.70117">
        <ele>1420.9</ele>
        <time>2018-11-24T22:38:49Z</time>
      </trkpt>
      <trkpt lat="42.84967" lon="0.70115">
        <ele>1421.5</ele>
        <time>2018-11-24T22:38:50Z</time>
      </trkpt>
      <trkpt lat="42.84967" lon="0.7011">
        <ele>1422.4</ele>
        <time>2018-11-24T22:38:51Z</time>
      </trkpt>
      <trkpt lat="42.84967" lon="0.70108">
        <ele>1423.1</ele>
        <time>2018-11-24T22:38:52Z</time>
      </trkpt>
      <trkpt lat="42.84968" lon="0.70104">
        <ele>1423.9</ele>
        <time>2018-11-24T22:38:53Z</time>
      </trkpt>
      <trkpt lat="42.84968" lon="0.701">
        <ele>1424.9</ele>
        <time>2018-11-24T22:38:54Z</time>
      </trkpt>
      <trkpt lat="42.84968" lon="0.70097">
        <ele>1425.6</ele>
        <time>2018-11-24T22:38:55Z</time>
      </trkpt>
      <trkpt lat="42.84968" lon="0.70084">
        <ele>1428.4</ele>
        <time>2018-11-24T22:38:59Z</time>
      </trkpt>
      <trkpt lat="42.84967" lon="0.70071">
        <ele>1431</ele>
        <time>2018-11-24T22:39:03Z</time>
      </trkpt>
      <trkpt lat="42.84961" lon="0.70061">
        <ele>1432</ele>
        <time>2018-11-24T22:39:06Z</time>
      </trkpt>
      <trkpt lat="42.84962" lon="0.70048">
        <ele>1434.4</ele>
        <time>2018-11-24T22:39:10Z</time>
      </trkpt>
      <trkpt lat="42.84964" lon="0.70036">
        <ele>1436.6</ele>
        <time>2018-11-24T22:39:14Z</time>
      </trkpt>
      <trkpt lat="42.84972" lon="0.7003">
        <ele>1438.9</ele>
        <time>2018-11-24T22:39:18Z</time>
      </trkpt>
      <trkpt lat="42.84967" lon="0.70019">
        <ele>1440.1</ele>
        <time>2018-11-24T22:39:21Z</time>
      </trkpt>
      <trkpt lat="42.84966" lon="0.70016">
        <ele>1440.3</ele>
        <time>2018-11-24T22:39:22Z</time>
      </trkpt>
      <trkpt lat="42.84966" lon="0.70013">
        <ele>1440.8</ele>
        <time>2018-11-24T22:39:23Z</time>
      </trkpt>
      <trkpt lat="42.84966" lon="0.7001">
        <ele>1441.4</ele>
        <time>2018-11-24T22:39:24Z</time>
      </trkpt>
      <trkpt lat="42.84967" lon="0.70007">
        <ele>1441.8</ele>
        <time>2018-11-24T22:39:25Z</time>
      </trkpt>
      <trkpt lat="42.84969" lon="0.70006">
        <ele>1442.2</ele>
        <time>2018-11-24T22:39:26Z</time>
      </trkpt>
      <trkpt lat="42.8497" lon="0.70003">
        <ele>1442.8</ele>
        <time>2018-11-24T22:39:27Z</time>
      </trkpt>
      <trkpt lat="42.84971" lon="0.70001">
        <ele>1443.2</ele>
        <time>2018-11-24T22:39:27Z</time>
      </trkpt>
      <trkpt lat="42.84972" lon="0.69998">
        <ele>1443.9</ele>
        <time>2018-11-24T22:39:28Z</time>
      </trkpt>
      <trkpt lat="42.84972" lon="0.69995">
        <ele>1444.2</ele>
        <time>2018-11-24T22:39:29Z</time>
      </trkpt>
      <trkpt lat="42.8497" lon="0.69994">
        <ele>1444.2</ele>
        <time>2018-11-24T22:39:30Z</time>
      </trkpt>
      <trkpt lat="42.84968" lon="0.69991">
        <ele>1444.6</ele>
        <time>2018-11-24T22:39:31Z</time>
      </trkpt>
      <trkpt lat="42.84968" lon="0.69985">
        <ele>1445.5</ele>
        <time>2018-11-24T22:39:33Z</time>
      </trkpt>
      <trkpt lat="42.8497" lon="0.69984">
        <ele>1446</ele>
        <time>2018-11-24T22:39:34Z</time>
      </trkpt>
      <trkpt lat="42.84971" lon="0.69986">
        <ele>1445.6</ele>
        <time>2018-11-24T22:39:35Z</time>
      </trkpt>
      <trkpt lat="42.84969" lon="0.69986">
        <ele>1445.3</ele>
        <time>2018-11-24T22:39:36Z</time>
      </trkpt>
      <trkpt lat="42.84967" lon="0.69985">
        <ele>1445.4</ele>
        <time>2018-11-24T22:39:36Z</time>
      </trkpt>
      <trkpt lat="42.84965" lon="0.69984">
        <ele>1445.3</ele>
        <time>2018-11-24T22:39:37Z</time>
      </trkpt>
      <trkpt lat="42.84964" lon="0.69981">
        <ele>1445.7</ele>
        <time>2018-11-24T22:39:38Z</time>
      </trkpt>
      <trkpt lat="42.84964" lon="0.69978">
        <ele>1446.2</ele>
        <time>2018-11-24T22:39:39Z</time>
      </trkpt>
      <trkpt lat="42.84957" lon="0.69975">
        <ele>1446.2</ele>
        <time>2018-11-24T22:39:42Z</time>
      </trkpt>
      <trkpt lat="42.84955" lon="0.69976">
        <ele>1445.9</ele>
        <time>2018-11-24T22:39:43Z</time>
      </trkpt>
      <trkpt lat="42.84946" lon="0.69978">
        <ele>1444.9</ele>
        <time>2018-11-24T22:39:47Z</time>
      </trkpt>
      <trkpt lat="42.84944" lon="0.69979">
        <ele>1444.7</ele>
        <time>2018-11-24T22:39:48Z</time>
      </trkpt>
      <trkpt lat="42.84939" lon="0.69984">
        <ele>1443.5</ele>
        <time>2018-11-24T22:39:50Z</time>
      </trkpt>
      <trkpt lat="42.84931" lon="0.6999">
        <ele>1441.9</ele>
        <time>2018-11-24T22:39:54Z</time>
      </trkpt>
      <trkpt lat="42.84927" lon="0.69991">
        <ele>1441.4</ele>
        <time>2018-11-24T22:39:55Z</time>
      </trkpt>
      <trkpt lat="42.84926" lon="0.69992">
        <ele>1441.1</ele>
        <time>2018-11-24T22:39:56Z</time>
      </trkpt>
      <trkpt lat="42.84923" lon="0.69997">
        <ele>1439.9</ele>
        <time>2018-11-24T22:39:58Z</time>
      </trkpt>
      <trkpt lat="42.84917" lon="0.70002">
        <ele>1438.6</ele>
        <time>2018-11-24T22:40:00Z</time>
      </trkpt>
      <trkpt lat="42.84915" lon="0.70003">
        <ele>1438.2</ele>
        <time>2018-11-24T22:40:01Z</time>
      </trkpt>
      <trkpt lat="42.84913" lon="0.70003">
        <ele>1438</ele>
        <time>2018-11-24T22:40:02Z</time>
      </trkpt>
      <trkpt lat="42.84911" lon="0.70004">
        <ele>1437.7</ele>
        <time>2018-11-24T22:40:03Z</time>
      </trkpt>
      <trkpt lat="42.84909" lon="0.70005">
        <ele>1437.6</ele>
        <time>2018-11-24T22:40:04Z</time>
      </trkpt>
      <trkpt lat="42.84907" lon="0.70004">
        <ele>1437.5</ele>
        <time>2018-11-24T22:40:05Z</time>
      </trkpt>
      <trkpt lat="42.84905" lon="0.70005">
        <ele>1437.3</ele>
        <time>2018-11-24T22:40:05Z</time>
      </trkpt>
      <trkpt lat="42.84903" lon="0.70005">
        <ele>1437.2</ele>
        <time>2018-11-24T22:40:06Z</time>
      </trkpt>
      <trkpt lat="42.84901" lon="0.70003">
        <ele>1437.2</ele>
        <time>2018-11-24T22:40:07Z</time>
      </trkpt>
      <trkpt lat="42.849" lon="0.70001">
        <ele>1437.7</ele>
        <time>2018-11-24T22:40:08Z</time>
      </trkpt>
      <trkpt lat="42.84899" lon="0.69999">
        <ele>1438</ele>
        <time>2018-11-24T22:40:09Z</time>
      </trkpt>
      <trkpt lat="42.84897" lon="0.69998">
        <ele>1438.1</ele>
        <time>2018-11-24T22:40:10Z</time>
      </trkpt>
      <trkpt lat="42.84897" lon="0.69996">
        <ele>1438.5</ele>
        <time>2018-11-24T22:40:10Z</time>
      </trkpt>
      <trkpt lat="42.84898" lon="0.69992">
        <ele>1439.2</ele>
        <time>2018-11-24T22:40:11Z</time>
      </trkpt>
      <trkpt lat="42.84899" lon="0.69988">
        <ele>1440</ele>
        <time>2018-11-24T22:40:13Z</time>
      </trkpt>
      <trkpt lat="42.84897" lon="0.69987">
        <ele>1440.4</ele>
        <time>2018-11-24T22:40:14Z</time>
      </trkpt>
      <trkpt lat="42.84895" lon="0.69985">
        <ele>1440.6</ele>
        <time>2018-11-24T22:40:14Z</time>
      </trkpt>
      <trkpt lat="42.84894" lon="0.69983">
        <ele>1440.9</ele>
        <time>2018-11-24T22:40:15Z</time>
      </trkpt>
      <trkpt lat="42.84893" lon="0.6998">
        <ele>1441.5</ele>
        <time>2018-11-24T22:40:16Z</time>
      </trkpt>
      <trkpt lat="42.84893" lon="0.69978">
        <ele>1441.9</ele>
        <time>2018-11-24T22:40:17Z</time>
      </trkpt>
      <trkpt lat="42.84891" lon="0.69976">
        <ele>1442.2</ele>
        <time>2018-11-24T22:40:18Z</time>
      </trkpt>
      <trkpt lat="42.8489" lon="0.69973">
        <ele>1442.8</ele>
        <time>2018-11-24T22:40:19Z</time>
      </trkpt>
      <trkpt lat="42.8489" lon="0.6997">
        <ele>1443.4</ele>
        <time>2018-11-24T22:40:20Z</time>
      </trkpt>
      <trkpt lat="42.8489" lon="0.69967">
        <ele>1444.1</ele>
        <time>2018-11-24T22:40:20Z</time>
      </trkpt>
      <trkpt lat="42.84892" lon="0.69965">
        <ele>1444.4</ele>
        <time>2018-11-24T22:40:21Z</time>
      </trkpt>
      <trkpt lat="42.84893" lon="0.69962">
        <ele>1445.1</ele>
        <time>2018-11-24T22:40:22Z</time>
      </trkpt>
      <trkpt lat="42.84894" lon="0.69958">
        <ele>1445.9</ele>
        <time>2018-11-24T22:40:23Z</time>
      </trkpt>
      <trkpt lat="42.84893" lon="0.69955">
        <ele>1446.7</ele>
        <time>2018-11-24T22:40:24Z</time>
      </trkpt>
      <trkpt lat="42.84892" lon="0.69953">
        <ele>1446.9</ele>
        <time>2018-11-24T22:40:25Z</time>
      </trkpt>
      <trkpt lat="42.84892" lon="0.6995">
        <ele>1447.6</ele>
        <time>2018-11-24T22:40:26Z</time>
      </trkpt>
      <trkpt lat="42.84892" lon="0.69947">
        <ele>1448.3</ele>
        <time>2018-11-24T22:40:27Z</time>
      </trkpt>
      <trkpt lat="42.84893" lon="0.69944">
        <ele>1448.9</ele>
        <time>2018-11-24T22:40:28Z</time>
      </trkpt>
      <trkpt lat="42.84894" lon="0.69942">
        <ele>1449.3</ele>
        <time>2018-11-24T22:40:29Z</time>
      </trkpt>
      <trkpt lat="42.84896" lon="0.69939">
        <ele>1450.1</ele>
        <time>2018-11-24T22:40:30Z</time>
      </trkpt>
      <trkpt lat="42.84895" lon="0.69936">
        <ele>1450.7</ele>
        <time>2018-11-24T22:40:31Z</time>
      </trkpt>
      <trkpt lat="42.84895" lon="0.69934">
        <ele>1451.2</ele>
        <time>2018-11-24T22:40:31Z</time>
      </trkpt>
      <trkpt lat="42.84894" lon="0.69931">
        <ele>1451.8</ele>
        <time>2018-11-24T22:40:32Z</time>
      </trkpt>
      <trkpt lat="42.84895" lon="0.69927">
        <ele>1452.6</ele>
        <time>2018-11-24T22:40:33Z</time>
      </trkpt>
      <trkpt lat="42.84895" lon="0.69924">
        <ele>1453.4</ele>
        <time>2018-11-24T22:40:34Z</time>
      </trkpt>
      <trkpt lat="42.84895" lon="0.69921">
        <ele>1454</ele>
        <time>2018-11-24T22:40:35Z</time>
      </trkpt>
      <trkpt lat="42.84895" lon="0.69918">
        <ele>1454.8</ele>
        <time>2018-11-24T22:40:36Z</time>
      </trkpt>
      <trkpt lat="42.84896" lon="0.69915">
        <ele>1455.6</ele>
        <time>2018-11-24T22:40:37Z</time>
      </trkpt>
      <trkpt lat="42.84896" lon="0.69911">
        <ele>1456.3</ele>
        <time>2018-11-24T22:40:38Z</time>
      </trkpt>
      <trkpt lat="42.84895" lon="0.69909">
        <ele>1456.9</ele>
        <time>2018-11-24T22:40:39Z</time>
      </trkpt>
      <trkpt lat="42.84895" lon="0.69906">
        <ele>1457.5</ele>
        <time>2018-11-24T22:40:40Z</time>
      </trkpt>
      <trkpt lat="42.84895" lon="0.69903">
        <ele>1458.2</ele>
        <time>2018-11-24T22:40:41Z</time>
      </trkpt>
      <trkpt lat="42.84894" lon="0.699">
        <ele>1458.9</ele>
        <time>2018-11-24T22:40:42Z</time>
      </trkpt>
      <trkpt lat="42.84894" lon="0.69897">
        <ele>1459.4</ele>
        <time>2018-11-24T22:40:42Z</time>
      </trkpt>
      <trkpt lat="42.84894" lon="0.69894">
        <ele>1460.2</ele>
        <time>2018-11-24T22:40:43Z</time>
      </trkpt>
      <trkpt lat="42.84894" lon="0.69891">
        <ele>1460.8</ele>
        <time>2018-11-24T22:40:44Z</time>
      </trkpt>
      <trkpt lat="42.84894" lon="0.69889">
        <ele>1461.6</ele>
        <time>2018-11-24T22:40:45Z</time>
      </trkpt>
      <trkpt lat="42.84895" lon="0.69885">
        <ele>1462.3</ele>
        <time>2018-11-24T22:40:46Z</time>
      </trkpt>
      <trkpt lat="42.84895" lon="0.69882">
        <ele>1463.2</ele>
        <time>2018-11-24T22:40:47Z</time>
      </trkpt>
      <trkpt lat="42.84896" lon="0.6988">
        <ele>1463.7</ele>
        <time>2018-11-24T22:40:48Z</time>
      </trkpt>
      <trkpt lat="42.84898" lon="0.69878">
        <ele>1464.5</ele>
        <time>2018-11-24T22:40:49Z</time>
      </trkpt>
      <trkpt lat="42.84899" lon="0.69875">
        <ele>1465.1</ele>
        <time>2018-11-24T22:40:49Z</time>
      </trkpt>
      <trkpt lat="42.849" lon="0.69873">
        <ele>1465.8</ele>
        <time>2018-11-24T22:40:50Z</time>
      </trkpt>
      <trkpt lat="42.84901" lon="0.6987">
        <ele>1466.6</ele>
        <time>2018-11-24T22:40:51Z</time>
      </trkpt>
      <trkpt lat="42.84901" lon="0.69866">
        <ele>1467.4</ele>
        <time>2018-11-24T22:40:52Z</time>
      </trkpt>
      <trkpt lat="42.84902" lon="0.69864">
        <ele>1468.1</ele>
        <time>2018-11-24T22:40:53Z</time>
      </trkpt>
      <trkpt lat="42.84902" lon="0.69861">
        <ele>1468.7</ele>
        <time>2018-11-24T22:40:54Z</time>
      </trkpt>
      <trkpt lat="42.84903" lon="0.69858">
        <ele>1469.3</ele>
        <time>2018-11-24T22:40:55Z</time>
      </trkpt>
      <trkpt lat="42.84901" lon="0.69856">
        <ele>1469.9</ele>
        <time>2018-11-24T22:40:56Z</time>
      </trkpt>
      <trkpt lat="42.84901" lon="0.69853">
        <ele>1470.4</ele>
        <time>2018-11-24T22:40:56Z</time>
      </trkpt>
      <trkpt lat="42.84902" lon="0.6985">
        <ele>1471.2</ele>
        <time>2018-11-24T22:40:57Z</time>
      </trkpt>
      <trkpt lat="42.84902" lon="0.69847">
        <ele>1472.1</ele>
        <time>2018-11-24T22:40:58Z</time>
      </trkpt>
      <trkpt lat="42.84901" lon="0.69844">
        <ele>1472.6</ele>
        <time>2018-11-24T22:40:59Z</time>
      </trkpt>
      <trkpt lat="42.84901" lon="0.69841">
        <ele>1473.4</ele>
        <time>2018-11-24T22:41:00Z</time>
      </trkpt>
      <trkpt lat="42.84901" lon="0.69839">
        <ele>1474.1</ele>
        <time>2018-11-24T22:41:01Z</time>
      </trkpt>
      <trkpt lat="42.84901" lon="0.69836">
        <ele>1474.9</ele>
        <time>2018-11-24T22:41:02Z</time>
      </trkpt>
      <trkpt lat="42.84902" lon="0.69833">
        <ele>1475.5</ele>
        <time>2018-11-24T22:41:03Z</time>
      </trkpt>
      <trkpt lat="42.84902" lon="0.6983">
        <ele>1476.2</ele>
        <time>2018-11-24T22:41:03Z</time>
      </trkpt>
      <trkpt lat="42.84902" lon="0.69827">
        <ele>1476.8</ele>
        <time>2018-11-24T22:41:04Z</time>
      </trkpt>
      <trkpt lat="42.84902" lon="0.69825">
        <ele>1477.5</ele>
        <time>2018-11-24T22:41:05Z</time>
      </trkpt>
      <trkpt lat="42.84902" lon="0.69822">
        <ele>1478.2</ele>
        <time>2018-11-24T22:41:06Z</time>
      </trkpt>
      <trkpt lat="42.84901" lon="0.6982">
        <ele>1478.8</ele>
        <time>2018-11-24T22:41:07Z</time>
      </trkpt>
      <trkpt lat="42.84902" lon="0.69816">
        <ele>1479.6</ele>
        <time>2018-11-24T22:41:08Z</time>
      </trkpt>
      <trkpt lat="42.84902" lon="0.69813">
        <ele>1480.4</ele>
        <time>2018-11-24T22:41:09Z</time>
      </trkpt>
      <trkpt lat="42.84902" lon="0.6981">
        <ele>1481.1</ele>
        <time>2018-11-24T22:41:09Z</time>
      </trkpt>
      <trkpt lat="42.84903" lon="0.69808">
        <ele>1481.8</ele>
        <time>2018-11-24T22:41:10Z</time>
      </trkpt>
      <trkpt lat="42.84904" lon="0.69804">
        <ele>1482.6</ele>
        <time>2018-11-24T22:41:11Z</time>
      </trkpt>
      <trkpt lat="42.84904" lon="0.69801">
        <ele>1483.3</ele>
        <time>2018-11-24T22:41:12Z</time>
      </trkpt>
      <trkpt lat="42.84906" lon="0.69799">
        <ele>1484</ele>
        <time>2018-11-24T22:41:13Z</time>
      </trkpt>
      <trkpt lat="42.84906" lon="0.69796">
        <ele>1484.6</ele>
        <time>2018-11-24T22:41:14Z</time>
      </trkpt>
      <trkpt lat="42.84906" lon="0.69793">
        <ele>1485.3</ele>
        <time>2018-11-24T22:41:15Z</time>
      </trkpt>
      <trkpt lat="42.84905" lon="0.6979">
        <ele>1486.1</ele>
        <time>2018-11-24T22:41:16Z</time>
      </trkpt>
      <trkpt lat="42.84905" lon="0.69787">
        <ele>1486.7</ele>
        <time>2018-11-24T22:41:17Z</time>
      </trkpt>
      <trkpt lat="42.84906" lon="0.69785">
        <ele>1487.4</ele>
        <time>2018-11-24T22:41:17Z</time>
      </trkpt>
      <trkpt lat="42.84907" lon="0.69782">
        <ele>1488.2</ele>
        <time>2018-11-24T22:41:18Z</time>
      </trkpt>
      <trkpt lat="42.84906" lon="0.69779">
        <ele>1488.7</ele>
        <time>2018-11-24T22:41:19Z</time>
      </trkpt>
      <trkpt lat="42.84908" lon="0.69776">
        <ele>1489.4</ele>
        <time>2018-11-24T22:41:20Z</time>
      </trkpt>
      <trkpt lat="42.84909" lon="0.69773">
        <ele>1489.8</ele>
        <time>2018-11-24T22:41:21Z</time>
      </trkpt>
      <trkpt lat="42.84909" lon="0.69771">
        <ele>1490.9</ele>
        <time>2018-11-24T22:41:22Z</time>
      </trkpt>
      <trkpt lat="42.8491" lon="0.69768">
        <ele>1491.5</ele>
        <time>2018-11-24T22:41:23Z</time>
      </trkpt>
      <trkpt lat="42.8491" lon="0.69765">
        <ele>1492.1</ele>
        <time>2018-11-24T22:41:24Z</time>
      </trkpt>
      <trkpt lat="42.8491" lon="0.69762">
        <ele>1492.7</ele>
        <time>2018-11-24T22:41:24Z</time>
      </trkpt>
      <trkpt lat="42.8491" lon="0.69759">
        <ele>1493.4</ele>
        <time>2018-11-24T22:41:25Z</time>
      </trkpt>
      <trkpt lat="42.84911" lon="0.69756">
        <ele>1494</ele>
        <time>2018-11-24T22:41:26Z</time>
      </trkpt>
      <trkpt lat="42.84913" lon="0.69754">
        <ele>1494.7</ele>
        <time>2018-11-24T22:41:27Z</time>
      </trkpt>
      <trkpt lat="42.84913" lon="0.69751">
        <ele>1495.3</ele>
        <time>2018-11-24T22:41:28Z</time>
      </trkpt>
      <trkpt lat="42.84914" lon="0.69748">
        <ele>1496</ele>
        <time>2018-11-24T22:41:29Z</time>
      </trkpt>
      <trkpt lat="42.84914" lon="0.69746">
        <ele>1496.5</ele>
        <time>2018-11-24T22:41:30Z</time>
      </trkpt>
      <trkpt lat="42.84913" lon="0.69743">
        <ele>1497.2</ele>
        <time>2018-11-24T22:41:31Z</time>
      </trkpt>
      <trkpt lat="42.84912" lon="0.69741">
        <ele>1497.6</ele>
        <time>2018-11-24T22:41:31Z</time>
      </trkpt>
      <trkpt lat="42.84913" lon="0.69738">
        <ele>1498.3</ele>
        <time>2018-11-24T22:41:32Z</time>
      </trkpt>
      <trkpt lat="42.84913" lon="0.69735">
        <ele>1498.9</ele>
        <time>2018-11-24T22:41:33Z</time>
      </trkpt>
      <trkpt lat="42.84914" lon="0.69733">
        <ele>1499.5</ele>
        <time>2018-11-24T22:41:34Z</time>
      </trkpt>
      <trkpt lat="42.84915" lon="0.6973">
        <ele>1499.9</ele>
        <time>2018-11-24T22:41:35Z</time>
      </trkpt>
      <trkpt lat="42.84915" lon="0.69727">
        <ele>1500.7</ele>
        <time>2018-11-24T22:41:35Z</time>
      </trkpt>
      <trkpt lat="42.84916" lon="0.69724">
        <ele>1501.4</ele>
        <time>2018-11-24T22:41:37Z</time>
      </trkpt>
      <trkpt lat="42.84916" lon="0.69721">
        <ele>1502</ele>
        <time>2018-11-24T22:41:37Z</time>
      </trkpt>
      <trkpt lat="42.84916" lon="0.69718">
        <ele>1502.7</ele>
        <time>2018-11-24T22:41:38Z</time>
      </trkpt>
      <trkpt lat="42.84916" lon="0.69715">
        <ele>1503.4</ele>
        <time>2018-11-24T22:41:39Z</time>
      </trkpt>
      <trkpt lat="42.84915" lon="0.69712">
        <ele>1504</ele>
        <time>2018-11-24T22:41:40Z</time>
      </trkpt>
      <trkpt lat="42.84915" lon="0.69709">
        <ele>1504.6</ele>
        <time>2018-11-24T22:41:41Z</time>
      </trkpt>
      <trkpt lat="42.84915" lon="0.69706">
        <ele>1505.2</ele>
        <time>2018-11-24T22:41:42Z</time>
      </trkpt>
      <trkpt lat="42.84914" lon="0.69704">
        <ele>1505.6</ele>
        <time>2018-11-24T22:41:42Z</time>
      </trkpt>
      <trkpt lat="42.84915" lon="0.69701">
        <ele>1506.4</ele>
        <time>2018-11-24T22:41:43Z</time>
      </trkpt>
      <trkpt lat="42.84915" lon="0.69698">
        <ele>1506.9</ele>
        <time>2018-11-24T22:41:44Z</time>
      </trkpt>
      <trkpt lat="42.84914" lon="0.69695">
        <ele>1507.5</ele>
        <time>2018-11-24T22:41:45Z</time>
      </trkpt>
      <trkpt lat="42.84916" lon="0.69694">
        <ele>1507.8</ele>
        <time>2018-11-24T22:41:46Z</time>
      </trkpt>
      <trkpt lat="42.84918" lon="0.69692">
        <ele>1508.3</ele>
        <time>2018-11-24T22:41:47Z</time>
      </trkpt>
      <trkpt lat="42.84918" lon="0.69689">
        <ele>1509</ele>
        <time>2018-11-24T22:41:48Z</time>
      </trkpt>
      <trkpt lat="42.84918" lon="0.69685">
        <ele>1509.8</ele>
        <time>2018-11-24T22:41:49Z</time>
      </trkpt>
      <trkpt lat="42.84918" lon="0.69683">
        <ele>1510.4</ele>
        <time>2018-11-24T22:41:50Z</time>
      </trkpt>
      <trkpt lat="42.84919" lon="0.6968">
        <ele>1510.8</ele>
        <time>2018-11-24T22:41:51Z</time>
      </trkpt>
      <trkpt lat="42.8492" lon="0.69677">
        <ele>1511.5</ele>
        <time>2018-11-24T22:41:52Z</time>
      </trkpt>
      <trkpt lat="42.8492" lon="0.69674">
        <ele>1512.1</ele>
        <time>2018-11-24T22:41:52Z</time>
      </trkpt>
      <trkpt lat="42.84921" lon="0.69672">
        <ele>1512.6</ele>
        <time>2018-11-24T22:41:53Z</time>
      </trkpt>
      <trkpt lat="42.84922" lon="0.69669">
        <ele>1513.1</ele>
        <time>2018-11-24T22:41:54Z</time>
      </trkpt>
      <trkpt lat="42.84922" lon="0.69667">
        <ele>1513.7</ele>
        <time>2018-11-24T22:41:55Z</time>
      </trkpt>
      <trkpt lat="42.84923" lon="0.69664">
        <ele>1514.2</ele>
        <time>2018-11-24T22:41:55Z</time>
      </trkpt>
      <trkpt lat="42.84924" lon="0.69662">
        <ele>1514.7</ele>
        <time>2018-11-24T22:41:56Z</time>
      </trkpt>
      <trkpt lat="42.84924" lon="0.69659">
        <ele>1515.3</ele>
        <time>2018-11-24T22:41:57Z</time>
      </trkpt>
      <trkpt lat="42.84924" lon="0.69656">
        <ele>1516.1</ele>
        <time>2018-11-24T22:41:58Z</time>
      </trkpt>
      <trkpt lat="42.84924" lon="0.69653">
        <ele>1516.7</ele>
        <time>2018-11-24T22:41:59Z</time>
      </trkpt>
      <trkpt lat="42.84925" lon="0.69651">
        <ele>1517.2</ele>
        <time>2018-11-24T22:42:00Z</time>
      </trkpt>
      <trkpt lat="42.84926" lon="0.69648">
        <ele>1517.9</ele>
        <time>2018-11-24T22:42:01Z</time>
      </trkpt>
      <trkpt lat="42.84926" lon="0.69645">
        <ele>1518.5</ele>
        <time>2018-11-24T22:42:01Z</time>
      </trkpt>
      <trkpt lat="42.84927" lon="0.69642">
        <ele>1519.2</ele>
        <time>2018-11-24T22:42:02Z</time>
      </trkpt>
      <trkpt lat="42.84928" lon="0.6964">
        <ele>1519.6</ele>
        <time>2018-11-24T22:42:03Z</time>
      </trkpt>
      <trkpt lat="42.84929" lon="0.69637">
        <ele>1520.3</ele>
        <time>2018-11-24T22:42:04Z</time>
      </trkpt>
      <trkpt lat="42.8493" lon="0.69635">
        <ele>1520.8</ele>
        <time>2018-11-24T22:42:05Z</time>
      </trkpt>
      <trkpt lat="42.8493" lon="0.69632">
        <ele>1521.3</ele>
        <time>2018-11-24T22:42:06Z</time>
      </trkpt>
      <trkpt lat="42.8493" lon="0.69629">
        <ele>1521.9</ele>
        <time>2018-11-24T22:42:06Z</time>
      </trkpt>
      <trkpt lat="42.84931" lon="0.69626">
        <ele>1522.6</ele>
        <time>2018-11-24T22:42:07Z</time>
      </trkpt>
      <trkpt lat="42.84931" lon="0.69623">
        <ele>1523.3</ele>
        <time>2018-11-24T22:42:08Z</time>
      </trkpt>
      <trkpt lat="42.84933" lon="0.69621">
        <ele>1523.9</ele>
        <time>2018-11-24T22:42:09Z</time>
      </trkpt>
      <trkpt lat="42.84933" lon="0.69618">
        <ele>1524.6</ele>
        <time>2018-11-24T22:42:10Z</time>
      </trkpt>
      <trkpt lat="42.84934" lon="0.69615">
        <ele>1525.2</ele>
        <time>2018-11-24T22:42:11Z</time>
      </trkpt>
      <trkpt lat="42.84934" lon="0.69612">
        <ele>1525.7</ele>
        <time>2018-11-24T22:42:12Z</time>
      </trkpt>
      <trkpt lat="42.84936" lon="0.69609">
        <ele>1526.4</ele>
        <time>2018-11-24T22:42:13Z</time>
      </trkpt>
      <trkpt lat="42.84936" lon="0.69606">
        <ele>1527.1</ele>
        <time>2018-11-24T22:42:14Z</time>
      </trkpt>
      <trkpt lat="42.84936" lon="0.69603">
        <ele>1527.7</ele>
        <time>2018-11-24T22:42:14Z</time>
      </trkpt>
      <trkpt lat="42.84936" lon="0.696">
        <ele>1528.6</ele>
        <time>2018-11-24T22:42:16Z</time>
      </trkpt>
      <trkpt lat="42.84937" lon="0.69597">
        <ele>1529.2</ele>
        <time>2018-11-24T22:42:16Z</time>
      </trkpt>
      <trkpt lat="42.84938" lon="0.69594">
        <ele>1529.6</ele>
        <time>2018-11-24T22:42:17Z</time>
      </trkpt>
      <trkpt lat="42.8494" lon="0.69592">
        <ele>1530.1</ele>
        <time>2018-11-24T22:42:18Z</time>
      </trkpt>
      <trkpt lat="42.84941" lon="0.6959">
        <ele>1530.8</ele>
        <time>2018-11-24T22:42:19Z</time>
      </trkpt>
      <trkpt lat="42.84942" lon="0.69587">
        <ele>1531.3</ele>
        <time>2018-11-24T22:42:20Z</time>
      </trkpt>
      <trkpt lat="42.84943" lon="0.69585">
        <ele>1532</ele>
        <time>2018-11-24T22:42:21Z</time>
      </trkpt>
      <trkpt lat="42.84943" lon="0.69583">
        <ele>1532.4</ele>
        <time>2018-11-24T22:42:21Z</time>
      </trkpt>
      <trkpt lat="42.84943" lon="0.69579">
        <ele>1533.2</ele>
        <time>2018-11-24T22:42:22Z</time>
      </trkpt>
      <trkpt lat="42.84943" lon="0.69577">
        <ele>1533.8</ele>
        <time>2018-11-24T22:42:23Z</time>
      </trkpt>
      <trkpt lat="42.84944" lon="0.69574">
        <ele>1534.3</ele>
        <time>2018-11-24T22:42:24Z</time>
      </trkpt>
      <trkpt lat="42.84945" lon="0.69571">
        <ele>1535.2</ele>
        <time>2018-11-24T22:42:25Z</time>
      </trkpt>
      <trkpt lat="42.84945" lon="0.69568">
        <ele>1535.8</ele>
        <time>2018-11-24T22:42:26Z</time>
      </trkpt>
      <trkpt lat="42.84946" lon="0.69565">
        <ele>1536.4</ele>
        <time>2018-11-24T22:42:27Z</time>
      </trkpt>
      <trkpt lat="42.84946" lon="0.69563">
        <ele>1536.9</ele>
        <time>2018-11-24T22:42:27Z</time>
      </trkpt>
      <trkpt lat="42.84947" lon="0.6956">
        <ele>1537.7</ele>
        <time>2018-11-24T22:42:28Z</time>
      </trkpt>
      <trkpt lat="42.84947" lon="0.69557">
        <ele>1538.5</ele>
        <time>2018-11-24T22:42:29Z</time>
      </trkpt>
      <trkpt lat="42.84947" lon="0.69554">
        <ele>1539.1</ele>
        <time>2018-11-24T22:42:30Z</time>
      </trkpt>
      <trkpt lat="42.84948" lon="0.69551">
        <ele>1539.6</ele>
        <time>2018-11-24T22:42:31Z</time>
      </trkpt>
      <trkpt lat="42.84949" lon="0.69548">
        <ele>1540.4</ele>
        <time>2018-11-24T22:42:32Z</time>
      </trkpt>
      <trkpt lat="42.84949" lon="0.69546">
        <ele>1540.9</ele>
        <time>2018-11-24T22:42:33Z</time>
      </trkpt>
      <trkpt lat="42.8495" lon="0.69543">
        <ele>1541.5</ele>
        <time>2018-11-24T22:42:33Z</time>
      </trkpt>
      <trkpt lat="42.84949" lon="0.6954">
        <ele>1542.3</ele>
        <time>2018-11-24T22:42:34Z</time>
      </trkpt>
      <trkpt lat="42.84949" lon="0.69537">
        <ele>1543.1</ele>
        <time>2018-11-24T22:42:35Z</time>
      </trkpt>
      <trkpt lat="42.84949" lon="0.69534">
        <ele>1543.7</ele>
        <time>2018-11-24T22:42:36Z</time>
      </trkpt>
      <trkpt lat="42.8495" lon="0.69531">
        <ele>1544.3</ele>
        <time>2018-11-24T22:42:37Z</time>
      </trkpt>
      <trkpt lat="42.84951" lon="0.69529">
        <ele>1544.8</ele>
        <time>2018-11-24T22:42:38Z</time>
      </trkpt>
      <trkpt lat="42.84951" lon="0.69526">
        <ele>1545.5</ele>
        <time>2018-11-24T22:42:39Z</time>
      </trkpt>
      <trkpt lat="42.84952" lon="0.69523">
        <ele>1546.2</ele>
        <time>2018-11-24T22:42:40Z</time>
      </trkpt>
      <trkpt lat="42.84953" lon="0.6952">
        <ele>1546.9</ele>
        <time>2018-11-24T22:42:40Z</time>
      </trkpt>
      <trkpt lat="42.84954" lon="0.69517">
        <ele>1547.4</ele>
        <time>2018-11-24T22:42:41Z</time>
      </trkpt>
      <trkpt lat="42.84954" lon="0.69515">
        <ele>1548.1</ele>
        <time>2018-11-24T22:42:42Z</time>
      </trkpt>
      <trkpt lat="42.84955" lon="0.69513">
        <ele>1548.6</ele>
        <time>2018-11-24T22:42:43Z</time>
      </trkpt>
      <trkpt lat="42.84957" lon="0.6951">
        <ele>1549.1</ele>
        <time>2018-11-24T22:42:44Z</time>
      </trkpt>
      <trkpt lat="42.84958" lon="0.69507">
        <ele>1549.7</ele>
        <time>2018-11-24T22:42:45Z</time>
      </trkpt>
      <trkpt lat="42.8496" lon="0.69505">
        <ele>1549.9</ele>
        <time>2018-11-24T22:42:46Z</time>
      </trkpt>
      <trkpt lat="42.8496" lon="0.69502">
        <ele>1550.8</ele>
        <time>2018-11-24T22:42:47Z</time>
      </trkpt>
      <trkpt lat="42.8496" lon="0.695">
        <ele>1551.3</ele>
        <time>2018-11-24T22:42:47Z</time>
      </trkpt>
      <trkpt lat="42.84961" lon="0.69497">
        <ele>1551.9</ele>
        <time>2018-11-24T22:42:48Z</time>
      </trkpt>
      <trkpt lat="42.84962" lon="0.69494">
        <ele>1552.5</ele>
        <time>2018-11-24T22:42:49Z</time>
      </trkpt>
      <trkpt lat="42.84963" lon="0.69492">
        <ele>1553.2</ele>
        <time>2018-11-24T22:42:50Z</time>
      </trkpt>
      <trkpt lat="42.84965" lon="0.69491">
        <ele>1553.4</ele>
        <time>2018-11-24T22:42:51Z</time>
      </trkpt>
      <trkpt lat="42.84966" lon="0.69489">
        <ele>1553.6</ele>
        <time>2018-11-24T22:42:52Z</time>
      </trkpt>
      <trkpt lat="42.84968" lon="0.69488">
        <ele>1553.9</ele>
        <time>2018-11-24T22:42:53Z</time>
      </trkpt>
      <trkpt lat="42.8497" lon="0.69486">
        <ele>1554.4</ele>
        <time>2018-11-24T22:42:54Z</time>
      </trkpt>
      <trkpt lat="42.84971" lon="0.69484">
        <ele>1554.7</ele>
        <time>2018-11-24T22:42:54Z</time>
      </trkpt>
      <trkpt lat="42.84973" lon="0.69482">
        <ele>1555.2</ele>
        <time>2018-11-24T22:42:55Z</time>
      </trkpt>
      <trkpt lat="42.84975" lon="0.6948">
        <ele>1555.8</ele>
        <time>2018-11-24T22:42:56Z</time>
      </trkpt>
      <trkpt lat="42.84977" lon="0.69477">
        <ele>1556.4</ele>
        <time>2018-11-24T22:42:57Z</time>
      </trkpt>
      <trkpt lat="42.84978" lon="0.69475">
        <ele>1557.1</ele>
        <time>2018-11-24T22:42:58Z</time>
      </trkpt>
      <trkpt lat="42.84979" lon="0.69471">
        <ele>1557.6</ele>
        <time>2018-11-24T22:42:59Z</time>
      </trkpt>
      <trkpt lat="42.84979" lon="0.69468">
        <ele>1558.3</ele>
        <time>2018-11-24T22:43:00Z</time>
      </trkpt>
      <trkpt lat="42.84978" lon="0.69465">
        <ele>1559</ele>
        <time>2018-11-24T22:43:01Z</time>
      </trkpt>
      <trkpt lat="42.84979" lon="0.69462">
        <ele>1559.7</ele>
        <time>2018-11-24T22:43:02Z</time>
      </trkpt>
      <trkpt lat="42.8498" lon="0.6946">
        <ele>1560.2</ele>
        <time>2018-11-24T22:43:03Z</time>
      </trkpt>
      <trkpt lat="42.84981" lon="0.69457">
        <ele>1560.8</ele>
        <time>2018-11-24T22:43:04Z</time>
      </trkpt>
      <trkpt lat="42.84983" lon="0.69455">
        <ele>1561.3</ele>
        <time>2018-11-24T22:43:05Z</time>
      </trkpt>
      <trkpt lat="42.84983" lon="0.69452">
        <ele>1562.1</ele>
        <time>2018-11-24T22:43:06Z</time>
      </trkpt>
      <trkpt lat="42.84983" lon="0.69448">
        <ele>1562.6</ele>
        <time>2018-11-24T22:43:07Z</time>
      </trkpt>
      <trkpt lat="42.84984" lon="0.69446">
        <ele>1563.4</ele>
        <time>2018-11-24T22:43:08Z</time>
      </trkpt>
      <trkpt lat="42.84985" lon="0.69442">
        <ele>1564</ele>
        <time>2018-11-24T22:43:09Z</time>
      </trkpt>
      <trkpt lat="42.84986" lon="0.6944">
        <ele>1564.5</ele>
        <time>2018-11-24T22:43:09Z</time>
      </trkpt>
      <trkpt lat="42.84986" lon="0.69437">
        <ele>1565.1</ele>
        <time>2018-11-24T22:43:10Z</time>
      </trkpt>
      <trkpt lat="42.84987" lon="0.69434">
        <ele>1565.7</ele>
        <time>2018-11-24T22:43:11Z</time>
      </trkpt>
      <trkpt lat="42.84988" lon="0.69431">
        <ele>1566.5</ele>
        <time>2018-11-24T22:43:12Z</time>
      </trkpt>
      <trkpt lat="42.8499" lon="0.69429">
        <ele>1566.9</ele>
        <time>2018-11-24T22:43:13Z</time>
      </trkpt>
      <trkpt lat="42.84991" lon="0.69427">
        <ele>1567.5</ele>
        <time>2018-11-24T22:43:14Z</time>
      </trkpt>
      <trkpt lat="42.84992" lon="0.69424">
        <ele>1567.9</ele>
        <time>2018-11-24T22:43:15Z</time>
      </trkpt>
      <trkpt lat="42.84994" lon="0.69422">
        <ele>1568.4</ele>
        <time>2018-11-24T22:43:16Z</time>
      </trkpt>
      <trkpt lat="42.84994" lon="0.6942">
        <ele>1569.1</ele>
        <time>2018-11-24T22:43:16Z</time>
      </trkpt>
      <trkpt lat="42.84994" lon="0.69416">
        <ele>1570.3</ele>
        <time>2018-11-24T22:43:17Z</time>
      </trkpt>
      <trkpt lat="42.84993" lon="0.69414">
        <ele>1570.4</ele>
        <time>2018-11-24T22:43:18Z</time>
      </trkpt>
      <trkpt lat="42.84993" lon="0.69411">
        <ele>1571</ele>
        <time>2018-11-24T22:43:19Z</time>
      </trkpt>
      <trkpt lat="42.84994" lon="0.69409">
        <ele>1571.5</ele>
        <time>2018-11-24T22:43:20Z</time>
      </trkpt>
      <trkpt lat="42.84995" lon="0.69406">
        <ele>1572.2</ele>
        <time>2018-11-24T22:43:21Z</time>
      </trkpt>
      <trkpt lat="42.84996" lon="0.69404">
        <ele>1572.7</ele>
        <time>2018-11-24T22:43:21Z</time>
      </trkpt>
      <trkpt lat="42.84998" lon="0.69401">
        <ele>1573.5</ele>
        <time>2018-11-24T22:43:22Z</time>
      </trkpt>
      <trkpt lat="42.84998" lon="0.69398">
        <ele>1574.1</ele>
        <time>2018-11-24T22:43:23Z</time>
      </trkpt>
      <trkpt lat="42.84998" lon="0.69395">
        <ele>1574.8</ele>
        <time>2018-11-24T22:43:24Z</time>
      </trkpt>
      <trkpt lat="42.84998" lon="0.69392">
        <ele>1575.5</ele>
        <time>2018-11-24T22:43:25Z</time>
      </trkpt>
      <trkpt lat="42.84999" lon="0.69389">
        <ele>1576.3</ele>
        <time>2018-11-24T22:43:26Z</time>
      </trkpt>
      <trkpt lat="42.85" lon="0.69387">
        <ele>1576.8</ele>
        <time>2018-11-24T22:43:27Z</time>
      </trkpt>
      <trkpt lat="42.85" lon="0.69384">
        <ele>1577.4</ele>
        <time>2018-11-24T22:43:28Z</time>
      </trkpt>
      <trkpt lat="42.85" lon="0.69382">
        <ele>1578</ele>
        <time>2018-11-24T22:43:28Z</time>
      </trkpt>
      <trkpt lat="42.85" lon="0.69379">
        <ele>1578.7</ele>
        <time>2018-11-24T22:43:29Z</time>
      </trkpt>
      <trkpt lat="42.85" lon="0.69376">
        <ele>1579.3</ele>
        <time>2018-11-24T22:43:30Z</time>
      </trkpt>
      <trkpt lat="42.85" lon="0.69373">
        <ele>1580.1</ele>
        <time>2018-11-24T22:43:31Z</time>
      </trkpt>
      <trkpt lat="42.85002" lon="0.69371">
        <ele>1580.5</ele>
        <time>2018-11-24T22:43:32Z</time>
      </trkpt>
      <trkpt lat="42.85002" lon="0.69369">
        <ele>1581.3</ele>
        <time>2018-11-24T22:43:32Z</time>
      </trkpt>
      <trkpt lat="42.85003" lon="0.69366">
        <ele>1582</ele>
        <time>2018-11-24T22:43:33Z</time>
      </trkpt>
      <trkpt lat="42.85002" lon="0.69363">
        <ele>1582.7</ele>
        <time>2018-11-24T22:43:34Z</time>
      </trkpt>
      <trkpt lat="42.85003" lon="0.6936">
        <ele>1583.4</ele>
        <time>2018-11-24T22:43:35Z</time>
      </trkpt>
      <trkpt lat="42.85004" lon="0.69357">
        <ele>1584.2</ele>
        <time>2018-11-24T22:43:36Z</time>
      </trkpt>
      <trkpt lat="42.85004" lon="0.69353">
        <ele>1585.1</ele>
        <time>2018-11-24T22:43:37Z</time>
      </trkpt>
      <trkpt lat="42.85004" lon="0.69351">
        <ele>1585.7</ele>
        <time>2018-11-24T22:43:38Z</time>
      </trkpt>
      <trkpt lat="42.85005" lon="0.69348">
        <ele>1586.5</ele>
        <time>2018-11-24T22:43:39Z</time>
      </trkpt>
      <trkpt lat="42.85005" lon="0.69345">
        <ele>1587.2</ele>
        <time>2018-11-24T22:43:40Z</time>
      </trkpt>
      <trkpt lat="42.85005" lon="0.69342">
        <ele>1588.1</ele>
        <time>2018-11-24T22:43:41Z</time>
      </trkpt>
      <trkpt lat="42.85005" lon="0.69339">
        <ele>1588.7</ele>
        <time>2018-11-24T22:43:41Z</time>
      </trkpt>
      <trkpt lat="42.85005" lon="0.69336">
        <ele>1589.4</ele>
        <time>2018-11-24T22:43:42Z</time>
      </trkpt>
      <trkpt lat="42.85006" lon="0.69333">
        <ele>1590.2</ele>
        <time>2018-11-24T22:43:43Z</time>
      </trkpt>
      <trkpt lat="42.85007" lon="0.69331">
        <ele>1590.8</ele>
        <time>2018-11-24T22:43:44Z</time>
      </trkpt>
      <trkpt lat="42.85008" lon="0.69328">
        <ele>1591.6</ele>
        <time>2018-11-24T22:43:45Z</time>
      </trkpt>
      <trkpt lat="42.85009" lon="0.69327">
        <ele>1592.1</ele>
        <time>2018-11-24T22:43:46Z</time>
      </trkpt>
      <trkpt lat="42.85011" lon="0.69324">
        <ele>1592.7</ele>
        <time>2018-11-24T22:43:47Z</time>
      </trkpt>
      <trkpt lat="42.85012" lon="0.69321">
        <ele>1593.5</ele>
        <time>2018-11-24T22:43:47Z</time>
      </trkpt>
      <trkpt lat="42.85014" lon="0.69319">
        <ele>1594.1</ele>
        <time>2018-11-24T22:43:48Z</time>
      </trkpt>
      <trkpt lat="42.85016" lon="0.69317">
        <ele>1594.6</ele>
        <time>2018-11-24T22:43:49Z</time>
      </trkpt>
      <trkpt lat="42.85018" lon="0.69315">
        <ele>1595.4</ele>
        <time>2018-11-24T22:43:50Z</time>
      </trkpt>
      <trkpt lat="42.85019" lon="0.69311">
        <ele>1596.1</ele>
        <time>2018-11-24T22:43:51Z</time>
      </trkpt>
      <trkpt lat="42.8502" lon="0.69309">
        <ele>1596.8</ele>
        <time>2018-11-24T22:43:52Z</time>
      </trkpt>
      <trkpt lat="42.85021" lon="0.69306">
        <ele>1597.5</ele>
        <time>2018-11-24T22:43:53Z</time>
      </trkpt>
      <trkpt lat="42.85022" lon="0.69304">
        <ele>1598.1</ele>
        <time>2018-11-24T22:43:54Z</time>
      </trkpt>
      <trkpt lat="42.85022" lon="0.69301">
        <ele>1598.9</ele>
        <time>2018-11-24T22:43:55Z</time>
      </trkpt>
      <trkpt lat="42.85022" lon="0.69299">
        <ele>1599.6</ele>
        <time>2018-11-24T22:43:56Z</time>
      </trkpt>
      <trkpt lat="42.85022" lon="0.69295">
        <ele>1600.5</ele>
        <time>2018-11-24T22:43:57Z</time>
      </trkpt>
      <trkpt lat="42.85023" lon="0.69292">
        <ele>1601.3</ele>
        <time>2018-11-24T22:43:57Z</time>
      </trkpt>
      <trkpt lat="42.85023" lon="0.6929">
        <ele>1601.8</ele>
        <time>2018-11-24T22:43:58Z</time>
      </trkpt>
      <trkpt lat="42.85023" lon="0.69287">
        <ele>1602.8</ele>
        <time>2018-11-24T22:43:59Z</time>
      </trkpt>
      <trkpt lat="42.85024" lon="0.69284">
        <ele>1603.4</ele>
        <time>2018-11-24T22:44:00Z</time>
      </trkpt>
      <trkpt lat="42.85026" lon="0.69282">
        <ele>1604.1</ele>
        <time>2018-11-24T22:44:01Z</time>
      </trkpt>
      <trkpt lat="42.85027" lon="0.69279">
        <ele>1604.9</ele>
        <time>2018-11-24T22:44:02Z</time>
      </trkpt>
      <trkpt lat="42.85028" lon="0.69277">
        <ele>1605.4</ele>
        <time>2018-11-24T22:44:03Z</time>
      </trkpt>
      <trkpt lat="42.85029" lon="0.69274">
        <ele>1606.1</ele>
        <time>2018-11-24T22:44:03Z</time>
      </trkpt>
      <trkpt lat="42.8503" lon="0.69272">
        <ele>1606.8</ele>
        <time>2018-11-24T22:44:04Z</time>
      </trkpt>
      <trkpt lat="42.85031" lon="0.6927">
        <ele>1607.5</ele>
        <time>2018-11-24T22:44:05Z</time>
      </trkpt>
      <trkpt lat="42.85032" lon="0.69267">
        <ele>1608.2</ele>
        <time>2018-11-24T22:44:06Z</time>
      </trkpt>
      <trkpt lat="42.85032" lon="0.69264">
        <ele>1609</ele>
        <time>2018-11-24T22:44:07Z</time>
      </trkpt>
      <trkpt lat="42.85033" lon="0.69262">
        <ele>1610.6</ele>
        <time>2018-11-24T22:44:08Z</time>
      </trkpt>
      <trkpt lat="42.85034" lon="0.69259">
        <ele>1610.4</ele>
        <time>2018-11-24T22:44:08Z</time>
      </trkpt>
      <trkpt lat="42.85036" lon="0.69257">
        <ele>1611.2</ele>
        <time>2018-11-24T22:44:10Z</time>
      </trkpt>
      <trkpt lat="42.85037" lon="0.69254">
        <ele>1611.9</ele>
        <time>2018-11-24T22:44:10Z</time>
      </trkpt>
      <trkpt lat="42.85038" lon="0.69251">
        <ele>1612.9</ele>
        <time>2018-11-24T22:44:11Z</time>
      </trkpt>
      <trkpt lat="42.85039" lon="0.69248">
        <ele>1613.8</ele>
        <time>2018-11-24T22:44:12Z</time>
      </trkpt>
      <trkpt lat="42.85039" lon="0.69246">
        <ele>1614.5</ele>
        <time>2018-11-24T22:44:13Z</time>
      </trkpt>
      <trkpt lat="42.85041" lon="0.69243">
        <ele>1615.2</ele>
        <time>2018-11-24T22:44:14Z</time>
      </trkpt>
      <trkpt lat="42.8504" lon="0.69241">
        <ele>1616</ele>
        <time>2018-11-24T22:44:15Z</time>
      </trkpt>
      <trkpt lat="42.85041" lon="0.69238">
        <ele>1616.8</ele>
        <time>2018-11-24T22:44:16Z</time>
      </trkpt>
      <trkpt lat="42.85041" lon="0.69235">
        <ele>1617.7</ele>
        <time>2018-11-24T22:44:16Z</time>
      </trkpt>
      <trkpt lat="42.85041" lon="0.69233">
        <ele>1618.4</ele>
        <time>2018-11-24T22:44:17Z</time>
      </trkpt>
      <trkpt lat="42.85043" lon="0.69231">
        <ele>1618.9</ele>
        <time>2018-11-24T22:44:18Z</time>
      </trkpt>
      <trkpt lat="42.85044" lon="0.69229">
        <ele>1620.6</ele>
        <time>2018-11-24T22:44:19Z</time>
      </trkpt>
      <trkpt lat="42.85045" lon="0.69227">
        <ele>1620.3</ele>
        <time>2018-11-24T22:44:20Z</time>
      </trkpt>
      <trkpt lat="42.85046" lon="0.69224">
        <ele>1621.2</ele>
        <time>2018-11-24T22:44:21Z</time>
      </trkpt>
      <trkpt lat="42.85047" lon="0.69222">
        <ele>1622.1</ele>
        <time>2018-11-24T22:44:21Z</time>
      </trkpt>
      <trkpt lat="42.85048" lon="0.69219">
        <ele>1623</ele>
        <time>2018-11-24T22:44:22Z</time>
      </trkpt>
      <trkpt lat="42.85049" lon="0.69217">
        <ele>1623.6</ele>
        <time>2018-11-24T22:44:23Z</time>
      </trkpt>
      <trkpt lat="42.8505" lon="0.69214">
        <ele>1624.6</ele>
        <time>2018-11-24T22:44:24Z</time>
      </trkpt>
      <trkpt lat="42.85052" lon="0.69212">
        <ele>1625.5</ele>
        <time>2018-11-24T22:44:25Z</time>
      </trkpt>
      <trkpt lat="42.85053" lon="0.69209">
        <ele>1626.4</ele>
        <time>2018-11-24T22:44:26Z</time>
      </trkpt>
      <trkpt lat="42.85055" lon="0.69206">
        <ele>1627.5</ele>
        <time>2018-11-24T22:44:27Z</time>
      </trkpt>
      <trkpt lat="42.85056" lon="0.69204">
        <ele>1628.3</ele>
        <time>2018-11-24T22:44:28Z</time>
      </trkpt>
      <trkpt lat="42.85057" lon="0.69202">
        <ele>1629.1</ele>
        <time>2018-11-24T22:44:29Z</time>
      </trkpt>
      <trkpt lat="42.85059" lon="0.692">
        <ele>1629.7</ele>
        <time>2018-11-24T22:44:29Z</time>
      </trkpt>
      <trkpt lat="42.85061" lon="0.692">
        <ele>1630.2</ele>
        <time>2018-11-24T22:44:30Z</time>
      </trkpt>
      <trkpt lat="42.85063" lon="0.69198">
        <ele>1630.8</ele>
        <time>2018-11-24T22:44:31Z</time>
      </trkpt>
      <trkpt lat="42.85065" lon="0.69196">
        <ele>1631.4</ele>
        <time>2018-11-24T22:44:32Z</time>
      </trkpt>
      <trkpt lat="42.85067" lon="0.69194">
        <ele>1632.1</ele>
        <time>2018-11-24T22:44:33Z</time>
      </trkpt>
      <trkpt lat="42.85069" lon="0.69193">
        <ele>1632.8</ele>
        <time>2018-11-24T22:44:34Z</time>
      </trkpt>
      <trkpt lat="42.85071" lon="0.69191">
        <ele>1633.5</ele>
        <time>2018-11-24T22:44:35Z</time>
      </trkpt>
      <trkpt lat="42.85072" lon="0.69189">
        <ele>1634.3</ele>
        <time>2018-11-24T22:44:36Z</time>
      </trkpt>
      <trkpt lat="42.85074" lon="0.69187">
        <ele>1635.3</ele>
        <time>2018-11-24T22:44:37Z</time>
      </trkpt>
      <trkpt lat="42.85076" lon="0.69186">
        <ele>1635.8</ele>
        <time>2018-11-24T22:44:38Z</time>
      </trkpt>
      <trkpt lat="42.85078" lon="0.69184">
        <ele>1636.6</ele>
        <time>2018-11-24T22:44:39Z</time>
      </trkpt>
      <trkpt lat="42.8508" lon="0.69182">
        <ele>1637.5</ele>
        <time>2018-11-24T22:44:39Z</time>
      </trkpt>
      <trkpt lat="42.85081" lon="0.6918">
        <ele>1638.3</ele>
        <time>2018-11-24T22:44:40Z</time>
      </trkpt>
      <trkpt lat="42.85082" lon="0.69177">
        <ele>1639.2</ele>
        <time>2018-11-24T22:44:41Z</time>
      </trkpt>
      <trkpt lat="42.85084" lon="0.69175">
        <ele>1640.3</ele>
        <time>2018-11-24T22:44:42Z</time>
      </trkpt>
      <trkpt lat="42.85085" lon="0.69173">
        <ele>1641</ele>
        <time>2018-11-24T22:44:43Z</time>
      </trkpt>
      <trkpt lat="42.85087" lon="0.69171">
        <ele>1642.1</ele>
        <time>2018-11-24T22:44:44Z</time>
      </trkpt>
      <trkpt lat="42.85089" lon="0.69169">
        <ele>1642.9</ele>
        <time>2018-11-24T22:44:45Z</time>
      </trkpt>
      <trkpt lat="42.85092" lon="0.69167">
        <ele>1643.7</ele>
        <time>2018-11-24T22:44:46Z</time>
      </trkpt>
      <trkpt lat="42.85093" lon="0.69166">
        <ele>1644.5</ele>
        <time>2018-11-24T22:44:47Z</time>
      </trkpt>
      <trkpt lat="42.85095" lon="0.69163">
        <ele>1645.5</ele>
        <time>2018-11-24T22:44:48Z</time>
      </trkpt>
      <trkpt lat="42.85096" lon="0.69161">
        <ele>1646.4</ele>
        <time>2018-11-24T22:44:48Z</time>
      </trkpt>
      <trkpt lat="42.85098" lon="0.6916">
        <ele>1647.4</ele>
        <time>2018-11-24T22:44:49Z</time>
      </trkpt>
      <trkpt lat="42.851" lon="0.69158">
        <ele>1647.9</ele>
        <time>2018-11-24T22:44:50Z</time>
      </trkpt>
      <trkpt lat="42.85101" lon="0.69158">
        <ele>1648.4</ele>
        <time>2018-11-24T22:44:51Z</time>
      </trkpt>
      <trkpt lat="42.85103" lon="0.69156">
        <ele>1649.1</ele>
        <time>2018-11-24T22:44:52Z</time>
      </trkpt>
      <trkpt lat="42.85105" lon="0.69156">
        <ele>1649.4</ele>
        <time>2018-11-24T22:44:52Z</time>
      </trkpt>
      <trkpt lat="42.85107" lon="0.69156">
        <ele>1649.5</ele>
        <time>2018-11-24T22:44:53Z</time>
      </trkpt>
      <trkpt lat="42.85109" lon="0.69155">
        <ele>1650.3</ele>
        <time>2018-11-24T22:44:54Z</time>
      </trkpt>
      <trkpt lat="42.85111" lon="0.69155">
        <ele>1650.8</ele>
        <time>2018-11-24T22:44:55Z</time>
      </trkpt>
      <trkpt lat="42.85113" lon="0.69154">
        <ele>1651.4</ele>
        <time>2018-11-24T22:44:56Z</time>
      </trkpt>
      <trkpt lat="42.85115" lon="0.69153">
        <ele>1652.3</ele>
        <time>2018-11-24T22:44:57Z</time>
      </trkpt>
      <trkpt lat="42.85118" lon="0.69152">
        <ele>1653</ele>
        <time>2018-11-24T22:44:58Z</time>
      </trkpt>
      <trkpt lat="42.8512" lon="0.69151">
        <ele>1653.6</ele>
        <time>2018-11-24T22:44:59Z</time>
      </trkpt>
      <trkpt lat="42.85122" lon="0.6915">
        <ele>1654.4</ele>
        <time>2018-11-24T22:44:59Z</time>
      </trkpt>
      <trkpt lat="42.85124" lon="0.69149">
        <ele>1654.9</ele>
        <time>2018-11-24T22:45:00Z</time>
      </trkpt>
      <trkpt lat="42.85125" lon="0.69148">
        <ele>1655.6</ele>
        <time>2018-11-24T22:45:01Z</time>
      </trkpt>
      <trkpt lat="42.85127" lon="0.69147">
        <ele>1656.3</ele>
        <time>2018-11-24T22:45:02Z</time>
      </trkpt>
      <trkpt lat="42.85129" lon="0.69148">
        <ele>1656.6</ele>
        <time>2018-11-24T22:45:02Z</time>
      </trkpt>
      <trkpt lat="42.85131" lon="0.69149">
        <ele>1656.3</ele>
        <time>2018-11-24T22:45:03Z</time>
      </trkpt>
      <trkpt lat="42.85133" lon="0.69149">
        <ele>1656.8</ele>
        <time>2018-11-24T22:45:04Z</time>
      </trkpt>
      <trkpt lat="42.85136" lon="0.6915">
        <ele>1657.1</ele>
        <time>2018-11-24T22:45:05Z</time>
      </trkpt>
      <trkpt lat="42.85138" lon="0.69148">
        <ele>1658</ele>
        <time>2018-11-24T22:45:06Z</time>
      </trkpt>
      <trkpt lat="42.85139" lon="0.69147">
        <ele>1658.9</ele>
        <time>2018-11-24T22:45:07Z</time>
      </trkpt>
      <trkpt lat="42.85141" lon="0.69145">
        <ele>1660.4</ele>
        <time>2018-11-24T22:45:08Z</time>
      </trkpt>
      <trkpt lat="42.85143" lon="0.69145">
        <ele>1660.3</ele>
        <time>2018-11-24T22:45:08Z</time>
      </trkpt>
      <trkpt lat="42.85145" lon="0.69146">
        <ele>1660.5</ele>
        <time>2018-11-24T22:45:09Z</time>
      </trkpt>
      <trkpt lat="42.85147" lon="0.69146">
        <ele>1660.8</ele>
        <time>2018-11-24T22:45:10Z</time>
      </trkpt>
      <trkpt lat="42.85149" lon="0.69147">
        <ele>1661.2</ele>
        <time>2018-11-24T22:45:11Z</time>
      </trkpt>
      <trkpt lat="42.85151" lon="0.69147">
        <ele>1662</ele>
        <time>2018-11-24T22:45:12Z</time>
      </trkpt>
      <trkpt lat="42.85154" lon="0.69147">
        <ele>1662.6</ele>
        <time>2018-11-24T22:45:13Z</time>
      </trkpt>
      <trkpt lat="42.85156" lon="0.69146">
        <ele>1663.3</ele>
        <time>2018-11-24T22:45:14Z</time>
      </trkpt>
      <trkpt lat="42.85159" lon="0.69146">
        <ele>1664.1</ele>
        <time>2018-11-24T22:45:15Z</time>
      </trkpt>
      <trkpt lat="42.8516" lon="0.69146">
        <ele>1664.7</ele>
        <time>2018-11-24T22:45:16Z</time>
      </trkpt>
      <trkpt lat="42.85163" lon="0.69145">
        <ele>1665.5</ele>
        <time>2018-11-24T22:45:16Z</time>
      </trkpt>
      <trkpt lat="42.85164" lon="0.69147">
        <ele>1665.6</ele>
        <time>2018-11-24T22:45:17Z</time>
      </trkpt>
      <trkpt lat="42.85166" lon="0.69147">
        <ele>1666</ele>
        <time>2018-11-24T22:45:18Z</time>
      </trkpt>
      <trkpt lat="42.85169" lon="0.69147">
        <ele>1666.8</ele>
        <time>2018-11-24T22:45:19Z</time>
      </trkpt>
      <trkpt lat="42.8517" lon="0.69146">
        <ele>1667.8</ele>
        <time>2018-11-24T22:45:20Z</time>
      </trkpt>
      <trkpt lat="42.85172" lon="0.69145">
        <ele>1668.8</ele>
        <time>2018-11-24T22:45:21Z</time>
      </trkpt>
      <trkpt lat="42.85175" lon="0.69145">
        <ele>1670.3</ele>
        <time>2018-11-24T22:45:22Z</time>
      </trkpt>
      <trkpt lat="42.85177" lon="0.69144">
        <ele>1670.5</ele>
        <time>2018-11-24T22:45:23Z</time>
      </trkpt>
      <trkpt lat="42.85179" lon="0.69143">
        <ele>1671.9</ele>
        <time>2018-11-24T22:45:24Z</time>
      </trkpt>
      <trkpt lat="42.85182" lon="0.69141">
        <ele>1673.2</ele>
        <time>2018-11-24T22:45:25Z</time>
      </trkpt>
      <trkpt lat="42.85184" lon="0.6914">
        <ele>1674.2</ele>
        <time>2018-11-24T22:45:25Z</time>
      </trkpt>
      <trkpt lat="42.85185" lon="0.69138">
        <ele>1675.3</ele>
        <time>2018-11-24T22:45:26Z</time>
      </trkpt>
      <trkpt lat="42.85187" lon="0.69136">
        <ele>1676.6</ele>
        <time>2018-11-24T22:45:27Z</time>
      </trkpt>
      <trkpt lat="42.85189" lon="0.69135">
        <ele>1677.7</ele>
        <time>2018-11-24T22:45:28Z</time>
      </trkpt>
      <trkpt lat="42.85191" lon="0.69133">
        <ele>1678.9</ele>
        <time>2018-11-24T22:45:29Z</time>
      </trkpt>
      <trkpt lat="42.85192" lon="0.69131">
        <ele>1680.1</ele>
        <time>2018-11-24T22:45:30Z</time>
      </trkpt>
      <trkpt lat="42.85193" lon="0.69129">
        <ele>1681.1</ele>
        <time>2018-11-24T22:45:30Z</time>
      </trkpt>
      <trkpt lat="42.85195" lon="0.69128">
        <ele>1682.1</ele>
        <time>2018-11-24T22:45:31Z</time>
      </trkpt>
      <trkpt lat="42.85198" lon="0.69128">
        <ele>1683.1</ele>
        <time>2018-11-24T22:45:32Z</time>
      </trkpt>
      <trkpt lat="42.85198" lon="0.6913">
        <ele>1682.4</ele>
        <time>2018-11-24T22:45:33Z</time>
      </trkpt>
      <trkpt lat="42.85198" lon="0.69134">
        <ele>1681.7</ele>
        <time>2018-11-24T22:45:34Z</time>
      </trkpt>
      <trkpt lat="42.85199" lon="0.69137">
        <ele>1681.4</ele>
        <time>2018-11-24T22:45:35Z</time>
      </trkpt>
      <trkpt lat="42.852" lon="0.69139">
        <ele>1680.9</ele>
        <time>2018-11-24T22:45:36Z</time>
      </trkpt>
      <trkpt lat="42.852" lon="0.69143">
        <ele>1680.2</ele>
        <time>2018-11-24T22:45:37Z</time>
      </trkpt>
      <trkpt lat="42.85201" lon="0.69146">
        <ele>1679.4</ele>
        <time>2018-11-24T22:45:38Z</time>
      </trkpt>
      <trkpt lat="42.85201" lon="0.69149">
        <ele>1679.1</ele>
        <time>2018-11-24T22:45:39Z</time>
      </trkpt>
      <trkpt lat="42.85202" lon="0.69152">
        <ele>1678.5</ele>
        <time>2018-11-24T22:45:40Z</time>
      </trkpt>
      <trkpt lat="42.85203" lon="0.69155">
        <ele>1678.4</ele>
        <time>2018-11-24T22:45:41Z</time>
      </trkpt>
      <trkpt lat="42.85204" lon="0.69158">
        <ele>1678.3</ele>
        <time>2018-11-24T22:45:42Z</time>
      </trkpt>
      <trkpt lat="42.85205" lon="0.6916">
        <ele>1678.6</ele>
        <time>2018-11-24T22:45:42Z</time>
      </trkpt>
      <trkpt lat="42.85206" lon="0.69163">
        <ele>1678.5</ele>
        <time>2018-11-24T22:45:43Z</time>
      </trkpt>
      <trkpt lat="42.85206" lon="0.69166">
        <ele>1678</ele>
        <time>2018-11-24T22:45:44Z</time>
      </trkpt>
      <trkpt lat="42.85207" lon="0.69169">
        <ele>1677.6</ele>
        <time>2018-11-24T22:45:45Z</time>
      </trkpt>
      <trkpt lat="42.85207" lon="0.69171">
        <ele>1677.5</ele>
        <time>2018-11-24T22:45:46Z</time>
      </trkpt>
      <trkpt lat="42.85208" lon="0.69174">
        <ele>1677.1</ele>
        <time>2018-11-24T22:45:47Z</time>
      </trkpt>
      <trkpt lat="42.85208" lon="0.69178">
        <ele>1676.8</ele>
        <time>2018-11-24T22:45:48Z</time>
      </trkpt>
      <trkpt lat="42.8521" lon="0.6918">
        <ele>1677.1</ele>
        <time>2018-11-24T22:45:49Z</time>
      </trkpt>
      <trkpt lat="42.85211" lon="0.69183">
        <ele>1677.6</ele>
        <time>2018-11-24T22:45:50Z</time>
      </trkpt>
      <trkpt lat="42.85213" lon="0.69185">
        <ele>1678.1</ele>
        <time>2018-11-24T22:45:51Z</time>
      </trkpt>
      <trkpt lat="42.85213" lon="0.69189">
        <ele>1677.3</ele>
        <time>2018-11-24T22:45:52Z</time>
      </trkpt>
      <trkpt lat="42.85213" lon="0.69192">
        <ele>1677.2</ele>
        <time>2018-11-24T22:45:53Z</time>
      </trkpt>
      <trkpt lat="42.85214" lon="0.69195">
        <ele>1677</ele>
        <time>2018-11-24T22:45:54Z</time>
      </trkpt>
      <trkpt lat="42.85214" lon="0.69198">
        <ele>1676.8</ele>
        <time>2018-11-24T22:45:55Z</time>
      </trkpt>
      <trkpt lat="42.85215" lon="0.69202">
        <ele>1676.8</ele>
        <time>2018-11-24T22:45:56Z</time>
      </trkpt>
      <trkpt lat="42.85216" lon="0.69205">
        <ele>1677</ele>
        <time>2018-11-24T22:45:57Z</time>
      </trkpt>
      <trkpt lat="42.85217" lon="0.69207">
        <ele>1677.6</ele>
        <time>2018-11-24T22:45:57Z</time>
      </trkpt>
      <trkpt lat="42.85217" lon="0.69211">
        <ele>1677.1</ele>
        <time>2018-11-24T22:45:59Z</time>
      </trkpt>
      <trkpt lat="42.85218" lon="0.69214">
        <ele>1676.9</ele>
        <time>2018-11-24T22:45:59Z</time>
      </trkpt>
      <trkpt lat="42.85218" lon="0.69217">
        <ele>1676.8</ele>
        <time>2018-11-24T22:46:00Z</time>
      </trkpt>
      <trkpt lat="42.85219" lon="0.6922">
        <ele>1676.8</ele>
        <time>2018-11-24T22:46:01Z</time>
      </trkpt>
      <trkpt lat="42.85219" lon="0.69222">
        <ele>1676.8</ele>
        <time>2018-11-24T22:46:02Z</time>
      </trkpt>
      <trkpt lat="42.8522" lon="0.69225">
        <ele>1677</ele>
        <time>2018-11-24T22:46:03Z</time>
      </trkpt>
      <trkpt lat="42.85222" lon="0.69229">
        <ele>1677.4</ele>
        <time>2018-11-24T22:46:04Z</time>
      </trkpt>
      <trkpt lat="42.85223" lon="0.69234">
        <ele>1677.3</ele>
        <time>2018-11-24T22:46:06Z</time>
      </trkpt>
      <trkpt lat="42.85224" lon="0.69238">
        <ele>1677.5</ele>
        <time>2018-11-24T22:46:07Z</time>
      </trkpt>
      <trkpt lat="42.85224" lon="0.6924">
        <ele>1677.3</ele>
        <time>2018-11-24T22:46:08Z</time>
      </trkpt>
      <trkpt lat="42.85224" lon="0.69243">
        <ele>1677.3</ele>
        <time>2018-11-24T22:46:09Z</time>
      </trkpt>
      <trkpt lat="42.85226" lon="0.69247">
        <ele>1677.5</ele>
        <time>2018-11-24T22:46:10Z</time>
      </trkpt>
      <trkpt lat="42.85228" lon="0.6925">
        <ele>1678.4</ele>
        <time>2018-11-24T22:46:11Z</time>
      </trkpt>
      <trkpt lat="42.85229" lon="0.69252">
        <ele>1679.1</ele>
        <time>2018-11-24T22:46:12Z</time>
      </trkpt>
      <trkpt lat="42.85231" lon="0.69254">
        <ele>1680.1</ele>
        <time>2018-11-24T22:46:13Z</time>
      </trkpt>
      <trkpt lat="42.85233" lon="0.69256">
        <ele>1680.9</ele>
        <time>2018-11-24T22:46:14Z</time>
      </trkpt>
      <trkpt lat="42.85233" lon="0.69259">
        <ele>1680.7</ele>
        <time>2018-11-24T22:46:15Z</time>
      </trkpt>
      <trkpt lat="42.85234" lon="0.69262">
        <ele>1681.1</ele>
        <time>2018-11-24T22:46:16Z</time>
      </trkpt>
      <trkpt lat="42.85236" lon="0.69264">
        <ele>1681.6</ele>
        <time>2018-11-24T22:46:16Z</time>
      </trkpt>
      <trkpt lat="42.85236" lon="0.69266">
        <ele>1681.6</ele>
        <time>2018-11-24T22:46:17Z</time>
      </trkpt>
      <trkpt lat="42.85237" lon="0.69269">
        <ele>1682.1</ele>
        <time>2018-11-24T22:46:18Z</time>
      </trkpt>
      <trkpt lat="42.85239" lon="0.69272">
        <ele>1682.4</ele>
        <time>2018-11-24T22:46:19Z</time>
      </trkpt>
      <trkpt lat="42.8524" lon="0.69274">
        <ele>1682.6</ele>
        <time>2018-11-24T22:46:20Z</time>
      </trkpt>
      <trkpt lat="42.85241" lon="0.69277">
        <ele>1682.9</ele>
        <time>2018-11-24T22:46:21Z</time>
      </trkpt>
      <trkpt lat="42.85242" lon="0.6928">
        <ele>1683.3</ele>
        <time>2018-11-24T22:46:22Z</time>
      </trkpt>
      <trkpt lat="42.85243" lon="0.69283">
        <ele>1683.3</ele>
        <time>2018-11-24T22:46:23Z</time>
      </trkpt>
      <trkpt lat="42.85243" lon="0.69285">
        <ele>1683.2</ele>
        <time>2018-11-24T22:46:23Z</time>
      </trkpt>
      <trkpt lat="42.85244" lon="0.69288">
        <ele>1683.4</ele>
        <time>2018-11-24T22:46:24Z</time>
      </trkpt>
      <trkpt lat="42.85245" lon="0.69291">
        <ele>1683.3</ele>
        <time>2018-11-24T22:46:25Z</time>
      </trkpt>
      <trkpt lat="42.85245" lon="0.69294">
        <ele>1682.9</ele>
        <time>2018-11-24T22:46:26Z</time>
      </trkpt>
      <trkpt lat="42.85245" lon="0.69297">
        <ele>1682.5</ele>
        <time>2018-11-24T22:46:27Z</time>
      </trkpt>
      <trkpt lat="42.85246" lon="0.69301">
        <ele>1681.8</ele>
        <time>2018-11-24T22:46:28Z</time>
      </trkpt>
      <trkpt lat="42.85247" lon="0.69304">
        <ele>1682.1</ele>
        <time>2018-11-24T22:46:29Z</time>
      </trkpt>
      <trkpt lat="42.85248" lon="0.69305">
        <ele>1682.6</ele>
        <time>2018-11-24T22:46:30Z</time>
      </trkpt>
      <trkpt lat="42.85249" lon="0.69308">
        <ele>1682.7</ele>
        <time>2018-11-24T22:46:31Z</time>
      </trkpt>
      <trkpt lat="42.8525" lon="0.6931">
        <ele>1682.8</ele>
        <time>2018-11-24T22:46:31Z</time>
      </trkpt>
      <trkpt lat="42.85251" lon="0.69313">
        <ele>1683.2</ele>
        <time>2018-11-24T22:46:32Z</time>
      </trkpt>
      <trkpt lat="42.85252" lon="0.69315">
        <ele>1683.3</ele>
        <time>2018-11-24T22:46:33Z</time>
      </trkpt>
      <trkpt lat="42.85255" lon="0.69317">
        <ele>1684.2</ele>
        <time>2018-11-24T22:46:34Z</time>
      </trkpt>
      <trkpt lat="42.85256" lon="0.69319">
        <ele>1684.3</ele>
        <time>2018-11-24T22:46:35Z</time>
      </trkpt>
      <trkpt lat="42.85257" lon="0.69322">
        <ele>1684.5</ele>
        <time>2018-11-24T22:46:36Z</time>
      </trkpt>
      <trkpt lat="42.85258" lon="0.69324">
        <ele>1684.8</ele>
        <time>2018-11-24T22:46:37Z</time>
      </trkpt>
      <trkpt lat="42.85259" lon="0.69328">
        <ele>1684.4</ele>
        <time>2018-11-24T22:46:38Z</time>
      </trkpt>
      <trkpt lat="42.85261" lon="0.6933">
        <ele>1684.6</ele>
        <time>2018-11-24T22:46:39Z</time>
      </trkpt>
      <trkpt lat="42.85262" lon="0.69332">
        <ele>1684.6</ele>
        <time>2018-11-24T22:46:39Z</time>
      </trkpt>
      <trkpt lat="42.85263" lon="0.69335">
        <ele>1685</ele>
        <time>2018-11-24T22:46:40Z</time>
      </trkpt>
      <trkpt lat="42.85265" lon="0.69337">
        <ele>1685</ele>
        <time>2018-11-24T22:46:41Z</time>
      </trkpt>
      <trkpt lat="42.85266" lon="0.69339">
        <ele>1685.3</ele>
        <time>2018-11-24T22:46:42Z</time>
      </trkpt>
      <trkpt lat="42.85268" lon="0.6934">
        <ele>1685.8</ele>
        <time>2018-11-24T22:46:43Z</time>
      </trkpt>
      <trkpt lat="42.8527" lon="0.69341">
        <ele>1686.5</ele>
        <time>2018-11-24T22:46:44Z</time>
      </trkpt>
      <trkpt lat="42.85272" lon="0.69342">
        <ele>1687.3</ele>
        <time>2018-11-24T22:46:45Z</time>
      </trkpt>
      <trkpt lat="42.85273" lon="0.69344">
        <ele>1687.3</ele>
        <time>2018-11-24T22:46:45Z</time>
      </trkpt>
      <trkpt lat="42.85274" lon="0.69347">
        <ele>1686.7</ele>
        <time>2018-11-24T22:46:46Z</time>
      </trkpt>
      <trkpt lat="42.85274" lon="0.6935">
        <ele>1686.4</ele>
        <time>2018-11-24T22:46:47Z</time>
      </trkpt>
      <trkpt lat="42.85275" lon="0.69353">
        <ele>1685.8</ele>
        <time>2018-11-24T22:46:48Z</time>
      </trkpt>
      <trkpt lat="42.85276" lon="0.69356">
        <ele>1685.4</ele>
        <time>2018-11-24T22:46:49Z</time>
      </trkpt>
      <trkpt lat="42.85277" lon="0.69358">
        <ele>1685.2</ele>
        <time>2018-11-24T22:46:50Z</time>
      </trkpt>
      <trkpt lat="42.8528" lon="0.6936">
        <ele>1685.7</ele>
        <time>2018-11-24T22:46:51Z</time>
      </trkpt>
      <trkpt lat="42.85282" lon="0.69361">
        <ele>1686.3</ele>
        <time>2018-11-24T22:46:52Z</time>
      </trkpt>
      <trkpt lat="42.85284" lon="0.69363">
        <ele>1686.3</ele>
        <time>2018-11-24T22:46:53Z</time>
      </trkpt>
      <trkpt lat="42.85285" lon="0.69365">
        <ele>1686.6</ele>
        <time>2018-11-24T22:46:54Z</time>
      </trkpt>
      <trkpt lat="42.85286" lon="0.69367">
        <ele>1686.4</ele>
        <time>2018-11-24T22:46:54Z</time>
      </trkpt>
      <trkpt lat="42.85288" lon="0.69368">
        <ele>1686.6</ele>
        <time>2018-11-24T22:46:55Z</time>
      </trkpt>
      <trkpt lat="42.8529" lon="0.69369">
        <ele>1687.3</ele>
        <time>2018-11-24T22:46:56Z</time>
      </trkpt>
      <trkpt lat="42.85293" lon="0.69369">
        <ele>1688.3</ele>
        <time>2018-11-24T22:46:57Z</time>
      </trkpt>
      <trkpt lat="42.85296" lon="0.69371">
        <ele>1688.8</ele>
        <time>2018-11-24T22:46:58Z</time>
      </trkpt>
      <trkpt lat="42.85298" lon="0.69372">
        <ele>1689.3</ele>
        <time>2018-11-24T22:46:59Z</time>
      </trkpt>
      <trkpt lat="42.853" lon="0.69373">
        <ele>1689.6</ele>
        <time>2018-11-24T22:47:00Z</time>
      </trkpt>
      <trkpt lat="42.85303" lon="0.69374">
        <ele>1690</ele>
        <time>2018-11-24T22:47:01Z</time>
      </trkpt>
      <trkpt lat="42.85304" lon="0.69375">
        <ele>1690.6</ele>
        <time>2018-11-24T22:47:02Z</time>
      </trkpt>
      <trkpt lat="42.85307" lon="0.69376">
        <ele>1691.3</ele>
        <time>2018-11-24T22:47:03Z</time>
      </trkpt>
      <trkpt lat="42.85309" lon="0.69376">
        <ele>1691.9</ele>
        <time>2018-11-24T22:47:04Z</time>
      </trkpt>
      <trkpt lat="42.85311" lon="0.69377">
        <ele>1692.4</ele>
        <time>2018-11-24T22:47:05Z</time>
      </trkpt>
      <trkpt lat="42.85313" lon="0.69377">
        <ele>1693.2</ele>
        <time>2018-11-24T22:47:06Z</time>
      </trkpt>
      <trkpt lat="42.85316" lon="0.69379">
        <ele>1693.7</ele>
        <time>2018-11-24T22:47:07Z</time>
      </trkpt>
      <trkpt lat="42.85318" lon="0.69379">
        <ele>1694.3</ele>
        <time>2018-11-24T22:47:08Z</time>
      </trkpt>
      <trkpt lat="42.8532" lon="0.6938">
        <ele>1694.9</ele>
        <time>2018-11-24T22:47:08Z</time>
      </trkpt>
      <trkpt lat="42.85322" lon="0.69379">
        <ele>1696</ele>
        <time>2018-11-24T22:47:09Z</time>
      </trkpt>
      <trkpt lat="42.85324" lon="0.69378">
        <ele>1697.2</ele>
        <time>2018-11-24T22:47:10Z</time>
      </trkpt>
      <trkpt lat="42.85326" lon="0.69376">
        <ele>1698.7</ele>
        <time>2018-11-24T22:47:11Z</time>
      </trkpt>
      <trkpt lat="42.85328" lon="0.69376">
        <ele>1700.2</ele>
        <time>2018-11-24T22:47:12Z</time>
      </trkpt>
      <trkpt lat="42.8533" lon="0.69377">
        <ele>1700.3</ele>
        <time>2018-11-24T22:47:13Z</time>
      </trkpt>
      <trkpt lat="42.85332" lon="0.69377">
        <ele>1701.1</ele>
        <time>2018-11-24T22:47:14Z</time>
      </trkpt>
      <trkpt lat="42.85335" lon="0.69377">
        <ele>1702.3</ele>
        <time>2018-11-24T22:47:15Z</time>
      </trkpt>
      <trkpt lat="42.85337" lon="0.69377">
        <ele>1703.4</ele>
        <time>2018-11-24T22:47:16Z</time>
      </trkpt>
      <trkpt lat="42.85339" lon="0.69377">
        <ele>1704</ele>
        <time>2018-11-24T22:47:16Z</time>
      </trkpt>
      <trkpt lat="42.85341" lon="0.69378">
        <ele>1704.7</ele>
        <time>2018-11-24T22:47:17Z</time>
      </trkpt>
      <trkpt lat="42.85344" lon="0.69379">
        <ele>1705.3</ele>
        <time>2018-11-24T22:47:18Z</time>
      </trkpt>
      <trkpt lat="42.85346" lon="0.69379">
        <ele>1706.5</ele>
        <time>2018-11-24T22:47:19Z</time>
      </trkpt>
      <trkpt lat="42.85348" lon="0.69377">
        <ele>1708.1</ele>
        <time>2018-11-24T22:47:20Z</time>
      </trkpt>
      <trkpt lat="42.8535" lon="0.69378">
        <ele>1708.7</ele>
        <time>2018-11-24T22:47:21Z</time>
      </trkpt>
      <trkpt lat="42.85352" lon="0.69378">
        <ele>1709.6</ele>
        <time>2018-11-24T22:47:22Z</time>
      </trkpt>
      <trkpt lat="42.85354" lon="0.69378">
        <ele>1710.6</ele>
        <time>2018-11-24T22:47:23Z</time>
      </trkpt>
      <trkpt lat="42.85356" lon="0.69379">
        <ele>1711.5</ele>
        <time>2018-11-24T22:47:24Z</time>
      </trkpt>
      <trkpt lat="42.85359" lon="0.69379">
        <ele>1712.1</ele>
        <time>2018-11-24T22:47:25Z</time>
      </trkpt>
      <trkpt lat="42.85361" lon="0.6938">
        <ele>1712.7</ele>
        <time>2018-11-24T22:47:26Z</time>
      </trkpt>
      <trkpt lat="42.85363" lon="0.6938">
        <ele>1713.6</ele>
        <time>2018-11-24T22:47:26Z</time>
      </trkpt>
      <trkpt lat="42.85365" lon="0.6938">
        <ele>1715</ele>
        <time>2018-11-24T22:47:27Z</time>
      </trkpt>
      <trkpt lat="42.85367" lon="0.69379">
        <ele>1716.5</ele>
        <time>2018-11-24T22:47:28Z</time>
      </trkpt>
      <trkpt lat="42.8537" lon="0.6938">
        <ele>1717.3</ele>
        <time>2018-11-24T22:47:29Z</time>
      </trkpt>
      <trkpt lat="42.85372" lon="0.69379">
        <ele>1718.8</ele>
        <time>2018-11-24T22:47:30Z</time>
      </trkpt>
      <trkpt lat="42.85374" lon="0.69379">
        <ele>1719.9</ele>
        <time>2018-11-24T22:47:31Z</time>
      </trkpt>
      <trkpt lat="42.85376" lon="0.69378">
        <ele>1721.2</ele>
        <time>2018-11-24T22:47:32Z</time>
      </trkpt>
      <trkpt lat="42.85379" lon="0.69378">
        <ele>1722.4</ele>
        <time>2018-11-24T22:47:33Z</time>
      </trkpt>
      <trkpt lat="42.8538" lon="0.69377">
        <ele>1723.5</ele>
        <time>2018-11-24T22:47:34Z</time>
      </trkpt>
      <trkpt lat="42.85382" lon="0.69377">
        <ele>1724.7</ele>
        <time>2018-11-24T22:47:34Z</time>
      </trkpt>
      <trkpt lat="42.85385" lon="0.69377">
        <ele>1726</ele>
        <time>2018-11-24T22:47:35Z</time>
      </trkpt>
      <trkpt lat="42.85387" lon="0.69376">
        <ele>1727.1</ele>
        <time>2018-11-24T22:47:36Z</time>
      </trkpt>
      <trkpt lat="42.85389" lon="0.69375">
        <ele>1728.7</ele>
        <time>2018-11-24T22:47:37Z</time>
      </trkpt>
      <trkpt lat="42.85391" lon="0.69374">
        <ele>1729.8</ele>
        <time>2018-11-24T22:47:38Z</time>
      </trkpt>
      <trkpt lat="42.85392" lon="0.69372">
        <ele>1731.2</ele>
        <time>2018-11-24T22:47:39Z</time>
      </trkpt>
      <trkpt lat="42.85394" lon="0.69372">
        <ele>1732.2</ele>
        <time>2018-11-24T22:47:39Z</time>
      </trkpt>
      <trkpt lat="42.85396" lon="0.6937">
        <ele>1733.7</ele>
        <time>2018-11-24T22:47:40Z</time>
      </trkpt>
      <trkpt lat="42.85397" lon="0.69371">
        <ele>1734.2</ele>
        <time>2018-11-24T22:47:41Z</time>
      </trkpt>
      <trkpt lat="42.85399" lon="0.69373">
        <ele>1734.1</ele>
        <time>2018-11-24T22:47:42Z</time>
      </trkpt>
      <trkpt lat="42.85401" lon="0.69374">
        <ele>1734.9</ele>
        <time>2018-11-24T22:47:43Z</time>
      </trkpt>
      <trkpt lat="42.85404" lon="0.69373">
        <ele>1736</ele>
        <time>2018-11-24T22:47:44Z</time>
      </trkpt>
      <trkpt lat="42.85406" lon="0.69374">
        <ele>1736.8</ele>
        <time>2018-11-24T22:47:45Z</time>
      </trkpt>
      <trkpt lat="42.85408" lon="0.69375">
        <ele>1737.5</ele>
        <time>2018-11-24T22:47:46Z</time>
      </trkpt>
      <trkpt lat="42.8541" lon="0.69376">
        <ele>1737.6</ele>
        <time>2018-11-24T22:47:46Z</time>
      </trkpt>
      <trkpt lat="42.85412" lon="0.69377">
        <ele>1738.2</ele>
        <time>2018-11-24T22:47:47Z</time>
      </trkpt>
      <trkpt lat="42.85414" lon="0.69378">
        <ele>1739</ele>
        <time>2018-11-24T22:47:48Z</time>
      </trkpt>
      <trkpt lat="42.85417" lon="0.69379">
        <ele>1739.5</ele>
        <time>2018-11-24T22:47:49Z</time>
      </trkpt>
      <trkpt lat="42.85419" lon="0.6938">
        <ele>1740.1</ele>
        <time>2018-11-24T22:47:50Z</time>
      </trkpt>
      <trkpt lat="42.85421" lon="0.69382">
        <ele>1740.4</ele>
        <time>2018-11-24T22:47:51Z</time>
      </trkpt>
      <trkpt lat="42.85423" lon="0.69383">
        <ele>1741.2</ele>
        <time>2018-11-24T22:47:52Z</time>
      </trkpt>
      <trkpt lat="42.85426" lon="0.69383">
        <ele>1742.1</ele>
        <time>2018-11-24T22:47:53Z</time>
      </trkpt>
      <trkpt lat="42.85429" lon="0.69383">
        <ele>1743.3</ele>
        <time>2018-11-24T22:47:54Z</time>
      </trkpt>
      <trkpt lat="42.85431" lon="0.69384">
        <ele>1744.3</ele>
        <time>2018-11-24T22:47:55Z</time>
      </trkpt>
      <trkpt lat="42.85433" lon="0.69384">
        <ele>1745.1</ele>
        <time>2018-11-24T22:47:56Z</time>
      </trkpt>
      <trkpt lat="42.85436" lon="0.69385">
        <ele>1746</ele>
        <time>2018-11-24T22:47:57Z</time>
      </trkpt>
      <trkpt lat="42.85438" lon="0.69385">
        <ele>1746.7</ele>
        <time>2018-11-24T22:47:58Z</time>
      </trkpt>
      <trkpt lat="42.8544" lon="0.69386">
        <ele>1747.1</ele>
        <time>2018-11-24T22:47:59Z</time>
      </trkpt>
      <trkpt lat="42.85442" lon="0.69386">
        <ele>1748.1</ele>
        <time>2018-11-24T22:48:00Z</time>
      </trkpt>
      <trkpt lat="42.85444" lon="0.69387">
        <ele>1748.7</ele>
        <time>2018-11-24T22:48:01Z</time>
      </trkpt>
      <trkpt lat="42.85446" lon="0.69388">
        <ele>1749.1</ele>
        <time>2018-11-24T22:48:01Z</time>
      </trkpt>
      <trkpt lat="42.85448" lon="0.6939">
        <ele>1749.7</ele>
        <time>2018-11-24T22:48:02Z</time>
      </trkpt>
      <trkpt lat="42.8545" lon="0.69391">
        <ele>1750</ele>
        <time>2018-11-24T22:48:03Z</time>
      </trkpt>
      <trkpt lat="42.85452" lon="0.69391">
        <ele>1750.9</ele>
        <time>2018-11-24T22:48:04Z</time>
      </trkpt>
      <trkpt lat="42.85454" lon="0.69392">
        <ele>1751.2</ele>
        <time>2018-11-24T22:48:05Z</time>
      </trkpt>
      <trkpt lat="42.85456" lon="0.69393">
        <ele>1751.8</ele>
        <time>2018-11-24T22:48:06Z</time>
      </trkpt>
      <trkpt lat="42.85458" lon="0.69393">
        <ele>1752.6</ele>
        <time>2018-11-24T22:48:06Z</time>
      </trkpt>
      <trkpt lat="42.8546" lon="0.69395">
        <ele>1752.6</ele>
        <time>2018-11-24T22:48:07Z</time>
      </trkpt>
      <trkpt lat="42.85461" lon="0.69397">
        <ele>1752.9</ele>
        <time>2018-11-24T22:48:08Z</time>
      </trkpt>
      <trkpt lat="42.85463" lon="0.69398">
        <ele>1753.2</ele>
        <time>2018-11-24T22:48:09Z</time>
      </trkpt>
      <trkpt lat="42.85464" lon="0.694">
        <ele>1753.5</ele>
        <time>2018-11-24T22:48:10Z</time>
      </trkpt>
      <trkpt lat="42.85466" lon="0.69403">
        <ele>1753.4</ele>
        <time>2018-11-24T22:48:11Z</time>
      </trkpt>
      <trkpt lat="42.85468" lon="0.69404">
        <ele>1753.8</ele>
        <time>2018-11-24T22:48:12Z</time>
      </trkpt>
      <trkpt lat="42.8547" lon="0.69406">
        <ele>1754.1</ele>
        <time>2018-11-24T22:48:13Z</time>
      </trkpt>
      <trkpt lat="42.85472" lon="0.69406">
        <ele>1755</ele>
        <time>2018-11-24T22:48:13Z</time>
      </trkpt>
      <trkpt lat="42.85473" lon="0.69408">
        <ele>1755.3</ele>
        <time>2018-11-24T22:48:14Z</time>
      </trkpt>
      <trkpt lat="42.85474" lon="0.69411">
        <ele>1754.9</ele>
        <time>2018-11-24T22:48:15Z</time>
      </trkpt>
      <trkpt lat="42.85476" lon="0.69413">
        <ele>1754.8</ele>
        <time>2018-11-24T22:48:16Z</time>
      </trkpt>
      <trkpt lat="42.85477" lon="0.69415">
        <ele>1755.3</ele>
        <time>2018-11-24T22:48:17Z</time>
      </trkpt>
      <trkpt lat="42.85479" lon="0.69417">
        <ele>1755.6</ele>
        <time>2018-11-24T22:48:18Z</time>
      </trkpt>
      <trkpt lat="42.85481" lon="0.69417">
        <ele>1756.3</ele>
        <time>2018-11-24T22:48:19Z</time>
      </trkpt>
      <trkpt lat="42.85483" lon="0.69418">
        <ele>1756.9</ele>
        <time>2018-11-24T22:48:19Z</time>
      </trkpt>
      <trkpt lat="42.85484" lon="0.6942">
        <ele>1757.3</ele>
        <time>2018-11-24T22:48:20Z</time>
      </trkpt>
      <trkpt lat="42.85486" lon="0.69422">
        <ele>1757.4</ele>
        <time>2018-11-24T22:48:21Z</time>
      </trkpt>
      <trkpt lat="42.85487" lon="0.69424">
        <ele>1757.6</ele>
        <time>2018-11-24T22:48:22Z</time>
      </trkpt>
      <trkpt lat="42.85488" lon="0.69427">
        <ele>1757.6</ele>
        <time>2018-11-24T22:48:23Z</time>
      </trkpt>
      <trkpt lat="42.8549" lon="0.69429">
        <ele>1757.7</ele>
        <time>2018-11-24T22:48:24Z</time>
      </trkpt>
      <trkpt lat="42.85491" lon="0.69431">
        <ele>1758</ele>
        <time>2018-11-24T22:48:24Z</time>
      </trkpt>
      <trkpt lat="42.85493" lon="0.69433">
        <ele>1758.5</ele>
        <time>2018-11-24T22:48:25Z</time>
      </trkpt>
      <trkpt lat="42.85495" lon="0.69435">
        <ele>1758.7</ele>
        <time>2018-11-24T22:48:26Z</time>
      </trkpt>
      <trkpt lat="42.85496" lon="0.69437">
        <ele>1758.8</ele>
        <time>2018-11-24T22:48:27Z</time>
      </trkpt>
      <trkpt lat="42.85497" lon="0.69439">
        <ele>1759.3</ele>
        <time>2018-11-24T22:48:28Z</time>
      </trkpt>
      <trkpt lat="42.85499" lon="0.69441">
        <ele>1759.2</ele>
        <time>2018-11-24T22:48:29Z</time>
      </trkpt>
      <trkpt lat="42.855" lon="0.69443">
        <ele>1759.2</ele>
        <time>2018-11-24T22:48:29Z</time>
      </trkpt>
      <trkpt lat="42.85501" lon="0.69445">
        <ele>1759.6</ele>
        <time>2018-11-24T22:48:30Z</time>
      </trkpt>
      <trkpt lat="42.85503" lon="0.69447">
        <ele>1760</ele>
        <time>2018-11-24T22:48:31Z</time>
      </trkpt>
      <trkpt lat="42.85504" lon="0.69449">
        <ele>1760.4</ele>
        <time>2018-11-24T22:48:32Z</time>
      </trkpt>
      <trkpt lat="42.85506" lon="0.69449">
        <ele>1761.2</ele>
        <time>2018-11-24T22:48:33Z</time>
      </trkpt>
      <trkpt lat="42.85508" lon="0.69449">
        <ele>1762.2</ele>
        <time>2018-11-24T22:48:33Z</time>
      </trkpt>
      <trkpt lat="42.85511" lon="0.6945">
        <ele>1763.1</ele>
        <time>2018-11-24T22:48:34Z</time>
      </trkpt>
      <trkpt lat="42.85513" lon="0.69451">
        <ele>1763.9</ele>
        <time>2018-11-24T22:48:35Z</time>
      </trkpt>
      <trkpt lat="42.85515" lon="0.69451">
        <ele>1765</ele>
        <time>2018-11-24T22:48:36Z</time>
      </trkpt>
      <trkpt lat="42.85517" lon="0.6945">
        <ele>1766.2</ele>
        <time>2018-11-24T22:48:37Z</time>
      </trkpt>
      <trkpt lat="42.85519" lon="0.6945">
        <ele>1767</ele>
        <time>2018-11-24T22:48:38Z</time>
      </trkpt>
      <trkpt lat="42.85522" lon="0.69451">
        <ele>1767.8</ele>
        <time>2018-11-24T22:48:39Z</time>
      </trkpt>
      <trkpt lat="42.85523" lon="0.69453">
        <ele>1767.9</ele>
        <time>2018-11-24T22:48:40Z</time>
      </trkpt>
      <trkpt lat="42.85524" lon="0.69455">
        <ele>1768</ele>
        <time>2018-11-24T22:48:40Z</time>
      </trkpt>
      <trkpt lat="42.85525" lon="0.69457">
        <ele>1768.2</ele>
        <time>2018-11-24T22:48:41Z</time>
      </trkpt>
      <trkpt lat="42.85527" lon="0.69459">
        <ele>1769</ele>
        <time>2018-11-24T22:48:42Z</time>
      </trkpt>
      <trkpt lat="42.85529" lon="0.69461">
        <ele>1769.3</ele>
        <time>2018-11-24T22:48:43Z</time>
      </trkpt>
      <trkpt lat="42.85531" lon="0.69463">
        <ele>1769.8</ele>
        <time>2018-11-24T22:48:44Z</time>
      </trkpt>
      <trkpt lat="42.85533" lon="0.69465">
        <ele>1769.9</ele>
        <time>2018-11-24T22:48:45Z</time>
      </trkpt>
      <trkpt lat="42.85534" lon="0.69468">
        <ele>1769.9</ele>
        <time>2018-11-24T22:48:46Z</time>
      </trkpt>
      <trkpt lat="42.85536" lon="0.6947">
        <ele>1769.4</ele>
        <time>2018-11-24T22:48:47Z</time>
      </trkpt>
      <trkpt lat="42.85538" lon="0.69471">
        <ele>1771.1</ele>
        <time>2018-11-24T22:48:48Z</time>
      </trkpt>
      <trkpt lat="42.8554" lon="0.69473">
        <ele>1771.5</ele>
        <time>2018-11-24T22:48:49Z</time>
      </trkpt>
      <trkpt lat="42.85541" lon="0.69474">
        <ele>1771.7</ele>
        <time>2018-11-24T22:48:50Z</time>
      </trkpt>
      <trkpt lat="42.85543" lon="0.69476">
        <ele>1772.1</ele>
        <time>2018-11-24T22:48:50Z</time>
      </trkpt>
      <trkpt lat="42.85545" lon="0.69476">
        <ele>1772.7</ele>
        <time>2018-11-24T22:48:51Z</time>
      </trkpt>
      <trkpt lat="42.85547" lon="0.69476">
        <ele>1773.4</ele>
        <time>2018-11-24T22:48:52Z</time>
      </trkpt>
      <trkpt lat="42.8555" lon="0.69477">
        <ele>1774</ele>
        <time>2018-11-24T22:48:53Z</time>
      </trkpt>
      <trkpt lat="42.85551" lon="0.69477">
        <ele>1774.5</ele>
        <time>2018-11-24T22:48:54Z</time>
      </trkpt>
      <trkpt lat="42.85553" lon="0.69476">
        <ele>1775.3</ele>
        <time>2018-11-24T22:48:55Z</time>
      </trkpt>
      <trkpt lat="42.85555" lon="0.69476">
        <ele>1775.6</ele>
        <time>2018-11-24T22:48:55Z</time>
      </trkpt>
      <trkpt lat="42.85557" lon="0.69477">
        <ele>1776.1</ele>
        <time>2018-11-24T22:48:56Z</time>
      </trkpt>
      <trkpt lat="42.85559" lon="0.69478">
        <ele>1776.4</ele>
        <time>2018-11-24T22:48:57Z</time>
      </trkpt>
      <trkpt lat="42.85561" lon="0.6948">
        <ele>1776.7</ele>
        <time>2018-11-24T22:48:58Z</time>
      </trkpt>
      <trkpt lat="42.85563" lon="0.69481">
        <ele>1777</ele>
        <time>2018-11-24T22:48:59Z</time>
      </trkpt>
      <trkpt lat="42.85564" lon="0.69479">
        <ele>1777.5</ele>
        <time>2018-11-24T22:48:59Z</time>
      </trkpt>
      <trkpt lat="42.85566" lon="0.69478">
        <ele>1778.1</ele>
        <time>2018-11-24T22:49:00Z</time>
      </trkpt>
      <trkpt lat="42.85567" lon="0.69477">
        <ele>1778.7</ele>
        <time>2018-11-24T22:49:01Z</time>
      </trkpt>
      <trkpt lat="42.8557" lon="0.69476">
        <ele>1779.2</ele>
        <time>2018-11-24T22:49:02Z</time>
      </trkpt>
      <trkpt lat="42.85572" lon="0.69478">
        <ele>1779.5</ele>
        <time>2018-11-24T22:49:03Z</time>
      </trkpt>
      <trkpt lat="42.85573" lon="0.69477">
        <ele>1779.9</ele>
        <time>2018-11-24T22:49:03Z</time>
      </trkpt>
      <trkpt lat="42.85575" lon="0.69477">
        <ele>1779.9</ele>
        <time>2018-11-24T22:49:04Z</time>
      </trkpt>
      <trkpt lat="42.85577" lon="0.69478">
        <ele>1779.8</ele>
        <time>2018-11-24T22:49:05Z</time>
      </trkpt>
      <trkpt lat="42.85579" lon="0.69478">
        <ele>1779.5</ele>
        <time>2018-11-24T22:49:06Z</time>
      </trkpt>
      <trkpt lat="42.85581" lon="0.69478">
        <ele>1779.3</ele>
        <time>2018-11-24T22:49:07Z</time>
      </trkpt>
      <trkpt lat="42.85583" lon="0.69478">
        <ele>1779.3</ele>
        <time>2018-11-24T22:49:07Z</time>
      </trkpt>
      <trkpt lat="42.85585" lon="0.69479">
        <ele>1779.4</ele>
        <time>2018-11-24T22:49:08Z</time>
      </trkpt>
      <trkpt lat="42.85587" lon="0.69479">
        <ele>1779.2</ele>
        <time>2018-11-24T22:49:09Z</time>
      </trkpt>
      <trkpt lat="42.85589" lon="0.69477">
        <ele>1779.1</ele>
        <time>2018-11-24T22:49:10Z</time>
      </trkpt>
      <trkpt lat="42.85589" lon="0.69474">
        <ele>1781.4</ele>
        <time>2018-11-24T22:49:11Z</time>
      </trkpt>
      <trkpt lat="42.85589" lon="0.69472">
        <ele>1781.8</ele>
        <time>2018-11-24T22:49:11Z</time>
      </trkpt>
      <trkpt lat="42.85589" lon="0.69469">
        <ele>1782.1</ele>
        <time>2018-11-24T22:49:12Z</time>
      </trkpt>
      <trkpt lat="42.8559" lon="0.69466">
        <ele>1782.7</ele>
        <time>2018-11-24T22:49:13Z</time>
      </trkpt>
      <trkpt lat="42.8559" lon="0.69464">
        <ele>1783</ele>
        <time>2018-11-24T22:49:14Z</time>
      </trkpt>
      <trkpt lat="42.85589" lon="0.6946">
        <ele>1783.5</ele>
        <time>2018-11-24T22:49:15Z</time>
      </trkpt>
      <trkpt lat="42.85588" lon="0.69458">
        <ele>1783.9</ele>
        <time>2018-11-24T22:49:16Z</time>
      </trkpt>
      <trkpt lat="42.85587" lon="0.69455">
        <ele>1784.4</ele>
        <time>2018-11-24T22:49:17Z</time>
      </trkpt>
      <trkpt lat="42.85587" lon="0.69452">
        <ele>1784.7</ele>
        <time>2018-11-24T22:49:18Z</time>
      </trkpt>
      <trkpt lat="42.85587" lon="0.69448">
        <ele>1785.3</ele>
        <time>2018-11-24T22:49:19Z</time>
      </trkpt>
      <trkpt lat="42.85586" lon="0.69446">
        <ele>1785.7</ele>
        <time>2018-11-24T22:49:19Z</time>
      </trkpt>
      <trkpt lat="42.85585" lon="0.69442">
        <ele>1786.1</ele>
        <time>2018-11-24T22:49:20Z</time>
      </trkpt>
      <trkpt lat="42.85584" lon="0.69439">
        <ele>1786.4</ele>
        <time>2018-11-24T22:49:21Z</time>
      </trkpt>
      <trkpt lat="42.85583" lon="0.69435">
        <ele>1787</ele>
        <time>2018-11-24T22:49:23Z</time>
      </trkpt>
      <trkpt lat="42.85582" lon="0.69432">
        <ele>1787.5</ele>
        <time>2018-11-24T22:49:24Z</time>
      </trkpt>
      <trkpt lat="42.85582" lon="0.6943">
        <ele>1787.9</ele>
        <time>2018-11-24T22:49:24Z</time>
      </trkpt>
      <trkpt lat="42.85581" lon="0.69427">
        <ele>1788.2</ele>
        <time>2018-11-24T22:49:25Z</time>
      </trkpt>
      <trkpt lat="42.8558" lon="0.69425">
        <ele>1788.6</ele>
        <time>2018-11-24T22:49:26Z</time>
      </trkpt>
      <trkpt lat="42.85579" lon="0.69421">
        <ele>1789.3</ele>
        <time>2018-11-24T22:49:27Z</time>
      </trkpt>
      <trkpt lat="42.85577" lon="0.69418">
        <ele>1789.6</ele>
        <time>2018-11-24T22:49:28Z</time>
      </trkpt>
      <trkpt lat="42.85576" lon="0.69416">
        <ele>1790.1</ele>
        <time>2018-11-24T22:49:29Z</time>
      </trkpt>
      <trkpt lat="42.85575" lon="0.69413">
        <ele>1789.5</ele>
        <time>2018-11-24T22:49:30Z</time>
      </trkpt>
      <trkpt lat="42.85573" lon="0.6941">
        <ele>1789.3</ele>
        <time>2018-11-24T22:49:31Z</time>
      </trkpt>
      <trkpt lat="42.85572" lon="0.69407">
        <ele>1789</ele>
        <time>2018-11-24T22:49:32Z</time>
      </trkpt>
      <trkpt lat="42.85569" lon="0.69404">
        <ele>1788.9</ele>
        <time>2018-11-24T22:49:34Z</time>
      </trkpt>
      <trkpt lat="42.85567" lon="0.69401">
        <ele>1788.7</ele>
        <time>2018-11-24T22:49:35Z</time>
      </trkpt>
      <trkpt lat="42.85566" lon="0.69398">
        <ele>1788.5</ele>
        <time>2018-11-24T22:49:36Z</time>
      </trkpt>
      <trkpt lat="42.85565" lon="0.69396">
        <ele>1788.5</ele>
        <time>2018-11-24T22:49:37Z</time>
      </trkpt>
      <trkpt lat="42.85563" lon="0.69393">
        <ele>1788.3</ele>
        <time>2018-11-24T22:49:38Z</time>
      </trkpt>
      <trkpt lat="42.85562" lon="0.69391">
        <ele>1791.8</ele>
        <time>2018-11-24T22:49:38Z</time>
      </trkpt>
      <trkpt lat="42.85561" lon="0.69389">
        <ele>1792.1</ele>
        <time>2018-11-24T22:49:39Z</time>
      </trkpt>
      <trkpt lat="42.8556" lon="0.69386">
        <ele>1792.4</ele>
        <time>2018-11-24T22:49:40Z</time>
      </trkpt>
      <trkpt lat="42.85559" lon="0.69384">
        <ele>1792.5</ele>
        <time>2018-11-24T22:49:41Z</time>
      </trkpt>
      <trkpt lat="42.85556" lon="0.69381">
        <ele>1792.6</ele>
        <time>2018-11-24T22:49:43Z</time>
      </trkpt>
      <trkpt lat="42.85554" lon="0.69378">
        <ele>1792.7</ele>
        <time>2018-11-24T22:49:43Z</time>
      </trkpt>
      <trkpt lat="42.85553" lon="0.69376">
        <ele>1792.9</ele>
        <time>2018-11-24T22:49:44Z</time>
      </trkpt>
      <trkpt lat="42.85552" lon="0.69374">
        <ele>1793.1</ele>
        <time>2018-11-24T22:49:45Z</time>
      </trkpt>
      <trkpt lat="42.8555" lon="0.69372">
        <ele>1793.2</ele>
        <time>2018-11-24T22:49:46Z</time>
      </trkpt>
      <trkpt lat="42.85549" lon="0.69369">
        <ele>1793.6</ele>
        <time>2018-11-24T22:49:47Z</time>
      </trkpt>
      <trkpt lat="42.85547" lon="0.69366">
        <ele>1794</ele>
        <time>2018-11-24T22:49:48Z</time>
      </trkpt>
      <trkpt lat="42.85546" lon="0.69362">
        <ele>1794.7</ele>
        <time>2018-11-24T22:49:49Z</time>
      </trkpt>
      <trkpt lat="42.85545" lon="0.6936">
        <ele>1795</ele>
        <time>2018-11-24T22:49:50Z</time>
      </trkpt>
      <trkpt lat="42.85544" lon="0.69357">
        <ele>1795.4</ele>
        <time>2018-11-24T22:49:51Z</time>
      </trkpt>
      <trkpt lat="42.85543" lon="0.69354">
        <ele>1795.9</ele>
        <time>2018-11-24T22:49:52Z</time>
      </trkpt>
      <trkpt lat="42.85542" lon="0.69351">
        <ele>1796.5</ele>
        <time>2018-11-24T22:49:53Z</time>
      </trkpt>
      <trkpt lat="42.8554" lon="0.69348">
        <ele>1796.7</ele>
        <time>2018-11-24T22:49:54Z</time>
      </trkpt>
      <trkpt lat="42.85539" lon="0.69346">
        <ele>1797</ele>
        <time>2018-11-24T22:49:55Z</time>
      </trkpt>
      <trkpt lat="42.85537" lon="0.69344">
        <ele>1797.4</ele>
        <time>2018-11-24T22:49:56Z</time>
      </trkpt>
      <trkpt lat="42.85536" lon="0.69341">
        <ele>1797.9</ele>
        <time>2018-11-24T22:49:57Z</time>
      </trkpt>
      <trkpt lat="42.85535" lon="0.69339">
        <ele>1798.4</ele>
        <time>2018-11-24T22:49:58Z</time>
      </trkpt>
      <trkpt lat="42.85534" lon="0.69335">
        <ele>1799.2</ele>
        <time>2018-11-24T22:49:59Z</time>
      </trkpt>
      <trkpt lat="42.85533" lon="0.69332">
        <ele>1799.9</ele>
        <time>2018-11-24T22:50:00Z</time>
      </trkpt>
      <trkpt lat="42.85531" lon="0.69329">
        <ele>1799.8</ele>
        <time>2018-11-24T22:50:01Z</time>
      </trkpt>
      <trkpt lat="42.85529" lon="0.69326">
        <ele>1801</ele>
        <time>2018-11-24T22:50:02Z</time>
      </trkpt>
      <trkpt lat="42.85528" lon="0.69324">
        <ele>1801.5</ele>
        <time>2018-11-24T22:50:03Z</time>
      </trkpt>
      <trkpt lat="42.85527" lon="0.69321">
        <ele>1802</ele>
        <time>2018-11-24T22:50:04Z</time>
      </trkpt>
      <trkpt lat="42.85526" lon="0.69319">
        <ele>1802.4</ele>
        <time>2018-11-24T22:50:04Z</time>
      </trkpt>
      <trkpt lat="42.85525" lon="0.69317">
        <ele>1803</ele>
        <time>2018-11-24T22:50:05Z</time>
      </trkpt>
      <trkpt lat="42.85524" lon="0.69313">
        <ele>1803.9</ele>
        <time>2018-11-24T22:50:06Z</time>
      </trkpt>
      <trkpt lat="42.85523" lon="0.69311">
        <ele>1804.5</ele>
        <time>2018-11-24T22:50:07Z</time>
      </trkpt>
      <trkpt lat="42.85522" lon="0.69308">
        <ele>1805.2</ele>
        <time>2018-11-24T22:50:08Z</time>
      </trkpt>
      <trkpt lat="42.85521" lon="0.69306">
        <ele>1805.9</ele>
        <time>2018-11-24T22:50:09Z</time>
      </trkpt>
      <trkpt lat="42.8552" lon="0.69303">
        <ele>1806.8</ele>
        <time>2018-11-24T22:50:10Z</time>
      </trkpt>
      <trkpt lat="42.85519" lon="0.693">
        <ele>1807.8</ele>
        <time>2018-11-24T22:50:11Z</time>
      </trkpt>
      <trkpt lat="42.85518" lon="0.69297">
        <ele>1808.6</ele>
        <time>2018-11-24T22:50:12Z</time>
      </trkpt>
      <trkpt lat="42.85517" lon="0.69295">
        <ele>1809.5</ele>
        <time>2018-11-24T22:50:12Z</time>
      </trkpt>
      <trkpt lat="42.85516" lon="0.69292">
        <ele>1809.8</ele>
        <time>2018-11-24T22:50:13Z</time>
      </trkpt>
      <trkpt lat="42.85516" lon="0.6929">
        <ele>1811.1</ele>
        <time>2018-11-24T22:50:14Z</time>
      </trkpt>
      <trkpt lat="42.85514" lon="0.69286">
        <ele>1812</ele>
        <time>2018-11-24T22:50:15Z</time>
      </trkpt>
      <trkpt lat="42.85512" lon="0.69284">
        <ele>1812.6</ele>
        <time>2018-11-24T22:50:16Z</time>
      </trkpt>
      <trkpt lat="42.85511" lon="0.69282">
        <ele>1813.3</ele>
        <time>2018-11-24T22:50:17Z</time>
      </trkpt>
      <trkpt lat="42.85509" lon="0.69279">
        <ele>1813.7</ele>
        <time>2018-11-24T22:50:18Z</time>
      </trkpt>
      <trkpt lat="42.85506" lon="0.69278">
        <ele>1813.9</ele>
        <time>2018-11-24T22:50:19Z</time>
      </trkpt>
      <trkpt lat="42.85504" lon="0.69276">
        <ele>1814.4</ele>
        <time>2018-11-24T22:50:20Z</time>
      </trkpt>
      <trkpt lat="42.85503" lon="0.69274">
        <ele>1815.2</ele>
        <time>2018-11-24T22:50:21Z</time>
      </trkpt>
      <trkpt lat="42.85502" lon="0.69271">
        <ele>1815.9</ele>
        <time>2018-11-24T22:50:22Z</time>
      </trkpt>
      <trkpt lat="42.85502" lon="0.69268">
        <ele>1817.2</ele>
        <time>2018-11-24T22:50:23Z</time>
      </trkpt>
      <trkpt lat="42.85501" lon="0.69265">
        <ele>1818.2</ele>
        <time>2018-11-24T22:50:24Z</time>
      </trkpt>
      <trkpt lat="42.855" lon="0.69262">
        <ele>1819.2</ele>
        <time>2018-11-24T22:50:25Z</time>
      </trkpt>
      <trkpt lat="42.85499" lon="0.6926">
        <ele>1820</ele>
        <time>2018-11-24T22:50:25Z</time>
      </trkpt>
      <trkpt lat="42.85497" lon="0.69258">
        <ele>1820.5</ele>
        <time>2018-11-24T22:50:26Z</time>
      </trkpt>
      <trkpt lat="42.85496" lon="0.69255">
        <ele>1821.4</ele>
        <time>2018-11-24T22:50:27Z</time>
      </trkpt>
      <trkpt lat="42.85494" lon="0.69253">
        <ele>1821.8</ele>
        <time>2018-11-24T22:50:28Z</time>
      </trkpt>
      <trkpt lat="42.85493" lon="0.6925">
        <ele>1822.8</ele>
        <time>2018-11-24T22:50:29Z</time>
      </trkpt>
      <trkpt lat="42.85492" lon="0.69248">
        <ele>1823.5</ele>
        <time>2018-11-24T22:50:30Z</time>
      </trkpt>
      <trkpt lat="42.8549" lon="0.69246">
        <ele>1824</ele>
        <time>2018-11-24T22:50:31Z</time>
      </trkpt>
      <trkpt lat="42.85489" lon="0.69244">
        <ele>1824.2</ele>
        <time>2018-11-24T22:50:32Z</time>
      </trkpt>
      <trkpt lat="42.85486" lon="0.69243">
        <ele>1824.1</ele>
        <time>2018-11-24T22:50:33Z</time>
      </trkpt>
      <trkpt lat="42.85484" lon="0.69242">
        <ele>1824.2</ele>
        <time>2018-11-24T22:50:34Z</time>
      </trkpt>
      <trkpt lat="42.85482" lon="0.6924">
        <ele>1824.4</ele>
        <time>2018-11-24T22:50:35Z</time>
      </trkpt>
      <trkpt lat="42.85481" lon="0.69237">
        <ele>1825.1</ele>
        <time>2018-11-24T22:50:36Z</time>
      </trkpt>
      <trkpt lat="42.8548" lon="0.69235">
        <ele>1825.9</ele>
        <time>2018-11-24T22:50:36Z</time>
      </trkpt>
      <trkpt lat="42.85479" lon="0.69232">
        <ele>1826.7</ele>
        <time>2018-11-24T22:50:37Z</time>
      </trkpt>
      <trkpt lat="42.85478" lon="0.6923">
        <ele>1827.2</ele>
        <time>2018-11-24T22:50:38Z</time>
      </trkpt>
      <trkpt lat="42.85477" lon="0.69228">
        <ele>1828</ele>
        <time>2018-11-24T22:50:39Z</time>
      </trkpt>
      <trkpt lat="42.85476" lon="0.69226">
        <ele>1828.1</ele>
        <time>2018-11-24T22:50:39Z</time>
      </trkpt>
      <trkpt lat="42.85474" lon="0.69226">
        <ele>1827.6</ele>
        <time>2018-11-24T22:50:40Z</time>
      </trkpt>
      <trkpt lat="42.85472" lon="0.69225">
        <ele>1827.4</ele>
        <time>2018-11-24T22:50:41Z</time>
      </trkpt>
      <trkpt lat="42.8547" lon="0.69224">
        <ele>1827.1</ele>
        <time>2018-11-24T22:50:42Z</time>
      </trkpt>
      <trkpt lat="42.85468" lon="0.69222">
        <ele>1827.3</ele>
        <time>2018-11-24T22:50:43Z</time>
      </trkpt>
      <trkpt lat="42.85466" lon="0.69221">
        <ele>1827</ele>
        <time>2018-11-24T22:50:44Z</time>
      </trkpt>
      <trkpt lat="42.85464" lon="0.6922">
        <ele>1826.6</ele>
        <time>2018-11-24T22:50:45Z</time>
      </trkpt>
      <trkpt lat="42.85462" lon="0.69219">
        <ele>1825.9</ele>
        <time>2018-11-24T22:50:46Z</time>
      </trkpt>
      <trkpt lat="42.85459" lon="0.69219">
        <ele>1825</ele>
        <time>2018-11-24T22:50:46Z</time>
      </trkpt>
      <trkpt lat="42.85458" lon="0.69218">
        <ele>1825</ele>
        <time>2018-11-24T22:50:47Z</time>
      </trkpt>
      <trkpt lat="42.85456" lon="0.69217">
        <ele>1824.3</ele>
        <time>2018-11-24T22:50:48Z</time>
      </trkpt>
      <trkpt lat="42.85454" lon="0.69218">
        <ele>1823.3</ele>
        <time>2018-11-24T22:50:49Z</time>
      </trkpt>
      <trkpt lat="42.85452" lon="0.69219">
        <ele>1822.1</ele>
        <time>2018-11-24T22:50:50Z</time>
      </trkpt>
      <trkpt lat="42.8545" lon="0.6922">
        <ele>1820.7</ele>
        <time>2018-11-24T22:50:51Z</time>
      </trkpt>
      <trkpt lat="42.85448" lon="0.69221">
        <ele>1819.6</ele>
        <time>2018-11-24T22:50:51Z</time>
      </trkpt>
      <trkpt lat="42.85446" lon="0.69221">
        <ele>1818.9</ele>
        <time>2018-11-24T22:50:52Z</time>
      </trkpt>
      <trkpt lat="42.85444" lon="0.69219">
        <ele>1818.7</ele>
        <time>2018-11-24T22:50:53Z</time>
      </trkpt>
      <trkpt lat="42.85442" lon="0.69217">
        <ele>1818.4</ele>
        <time>2018-11-24T22:50:54Z</time>
      </trkpt>
      <trkpt lat="42.8544" lon="0.69215">
        <ele>1818.4</ele>
        <time>2018-11-24T22:50:55Z</time>
      </trkpt>
      <trkpt lat="42.8544" lon="0.69212">
        <ele>1818.9</ele>
        <time>2018-11-24T22:50:56Z</time>
      </trkpt>
      <trkpt lat="42.8544" lon="0.69209">
        <ele>1819.9</ele>
        <time>2018-11-24T22:50:57Z</time>
      </trkpt>
      <trkpt lat="42.85439" lon="0.69206">
        <ele>1820.6</ele>
        <time>2018-11-24T22:50:58Z</time>
      </trkpt>
      <trkpt lat="42.8544" lon="0.69204">
        <ele>1821.5</ele>
        <time>2018-11-24T22:50:58Z</time>
      </trkpt>
      <trkpt lat="42.8544" lon="0.69201">
        <ele>1822.7</ele>
        <time>2018-11-24T22:50:59Z</time>
      </trkpt>
      <trkpt lat="42.85442" lon="0.69199">
        <ele>1824</ele>
        <time>2018-11-24T22:51:00Z</time>
      </trkpt>
      <trkpt lat="42.85443" lon="0.69197">
        <ele>1825</ele>
        <time>2018-11-24T22:51:01Z</time>
      </trkpt>
      <trkpt lat="42.85444" lon="0.69195">
        <ele>1826.3</ele>
        <time>2018-11-24T22:51:02Z</time>
      </trkpt>
      <trkpt lat="42.85445" lon="0.69193">
        <ele>1827.5</ele>
        <time>2018-11-24T22:51:02Z</time>
      </trkpt>
      <trkpt lat="42.85445" lon="0.6919">
        <ele>1828.5</ele>
        <time>2018-11-24T22:51:03Z</time>
      </trkpt>
      <trkpt lat="42.85446" lon="0.69188">
        <ele>1829.3</ele>
        <time>2018-11-24T22:51:04Z</time>
      </trkpt>
      <trkpt lat="42.85446" lon="0.69185">
        <ele>1829.9</ele>
        <time>2018-11-24T22:51:05Z</time>
      </trkpt>
      <trkpt lat="42.85447" lon="0.69183">
        <ele>1831.3</ele>
        <time>2018-11-24T22:51:05Z</time>
      </trkpt>
      <trkpt lat="42.85449" lon="0.69181">
        <ele>1832.4</ele>
        <time>2018-11-24T22:51:06Z</time>
      </trkpt>
      <trkpt lat="42.8545" lon="0.69179">
        <ele>1833.6</ele>
        <time>2018-11-24T22:51:07Z</time>
      </trkpt>
      <trkpt lat="42.85451" lon="0.69177">
        <ele>1834.6</ele>
        <time>2018-11-24T22:51:08Z</time>
      </trkpt>
      <trkpt lat="42.85452" lon="0.69174">
        <ele>1835.8</ele>
        <time>2018-11-24T22:51:08Z</time>
      </trkpt>
      <trkpt lat="42.85452" lon="0.69172">
        <ele>1836.5</ele>
        <time>2018-11-24T22:51:09Z</time>
      </trkpt>
      <trkpt lat="42.85453" lon="0.69169">
        <ele>1837.6</ele>
        <time>2018-11-24T22:51:10Z</time>
      </trkpt>
      <trkpt lat="42.85453" lon="0.69165">
        <ele>1838.5</ele>
        <time>2018-11-24T22:51:11Z</time>
      </trkpt>
      <trkpt lat="42.85453" lon="0.69163">
        <ele>1839.3</ele>
        <time>2018-11-24T22:51:12Z</time>
      </trkpt>
      <trkpt lat="42.85454" lon="0.6916">
        <ele>1839.9</ele>
        <time>2018-11-24T22:51:13Z</time>
      </trkpt>
      <trkpt lat="42.85454" lon="0.69157">
        <ele>1841</ele>
        <time>2018-11-24T22:51:14Z</time>
      </trkpt>
      <trkpt lat="42.85455" lon="0.69154">
        <ele>1841.9</ele>
        <time>2018-11-24T22:51:15Z</time>
      </trkpt>
      <trkpt lat="42.85456" lon="0.6915">
        <ele>1842.9</ele>
        <time>2018-11-24T22:51:16Z</time>
      </trkpt>
      <trkpt lat="42.85456" lon="0.69147">
        <ele>1843.4</ele>
        <time>2018-11-24T22:51:17Z</time>
      </trkpt>
      <trkpt lat="42.85455" lon="0.69144">
        <ele>1843.9</ele>
        <time>2018-11-24T22:51:18Z</time>
      </trkpt>
      <trkpt lat="42.85456" lon="0.69141">
        <ele>1844.5</ele>
        <time>2018-11-24T22:51:18Z</time>
      </trkpt>
      <trkpt lat="42.85456" lon="0.69138">
        <ele>1845.3</ele>
        <time>2018-11-24T22:51:19Z</time>
      </trkpt>
      <trkpt lat="42.85457" lon="0.69135">
        <ele>1846.2</ele>
        <time>2018-11-24T22:51:20Z</time>
      </trkpt>
      <trkpt lat="42.85457" lon="0.69132">
        <ele>1846.8</ele>
        <time>2018-11-24T22:51:21Z</time>
      </trkpt>
      <trkpt lat="42.85457" lon="0.69129">
        <ele>1847.2</ele>
        <time>2018-11-24T22:51:22Z</time>
      </trkpt>
      <trkpt lat="42.85458" lon="0.69126">
        <ele>1848</ele>
        <time>2018-11-24T22:51:23Z</time>
      </trkpt>
      <trkpt lat="42.85458" lon="0.69123">
        <ele>1848.6</ele>
        <time>2018-11-24T22:51:24Z</time>
      </trkpt>
      <trkpt lat="42.85459" lon="0.69119">
        <ele>1849.4</ele>
        <time>2018-11-24T22:51:25Z</time>
      </trkpt>
      <trkpt lat="42.85459" lon="0.69116">
        <ele>1849.7</ele>
        <time>2018-11-24T22:51:26Z</time>
      </trkpt>
      <trkpt lat="42.8546" lon="0.69112">
        <ele>1849.3</ele>
        <time>2018-11-24T22:51:27Z</time>
      </trkpt>
      <trkpt lat="42.8546" lon="0.69108">
        <ele>1848.9</ele>
        <time>2018-11-24T22:51:28Z</time>
      </trkpt>
      <trkpt lat="42.85459" lon="0.69105">
        <ele>1848.8</ele>
        <time>2018-11-24T22:51:29Z</time>
      </trkpt>
      <trkpt lat="42.8546" lon="0.69101">
        <ele>1851.9</ele>
        <time>2018-11-24T22:51:30Z</time>
      </trkpt>
      <trkpt lat="42.85461" lon="0.69097">
        <ele>1852.5</ele>
        <time>2018-11-24T22:51:32Z</time>
      </trkpt>
      <trkpt lat="42.85461" lon="0.69094">
        <ele>1852.9</ele>
        <time>2018-11-24T22:51:33Z</time>
      </trkpt>
      <trkpt lat="42.85462" lon="0.69091">
        <ele>1853.4</ele>
        <time>2018-11-24T22:51:33Z</time>
      </trkpt>
      <trkpt lat="42.85463" lon="0.69088">
        <ele>1854</ele>
        <time>2018-11-24T22:51:34Z</time>
      </trkpt>
      <trkpt lat="42.85463" lon="0.69085">
        <ele>1854.7</ele>
        <time>2018-11-24T22:51:35Z</time>
      </trkpt>
      <trkpt lat="42.85463" lon="0.69082">
        <ele>1854.9</ele>
        <time>2018-11-24T22:51:36Z</time>
      </trkpt>
      <trkpt lat="42.85464" lon="0.69079">
        <ele>1855.5</ele>
        <time>2018-11-24T22:51:37Z</time>
      </trkpt>
      <trkpt lat="42.85464" lon="0.69076">
        <ele>1855.7</ele>
        <time>2018-11-24T22:51:38Z</time>
      </trkpt>
      <trkpt lat="42.85464" lon="0.69072">
        <ele>1856.1</ele>
        <time>2018-11-24T22:51:39Z</time>
      </trkpt>
      <trkpt lat="42.85465" lon="0.69069">
        <ele>1857</ele>
        <time>2018-11-24T22:51:40Z</time>
      </trkpt>
      <trkpt lat="42.85466" lon="0.69067">
        <ele>1857.5</ele>
        <time>2018-11-24T22:51:41Z</time>
      </trkpt>
      <trkpt lat="42.85467" lon="0.69065">
        <ele>1858</ele>
        <time>2018-11-24T22:51:42Z</time>
      </trkpt>
      <trkpt lat="42.85468" lon="0.69061">
        <ele>1858.9</ele>
        <time>2018-11-24T22:51:43Z</time>
      </trkpt>
      <trkpt lat="42.85468" lon="0.69059">
        <ele>1859</ele>
        <time>2018-11-24T22:51:43Z</time>
      </trkpt>
      <trkpt lat="42.85469" lon="0.69056">
        <ele>1859.6</ele>
        <time>2018-11-24T22:51:44Z</time>
      </trkpt>
      <trkpt lat="42.8547" lon="0.69053">
        <ele>1859.7</ele>
        <time>2018-11-24T22:51:45Z</time>
      </trkpt>
      <trkpt lat="42.85471" lon="0.6905">
        <ele>1859.1</ele>
        <time>2018-11-24T22:51:46Z</time>
      </trkpt>
      <trkpt lat="42.85472" lon="0.69048">
        <ele>1858.8</ele>
        <time>2018-11-24T22:51:47Z</time>
      </trkpt>
      <trkpt lat="42.85472" lon="0.69044">
        <ele>1858.5</ele>
        <time>2018-11-24T22:51:48Z</time>
      </trkpt>
      <trkpt lat="42.85473" lon="0.69041">
        <ele>1858.1</ele>
        <time>2018-11-24T22:51:49Z</time>
      </trkpt>
      <trkpt lat="42.85474" lon="0.69039">
        <ele>1862.1</ele>
        <time>2018-11-24T22:51:50Z</time>
      </trkpt>
      <trkpt lat="42.85475" lon="0.69036">
        <ele>1862.6</ele>
        <time>2018-11-24T22:51:51Z</time>
      </trkpt>
      <trkpt lat="42.85475" lon="0.69034">
        <ele>1862.9</ele>
        <time>2018-11-24T22:51:51Z</time>
      </trkpt>
      <trkpt lat="42.85476" lon="0.69031">
        <ele>1863.6</ele>
        <time>2018-11-24T22:51:52Z</time>
      </trkpt>
      <trkpt lat="42.85477" lon="0.69029">
        <ele>1864.1</ele>
        <time>2018-11-24T22:51:53Z</time>
      </trkpt>
      <trkpt lat="42.85478" lon="0.69025">
        <ele>1864.6</ele>
        <time>2018-11-24T22:51:54Z</time>
      </trkpt>
      <trkpt lat="42.85478" lon="0.69022">
        <ele>1864.8</ele>
        <time>2018-11-24T22:51:55Z</time>
      </trkpt>
      <trkpt lat="42.85478" lon="0.69019">
        <ele>1865.1</ele>
        <time>2018-11-24T22:51:56Z</time>
      </trkpt>
      <trkpt lat="42.85479" lon="0.69016">
        <ele>1865.9</ele>
        <time>2018-11-24T22:51:57Z</time>
      </trkpt>
      <trkpt lat="42.85479" lon="0.69012">
        <ele>1866.1</ele>
        <time>2018-11-24T22:51:58Z</time>
      </trkpt>
      <trkpt lat="42.85479" lon="0.69009">
        <ele>1866.7</ele>
        <time>2018-11-24T22:51:59Z</time>
      </trkpt>
      <trkpt lat="42.85479" lon="0.69007">
        <ele>1867.2</ele>
        <time>2018-11-24T22:52:00Z</time>
      </trkpt>
      <trkpt lat="42.85481" lon="0.69004">
        <ele>1868</ele>
        <time>2018-11-24T22:52:01Z</time>
      </trkpt>
      <trkpt lat="42.85481" lon="0.69001">
        <ele>1868.4</ele>
        <time>2018-11-24T22:52:01Z</time>
      </trkpt>
      <trkpt lat="42.85482" lon="0.68999">
        <ele>1869.1</ele>
        <time>2018-11-24T22:52:02Z</time>
      </trkpt>
      <trkpt lat="42.85483" lon="0.68996">
        <ele>1869.6</ele>
        <time>2018-11-24T22:52:03Z</time>
      </trkpt>
      <trkpt lat="42.85483" lon="0.68993">
        <ele>1870</ele>
        <time>2018-11-24T22:52:04Z</time>
      </trkpt>
      <trkpt lat="42.85483" lon="0.6899">
        <ele>1869.6</ele>
        <time>2018-11-24T22:52:05Z</time>
      </trkpt>
      <trkpt lat="42.85483" lon="0.68986">
        <ele>1869.1</ele>
        <time>2018-11-24T22:52:06Z</time>
      </trkpt>
      <trkpt lat="42.85484" lon="0.68983">
        <ele>1871.5</ele>
        <time>2018-11-24T22:52:07Z</time>
      </trkpt>
      <trkpt lat="42.85484" lon="0.6898">
        <ele>1872</ele>
        <time>2018-11-24T22:52:08Z</time>
      </trkpt>
      <trkpt lat="42.85485" lon="0.68977">
        <ele>1872.4</ele>
        <time>2018-11-24T22:52:09Z</time>
      </trkpt>
      <trkpt lat="42.85485" lon="0.68975">
        <ele>1872.8</ele>
        <time>2018-11-24T22:52:09Z</time>
      </trkpt>
      <trkpt lat="42.85485" lon="0.68971">
        <ele>1873.3</ele>
        <time>2018-11-24T22:52:11Z</time>
      </trkpt>
      <trkpt lat="42.85485" lon="0.68968">
        <ele>1873.9</ele>
        <time>2018-11-24T22:52:11Z</time>
      </trkpt>
      <trkpt lat="42.85486" lon="0.68965">
        <ele>1874.5</ele>
        <time>2018-11-24T22:52:12Z</time>
      </trkpt>
      <trkpt lat="42.85486" lon="0.68963">
        <ele>1874.9</ele>
        <time>2018-11-24T22:52:13Z</time>
      </trkpt>
      <trkpt lat="42.85486" lon="0.6896">
        <ele>1875.4</ele>
        <time>2018-11-24T22:52:14Z</time>
      </trkpt>
      <trkpt lat="42.85486" lon="0.68958">
        <ele>1875.9</ele>
        <time>2018-11-24T22:52:15Z</time>
      </trkpt>
      <trkpt lat="42.85487" lon="0.68955">
        <ele>1876.6</ele>
        <time>2018-11-24T22:52:15Z</time>
      </trkpt>
      <trkpt lat="42.85488" lon="0.68953">
        <ele>1877.4</ele>
        <time>2018-11-24T22:52:16Z</time>
      </trkpt>
      <trkpt lat="42.85488" lon="0.6895">
        <ele>1877.9</ele>
        <time>2018-11-24T22:52:17Z</time>
      </trkpt>
      <trkpt lat="42.85488" lon="0.68947">
        <ele>1878.4</ele>
        <time>2018-11-24T22:52:18Z</time>
      </trkpt>
      <trkpt lat="42.85488" lon="0.68944">
        <ele>1879.3</ele>
        <time>2018-11-24T22:52:19Z</time>
      </trkpt>
      <trkpt lat="42.85489" lon="0.68941">
        <ele>1879.9</ele>
        <time>2018-11-24T22:52:20Z</time>
      </trkpt>
      <trkpt lat="42.85489" lon="0.68937">
        <ele>1881</ele>
        <time>2018-11-24T22:52:21Z</time>
      </trkpt>
      <trkpt lat="42.8549" lon="0.68935">
        <ele>1881.8</ele>
        <time>2018-11-24T22:52:22Z</time>
      </trkpt>
      <trkpt lat="42.85489" lon="0.68931">
        <ele>1882.2</ele>
        <time>2018-11-24T22:52:23Z</time>
      </trkpt>
      <trkpt lat="42.85488" lon="0.68928">
        <ele>1882.9</ele>
        <time>2018-11-24T22:52:23Z</time>
      </trkpt>
      <trkpt lat="42.85488" lon="0.68926">
        <ele>1883.3</ele>
        <time>2018-11-24T22:52:24Z</time>
      </trkpt>
      <trkpt lat="42.85488" lon="0.68922">
        <ele>1884.1</ele>
        <time>2018-11-24T22:52:25Z</time>
      </trkpt>
      <trkpt lat="42.85487" lon="0.68919">
        <ele>1884.7</ele>
        <time>2018-11-24T22:52:26Z</time>
      </trkpt>
      <trkpt lat="42.85487" lon="0.68915">
        <ele>1885.6</ele>
        <time>2018-11-24T22:52:27Z</time>
      </trkpt>
      <trkpt lat="42.85487" lon="0.68913">
        <ele>1886.1</ele>
        <time>2018-11-24T22:52:28Z</time>
      </trkpt>
      <trkpt lat="42.85486" lon="0.6891">
        <ele>1886.7</ele>
        <time>2018-11-24T22:52:29Z</time>
      </trkpt>
      <trkpt lat="42.85485" lon="0.68907">
        <ele>1887.1</ele>
        <time>2018-11-24T22:52:30Z</time>
      </trkpt>
      <trkpt lat="42.85485" lon="0.68905">
        <ele>1887.7</ele>
        <time>2018-11-24T22:52:31Z</time>
      </trkpt>
      <trkpt lat="42.85485" lon="0.68902">
        <ele>1888.6</ele>
        <time>2018-11-24T22:52:31Z</time>
      </trkpt>
      <trkpt lat="42.85485" lon="0.68899">
        <ele>1889.4</ele>
        <time>2018-11-24T22:52:32Z</time>
      </trkpt>
      <trkpt lat="42.85485" lon="0.68896">
        <ele>1890.1</ele>
        <time>2018-11-24T22:52:33Z</time>
      </trkpt>
      <trkpt lat="42.85484" lon="0.68893">
        <ele>1890.7</ele>
        <time>2018-11-24T22:52:34Z</time>
      </trkpt>
      <trkpt lat="42.85484" lon="0.6889">
        <ele>1891.4</ele>
        <time>2018-11-24T22:52:35Z</time>
      </trkpt>
      <trkpt lat="42.85483" lon="0.68887">
        <ele>1892.1</ele>
        <time>2018-11-24T22:52:36Z</time>
      </trkpt>
      <trkpt lat="42.85483" lon="0.68884">
        <ele>1893.1</ele>
        <time>2018-11-24T22:52:37Z</time>
      </trkpt>
      <trkpt lat="42.85482" lon="0.6888">
        <ele>1893.8</ele>
        <time>2018-11-24T22:52:38Z</time>
      </trkpt>
      <trkpt lat="42.85481" lon="0.68878">
        <ele>1894.2</ele>
        <time>2018-11-24T22:52:39Z</time>
      </trkpt>
      <trkpt lat="42.85481" lon="0.68875">
        <ele>1895.2</ele>
        <time>2018-11-24T22:52:40Z</time>
      </trkpt>
      <trkpt lat="42.85481" lon="0.68872">
        <ele>1896.1</ele>
        <time>2018-11-24T22:52:40Z</time>
      </trkpt>
      <trkpt lat="42.85481" lon="0.68869">
        <ele>1896.8</ele>
        <time>2018-11-24T22:52:41Z</time>
      </trkpt>
      <trkpt lat="42.85481" lon="0.68867">
        <ele>1897.7</ele>
        <time>2018-11-24T22:52:42Z</time>
      </trkpt>
      <trkpt lat="42.8548" lon="0.68864">
        <ele>1898.3</ele>
        <time>2018-11-24T22:52:43Z</time>
      </trkpt>
      <trkpt lat="42.85479" lon="0.68861">
        <ele>1898.9</ele>
        <time>2018-11-24T22:52:44Z</time>
      </trkpt>
      <trkpt lat="42.8548" lon="0.68858">
        <ele>1900.3</ele>
        <time>2018-11-24T22:52:45Z</time>
      </trkpt>
      <trkpt lat="42.85479" lon="0.68855">
        <ele>1901.2</ele>
        <time>2018-11-24T22:52:46Z</time>
      </trkpt>
      <trkpt lat="42.85479" lon="0.68852">
        <ele>1902.1</ele>
        <time>2018-11-24T22:52:46Z</time>
      </trkpt>
      <trkpt lat="42.85479" lon="0.6885">
        <ele>1902.8</ele>
        <time>2018-11-24T22:52:47Z</time>
      </trkpt>
      <trkpt lat="42.85478" lon="0.68847">
        <ele>1903.4</ele>
        <time>2018-11-24T22:52:48Z</time>
      </trkpt>
      <trkpt lat="42.85477" lon="0.68844">
        <ele>1904</ele>
        <time>2018-11-24T22:52:49Z</time>
      </trkpt>
      <trkpt lat="42.85477" lon="0.68841">
        <ele>1905.1</ele>
        <time>2018-11-24T22:52:50Z</time>
      </trkpt>
      <trkpt lat="42.85477" lon="0.68838">
        <ele>1906.2</ele>
        <time>2018-11-24T22:52:51Z</time>
      </trkpt>
      <trkpt lat="42.85477" lon="0.68835">
        <ele>1907</ele>
        <time>2018-11-24T22:52:52Z</time>
      </trkpt>
      <trkpt lat="42.85476" lon="0.68833">
        <ele>1907.8</ele>
        <time>2018-11-24T22:52:52Z</time>
      </trkpt>
      <trkpt lat="42.85476" lon="0.6883">
        <ele>1908.7</ele>
        <time>2018-11-24T22:52:53Z</time>
      </trkpt>
      <trkpt lat="42.85474" lon="0.68827">
        <ele>1909.2</ele>
        <time>2018-11-24T22:52:54Z</time>
      </trkpt>
      <trkpt lat="42.85473" lon="0.68824">
        <ele>1909.7</ele>
        <time>2018-11-24T22:52:55Z</time>
      </trkpt>
      <trkpt lat="42.85472" lon="0.68821">
        <ele>1910</ele>
        <time>2018-11-24T22:52:56Z</time>
      </trkpt>
      <trkpt lat="42.85471" lon="0.68819">
        <ele>1910.7</ele>
        <time>2018-11-24T22:52:57Z</time>
      </trkpt>
      <trkpt lat="42.85471" lon="0.68816">
        <ele>1911.5</ele>
        <time>2018-11-24T22:52:58Z</time>
      </trkpt>
      <trkpt lat="42.8547" lon="0.68813">
        <ele>1912</ele>
        <time>2018-11-24T22:52:59Z</time>
      </trkpt>
      <trkpt lat="42.85468" lon="0.6881">
        <ele>1912.6</ele>
        <time>2018-11-24T22:53:00Z</time>
      </trkpt>
      <trkpt lat="42.85467" lon="0.68808">
        <ele>1912.7</ele>
        <time>2018-11-24T22:53:01Z</time>
      </trkpt>
      <trkpt lat="42.85465" lon="0.68806">
        <ele>1912.5</ele>
        <time>2018-11-24T22:53:02Z</time>
      </trkpt>
      <trkpt lat="42.85463" lon="0.68804">
        <ele>1912.6</ele>
        <time>2018-11-24T22:53:03Z</time>
      </trkpt>
      <trkpt lat="42.85461" lon="0.68802">
        <ele>1912.6</ele>
        <time>2018-11-24T22:53:04Z</time>
      </trkpt>
      <trkpt lat="42.85459" lon="0.688">
        <ele>1912.6</ele>
        <time>2018-11-24T22:53:05Z</time>
      </trkpt>
      <trkpt lat="42.85458" lon="0.68798">
        <ele>1912.6</ele>
        <time>2018-11-24T22:53:05Z</time>
      </trkpt>
      <trkpt lat="42.85456" lon="0.68796">
        <ele>1912.8</ele>
        <time>2018-11-24T22:53:06Z</time>
      </trkpt>
      <trkpt lat="42.85455" lon="0.68793">
        <ele>1913.3</ele>
        <time>2018-11-24T22:53:07Z</time>
      </trkpt>
      <trkpt lat="42.85454" lon="0.6879">
        <ele>1914</ele>
        <time>2018-11-24T22:53:08Z</time>
      </trkpt>
      <trkpt lat="42.85454" lon="0.68788">
        <ele>1914.6</ele>
        <time>2018-11-24T22:53:09Z</time>
      </trkpt>
      <trkpt lat="42.85453" lon="0.68786">
        <ele>1915</ele>
        <time>2018-11-24T22:53:10Z</time>
      </trkpt>
      <trkpt lat="42.85452" lon="0.68783">
        <ele>1915.8</ele>
        <time>2018-11-24T22:53:10Z</time>
      </trkpt>
      <trkpt lat="42.85452" lon="0.68779">
        <ele>1917</ele>
        <time>2018-11-24T22:53:11Z</time>
      </trkpt>
      <trkpt lat="42.85451" lon="0.68776">
        <ele>1917.9</ele>
        <time>2018-11-24T22:53:12Z</time>
      </trkpt>
      <trkpt lat="42.8545" lon="0.68774">
        <ele>1918.7</ele>
        <time>2018-11-24T22:53:13Z</time>
      </trkpt>
      <trkpt lat="42.8545" lon="0.68771">
        <ele>1919.6</ele>
        <time>2018-11-24T22:53:14Z</time>
      </trkpt>
      <trkpt lat="42.85449" lon="0.68767">
        <ele>1920.5</ele>
        <time>2018-11-24T22:53:15Z</time>
      </trkpt>
      <trkpt lat="42.85448" lon="0.68765">
        <ele>1920.9</ele>
        <time>2018-11-24T22:53:16Z</time>
      </trkpt>
      <trkpt lat="42.85447" lon="0.68763">
        <ele>1921.4</ele>
        <time>2018-11-24T22:53:17Z</time>
      </trkpt>
      <trkpt lat="42.85447" lon="0.6876">
        <ele>1922.2</ele>
        <time>2018-11-24T22:53:17Z</time>
      </trkpt>
      <trkpt lat="42.85446" lon="0.68757">
        <ele>1923.2</ele>
        <time>2018-11-24T22:53:18Z</time>
      </trkpt>
      <trkpt lat="42.85446" lon="0.68754">
        <ele>1923.9</ele>
        <time>2018-11-24T22:53:19Z</time>
      </trkpt>
      <trkpt lat="42.85446" lon="0.68751">
        <ele>1925</ele>
        <time>2018-11-24T22:53:20Z</time>
      </trkpt>
      <trkpt lat="42.85445" lon="0.68749">
        <ele>1925.8</ele>
        <time>2018-11-24T22:53:21Z</time>
      </trkpt>
      <trkpt lat="42.85445" lon="0.68746">
        <ele>1926.5</ele>
        <time>2018-11-24T22:53:22Z</time>
      </trkpt>
      <trkpt lat="42.85445" lon="0.68743">
        <ele>1927.5</ele>
        <time>2018-11-24T22:53:23Z</time>
      </trkpt>
      <trkpt lat="42.85444" lon="0.6874">
        <ele>1928.2</ele>
        <time>2018-11-24T22:53:23Z</time>
      </trkpt>
      <trkpt lat="42.85444" lon="0.68738">
        <ele>1929</ele>
        <time>2018-11-24T22:53:24Z</time>
      </trkpt>
      <trkpt lat="42.85445" lon="0.68735">
        <ele>1930.2</ele>
        <time>2018-11-24T22:53:25Z</time>
      </trkpt>
      <trkpt lat="42.85445" lon="0.68732">
        <ele>1931.4</ele>
        <time>2018-11-24T22:53:26Z</time>
      </trkpt>
      <trkpt lat="42.85445" lon="0.68729">
        <ele>1932.2</ele>
        <time>2018-11-24T22:53:27Z</time>
      </trkpt>
      <trkpt lat="42.85445" lon="0.68727">
        <ele>1932.9</ele>
        <time>2018-11-24T22:53:28Z</time>
      </trkpt>
      <trkpt lat="42.85444" lon="0.68724">
        <ele>1933.7</ele>
        <time>2018-11-24T22:53:28Z</time>
      </trkpt>
      <trkpt lat="42.85444" lon="0.68721">
        <ele>1934.7</ele>
        <time>2018-11-24T22:53:29Z</time>
      </trkpt>
      <trkpt lat="42.85445" lon="0.68718">
        <ele>1936</ele>
        <time>2018-11-24T22:53:30Z</time>
      </trkpt>
      <trkpt lat="42.85445" lon="0.68715">
        <ele>1936.8</ele>
        <time>2018-11-24T22:53:31Z</time>
      </trkpt>
      <trkpt lat="42.85445" lon="0.68712">
        <ele>1937.6</ele>
        <time>2018-11-24T22:53:32Z</time>
      </trkpt>
      <trkpt lat="42.85444" lon="0.68709">
        <ele>1938.4</ele>
        <time>2018-11-24T22:53:33Z</time>
      </trkpt>
      <trkpt lat="42.85444" lon="0.68706">
        <ele>1939.2</ele>
        <time>2018-11-24T22:53:34Z</time>
      </trkpt>
      <trkpt lat="42.85445" lon="0.68704">
        <ele>1940.2</ele>
        <time>2018-11-24T22:53:35Z</time>
      </trkpt>
      <trkpt lat="42.85445" lon="0.68701">
        <ele>1941.1</ele>
        <time>2018-11-24T22:53:35Z</time>
      </trkpt>
      <trkpt lat="42.85445" lon="0.68699">
        <ele>1942</ele>
        <time>2018-11-24T22:53:36Z</time>
      </trkpt>
      <trkpt lat="42.85445" lon="0.68695">
        <ele>1942.7</ele>
        <time>2018-11-24T22:53:37Z</time>
      </trkpt>
      <trkpt lat="42.85444" lon="0.68692">
        <ele>1943.5</ele>
        <time>2018-11-24T22:53:38Z</time>
      </trkpt>
      <trkpt lat="42.85444" lon="0.68689">
        <ele>1944.3</ele>
        <time>2018-11-24T22:53:39Z</time>
      </trkpt>
      <trkpt lat="42.85443" lon="0.68686">
        <ele>1944.9</ele>
        <time>2018-11-24T22:53:40Z</time>
      </trkpt>
      <trkpt lat="42.85443" lon="0.68683">
        <ele>1945.7</ele>
        <time>2018-11-24T22:53:41Z</time>
      </trkpt>
      <trkpt lat="42.85443" lon="0.6868">
        <ele>1946.4</ele>
        <time>2018-11-24T22:53:42Z</time>
      </trkpt>
      <trkpt lat="42.85441" lon="0.68678">
        <ele>1946.8</ele>
        <time>2018-11-24T22:53:43Z</time>
      </trkpt>
      <trkpt lat="42.8544" lon="0.68674">
        <ele>1947.1</ele>
        <time>2018-11-24T22:53:44Z</time>
      </trkpt>
      <trkpt lat="42.85439" lon="0.68672">
        <ele>1947.4</ele>
        <time>2018-11-24T22:53:45Z</time>
      </trkpt>
      <trkpt lat="42.85438" lon="0.68669">
        <ele>1947.9</ele>
        <time>2018-11-24T22:53:46Z</time>
      </trkpt>
      <trkpt lat="42.85437" lon="0.68666">
        <ele>1948.5</ele>
        <time>2018-11-24T22:53:46Z</time>
      </trkpt>
      <trkpt lat="42.85438" lon="0.68663">
        <ele>1949.4</ele>
        <time>2018-11-24T22:53:47Z</time>
      </trkpt>
      <trkpt lat="42.85438" lon="0.6866">
        <ele>1950.2</ele>
        <time>2018-11-24T22:53:48Z</time>
      </trkpt>
      <trkpt lat="42.85438" lon="0.68657">
        <ele>1951.1</ele>
        <time>2018-11-24T22:53:49Z</time>
      </trkpt>
      <trkpt lat="42.85437" lon="0.68654">
        <ele>1951.4</ele>
        <time>2018-11-24T22:53:50Z</time>
      </trkpt>
      <trkpt lat="42.85437" lon="0.68652">
        <ele>1952.1</ele>
        <time>2018-11-24T22:53:51Z</time>
      </trkpt>
      <trkpt lat="42.85437" lon="0.6865">
        <ele>1952.6</ele>
        <time>2018-11-24T22:53:51Z</time>
      </trkpt>
      <trkpt lat="42.85436" lon="0.68647">
        <ele>1953</ele>
        <time>2018-11-24T22:53:52Z</time>
      </trkpt>
      <trkpt lat="42.85435" lon="0.68644">
        <ele>1953.7</ele>
        <time>2018-11-24T22:53:53Z</time>
      </trkpt>
      <trkpt lat="42.85435" lon="0.68641">
        <ele>1954.5</ele>
        <time>2018-11-24T22:53:54Z</time>
      </trkpt>
      <trkpt lat="42.85435" lon="0.68638">
        <ele>1954.9</ele>
        <time>2018-11-24T22:53:55Z</time>
      </trkpt>
      <trkpt lat="42.85435" lon="0.68635">
        <ele>1955.8</ele>
        <time>2018-11-24T22:53:56Z</time>
      </trkpt>
      <trkpt lat="42.85435" lon="0.68632">
        <ele>1956.8</ele>
        <time>2018-11-24T22:53:57Z</time>
      </trkpt>
      <trkpt lat="42.85434" lon="0.68629">
        <ele>1957.1</ele>
        <time>2018-11-24T22:53:58Z</time>
      </trkpt>
      <trkpt lat="42.85434" lon="0.68625">
        <ele>1957.6</ele>
        <time>2018-11-24T22:53:59Z</time>
      </trkpt>
      <trkpt lat="42.85433" lon="0.68623">
        <ele>1958.1</ele>
        <time>2018-11-24T22:54:00Z</time>
      </trkpt>
      <trkpt lat="42.85432" lon="0.6862">
        <ele>1958.4</ele>
        <time>2018-11-24T22:54:00Z</time>
      </trkpt>
      <trkpt lat="42.85432" lon="0.68617">
        <ele>1959.1</ele>
        <time>2018-11-24T22:54:02Z</time>
      </trkpt>
      <trkpt lat="42.85431" lon="0.68614">
        <ele>1960.5</ele>
        <time>2018-11-24T22:54:02Z</time>
      </trkpt>
      <trkpt lat="42.85431" lon="0.68611">
        <ele>1960.1</ele>
        <time>2018-11-24T22:54:03Z</time>
      </trkpt>
      <trkpt lat="42.8543" lon="0.68608">
        <ele>1960.5</ele>
        <time>2018-11-24T22:54:04Z</time>
      </trkpt>
      <trkpt lat="42.8543" lon="0.68605">
        <ele>1961.2</ele>
        <time>2018-11-24T22:54:05Z</time>
      </trkpt>
      <trkpt lat="42.85429" lon="0.68603">
        <ele>1961.7</ele>
        <time>2018-11-24T22:54:06Z</time>
      </trkpt>
      <trkpt lat="42.85428" lon="0.68599">
        <ele>1962.3</ele>
        <time>2018-11-24T22:54:07Z</time>
      </trkpt>
      <trkpt lat="42.85427" lon="0.68597">
        <ele>1962.4</ele>
        <time>2018-11-24T22:54:08Z</time>
      </trkpt>
      <trkpt lat="42.85426" lon="0.68595">
        <ele>1962.6</ele>
        <time>2018-11-24T22:54:08Z</time>
      </trkpt>
      <trkpt lat="42.85425" lon="0.68592">
        <ele>1962.9</ele>
        <time>2018-11-24T22:54:09Z</time>
      </trkpt>
      <trkpt lat="42.85424" lon="0.6859">
        <ele>1963</ele>
        <time>2018-11-24T22:54:10Z</time>
      </trkpt>
      <trkpt lat="42.85422" lon="0.68589">
        <ele>1962.9</ele>
        <time>2018-11-24T22:54:11Z</time>
      </trkpt>
      <trkpt lat="42.85421" lon="0.68586">
        <ele>1963</ele>
        <time>2018-11-24T22:54:12Z</time>
      </trkpt>
      <trkpt lat="42.8542" lon="0.68583">
        <ele>1963.6</ele>
        <time>2018-11-24T22:54:13Z</time>
      </trkpt>
      <trkpt lat="42.8542" lon="0.68581">
        <ele>1964.2</ele>
        <time>2018-11-24T22:54:13Z</time>
      </trkpt>
      <trkpt lat="42.8542" lon="0.68578">
        <ele>1964.8</ele>
        <time>2018-11-24T22:54:14Z</time>
      </trkpt>
      <trkpt lat="42.85418" lon="0.68576">
        <ele>1965</ele>
        <time>2018-11-24T22:54:15Z</time>
      </trkpt>
      <trkpt lat="42.85417" lon="0.68573">
        <ele>1965.3</ele>
        <time>2018-11-24T22:54:16Z</time>
      </trkpt>
      <trkpt lat="42.85415" lon="0.68571">
        <ele>1965.2</ele>
        <time>2018-11-24T22:54:17Z</time>
      </trkpt>
      <trkpt lat="42.85413" lon="0.6857">
        <ele>1965.2</ele>
        <time>2018-11-24T22:54:18Z</time>
      </trkpt>
      <trkpt lat="42.85411" lon="0.68568">
        <ele>1965.2</ele>
        <time>2018-11-24T22:54:19Z</time>
      </trkpt>
      <trkpt lat="42.8541" lon="0.68567">
        <ele>1965.1</ele>
        <time>2018-11-24T22:54:19Z</time>
      </trkpt>
      <trkpt lat="42.85409" lon="0.68564">
        <ele>1965.5</ele>
        <time>2018-11-24T22:54:20Z</time>
      </trkpt>
      <trkpt lat="42.85409" lon="0.68561">
        <ele>1966.2</ele>
        <time>2018-11-24T22:54:21Z</time>
      </trkpt>
      <trkpt lat="42.85409" lon="0.68558">
        <ele>1966.9</ele>
        <time>2018-11-24T22:54:22Z</time>
      </trkpt>
      <trkpt lat="42.85409" lon="0.68555">
        <ele>1967.4</ele>
        <time>2018-11-24T22:54:23Z</time>
      </trkpt>
      <trkpt lat="42.8541" lon="0.68551">
        <ele>1968.3</ele>
        <time>2018-11-24T22:54:24Z</time>
      </trkpt>
      <trkpt lat="42.8541" lon="0.68549">
        <ele>1968.9</ele>
        <time>2018-11-24T22:54:25Z</time>
      </trkpt>
      <trkpt lat="42.85409" lon="0.68546">
        <ele>1970.7</ele>
        <time>2018-11-24T22:54:26Z</time>
      </trkpt>
      <trkpt lat="42.85407" lon="0.68544">
        <ele>1970.5</ele>
        <time>2018-11-24T22:54:27Z</time>
      </trkpt>
      <trkpt lat="42.85407" lon="0.68541">
        <ele>1970.1</ele>
        <time>2018-11-24T22:54:27Z</time>
      </trkpt>
      <trkpt lat="42.85406" lon="0.68537">
        <ele>1970.8</ele>
        <time>2018-11-24T22:54:29Z</time>
      </trkpt>
      <trkpt lat="42.85406" lon="0.68535">
        <ele>1971.4</ele>
        <time>2018-11-24T22:54:29Z</time>
      </trkpt>
      <trkpt lat="42.85405" lon="0.68531">
        <ele>1972</ele>
        <time>2018-11-24T22:54:30Z</time>
      </trkpt>
      <trkpt lat="42.85404" lon="0.68529">
        <ele>1972.4</ele>
        <time>2018-11-24T22:54:31Z</time>
      </trkpt>
      <trkpt lat="42.85404" lon="0.68526">
        <ele>1972.8</ele>
        <time>2018-11-24T22:54:32Z</time>
      </trkpt>
      <trkpt lat="42.85403" lon="0.68523">
        <ele>1973.5</ele>
        <time>2018-11-24T22:54:33Z</time>
      </trkpt>
      <trkpt lat="42.85403" lon="0.68519">
        <ele>1974</ele>
        <time>2018-11-24T22:54:34Z</time>
      </trkpt>
      <trkpt lat="42.85403" lon="0.68517">
        <ele>1974.6</ele>
        <time>2018-11-24T22:54:35Z</time>
      </trkpt>
      <trkpt lat="42.85403" lon="0.68513">
        <ele>1975.4</ele>
        <time>2018-11-24T22:54:36Z</time>
      </trkpt>
      <trkpt lat="42.85403" lon="0.6851">
        <ele>1975.9</ele>
        <time>2018-11-24T22:54:37Z</time>
      </trkpt>
      <trkpt lat="42.85403" lon="0.68507">
        <ele>1976.4</ele>
        <time>2018-11-24T22:54:38Z</time>
      </trkpt>
      <trkpt lat="42.85404" lon="0.68504">
        <ele>1977.1</ele>
        <time>2018-11-24T22:54:39Z</time>
      </trkpt>
      <trkpt lat="42.85405" lon="0.68501">
        <ele>1978</ele>
        <time>2018-11-24T22:54:40Z</time>
      </trkpt>
      <trkpt lat="42.85405" lon="0.68498">
        <ele>1978.4</ele>
        <time>2018-11-24T22:54:41Z</time>
      </trkpt>
      <trkpt lat="42.85405" lon="0.68495">
        <ele>1978.9</ele>
        <time>2018-11-24T22:54:41Z</time>
      </trkpt>
      <trkpt lat="42.85405" lon="0.68492">
        <ele>1980.7</ele>
        <time>2018-11-24T22:54:42Z</time>
      </trkpt>
      <trkpt lat="42.85405" lon="0.68488">
        <ele>1980.1</ele>
        <time>2018-11-24T22:54:43Z</time>
      </trkpt>
      <trkpt lat="42.85404" lon="0.68486">
        <ele>1980.5</ele>
        <time>2018-11-24T22:54:44Z</time>
      </trkpt>
      <trkpt lat="42.85404" lon="0.68483">
        <ele>1981</ele>
        <time>2018-11-24T22:54:45Z</time>
      </trkpt>
      <trkpt lat="42.85403" lon="0.6848">
        <ele>1981.5</ele>
        <time>2018-11-24T22:54:46Z</time>
      </trkpt>
      <trkpt lat="42.85402" lon="0.68478">
        <ele>1981.8</ele>
        <time>2018-11-24T22:54:47Z</time>
      </trkpt>
      <trkpt lat="42.854" lon="0.68476">
        <ele>1981.8</ele>
        <time>2018-11-24T22:54:48Z</time>
      </trkpt>
      <trkpt lat="42.85399" lon="0.68473">
        <ele>1982.2</ele>
        <time>2018-11-24T22:54:49Z</time>
      </trkpt>
      <trkpt lat="42.85396" lon="0.68471">
        <ele>1982.2</ele>
        <time>2018-11-24T22:54:50Z</time>
      </trkpt>
      <trkpt lat="42.85399" lon="0.6847">
        <ele>1982.7</ele>
        <time>2018-11-24T22:54:51Z</time>
      </trkpt>
      <trkpt lat="42.854" lon="0.68467">
        <ele>1983.3</ele>
        <time>2018-11-24T22:54:52Z</time>
      </trkpt>
      <trkpt lat="42.85402" lon="0.68466">
        <ele>1983.8</ele>
        <time>2018-11-24T22:54:53Z</time>
      </trkpt>
      <trkpt lat="42.85403" lon="0.68462">
        <ele>1984.5</ele>
        <time>2018-11-24T22:54:54Z</time>
      </trkpt>
      <trkpt lat="42.85402" lon="0.68459">
        <ele>1984.9</ele>
        <time>2018-11-24T22:54:55Z</time>
      </trkpt>
      <trkpt lat="42.85402" lon="0.68456">
        <ele>1985.3</ele>
        <time>2018-11-24T22:54:56Z</time>
      </trkpt>
      <trkpt lat="42.85402" lon="0.68453">
        <ele>1985.7</ele>
        <time>2018-11-24T22:54:57Z</time>
      </trkpt>
      <trkpt lat="42.85401" lon="0.6845">
        <ele>1986.1</ele>
        <time>2018-11-24T22:54:58Z</time>
      </trkpt>
      <trkpt lat="42.85401" lon="0.68447">
        <ele>1986.5</ele>
        <time>2018-11-24T22:54:58Z</time>
      </trkpt>
      <trkpt lat="42.85401" lon="0.68444">
        <ele>1986.9</ele>
        <time>2018-11-24T22:54:59Z</time>
      </trkpt>
      <trkpt lat="42.85401" lon="0.6844">
        <ele>1987.6</ele>
        <time>2018-11-24T22:55:01Z</time>
      </trkpt>
      <trkpt lat="42.85401" lon="0.68435">
        <ele>1988.2</ele>
        <time>2018-11-24T22:55:02Z</time>
      </trkpt>
      <trkpt lat="42.85401" lon="0.68432">
        <ele>1988.4</ele>
        <time>2018-11-24T22:55:03Z</time>
      </trkpt>
      <trkpt lat="42.85401" lon="0.68428">
        <ele>1989</ele>
        <time>2018-11-24T22:55:04Z</time>
      </trkpt>
      <trkpt lat="42.85402" lon="0.68426">
        <ele>1990.7</ele>
        <time>2018-11-24T22:55:05Z</time>
      </trkpt>
      <trkpt lat="42.85403" lon="0.68421">
        <ele>1990</ele>
        <time>2018-11-24T22:55:06Z</time>
      </trkpt>
      <trkpt lat="42.85403" lon="0.68417">
        <ele>1990.8</ele>
        <time>2018-11-24T22:55:08Z</time>
      </trkpt>
      <trkpt lat="42.85403" lon="0.68414">
        <ele>1991.2</ele>
        <time>2018-11-24T22:55:08Z</time>
      </trkpt>
      <trkpt lat="42.85403" lon="0.68412">
        <ele>1991.4</ele>
        <time>2018-11-24T22:55:09Z</time>
      </trkpt>
      <trkpt lat="42.85403" lon="0.68407">
        <ele>1991.9</ele>
        <time>2018-11-24T22:55:10Z</time>
      </trkpt>
      <trkpt lat="42.85403" lon="0.68403">
        <ele>1992.5</ele>
        <time>2018-11-24T22:55:12Z</time>
      </trkpt>
      <trkpt lat="42.85404" lon="0.68399">
        <ele>1993.1</ele>
        <time>2018-11-24T22:55:13Z</time>
      </trkpt>
      <trkpt lat="42.85404" lon="0.68395">
        <ele>1993.6</ele>
        <time>2018-11-24T22:55:14Z</time>
      </trkpt>
      <trkpt lat="42.85404" lon="0.68391">
        <ele>1993.9</ele>
        <time>2018-11-24T22:55:15Z</time>
      </trkpt>
      <trkpt lat="42.85404" lon="0.68387">
        <ele>1994.3</ele>
        <time>2018-11-24T22:55:16Z</time>
      </trkpt>
      <trkpt lat="42.85404" lon="0.68384">
        <ele>1994.6</ele>
        <time>2018-11-24T22:55:17Z</time>
      </trkpt>
      <trkpt lat="42.85404" lon="0.6838">
        <ele>1995</ele>
        <time>2018-11-24T22:55:18Z</time>
      </trkpt>
      <trkpt lat="42.85404" lon="0.68377">
        <ele>1995.2</ele>
        <time>2018-11-24T22:55:19Z</time>
      </trkpt>
      <trkpt lat="42.85405" lon="0.68375">
        <ele>1995.6</ele>
        <time>2018-11-24T22:55:20Z</time>
      </trkpt>
      <trkpt lat="42.85405" lon="0.68372">
        <ele>1995.8</ele>
        <time>2018-11-24T22:55:21Z</time>
      </trkpt>
      <trkpt lat="42.85405" lon="0.6837">
        <ele>1996.1</ele>
        <time>2018-11-24T22:55:22Z</time>
      </trkpt>
      <trkpt lat="42.85405" lon="0.68366">
        <ele>1996.5</ele>
        <time>2018-11-24T22:55:22Z</time>
      </trkpt>
      <trkpt lat="42.85406" lon="0.68364">
        <ele>1996.9</ele>
        <time>2018-11-24T22:55:23Z</time>
      </trkpt>
      <trkpt lat="42.85407" lon="0.6836">
        <ele>1997.3</ele>
        <time>2018-11-24T22:55:24Z</time>
      </trkpt>
      <trkpt lat="42.85407" lon="0.68357">
        <ele>1997.7</ele>
        <time>2018-11-24T22:55:25Z</time>
      </trkpt>
      <trkpt lat="42.85408" lon="0.68355">
        <ele>1998</ele>
        <time>2018-11-24T22:55:26Z</time>
      </trkpt>
      <trkpt lat="42.85408" lon="0.68351">
        <ele>1998.3</ele>
        <time>2018-11-24T22:55:27Z</time>
      </trkpt>
      <trkpt lat="42.85409" lon="0.68348">
        <ele>1998.7</ele>
        <time>2018-11-24T22:55:28Z</time>
      </trkpt>
      <trkpt lat="42.85408" lon="0.68346">
        <ele>1999</ele>
        <time>2018-11-24T22:55:29Z</time>
      </trkpt>
      <trkpt lat="42.85408" lon="0.68343">
        <ele>1999.2</ele>
        <time>2018-11-24T22:55:30Z</time>
      </trkpt>
      <trkpt lat="42.85407" lon="0.6834">
        <ele>2000.7</ele>
        <time>2018-11-24T22:55:31Z</time>
      </trkpt>
      <trkpt lat="42.85407" lon="0.68336">
        <ele>2000.2</ele>
        <time>2018-11-24T22:55:32Z</time>
      </trkpt>
      <trkpt lat="42.85408" lon="0.68334">
        <ele>2000.2</ele>
        <time>2018-11-24T22:55:32Z</time>
      </trkpt>
      <trkpt lat="42.85408" lon="0.68331">
        <ele>2000.6</ele>
        <time>2018-11-24T22:55:33Z</time>
      </trkpt>
      <trkpt lat="42.85407" lon="0.68328">
        <ele>2001</ele>
        <time>2018-11-24T22:55:34Z</time>
      </trkpt>
      <trkpt lat="42.85406" lon="0.68325">
        <ele>2001.3</ele>
        <time>2018-11-24T22:55:35Z</time>
      </trkpt>
      <trkpt lat="42.85406" lon="0.68323">
        <ele>2001.7</ele>
        <time>2018-11-24T22:55:36Z</time>
      </trkpt>
      <trkpt lat="42.85405" lon="0.68319">
        <ele>2002.1</ele>
        <time>2018-11-24T22:55:37Z</time>
      </trkpt>
      <trkpt lat="42.85405" lon="0.68316">
        <ele>2002.6</ele>
        <time>2018-11-24T22:55:38Z</time>
      </trkpt>
      <trkpt lat="42.85404" lon="0.68313">
        <ele>2003.1</ele>
        <time>2018-11-24T22:55:39Z</time>
      </trkpt>
      <trkpt lat="42.85403" lon="0.6831">
        <ele>2003.4</ele>
        <time>2018-11-24T22:55:40Z</time>
      </trkpt>
      <trkpt lat="42.85404" lon="0.68307">
        <ele>2003.8</ele>
        <time>2018-11-24T22:55:40Z</time>
      </trkpt>
      <trkpt lat="42.85404" lon="0.68305">
        <ele>2004.4</ele>
        <time>2018-11-24T22:55:41Z</time>
      </trkpt>
      <trkpt lat="42.85405" lon="0.68302">
        <ele>2004.8</ele>
        <time>2018-11-24T22:55:42Z</time>
      </trkpt>
      <trkpt lat="42.85406" lon="0.68298">
        <ele>2005.4</ele>
        <time>2018-11-24T22:55:43Z</time>
      </trkpt>
      <trkpt lat="42.85406" lon="0.68295">
        <ele>2005.9</ele>
        <time>2018-11-24T22:55:44Z</time>
      </trkpt>
      <trkpt lat="42.85406" lon="0.68292">
        <ele>2006.4</ele>
        <time>2018-11-24T22:55:45Z</time>
      </trkpt>
      <trkpt lat="42.85405" lon="0.68288">
        <ele>2007</ele>
        <time>2018-11-24T22:55:46Z</time>
      </trkpt>
      <trkpt lat="42.85405" lon="0.68286">
        <ele>2007.5</ele>
        <time>2018-11-24T22:55:47Z</time>
      </trkpt>
      <trkpt lat="42.85405" lon="0.68282">
        <ele>2007.9</ele>
        <time>2018-11-24T22:55:48Z</time>
      </trkpt>
      <trkpt lat="42.85405" lon="0.68279">
        <ele>2008.5</ele>
        <time>2018-11-24T22:55:49Z</time>
      </trkpt>
      <trkpt lat="42.85405" lon="0.68276">
        <ele>2011.2</ele>
        <time>2018-11-24T22:55:50Z</time>
      </trkpt>
      <trkpt lat="42.85406" lon="0.68273">
        <ele>2010.6</ele>
        <time>2018-11-24T22:55:51Z</time>
      </trkpt>
      <trkpt lat="42.85406" lon="0.68269">
        <ele>2010.1</ele>
        <time>2018-11-24T22:55:52Z</time>
      </trkpt>
      <trkpt lat="42.85406" lon="0.68267">
        <ele>2010.7</ele>
        <time>2018-11-24T22:55:53Z</time>
      </trkpt>
      <trkpt lat="42.85406" lon="0.68264">
        <ele>2011.2</ele>
        <time>2018-11-24T22:55:53Z</time>
      </trkpt>
      <trkpt lat="42.85405" lon="0.68261">
        <ele>2011.9</ele>
        <time>2018-11-24T22:55:54Z</time>
      </trkpt>
      <trkpt lat="42.85405" lon="0.68258">
        <ele>2012.5</ele>
        <time>2018-11-24T22:55:55Z</time>
      </trkpt>
      <trkpt lat="42.85406" lon="0.68255">
        <ele>2013.1</ele>
        <time>2018-11-24T22:55:56Z</time>
      </trkpt>
      <trkpt lat="42.85407" lon="0.68253">
        <ele>2013.8</ele>
        <time>2018-11-24T22:55:57Z</time>
      </trkpt>
      <trkpt lat="42.85406" lon="0.68251">
        <ele>2014.1</ele>
        <time>2018-11-24T22:55:58Z</time>
      </trkpt>
      <trkpt lat="42.85404" lon="0.68248">
        <ele>2014.6</ele>
        <time>2018-11-24T22:55:59Z</time>
      </trkpt>
      <trkpt lat="42.85404" lon="0.68245">
        <ele>2015.3</ele>
        <time>2018-11-24T22:56:00Z</time>
      </trkpt>
      <trkpt lat="42.85403" lon="0.68241">
        <ele>2015.9</ele>
        <time>2018-11-24T22:56:01Z</time>
      </trkpt>
      <trkpt lat="42.85402" lon="0.68239">
        <ele>2016.5</ele>
        <time>2018-11-24T22:56:01Z</time>
      </trkpt>
      <trkpt lat="42.85401" lon="0.68237">
        <ele>2016.9</ele>
        <time>2018-11-24T22:56:02Z</time>
      </trkpt>
      <trkpt lat="42.85399" lon="0.68235">
        <ele>2017.2</ele>
        <time>2018-11-24T22:56:03Z</time>
      </trkpt>
      <trkpt lat="42.85397" lon="0.68234">
        <ele>2017.3</ele>
        <time>2018-11-24T22:56:04Z</time>
      </trkpt>
      <trkpt lat="42.85395" lon="0.68233">
        <ele>2017.3</ele>
        <time>2018-11-24T22:56:05Z</time>
      </trkpt>
      <trkpt lat="42.85394" lon="0.68231">
        <ele>2017.8</ele>
        <time>2018-11-24T22:56:06Z</time>
      </trkpt>
      <trkpt lat="42.85394" lon="0.68227">
        <ele>2018.6</ele>
        <time>2018-11-24T22:56:07Z</time>
      </trkpt>
      <trkpt lat="42.85394" lon="0.68224">
        <ele>2019.2</ele>
        <time>2018-11-24T22:56:08Z</time>
      </trkpt>
      <trkpt lat="42.85393" lon="0.68221">
        <ele>2019.7</ele>
        <time>2018-11-24T22:56:08Z</time>
      </trkpt>
      <trkpt lat="42.85393" lon="0.68219">
        <ele>2020.2</ele>
        <time>2018-11-24T22:56:09Z</time>
      </trkpt>
      <trkpt lat="42.85393" lon="0.68216">
        <ele>2020.8</ele>
        <time>2018-11-24T22:56:10Z</time>
      </trkpt>
      <trkpt lat="42.85392" lon="0.68213">
        <ele>2021.3</ele>
        <time>2018-11-24T22:56:11Z</time>
      </trkpt>
      <trkpt lat="42.85392" lon="0.68211">
        <ele>2021.9</ele>
        <time>2018-11-24T22:56:12Z</time>
      </trkpt>
      <trkpt lat="42.85391" lon="0.68209">
        <ele>2022.2</ele>
        <time>2018-11-24T22:56:12Z</time>
      </trkpt>
      <trkpt lat="42.85389" lon="0.68208">
        <ele>2022.3</ele>
        <time>2018-11-24T22:56:13Z</time>
      </trkpt>
      <trkpt lat="42.85387" lon="0.68209">
        <ele>2022</ele>
        <time>2018-11-24T22:56:14Z</time>
      </trkpt>
      <trkpt lat="42.85386" lon="0.68207">
        <ele>2022.3</ele>
        <time>2018-11-24T22:56:15Z</time>
      </trkpt>
      <trkpt lat="42.85385" lon="0.68204">
        <ele>2022.8</ele>
        <time>2018-11-24T22:56:16Z</time>
      </trkpt>
      <trkpt lat="42.85384" lon="0.68202">
        <ele>2023.4</ele>
        <time>2018-11-24T22:56:16Z</time>
      </trkpt>
      <trkpt lat="42.85383" lon="0.682">
        <ele>2023.6</ele>
        <time>2018-11-24T22:56:17Z</time>
      </trkpt>
      <trkpt lat="42.85381" lon="0.68198">
        <ele>2023.9</ele>
        <time>2018-11-24T22:56:18Z</time>
      </trkpt>
      <trkpt lat="42.8538" lon="0.68196">
        <ele>2024.4</ele>
        <time>2018-11-24T22:56:19Z</time>
      </trkpt>
      <trkpt lat="42.85378" lon="0.68193">
        <ele>2025.1</ele>
        <time>2018-11-24T22:56:20Z</time>
      </trkpt>
      <trkpt lat="42.85377" lon="0.68191">
        <ele>2025.4</ele>
        <time>2018-11-24T22:56:21Z</time>
      </trkpt>
      <trkpt lat="42.85375" lon="0.68189">
        <ele>2025.9</ele>
        <time>2018-11-24T22:56:22Z</time>
      </trkpt>
      <trkpt lat="42.85374" lon="0.68186">
        <ele>2026.4</ele>
        <time>2018-11-24T22:56:23Z</time>
      </trkpt>
      <trkpt lat="42.85372" lon="0.68184">
        <ele>2026.7</ele>
        <time>2018-11-24T22:56:23Z</time>
      </trkpt>
      <trkpt lat="42.8537" lon="0.68181">
        <ele>2027.2</ele>
        <time>2018-11-24T22:56:25Z</time>
      </trkpt>
      <trkpt lat="42.85369" lon="0.68179">
        <ele>2027.5</ele>
        <time>2018-11-24T22:56:25Z</time>
      </trkpt>
      <trkpt lat="42.85368" lon="0.68177">
        <ele>2028</ele>
        <time>2018-11-24T22:56:26Z</time>
      </trkpt>
      <trkpt lat="42.85366" lon="0.68174">
        <ele>2028.7</ele>
        <time>2018-11-24T22:56:27Z</time>
      </trkpt>
      <trkpt lat="42.85364" lon="0.68172">
        <ele>2029</ele>
        <time>2018-11-24T22:56:28Z</time>
      </trkpt>
      <trkpt lat="42.85362" lon="0.68169">
        <ele>2029.6</ele>
        <time>2018-11-24T22:56:29Z</time>
      </trkpt>
      <trkpt lat="42.85361" lon="0.68167">
        <ele>2030.1</ele>
        <time>2018-11-24T22:56:30Z</time>
      </trkpt>
      <trkpt lat="42.85359" lon="0.68166">
        <ele>2030.3</ele>
        <time>2018-11-24T22:56:31Z</time>
      </trkpt>
      <trkpt lat="42.85357" lon="0.68164">
        <ele>2030.7</ele>
        <time>2018-11-24T22:56:32Z</time>
      </trkpt>
      <trkpt lat="42.85356" lon="0.68163">
        <ele>2030.9</ele>
        <time>2018-11-24T22:56:33Z</time>
      </trkpt>
      <trkpt lat="42.85353" lon="0.68161">
        <ele>2031.3</ele>
        <time>2018-11-24T22:56:34Z</time>
      </trkpt>
      <trkpt lat="42.85351" lon="0.6816">
        <ele>2031.4</ele>
        <time>2018-11-24T22:56:35Z</time>
      </trkpt>
      <trkpt lat="42.85349" lon="0.68158">
        <ele>2031.6</ele>
        <time>2018-11-24T22:56:36Z</time>
      </trkpt>
      <trkpt lat="42.85345" lon="0.68157">
        <ele>2031.9</ele>
        <time>2018-11-24T22:56:37Z</time>
      </trkpt>
      <trkpt lat="42.85343" lon="0.68156">
        <ele>2032</ele>
        <time>2018-11-24T22:56:38Z</time>
      </trkpt>
      <trkpt lat="42.8534" lon="0.68157">
        <ele>2031.9</ele>
        <time>2018-11-24T22:56:39Z</time>
      </trkpt>
      <trkpt lat="42.85338" lon="0.68158">
        <ele>2031.8</ele>
        <time>2018-11-24T22:56:40Z</time>
      </trkpt>
      <trkpt lat="42.85336" lon="0.68158">
        <ele>2031.7</ele>
        <time>2018-11-24T22:56:41Z</time>
      </trkpt>
      <trkpt lat="42.85334" lon="0.68159">
        <ele>2031.6</ele>
        <time>2018-11-24T22:56:42Z</time>
      </trkpt>
      <trkpt lat="42.85332" lon="0.68159">
        <ele>2031.5</ele>
        <time>2018-11-24T22:56:43Z</time>
      </trkpt>
      <trkpt lat="42.8533" lon="0.6816">
        <ele>2031.2</ele>
        <time>2018-11-24T22:56:43Z</time>
      </trkpt>
      <trkpt lat="42.85328" lon="0.6816">
        <ele>2031.2</ele>
        <time>2018-11-24T22:56:44Z</time>
      </trkpt>
      <trkpt lat="42.85325" lon="0.6816">
        <ele>2031.3</ele>
        <time>2018-11-24T22:56:45Z</time>
      </trkpt>
      <trkpt lat="42.85323" lon="0.6816">
        <ele>2031.4</ele>
        <time>2018-11-24T22:56:46Z</time>
      </trkpt>
      <trkpt lat="42.85321" lon="0.68158">
        <ele>2031.7</ele>
        <time>2018-11-24T22:56:47Z</time>
      </trkpt>
      <trkpt lat="42.8532" lon="0.68156">
        <ele>2032.1</ele>
        <time>2018-11-24T22:56:48Z</time>
      </trkpt>
      <trkpt lat="42.85318" lon="0.68153">
        <ele>2032.7</ele>
        <time>2018-11-24T22:56:49Z</time>
      </trkpt>
      <trkpt lat="42.85315" lon="0.6815">
        <ele>2033.4</ele>
        <time>2018-11-24T22:56:51Z</time>
      </trkpt>
      <trkpt lat="42.85314" lon="0.68148">
        <ele>2033.7</ele>
        <time>2018-11-24T22:56:51Z</time>
      </trkpt>
      <trkpt lat="42.85312" lon="0.68146">
        <ele>2034.1</ele>
        <time>2018-11-24T22:56:52Z</time>
      </trkpt>
      <trkpt lat="42.85311" lon="0.68144">
        <ele>2034.3</ele>
        <time>2018-11-24T22:56:53Z</time>
      </trkpt>
      <trkpt lat="42.85309" lon="0.68143">
        <ele>2034.7</ele>
        <time>2018-11-24T22:56:54Z</time>
      </trkpt>
      <trkpt lat="42.85308" lon="0.68141">
        <ele>2034.9</ele>
        <time>2018-11-24T22:56:54Z</time>
      </trkpt>
      <trkpt lat="42.85306" lon="0.68139">
        <ele>2035.2</ele>
        <time>2018-11-24T22:56:55Z</time>
      </trkpt>
      <trkpt lat="42.85305" lon="0.68137">
        <ele>2035.6</ele>
        <time>2018-11-24T22:56:56Z</time>
      </trkpt>
      <trkpt lat="42.85302" lon="0.68135">
        <ele>2036.1</ele>
        <time>2018-11-24T22:56:57Z</time>
      </trkpt>
      <trkpt lat="42.853" lon="0.68133">
        <ele>2036.5</ele>
        <time>2018-11-24T22:56:58Z</time>
      </trkpt>
      <trkpt lat="42.85298" lon="0.68131">
        <ele>2036.6</ele>
        <time>2018-11-24T22:56:59Z</time>
      </trkpt>
      <trkpt lat="42.85297" lon="0.68129">
        <ele>2037</ele>
        <time>2018-11-24T22:57:00Z</time>
      </trkpt>
      <trkpt lat="42.85295" lon="0.68126">
        <ele>2037.4</ele>
        <time>2018-11-24T22:57:01Z</time>
      </trkpt>
      <trkpt lat="42.85293" lon="0.68125">
        <ele>2037.7</ele>
        <time>2018-11-24T22:57:02Z</time>
      </trkpt>
      <trkpt lat="42.85291" lon="0.68124">
        <ele>2037.7</ele>
        <time>2018-11-24T22:57:03Z</time>
      </trkpt>
      <trkpt lat="42.85289" lon="0.68125">
        <ele>2037.6</ele>
        <time>2018-11-24T22:57:04Z</time>
      </trkpt>
      <trkpt lat="42.85287" lon="0.68125">
        <ele>2037.7</ele>
        <time>2018-11-24T22:57:05Z</time>
      </trkpt>
      <trkpt lat="42.85285" lon="0.68124">
        <ele>2037.7</ele>
        <time>2018-11-24T22:57:06Z</time>
      </trkpt>
      <trkpt lat="42.85282" lon="0.68124">
        <ele>2037.9</ele>
        <time>2018-11-24T22:57:06Z</time>
      </trkpt>
      <trkpt lat="42.8528" lon="0.68123">
        <ele>2037.9</ele>
        <time>2018-11-24T22:57:07Z</time>
      </trkpt>
      <trkpt lat="42.85278" lon="0.68124">
        <ele>2037.8</ele>
        <time>2018-11-24T22:57:08Z</time>
      </trkpt>
      <trkpt lat="42.85276" lon="0.68124">
        <ele>2038</ele>
        <time>2018-11-24T22:57:09Z</time>
      </trkpt>
      <trkpt lat="42.85274" lon="0.68124">
        <ele>2037.9</ele>
        <time>2018-11-24T22:57:10Z</time>
      </trkpt>
      <trkpt lat="42.85272" lon="0.68124">
        <ele>2037.8</ele>
        <time>2018-11-24T22:57:11Z</time>
      </trkpt>
      <trkpt lat="42.85269" lon="0.68125">
        <ele>2037.8</ele>
        <time>2018-11-24T22:57:12Z</time>
      </trkpt>
      <trkpt lat="42.85267" lon="0.68125">
        <ele>2037.9</ele>
        <time>2018-11-24T22:57:13Z</time>
      </trkpt>
      <trkpt lat="42.85265" lon="0.68124">
        <ele>2037.9</ele>
        <time>2018-11-24T22:57:14Z</time>
      </trkpt>
      <trkpt lat="42.85262" lon="0.68124">
        <ele>2038.1</ele>
        <time>2018-11-24T22:57:15Z</time>
      </trkpt>
      <trkpt lat="42.8526" lon="0.68124">
        <ele>2038.2</ele>
        <time>2018-11-24T22:57:16Z</time>
      </trkpt>
      <trkpt lat="42.85258" lon="0.68123">
        <ele>2038.3</ele>
        <time>2018-11-24T22:57:16Z</time>
      </trkpt>
      <trkpt lat="42.85256" lon="0.68123">
        <ele>2038.4</ele>
        <time>2018-11-24T22:57:17Z</time>
      </trkpt>
      <trkpt lat="42.85253" lon="0.68123">
        <ele>2038.6</ele>
        <time>2018-11-24T22:57:18Z</time>
      </trkpt>
      <trkpt lat="42.85252" lon="0.68121">
        <ele>2038.7</ele>
        <time>2018-11-24T22:57:19Z</time>
      </trkpt>
      <trkpt lat="42.85249" lon="0.68119">
        <ele>2041.2</ele>
        <time>2018-11-24T22:57:20Z</time>
      </trkpt>
      <trkpt lat="42.85247" lon="0.68118">
        <ele>2040.9</ele>
        <time>2018-11-24T22:57:21Z</time>
      </trkpt>
      <trkpt lat="42.85245" lon="0.68116">
        <ele>2040.6</ele>
        <time>2018-11-24T22:57:22Z</time>
      </trkpt>
      <trkpt lat="42.85242" lon="0.68114">
        <ele>2040.2</ele>
        <time>2018-11-24T22:57:23Z</time>
      </trkpt>
      <trkpt lat="42.8524" lon="0.68112">
        <ele>2040.2</ele>
        <time>2018-11-24T22:57:24Z</time>
      </trkpt>
      <trkpt lat="42.85239" lon="0.68111">
        <ele>2040.6</ele>
        <time>2018-11-24T22:57:25Z</time>
      </trkpt>
      <trkpt lat="42.85237" lon="0.68109">
        <ele>2041</ele>
        <time>2018-11-24T22:57:26Z</time>
      </trkpt>
      <trkpt lat="42.85236" lon="0.68108">
        <ele>2041.3</ele>
        <time>2018-11-24T22:57:27Z</time>
      </trkpt>
      <trkpt lat="42.85234" lon="0.68106">
        <ele>2041.7</ele>
        <time>2018-11-24T22:57:27Z</time>
      </trkpt>
      <trkpt lat="42.85232" lon="0.68105">
        <ele>2042</ele>
        <time>2018-11-24T22:57:28Z</time>
      </trkpt>
      <trkpt lat="42.8523" lon="0.68105">
        <ele>2042.2</ele>
        <time>2018-11-24T22:57:29Z</time>
      </trkpt>
      <trkpt lat="42.85228" lon="0.68104">
        <ele>2042.4</ele>
        <time>2018-11-24T22:57:30Z</time>
      </trkpt>
      <trkpt lat="42.85226" lon="0.68103">
        <ele>2042.6</ele>
        <time>2018-11-24T22:57:31Z</time>
      </trkpt>
      <trkpt lat="42.85224" lon="0.68102">
        <ele>2042.9</ele>
        <time>2018-11-24T22:57:32Z</time>
      </trkpt>
      <trkpt lat="42.85222" lon="0.68101">
        <ele>2043.2</ele>
        <time>2018-11-24T22:57:32Z</time>
      </trkpt>
      <trkpt lat="42.8522" lon="0.681">
        <ele>2043.6</ele>
        <time>2018-11-24T22:57:33Z</time>
      </trkpt>
      <trkpt lat="42.85219" lon="0.68098">
        <ele>2044.1</ele>
        <time>2018-11-24T22:57:34Z</time>
      </trkpt>
      <trkpt lat="42.85217" lon="0.68096">
        <ele>2044.4</ele>
        <time>2018-11-24T22:57:35Z</time>
      </trkpt>
      <trkpt lat="42.85215" lon="0.68095">
        <ele>2044.7</ele>
        <time>2018-11-24T22:57:36Z</time>
      </trkpt>
      <trkpt lat="42.85213" lon="0.68094">
        <ele>2045.1</ele>
        <time>2018-11-24T22:57:37Z</time>
      </trkpt>
      <trkpt lat="42.85211" lon="0.68092">
        <ele>2045.5</ele>
        <time>2018-11-24T22:57:38Z</time>
      </trkpt>
      <trkpt lat="42.85208" lon="0.68089">
        <ele>2046.4</ele>
        <time>2018-11-24T22:57:39Z</time>
      </trkpt>
      <trkpt lat="42.85207" lon="0.68087">
        <ele>2046.7</ele>
        <time>2018-11-24T22:57:40Z</time>
      </trkpt>
      <trkpt lat="42.85204" lon="0.68085">
        <ele>2047.3</ele>
        <time>2018-11-24T22:57:41Z</time>
      </trkpt>
      <trkpt lat="42.85202" lon="0.68084">
        <ele>2047.6</ele>
        <time>2018-11-24T22:57:42Z</time>
      </trkpt>
      <trkpt lat="42.85199" lon="0.68083">
        <ele>2048</ele>
        <time>2018-11-24T22:57:43Z</time>
      </trkpt>
      <trkpt lat="42.85197" lon="0.6808">
        <ele>2051.3</ele>
        <time>2018-11-24T22:57:44Z</time>
      </trkpt>
      <trkpt lat="42.85195" lon="0.68077">
        <ele>2050.9</ele>
        <time>2018-11-24T22:57:45Z</time>
      </trkpt>
      <trkpt lat="42.85192" lon="0.68075">
        <ele>2050.1</ele>
        <time>2018-11-24T22:57:47Z</time>
      </trkpt>
      <trkpt lat="42.8519" lon="0.68074">
        <ele>2050.6</ele>
        <time>2018-11-24T22:57:48Z</time>
      </trkpt>
      <trkpt lat="42.85187" lon="0.68072">
        <ele>2051.7</ele>
        <time>2018-11-24T22:57:49Z</time>
      </trkpt>
      <trkpt lat="42.85184" lon="0.68069">
        <ele>2052.7</ele>
        <time>2018-11-24T22:57:50Z</time>
      </trkpt>
      <trkpt lat="42.85182" lon="0.68068">
        <ele>2053.3</ele>
        <time>2018-11-24T22:57:51Z</time>
      </trkpt>
      <trkpt lat="42.85179" lon="0.68068">
        <ele>2053.9</ele>
        <time>2018-11-24T22:57:52Z</time>
      </trkpt>
      <trkpt lat="42.85177" lon="0.68067">
        <ele>2054.4</ele>
        <time>2018-11-24T22:57:53Z</time>
      </trkpt>
      <trkpt lat="42.85175" lon="0.68068">
        <ele>2054.6</ele>
        <time>2018-11-24T22:57:54Z</time>
      </trkpt>
      <trkpt lat="42.85172" lon="0.68069">
        <ele>2055.1</ele>
        <time>2018-11-24T22:57:55Z</time>
      </trkpt>
      <trkpt lat="42.85171" lon="0.68069">
        <ele>2055.4</ele>
        <time>2018-11-24T22:57:56Z</time>
      </trkpt>
      <trkpt lat="42.85169" lon="0.68069">
        <ele>2055.7</ele>
        <time>2018-11-24T22:57:57Z</time>
      </trkpt>
      <trkpt lat="42.85166" lon="0.68068">
        <ele>2056.5</ele>
        <time>2018-11-24T22:57:58Z</time>
      </trkpt>
      <trkpt lat="42.85164" lon="0.68069">
        <ele>2057</ele>
        <time>2018-11-24T22:57:59Z</time>
      </trkpt>
      <trkpt lat="42.85162" lon="0.68069">
        <ele>2057.3</ele>
        <time>2018-11-24T22:57:59Z</time>
      </trkpt>
      <trkpt lat="42.8516" lon="0.68071">
        <ele>2057.5</ele>
        <time>2018-11-24T22:58:00Z</time>
      </trkpt>
      <trkpt lat="42.85158" lon="0.68071">
        <ele>2057.9</ele>
        <time>2018-11-24T22:58:01Z</time>
      </trkpt>
      <trkpt lat="42.85156" lon="0.68072">
        <ele>2058.1</ele>
        <time>2018-11-24T22:58:02Z</time>
      </trkpt>
      <trkpt lat="42.85154" lon="0.68074">
        <ele>2058.4</ele>
        <time>2018-11-24T22:58:03Z</time>
      </trkpt>
      <trkpt lat="42.85153" lon="0.68075">
        <ele>2058.6</ele>
        <time>2018-11-24T22:58:03Z</time>
      </trkpt>
      <trkpt lat="42.8515" lon="0.68076">
        <ele>2061</ele>
        <time>2018-11-24T22:58:04Z</time>
      </trkpt>
      <trkpt lat="42.85148" lon="0.68077">
        <ele>2060.6</ele>
        <time>2018-11-24T22:58:06Z</time>
      </trkpt>
      <trkpt lat="42.85145" lon="0.68077">
        <ele>2060.1</ele>
        <time>2018-11-24T22:58:06Z</time>
      </trkpt>
      <trkpt lat="42.85143" lon="0.68077">
        <ele>2060.8</ele>
        <time>2018-11-24T22:58:07Z</time>
      </trkpt>
      <trkpt lat="42.85141" lon="0.68078">
        <ele>2061.5</ele>
        <time>2018-11-24T22:58:08Z</time>
      </trkpt>
      <trkpt lat="42.85139" lon="0.6808">
        <ele>2061.6</ele>
        <time>2018-11-24T22:58:09Z</time>
      </trkpt>
      <trkpt lat="42.85137" lon="0.68083">
        <ele>2061.9</ele>
        <time>2018-11-24T22:58:10Z</time>
      </trkpt>
      <trkpt lat="42.85135" lon="0.68084">
        <ele>2062.4</ele>
        <time>2018-11-24T22:58:11Z</time>
      </trkpt>
      <trkpt lat="42.85133" lon="0.68086">
        <ele>2062.8</ele>
        <time>2018-11-24T22:58:12Z</time>
      </trkpt>
      <trkpt lat="42.85131" lon="0.68088">
        <ele>2063.2</ele>
        <time>2018-11-24T22:58:13Z</time>
      </trkpt>
      <trkpt lat="42.8513" lon="0.6809">
        <ele>2063.1</ele>
        <time>2018-11-24T22:58:14Z</time>
      </trkpt>
      <trkpt lat="42.85128" lon="0.68093">
        <ele>2063.2</ele>
        <time>2018-11-24T22:58:15Z</time>
      </trkpt>
      <trkpt lat="42.85126" lon="0.68094">
        <ele>2063.7</ele>
        <time>2018-11-24T22:58:16Z</time>
      </trkpt>
      <trkpt lat="42.85125" lon="0.68097">
        <ele>2063.7</ele>
        <time>2018-11-24T22:58:17Z</time>
      </trkpt>
      <trkpt lat="42.85124" lon="0.68098">
        <ele>2063.9</ele>
        <time>2018-11-24T22:58:17Z</time>
      </trkpt>
      <trkpt lat="42.85122" lon="0.681">
        <ele>2064.1</ele>
        <time>2018-11-24T22:58:18Z</time>
      </trkpt>
      <trkpt lat="42.85121" lon="0.68103">
        <ele>2064.5</ele>
        <time>2018-11-24T22:58:19Z</time>
      </trkpt>
      <trkpt lat="42.85119" lon="0.68105">
        <ele>2064.7</ele>
        <time>2018-11-24T22:58:20Z</time>
      </trkpt>
      <trkpt lat="42.85117" lon="0.68107">
        <ele>2064.9</ele>
        <time>2018-11-24T22:58:21Z</time>
      </trkpt>
      <trkpt lat="42.85116" lon="0.68109">
        <ele>2065</ele>
        <time>2018-11-24T22:58:22Z</time>
      </trkpt>
      <trkpt lat="42.85115" lon="0.68112">
        <ele>2064.9</ele>
        <time>2018-11-24T22:58:23Z</time>
      </trkpt>
      <trkpt lat="42.85113" lon="0.68114">
        <ele>2065.5</ele>
        <time>2018-11-24T22:58:24Z</time>
      </trkpt>
      <trkpt lat="42.85112" lon="0.68116">
        <ele>2065.7</ele>
        <time>2018-11-24T22:58:25Z</time>
      </trkpt>
      <trkpt lat="42.8511" lon="0.68118">
        <ele>2066</ele>
        <time>2018-11-24T22:58:25Z</time>
      </trkpt>
      <trkpt lat="42.85109" lon="0.68121">
        <ele>2066.1</ele>
        <time>2018-11-24T22:58:26Z</time>
      </trkpt>
      <trkpt lat="42.85108" lon="0.68124">
        <ele>2066.4</ele>
        <time>2018-11-24T22:58:27Z</time>
      </trkpt>
      <trkpt lat="42.85106" lon="0.68126">
        <ele>2066.4</ele>
        <time>2018-11-24T22:58:28Z</time>
      </trkpt>
      <trkpt lat="42.85105" lon="0.68128">
        <ele>2066.7</ele>
        <time>2018-11-24T22:58:29Z</time>
      </trkpt>
      <trkpt lat="42.85103" lon="0.68129">
        <ele>2067.4</ele>
        <time>2018-11-24T22:58:30Z</time>
      </trkpt>
      <trkpt lat="42.85101" lon="0.68131">
        <ele>2068</ele>
        <time>2018-11-24T22:58:31Z</time>
      </trkpt>
      <trkpt lat="42.851" lon="0.68133">
        <ele>2068.3</ele>
        <time>2018-11-24T22:58:32Z</time>
      </trkpt>
      <trkpt lat="42.85098" lon="0.68135">
        <ele>2068.6</ele>
        <time>2018-11-24T22:58:33Z</time>
      </trkpt>
      <trkpt lat="42.85097" lon="0.68137">
        <ele>2068.7</ele>
        <time>2018-11-24T22:58:33Z</time>
      </trkpt>
      <trkpt lat="42.85096" lon="0.6814">
        <ele>2068.9</ele>
        <time>2018-11-24T22:58:34Z</time>
      </trkpt>
      <trkpt lat="42.85095" lon="0.68142">
        <ele>2069.2</ele>
        <time>2018-11-24T22:58:35Z</time>
      </trkpt>
      <trkpt lat="42.85093" lon="0.68145">
        <ele>2069.5</ele>
        <time>2018-11-24T22:58:36Z</time>
      </trkpt>
      <trkpt lat="42.85092" lon="0.68148">
        <ele>2070.1</ele>
        <time>2018-11-24T22:58:37Z</time>
      </trkpt>
      <trkpt lat="42.8509" lon="0.68149">
        <ele>2070.7</ele>
        <time>2018-11-24T22:58:38Z</time>
      </trkpt>
      <trkpt lat="42.85088" lon="0.68149">
        <ele>2071.4</ele>
        <time>2018-11-24T22:58:39Z</time>
      </trkpt>
      <trkpt lat="42.85086" lon="0.68151">
        <ele>2072</ele>
        <time>2018-11-24T22:58:40Z</time>
      </trkpt>
      <trkpt lat="42.85084" lon="0.68152">
        <ele>2072.7</ele>
        <time>2018-11-24T22:58:41Z</time>
      </trkpt>
      <trkpt lat="42.85082" lon="0.68152">
        <ele>2073.4</ele>
        <time>2018-11-24T22:58:41Z</time>
      </trkpt>
      <trkpt lat="42.85081" lon="0.68154">
        <ele>2073.8</ele>
        <time>2018-11-24T22:58:42Z</time>
      </trkpt>
      <trkpt lat="42.85078" lon="0.68155">
        <ele>2074.6</ele>
        <time>2018-11-24T22:58:43Z</time>
      </trkpt>
      <trkpt lat="42.85076" lon="0.68157">
        <ele>2075.3</ele>
        <time>2018-11-24T22:58:44Z</time>
      </trkpt>
      <trkpt lat="42.85073" lon="0.68158">
        <ele>2076.1</ele>
        <time>2018-11-24T22:58:45Z</time>
      </trkpt>
      <trkpt lat="42.85072" lon="0.6816">
        <ele>2076.4</ele>
        <time>2018-11-24T22:58:46Z</time>
      </trkpt>
      <trkpt lat="42.8507" lon="0.68162">
        <ele>2076.9</ele>
        <time>2018-11-24T22:58:47Z</time>
      </trkpt>
      <trkpt lat="42.85069" lon="0.68163">
        <ele>2077.4</ele>
        <time>2018-11-24T22:58:48Z</time>
      </trkpt>
      <trkpt lat="42.85066" lon="0.68163">
        <ele>2078.4</ele>
        <time>2018-11-24T22:58:49Z</time>
      </trkpt>
      <trkpt lat="42.85063" lon="0.68163">
        <ele>2079.3</ele>
        <time>2018-11-24T22:58:50Z</time>
      </trkpt>
      <trkpt lat="42.85061" lon="0.68163">
        <ele>2080</ele>
        <time>2018-11-24T22:58:51Z</time>
      </trkpt>
      <trkpt lat="42.85059" lon="0.68163">
        <ele>2080.7</ele>
        <time>2018-11-24T22:58:51Z</time>
      </trkpt>
      <trkpt lat="42.85057" lon="0.68164">
        <ele>2081.2</ele>
        <time>2018-11-24T22:58:52Z</time>
      </trkpt>
      <trkpt lat="42.85056" lon="0.68165">
        <ele>2081.8</ele>
        <time>2018-11-24T22:58:53Z</time>
      </trkpt>
      <trkpt lat="42.85054" lon="0.68166">
        <ele>2082.1</ele>
        <time>2018-11-24T22:58:54Z</time>
      </trkpt>
      <trkpt lat="42.85053" lon="0.68168">
        <ele>2082.6</ele>
        <time>2018-11-24T22:58:54Z</time>
      </trkpt>
      <trkpt lat="42.85051" lon="0.68169">
        <ele>2083.1</ele>
        <time>2018-11-24T22:58:55Z</time>
      </trkpt>
      <trkpt lat="42.85049" lon="0.6817">
        <ele>2083.7</ele>
        <time>2018-11-24T22:58:56Z</time>
      </trkpt>
      <trkpt lat="42.85047" lon="0.68172">
        <ele>2084.2</ele>
        <time>2018-11-24T22:58:57Z</time>
      </trkpt>
      <trkpt lat="42.85045" lon="0.68173">
        <ele>2084.8</ele>
        <time>2018-11-24T22:58:58Z</time>
      </trkpt>
      <trkpt lat="42.85042" lon="0.68174">
        <ele>2085.4</ele>
        <time>2018-11-24T22:58:59Z</time>
      </trkpt>
      <trkpt lat="42.8504" lon="0.68176">
        <ele>2086</ele>
        <time>2018-11-24T22:59:00Z</time>
      </trkpt>
      <trkpt lat="42.85038" lon="0.68178">
        <ele>2086.5</ele>
        <time>2018-11-24T22:59:01Z</time>
      </trkpt>
      <trkpt lat="42.85036" lon="0.6818">
        <ele>2086.9</ele>
        <time>2018-11-24T22:59:02Z</time>
      </trkpt>
      <trkpt lat="42.85035" lon="0.68182">
        <ele>2087.2</ele>
        <time>2018-11-24T22:59:03Z</time>
      </trkpt>
      <trkpt lat="42.85034" lon="0.68184">
        <ele>2087.6</ele>
        <time>2018-11-24T22:59:03Z</time>
      </trkpt>
      <trkpt lat="42.85032" lon="0.68185">
        <ele>2088.1</ele>
        <time>2018-11-24T22:59:04Z</time>
      </trkpt>
      <trkpt lat="42.8503" lon="0.68186">
        <ele>2088.5</ele>
        <time>2018-11-24T22:59:05Z</time>
      </trkpt>
      <trkpt lat="42.85028" lon="0.68188">
        <ele>2089</ele>
        <time>2018-11-24T22:59:06Z</time>
      </trkpt>
      <trkpt lat="42.85026" lon="0.6819">
        <ele>2089.5</ele>
        <time>2018-11-24T22:59:07Z</time>
      </trkpt>
      <trkpt lat="42.85025" lon="0.68192">
        <ele>2089.8</ele>
        <time>2018-11-24T22:59:08Z</time>
      </trkpt>
      <trkpt lat="42.85023" lon="0.68193">
        <ele>2089.7</ele>
        <time>2018-11-24T22:59:09Z</time>
      </trkpt>
      <trkpt lat="42.85021" lon="0.68194">
        <ele>2089.3</ele>
        <time>2018-11-24T22:59:10Z</time>
      </trkpt>
      <trkpt lat="42.85019" lon="0.68195">
        <ele>2088.9</ele>
        <time>2018-11-24T22:59:10Z</time>
      </trkpt>
      <trkpt lat="42.85017" lon="0.68195">
        <ele>2088.6</ele>
        <time>2018-11-24T22:59:11Z</time>
      </trkpt>
      <trkpt lat="42.85015" lon="0.68195">
        <ele>2088.4</ele>
        <time>2018-11-24T22:59:12Z</time>
      </trkpt>
      <trkpt lat="42.85013" lon="0.68193">
        <ele>2088.1</ele>
        <time>2018-11-24T22:59:13Z</time>
      </trkpt>
      <trkpt lat="42.85012" lon="0.68191">
        <ele>2088</ele>
        <time>2018-11-24T22:59:14Z</time>
      </trkpt>
      <trkpt lat="42.85011" lon="0.68189">
        <ele>2087.9</ele>
        <time>2018-11-24T22:59:14Z</time>
      </trkpt>
      <trkpt lat="42.85009" lon="0.6819">
        <ele>2087.6</ele>
        <time>2018-11-24T22:59:15Z</time>
      </trkpt>
      <trkpt lat="42.85007" lon="0.68189">
        <ele>2087.5</ele>
        <time>2018-11-24T22:59:16Z</time>
      </trkpt>
      <trkpt lat="42.85006" lon="0.68187">
        <ele>2087.5</ele>
        <time>2018-11-24T22:59:17Z</time>
      </trkpt>
      <trkpt lat="42.85005" lon="0.68184">
        <ele>2092.8</ele>
        <time>2018-11-24T22:59:18Z</time>
      </trkpt>
      <trkpt lat="42.85006" lon="0.68181">
        <ele>2092.8</ele>
        <time>2018-11-24T22:59:18Z</time>
      </trkpt>
      <trkpt lat="42.85006" lon="0.68178">
        <ele>2092.9</ele>
        <time>2018-11-24T22:59:19Z</time>
      </trkpt>
      <trkpt lat="42.85006" lon="0.68175">
        <ele>2093.1</ele>
        <time>2018-11-24T22:59:20Z</time>
      </trkpt>
      <trkpt lat="42.85005" lon="0.68171">
        <ele>2093.3</ele>
        <time>2018-11-24T22:59:21Z</time>
      </trkpt>
      <trkpt lat="42.85005" lon="0.68169">
        <ele>2093.6</ele>
        <time>2018-11-24T22:59:22Z</time>
      </trkpt>
      <trkpt lat="42.85005" lon="0.68166">
        <ele>2093.7</ele>
        <time>2018-11-24T22:59:23Z</time>
      </trkpt>
      <trkpt lat="42.85005" lon="0.68163">
        <ele>2093.9</ele>
        <time>2018-11-24T22:59:24Z</time>
      </trkpt>
      <trkpt lat="42.85005" lon="0.6816">
        <ele>2094.1</ele>
        <time>2018-11-24T22:59:25Z</time>
      </trkpt>
      <trkpt lat="42.85005" lon="0.68157">
        <ele>2094.2</ele>
        <time>2018-11-24T22:59:26Z</time>
      </trkpt>
      <trkpt lat="42.85004" lon="0.68154">
        <ele>2094.6</ele>
        <time>2018-11-24T22:59:27Z</time>
      </trkpt>
      <trkpt lat="42.85004" lon="0.68151">
        <ele>2094.8</ele>
        <time>2018-11-24T22:59:28Z</time>
      </trkpt>
      <trkpt lat="42.85003" lon="0.68148">
        <ele>2095.1</ele>
        <time>2018-11-24T22:59:28Z</time>
      </trkpt>
      <trkpt lat="42.85001" lon="0.68147">
        <ele>2095.5</ele>
        <time>2018-11-24T22:59:29Z</time>
      </trkpt>
      <trkpt lat="42.84999" lon="0.68145">
        <ele>2095.8</ele>
        <time>2018-11-24T22:59:30Z</time>
      </trkpt>
      <trkpt lat="42.84998" lon="0.68144">
        <ele>2096</ele>
        <time>2018-11-24T22:59:31Z</time>
      </trkpt>
      <trkpt lat="42.84996" lon="0.68144">
        <ele>2096.3</ele>
        <time>2018-11-24T22:59:32Z</time>
      </trkpt>
      <trkpt lat="42.84994" lon="0.68143">
        <ele>2096.7</ele>
        <time>2018-11-24T22:59:32Z</time>
      </trkpt>
      <trkpt lat="42.84993" lon="0.6814">
        <ele>2096.9</ele>
        <time>2018-11-24T22:59:33Z</time>
      </trkpt>
      <trkpt lat="42.84991" lon="0.68138">
        <ele>2097.3</ele>
        <time>2018-11-24T22:59:34Z</time>
      </trkpt>
      <trkpt lat="42.8499" lon="0.68136">
        <ele>2097.6</ele>
        <time>2018-11-24T22:59:35Z</time>
      </trkpt>
      <trkpt lat="42.84989" lon="0.68133">
        <ele>2098.2</ele>
        <time>2018-11-24T22:59:36Z</time>
      </trkpt>
      <trkpt lat="42.84987" lon="0.68131">
        <ele>2098.6</ele>
        <time>2018-11-24T22:59:37Z</time>
      </trkpt>
      <trkpt lat="42.84987" lon="0.68128">
        <ele>2098.9</ele>
        <time>2018-11-24T22:59:38Z</time>
      </trkpt>
      <trkpt lat="42.84987" lon="0.68124">
        <ele>2099.4</ele>
        <time>2018-11-24T22:59:39Z</time>
      </trkpt>
      <trkpt lat="42.84987" lon="0.68119">
        <ele>2099.9</ele>
        <time>2018-11-24T22:59:40Z</time>
      </trkpt>
      <trkpt lat="42.84986" lon="0.68115">
        <ele>2099.7</ele>
        <time>2018-11-24T22:59:42Z</time>
      </trkpt>
      <trkpt lat="42.84985" lon="0.68111">
        <ele>2099.2</ele>
        <time>2018-11-24T22:59:43Z</time>
      </trkpt>
      <trkpt lat="42.84983" lon="0.68108">
        <ele>2098.8</ele>
        <time>2018-11-24T22:59:44Z</time>
      </trkpt>
      <trkpt lat="42.84981" lon="0.68105">
        <ele>2098.5</ele>
        <time>2018-11-24T22:59:45Z</time>
      </trkpt>
      <trkpt lat="42.84981" lon="0.68102">
        <ele>2098.2</ele>
        <time>2018-11-24T22:59:46Z</time>
      </trkpt>
      <trkpt lat="42.8498" lon="0.68098">
        <ele>2098</ele>
        <time>2018-11-24T22:59:47Z</time>
      </trkpt>
      <trkpt lat="42.84979" lon="0.68095">
        <ele>2097.8</ele>
        <time>2018-11-24T22:59:48Z</time>
      </trkpt>
      <trkpt lat="42.84978" lon="0.68092">
        <ele>2102.4</ele>
        <time>2018-11-24T22:59:49Z</time>
      </trkpt>
      <trkpt lat="42.84977" lon="0.68089">
        <ele>2102.7</ele>
        <time>2018-11-24T22:59:50Z</time>
      </trkpt>
      <trkpt lat="42.84976" lon="0.68085">
        <ele>2103</ele>
        <time>2018-11-24T22:59:51Z</time>
      </trkpt>
      <trkpt lat="42.84975" lon="0.68082">
        <ele>2103.2</ele>
        <time>2018-11-24T22:59:52Z</time>
      </trkpt>
      <trkpt lat="42.84974" lon="0.6808">
        <ele>2103.4</ele>
        <time>2018-11-24T22:59:53Z</time>
      </trkpt>
      <trkpt lat="42.84973" lon="0.68077">
        <ele>2103.6</ele>
        <time>2018-11-24T22:59:54Z</time>
      </trkpt>
      <trkpt lat="42.84972" lon="0.68075">
        <ele>2103.8</ele>
        <time>2018-11-24T22:59:55Z</time>
      </trkpt>
      <trkpt lat="42.84971" lon="0.68072">
        <ele>2103.9</ele>
        <time>2018-11-24T22:59:56Z</time>
      </trkpt>
      <trkpt lat="42.8497" lon="0.6807">
        <ele>2103.9</ele>
        <time>2018-11-24T22:59:57Z</time>
      </trkpt>
      <trkpt lat="42.84969" lon="0.68067">
        <ele>2104</ele>
        <time>2018-11-24T22:59:57Z</time>
      </trkpt>
      <trkpt lat="42.84968" lon="0.68064">
        <ele>2104.1</ele>
        <time>2018-11-24T22:59:58Z</time>
      </trkpt>
      <trkpt lat="42.84966" lon="0.68061">
        <ele>2104.2</ele>
        <time>2018-11-24T22:59:59Z</time>
      </trkpt>
      <trkpt lat="42.84965" lon="0.68058">
        <ele>2104.2</ele>
        <time>2018-11-24T23:00:00Z</time>
      </trkpt>
      <trkpt lat="42.84964" lon="0.68055">
        <ele>2104.3</ele>
        <time>2018-11-24T23:00:01Z</time>
      </trkpt>
      <trkpt lat="42.84963" lon="0.68052">
        <ele>2104.4</ele>
        <time>2018-11-24T23:00:02Z</time>
      </trkpt>
      <trkpt lat="42.84962" lon="0.68049">
        <ele>2104.4</ele>
        <time>2018-11-24T23:00:03Z</time>
      </trkpt>
      <trkpt lat="42.84961" lon="0.68047">
        <ele>2104.4</ele>
        <time>2018-11-24T23:00:04Z</time>
      </trkpt>
      <trkpt lat="42.8496" lon="0.68044">
        <ele>2104.5</ele>
        <time>2018-11-24T23:00:05Z</time>
      </trkpt>
      <trkpt lat="42.84958" lon="0.68041">
        <ele>2104.5</ele>
        <time>2018-11-24T23:00:06Z</time>
      </trkpt>
      <trkpt lat="42.84957" lon="0.68039">
        <ele>2104.5</ele>
        <time>2018-11-24T23:00:07Z</time>
      </trkpt>
      <trkpt lat="42.84957" lon="0.68036">
        <ele>2104.8</ele>
        <time>2018-11-24T23:00:08Z</time>
      </trkpt>
      <trkpt lat="42.84956" lon="0.68033">
        <ele>2104.9</ele>
        <time>2018-11-24T23:00:09Z</time>
      </trkpt>
      <trkpt lat="42.84956" lon="0.68031">
        <ele>2104.9</ele>
        <time>2018-11-24T23:00:09Z</time>
      </trkpt>
      <trkpt lat="42.84954" lon="0.68028">
        <ele>2105</ele>
        <time>2018-11-24T23:00:10Z</time>
      </trkpt>
      <trkpt lat="42.84953" lon="0.68025">
        <ele>2104.9</ele>
        <time>2018-11-24T23:00:11Z</time>
      </trkpt>
      <trkpt lat="42.84951" lon="0.68023">
        <ele>2104.9</ele>
        <time>2018-11-24T23:00:12Z</time>
      </trkpt>
      <trkpt lat="42.84949" lon="0.6802">
        <ele>2104.8</ele>
        <time>2018-11-24T23:00:13Z</time>
      </trkpt>
      <trkpt lat="42.84948" lon="0.68018">
        <ele>2104.8</ele>
        <time>2018-11-24T23:00:14Z</time>
      </trkpt>
      <trkpt lat="42.84946" lon="0.68016">
        <ele>2104.8</ele>
        <time>2018-11-24T23:00:15Z</time>
      </trkpt>
      <trkpt lat="42.84945" lon="0.68014">
        <ele>2104.7</ele>
        <time>2018-11-24T23:00:16Z</time>
      </trkpt>
      <trkpt lat="42.84943" lon="0.68012">
        <ele>2104.5</ele>
        <time>2018-11-24T23:00:17Z</time>
      </trkpt>
      <trkpt lat="42.84941" lon="0.68011">
        <ele>2104.3</ele>
        <time>2018-11-24T23:00:18Z</time>
      </trkpt>
      <trkpt lat="42.84939" lon="0.6801">
        <ele>2104.3</ele>
        <time>2018-11-24T23:00:18Z</time>
      </trkpt>
      <trkpt lat="42.84938" lon="0.68008">
        <ele>2104.3</ele>
        <time>2018-11-24T23:00:19Z</time>
      </trkpt>
      <trkpt lat="42.84936" lon="0.68003">
        <ele>2104.2</ele>
        <time>2018-11-24T23:00:21Z</time>
      </trkpt>
      <trkpt lat="42.84935" lon="0.68001">
        <ele>2104.3</ele>
        <time>2018-11-24T23:00:21Z</time>
      </trkpt>
      <trkpt lat="42.84934" lon="0.67999">
        <ele>2104.3</ele>
        <time>2018-11-24T23:00:22Z</time>
      </trkpt>
      <trkpt lat="42.84932" lon="0.67997">
        <ele>2104.2</ele>
        <time>2018-11-24T23:00:23Z</time>
      </trkpt>
      <trkpt lat="42.84931" lon="0.67994">
        <ele>2104.1</ele>
        <time>2018-11-24T23:00:24Z</time>
      </trkpt>
      <trkpt lat="42.8493" lon="0.67992">
        <ele>2104.1</ele>
        <time>2018-11-24T23:00:25Z</time>
      </trkpt>
      <trkpt lat="42.84928" lon="0.67989">
        <ele>2104.1</ele>
        <time>2018-11-24T23:00:26Z</time>
      </trkpt>
      <trkpt lat="42.84927" lon="0.67986">
        <ele>2104.2</ele>
        <time>2018-11-24T23:00:27Z</time>
      </trkpt>
      <trkpt lat="42.84926" lon="0.67984">
        <ele>2104.1</ele>
        <time>2018-11-24T23:00:28Z</time>
      </trkpt>
      <trkpt lat="42.84925" lon="0.67981">
        <ele>2104.1</ele>
        <time>2018-11-24T23:00:29Z</time>
      </trkpt>
      <trkpt lat="42.84924" lon="0.67979">
        <ele>2104.2</ele>
        <time>2018-11-24T23:00:29Z</time>
      </trkpt>
      <trkpt lat="42.84922" lon="0.67976">
        <ele>2104.1</ele>
        <time>2018-11-24T23:00:30Z</time>
      </trkpt>
      <trkpt lat="42.84921" lon="0.67974">
        <ele>2104.2</ele>
        <time>2018-11-24T23:00:31Z</time>
      </trkpt>
      <trkpt lat="42.8492" lon="0.67971">
        <ele>2104.3</ele>
        <time>2018-11-24T23:00:32Z</time>
      </trkpt>
      <trkpt lat="42.84919" lon="0.67969">
        <ele>2104.4</ele>
        <time>2018-11-24T23:00:33Z</time>
      </trkpt>
      <trkpt lat="42.84918" lon="0.67967">
        <ele>2104.4</ele>
        <time>2018-11-24T23:00:34Z</time>
      </trkpt>
      <trkpt lat="42.84917" lon="0.67964">
        <ele>2104.4</ele>
        <time>2018-11-24T23:00:35Z</time>
      </trkpt>
      <trkpt lat="42.84916" lon="0.67962">
        <ele>2104.4</ele>
        <time>2018-11-24T23:00:35Z</time>
      </trkpt>
      <trkpt lat="42.84914" lon="0.67959">
        <ele>2104.4</ele>
        <time>2018-11-24T23:00:36Z</time>
      </trkpt>
      <trkpt lat="42.84913" lon="0.67957">
        <ele>2104.4</ele>
        <time>2018-11-24T23:00:37Z</time>
      </trkpt>
      <trkpt lat="42.84912" lon="0.67955">
        <ele>2104.4</ele>
        <time>2018-11-24T23:00:38Z</time>
      </trkpt>
      <trkpt lat="42.84911" lon="0.67952">
        <ele>2104.4</ele>
        <time>2018-11-24T23:00:39Z</time>
      </trkpt>
      <trkpt lat="42.8491" lon="0.6795">
        <ele>2104.5</ele>
        <time>2018-11-24T23:00:40Z</time>
      </trkpt>
      <trkpt lat="42.84908" lon="0.67948">
        <ele>2104.5</ele>
        <time>2018-11-24T23:00:40Z</time>
      </trkpt>
      <trkpt lat="42.84907" lon="0.67946">
        <ele>2104.5</ele>
        <time>2018-11-24T23:00:41Z</time>
      </trkpt>
      <trkpt lat="42.84906" lon="0.67944">
        <ele>2104.5</ele>
        <time>2018-11-24T23:00:42Z</time>
      </trkpt>
      <trkpt lat="42.84905" lon="0.67941">
        <ele>2104.5</ele>
        <time>2018-11-24T23:00:43Z</time>
      </trkpt>
      <trkpt lat="42.84903" lon="0.67938">
        <ele>2104.6</ele>
        <time>2018-11-24T23:00:44Z</time>
      </trkpt>
      <trkpt lat="42.84902" lon="0.67936">
        <ele>2104.6</ele>
        <time>2018-11-24T23:00:45Z</time>
      </trkpt>
      <trkpt lat="42.84901" lon="0.67934">
        <ele>2104.7</ele>
        <time>2018-11-24T23:00:46Z</time>
      </trkpt>
      <trkpt lat="42.84899" lon="0.67932">
        <ele>2104.6</ele>
        <time>2018-11-24T23:00:46Z</time>
      </trkpt>
      <trkpt lat="42.84898" lon="0.67929">
        <ele>2104.7</ele>
        <time>2018-11-24T23:00:47Z</time>
      </trkpt>
      <trkpt lat="42.84897" lon="0.67927">
        <ele>2104.7</ele>
        <time>2018-11-24T23:00:48Z</time>
      </trkpt>
      <trkpt lat="42.84896" lon="0.67924">
        <ele>2104.7</ele>
        <time>2018-11-24T23:00:49Z</time>
      </trkpt>
      <trkpt lat="42.84895" lon="0.67922">
        <ele>2104.9</ele>
        <time>2018-11-24T23:00:50Z</time>
      </trkpt>
      <trkpt lat="42.84894" lon="0.67919">
        <ele>2104.9</ele>
        <time>2018-11-24T23:00:51Z</time>
      </trkpt>
      <trkpt lat="42.84892" lon="0.67916">
        <ele>2104.9</ele>
        <time>2018-11-24T23:00:52Z</time>
      </trkpt>
      <trkpt lat="42.84891" lon="0.67914">
        <ele>2104.9</ele>
        <time>2018-11-24T23:00:53Z</time>
      </trkpt>
      <trkpt lat="42.8489" lon="0.67911">
        <ele>2105</ele>
        <time>2018-11-24T23:00:53Z</time>
      </trkpt>
      <trkpt lat="42.84889" lon="0.67909">
        <ele>2105.1</ele>
        <time>2018-11-24T23:00:54Z</time>
      </trkpt>
      <trkpt lat="42.84888" lon="0.67906">
        <ele>2105.1</ele>
        <time>2018-11-24T23:00:55Z</time>
      </trkpt>
      <trkpt lat="42.84887" lon="0.67904">
        <ele>2105.1</ele>
        <time>2018-11-24T23:00:56Z</time>
      </trkpt>
      <trkpt lat="42.84886" lon="0.67901">
        <ele>2105</ele>
        <time>2018-11-24T23:00:57Z</time>
      </trkpt>
      <trkpt lat="42.84884" lon="0.67899">
        <ele>2110.1</ele>
        <time>2018-11-24T23:00:58Z</time>
      </trkpt>
      <trkpt lat="42.84882" lon="0.67898">
        <ele>2110</ele>
        <time>2018-11-24T23:00:59Z</time>
      </trkpt>
      <trkpt lat="42.8488" lon="0.67896">
        <ele>2110</ele>
        <time>2018-11-24T23:01:00Z</time>
      </trkpt>
      <trkpt lat="42.84879" lon="0.67894">
        <ele>2110</ele>
        <time>2018-11-24T23:01:00Z</time>
      </trkpt>
      <trkpt lat="42.84876" lon="0.67891">
        <ele>2110.1</ele>
        <time>2018-11-24T23:01:02Z</time>
      </trkpt>
      <trkpt lat="42.84875" lon="0.67889">
        <ele>2110.1</ele>
        <time>2018-11-24T23:01:03Z</time>
      </trkpt>
      <trkpt lat="42.84874" lon="0.67887">
        <ele>2110</ele>
        <time>2018-11-24T23:01:03Z</time>
      </trkpt>
      <trkpt lat="42.84873" lon="0.67885">
        <ele>2110</ele>
        <time>2018-11-24T23:01:04Z</time>
      </trkpt>
      <trkpt lat="42.84871" lon="0.67883">
        <ele>2110.1</ele>
        <time>2018-11-24T23:01:05Z</time>
      </trkpt>
      <trkpt lat="42.84869" lon="0.67881">
        <ele>2110</ele>
        <time>2018-11-24T23:01:06Z</time>
      </trkpt>
      <trkpt lat="42.84868" lon="0.67879">
        <ele>2110</ele>
        <time>2018-11-24T23:01:07Z</time>
      </trkpt>
      <trkpt lat="42.84866" lon="0.67877">
        <ele>2110</ele>
        <time>2018-11-24T23:01:07Z</time>
      </trkpt>
      <trkpt lat="42.84865" lon="0.67876">
        <ele>2110.1</ele>
        <time>2018-11-24T23:01:08Z</time>
      </trkpt>
      <trkpt lat="42.84864" lon="0.67873">
        <ele>2110</ele>
        <time>2018-11-24T23:01:09Z</time>
      </trkpt>
      <trkpt lat="42.84863" lon="0.67871">
        <ele>2110</ele>
        <time>2018-11-24T23:01:10Z</time>
      </trkpt>
      <trkpt lat="42.84861" lon="0.67867">
        <ele>2110.1</ele>
        <time>2018-11-24T23:01:11Z</time>
      </trkpt>
      <trkpt lat="42.84859" lon="0.67865">
        <ele>2110</ele>
        <time>2018-11-24T23:01:12Z</time>
      </trkpt>
      <trkpt lat="42.84858" lon="0.67863">
        <ele>2110.1</ele>
        <time>2018-11-24T23:01:13Z</time>
      </trkpt>
      <trkpt lat="42.84857" lon="0.67861">
        <ele>2110.1</ele>
        <time>2018-11-24T23:01:13Z</time>
      </trkpt>
      <trkpt lat="42.84856" lon="0.67859">
        <ele>2110.1</ele>
        <time>2018-11-24T23:01:14Z</time>
      </trkpt>
      <trkpt lat="42.84855" lon="0.67857">
        <ele>2110</ele>
        <time>2018-11-24T23:01:15Z</time>
      </trkpt>
      <trkpt lat="42.84854" lon="0.67855">
        <ele>2110.1</ele>
        <time>2018-11-24T23:01:16Z</time>
      </trkpt>
      <trkpt lat="42.84852" lon="0.67853">
        <ele>2110</ele>
        <time>2018-11-24T23:01:17Z</time>
      </trkpt>
      <trkpt lat="42.84851" lon="0.67851">
        <ele>2110.1</ele>
        <time>2018-11-24T23:01:17Z</time>
      </trkpt>
      <trkpt lat="42.84849" lon="0.67848">
        <ele>2110</ele>
        <time>2018-11-24T23:01:19Z</time>
      </trkpt>
      <trkpt lat="42.84847" lon="0.67845">
        <ele>2110</ele>
        <time>2018-11-24T23:01:20Z</time>
      </trkpt>
      <trkpt lat="42.84845" lon="0.67841">
        <ele>2107.7</ele>
        <time>2018-11-24T23:01:21Z</time>
      </trkpt>
      <trkpt lat="42.84844" lon="0.67838">
        <ele>2107.9</ele>
        <time>2018-11-24T23:01:22Z</time>
      </trkpt>
      <trkpt lat="42.84843" lon="0.67835">
        <ele>2108.1</ele>
        <time>2018-11-24T23:01:23Z</time>
      </trkpt>
      <trkpt lat="42.84841" lon="0.67831">
        <ele>2108.2</ele>
        <time>2018-11-24T23:01:24Z</time>
      </trkpt>
      <trkpt lat="42.84839" lon="0.67828">
        <ele>2108.3</ele>
        <time>2018-11-24T23:01:26Z</time>
      </trkpt>
      <trkpt lat="42.84837" lon="0.67825">
        <ele>2108.6</ele>
        <time>2018-11-24T23:01:27Z</time>
      </trkpt>
      <trkpt lat="42.84834" lon="0.67821">
        <ele>2108.7</ele>
        <time>2018-11-24T23:01:28Z</time>
      </trkpt>
      <trkpt lat="42.84832" lon="0.67818">
        <ele>2108.9</ele>
        <time>2018-11-24T23:01:30Z</time>
      </trkpt>
      <trkpt lat="42.8483" lon="0.67814">
        <ele>2109.1</ele>
        <time>2018-11-24T23:01:31Z</time>
      </trkpt>
      <trkpt lat="42.84828" lon="0.67811">
        <ele>2109.4</ele>
        <time>2018-11-24T23:01:32Z</time>
      </trkpt>
      <trkpt lat="42.84826" lon="0.67807">
        <ele>2109.6</ele>
        <time>2018-11-24T23:01:34Z</time>
      </trkpt>
      <trkpt lat="42.84825" lon="0.67804">
        <ele>2109.6</ele>
        <time>2018-11-24T23:01:35Z</time>
      </trkpt>
      <trkpt lat="42.84823" lon="0.678">
        <ele>2109.7</ele>
        <time>2018-11-24T23:01:36Z</time>
      </trkpt>
      <trkpt lat="42.84821" lon="0.67797">
        <ele>2110</ele>
        <time>2018-11-24T23:01:37Z</time>
      </trkpt>
      <trkpt lat="42.84819" lon="0.67794">
        <ele>2109.9</ele>
        <time>2018-11-24T23:01:38Z</time>
      </trkpt>
      <trkpt lat="42.84818" lon="0.67791">
        <ele>2109.7</ele>
        <time>2018-11-24T23:01:40Z</time>
      </trkpt>
      <trkpt lat="42.84816" lon="0.67788">
        <ele>2109.6</ele>
        <time>2018-11-24T23:01:41Z</time>
      </trkpt>
      <trkpt lat="42.84814" lon="0.67784">
        <ele>2109.6</ele>
        <time>2018-11-24T23:01:42Z</time>
      </trkpt>
      <trkpt lat="42.84813" lon="0.67781">
        <ele>2109.4</ele>
        <time>2018-11-24T23:01:43Z</time>
      </trkpt>
      <trkpt lat="42.84811" lon="0.67778">
        <ele>2109.3</ele>
        <time>2018-11-24T23:01:44Z</time>
      </trkpt>
      <trkpt lat="42.84809" lon="0.67774">
        <ele>2109.1</ele>
        <time>2018-11-24T23:01:46Z</time>
      </trkpt>
      <trkpt lat="42.84807" lon="0.67771">
        <ele>2108.9</ele>
        <time>2018-11-24T23:01:47Z</time>
      </trkpt>
      <trkpt lat="42.84804" lon="0.67769">
        <ele>2108.6</ele>
        <time>2018-11-24T23:01:48Z</time>
      </trkpt>
      <trkpt lat="42.84802" lon="0.67766">
        <ele>2108.3</ele>
        <time>2018-11-24T23:01:49Z</time>
      </trkpt>
      <trkpt lat="42.848" lon="0.67764">
        <ele>2107.9</ele>
        <time>2018-11-24T23:01:50Z</time>
      </trkpt>
      <trkpt lat="42.84798" lon="0.67763">
        <ele>2107.8</ele>
        <time>2018-11-24T23:01:51Z</time>
      </trkpt>
      <trkpt lat="42.84795" lon="0.6776">
        <ele>2107.5</ele>
        <time>2018-11-24T23:01:53Z</time>
      </trkpt>
      <trkpt lat="42.84792" lon="0.67759">
        <ele>2107.2</ele>
        <time>2018-11-24T23:01:54Z</time>
      </trkpt>
      <trkpt lat="42.84791" lon="0.67757">
        <ele>2107.3</ele>
        <time>2018-11-24T23:01:55Z</time>
      </trkpt>
      <trkpt lat="42.84788" lon="0.67755">
        <ele>2107.4</ele>
        <time>2018-11-24T23:01:56Z</time>
      </trkpt>
      <trkpt lat="42.84785" lon="0.67753">
        <ele>2107.4</ele>
        <time>2018-11-24T23:01:57Z</time>
      </trkpt>
      <trkpt lat="42.84783" lon="0.67754">
        <ele>2107.6</ele>
        <time>2018-11-24T23:01:58Z</time>
      </trkpt>
      <trkpt lat="42.8478" lon="0.67754">
        <ele>2107.7</ele>
        <time>2018-11-24T23:01:59Z</time>
      </trkpt>
      <trkpt lat="42.84777" lon="0.67752">
        <ele>2107.9</ele>
        <time>2018-11-24T23:02:01Z</time>
      </trkpt>
      <trkpt lat="42.84774" lon="0.6775">
        <ele>2108</ele>
        <time>2018-11-24T23:02:02Z</time>
      </trkpt>
      <trkpt lat="42.84773" lon="0.67748">
        <ele>2108</ele>
        <time>2018-11-24T23:02:03Z</time>
      </trkpt>
      <trkpt lat="42.84771" lon="0.67746">
        <ele>2108</ele>
        <time>2018-11-24T23:02:04Z</time>
      </trkpt>
      <trkpt lat="42.8477" lon="0.67744">
        <ele>2107.9</ele>
        <time>2018-11-24T23:02:04Z</time>
      </trkpt>
      <trkpt lat="42.84768" lon="0.67742">
        <ele>2108</ele>
        <time>2018-11-24T23:02:05Z</time>
      </trkpt>
      <trkpt lat="42.84766" lon="0.6774">
        <ele>2108</ele>
        <time>2018-11-24T23:02:06Z</time>
      </trkpt>
      <trkpt lat="42.84765" lon="0.67738">
        <ele>2107.8</ele>
        <time>2018-11-24T23:02:07Z</time>
      </trkpt>
      <trkpt lat="42.84763" lon="0.67734">
        <ele>2112.4</ele>
        <time>2018-11-24T23:02:08Z</time>
      </trkpt>
      <trkpt lat="42.84763" lon="0.67732">
        <ele>2112.7</ele>
        <time>2018-11-24T23:02:09Z</time>
      </trkpt>
      <trkpt lat="42.84762" lon="0.67728">
        <ele>2113.2</ele>
        <time>2018-11-24T23:02:10Z</time>
      </trkpt>
      <trkpt lat="42.8476" lon="0.67726">
        <ele>2113.3</ele>
        <time>2018-11-24T23:02:11Z</time>
      </trkpt>
      <trkpt lat="42.84759" lon="0.67723">
        <ele>2113.7</ele>
        <time>2018-11-24T23:02:12Z</time>
      </trkpt>
      <trkpt lat="42.84758" lon="0.6772">
        <ele>2114.2</ele>
        <time>2018-11-24T23:02:13Z</time>
      </trkpt>
      <trkpt lat="42.84757" lon="0.67719">
        <ele>2114.2</ele>
        <time>2018-11-24T23:02:14Z</time>
      </trkpt>
      <trkpt lat="42.84755" lon="0.67716">
        <ele>2114.6</ele>
        <time>2018-11-24T23:02:15Z</time>
      </trkpt>
      <trkpt lat="42.84753" lon="0.67714">
        <ele>2114.9</ele>
        <time>2018-11-24T23:02:16Z</time>
      </trkpt>
      <trkpt lat="42.84752" lon="0.67711">
        <ele>2115.4</ele>
        <time>2018-11-24T23:02:17Z</time>
      </trkpt>
      <trkpt lat="42.84751" lon="0.67708">
        <ele>2116</ele>
        <time>2018-11-24T23:02:18Z</time>
      </trkpt>
      <trkpt lat="42.8475" lon="0.67706">
        <ele>2116.4</ele>
        <time>2018-11-24T23:02:18Z</time>
      </trkpt>
      <trkpt lat="42.84749" lon="0.67703">
        <ele>2117.1</ele>
        <time>2018-11-24T23:02:19Z</time>
      </trkpt>
      <trkpt lat="42.84747" lon="0.677">
        <ele>2117.6</ele>
        <time>2018-11-24T23:02:20Z</time>
      </trkpt>
      <trkpt lat="42.84746" lon="0.67698">
        <ele>2118.3</ele>
        <time>2018-11-24T23:02:21Z</time>
      </trkpt>
      <trkpt lat="42.84745" lon="0.67695">
        <ele>2118.8</ele>
        <time>2018-11-24T23:02:22Z</time>
      </trkpt>
      <trkpt lat="42.84744" lon="0.67692">
        <ele>2119.6</ele>
        <time>2018-11-24T23:02:23Z</time>
      </trkpt>
      <trkpt lat="42.84743" lon="0.67689">
        <ele>2119.7</ele>
        <time>2018-11-24T23:02:24Z</time>
      </trkpt>
      <trkpt lat="42.84742" lon="0.67687">
        <ele>2119.1</ele>
        <time>2018-11-24T23:02:25Z</time>
      </trkpt>
      <trkpt lat="42.84741" lon="0.67685">
        <ele>2118.8</ele>
        <time>2018-11-24T23:02:26Z</time>
      </trkpt>
      <trkpt lat="42.84739" lon="0.67682">
        <ele>2118.6</ele>
        <time>2018-11-24T23:02:27Z</time>
      </trkpt>
      <trkpt lat="42.84739" lon="0.67679">
        <ele>2122.4</ele>
        <time>2018-11-24T23:02:28Z</time>
      </trkpt>
      <trkpt lat="42.84737" lon="0.67676">
        <ele>2123</ele>
        <time>2018-11-24T23:02:29Z</time>
      </trkpt>
      <trkpt lat="42.84736" lon="0.67674">
        <ele>2123.3</ele>
        <time>2018-11-24T23:02:29Z</time>
      </trkpt>
      <trkpt lat="42.84734" lon="0.67673">
        <ele>2123.7</ele>
        <time>2018-11-24T23:02:30Z</time>
      </trkpt>
      <trkpt lat="42.84733" lon="0.6767">
        <ele>2124.2</ele>
        <time>2018-11-24T23:02:31Z</time>
      </trkpt>
      <trkpt lat="42.84732" lon="0.67668">
        <ele>2124.5</ele>
        <time>2018-11-24T23:02:32Z</time>
      </trkpt>
      <trkpt lat="42.8473" lon="0.67666">
        <ele>2125.3</ele>
        <time>2018-11-24T23:02:33Z</time>
      </trkpt>
      <trkpt lat="42.84729" lon="0.67664">
        <ele>2125.8</ele>
        <time>2018-11-24T23:02:34Z</time>
      </trkpt>
      <trkpt lat="42.84728" lon="0.67661">
        <ele>2126.4</ele>
        <time>2018-11-24T23:02:34Z</time>
      </trkpt>
      <trkpt lat="42.84726" lon="0.67659">
        <ele>2126.9</ele>
        <time>2018-11-24T23:02:35Z</time>
      </trkpt>
      <trkpt lat="42.84724" lon="0.67658">
        <ele>2127.3</ele>
        <time>2018-11-24T23:02:36Z</time>
      </trkpt>
      <trkpt lat="42.84722" lon="0.67656">
        <ele>2128.1</ele>
        <time>2018-11-24T23:02:37Z</time>
      </trkpt>
      <trkpt lat="42.84721" lon="0.67653">
        <ele>2128.7</ele>
        <time>2018-11-24T23:02:38Z</time>
      </trkpt>
      <trkpt lat="42.8472" lon="0.67651">
        <ele>2129.4</ele>
        <time>2018-11-24T23:02:39Z</time>
      </trkpt>
      <trkpt lat="42.84719" lon="0.67649">
        <ele>2129.9</ele>
        <time>2018-11-24T23:02:40Z</time>
      </trkpt>
      <trkpt lat="42.84717" lon="0.67647">
        <ele>2129.4</ele>
        <time>2018-11-24T23:02:40Z</time>
      </trkpt>
      <trkpt lat="42.84716" lon="0.67645">
        <ele>2131.3</ele>
        <time>2018-11-24T23:02:41Z</time>
      </trkpt>
      <trkpt lat="42.84715" lon="0.67642">
        <ele>2132.1</ele>
        <time>2018-11-24T23:02:42Z</time>
      </trkpt>
      <trkpt lat="42.84714" lon="0.67639">
        <ele>2132.9</ele>
        <time>2018-11-24T23:02:43Z</time>
      </trkpt>
      <trkpt lat="42.84712" lon="0.67636">
        <ele>2133.6</ele>
        <time>2018-11-24T23:02:44Z</time>
      </trkpt>
      <trkpt lat="42.84711" lon="0.67634">
        <ele>2134.4</ele>
        <time>2018-11-24T23:02:45Z</time>
      </trkpt>
      <trkpt lat="42.8471" lon="0.67631">
        <ele>2135.1</ele>
        <time>2018-11-24T23:02:46Z</time>
      </trkpt>
      <trkpt lat="42.84709" lon="0.67628">
        <ele>2136</ele>
        <time>2018-11-24T23:02:47Z</time>
      </trkpt>
      <trkpt lat="42.84709" lon="0.67626">
        <ele>2137</ele>
        <time>2018-11-24T23:02:48Z</time>
      </trkpt>
      <trkpt lat="42.84708" lon="0.67623">
        <ele>2137.7</ele>
        <time>2018-11-24T23:02:48Z</time>
      </trkpt>
      <trkpt lat="42.84708" lon="0.67619">
        <ele>2138.8</ele>
        <time>2018-11-24T23:02:49Z</time>
      </trkpt>
      <trkpt lat="42.84707" lon="0.67616">
        <ele>2139.9</ele>
        <time>2018-11-24T23:02:50Z</time>
      </trkpt>
      <trkpt lat="42.84706" lon="0.67614">
        <ele>2140.5</ele>
        <time>2018-11-24T23:02:51Z</time>
      </trkpt>
      <trkpt lat="42.84705" lon="0.67611">
        <ele>2141.4</ele>
        <time>2018-11-24T23:02:52Z</time>
      </trkpt>
      <trkpt lat="42.84704" lon="0.67608">
        <ele>2142.3</ele>
        <time>2018-11-24T23:02:53Z</time>
      </trkpt>
      <trkpt lat="42.84703" lon="0.67606">
        <ele>2143.2</ele>
        <time>2018-11-24T23:02:54Z</time>
      </trkpt>
      <trkpt lat="42.84702" lon="0.67603">
        <ele>2144</ele>
        <time>2018-11-24T23:02:55Z</time>
      </trkpt>
      <trkpt lat="42.84702" lon="0.676">
        <ele>2144.8</ele>
        <time>2018-11-24T23:02:56Z</time>
      </trkpt>
      <trkpt lat="42.84702" lon="0.67597">
        <ele>2145.4</ele>
        <time>2018-11-24T23:02:57Z</time>
      </trkpt>
      <trkpt lat="42.84703" lon="0.67595">
        <ele>2145.9</ele>
        <time>2018-11-24T23:02:57Z</time>
      </trkpt>
      <trkpt lat="42.84704" lon="0.67592">
        <ele>2146.6</ele>
        <time>2018-11-24T23:02:58Z</time>
      </trkpt>
      <trkpt lat="42.84704" lon="0.6759">
        <ele>2147.1</ele>
        <time>2018-11-24T23:02:59Z</time>
      </trkpt>
      <trkpt lat="42.84703" lon="0.67587">
        <ele>2147.9</ele>
        <time>2018-11-24T23:03:00Z</time>
      </trkpt>
      <trkpt lat="42.84702" lon="0.67585">
        <ele>2148.6</ele>
        <time>2018-11-24T23:03:01Z</time>
      </trkpt>
      <trkpt lat="42.847" lon="0.67583">
        <ele>2149.5</ele>
        <time>2018-11-24T23:03:01Z</time>
      </trkpt>
      <trkpt lat="42.84699" lon="0.67581">
        <ele>2150</ele>
        <time>2018-11-24T23:03:02Z</time>
      </trkpt>
      <trkpt lat="42.84697" lon="0.67578">
        <ele>2151.1</ele>
        <time>2018-11-24T23:03:03Z</time>
      </trkpt>
      <trkpt lat="42.84696" lon="0.67576">
        <ele>2151.9</ele>
        <time>2018-11-24T23:03:04Z</time>
      </trkpt>
      <trkpt lat="42.84694" lon="0.67574">
        <ele>2152.6</ele>
        <time>2018-11-24T23:03:05Z</time>
      </trkpt>
      <trkpt lat="42.84693" lon="0.67572">
        <ele>2153.3</ele>
        <time>2018-11-24T23:03:06Z</time>
      </trkpt>
      <trkpt lat="42.84692" lon="0.67569">
        <ele>2154.1</ele>
        <time>2018-11-24T23:03:07Z</time>
      </trkpt>
      <trkpt lat="42.84691" lon="0.67567">
        <ele>2155</ele>
        <time>2018-11-24T23:03:08Z</time>
      </trkpt>
      <trkpt lat="42.84689" lon="0.67564">
        <ele>2155.9</ele>
        <time>2018-11-24T23:03:09Z</time>
      </trkpt>
      <trkpt lat="42.84688" lon="0.67562">
        <ele>2156.7</ele>
        <time>2018-11-24T23:03:09Z</time>
      </trkpt>
      <trkpt lat="42.84687" lon="0.67559">
        <ele>2157.5</ele>
        <time>2018-11-24T23:03:10Z</time>
      </trkpt>
      <trkpt lat="42.84686" lon="0.67557">
        <ele>2158.2</ele>
        <time>2018-11-24T23:03:11Z</time>
      </trkpt>
      <trkpt lat="42.84684" lon="0.67555">
        <ele>2159.1</ele>
        <time>2018-11-24T23:03:12Z</time>
      </trkpt>
      <trkpt lat="42.84683" lon="0.67553">
        <ele>2159.7</ele>
        <time>2018-11-24T23:03:13Z</time>
      </trkpt>
      <trkpt lat="42.84681" lon="0.67551">
        <ele>2159.6</ele>
        <time>2018-11-24T23:03:14Z</time>
      </trkpt>
      <trkpt lat="42.8468" lon="0.6755">
        <ele>2161</ele>
        <time>2018-11-24T23:03:14Z</time>
      </trkpt>
      <trkpt lat="42.84678" lon="0.67549">
        <ele>2161.6</ele>
        <time>2018-11-24T23:03:15Z</time>
      </trkpt>
      <trkpt lat="42.84676" lon="0.67547">
        <ele>2162.2</ele>
        <time>2018-11-24T23:03:16Z</time>
      </trkpt>
      <trkpt lat="42.84674" lon="0.67546">
        <ele>2162.7</ele>
        <time>2018-11-24T23:03:17Z</time>
      </trkpt>
      <trkpt lat="42.84672" lon="0.67545">
        <ele>2163.3</ele>
        <time>2018-11-24T23:03:18Z</time>
      </trkpt>
      <trkpt lat="42.8467" lon="0.67543">
        <ele>2163.9</ele>
        <time>2018-11-24T23:03:19Z</time>
      </trkpt>
      <trkpt lat="42.84668" lon="0.67543">
        <ele>2164.5</ele>
        <time>2018-11-24T23:03:19Z</time>
      </trkpt>
      <trkpt lat="42.84666" lon="0.67541">
        <ele>2165.1</ele>
        <time>2018-11-24T23:03:20Z</time>
      </trkpt>
      <trkpt lat="42.84664" lon="0.6754">
        <ele>2165.7</ele>
        <time>2018-11-24T23:03:21Z</time>
      </trkpt>
      <trkpt lat="42.84662" lon="0.6754">
        <ele>2166.2</ele>
        <time>2018-11-24T23:03:22Z</time>
      </trkpt>
      <trkpt lat="42.8466" lon="0.67539">
        <ele>2166.6</ele>
        <time>2018-11-24T23:03:23Z</time>
      </trkpt>
      <trkpt lat="42.84658" lon="0.67539">
        <ele>2167</ele>
        <time>2018-11-24T23:03:24Z</time>
      </trkpt>
      <trkpt lat="42.84655" lon="0.67538">
        <ele>2167.5</ele>
        <time>2018-11-24T23:03:25Z</time>
      </trkpt>
      <trkpt lat="42.84653" lon="0.67538">
        <ele>2167.8</ele>
        <time>2018-11-24T23:03:26Z</time>
      </trkpt>
      <trkpt lat="42.84651" lon="0.67537">
        <ele>2168.3</ele>
        <time>2018-11-24T23:03:27Z</time>
      </trkpt>
      <trkpt lat="42.84649" lon="0.67537">
        <ele>2168.5</ele>
        <time>2018-11-24T23:03:27Z</time>
      </trkpt>
      <trkpt lat="42.84647" lon="0.67536">
        <ele>2168.8</ele>
        <time>2018-11-24T23:03:28Z</time>
      </trkpt>
      <trkpt lat="42.84645" lon="0.67535">
        <ele>2169.3</ele>
        <time>2018-11-24T23:03:29Z</time>
      </trkpt>
      <trkpt lat="42.84643" lon="0.67534">
        <ele>2169.8</ele>
        <time>2018-11-24T23:03:30Z</time>
      </trkpt>
      <trkpt lat="42.84641" lon="0.67533">
        <ele>2169.9</ele>
        <time>2018-11-24T23:03:31Z</time>
      </trkpt>
      <trkpt lat="42.8464" lon="0.67532">
        <ele>2169.5</ele>
        <time>2018-11-24T23:03:31Z</time>
      </trkpt>
      <trkpt lat="42.84638" lon="0.67531">
        <ele>2169.3</ele>
        <time>2018-11-24T23:03:32Z</time>
      </trkpt>
      <trkpt lat="42.84636" lon="0.67531">
        <ele>2168.9</ele>
        <time>2018-11-24T23:03:33Z</time>
      </trkpt>
      <trkpt lat="42.84634" lon="0.67531">
        <ele>2168.8</ele>
        <time>2018-11-24T23:03:34Z</time>
      </trkpt>
      <trkpt lat="42.84632" lon="0.67531">
        <ele>2168.9</ele>
        <time>2018-11-24T23:03:34Z</time>
      </trkpt>
      <trkpt lat="42.8463" lon="0.67531">
        <ele>2168.9</ele>
        <time>2018-11-24T23:03:35Z</time>
      </trkpt>
      <trkpt lat="42.84628" lon="0.67531">
        <ele>2169</ele>
        <time>2018-11-24T23:03:36Z</time>
      </trkpt>
      <trkpt lat="42.84625" lon="0.67531">
        <ele>2168.9</ele>
        <time>2018-11-24T23:03:37Z</time>
      </trkpt>
      <trkpt lat="42.84623" lon="0.67531">
        <ele>2168.8</ele>
        <time>2018-11-24T23:03:38Z</time>
      </trkpt>
      <trkpt lat="42.84621" lon="0.67529">
        <ele>2168.6</ele>
        <time>2018-11-24T23:03:39Z</time>
      </trkpt>
      <trkpt lat="42.84619" lon="0.67528">
        <ele>2168.6</ele>
        <time>2018-11-24T23:03:40Z</time>
      </trkpt>
      <trkpt lat="42.84616" lon="0.67527">
        <ele>2168.6</ele>
        <time>2018-11-24T23:03:41Z</time>
      </trkpt>
      <trkpt lat="42.84614" lon="0.67526">
        <ele>2168.6</ele>
        <time>2018-11-24T23:03:42Z</time>
      </trkpt>
      <trkpt lat="42.84613" lon="0.67524">
        <ele>2168.5</ele>
        <time>2018-11-24T23:03:43Z</time>
      </trkpt>
      <trkpt lat="42.84611" lon="0.67523">
        <ele>2168.5</ele>
        <time>2018-11-24T23:03:43Z</time>
      </trkpt>
      <trkpt lat="42.84609" lon="0.67521">
        <ele>2168.5</ele>
        <time>2018-11-24T23:03:44Z</time>
      </trkpt>
      <trkpt lat="42.84609" lon="0.67518">
        <ele>2168.2</ele>
        <time>2018-11-24T23:03:45Z</time>
      </trkpt>
      <trkpt lat="42.84609" lon="0.67514">
        <ele>2167.8</ele>
        <time>2018-11-24T23:03:46Z</time>
      </trkpt>
      <trkpt lat="42.84609" lon="0.67511">
        <ele>2167.6</ele>
        <time>2018-11-24T23:03:47Z</time>
      </trkpt>
      <trkpt lat="42.84609" lon="0.67508">
        <ele>2167.4</ele>
        <time>2018-11-24T23:03:48Z</time>
      </trkpt>
      <trkpt lat="42.8461" lon="0.67505">
        <ele>2167.3</ele>
        <time>2018-11-24T23:03:49Z</time>
      </trkpt>
      <trkpt lat="42.8461" lon="0.67501">
        <ele>2167.2</ele>
        <time>2018-11-24T23:03:50Z</time>
      </trkpt>
      <trkpt lat="42.8461" lon="0.67499">
        <ele>2167.1</ele>
        <time>2018-11-24T23:03:51Z</time>
      </trkpt>
      <trkpt lat="42.8461" lon="0.67496">
        <ele>2167.1</ele>
        <time>2018-11-24T23:03:52Z</time>
      </trkpt>
      <trkpt lat="42.8461" lon="0.67493">
        <ele>2167</ele>
        <time>2018-11-24T23:03:53Z</time>
      </trkpt>
      <trkpt lat="42.8461" lon="0.6749">
        <ele>2167</ele>
        <time>2018-11-24T23:03:54Z</time>
      </trkpt>
      <trkpt lat="42.8461" lon="0.67487">
        <ele>2166.9</ele>
        <time>2018-11-24T23:03:54Z</time>
      </trkpt>
      <trkpt lat="42.8461" lon="0.67484">
        <ele>2167</ele>
        <time>2018-11-24T23:03:55Z</time>
      </trkpt>
      <trkpt lat="42.8461" lon="0.67481">
        <ele>2166.9</ele>
        <time>2018-11-24T23:03:56Z</time>
      </trkpt>
      <trkpt lat="42.8461" lon="0.67478">
        <ele>2166.9</ele>
        <time>2018-11-24T23:03:57Z</time>
      </trkpt>
      <trkpt lat="42.84611" lon="0.67475">
        <ele>2166.8</ele>
        <time>2018-11-24T23:03:58Z</time>
      </trkpt>
      <trkpt lat="42.84611" lon="0.67472">
        <ele>2166.7</ele>
        <time>2018-11-24T23:03:59Z</time>
      </trkpt>
      <trkpt lat="42.84611" lon="0.67469">
        <ele>2166.8</ele>
        <time>2018-11-24T23:04:00Z</time>
      </trkpt>
      <trkpt lat="42.8461" lon="0.67465">
        <ele>2166.8</ele>
        <time>2018-11-24T23:04:01Z</time>
      </trkpt>
      <trkpt lat="42.8461" lon="0.67462">
        <ele>2166.9</ele>
        <time>2018-11-24T23:04:02Z</time>
      </trkpt>
      <trkpt lat="42.84609" lon="0.67459">
        <ele>2167</ele>
        <time>2018-11-24T23:04:03Z</time>
      </trkpt>
      <trkpt lat="42.84608" lon="0.67456">
        <ele>2166.9</ele>
        <time>2018-11-24T23:04:04Z</time>
      </trkpt>
      <trkpt lat="42.84608" lon="0.67453">
        <ele>2167</ele>
        <time>2018-11-24T23:04:05Z</time>
      </trkpt>
      <trkpt lat="42.84607" lon="0.6745">
        <ele>2167</ele>
        <time>2018-11-24T23:04:05Z</time>
      </trkpt>
      <trkpt lat="42.84607" lon="0.67447">
        <ele>2167.2</ele>
        <time>2018-11-24T23:04:06Z</time>
      </trkpt>
      <trkpt lat="42.84606" lon="0.67444">
        <ele>2167.2</ele>
        <time>2018-11-24T23:04:07Z</time>
      </trkpt>
      <trkpt lat="42.84605" lon="0.67441">
        <ele>2167.3</ele>
        <time>2018-11-24T23:04:08Z</time>
      </trkpt>
      <trkpt lat="42.84604" lon="0.67438">
        <ele>2167.4</ele>
        <time>2018-11-24T23:04:09Z</time>
      </trkpt>
      <trkpt lat="42.84603" lon="0.67435">
        <ele>2167.6</ele>
        <time>2018-11-24T23:04:10Z</time>
      </trkpt>
      <trkpt lat="42.84602" lon="0.67433">
        <ele>2167.7</ele>
        <time>2018-11-24T23:04:11Z</time>
      </trkpt>
      <trkpt lat="42.84602" lon="0.67429">
        <ele>2167.9</ele>
        <time>2018-11-24T23:04:12Z</time>
      </trkpt>
      <trkpt lat="42.84601" lon="0.67426">
        <ele>2168.1</ele>
        <time>2018-11-24T23:04:13Z</time>
      </trkpt>
      <trkpt lat="42.84601" lon="0.67422">
        <ele>2168.3</ele>
        <time>2018-11-24T23:04:14Z</time>
      </trkpt>
      <trkpt lat="42.846" lon="0.67418">
        <ele>2168.6</ele>
        <time>2018-11-24T23:04:15Z</time>
      </trkpt>
      <trkpt lat="42.84599" lon="0.67415">
        <ele>2169</ele>
        <time>2018-11-24T23:04:16Z</time>
      </trkpt>
      <trkpt lat="42.84598" lon="0.67412">
        <ele>2169.4</ele>
        <time>2018-11-24T23:04:17Z</time>
      </trkpt>
      <trkpt lat="42.84596" lon="0.67409">
        <ele>2169.9</ele>
        <time>2018-11-24T23:04:18Z</time>
      </trkpt>
      <trkpt lat="42.84595" lon="0.67407">
        <ele>2169.8</ele>
        <time>2018-11-24T23:04:19Z</time>
      </trkpt>
      <trkpt lat="42.84593" lon="0.67404">
        <ele>2169.3</ele>
        <time>2018-11-24T23:04:20Z</time>
      </trkpt>
      <trkpt lat="42.84592" lon="0.67401">
        <ele>2168.7</ele>
        <time>2018-11-24T23:04:21Z</time>
      </trkpt>
      <trkpt lat="42.84591" lon="0.67398">
        <ele>2168.2</ele>
        <time>2018-11-24T23:04:22Z</time>
      </trkpt>
      <trkpt lat="42.84589" lon="0.67395">
        <ele>2167.7</ele>
        <time>2018-11-24T23:04:23Z</time>
      </trkpt>
      <trkpt lat="42.84588" lon="0.67391">
        <ele>2167.4</ele>
        <time>2018-11-24T23:04:25Z</time>
      </trkpt>
      <trkpt lat="42.84587" lon="0.67388">
        <ele>2167</ele>
        <time>2018-11-24T23:04:26Z</time>
      </trkpt>
      <trkpt lat="42.84586" lon="0.67384">
        <ele>2166.5</ele>
        <time>2018-11-24T23:04:27Z</time>
      </trkpt>
      <trkpt lat="42.84585" lon="0.67381">
        <ele>2166.1</ele>
        <time>2018-11-24T23:04:28Z</time>
      </trkpt>
      <trkpt lat="42.84583" lon="0.67378">
        <ele>2165.6</ele>
        <time>2018-11-24T23:04:29Z</time>
      </trkpt>
      <trkpt lat="42.84582" lon="0.67375">
        <ele>2165.2</ele>
        <time>2018-11-24T23:04:30Z</time>
      </trkpt>
      <trkpt lat="42.8458" lon="0.67372">
        <ele>2164.9</ele>
        <time>2018-11-24T23:04:31Z</time>
      </trkpt>
      <trkpt lat="42.84579" lon="0.6737">
        <ele>2164.6</ele>
        <time>2018-11-24T23:04:32Z</time>
      </trkpt>
      <trkpt lat="42.84577" lon="0.67367">
        <ele>2164.1</ele>
        <time>2018-11-24T23:04:33Z</time>
      </trkpt>
      <trkpt lat="42.84576" lon="0.67364">
        <ele>2163.8</ele>
        <time>2018-11-24T23:04:34Z</time>
      </trkpt>
      <trkpt lat="42.84575" lon="0.67361">
        <ele>2163.4</ele>
        <time>2018-11-24T23:04:35Z</time>
      </trkpt>
      <trkpt lat="42.84574" lon="0.67358">
        <ele>2163.1</ele>
        <time>2018-11-24T23:04:36Z</time>
      </trkpt>
      <trkpt lat="42.84573" lon="0.67355">
        <ele>2162.8</ele>
        <time>2018-11-24T23:04:37Z</time>
      </trkpt>
      <trkpt lat="42.84571" lon="0.67353">
        <ele>2162.3</ele>
        <time>2018-11-24T23:04:38Z</time>
      </trkpt>
      <trkpt lat="42.8457" lon="0.6735">
        <ele>2162</ele>
        <time>2018-11-24T23:04:39Z</time>
      </trkpt>
      <trkpt lat="42.84568" lon="0.67347">
        <ele>2161.6</ele>
        <time>2018-11-24T23:04:40Z</time>
      </trkpt>
      <trkpt lat="42.84567" lon="0.67344">
        <ele>2158.8</ele>
        <time>2018-11-24T23:04:41Z</time>
      </trkpt>
      <trkpt lat="42.84565" lon="0.67341">
        <ele>2159.3</ele>
        <time>2018-11-24T23:04:42Z</time>
      </trkpt>
      <trkpt lat="42.84563" lon="0.67338">
        <ele>2159.8</ele>
        <time>2018-11-24T23:04:43Z</time>
      </trkpt>
      <trkpt lat="42.84561" lon="0.67335">
        <ele>2159.7</ele>
        <time>2018-11-24T23:04:45Z</time>
      </trkpt>
      <trkpt lat="42.84559" lon="0.67331">
        <ele>2158.9</ele>
        <time>2018-11-24T23:04:46Z</time>
      </trkpt>
      <trkpt lat="42.84556" lon="0.67327">
        <ele>2158.2</ele>
        <time>2018-11-24T23:04:47Z</time>
      </trkpt>
      <trkpt lat="42.84554" lon="0.67323">
        <ele>2157.6</ele>
        <time>2018-11-24T23:04:49Z</time>
      </trkpt>
      <trkpt lat="42.84552" lon="0.67319">
        <ele>2157</ele>
        <time>2018-11-24T23:04:50Z</time>
      </trkpt>
      <trkpt lat="42.8455" lon="0.67315">
        <ele>2156.4</ele>
        <time>2018-11-24T23:04:52Z</time>
      </trkpt>
      <trkpt lat="42.84548" lon="0.67311">
        <ele>2156</ele>
        <time>2018-11-24T23:04:53Z</time>
      </trkpt>
      <trkpt lat="42.84547" lon="0.67307">
        <ele>2155.5</ele>
        <time>2018-11-24T23:04:55Z</time>
      </trkpt>
      <trkpt lat="42.84545" lon="0.67303">
        <ele>2155.2</ele>
        <time>2018-11-24T23:04:56Z</time>
      </trkpt>
      <trkpt lat="42.84543" lon="0.673">
        <ele>2154.7</ele>
        <time>2018-11-24T23:04:57Z</time>
      </trkpt>
      <trkpt lat="42.84541" lon="0.67297">
        <ele>2154.4</ele>
        <time>2018-11-24T23:04:58Z</time>
      </trkpt>
      <trkpt lat="42.84539" lon="0.67295">
        <ele>2154</ele>
        <time>2018-11-24T23:04:59Z</time>
      </trkpt>
      <trkpt lat="42.84537" lon="0.67292">
        <ele>2153.4</ele>
        <time>2018-11-24T23:05:01Z</time>
      </trkpt>
      <trkpt lat="42.84534" lon="0.67289">
        <ele>2153</ele>
        <time>2018-11-24T23:05:02Z</time>
      </trkpt>
      <trkpt lat="42.84533" lon="0.67286">
        <ele>2152.5</ele>
        <time>2018-11-24T23:05:03Z</time>
      </trkpt>
      <trkpt lat="42.84531" lon="0.67283">
        <ele>2152.2</ele>
        <time>2018-11-24T23:05:04Z</time>
      </trkpt>
      <trkpt lat="42.8453" lon="0.6728">
        <ele>2151.9</ele>
        <time>2018-11-24T23:05:05Z</time>
      </trkpt>
      <trkpt lat="42.84529" lon="0.67277">
        <ele>2151.5</ele>
        <time>2018-11-24T23:05:06Z</time>
      </trkpt>
      <trkpt lat="42.84528" lon="0.67275">
        <ele>2148.8</ele>
        <time>2018-11-24T23:05:07Z</time>
      </trkpt>
      <trkpt lat="42.84526" lon="0.67272">
        <ele>2149.2</ele>
        <time>2018-11-24T23:05:08Z</time>
      </trkpt>
      <trkpt lat="42.84525" lon="0.67269">
        <ele>2149.6</ele>
        <time>2018-11-24T23:05:09Z</time>
      </trkpt>
      <trkpt lat="42.84523" lon="0.67267">
        <ele>2149.9</ele>
        <time>2018-11-24T23:05:10Z</time>
      </trkpt>
      <trkpt lat="42.84522" lon="0.67265">
        <ele>2149.8</ele>
        <time>2018-11-24T23:05:10Z</time>
      </trkpt>
      <trkpt lat="42.8452" lon="0.67263">
        <ele>2149.3</ele>
        <time>2018-11-24T23:05:12Z</time>
      </trkpt>
      <trkpt lat="42.84518" lon="0.6726">
        <ele>2148.9</ele>
        <time>2018-11-24T23:05:13Z</time>
      </trkpt>
      <trkpt lat="42.84516" lon="0.67258">
        <ele>2148.4</ele>
        <time>2018-11-24T23:05:14Z</time>
      </trkpt>
      <trkpt lat="42.84514" lon="0.67255">
        <ele>2147.9</ele>
        <time>2018-11-24T23:05:15Z</time>
      </trkpt>
      <trkpt lat="42.84513" lon="0.67252">
        <ele>2147.5</ele>
        <time>2018-11-24T23:05:16Z</time>
      </trkpt>
      <trkpt lat="42.84511" lon="0.67249">
        <ele>2147.1</ele>
        <time>2018-11-24T23:05:17Z</time>
      </trkpt>
      <trkpt lat="42.84509" lon="0.67246">
        <ele>2146.7</ele>
        <time>2018-11-24T23:05:18Z</time>
      </trkpt>
      <trkpt lat="42.84508" lon="0.67242">
        <ele>2146.5</ele>
        <time>2018-11-24T23:05:19Z</time>
      </trkpt>
      <trkpt lat="42.84506" lon="0.67239">
        <ele>2146</ele>
        <time>2018-11-24T23:05:20Z</time>
      </trkpt>
      <trkpt lat="42.84504" lon="0.67236">
        <ele>2145.7</ele>
        <time>2018-11-24T23:05:22Z</time>
      </trkpt>
      <trkpt lat="42.84502" lon="0.67233">
        <ele>2145.3</ele>
        <time>2018-11-24T23:05:23Z</time>
      </trkpt>
      <trkpt lat="42.84501" lon="0.6723">
        <ele>2144.9</ele>
        <time>2018-11-24T23:05:24Z</time>
      </trkpt>
      <trkpt lat="42.84499" lon="0.67227">
        <ele>2144.6</ele>
        <time>2018-11-24T23:05:25Z</time>
      </trkpt>
      <trkpt lat="42.84497" lon="0.67225">
        <ele>2144.2</ele>
        <time>2018-11-24T23:05:26Z</time>
      </trkpt>
      <trkpt lat="42.84496" lon="0.67222">
        <ele>2143.8</ele>
        <time>2018-11-24T23:05:27Z</time>
      </trkpt>
      <trkpt lat="42.84494" lon="0.67219">
        <ele>2143.3</ele>
        <time>2018-11-24T23:05:28Z</time>
      </trkpt>
      <trkpt lat="42.84493" lon="0.67217">
        <ele>2143</ele>
        <time>2018-11-24T23:05:29Z</time>
      </trkpt>
      <trkpt lat="42.84491" lon="0.67214">
        <ele>2142.6</ele>
        <time>2018-11-24T23:05:30Z</time>
      </trkpt>
      <trkpt lat="42.8449" lon="0.67211">
        <ele>2142.3</ele>
        <time>2018-11-24T23:05:31Z</time>
      </trkpt>
      <trkpt lat="42.84488" lon="0.67209">
        <ele>2141.9</ele>
        <time>2018-11-24T23:05:32Z</time>
      </trkpt>
      <trkpt lat="42.84487" lon="0.67206">
        <ele>2141.7</ele>
        <time>2018-11-24T23:05:33Z</time>
      </trkpt>
      <trkpt lat="42.84485" lon="0.67204">
        <ele>2138.8</ele>
        <time>2018-11-24T23:05:34Z</time>
      </trkpt>
      <trkpt lat="42.84484" lon="0.67201">
        <ele>2139.1</ele>
        <time>2018-11-24T23:05:35Z</time>
      </trkpt>
      <trkpt lat="42.84483" lon="0.67198">
        <ele>2139.6</ele>
        <time>2018-11-24T23:05:36Z</time>
      </trkpt>
      <trkpt lat="42.84481" lon="0.67195">
        <ele>2140</ele>
        <time>2018-11-24T23:05:37Z</time>
      </trkpt>
      <trkpt lat="42.8448" lon="0.67192">
        <ele>2139.6</ele>
        <time>2018-11-24T23:05:38Z</time>
      </trkpt>
      <trkpt lat="42.84479" lon="0.67189">
        <ele>2139.2</ele>
        <time>2018-11-24T23:05:39Z</time>
      </trkpt>
      <trkpt lat="42.84478" lon="0.67186">
        <ele>2138.8</ele>
        <time>2018-11-24T23:05:40Z</time>
      </trkpt>
      <trkpt lat="42.84476" lon="0.67182">
        <ele>2138.3</ele>
        <time>2018-11-24T23:05:41Z</time>
      </trkpt>
      <trkpt lat="42.84475" lon="0.67179">
        <ele>2137.7</ele>
        <time>2018-11-24T23:05:42Z</time>
      </trkpt>
      <trkpt lat="42.84474" lon="0.67175">
        <ele>2137.4</ele>
        <time>2018-11-24T23:05:43Z</time>
      </trkpt>
      <trkpt lat="42.84473" lon="0.67172">
        <ele>2136.9</ele>
        <time>2018-11-24T23:05:44Z</time>
      </trkpt>
      <trkpt lat="42.84471" lon="0.67168">
        <ele>2136.4</ele>
        <time>2018-11-24T23:05:46Z</time>
      </trkpt>
      <trkpt lat="42.84471" lon="0.67165">
        <ele>2136.2</ele>
        <time>2018-11-24T23:05:47Z</time>
      </trkpt>
      <trkpt lat="42.84471" lon="0.67161">
        <ele>2135.8</ele>
        <time>2018-11-24T23:05:48Z</time>
      </trkpt>
      <trkpt lat="42.8447" lon="0.67157">
        <ele>2135.5</ele>
        <time>2018-11-24T23:05:49Z</time>
      </trkpt>
      <trkpt lat="42.84469" lon="0.67153">
        <ele>2135.2</ele>
        <time>2018-11-24T23:05:50Z</time>
      </trkpt>
      <trkpt lat="42.84469" lon="0.6715">
        <ele>2134.9</ele>
        <time>2018-11-24T23:05:51Z</time>
      </trkpt>
      <trkpt lat="42.84468" lon="0.67146">
        <ele>2134.5</ele>
        <time>2018-11-24T23:05:52Z</time>
      </trkpt>
      <trkpt lat="42.84467" lon="0.67143">
        <ele>2134.1</ele>
        <time>2018-11-24T23:05:53Z</time>
      </trkpt>
      <trkpt lat="42.84466" lon="0.67139">
        <ele>2133.7</ele>
        <time>2018-11-24T23:05:54Z</time>
      </trkpt>
      <trkpt lat="42.84465" lon="0.67135">
        <ele>2133.3</ele>
        <time>2018-11-24T23:05:56Z</time>
      </trkpt>
      <trkpt lat="42.84463" lon="0.67132">
        <ele>2133.1</ele>
        <time>2018-11-24T23:05:57Z</time>
      </trkpt>
      <trkpt lat="42.84462" lon="0.67128">
        <ele>2132.7</ele>
        <time>2018-11-24T23:05:58Z</time>
      </trkpt>
      <trkpt lat="42.84461" lon="0.67124">
        <ele>2132.2</ele>
        <time>2018-11-24T23:05:59Z</time>
      </trkpt>
      <trkpt lat="42.8446" lon="0.67121">
        <ele>2131.9</ele>
        <time>2018-11-24T23:06:00Z</time>
      </trkpt>
      <trkpt lat="42.84459" lon="0.67117">
        <ele>2131.5</ele>
        <time>2018-11-24T23:06:01Z</time>
      </trkpt>
      <trkpt lat="42.84459" lon="0.67113">
        <ele>2129.1</ele>
        <time>2018-11-24T23:06:03Z</time>
      </trkpt>
      <trkpt lat="42.84458" lon="0.67109">
        <ele>2129.4</ele>
        <time>2018-11-24T23:06:04Z</time>
      </trkpt>
      <trkpt lat="42.84457" lon="0.67105">
        <ele>2129.9</ele>
        <time>2018-11-24T23:06:05Z</time>
      </trkpt>
      <trkpt lat="42.84456" lon="0.67102">
        <ele>2129.7</ele>
        <time>2018-11-24T23:06:06Z</time>
      </trkpt>
      <trkpt lat="42.84455" lon="0.67098">
        <ele>2129.4</ele>
        <time>2018-11-24T23:06:07Z</time>
      </trkpt>
      <trkpt lat="42.84454" lon="0.67095">
        <ele>2128.9</ele>
        <time>2018-11-24T23:06:08Z</time>
      </trkpt>
      <trkpt lat="42.84453" lon="0.67091">
        <ele>2128.4</ele>
        <time>2018-11-24T23:06:10Z</time>
      </trkpt>
      <trkpt lat="42.84451" lon="0.67087">
        <ele>2128.1</ele>
        <time>2018-11-24T23:06:11Z</time>
      </trkpt>
      <trkpt lat="42.84451" lon="0.67084">
        <ele>2127.8</ele>
        <time>2018-11-24T23:06:12Z</time>
      </trkpt>
      <trkpt lat="42.84449" lon="0.6708">
        <ele>2127.5</ele>
        <time>2018-11-24T23:06:13Z</time>
      </trkpt>
      <trkpt lat="42.84448" lon="0.67076">
        <ele>2127.1</ele>
        <time>2018-11-24T23:06:14Z</time>
      </trkpt>
      <trkpt lat="42.84447" lon="0.67073">
        <ele>2126.8</ele>
        <time>2018-11-24T23:06:15Z</time>
      </trkpt>
      <trkpt lat="42.84446" lon="0.67069">
        <ele>2126.5</ele>
        <time>2018-11-24T23:06:16Z</time>
      </trkpt>
      <trkpt lat="42.84445" lon="0.67066">
        <ele>2126.3</ele>
        <time>2018-11-24T23:06:18Z</time>
      </trkpt>
      <trkpt lat="42.84443" lon="0.67062">
        <ele>2126</ele>
        <time>2018-11-24T23:06:19Z</time>
      </trkpt>
      <trkpt lat="42.84442" lon="0.67059">
        <ele>2125.8</ele>
        <time>2018-11-24T23:06:20Z</time>
      </trkpt>
      <trkpt lat="42.84441" lon="0.67055">
        <ele>2125.6</ele>
        <time>2018-11-24T23:06:21Z</time>
      </trkpt>
      <trkpt lat="42.8444" lon="0.67052">
        <ele>2125.2</ele>
        <time>2018-11-24T23:06:22Z</time>
      </trkpt>
      <trkpt lat="42.84439" lon="0.67048">
        <ele>2125.1</ele>
        <time>2018-11-24T23:06:23Z</time>
      </trkpt>
      <trkpt lat="42.84438" lon="0.67044">
        <ele>2124.9</ele>
        <time>2018-11-24T23:06:24Z</time>
      </trkpt>
      <trkpt lat="42.84438" lon="0.67041">
        <ele>2124.7</ele>
        <time>2018-11-24T23:06:26Z</time>
      </trkpt>
      <trkpt lat="42.84437" lon="0.67037">
        <ele>2124.5</ele>
        <time>2018-11-24T23:06:27Z</time>
      </trkpt>
      <trkpt lat="42.84437" lon="0.67033">
        <ele>2124.5</ele>
        <time>2018-11-24T23:06:28Z</time>
      </trkpt>
      <trkpt lat="42.84437" lon="0.67029">
        <ele>2124.3</ele>
        <time>2018-11-24T23:06:29Z</time>
      </trkpt>
      <trkpt lat="42.84437" lon="0.67026">
        <ele>2124.1</ele>
        <time>2018-11-24T23:06:30Z</time>
      </trkpt>
      <trkpt lat="42.84436" lon="0.67022">
        <ele>2124</ele>
        <time>2018-11-24T23:06:31Z</time>
      </trkpt>
      <trkpt lat="42.84436" lon="0.67019">
        <ele>2123.9</ele>
        <time>2018-11-24T23:06:32Z</time>
      </trkpt>
      <trkpt lat="42.84436" lon="0.67015">
        <ele>2120.1</ele>
        <time>2018-11-24T23:06:33Z</time>
      </trkpt>
      <trkpt lat="42.84436" lon="0.67011">
        <ele>2120.1</ele>
        <time>2018-11-24T23:06:34Z</time>
      </trkpt>
      <trkpt lat="42.84436" lon="0.67007">
        <ele>2120</ele>
        <time>2018-11-24T23:06:36Z</time>
      </trkpt>
      <trkpt lat="42.84435" lon="0.67002">
        <ele>2120</ele>
        <time>2018-11-24T23:06:37Z</time>
      </trkpt>
      <trkpt lat="42.84436" lon="0.66998">
        <ele>2120</ele>
        <time>2018-11-24T23:06:38Z</time>
      </trkpt>
      <trkpt lat="42.84436" lon="0.66994">
        <ele>2120.1</ele>
        <time>2018-11-24T23:06:39Z</time>
      </trkpt>
      <trkpt lat="42.84435" lon="0.6699">
        <ele>2117.1</ele>
        <time>2018-11-24T23:06:40Z</time>
      </trkpt>
      <trkpt lat="42.84436" lon="0.66986">
        <ele>2117.3</ele>
        <time>2018-11-24T23:06:42Z</time>
      </trkpt>
      <trkpt lat="42.84436" lon="0.66983">
        <ele>2117.4</ele>
        <time>2018-11-24T23:06:43Z</time>
      </trkpt>
      <trkpt lat="42.84436" lon="0.66978">
        <ele>2117.7</ele>
        <time>2018-11-24T23:06:44Z</time>
      </trkpt>
      <trkpt lat="42.84435" lon="0.66974">
        <ele>2117.7</ele>
        <time>2018-11-24T23:06:45Z</time>
      </trkpt>
      <trkpt lat="42.84435" lon="0.6697">
        <ele>2118.1</ele>
        <time>2018-11-24T23:06:46Z</time>
      </trkpt>
      <trkpt lat="42.84435" lon="0.66967">
        <ele>2118.3</ele>
        <time>2018-11-24T23:06:47Z</time>
      </trkpt>
      <trkpt lat="42.84434" lon="0.66963">
        <ele>2118.5</ele>
        <time>2018-11-24T23:06:48Z</time>
      </trkpt>
      <trkpt lat="42.84433" lon="0.66959">
        <ele>2118.8</ele>
        <time>2018-11-24T23:06:50Z</time>
      </trkpt>
      <trkpt lat="42.84433" lon="0.66956">
        <ele>2119.1</ele>
        <time>2018-11-24T23:06:51Z</time>
      </trkpt>
      <trkpt lat="42.84432" lon="0.66953">
        <ele>2119.6</ele>
        <time>2018-11-24T23:06:52Z</time>
      </trkpt>
      <trkpt lat="42.84431" lon="0.66949">
        <ele>2120</ele>
        <time>2018-11-24T23:06:53Z</time>
      </trkpt>
      <trkpt lat="42.84431" lon="0.66945">
        <ele>2119.6</ele>
        <time>2018-11-24T23:06:54Z</time>
      </trkpt>
      <trkpt lat="42.84431" lon="0.66941">
        <ele>2119</ele>
        <time>2018-11-24T23:06:55Z</time>
      </trkpt>
      <trkpt lat="42.8443" lon="0.66937">
        <ele>2118.5</ele>
        <time>2018-11-24T23:06:56Z</time>
      </trkpt>
      <trkpt lat="42.8443" lon="0.66934">
        <ele>2118.1</ele>
        <time>2018-11-24T23:06:57Z</time>
      </trkpt>
      <trkpt lat="42.84429" lon="0.6693">
        <ele>2117.6</ele>
        <time>2018-11-24T23:06:58Z</time>
      </trkpt>
      <trkpt lat="42.84429" lon="0.66926">
        <ele>2117.1</ele>
        <time>2018-11-24T23:06:59Z</time>
      </trkpt>
      <trkpt lat="42.84428" lon="0.66923">
        <ele>2116.7</ele>
        <time>2018-11-24T23:07:00Z</time>
      </trkpt>
      <trkpt lat="42.84428" lon="0.6692">
        <ele>2116.3</ele>
        <time>2018-11-24T23:07:02Z</time>
      </trkpt>
      <trkpt lat="42.84427" lon="0.66916">
        <ele>2115.9</ele>
        <time>2018-11-24T23:07:02Z</time>
      </trkpt>
      <trkpt lat="42.84427" lon="0.66913">
        <ele>2115.5</ele>
        <time>2018-11-24T23:07:04Z</time>
      </trkpt>
      <trkpt lat="42.84427" lon="0.66909">
        <ele>2115.2</ele>
        <time>2018-11-24T23:07:05Z</time>
      </trkpt>
      <trkpt lat="42.84426" lon="0.66905">
        <ele>2114.7</ele>
        <time>2018-11-24T23:07:06Z</time>
      </trkpt>
      <trkpt lat="42.84425" lon="0.66902">
        <ele>2114.2</ele>
        <time>2018-11-24T23:07:07Z</time>
      </trkpt>
      <trkpt lat="42.84424" lon="0.66898">
        <ele>2114</ele>
        <time>2018-11-24T23:07:08Z</time>
      </trkpt>
      <trkpt lat="42.84423" lon="0.66894">
        <ele>2113.6</ele>
        <time>2018-11-24T23:07:09Z</time>
      </trkpt>
      <trkpt lat="42.84422" lon="0.66891">
        <ele>2113.2</ele>
        <time>2018-11-24T23:07:10Z</time>
      </trkpt>
      <trkpt lat="42.84422" lon="0.66887">
        <ele>2112.9</ele>
        <time>2018-11-24T23:07:11Z</time>
      </trkpt>
      <trkpt lat="42.84421" lon="0.66884">
        <ele>2112.4</ele>
        <time>2018-11-24T23:07:12Z</time>
      </trkpt>
      <trkpt lat="42.84421" lon="0.6688">
        <ele>2112</ele>
        <time>2018-11-24T23:07:14Z</time>
      </trkpt>
      <trkpt lat="42.8442" lon="0.66876">
        <ele>2108.3</ele>
        <time>2018-11-24T23:07:15Z</time>
      </trkpt>
      <trkpt lat="42.8442" lon="0.66872">
        <ele>2108.6</ele>
        <time>2018-11-24T23:07:16Z</time>
      </trkpt>
      <trkpt lat="42.84419" lon="0.66869">
        <ele>2109</ele>
        <time>2018-11-24T23:07:17Z</time>
      </trkpt>
      <trkpt lat="42.84419" lon="0.66865">
        <ele>2109.6</ele>
        <time>2018-11-24T23:07:18Z</time>
      </trkpt>
      <trkpt lat="42.84418" lon="0.66862">
        <ele>2110.1</ele>
        <time>2018-11-24T23:07:19Z</time>
      </trkpt>
      <trkpt lat="42.84418" lon="0.66858">
        <ele>2109.5</ele>
        <time>2018-11-24T23:07:20Z</time>
      </trkpt>
      <trkpt lat="42.84418" lon="0.66855">
        <ele>2109.1</ele>
        <time>2018-11-24T23:07:21Z</time>
      </trkpt>
      <trkpt lat="42.84418" lon="0.66853">
        <ele>2108.6</ele>
        <time>2018-11-24T23:07:22Z</time>
      </trkpt>
      <trkpt lat="42.84418" lon="0.66849">
        <ele>2108.1</ele>
        <time>2018-11-24T23:07:23Z</time>
      </trkpt>
      <trkpt lat="42.84418" lon="0.66845">
        <ele>2107.5</ele>
        <time>2018-11-24T23:07:24Z</time>
      </trkpt>
      <trkpt lat="42.84417" lon="0.66842">
        <ele>2107</ele>
        <time>2018-11-24T23:07:25Z</time>
      </trkpt>
      <trkpt lat="42.84416" lon="0.66838">
        <ele>2106.5</ele>
        <time>2018-11-24T23:07:26Z</time>
      </trkpt>
      <trkpt lat="42.84416" lon="0.66835">
        <ele>2106.2</ele>
        <time>2018-11-24T23:07:27Z</time>
      </trkpt>
      <trkpt lat="42.84415" lon="0.66832">
        <ele>2105.7</ele>
        <time>2018-11-24T23:07:28Z</time>
      </trkpt>
      <trkpt lat="42.84415" lon="0.66829">
        <ele>2105.3</ele>
        <time>2018-11-24T23:07:29Z</time>
      </trkpt>
      <trkpt lat="42.84415" lon="0.66825">
        <ele>2104.8</ele>
        <time>2018-11-24T23:07:30Z</time>
      </trkpt>
      <trkpt lat="42.84414" lon="0.66821">
        <ele>2104.4</ele>
        <time>2018-11-24T23:07:31Z</time>
      </trkpt>
      <trkpt lat="42.84414" lon="0.66818">
        <ele>2104</ele>
        <time>2018-11-24T23:07:32Z</time>
      </trkpt>
      <trkpt lat="42.84415" lon="0.66814">
        <ele>2103.6</ele>
        <time>2018-11-24T23:07:33Z</time>
      </trkpt>
      <trkpt lat="42.84414" lon="0.66811">
        <ele>2103.2</ele>
        <time>2018-11-24T23:07:34Z</time>
      </trkpt>
      <trkpt lat="42.84414" lon="0.66807">
        <ele>2102.6</ele>
        <time>2018-11-24T23:07:35Z</time>
      </trkpt>
      <trkpt lat="42.84414" lon="0.66804">
        <ele>2102.3</ele>
        <time>2018-11-24T23:07:36Z</time>
      </trkpt>
      <trkpt lat="42.84413" lon="0.66801">
        <ele>2101.9</ele>
        <time>2018-11-24T23:07:37Z</time>
      </trkpt>
      <trkpt lat="42.84413" lon="0.66798">
        <ele>2098.4</ele>
        <time>2018-11-24T23:07:38Z</time>
      </trkpt>
      <trkpt lat="42.84413" lon="0.66795">
        <ele>2098.7</ele>
        <time>2018-11-24T23:07:39Z</time>
      </trkpt>
      <trkpt lat="42.84412" lon="0.66791">
        <ele>2099</ele>
        <time>2018-11-24T23:07:40Z</time>
      </trkpt>
      <trkpt lat="42.84411" lon="0.66788">
        <ele>2099.3</ele>
        <time>2018-11-24T23:07:41Z</time>
      </trkpt>
      <trkpt lat="42.8441" lon="0.66785">
        <ele>2099.7</ele>
        <time>2018-11-24T23:07:42Z</time>
      </trkpt>
      <trkpt lat="42.84409" lon="0.66781">
        <ele>2100</ele>
        <time>2018-11-24T23:07:43Z</time>
      </trkpt>
      <trkpt lat="42.84409" lon="0.66778">
        <ele>2099.4</ele>
        <time>2018-11-24T23:07:44Z</time>
      </trkpt>
      <trkpt lat="42.84408" lon="0.66774">
        <ele>2099</ele>
        <time>2018-11-24T23:07:45Z</time>
      </trkpt>
      <trkpt lat="42.84407" lon="0.6677">
        <ele>2098.3</ele>
        <time>2018-11-24T23:07:46Z</time>
      </trkpt>
      <trkpt lat="42.84407" lon="0.66767">
        <ele>2097.9</ele>
        <time>2018-11-24T23:07:48Z</time>
      </trkpt>
      <trkpt lat="42.84406" lon="0.66763">
        <ele>2097.3</ele>
        <time>2018-11-24T23:07:49Z</time>
      </trkpt>
      <trkpt lat="42.84406" lon="0.66759">
        <ele>2096.9</ele>
        <time>2018-11-24T23:07:50Z</time>
      </trkpt>
      <trkpt lat="42.84405" lon="0.66756">
        <ele>2096.4</ele>
        <time>2018-11-24T23:07:51Z</time>
      </trkpt>
      <trkpt lat="42.84404" lon="0.66752">
        <ele>2096.1</ele>
        <time>2018-11-24T23:07:52Z</time>
      </trkpt>
      <trkpt lat="42.84403" lon="0.66748">
        <ele>2095.5</ele>
        <time>2018-11-24T23:07:53Z</time>
      </trkpt>
      <trkpt lat="42.84403" lon="0.66745">
        <ele>2095.1</ele>
        <time>2018-11-24T23:07:54Z</time>
      </trkpt>
      <trkpt lat="42.84403" lon="0.66742">
        <ele>2094.7</ele>
        <time>2018-11-24T23:07:55Z</time>
      </trkpt>
      <trkpt lat="42.84403" lon="0.66738">
        <ele>2094.4</ele>
        <time>2018-11-24T23:07:56Z</time>
      </trkpt>
      <trkpt lat="42.84403" lon="0.66735">
        <ele>2093.9</ele>
        <time>2018-11-24T23:07:57Z</time>
      </trkpt>
      <trkpt lat="42.84402" lon="0.66732">
        <ele>2093.6</ele>
        <time>2018-11-24T23:07:58Z</time>
      </trkpt>
      <trkpt lat="42.84401" lon="0.66729">
        <ele>2093.4</ele>
        <time>2018-11-24T23:07:59Z</time>
      </trkpt>
      <trkpt lat="42.84399" lon="0.66726">
        <ele>2093.1</ele>
        <time>2018-11-24T23:08:00Z</time>
      </trkpt>
      <trkpt lat="42.84398" lon="0.66723">
        <ele>2093</ele>
        <time>2018-11-24T23:08:01Z</time>
      </trkpt>
      <trkpt lat="42.84396" lon="0.66721">
        <ele>2092.9</ele>
        <time>2018-11-24T23:08:02Z</time>
      </trkpt>
      <trkpt lat="42.84394" lon="0.66718">
        <ele>2092.7</ele>
        <time>2018-11-24T23:08:03Z</time>
      </trkpt>
      <trkpt lat="42.84392" lon="0.66715">
        <ele>2092.6</ele>
        <time>2018-11-24T23:08:05Z</time>
      </trkpt>
      <trkpt lat="42.84389" lon="0.66712">
        <ele>2092.3</ele>
        <time>2018-11-24T23:08:06Z</time>
      </trkpt>
      <trkpt lat="42.84387" lon="0.66709">
        <ele>2092.1</ele>
        <time>2018-11-24T23:08:07Z</time>
      </trkpt>
      <trkpt lat="42.84384" lon="0.66706">
        <ele>2088.1</ele>
        <time>2018-11-24T23:08:09Z</time>
      </trkpt>
      <trkpt lat="42.84382" lon="0.66703">
        <ele>2088.2</ele>
        <time>2018-11-24T23:08:10Z</time>
      </trkpt>
      <trkpt lat="42.8438" lon="0.66701">
        <ele>2088.2</ele>
        <time>2018-11-24T23:08:11Z</time>
      </trkpt>
      <trkpt lat="42.84377" lon="0.66699">
        <ele>2088.3</ele>
        <time>2018-11-24T23:08:12Z</time>
      </trkpt>
      <trkpt lat="42.84375" lon="0.66696">
        <ele>2088.5</ele>
        <time>2018-11-24T23:08:13Z</time>
      </trkpt>
      <trkpt lat="42.84373" lon="0.66693">
        <ele>2088.8</ele>
        <time>2018-11-24T23:08:14Z</time>
      </trkpt>
      <trkpt lat="42.84372" lon="0.6669">
        <ele>2089</ele>
        <time>2018-11-24T23:08:16Z</time>
      </trkpt>
      <trkpt lat="42.8437" lon="0.66687">
        <ele>2089.4</ele>
        <time>2018-11-24T23:08:17Z</time>
      </trkpt>
      <trkpt lat="42.84368" lon="0.66684">
        <ele>2089.7</ele>
        <time>2018-11-24T23:08:18Z</time>
      </trkpt>
      <trkpt lat="42.84367" lon="0.66681">
        <ele>2090</ele>
        <time>2018-11-24T23:08:19Z</time>
      </trkpt>
      <trkpt lat="42.84365" lon="0.66678">
        <ele>2089.5</ele>
        <time>2018-11-24T23:08:20Z</time>
      </trkpt>
      <trkpt lat="42.84363" lon="0.66676">
        <ele>2089.1</ele>
        <time>2018-11-24T23:08:21Z</time>
      </trkpt>
      <trkpt lat="42.84361" lon="0.66673">
        <ele>2088.8</ele>
        <time>2018-11-24T23:08:22Z</time>
      </trkpt>
      <trkpt lat="42.8436" lon="0.6667">
        <ele>2088.4</ele>
        <time>2018-11-24T23:08:23Z</time>
      </trkpt>
      <trkpt lat="42.84358" lon="0.66667">
        <ele>2088</ele>
        <time>2018-11-24T23:08:24Z</time>
      </trkpt>
      <trkpt lat="42.84356" lon="0.66664">
        <ele>2087.5</ele>
        <time>2018-11-24T23:08:25Z</time>
      </trkpt>
      <trkpt lat="42.84354" lon="0.66661">
        <ele>2087.3</ele>
        <time>2018-11-24T23:08:27Z</time>
      </trkpt>
      <trkpt lat="42.84352" lon="0.66658">
        <ele>2086.9</ele>
        <time>2018-11-24T23:08:28Z</time>
      </trkpt>
      <trkpt lat="42.8435" lon="0.66656">
        <ele>2086.5</ele>
        <time>2018-11-24T23:08:29Z</time>
      </trkpt>
      <trkpt lat="42.84349" lon="0.66652">
        <ele>2086.2</ele>
        <time>2018-11-24T23:08:30Z</time>
      </trkpt>
      <trkpt lat="42.84347" lon="0.66649">
        <ele>2085.9</ele>
        <time>2018-11-24T23:08:31Z</time>
      </trkpt>
      <trkpt lat="42.84346" lon="0.66645">
        <ele>2085.4</ele>
        <time>2018-11-24T23:08:32Z</time>
      </trkpt>
      <trkpt lat="42.84344" lon="0.66642">
        <ele>2085</ele>
        <time>2018-11-24T23:08:34Z</time>
      </trkpt>
      <trkpt lat="42.84343" lon="0.66638">
        <ele>2084.7</ele>
        <time>2018-11-24T23:08:35Z</time>
      </trkpt>
      <trkpt lat="42.84341" lon="0.66635">
        <ele>2084.3</ele>
        <time>2018-11-24T23:08:36Z</time>
      </trkpt>
      <trkpt lat="42.84339" lon="0.66631">
        <ele>2084</ele>
        <time>2018-11-24T23:08:37Z</time>
      </trkpt>
      <trkpt lat="42.84337" lon="0.66628">
        <ele>2083.7</ele>
        <time>2018-11-24T23:08:38Z</time>
      </trkpt>
      <trkpt lat="42.84335" lon="0.66625">
        <ele>2083.4</ele>
        <time>2018-11-24T23:08:40Z</time>
      </trkpt>
      <trkpt lat="42.84333" lon="0.66622">
        <ele>2083</ele>
        <time>2018-11-24T23:08:41Z</time>
      </trkpt>
      <trkpt lat="42.84331" lon="0.66619">
        <ele>2082.7</ele>
        <time>2018-11-24T23:08:42Z</time>
      </trkpt>
      <trkpt lat="42.84329" lon="0.66616">
        <ele>2082.3</ele>
        <time>2018-11-24T23:08:43Z</time>
      </trkpt>
      <trkpt lat="42.84327" lon="0.66613">
        <ele>2082.1</ele>
        <time>2018-11-24T23:08:45Z</time>
      </trkpt>
      <trkpt lat="42.84325" lon="0.6661">
        <ele>2081.7</ele>
        <time>2018-11-24T23:08:46Z</time>
      </trkpt>
      <trkpt lat="42.84323" lon="0.66607">
        <ele>2078.9</ele>
        <time>2018-11-24T23:08:47Z</time>
      </trkpt>
      <trkpt lat="42.84321" lon="0.66604">
        <ele>2079.1</ele>
        <time>2018-11-24T23:08:48Z</time>
      </trkpt>
      <trkpt lat="42.84319" lon="0.66601">
        <ele>2079.5</ele>
        <time>2018-11-24T23:08:49Z</time>
      </trkpt>
      <trkpt lat="42.84317" lon="0.66598">
        <ele>2080</ele>
        <time>2018-11-24T23:08:50Z</time>
      </trkpt>
      <trkpt lat="42.84315" lon="0.66595">
        <ele>2079.8</ele>
        <time>2018-11-24T23:08:52Z</time>
      </trkpt>
      <trkpt lat="42.84313" lon="0.66591">
        <ele>2079.3</ele>
        <time>2018-11-24T23:08:53Z</time>
      </trkpt>
      <trkpt lat="42.84312" lon="0.66589">
        <ele>2078.8</ele>
        <time>2018-11-24T23:08:54Z</time>
      </trkpt>
      <trkpt lat="42.8431" lon="0.66586">
        <ele>2078.4</ele>
        <time>2018-11-24T23:08:55Z</time>
      </trkpt>
      <trkpt lat="42.84308" lon="0.66583">
        <ele>2078.1</ele>
        <time>2018-11-24T23:08:56Z</time>
      </trkpt>
      <trkpt lat="42.84306" lon="0.66581">
        <ele>2077.7</ele>
        <time>2018-11-24T23:08:57Z</time>
      </trkpt>
      <trkpt lat="42.84303" lon="0.66579">
        <ele>2077.5</ele>
        <time>2018-11-24T23:08:58Z</time>
      </trkpt>
      <trkpt lat="42.84301" lon="0.66576">
        <ele>2077.1</ele>
        <time>2018-11-24T23:09:00Z</time>
      </trkpt>
      <trkpt lat="42.84299" lon="0.66573">
        <ele>2076.7</ele>
        <time>2018-11-24T23:09:01Z</time>
      </trkpt>
      <trkpt lat="42.84298" lon="0.66571">
        <ele>2076.4</ele>
        <time>2018-11-24T23:09:02Z</time>
      </trkpt>
      <trkpt lat="42.84296" lon="0.66568">
        <ele>2076.2</ele>
        <time>2018-11-24T23:09:02Z</time>
      </trkpt>
      <trkpt lat="42.84295" lon="0.66567">
        <ele>2076.1</ele>
        <time>2018-11-24T23:09:03Z</time>
      </trkpt>
      <trkpt lat="42.84293" lon="0.66564">
        <ele>2075.9</ele>
        <time>2018-11-24T23:09:04Z</time>
      </trkpt>
      <trkpt lat="42.84291" lon="0.66562">
        <ele>2075.5</ele>
        <time>2018-11-24T23:09:05Z</time>
      </trkpt>
      <trkpt lat="42.8429" lon="0.66559">
        <ele>2075.4</ele>
        <time>2018-11-24T23:09:06Z</time>
      </trkpt>
      <trkpt lat="42.84288" lon="0.66557">
        <ele>2075.1</ele>
        <time>2018-11-24T23:09:07Z</time>
      </trkpt>
      <trkpt lat="42.84287" lon="0.66554">
        <ele>2075</ele>
        <time>2018-11-24T23:09:08Z</time>
      </trkpt>
      <trkpt lat="42.84285" lon="0.6655">
        <ele>2074.8</ele>
        <time>2018-11-24T23:09:09Z</time>
      </trkpt>
      <trkpt lat="42.84284" lon="0.66547">
        <ele>2074.5</ele>
        <time>2018-11-24T23:09:10Z</time>
      </trkpt>
      <trkpt lat="42.84283" lon="0.66544">
        <ele>2074.5</ele>
        <time>2018-11-24T23:09:11Z</time>
      </trkpt>
      <trkpt lat="42.84281" lon="0.66541">
        <ele>2074.2</ele>
        <time>2018-11-24T23:09:13Z</time>
      </trkpt>
      <trkpt lat="42.8428" lon="0.66537">
        <ele>2074</ele>
        <time>2018-11-24T23:09:14Z</time>
      </trkpt>
      <trkpt lat="42.84278" lon="0.66534">
        <ele>2073.8</ele>
        <time>2018-11-24T23:09:15Z</time>
      </trkpt>
      <trkpt lat="42.84277" lon="0.66531">
        <ele>2073.8</ele>
        <time>2018-11-24T23:09:16Z</time>
      </trkpt>
      <trkpt lat="42.84275" lon="0.66528">
        <ele>2073.5</ele>
        <time>2018-11-24T23:09:17Z</time>
      </trkpt>
      <trkpt lat="42.84274" lon="0.66525">
        <ele>2066.5</ele>
        <time>2018-11-24T23:09:18Z</time>
      </trkpt>
      <trkpt lat="42.84272" lon="0.66523">
        <ele>2066.5</ele>
        <time>2018-11-24T23:09:19Z</time>
      </trkpt>
      <trkpt lat="42.84271" lon="0.6652">
        <ele>2066.6</ele>
        <time>2018-11-24T23:09:20Z</time>
      </trkpt>
      <trkpt lat="42.84269" lon="0.66517">
        <ele>2066.6</ele>
        <time>2018-11-24T23:09:21Z</time>
      </trkpt>
      <trkpt lat="42.84268" lon="0.66514">
        <ele>2066.8</ele>
        <time>2018-11-24T23:09:22Z</time>
      </trkpt>
      <trkpt lat="42.84266" lon="0.66512">
        <ele>2066.7</ele>
        <time>2018-11-24T23:09:23Z</time>
      </trkpt>
      <trkpt lat="42.84264" lon="0.66509">
        <ele>2066.9</ele>
        <time>2018-11-24T23:09:24Z</time>
      </trkpt>
      <trkpt lat="42.84263" lon="0.66506">
        <ele>2066.8</ele>
        <time>2018-11-24T23:09:25Z</time>
      </trkpt>
      <trkpt lat="42.84261" lon="0.66504">
        <ele>2066.9</ele>
        <time>2018-11-24T23:09:26Z</time>
      </trkpt>
      <trkpt lat="42.84259" lon="0.66501">
        <ele>2067</ele>
        <time>2018-11-24T23:09:27Z</time>
      </trkpt>
      <trkpt lat="42.84257" lon="0.66499">
        <ele>2067</ele>
        <time>2018-11-24T23:09:28Z</time>
      </trkpt>
      <trkpt lat="42.84255" lon="0.66496">
        <ele>2067.2</ele>
        <time>2018-11-24T23:09:29Z</time>
      </trkpt>
      <trkpt lat="42.84253" lon="0.66494">
        <ele>2067.2</ele>
        <time>2018-11-24T23:09:31Z</time>
      </trkpt>
      <trkpt lat="42.84251" lon="0.66491">
        <ele>2067.4</ele>
        <time>2018-11-24T23:09:32Z</time>
      </trkpt>
      <trkpt lat="42.84249" lon="0.66488">
        <ele>2067.5</ele>
        <time>2018-11-24T23:09:33Z</time>
      </trkpt>
      <trkpt lat="42.84248" lon="0.66486">
        <ele>2067.5</ele>
        <time>2018-11-24T23:09:34Z</time>
      </trkpt>
      <trkpt lat="42.84246" lon="0.66484">
        <ele>2067.7</ele>
        <time>2018-11-24T23:09:35Z</time>
      </trkpt>
      <trkpt lat="42.84244" lon="0.66481">
        <ele>2067.8</ele>
        <time>2018-11-24T23:09:36Z</time>
      </trkpt>
      <trkpt lat="42.84242" lon="0.66478">
        <ele>2067.9</ele>
        <time>2018-11-24T23:09:37Z</time>
      </trkpt>
      <trkpt lat="42.8424" lon="0.66476">
        <ele>2068</ele>
        <time>2018-11-24T23:09:38Z</time>
      </trkpt>
      <trkpt lat="42.84238" lon="0.66473">
        <ele>2068.2</ele>
        <time>2018-11-24T23:09:39Z</time>
      </trkpt>
      <trkpt lat="42.84236" lon="0.66471">
        <ele>2068.3</ele>
        <time>2018-11-24T23:09:40Z</time>
      </trkpt>
      <trkpt lat="42.84235" lon="0.66468">
        <ele>2068.5</ele>
        <time>2018-11-24T23:09:41Z</time>
      </trkpt>
      <trkpt lat="42.84233" lon="0.66466">
        <ele>2068.8</ele>
        <time>2018-11-24T23:09:42Z</time>
      </trkpt>
      <trkpt lat="42.84232" lon="0.66464">
        <ele>2069</ele>
        <time>2018-11-24T23:09:43Z</time>
      </trkpt>
      <trkpt lat="42.8423" lon="0.66461">
        <ele>2069.2</ele>
        <time>2018-11-24T23:09:44Z</time>
      </trkpt>
      <trkpt lat="42.84228" lon="0.66459">
        <ele>2069.4</ele>
        <time>2018-11-24T23:09:45Z</time>
      </trkpt>
      <trkpt lat="42.84226" lon="0.66457">
        <ele>2069.9</ele>
        <time>2018-11-24T23:09:46Z</time>
      </trkpt>
      <trkpt lat="42.84225" lon="0.66454">
        <ele>2070</ele>
        <time>2018-11-24T23:09:47Z</time>
      </trkpt>
      <trkpt lat="42.84223" lon="0.66452">
        <ele>2069.6</ele>
        <time>2018-11-24T23:09:48Z</time>
      </trkpt>
      <trkpt lat="42.84221" lon="0.66449">
        <ele>2069.2</ele>
        <time>2018-11-24T23:09:49Z</time>
      </trkpt>
      <trkpt lat="42.84219" lon="0.66446">
        <ele>2068.8</ele>
        <time>2018-11-24T23:09:50Z</time>
      </trkpt>
      <trkpt lat="42.84217" lon="0.66443">
        <ele>2068.4</ele>
        <time>2018-11-24T23:09:51Z</time>
      </trkpt>
      <trkpt lat="42.84215" lon="0.6644">
        <ele>2068</ele>
        <time>2018-11-24T23:09:52Z</time>
      </trkpt>
      <trkpt lat="42.84213" lon="0.66438">
        <ele>2067.7</ele>
        <time>2018-11-24T23:09:53Z</time>
      </trkpt>
      <trkpt lat="42.84211" lon="0.66435">
        <ele>2067.2</ele>
        <time>2018-11-24T23:09:54Z</time>
      </trkpt>
      <trkpt lat="42.84209" lon="0.66433">
        <ele>2066.8</ele>
        <time>2018-11-24T23:09:56Z</time>
      </trkpt>
      <trkpt lat="42.84208" lon="0.66431">
        <ele>2066.6</ele>
        <time>2018-11-24T23:09:57Z</time>
      </trkpt>
      <trkpt lat="42.84205" lon="0.66428">
        <ele>2066.2</ele>
        <time>2018-11-24T23:09:58Z</time>
      </trkpt>
      <trkpt lat="42.84203" lon="0.66426">
        <ele>2065.8</ele>
        <time>2018-11-24T23:09:59Z</time>
      </trkpt>
      <trkpt lat="42.84201" lon="0.66423">
        <ele>2065.5</ele>
        <time>2018-11-24T23:10:00Z</time>
      </trkpt>
      <trkpt lat="42.84199" lon="0.6642">
        <ele>2065</ele>
        <time>2018-11-24T23:10:01Z</time>
      </trkpt>
      <trkpt lat="42.84198" lon="0.66417">
        <ele>2064.8</ele>
        <time>2018-11-24T23:10:02Z</time>
      </trkpt>
      <trkpt lat="42.84195" lon="0.66415">
        <ele>2064.3</ele>
        <time>2018-11-24T23:10:03Z</time>
      </trkpt>
      <trkpt lat="42.84194" lon="0.66412">
        <ele>2064</ele>
        <time>2018-11-24T23:10:04Z</time>
      </trkpt>
      <trkpt lat="42.84192" lon="0.66409">
        <ele>2063.7</ele>
        <time>2018-11-24T23:10:05Z</time>
      </trkpt>
      <trkpt lat="42.84191" lon="0.66406">
        <ele>2063.5</ele>
        <time>2018-11-24T23:10:07Z</time>
      </trkpt>
      <trkpt lat="42.84189" lon="0.66403">
        <ele>2063.2</ele>
        <time>2018-11-24T23:10:08Z</time>
      </trkpt>
      <trkpt lat="42.84188" lon="0.664">
        <ele>2063</ele>
        <time>2018-11-24T23:10:09Z</time>
      </trkpt>
      <trkpt lat="42.84186" lon="0.66397">
        <ele>2062.7</ele>
        <time>2018-11-24T23:10:10Z</time>
      </trkpt>
      <trkpt lat="42.84185" lon="0.66394">
        <ele>2062.5</ele>
        <time>2018-11-24T23:10:11Z</time>
      </trkpt>
      <trkpt lat="42.84183" lon="0.66391">
        <ele>2057.8</ele>
        <time>2018-11-24T23:10:12Z</time>
      </trkpt>
      <trkpt lat="42.84181" lon="0.66389">
        <ele>2058</ele>
        <time>2018-11-24T23:10:13Z</time>
      </trkpt>
      <trkpt lat="42.84179" lon="0.66386">
        <ele>2058.2</ele>
        <time>2018-11-24T23:10:14Z</time>
      </trkpt>
      <trkpt lat="42.84177" lon="0.66383">
        <ele>2058.5</ele>
        <time>2018-11-24T23:10:15Z</time>
      </trkpt>
      <trkpt lat="42.84175" lon="0.66381">
        <ele>2058.9</ele>
        <time>2018-11-24T23:10:16Z</time>
      </trkpt>
      <trkpt lat="42.84174" lon="0.66378">
        <ele>2059.1</ele>
        <time>2018-11-24T23:10:17Z</time>
      </trkpt>
      <trkpt lat="42.84172" lon="0.66375">
        <ele>2059.5</ele>
        <time>2018-11-24T23:10:18Z</time>
      </trkpt>
      <trkpt lat="42.84171" lon="0.66372">
        <ele>2060.1</ele>
        <time>2018-11-24T23:10:19Z</time>
      </trkpt>
      <trkpt lat="42.8417" lon="0.66369">
        <ele>2059.6</ele>
        <time>2018-11-24T23:10:20Z</time>
      </trkpt>
      <trkpt lat="42.84168" lon="0.66366">
        <ele>2059.1</ele>
        <time>2018-11-24T23:10:22Z</time>
      </trkpt>
      <trkpt lat="42.84166" lon="0.66363">
        <ele>2058.5</ele>
        <time>2018-11-24T23:10:23Z</time>
      </trkpt>
      <trkpt lat="42.84164" lon="0.66359">
        <ele>2057.8</ele>
        <time>2018-11-24T23:10:24Z</time>
      </trkpt>
      <trkpt lat="42.84162" lon="0.66356">
        <ele>2057.2</ele>
        <time>2018-11-24T23:10:25Z</time>
      </trkpt>
      <trkpt lat="42.84161" lon="0.66353">
        <ele>2056.7</ele>
        <time>2018-11-24T23:10:26Z</time>
      </trkpt>
      <trkpt lat="42.84159" lon="0.6635">
        <ele>2056.2</ele>
        <time>2018-11-24T23:10:27Z</time>
      </trkpt>
      <trkpt lat="42.84158" lon="0.66347">
        <ele>2055.9</ele>
        <time>2018-11-24T23:10:28Z</time>
      </trkpt>
      <trkpt lat="42.84157" lon="0.66344">
        <ele>2055.4</ele>
        <time>2018-11-24T23:10:29Z</time>
      </trkpt>
      <trkpt lat="42.84156" lon="0.6634">
        <ele>2054.9</ele>
        <time>2018-11-24T23:10:31Z</time>
      </trkpt>
      <trkpt lat="42.84155" lon="0.66337">
        <ele>2054.6</ele>
        <time>2018-11-24T23:10:32Z</time>
      </trkpt>
      <trkpt lat="42.84154" lon="0.66333">
        <ele>2054.3</ele>
        <time>2018-11-24T23:10:33Z</time>
      </trkpt>
      <trkpt lat="42.84153" lon="0.6633">
        <ele>2053.9</ele>
        <time>2018-11-24T23:10:34Z</time>
      </trkpt>
      <trkpt lat="42.84152" lon="0.66326">
        <ele>2053.6</ele>
        <time>2018-11-24T23:10:35Z</time>
      </trkpt>
      <trkpt lat="42.84151" lon="0.66322">
        <ele>2053.1</ele>
        <time>2018-11-24T23:10:36Z</time>
      </trkpt>
      <trkpt lat="42.84151" lon="0.66319">
        <ele>2052.7</ele>
        <time>2018-11-24T23:10:37Z</time>
      </trkpt>
      <trkpt lat="42.8415" lon="0.66315">
        <ele>2052.5</ele>
        <time>2018-11-24T23:10:38Z</time>
      </trkpt>
      <trkpt lat="42.84149" lon="0.66312">
        <ele>2052.1</ele>
        <time>2018-11-24T23:10:39Z</time>
      </trkpt>
      <trkpt lat="42.84148" lon="0.66309">
        <ele>2051.6</ele>
        <time>2018-11-24T23:10:40Z</time>
      </trkpt>
      <trkpt lat="42.84147" lon="0.66305">
        <ele>2051.3</ele>
        <time>2018-11-24T23:10:41Z</time>
      </trkpt>
      <trkpt lat="42.84146" lon="0.66302">
        <ele>2049.1</ele>
        <time>2018-11-24T23:10:42Z</time>
      </trkpt>
      <trkpt lat="42.84145" lon="0.66299">
        <ele>2049.5</ele>
        <time>2018-11-24T23:10:43Z</time>
      </trkpt>
      <trkpt lat="42.84144" lon="0.66296">
        <ele>2049.9</ele>
        <time>2018-11-24T23:10:44Z</time>
      </trkpt>
      <trkpt lat="42.84143" lon="0.66293">
        <ele>2049.8</ele>
        <time>2018-11-24T23:10:45Z</time>
      </trkpt>
      <trkpt lat="42.84142" lon="0.6629">
        <ele>2049.2</ele>
        <time>2018-11-24T23:10:46Z</time>
      </trkpt>
      <trkpt lat="42.8414" lon="0.66287">
        <ele>2048.8</ele>
        <time>2018-11-24T23:10:47Z</time>
      </trkpt>
      <trkpt lat="42.84139" lon="0.66284">
        <ele>2048.2</ele>
        <time>2018-11-24T23:10:48Z</time>
      </trkpt>
      <trkpt lat="42.84137" lon="0.66282">
        <ele>2047.6</ele>
        <time>2018-11-24T23:10:49Z</time>
      </trkpt>
      <trkpt lat="42.84135" lon="0.66279">
        <ele>2046.9</ele>
        <time>2018-11-24T23:10:51Z</time>
      </trkpt>
      <trkpt lat="42.84133" lon="0.66276">
        <ele>2046.4</ele>
        <time>2018-11-24T23:10:52Z</time>
      </trkpt>
      <trkpt lat="42.84131" lon="0.66273">
        <ele>2045.8</ele>
        <time>2018-11-24T23:10:53Z</time>
      </trkpt>
      <trkpt lat="42.84129" lon="0.6627">
        <ele>2045.2</ele>
        <time>2018-11-24T23:10:54Z</time>
      </trkpt>
      <trkpt lat="42.84127" lon="0.66267">
        <ele>2044.8</ele>
        <time>2018-11-24T23:10:55Z</time>
      </trkpt>
      <trkpt lat="42.84125" lon="0.66263">
        <ele>2044.1</ele>
        <time>2018-11-24T23:10:57Z</time>
      </trkpt>
      <trkpt lat="42.84123" lon="0.66259">
        <ele>2043.5</ele>
        <time>2018-11-24T23:10:58Z</time>
      </trkpt>
      <trkpt lat="42.84121" lon="0.66256">
        <ele>2042.9</ele>
        <time>2018-11-24T23:10:59Z</time>
      </trkpt>
      <trkpt lat="42.84119" lon="0.66253">
        <ele>2042.3</ele>
        <time>2018-11-24T23:11:01Z</time>
      </trkpt>
      <trkpt lat="42.84117" lon="0.6625">
        <ele>2041.9</ele>
        <time>2018-11-24T23:11:02Z</time>
      </trkpt>
      <trkpt lat="42.84114" lon="0.66247">
        <ele>2038.7</ele>
        <time>2018-11-24T23:11:03Z</time>
      </trkpt>
      <trkpt lat="42.84112" lon="0.66244">
        <ele>2039.4</ele>
        <time>2018-11-24T23:11:04Z</time>
      </trkpt>
      <trkpt lat="42.8411" lon="0.66241">
        <ele>2040</ele>
        <time>2018-11-24T23:11:06Z</time>
      </trkpt>
      <trkpt lat="42.84108" lon="0.66238">
        <ele>2039.5</ele>
        <time>2018-11-24T23:11:07Z</time>
      </trkpt>
      <trkpt lat="42.84105" lon="0.66235">
        <ele>2038.7</ele>
        <time>2018-11-24T23:11:08Z</time>
      </trkpt>
      <trkpt lat="42.84103" lon="0.66232">
        <ele>2038.1</ele>
        <time>2018-11-24T23:11:09Z</time>
      </trkpt>
      <trkpt lat="42.84101" lon="0.66229">
        <ele>2037.5</ele>
        <time>2018-11-24T23:11:11Z</time>
      </trkpt>
      <trkpt lat="42.84099" lon="0.66226">
        <ele>2036.8</ele>
        <time>2018-11-24T23:11:12Z</time>
      </trkpt>
      <trkpt lat="42.84097" lon="0.66224">
        <ele>2036.2</ele>
        <time>2018-11-24T23:11:13Z</time>
      </trkpt>
      <trkpt lat="42.84094" lon="0.66221">
        <ele>2035.6</ele>
        <time>2018-11-24T23:11:14Z</time>
      </trkpt>
      <trkpt lat="42.84092" lon="0.66219">
        <ele>2035.1</ele>
        <time>2018-11-24T23:11:15Z</time>
      </trkpt>
      <trkpt lat="42.8409" lon="0.66217">
        <ele>2034.7</ele>
        <time>2018-11-24T23:11:16Z</time>
      </trkpt>
      <trkpt lat="42.84088" lon="0.66214">
        <ele>2034.2</ele>
        <time>2018-11-24T23:11:17Z</time>
      </trkpt>
      <trkpt lat="42.84087" lon="0.66211">
        <ele>2033.9</ele>
        <time>2018-11-24T23:11:19Z</time>
      </trkpt>
      <trkpt lat="42.84085" lon="0.66208">
        <ele>2033.3</ele>
        <time>2018-11-24T23:11:20Z</time>
      </trkpt>
      <trkpt lat="42.84083" lon="0.66205">
        <ele>2033</ele>
        <time>2018-11-24T23:11:21Z</time>
      </trkpt>
      <trkpt lat="42.84082" lon="0.66202">
        <ele>2032.7</ele>
        <time>2018-11-24T23:11:22Z</time>
      </trkpt>
      <trkpt lat="42.8408" lon="0.66199">
        <ele>2032.4</ele>
        <time>2018-11-24T23:11:23Z</time>
      </trkpt>
      <trkpt lat="42.84079" lon="0.66196">
        <ele>2032.1</ele>
        <time>2018-11-24T23:11:24Z</time>
      </trkpt>
      <trkpt lat="42.84076" lon="0.66193">
        <ele>2028.4</ele>
        <time>2018-11-24T23:11:25Z</time>
      </trkpt>
      <trkpt lat="42.84074" lon="0.6619">
        <ele>2028.8</ele>
        <time>2018-11-24T23:11:27Z</time>
      </trkpt>
      <trkpt lat="42.84072" lon="0.66187">
        <ele>2029.2</ele>
        <time>2018-11-24T23:11:28Z</time>
      </trkpt>
      <trkpt lat="42.8407" lon="0.66185">
        <ele>2029.8</ele>
        <time>2018-11-24T23:11:29Z</time>
      </trkpt>
      <trkpt lat="42.84067" lon="0.66183">
        <ele>2029.6</ele>
        <time>2018-11-24T23:11:30Z</time>
      </trkpt>
      <trkpt lat="42.84064" lon="0.66181">
        <ele>2029.1</ele>
        <time>2018-11-24T23:11:31Z</time>
      </trkpt>
      <trkpt lat="42.84062" lon="0.66179">
        <ele>2028.4</ele>
        <time>2018-11-24T23:11:32Z</time>
      </trkpt>
      <trkpt lat="42.8406" lon="0.66176">
        <ele>2027.9</ele>
        <time>2018-11-24T23:11:34Z</time>
      </trkpt>
      <trkpt lat="42.84057" lon="0.66174">
        <ele>2027.4</ele>
        <time>2018-11-24T23:11:35Z</time>
      </trkpt>
      <trkpt lat="42.84056" lon="0.66172">
        <ele>2027</ele>
        <time>2018-11-24T23:11:36Z</time>
      </trkpt>
      <trkpt lat="42.84054" lon="0.66168">
        <ele>2026.6</ele>
        <time>2018-11-24T23:11:37Z</time>
      </trkpt>
      <trkpt lat="42.84052" lon="0.66165">
        <ele>2026.3</ele>
        <time>2018-11-24T23:11:38Z</time>
      </trkpt>
      <trkpt lat="42.84051" lon="0.66161">
        <ele>2026.1</ele>
        <time>2018-11-24T23:11:39Z</time>
      </trkpt>
      <trkpt lat="42.84049" lon="0.66158">
        <ele>2025.8</ele>
        <time>2018-11-24T23:11:40Z</time>
      </trkpt>
      <trkpt lat="42.84047" lon="0.66156">
        <ele>2025.6</ele>
        <time>2018-11-24T23:11:42Z</time>
      </trkpt>
      <trkpt lat="42.84045" lon="0.66153">
        <ele>2025.3</ele>
        <time>2018-11-24T23:11:43Z</time>
      </trkpt>
      <trkpt lat="42.84043" lon="0.6615">
        <ele>2025.1</ele>
        <time>2018-11-24T23:11:44Z</time>
      </trkpt>
      <trkpt lat="42.84041" lon="0.66148">
        <ele>2024.9</ele>
        <time>2018-11-24T23:11:45Z</time>
      </trkpt>
      <trkpt lat="42.8404" lon="0.66146">
        <ele>2024.6</ele>
        <time>2018-11-24T23:11:46Z</time>
      </trkpt>
      <trkpt lat="42.84037" lon="0.66144">
        <ele>2024.4</ele>
        <time>2018-11-24T23:11:47Z</time>
      </trkpt>
      <trkpt lat="42.84035" lon="0.66143">
        <ele>2024.1</ele>
        <time>2018-11-24T23:11:48Z</time>
      </trkpt>
      <trkpt lat="42.84033" lon="0.66141">
        <ele>2023.9</ele>
        <time>2018-11-24T23:11:49Z</time>
      </trkpt>
      <trkpt lat="42.8403" lon="0.66139">
        <ele>2023.7</ele>
        <time>2018-11-24T23:11:50Z</time>
      </trkpt>
      <trkpt lat="42.84028" lon="0.66136">
        <ele>2023.5</ele>
        <time>2018-11-24T23:11:51Z</time>
      </trkpt>
      <trkpt lat="42.84026" lon="0.66134">
        <ele>2023.4</ele>
        <time>2018-11-24T23:11:52Z</time>
      </trkpt>
      <trkpt lat="42.84024" lon="0.66132">
        <ele>2016.6</ele>
        <time>2018-11-24T23:11:53Z</time>
      </trkpt>
      <trkpt lat="42.84022" lon="0.66129">
        <ele>2016.6</ele>
        <time>2018-11-24T23:11:54Z</time>
      </trkpt>
      <trkpt lat="42.8402" lon="0.66126">
        <ele>2016.6</ele>
        <time>2018-11-24T23:11:55Z</time>
      </trkpt>
      <trkpt lat="42.84018" lon="0.66123">
        <ele>2016.6</ele>
        <time>2018-11-24T23:11:57Z</time>
      </trkpt>
      <trkpt lat="42.84016" lon="0.6612">
        <ele>2016.6</ele>
        <time>2018-11-24T23:11:58Z</time>
      </trkpt>
      <trkpt lat="42.84014" lon="0.66118">
        <ele>2016.6</ele>
        <time>2018-11-24T23:11:59Z</time>
      </trkpt>
      <trkpt lat="42.84011" lon="0.66116">
        <ele>2016.6</ele>
        <time>2018-11-24T23:12:00Z</time>
      </trkpt>
      <trkpt lat="42.84009" lon="0.66114">
        <ele>2016.6</ele>
        <time>2018-11-24T23:12:01Z</time>
      </trkpt>
      <trkpt lat="42.84007" lon="0.66112">
        <ele>2016.6</ele>
        <time>2018-11-24T23:12:02Z</time>
      </trkpt>
      <trkpt lat="42.84005" lon="0.66111">
        <ele>2016.6</ele>
        <time>2018-11-24T23:12:03Z</time>
      </trkpt>
      <trkpt lat="42.84004" lon="0.66108">
        <ele>2016.6</ele>
        <time>2018-11-24T23:12:04Z</time>
      </trkpt>
      <trkpt lat="42.84003" lon="0.66105">
        <ele>2016.5</ele>
        <time>2018-11-24T23:12:05Z</time>
      </trkpt>
      <trkpt lat="42.84002" lon="0.66103">
        <ele>2016.5</ele>
        <time>2018-11-24T23:12:06Z</time>
      </trkpt>
      <trkpt lat="42.84001" lon="0.66101">
        <ele>2016.6</ele>
        <time>2018-11-24T23:12:06Z</time>
      </trkpt>
      <trkpt lat="42.83998" lon="0.66097">
        <ele>2016.5</ele>
        <time>2018-11-24T23:12:08Z</time>
      </trkpt>
      <trkpt lat="42.83997" lon="0.66095">
        <ele>2016.5</ele>
        <time>2018-11-24T23:12:09Z</time>
      </trkpt>
      <trkpt lat="42.83995" lon="0.66094">
        <ele>2016.4</ele>
        <time>2018-11-24T23:12:10Z</time>
      </trkpt>
      <trkpt lat="42.83992" lon="0.66092">
        <ele>2016.5</ele>
        <time>2018-11-24T23:12:11Z</time>
      </trkpt>
      <trkpt lat="42.8399" lon="0.66091">
        <ele>2016.5</ele>
        <time>2018-11-24T23:12:12Z</time>
      </trkpt>
      <trkpt lat="42.83989" lon="0.66089">
        <ele>2016.5</ele>
        <time>2018-11-24T23:12:12Z</time>
      </trkpt>
      <trkpt lat="42.83987" lon="0.66088">
        <ele>2016.6</ele>
        <time>2018-11-24T23:12:13Z</time>
      </trkpt>
      <trkpt lat="42.83985" lon="0.66086">
        <ele>2016.5</ele>
        <time>2018-11-24T23:12:14Z</time>
      </trkpt>
      <trkpt lat="42.83984" lon="0.66085">
        <ele>2016.6</ele>
        <time>2018-11-24T23:12:15Z</time>
      </trkpt>
      <trkpt lat="42.83982" lon="0.66083">
        <ele>2016.5</ele>
        <time>2018-11-24T23:12:16Z</time>
      </trkpt>
      <trkpt lat="42.8398" lon="0.66081">
        <ele>2016.5</ele>
        <time>2018-11-24T23:12:16Z</time>
      </trkpt>
      <trkpt lat="42.83979" lon="0.66079">
        <ele>2016.4</ele>
        <time>2018-11-24T23:12:17Z</time>
      </trkpt>
      <trkpt lat="42.83978" lon="0.66076">
        <ele>2016.4</ele>
        <time>2018-11-24T23:12:18Z</time>
      </trkpt>
      <trkpt lat="42.83977" lon="0.66073">
        <ele>2016.5</ele>
        <time>2018-11-24T23:12:19Z</time>
      </trkpt>
      <trkpt lat="42.83975" lon="0.66071">
        <ele>2016.4</ele>
        <time>2018-11-24T23:12:20Z</time>
      </trkpt>
      <trkpt lat="42.83973" lon="0.66069">
        <ele>2016.5</ele>
        <time>2018-11-24T23:12:21Z</time>
      </trkpt>
      <trkpt lat="42.83971" lon="0.66067">
        <ele>2016.5</ele>
        <time>2018-11-24T23:12:22Z</time>
      </trkpt>
      <trkpt lat="42.83969" lon="0.66065">
        <ele>2016.6</ele>
        <time>2018-11-24T23:12:23Z</time>
      </trkpt>
      <trkpt lat="42.83967" lon="0.66064">
        <ele>2016.6</ele>
        <time>2018-11-24T23:12:24Z</time>
      </trkpt>
      <trkpt lat="42.83965" lon="0.66063">
        <ele>2016.6</ele>
        <time>2018-11-24T23:12:25Z</time>
      </trkpt>
      <trkpt lat="42.83963" lon="0.66061">
        <ele>2016.6</ele>
        <time>2018-11-24T23:12:26Z</time>
      </trkpt>
      <trkpt lat="42.83961" lon="0.6606">
        <ele>2016.7</ele>
        <time>2018-11-24T23:12:27Z</time>
      </trkpt>
      <trkpt lat="42.83959" lon="0.66058">
        <ele>2016.8</ele>
        <time>2018-11-24T23:12:28Z</time>
      </trkpt>
      <trkpt lat="42.83957" lon="0.66057">
        <ele>2017</ele>
        <time>2018-11-24T23:12:29Z</time>
      </trkpt>
      <trkpt lat="42.83954" lon="0.66055">
        <ele>2017.1</ele>
        <time>2018-11-24T23:12:30Z</time>
      </trkpt>
      <trkpt lat="42.83952" lon="0.66054">
        <ele>2017.1</ele>
        <time>2018-11-24T23:12:31Z</time>
      </trkpt>
      <trkpt lat="42.8395" lon="0.66053">
        <ele>2017.3</ele>
        <time>2018-11-24T23:12:32Z</time>
      </trkpt>
      <trkpt lat="42.83947" lon="0.66051">
        <ele>2017.4</ele>
        <time>2018-11-24T23:12:33Z</time>
      </trkpt>
      <trkpt lat="42.83945" lon="0.66049">
        <ele>2017.8</ele>
        <time>2018-11-24T23:12:34Z</time>
      </trkpt>
      <trkpt lat="42.83943" lon="0.66048">
        <ele>2017.9</ele>
        <time>2018-11-24T23:12:35Z</time>
      </trkpt>
      <trkpt lat="42.83941" lon="0.66046">
        <ele>2018.2</ele>
        <time>2018-11-24T23:12:36Z</time>
      </trkpt>
      <trkpt lat="42.83938" lon="0.66044">
        <ele>2018.5</ele>
        <time>2018-11-24T23:12:37Z</time>
      </trkpt>
      <trkpt lat="42.83937" lon="0.66042">
        <ele>2018.8</ele>
        <time>2018-11-24T23:12:38Z</time>
      </trkpt>
      <trkpt lat="42.83935" lon="0.6604">
        <ele>2019.1</ele>
        <time>2018-11-24T23:12:39Z</time>
      </trkpt>
      <trkpt lat="42.83934" lon="0.66037">
        <ele>2019.4</ele>
        <time>2018-11-24T23:12:40Z</time>
      </trkpt>
      <trkpt lat="42.83933" lon="0.66035">
        <ele>2019.8</ele>
        <time>2018-11-24T23:12:40Z</time>
      </trkpt>
      <trkpt lat="42.83931" lon="0.66033">
        <ele>2019.9</ele>
        <time>2018-11-24T23:12:41Z</time>
      </trkpt>
      <trkpt lat="42.83929" lon="0.66031">
        <ele>2019.4</ele>
        <time>2018-11-24T23:12:42Z</time>
      </trkpt>
      <trkpt lat="42.83928" lon="0.6603">
        <ele>2018.9</ele>
        <time>2018-11-24T23:12:43Z</time>
      </trkpt>
      <trkpt lat="42.83926" lon="0.66028">
        <ele>2018.3</ele>
        <time>2018-11-24T23:12:44Z</time>
      </trkpt>
      <trkpt lat="42.83924" lon="0.66026">
        <ele>2017.9</ele>
        <time>2018-11-24T23:12:45Z</time>
      </trkpt>
      <trkpt lat="42.83922" lon="0.66025">
        <ele>2017.5</ele>
        <time>2018-11-24T23:12:46Z</time>
      </trkpt>
      <trkpt lat="42.8392" lon="0.66023">
        <ele>2017</ele>
        <time>2018-11-24T23:12:47Z</time>
      </trkpt>
      <trkpt lat="42.83917" lon="0.66022">
        <ele>2016.4</ele>
        <time>2018-11-24T23:12:48Z</time>
      </trkpt>
      <trkpt lat="42.83915" lon="0.6602">
        <ele>2015.9</ele>
        <time>2018-11-24T23:12:49Z</time>
      </trkpt>
      <trkpt lat="42.83913" lon="0.66019">
        <ele>2015.5</ele>
        <time>2018-11-24T23:12:50Z</time>
      </trkpt>
      <trkpt lat="42.8391" lon="0.66018">
        <ele>2015</ele>
        <time>2018-11-24T23:12:51Z</time>
      </trkpt>
      <trkpt lat="42.83908" lon="0.66016">
        <ele>2014.5</ele>
        <time>2018-11-24T23:12:52Z</time>
      </trkpt>
      <trkpt lat="42.83905" lon="0.66015">
        <ele>2014</ele>
        <time>2018-11-24T23:12:53Z</time>
      </trkpt>
      <trkpt lat="42.83903" lon="0.66013">
        <ele>2013.5</ele>
        <time>2018-11-24T23:12:54Z</time>
      </trkpt>
      <trkpt lat="42.83901" lon="0.66011">
        <ele>2013.1</ele>
        <time>2018-11-24T23:12:55Z</time>
      </trkpt>
      <trkpt lat="42.83899" lon="0.66009">
        <ele>2012.6</ele>
        <time>2018-11-24T23:12:56Z</time>
      </trkpt>
      <trkpt lat="42.83897" lon="0.66008">
        <ele>2012.2</ele>
        <time>2018-11-24T23:12:57Z</time>
      </trkpt>
      <trkpt lat="42.83895" lon="0.66008">
        <ele>2011.8</ele>
        <time>2018-11-24T23:12:58Z</time>
      </trkpt>
      <trkpt lat="42.83893" lon="0.66007">
        <ele>2008.6</ele>
        <time>2018-11-24T23:12:59Z</time>
      </trkpt>
      <trkpt lat="42.83891" lon="0.66006">
        <ele>2009</ele>
        <time>2018-11-24T23:12:59Z</time>
      </trkpt>
      <trkpt lat="42.83889" lon="0.66005">
        <ele>2009.3</ele>
        <time>2018-11-24T23:13:00Z</time>
      </trkpt>
      <trkpt lat="42.83887" lon="0.66004">
        <ele>2009.7</ele>
        <time>2018-11-24T23:13:01Z</time>
      </trkpt>
      <trkpt lat="42.83885" lon="0.66003">
        <ele>2009.8</ele>
        <time>2018-11-24T23:13:02Z</time>
      </trkpt>
      <trkpt lat="42.83883" lon="0.66001">
        <ele>2009.2</ele>
        <time>2018-11-24T23:13:03Z</time>
      </trkpt>
      <trkpt lat="42.83881" lon="0.66">
        <ele>2008.7</ele>
        <time>2018-11-24T23:13:04Z</time>
      </trkpt>
      <trkpt lat="42.83879" lon="0.65999">
        <ele>2008.1</ele>
        <time>2018-11-24T23:13:05Z</time>
      </trkpt>
      <trkpt lat="42.83877" lon="0.65998">
        <ele>2007.6</ele>
        <time>2018-11-24T23:13:05Z</time>
      </trkpt>
      <trkpt lat="42.83875" lon="0.65996">
        <ele>2007.1</ele>
        <time>2018-11-24T23:13:06Z</time>
      </trkpt>
      <trkpt lat="42.83871" lon="0.65994">
        <ele>2006.3</ele>
        <time>2018-11-24T23:13:08Z</time>
      </trkpt>
      <trkpt lat="42.83869" lon="0.65993">
        <ele>2005.8</ele>
        <time>2018-11-24T23:13:09Z</time>
      </trkpt>
      <trkpt lat="42.83867" lon="0.65992">
        <ele>2005.5</ele>
        <time>2018-11-24T23:13:10Z</time>
      </trkpt>
      <trkpt lat="42.83865" lon="0.65991">
        <ele>2004.9</ele>
        <time>2018-11-24T23:13:11Z</time>
      </trkpt>
      <trkpt lat="42.83861" lon="0.65989">
        <ele>2004.1</ele>
        <time>2018-11-24T23:13:12Z</time>
      </trkpt>
      <trkpt lat="42.8386" lon="0.65988">
        <ele>2003.6</ele>
        <time>2018-11-24T23:13:13Z</time>
      </trkpt>
      <trkpt lat="42.83858" lon="0.65986">
        <ele>2003.3</ele>
        <time>2018-11-24T23:13:14Z</time>
      </trkpt>
      <trkpt lat="42.83856" lon="0.65985">
        <ele>2003</ele>
        <time>2018-11-24T23:13:14Z</time>
      </trkpt>
      <trkpt lat="42.83855" lon="0.65984">
        <ele>2002.5</ele>
        <time>2018-11-24T23:13:15Z</time>
      </trkpt>
      <trkpt lat="42.83852" lon="0.65982">
        <ele>2002</ele>
        <time>2018-11-24T23:13:17Z</time>
      </trkpt>
      <trkpt lat="42.8385" lon="0.65981">
        <ele>2001.5</ele>
        <time>2018-11-24T23:13:17Z</time>
      </trkpt>
      <trkpt lat="42.83848" lon="0.65979">
        <ele>1998.9</ele>
        <time>2018-11-24T23:13:18Z</time>
      </trkpt>
      <trkpt lat="42.83846" lon="0.65978">
        <ele>1999.3</ele>
        <time>2018-11-24T23:13:19Z</time>
      </trkpt>
      <trkpt lat="42.83844" lon="0.65977">
        <ele>1999.8</ele>
        <time>2018-11-24T23:13:20Z</time>
      </trkpt>
      <trkpt lat="42.83842" lon="0.65977">
        <ele>1999.8</ele>
        <time>2018-11-24T23:13:21Z</time>
      </trkpt>
      <trkpt lat="42.83839" lon="0.65975">
        <ele>1999.1</ele>
        <time>2018-11-24T23:13:22Z</time>
      </trkpt>
      <trkpt lat="42.83836" lon="0.65972">
        <ele>1998.5</ele>
        <time>2018-11-24T23:13:24Z</time>
      </trkpt>
      <trkpt lat="42.83835" lon="0.6597">
        <ele>1998</ele>
        <time>2018-11-24T23:13:24Z</time>
      </trkpt>
      <trkpt lat="42.83832" lon="0.65969">
        <ele>1997.4</ele>
        <time>2018-11-24T23:13:25Z</time>
      </trkpt>
      <trkpt lat="42.83829" lon="0.65967">
        <ele>1996.9</ele>
        <time>2018-11-24T23:13:27Z</time>
      </trkpt>
      <trkpt lat="42.83827" lon="0.65967">
        <ele>1996.3</ele>
        <time>2018-11-24T23:13:27Z</time>
      </trkpt>
      <trkpt lat="42.83826" lon="0.65965">
        <ele>1995.9</ele>
        <time>2018-11-24T23:13:28Z</time>
      </trkpt>
      <trkpt lat="42.83824" lon="0.65963">
        <ele>1995.6</ele>
        <time>2018-11-24T23:13:29Z</time>
      </trkpt>
      <trkpt lat="42.83823" lon="0.65961">
        <ele>1995.3</ele>
        <time>2018-11-24T23:13:30Z</time>
      </trkpt>
      <trkpt lat="42.83821" lon="0.65959">
        <ele>1995</ele>
        <time>2018-11-24T23:13:31Z</time>
      </trkpt>
      <trkpt lat="42.83819" lon="0.65956">
        <ele>1994.7</ele>
        <time>2018-11-24T23:13:32Z</time>
      </trkpt>
      <trkpt lat="42.83817" lon="0.65955">
        <ele>1994.3</ele>
        <time>2018-11-24T23:13:33Z</time>
      </trkpt>
      <trkpt lat="42.83816" lon="0.65953">
        <ele>1993.9</ele>
        <time>2018-11-24T23:13:34Z</time>
      </trkpt>
      <trkpt lat="42.83814" lon="0.65951">
        <ele>1993.7</ele>
        <time>2018-11-24T23:13:35Z</time>
      </trkpt>
      <trkpt lat="42.83812" lon="0.65949">
        <ele>1993.3</ele>
        <time>2018-11-24T23:13:36Z</time>
      </trkpt>
      <trkpt lat="42.83809" lon="0.65947">
        <ele>1992.8</ele>
        <time>2018-11-24T23:13:37Z</time>
      </trkpt>
      <trkpt lat="42.83807" lon="0.65944">
        <ele>1992.4</ele>
        <time>2018-11-24T23:13:38Z</time>
      </trkpt>
      <trkpt lat="42.83805" lon="0.65942">
        <ele>1991.9</ele>
        <time>2018-11-24T23:13:39Z</time>
      </trkpt>
      <trkpt lat="42.83803" lon="0.6594">
        <ele>1991.4</ele>
        <time>2018-11-24T23:13:40Z</time>
      </trkpt>
      <trkpt lat="42.838" lon="0.65938">
        <ele>1991.1</ele>
        <time>2018-11-24T23:13:41Z</time>
      </trkpt>
      <trkpt lat="42.83798" lon="0.65937">
        <ele>1990.6</ele>
        <time>2018-11-24T23:13:42Z</time>
      </trkpt>
      <trkpt lat="42.83795" lon="0.65936">
        <ele>1990.1</ele>
        <time>2018-11-24T23:13:43Z</time>
      </trkpt>
      <trkpt lat="42.83793" lon="0.65935">
        <ele>1989.5</ele>
        <time>2018-11-24T23:13:44Z</time>
      </trkpt>
      <trkpt lat="42.8379" lon="0.65936">
        <ele>1988.8</ele>
        <time>2018-11-24T23:13:45Z</time>
      </trkpt>
      <trkpt lat="42.83787" lon="0.65936">
        <ele>1988.3</ele>
        <time>2018-11-24T23:13:47Z</time>
      </trkpt>
      <trkpt lat="42.83785" lon="0.65936">
        <ele>1987.7</ele>
        <time>2018-11-24T23:13:47Z</time>
      </trkpt>
      <trkpt lat="42.83783" lon="0.65934">
        <ele>1987.4</ele>
        <time>2018-11-24T23:13:48Z</time>
      </trkpt>
      <trkpt lat="42.83782" lon="0.65933">
        <ele>1987.1</ele>
        <time>2018-11-24T23:13:49Z</time>
      </trkpt>
      <trkpt lat="42.83779" lon="0.6593">
        <ele>1986.6</ele>
        <time>2018-11-24T23:13:51Z</time>
      </trkpt>
      <trkpt lat="42.83776" lon="0.65927">
        <ele>1986.2</ele>
        <time>2018-11-24T23:13:52Z</time>
      </trkpt>
      <trkpt lat="42.83774" lon="0.65925">
        <ele>1985.8</ele>
        <time>2018-11-24T23:13:53Z</time>
      </trkpt>
      <trkpt lat="42.83772" lon="0.65924">
        <ele>1985.3</ele>
        <time>2018-11-24T23:13:54Z</time>
      </trkpt>
      <trkpt lat="42.8377" lon="0.65923">
        <ele>1985.1</ele>
        <time>2018-11-24T23:13:55Z</time>
      </trkpt>
      <trkpt lat="42.83767" lon="0.65921">
        <ele>1984.6</ele>
        <time>2018-11-24T23:13:56Z</time>
      </trkpt>
      <trkpt lat="42.83765" lon="0.6592">
        <ele>1984.2</ele>
        <time>2018-11-24T23:13:57Z</time>
      </trkpt>
      <trkpt lat="42.83762" lon="0.65919">
        <ele>1983.7</ele>
        <time>2018-11-24T23:13:58Z</time>
      </trkpt>
      <trkpt lat="42.8376" lon="0.65918">
        <ele>1983.1</ele>
        <time>2018-11-24T23:13:59Z</time>
      </trkpt>
      <trkpt lat="42.83757" lon="0.65916">
        <ele>1982.7</ele>
        <time>2018-11-24T23:14:00Z</time>
      </trkpt>
      <trkpt lat="42.83754" lon="0.65915">
        <ele>1982.1</ele>
        <time>2018-11-24T23:14:01Z</time>
      </trkpt>
      <trkpt lat="42.83751" lon="0.65914">
        <ele>1981.6</ele>
        <time>2018-11-24T23:14:03Z</time>
      </trkpt>
      <trkpt lat="42.83748" lon="0.65913">
        <ele>1981</ele>
        <time>2018-11-24T23:14:04Z</time>
      </trkpt>
      <trkpt lat="42.83745" lon="0.65913">
        <ele>1980.5</ele>
        <time>2018-11-24T23:14:05Z</time>
      </trkpt>
      <trkpt lat="42.83741" lon="0.65912">
        <ele>1980.4</ele>
        <time>2018-11-24T23:14:07Z</time>
      </trkpt>
      <trkpt lat="42.83738" lon="0.65912">
        <ele>1980.8</ele>
        <time>2018-11-24T23:14:08Z</time>
      </trkpt>
      <trkpt lat="42.83736" lon="0.65911">
        <ele>1981.2</ele>
        <time>2018-11-24T23:14:09Z</time>
      </trkpt>
      <trkpt lat="42.83734" lon="0.6591">
        <ele>1981.4</ele>
        <time>2018-11-24T23:14:10Z</time>
      </trkpt>
      <trkpt lat="42.83731" lon="0.65909">
        <ele>1978.4</ele>
        <time>2018-11-24T23:14:11Z</time>
      </trkpt>
      <trkpt lat="42.83729" lon="0.65908">
        <ele>1978.1</ele>
        <time>2018-11-24T23:14:12Z</time>
      </trkpt>
      <trkpt lat="42.83726" lon="0.65908">
        <ele>1977.7</ele>
        <time>2018-11-24T23:14:13Z</time>
      </trkpt>
      <trkpt lat="42.83724" lon="0.65907">
        <ele>1977.5</ele>
        <time>2018-11-24T23:14:14Z</time>
      </trkpt>
      <trkpt lat="42.83722" lon="0.65906">
        <ele>1977.2</ele>
        <time>2018-11-24T23:14:15Z</time>
      </trkpt>
      <trkpt lat="42.83719" lon="0.65905">
        <ele>1976.9</ele>
        <time>2018-11-24T23:14:16Z</time>
      </trkpt>
      <trkpt lat="42.83717" lon="0.65903">
        <ele>1976.8</ele>
        <time>2018-11-24T23:14:17Z</time>
      </trkpt>
      <trkpt lat="42.83714" lon="0.65902">
        <ele>1976.4</ele>
        <time>2018-11-24T23:14:18Z</time>
      </trkpt>
      <trkpt lat="42.83711" lon="0.65902">
        <ele>1976.1</ele>
        <time>2018-11-24T23:14:19Z</time>
      </trkpt>
      <trkpt lat="42.83708" lon="0.65902">
        <ele>1975.7</ele>
        <time>2018-11-24T23:14:20Z</time>
      </trkpt>
      <trkpt lat="42.83705" lon="0.65901">
        <ele>1975.4</ele>
        <time>2018-11-24T23:14:21Z</time>
      </trkpt>
      <trkpt lat="42.83703" lon="0.65901">
        <ele>1975.4</ele>
        <time>2018-11-24T23:14:22Z</time>
      </trkpt>
      <trkpt lat="42.83702" lon="0.65899">
        <ele>1975.3</ele>
        <time>2018-11-24T23:14:23Z</time>
      </trkpt>
      <trkpt lat="42.83702" lon="0.65895">
        <ele>1975.4</ele>
        <time>2018-11-24T23:14:24Z</time>
      </trkpt>
      <trkpt lat="42.83701" lon="0.65898">
        <ele>1975.1</ele>
        <time>2018-11-24T23:14:25Z</time>
      </trkpt>
      <trkpt lat="42.83699" lon="0.65898">
        <ele>1975.1</ele>
        <time>2018-11-24T23:14:26Z</time>
      </trkpt>
      <trkpt lat="42.83697" lon="0.659">
        <ele>1974.7</ele>
        <time>2018-11-24T23:14:27Z</time>
      </trkpt>
      <trkpt lat="42.83693" lon="0.65899">
        <ele>1974.5</ele>
        <time>2018-11-24T23:14:28Z</time>
      </trkpt>
      <trkpt lat="42.8369" lon="0.65898">
        <ele>1974.4</ele>
        <time>2018-11-24T23:14:30Z</time>
      </trkpt>
      <trkpt lat="42.83688" lon="0.65896">
        <ele>1974.3</ele>
        <time>2018-11-24T23:14:31Z</time>
      </trkpt>
      <trkpt lat="42.83685" lon="0.65896">
        <ele>1974.1</ele>
        <time>2018-11-24T23:14:32Z</time>
      </trkpt>
      <trkpt lat="42.83682" lon="0.65895">
        <ele>1974</ele>
        <time>2018-11-24T23:14:33Z</time>
      </trkpt>
      <trkpt lat="42.83679" lon="0.65894">
        <ele>1973.9</ele>
        <time>2018-11-24T23:14:34Z</time>
      </trkpt>
      <trkpt lat="42.83677" lon="0.65893">
        <ele>1970.1</ele>
        <time>2018-11-24T23:14:35Z</time>
      </trkpt>
      <trkpt lat="42.83674" lon="0.65892">
        <ele>1970.1</ele>
        <time>2018-11-24T23:14:36Z</time>
      </trkpt>
      <trkpt lat="42.83671" lon="0.65891">
        <ele>1970.1</ele>
        <time>2018-11-24T23:14:38Z</time>
      </trkpt>
      <trkpt lat="42.83669" lon="0.6589">
        <ele>1970</ele>
        <time>2018-11-24T23:14:39Z</time>
      </trkpt>
      <trkpt lat="42.83666" lon="0.6589">
        <ele>1970</ele>
        <time>2018-11-24T23:14:40Z</time>
      </trkpt>
      <trkpt lat="42.83664" lon="0.6589">
        <ele>1970</ele>
        <time>2018-11-24T23:14:41Z</time>
      </trkpt>
      <trkpt lat="42.83661" lon="0.6589">
        <ele>1970</ele>
        <time>2018-11-24T23:14:42Z</time>
      </trkpt>
      <trkpt lat="42.83659" lon="0.6589">
        <ele>1970</ele>
        <time>2018-11-24T23:14:43Z</time>
      </trkpt>
      <trkpt lat="42.83657" lon="0.6589">
        <ele>1970.1</ele>
        <time>2018-11-24T23:14:43Z</time>
      </trkpt>
      <trkpt lat="42.83654" lon="0.65891">
        <ele>1970</ele>
        <time>2018-11-24T23:14:44Z</time>
      </trkpt>
      <trkpt lat="42.83652" lon="0.65891">
        <ele>1970.1</ele>
        <time>2018-11-24T23:14:45Z</time>
      </trkpt>
      <trkpt lat="42.83649" lon="0.65891">
        <ele>1970.1</ele>
        <time>2018-11-24T23:14:46Z</time>
      </trkpt>
      <trkpt lat="42.83647" lon="0.65891">
        <ele>1970</ele>
        <time>2018-11-24T23:14:47Z</time>
      </trkpt>
      <trkpt lat="42.83645" lon="0.65891">
        <ele>1970.1</ele>
        <time>2018-11-24T23:14:48Z</time>
      </trkpt>
      <trkpt lat="42.83642" lon="0.6589">
        <ele>1970</ele>
        <time>2018-11-24T23:14:49Z</time>
      </trkpt>
      <trkpt lat="42.8364" lon="0.6589">
        <ele>1970</ele>
        <time>2018-11-24T23:14:50Z</time>
      </trkpt>
      <trkpt lat="42.83638" lon="0.6589">
        <ele>1970.1</ele>
        <time>2018-11-24T23:14:51Z</time>
      </trkpt>
      <trkpt lat="42.83636" lon="0.65889">
        <ele>1970</ele>
        <time>2018-11-24T23:14:52Z</time>
      </trkpt>
      <trkpt lat="42.83634" lon="0.65889">
        <ele>1970</ele>
        <time>2018-11-24T23:14:53Z</time>
      </trkpt>
      <trkpt lat="42.83631" lon="0.6589">
        <ele>1970</ele>
        <time>2018-11-24T23:14:54Z</time>
      </trkpt>
      <trkpt lat="42.83629" lon="0.65891">
        <ele>1970.1</ele>
        <time>2018-11-24T23:14:54Z</time>
      </trkpt>
      <trkpt lat="42.83627" lon="0.65892">
        <ele>1970.1</ele>
        <time>2018-11-24T23:14:55Z</time>
      </trkpt>
      <trkpt lat="42.83625" lon="0.65893">
        <ele>1970</ele>
        <time>2018-11-24T23:14:56Z</time>
      </trkpt>
      <trkpt lat="42.83623" lon="0.65893">
        <ele>1970</ele>
        <time>2018-11-24T23:14:57Z</time>
      </trkpt>
      <trkpt lat="42.83621" lon="0.65893">
        <ele>1970</ele>
        <time>2018-11-24T23:14:58Z</time>
      </trkpt>
      <trkpt lat="42.83618" lon="0.65893">
        <ele>1970.1</ele>
        <time>2018-11-24T23:14:59Z</time>
      </trkpt>
      <trkpt lat="42.83615" lon="0.65894">
        <ele>1970</ele>
        <time>2018-11-24T23:15:00Z</time>
      </trkpt>
      <trkpt lat="42.83612" lon="0.65894">
        <ele>1970</ele>
        <time>2018-11-24T23:15:02Z</time>
      </trkpt>
      <trkpt lat="42.8361" lon="0.65895">
        <ele>1970</ele>
        <time>2018-11-24T23:15:02Z</time>
      </trkpt>
      <trkpt lat="42.83608" lon="0.65895">
        <ele>1970</ele>
        <time>2018-11-24T23:15:03Z</time>
      </trkpt>
      <trkpt lat="42.83606" lon="0.65895">
        <ele>1970</ele>
        <time>2018-11-24T23:15:04Z</time>
      </trkpt>
      <trkpt lat="42.83604" lon="0.65896">
        <ele>1970.1</ele>
        <time>2018-11-24T23:15:05Z</time>
      </trkpt>
      <trkpt lat="42.83602" lon="0.65897">
        <ele>1970.1</ele>
        <time>2018-11-24T23:15:06Z</time>
      </trkpt>
      <trkpt lat="42.836" lon="0.65898">
        <ele>1970</ele>
        <time>2018-11-24T23:15:06Z</time>
      </trkpt>
      <trkpt lat="42.83597" lon="0.65899">
        <ele>1970.1</ele>
        <time>2018-11-24T23:15:08Z</time>
      </trkpt>
      <trkpt lat="42.83595" lon="0.65901">
        <ele>1970.1</ele>
        <time>2018-11-24T23:15:09Z</time>
      </trkpt>
      <trkpt lat="42.83593" lon="0.65903">
        <ele>1974.1</ele>
        <time>2018-11-24T23:15:10Z</time>
      </trkpt>
      <trkpt lat="42.83591" lon="0.65904">
        <ele>1974.2</ele>
        <time>2018-11-24T23:15:10Z</time>
      </trkpt>
      <trkpt lat="42.83589" lon="0.65904">
        <ele>1974.4</ele>
        <time>2018-11-24T23:15:11Z</time>
      </trkpt>
      <trkpt lat="42.83586" lon="0.65904">
        <ele>1974.6</ele>
        <time>2018-11-24T23:15:12Z</time>
      </trkpt>
      <trkpt lat="42.83584" lon="0.65904">
        <ele>1974.7</ele>
        <time>2018-11-24T23:15:13Z</time>
      </trkpt>
      <trkpt lat="42.83582" lon="0.65905">
        <ele>1974.9</ele>
        <time>2018-11-24T23:15:14Z</time>
      </trkpt>
      <trkpt lat="42.83579" lon="0.65905">
        <ele>1975</ele>
        <time>2018-11-24T23:15:15Z</time>
      </trkpt>
      <trkpt lat="42.83577" lon="0.65905">
        <ele>1975.2</ele>
        <time>2018-11-24T23:15:16Z</time>
      </trkpt>
      <trkpt lat="42.83575" lon="0.65905">
        <ele>1975.6</ele>
        <time>2018-11-24T23:15:17Z</time>
      </trkpt>
      <trkpt lat="42.83572" lon="0.65905">
        <ele>1975.7</ele>
        <time>2018-11-24T23:15:18Z</time>
      </trkpt>
      <trkpt lat="42.8357" lon="0.65905">
        <ele>1976</ele>
        <time>2018-11-24T23:15:19Z</time>
      </trkpt>
      <trkpt lat="42.83568" lon="0.65906">
        <ele>1976</ele>
        <time>2018-11-24T23:15:20Z</time>
      </trkpt>
      <trkpt lat="42.83566" lon="0.65907">
        <ele>1976.4</ele>
        <time>2018-11-24T23:15:21Z</time>
      </trkpt>
      <trkpt lat="42.83564" lon="0.65908">
        <ele>1976.6</ele>
        <time>2018-11-24T23:15:22Z</time>
      </trkpt>
      <trkpt lat="42.83561" lon="0.65909">
        <ele>1976.8</ele>
        <time>2018-11-24T23:15:23Z</time>
      </trkpt>
      <trkpt lat="42.83559" lon="0.65909">
        <ele>1980.1</ele>
        <time>2018-11-24T23:15:24Z</time>
      </trkpt>
      <trkpt lat="42.83557" lon="0.65911">
        <ele>1980.1</ele>
        <time>2018-11-24T23:15:25Z</time>
      </trkpt>
      <trkpt lat="42.83555" lon="0.65912">
        <ele>1980</ele>
        <time>2018-11-24T23:15:25Z</time>
      </trkpt>
      <trkpt lat="42.83553" lon="0.65913">
        <ele>1980</ele>
        <time>2018-11-24T23:15:26Z</time>
      </trkpt>
      <trkpt lat="42.83551" lon="0.65914">
        <ele>1980.1</ele>
        <time>2018-11-24T23:15:27Z</time>
      </trkpt>
      <trkpt lat="42.83549" lon="0.65915">
        <ele>1980</ele>
        <time>2018-11-24T23:15:28Z</time>
      </trkpt>
      <trkpt lat="42.83547" lon="0.65915">
        <ele>1980.1</ele>
        <time>2018-11-24T23:15:29Z</time>
      </trkpt>
      <trkpt lat="42.83544" lon="0.65916">
        <ele>1981.8</ele>
        <time>2018-11-24T23:15:30Z</time>
      </trkpt>
      <trkpt lat="42.83542" lon="0.65917">
        <ele>1981.7</ele>
        <time>2018-11-24T23:15:31Z</time>
      </trkpt>
      <trkpt lat="42.8354" lon="0.65919">
        <ele>1981.5</ele>
        <time>2018-11-24T23:15:32Z</time>
      </trkpt>
      <trkpt lat="42.83538" lon="0.65919">
        <ele>1981.3</ele>
        <time>2018-11-24T23:15:32Z</time>
      </trkpt>
      <trkpt lat="42.83536" lon="0.65919">
        <ele>1980.9</ele>
        <time>2018-11-24T23:15:33Z</time>
      </trkpt>
      <trkpt lat="42.83534" lon="0.65919">
        <ele>1980.7</ele>
        <time>2018-11-24T23:15:34Z</time>
      </trkpt>
      <trkpt lat="42.83532" lon="0.6592">
        <ele>1980.4</ele>
        <time>2018-11-24T23:15:35Z</time>
      </trkpt>
      <trkpt lat="42.83528" lon="0.65921">
        <ele>1980.5</ele>
        <time>2018-11-24T23:15:37Z</time>
      </trkpt>
      <trkpt lat="42.83525" lon="0.65922">
        <ele>1981</ele>
        <time>2018-11-24T23:15:38Z</time>
      </trkpt>
      <trkpt lat="42.83523" lon="0.65922">
        <ele>1981.6</ele>
        <time>2018-11-24T23:15:39Z</time>
      </trkpt>
      <trkpt lat="42.8352" lon="0.65923">
        <ele>1982.1</ele>
        <time>2018-11-24T23:15:40Z</time>
      </trkpt>
      <trkpt lat="42.83518" lon="0.65924">
        <ele>1982.5</ele>
        <time>2018-11-24T23:15:41Z</time>
      </trkpt>
      <trkpt lat="42.83515" lon="0.65925">
        <ele>1983.2</ele>
        <time>2018-11-24T23:15:42Z</time>
      </trkpt>
      <trkpt lat="42.83512" lon="0.65926">
        <ele>1983.7</ele>
        <time>2018-11-24T23:15:43Z</time>
      </trkpt>
      <trkpt lat="42.8351" lon="0.65926">
        <ele>1984.3</ele>
        <time>2018-11-24T23:15:44Z</time>
      </trkpt>
      <trkpt lat="42.83507" lon="0.65927">
        <ele>1984.8</ele>
        <time>2018-11-24T23:15:45Z</time>
      </trkpt>
      <trkpt lat="42.83505" lon="0.65928">
        <ele>1985.2</ele>
        <time>2018-11-24T23:15:46Z</time>
      </trkpt>
      <trkpt lat="42.83502" lon="0.65929">
        <ele>1985.6</ele>
        <time>2018-11-24T23:15:47Z</time>
      </trkpt>
      <trkpt lat="42.835" lon="0.6593">
        <ele>1986.2</ele>
        <time>2018-11-24T23:15:48Z</time>
      </trkpt>
      <trkpt lat="42.83498" lon="0.65931">
        <ele>1986.6</ele>
        <time>2018-11-24T23:15:49Z</time>
      </trkpt>
      <trkpt lat="42.83495" lon="0.65932">
        <ele>1987.1</ele>
        <time>2018-11-24T23:15:50Z</time>
      </trkpt>
      <trkpt lat="42.83493" lon="0.65933">
        <ele>1987.6</ele>
        <time>2018-11-24T23:15:51Z</time>
      </trkpt>
      <trkpt lat="42.8349" lon="0.65933">
        <ele>1988.1</ele>
        <time>2018-11-24T23:15:52Z</time>
      </trkpt>
      <trkpt lat="42.83488" lon="0.65934">
        <ele>1991.6</ele>
        <time>2018-11-24T23:15:53Z</time>
      </trkpt>
      <trkpt lat="42.83486" lon="0.65935">
        <ele>1991.3</ele>
        <time>2018-11-24T23:15:54Z</time>
      </trkpt>
      <trkpt lat="42.83484" lon="0.65935">
        <ele>1990.9</ele>
        <time>2018-11-24T23:15:55Z</time>
      </trkpt>
      <trkpt lat="42.83482" lon="0.65936">
        <ele>1990.4</ele>
        <time>2018-11-24T23:15:56Z</time>
      </trkpt>
      <trkpt lat="42.8348" lon="0.65937">
        <ele>1990.3</ele>
        <time>2018-11-24T23:15:57Z</time>
      </trkpt>
      <trkpt lat="42.83477" lon="0.65938">
        <ele>1991.2</ele>
        <time>2018-11-24T23:15:58Z</time>
      </trkpt>
      <trkpt lat="42.83474" lon="0.65939">
        <ele>1991.8</ele>
        <time>2018-11-24T23:15:59Z</time>
      </trkpt>
      <trkpt lat="42.83472" lon="0.6594">
        <ele>1992.4</ele>
        <time>2018-11-24T23:16:00Z</time>
      </trkpt>
      <trkpt lat="42.8347" lon="0.6594">
        <ele>1993.1</ele>
        <time>2018-11-24T23:16:01Z</time>
      </trkpt>
      <trkpt lat="42.83467" lon="0.6594">
        <ele>1993.8</ele>
        <time>2018-11-24T23:16:02Z</time>
      </trkpt>
      <trkpt lat="42.83465" lon="0.6594">
        <ele>1994.5</ele>
        <time>2018-11-24T23:16:03Z</time>
      </trkpt>
      <trkpt lat="42.83463" lon="0.65941">
        <ele>1995.2</ele>
        <time>2018-11-24T23:16:03Z</time>
      </trkpt>
      <trkpt lat="42.8346" lon="0.65941">
        <ele>1995.9</ele>
        <time>2018-11-24T23:16:04Z</time>
      </trkpt>
      <trkpt lat="42.83458" lon="0.65941">
        <ele>1996.5</ele>
        <time>2018-11-24T23:16:05Z</time>
      </trkpt>
      <trkpt lat="42.83456" lon="0.6594">
        <ele>1996.9</ele>
        <time>2018-11-24T23:16:06Z</time>
      </trkpt>
      <trkpt lat="42.83454" lon="0.6594">
        <ele>1997.7</ele>
        <time>2018-11-24T23:16:07Z</time>
      </trkpt>
      <trkpt lat="42.83451" lon="0.6594">
        <ele>1998.4</ele>
        <time>2018-11-24T23:16:08Z</time>
      </trkpt>
      <trkpt lat="42.8345" lon="0.65939">
        <ele>1998.8</ele>
        <time>2018-11-24T23:16:09Z</time>
      </trkpt>
      <trkpt lat="42.83448" lon="0.65938">
        <ele>2000.8</ele>
        <time>2018-11-24T23:16:10Z</time>
      </trkpt>
      <trkpt lat="42.83445" lon="0.65938">
        <ele>2000.1</ele>
        <time>2018-11-24T23:16:11Z</time>
      </trkpt>
      <trkpt lat="42.83443" lon="0.65937">
        <ele>2000.6</ele>
        <time>2018-11-24T23:16:11Z</time>
      </trkpt>
      <trkpt lat="42.83441" lon="0.65936">
        <ele>2001.4</ele>
        <time>2018-11-24T23:16:12Z</time>
      </trkpt>
      <trkpt lat="42.83439" lon="0.65936">
        <ele>2002.3</ele>
        <time>2018-11-24T23:16:13Z</time>
      </trkpt>
      <trkpt lat="42.83437" lon="0.65936">
        <ele>2003</ele>
        <time>2018-11-24T23:16:14Z</time>
      </trkpt>
      <trkpt lat="42.83435" lon="0.65936">
        <ele>2003.7</ele>
        <time>2018-11-24T23:16:15Z</time>
      </trkpt>
      <trkpt lat="42.83433" lon="0.65935">
        <ele>2004.3</ele>
        <time>2018-11-24T23:16:16Z</time>
      </trkpt>
      <trkpt lat="42.83431" lon="0.65935">
        <ele>2004.9</ele>
        <time>2018-11-24T23:16:16Z</time>
      </trkpt>
      <trkpt lat="42.83429" lon="0.65935">
        <ele>2005.5</ele>
        <time>2018-11-24T23:16:17Z</time>
      </trkpt>
      <trkpt lat="42.83427" lon="0.65936">
        <ele>2006.3</ele>
        <time>2018-11-24T23:16:18Z</time>
      </trkpt>
      <trkpt lat="42.83425" lon="0.65936">
        <ele>2007.1</ele>
        <time>2018-11-24T23:16:19Z</time>
      </trkpt>
      <trkpt lat="42.83423" lon="0.65936">
        <ele>2007.8</ele>
        <time>2018-11-24T23:16:20Z</time>
      </trkpt>
      <trkpt lat="42.83421" lon="0.65936">
        <ele>2008.3</ele>
        <time>2018-11-24T23:16:21Z</time>
      </trkpt>
      <trkpt lat="42.83419" lon="0.65934">
        <ele>2009</ele>
        <time>2018-11-24T23:16:22Z</time>
      </trkpt>
      <trkpt lat="42.83417" lon="0.65933">
        <ele>2010.4</ele>
        <time>2018-11-24T23:16:22Z</time>
      </trkpt>
      <trkpt lat="42.83414" lon="0.65932">
        <ele>2010.5</ele>
        <time>2018-11-24T23:16:23Z</time>
      </trkpt>
      <trkpt lat="42.83412" lon="0.6593">
        <ele>2011.3</ele>
        <time>2018-11-24T23:16:25Z</time>
      </trkpt>
      <trkpt lat="42.83411" lon="0.65928">
        <ele>2011.7</ele>
        <time>2018-11-24T23:16:25Z</time>
      </trkpt>
      <trkpt lat="42.83409" lon="0.65927">
        <ele>2012.1</ele>
        <time>2018-11-24T23:16:26Z</time>
      </trkpt>
      <trkpt lat="42.83407" lon="0.65925">
        <ele>2013</ele>
        <time>2018-11-24T23:16:27Z</time>
      </trkpt>
      <trkpt lat="42.83404" lon="0.65924">
        <ele>2013.9</ele>
        <time>2018-11-24T23:16:28Z</time>
      </trkpt>
      <trkpt lat="42.83402" lon="0.65924">
        <ele>2014.7</ele>
        <time>2018-11-24T23:16:29Z</time>
      </trkpt>
      <trkpt lat="42.834" lon="0.65923">
        <ele>2015.6</ele>
        <time>2018-11-24T23:16:30Z</time>
      </trkpt>
      <trkpt lat="42.83397" lon="0.65924">
        <ele>2016.4</ele>
        <time>2018-11-24T23:16:31Z</time>
      </trkpt>
      <trkpt lat="42.83395" lon="0.65924">
        <ele>2017.3</ele>
        <time>2018-11-24T23:16:32Z</time>
      </trkpt>
      <trkpt lat="42.83393" lon="0.65924">
        <ele>2018.2</ele>
        <time>2018-11-24T23:16:33Z</time>
      </trkpt>
      <trkpt lat="42.83391" lon="0.65925">
        <ele>2019.1</ele>
        <time>2018-11-24T23:16:34Z</time>
      </trkpt>
      <trkpt lat="42.83389" lon="0.65926">
        <ele>2020.2</ele>
        <time>2018-11-24T23:16:34Z</time>
      </trkpt>
      <trkpt lat="42.83387" lon="0.65926">
        <ele>2020.7</ele>
        <time>2018-11-24T23:16:35Z</time>
      </trkpt>
      <trkpt lat="42.83385" lon="0.65927">
        <ele>2021.5</ele>
        <time>2018-11-24T23:16:36Z</time>
      </trkpt>
      <trkpt lat="42.83383" lon="0.65927">
        <ele>2022.3</ele>
        <time>2018-11-24T23:16:37Z</time>
      </trkpt>
      <trkpt lat="42.83381" lon="0.65928">
        <ele>2023.2</ele>
        <time>2018-11-24T23:16:38Z</time>
      </trkpt>
      <trkpt lat="42.83379" lon="0.65929">
        <ele>2024</ele>
        <time>2018-11-24T23:16:38Z</time>
      </trkpt>
      <trkpt lat="42.83377" lon="0.6593">
        <ele>2024.8</ele>
        <time>2018-11-24T23:16:39Z</time>
      </trkpt>
      <trkpt lat="42.83376" lon="0.6593">
        <ele>2025.5</ele>
        <time>2018-11-24T23:16:40Z</time>
      </trkpt>
      <trkpt lat="42.83374" lon="0.65931">
        <ele>2026.4</ele>
        <time>2018-11-24T23:16:41Z</time>
      </trkpt>
      <trkpt lat="42.83372" lon="0.65933">
        <ele>2027</ele>
        <time>2018-11-24T23:16:42Z</time>
      </trkpt>
      <trkpt lat="42.83371" lon="0.65935">
        <ele>2027.7</ele>
        <time>2018-11-24T23:16:42Z</time>
      </trkpt>
      <trkpt lat="42.83369" lon="0.65935">
        <ele>2028.6</ele>
        <time>2018-11-24T23:16:43Z</time>
      </trkpt>
      <trkpt lat="42.83367" lon="0.65937">
        <ele>2029.5</ele>
        <time>2018-11-24T23:16:44Z</time>
      </trkpt>
      <trkpt lat="42.83365" lon="0.65937">
        <ele>2030.4</ele>
        <time>2018-11-24T23:16:45Z</time>
      </trkpt>
      <trkpt lat="42.83363" lon="0.65935">
        <ele>2031</ele>
        <time>2018-11-24T23:16:46Z</time>
      </trkpt>
      <trkpt lat="42.83361" lon="0.65934">
        <ele>2031.7</ele>
        <time>2018-11-24T23:16:47Z</time>
      </trkpt>
      <trkpt lat="42.83359" lon="0.65934">
        <ele>2032.7</ele>
        <time>2018-11-24T23:16:48Z</time>
      </trkpt>
      <trkpt lat="42.83357" lon="0.65934">
        <ele>2033.3</ele>
        <time>2018-11-24T23:16:48Z</time>
      </trkpt>
      <trkpt lat="42.83355" lon="0.65932">
        <ele>2033.9</ele>
        <time>2018-11-24T23:16:49Z</time>
      </trkpt>
      <trkpt lat="42.83353" lon="0.65931">
        <ele>2034.6</ele>
        <time>2018-11-24T23:16:50Z</time>
      </trkpt>
      <trkpt lat="42.8335" lon="0.6593">
        <ele>2035.6</ele>
        <time>2018-11-24T23:16:51Z</time>
      </trkpt>
      <trkpt lat="42.83349" lon="0.65928">
        <ele>2036</ele>
        <time>2018-11-24T23:16:52Z</time>
      </trkpt>
      <trkpt lat="42.83347" lon="0.65928">
        <ele>2036.6</ele>
        <time>2018-11-24T23:16:53Z</time>
      </trkpt>
      <trkpt lat="42.83345" lon="0.65926">
        <ele>2037.2</ele>
        <time>2018-11-24T23:16:54Z</time>
      </trkpt>
      <trkpt lat="42.83343" lon="0.65926">
        <ele>2037.9</ele>
        <time>2018-11-24T23:16:54Z</time>
      </trkpt>
      <trkpt lat="42.83342" lon="0.65927">
        <ele>2038.7</ele>
        <time>2018-11-24T23:16:55Z</time>
      </trkpt>
      <trkpt lat="42.8334" lon="0.65925">
        <ele>2039.2</ele>
        <time>2018-11-24T23:16:56Z</time>
      </trkpt>
      <trkpt lat="42.83338" lon="0.65924">
        <ele>2039.9</ele>
        <time>2018-11-24T23:16:57Z</time>
      </trkpt>
      <trkpt lat="42.83336" lon="0.65923">
        <ele>2039.9</ele>
        <time>2018-11-24T23:16:58Z</time>
      </trkpt>
      <trkpt lat="42.83333" lon="0.65921">
        <ele>2040.9</ele>
        <time>2018-11-24T23:16:59Z</time>
      </trkpt>
      <trkpt lat="42.83332" lon="0.6592">
        <ele>2041.2</ele>
        <time>2018-11-24T23:17:00Z</time>
      </trkpt>
      <trkpt lat="42.8333" lon="0.65919">
        <ele>2041.9</ele>
        <time>2018-11-24T23:17:00Z</time>
      </trkpt>
      <trkpt lat="42.83328" lon="0.65916">
        <ele>2042.2</ele>
        <time>2018-11-24T23:17:01Z</time>
      </trkpt>
      <trkpt lat="42.83326" lon="0.65915">
        <ele>2042.6</ele>
        <time>2018-11-24T23:17:02Z</time>
      </trkpt>
      <trkpt lat="42.83323" lon="0.65914">
        <ele>2043.2</ele>
        <time>2018-11-24T23:17:03Z</time>
      </trkpt>
      <trkpt lat="42.83321" lon="0.65914">
        <ele>2043.9</ele>
        <time>2018-11-24T23:17:04Z</time>
      </trkpt>
      <trkpt lat="42.83319" lon="0.65913">
        <ele>2044.6</ele>
        <time>2018-11-24T23:17:05Z</time>
      </trkpt>
      <trkpt lat="42.83317" lon="0.65913">
        <ele>2045.2</ele>
        <time>2018-11-24T23:17:06Z</time>
      </trkpt>
      <trkpt lat="42.83315" lon="0.65912">
        <ele>2045.6</ele>
        <time>2018-11-24T23:17:07Z</time>
      </trkpt>
      <trkpt lat="42.83313" lon="0.65912">
        <ele>2046.1</ele>
        <time>2018-11-24T23:17:08Z</time>
      </trkpt>
      <trkpt lat="42.83311" lon="0.65913">
        <ele>2046.9</ele>
        <time>2018-11-24T23:17:08Z</time>
      </trkpt>
      <trkpt lat="42.83309" lon="0.65912">
        <ele>2047.4</ele>
        <time>2018-11-24T23:17:09Z</time>
      </trkpt>
      <trkpt lat="42.83306" lon="0.65911">
        <ele>2047.9</ele>
        <time>2018-11-24T23:17:10Z</time>
      </trkpt>
      <trkpt lat="42.83304" lon="0.65911">
        <ele>2048.5</ele>
        <time>2018-11-24T23:17:11Z</time>
      </trkpt>
      <trkpt lat="42.83303" lon="0.65911">
        <ele>2049</ele>
        <time>2018-11-24T23:17:12Z</time>
      </trkpt>
      <trkpt lat="42.83301" lon="0.65911">
        <ele>2049.6</ele>
        <time>2018-11-24T23:17:13Z</time>
      </trkpt>
      <trkpt lat="42.83298" lon="0.65911">
        <ele>2049.8</ele>
        <time>2018-11-24T23:17:14Z</time>
      </trkpt>
      <trkpt lat="42.83296" lon="0.65912">
        <ele>2049.2</ele>
        <time>2018-11-24T23:17:15Z</time>
      </trkpt>
      <trkpt lat="42.83293" lon="0.65912">
        <ele>2048.8</ele>
        <time>2018-11-24T23:17:16Z</time>
      </trkpt>
      <trkpt lat="42.83291" lon="0.65911">
        <ele>2051.6</ele>
        <time>2018-11-24T23:17:17Z</time>
      </trkpt>
      <trkpt lat="42.83289" lon="0.65911">
        <ele>2052</ele>
        <time>2018-11-24T23:17:18Z</time>
      </trkpt>
      <trkpt lat="42.83287" lon="0.65913">
        <ele>2052.6</ele>
        <time>2018-11-24T23:17:18Z</time>
      </trkpt>
      <trkpt lat="42.83285" lon="0.65914">
        <ele>2053.1</ele>
        <time>2018-11-24T23:17:19Z</time>
      </trkpt>
      <trkpt lat="42.83283" lon="0.65916">
        <ele>2053.7</ele>
        <time>2018-11-24T23:17:20Z</time>
      </trkpt>
      <trkpt lat="42.83283" lon="0.65919">
        <ele>2054.2</ele>
        <time>2018-11-24T23:17:21Z</time>
      </trkpt>
      <trkpt lat="42.83282" lon="0.65921">
        <ele>2054.7</ele>
        <time>2018-11-24T23:17:22Z</time>
      </trkpt>
      <trkpt lat="42.83281" lon="0.65924">
        <ele>2055.3</ele>
        <time>2018-11-24T23:17:23Z</time>
      </trkpt>
      <trkpt lat="42.8328" lon="0.65927">
        <ele>2055.8</ele>
        <time>2018-11-24T23:17:24Z</time>
      </trkpt>
      <trkpt lat="42.83278" lon="0.6593">
        <ele>2056.5</ele>
        <time>2018-11-24T23:17:25Z</time>
      </trkpt>
      <trkpt lat="42.83276" lon="0.65931">
        <ele>2057.1</ele>
        <time>2018-11-24T23:17:26Z</time>
      </trkpt>
      <trkpt lat="42.83275" lon="0.65934">
        <ele>2057.7</ele>
        <time>2018-11-24T23:17:27Z</time>
      </trkpt>
      <trkpt lat="42.83274" lon="0.65936">
        <ele>2058.2</ele>
        <time>2018-11-24T23:17:28Z</time>
      </trkpt>
      <trkpt lat="42.83272" lon="0.65939">
        <ele>2058.9</ele>
        <time>2018-11-24T23:17:29Z</time>
      </trkpt>
      <trkpt lat="42.83271" lon="0.65941">
        <ele>2059.5</ele>
        <time>2018-11-24T23:17:29Z</time>
      </trkpt>
      <trkpt lat="42.83269" lon="0.65943">
        <ele>2060.1</ele>
        <time>2018-11-24T23:17:30Z</time>
      </trkpt>
      <trkpt lat="42.83267" lon="0.65944">
        <ele>2059.7</ele>
        <time>2018-11-24T23:17:31Z</time>
      </trkpt>
      <trkpt lat="42.83265" lon="0.65946">
        <ele>2059.1</ele>
        <time>2018-11-24T23:17:32Z</time>
      </trkpt>
      <trkpt lat="42.83263" lon="0.65947">
        <ele>2058.9</ele>
        <time>2018-11-24T23:17:33Z</time>
      </trkpt>
      <trkpt lat="42.83261" lon="0.65948">
        <ele>2058.5</ele>
        <time>2018-11-24T23:17:34Z</time>
      </trkpt>
      <trkpt lat="42.83259" lon="0.65949">
        <ele>2058.4</ele>
        <time>2018-11-24T23:17:35Z</time>
      </trkpt>
      <trkpt lat="42.83257" lon="0.65951">
        <ele>2058.1</ele>
        <time>2018-11-24T23:17:36Z</time>
      </trkpt>
      <trkpt lat="42.83255" lon="0.65953">
        <ele>2057.9</ele>
        <time>2018-11-24T23:17:37Z</time>
      </trkpt>
      <trkpt lat="42.83253" lon="0.65955">
        <ele>2062.4</ele>
        <time>2018-11-24T23:17:38Z</time>
      </trkpt>
      <trkpt lat="42.83251" lon="0.65957">
        <ele>2062.8</ele>
        <time>2018-11-24T23:17:39Z</time>
      </trkpt>
      <trkpt lat="42.83249" lon="0.6596">
        <ele>2063.3</ele>
        <time>2018-11-24T23:17:40Z</time>
      </trkpt>
      <trkpt lat="42.83247" lon="0.65963">
        <ele>2063.7</ele>
        <time>2018-11-24T23:17:41Z</time>
      </trkpt>
      <trkpt lat="42.83245" lon="0.65965">
        <ele>2063.9</ele>
        <time>2018-11-24T23:17:42Z</time>
      </trkpt>
      <trkpt lat="42.83243" lon="0.65968">
        <ele>2064.4</ele>
        <time>2018-11-24T23:17:43Z</time>
      </trkpt>
      <trkpt lat="42.83241" lon="0.65971">
        <ele>2064.8</ele>
        <time>2018-11-24T23:17:44Z</time>
      </trkpt>
      <trkpt lat="42.83238" lon="0.65973">
        <ele>2065.2</ele>
        <time>2018-11-24T23:17:46Z</time>
      </trkpt>
      <trkpt lat="42.83236" lon="0.65975">
        <ele>2065.5</ele>
        <time>2018-11-24T23:17:47Z</time>
      </trkpt>
      <trkpt lat="42.83234" lon="0.65977">
        <ele>2065.7</ele>
        <time>2018-11-24T23:17:48Z</time>
      </trkpt>
      <trkpt lat="42.83232" lon="0.6598">
        <ele>2066.1</ele>
        <time>2018-11-24T23:17:49Z</time>
      </trkpt>
      <trkpt lat="42.8323" lon="0.65983">
        <ele>2066.4</ele>
        <time>2018-11-24T23:17:50Z</time>
      </trkpt>
      <trkpt lat="42.83228" lon="0.65985">
        <ele>2066.8</ele>
        <time>2018-11-24T23:17:51Z</time>
      </trkpt>
      <trkpt lat="42.83226" lon="0.65987">
        <ele>2067.2</ele>
        <time>2018-11-24T23:17:52Z</time>
      </trkpt>
      <trkpt lat="42.83224" lon="0.6599">
        <ele>2067.6</ele>
        <time>2018-11-24T23:17:53Z</time>
      </trkpt>
      <trkpt lat="42.83222" lon="0.65993">
        <ele>2067.8</ele>
        <time>2018-11-24T23:17:54Z</time>
      </trkpt>
      <trkpt lat="42.8322" lon="0.65995">
        <ele>2068.2</ele>
        <time>2018-11-24T23:17:55Z</time>
      </trkpt>
      <trkpt lat="42.83218" lon="0.65998">
        <ele>2068.5</ele>
        <time>2018-11-24T23:17:57Z</time>
      </trkpt>
      <trkpt lat="42.83216" lon="0.66001">
        <ele>2068.7</ele>
        <time>2018-11-24T23:17:58Z</time>
      </trkpt>
      <trkpt lat="42.83215" lon="0.66004">
        <ele>2069.1</ele>
        <time>2018-11-24T23:17:59Z</time>
      </trkpt>
      <trkpt lat="42.83213" lon="0.66007">
        <ele>2069.6</ele>
        <time>2018-11-24T23:18:00Z</time>
      </trkpt>
      <trkpt lat="42.83211" lon="0.6601">
        <ele>2069.9</ele>
        <time>2018-11-24T23:18:01Z</time>
      </trkpt>
      <trkpt lat="42.83209" lon="0.66013">
        <ele>2069.9</ele>
        <time>2018-11-24T23:18:02Z</time>
      </trkpt>
      <trkpt lat="42.83207" lon="0.66016">
        <ele>2069.6</ele>
        <time>2018-11-24T23:18:03Z</time>
      </trkpt>
      <trkpt lat="42.83206" lon="0.66018">
        <ele>2069.4</ele>
        <time>2018-11-24T23:18:04Z</time>
      </trkpt>
      <trkpt lat="42.83204" lon="0.66021">
        <ele>2069.2</ele>
        <time>2018-11-24T23:18:06Z</time>
      </trkpt>
      <trkpt lat="42.83202" lon="0.66024">
        <ele>2069.1</ele>
        <time>2018-11-24T23:18:07Z</time>
      </trkpt>
      <trkpt lat="42.832" lon="0.66027">
        <ele>2068.9</ele>
        <time>2018-11-24T23:18:08Z</time>
      </trkpt>
      <trkpt lat="42.83198" lon="0.6603">
        <ele>2068.9</ele>
        <time>2018-11-24T23:18:09Z</time>
      </trkpt>
      <trkpt lat="42.83196" lon="0.66033">
        <ele>2068.6</ele>
        <time>2018-11-24T23:18:10Z</time>
      </trkpt>
      <trkpt lat="42.83193" lon="0.66036">
        <ele>2068.7</ele>
        <time>2018-11-24T23:18:12Z</time>
      </trkpt>
      <trkpt lat="42.83191" lon="0.66039">
        <ele>2068.6</ele>
        <time>2018-11-24T23:18:13Z</time>
      </trkpt>
      <trkpt lat="42.8319" lon="0.66041">
        <ele>2068.6</ele>
        <time>2018-11-24T23:18:14Z</time>
      </trkpt>
      <trkpt lat="42.83188" lon="0.66043">
        <ele>2068.4</ele>
        <time>2018-11-24T23:18:14Z</time>
      </trkpt>
      <trkpt lat="42.83187" lon="0.66046">
        <ele>2068.4</ele>
        <time>2018-11-24T23:18:16Z</time>
      </trkpt>
      <trkpt lat="42.83184" lon="0.66049">
        <ele>2068.3</ele>
        <time>2018-11-24T23:18:17Z</time>
      </trkpt>
      <trkpt lat="42.83182" lon="0.66053">
        <ele>2068.4</ele>
        <time>2018-11-24T23:18:18Z</time>
      </trkpt>
      <trkpt lat="42.8318" lon="0.66055">
        <ele>2068.5</ele>
        <time>2018-11-24T23:18:19Z</time>
      </trkpt>
      <trkpt lat="42.83179" lon="0.66057">
        <ele>2068.6</ele>
        <time>2018-11-24T23:18:20Z</time>
      </trkpt>
      <trkpt lat="42.83177" lon="0.66059">
        <ele>2068.7</ele>
        <time>2018-11-24T23:18:21Z</time>
      </trkpt>
      <trkpt lat="42.83175" lon="0.66062">
        <ele>2068.8</ele>
        <time>2018-11-24T23:18:22Z</time>
      </trkpt>
      <trkpt lat="42.83172" lon="0.66065">
        <ele>2069.3</ele>
        <time>2018-11-24T23:18:24Z</time>
      </trkpt>
      <trkpt lat="42.8317" lon="0.66067">
        <ele>2069.8</ele>
        <time>2018-11-24T23:18:25Z</time>
      </trkpt>
      <trkpt lat="42.83168" lon="0.6607">
        <ele>2069.6</ele>
        <time>2018-11-24T23:18:26Z</time>
      </trkpt>
      <trkpt lat="42.83166" lon="0.66073">
        <ele>2068.9</ele>
        <time>2018-11-24T23:18:27Z</time>
      </trkpt>
      <trkpt lat="42.83163" lon="0.66075">
        <ele>2068.2</ele>
        <time>2018-11-24T23:18:28Z</time>
      </trkpt>
      <trkpt lat="42.8316" lon="0.66078">
        <ele>2067.1</ele>
        <time>2018-11-24T23:18:30Z</time>
      </trkpt>
      <trkpt lat="42.83158" lon="0.66079">
        <ele>2066.6</ele>
        <time>2018-11-24T23:18:31Z</time>
      </trkpt>
      <trkpt lat="42.83156" lon="0.6608">
        <ele>2066.2</ele>
        <time>2018-11-24T23:18:32Z</time>
      </trkpt>
      <trkpt lat="42.83154" lon="0.66082">
        <ele>2065.6</ele>
        <time>2018-11-24T23:18:33Z</time>
      </trkpt>
      <trkpt lat="42.83152" lon="0.66081">
        <ele>2065.4</ele>
        <time>2018-11-24T23:18:33Z</time>
      </trkpt>
      <trkpt lat="42.83151" lon="0.66077">
        <ele>2065.5</ele>
        <time>2018-11-24T23:18:35Z</time>
      </trkpt>
      <trkpt lat="42.83149" lon="0.66074">
        <ele>2065.5</ele>
        <time>2018-11-24T23:18:36Z</time>
      </trkpt>
      <trkpt lat="42.83148" lon="0.66071">
        <ele>2065.4</ele>
        <time>2018-11-24T23:18:37Z</time>
      </trkpt>
      <trkpt lat="42.83147" lon="0.66069">
        <ele>2065.3</ele>
        <time>2018-11-24T23:18:38Z</time>
      </trkpt>
      <trkpt lat="42.83145" lon="0.66067">
        <ele>2064.9</ele>
        <time>2018-11-24T23:18:38Z</time>
      </trkpt>
      <trkpt lat="42.83143" lon="0.66067">
        <ele>2064.5</ele>
        <time>2018-11-24T23:18:39Z</time>
      </trkpt>
      <trkpt lat="42.8314" lon="0.66066">
        <ele>2064</ele>
        <time>2018-11-24T23:18:40Z</time>
      </trkpt>
      <trkpt lat="42.83139" lon="0.66067">
        <ele>2063.6</ele>
        <time>2018-11-24T23:18:41Z</time>
      </trkpt>
      <trkpt lat="42.83136" lon="0.66068">
        <ele>2063</ele>
        <time>2018-11-24T23:18:42Z</time>
      </trkpt>
      <trkpt lat="42.83133" lon="0.66069">
        <ele>2062.3</ele>
        <time>2018-11-24T23:18:43Z</time>
      </trkpt>
      <trkpt lat="42.83129" lon="0.66069">
        <ele>2058.3</ele>
        <time>2018-11-24T23:18:45Z</time>
      </trkpt>
      <trkpt lat="42.83127" lon="0.66066">
        <ele>2058.7</ele>
        <time>2018-11-24T23:18:46Z</time>
      </trkpt>
      <trkpt lat="42.83127" lon="0.66063">
        <ele>2058.7</ele>
        <time>2018-11-24T23:18:47Z</time>
      </trkpt>
      <trkpt lat="42.83126" lon="0.66058">
        <ele>2058.7</ele>
        <time>2018-11-24T23:18:48Z</time>
      </trkpt>
      <trkpt lat="42.83125" lon="0.66054">
        <ele>2061.3</ele>
        <time>2018-11-24T23:18:49Z</time>
      </trkpt>
      <trkpt lat="42.83124" lon="0.66053">
        <ele>2059</ele>
        <time>2018-11-24T23:18:50Z</time>
      </trkpt>
      <trkpt lat="42.83121" lon="0.66054">
        <ele>2059.5</ele>
        <time>2018-11-24T23:18:51Z</time>
      </trkpt>
      <trkpt lat="42.83118" lon="0.66053">
        <ele>2060</ele>
        <time>2018-11-24T23:18:52Z</time>
      </trkpt>
      <trkpt lat="42.83116" lon="0.66052">
        <ele>2059.3</ele>
        <time>2018-11-24T23:18:53Z</time>
      </trkpt>
      <trkpt lat="42.83114" lon="0.66052">
        <ele>2058.7</ele>
        <time>2018-11-24T23:18:54Z</time>
      </trkpt>
      <trkpt lat="42.83112" lon="0.66049">
        <ele>2058.4</ele>
        <time>2018-11-24T23:18:55Z</time>
      </trkpt>
      <trkpt lat="42.83111" lon="0.66047">
        <ele>2057.9</ele>
        <time>2018-11-24T23:18:56Z</time>
      </trkpt>
      <trkpt lat="42.83108" lon="0.66046">
        <ele>2057.4</ele>
        <time>2018-11-24T23:18:57Z</time>
      </trkpt>
      <trkpt lat="42.83107" lon="0.66046">
        <ele>2056.9</ele>
        <time>2018-11-24T23:18:58Z</time>
      </trkpt>
      <trkpt lat="42.83104" lon="0.66049">
        <ele>2056.4</ele>
        <time>2018-11-24T23:18:59Z</time>
      </trkpt>
      <trkpt lat="42.83102" lon="0.66052">
        <ele>2055.9</ele>
        <time>2018-11-24T23:19:00Z</time>
      </trkpt>
      <trkpt lat="42.831" lon="0.66056">
        <ele>2055.2</ele>
        <time>2018-11-24T23:19:02Z</time>
      </trkpt>
      <trkpt lat="42.83097" lon="0.66058">
        <ele>2054.4</ele>
        <time>2018-11-24T23:19:03Z</time>
      </trkpt>
      <trkpt lat="42.83094" lon="0.6606">
        <ele>2053.7</ele>
        <time>2018-11-24T23:19:04Z</time>
      </trkpt>
      <trkpt lat="42.83092" lon="0.66062">
        <ele>2053</ele>
        <time>2018-11-24T23:19:06Z</time>
      </trkpt>
      <trkpt lat="42.83089" lon="0.66064">
        <ele>2052.3</ele>
        <time>2018-11-24T23:19:07Z</time>
      </trkpt>
      <trkpt lat="42.83087" lon="0.66067">
        <ele>2051.6</ele>
        <time>2018-11-24T23:19:08Z</time>
      </trkpt>
      <trkpt lat="42.83085" lon="0.66069">
        <ele>2050.8</ele>
        <time>2018-11-24T23:19:09Z</time>
      </trkpt>
      <trkpt lat="42.83082" lon="0.66071">
        <ele>2050.1</ele>
        <time>2018-11-24T23:19:10Z</time>
      </trkpt>
      <trkpt lat="42.8308" lon="0.66074">
        <ele>2049.4</ele>
        <time>2018-11-24T23:19:11Z</time>
      </trkpt>
      <trkpt lat="42.83078" lon="0.66076">
        <ele>2048.8</ele>
        <time>2018-11-24T23:19:12Z</time>
      </trkpt>
      <trkpt lat="42.83077" lon="0.66079">
        <ele>2048.3</ele>
        <time>2018-11-24T23:19:13Z</time>
      </trkpt>
      <trkpt lat="42.83075" lon="0.66082">
        <ele>2047.6</ele>
        <time>2018-11-24T23:19:14Z</time>
      </trkpt>
      <trkpt lat="42.83074" lon="0.66084">
        <ele>2047.1</ele>
        <time>2018-11-24T23:19:15Z</time>
      </trkpt>
      <trkpt lat="42.83072" lon="0.66087">
        <ele>2046.2</ele>
        <time>2018-11-24T23:19:16Z</time>
      </trkpt>
      <trkpt lat="42.8307" lon="0.66089">
        <ele>2045.5</ele>
        <time>2018-11-24T23:19:18Z</time>
      </trkpt>
      <trkpt lat="42.83067" lon="0.66091">
        <ele>2044.7</ele>
        <time>2018-11-24T23:19:19Z</time>
      </trkpt>
      <trkpt lat="42.83065" lon="0.66093">
        <ele>2044</ele>
        <time>2018-11-24T23:19:20Z</time>
      </trkpt>
      <trkpt lat="42.83063" lon="0.66096">
        <ele>2043.2</ele>
        <time>2018-11-24T23:19:21Z</time>
      </trkpt>
      <trkpt lat="42.83061" lon="0.66099">
        <ele>2042.5</ele>
        <time>2018-11-24T23:19:22Z</time>
      </trkpt>
      <trkpt lat="42.83059" lon="0.66102">
        <ele>2041.6</ele>
        <time>2018-11-24T23:19:23Z</time>
      </trkpt>
      <trkpt lat="42.83057" lon="0.66104">
        <ele>2041</ele>
        <time>2018-11-24T23:19:24Z</time>
      </trkpt>
      <trkpt lat="42.83055" lon="0.66106">
        <ele>2040</ele>
        <time>2018-11-24T23:19:25Z</time>
      </trkpt>
      <trkpt lat="42.83052" lon="0.66108">
        <ele>2039.3</ele>
        <time>2018-11-24T23:19:27Z</time>
      </trkpt>
      <trkpt lat="42.83049" lon="0.6611">
        <ele>2038.3</ele>
        <time>2018-11-24T23:19:28Z</time>
      </trkpt>
      <trkpt lat="42.83046" lon="0.66112">
        <ele>2037.3</ele>
        <time>2018-11-24T23:19:29Z</time>
      </trkpt>
      <trkpt lat="42.83043" lon="0.66115">
        <ele>2036.3</ele>
        <time>2018-11-24T23:19:31Z</time>
      </trkpt>
      <trkpt lat="42.83041" lon="0.66118">
        <ele>2035.5</ele>
        <time>2018-11-24T23:19:32Z</time>
      </trkpt>
      <trkpt lat="42.8304" lon="0.6612">
        <ele>2034.8</ele>
        <time>2018-11-24T23:19:33Z</time>
      </trkpt>
      <trkpt lat="42.83039" lon="0.66123">
        <ele>2034</ele>
        <time>2018-11-24T23:19:34Z</time>
      </trkpt>
      <trkpt lat="42.83037" lon="0.66126">
        <ele>2033</ele>
        <time>2018-11-24T23:19:35Z</time>
      </trkpt>
      <trkpt lat="42.83035" lon="0.66129">
        <ele>2032.3</ele>
        <time>2018-11-24T23:19:36Z</time>
      </trkpt>
      <trkpt lat="42.83034" lon="0.66131">
        <ele>2031.8</ele>
        <time>2018-11-24T23:19:37Z</time>
      </trkpt>
      <trkpt lat="42.83032" lon="0.66134">
        <ele>2029.1</ele>
        <time>2018-11-24T23:19:38Z</time>
      </trkpt>
      <trkpt lat="42.8303" lon="0.66137">
        <ele>2029.9</ele>
        <time>2018-11-24T23:19:39Z</time>
      </trkpt>
      <trkpt lat="42.83028" lon="0.66139">
        <ele>2029.1</ele>
        <time>2018-11-24T23:19:40Z</time>
      </trkpt>
      <trkpt lat="42.83026" lon="0.66142">
        <ele>2027.9</ele>
        <time>2018-11-24T23:19:41Z</time>
      </trkpt>
      <trkpt lat="42.83024" lon="0.66144">
        <ele>2027.1</ele>
        <time>2018-11-24T23:19:42Z</time>
      </trkpt>
      <trkpt lat="42.83022" lon="0.66146">
        <ele>2026.3</ele>
        <time>2018-11-24T23:19:43Z</time>
      </trkpt>
      <trkpt lat="42.8302" lon="0.66148">
        <ele>2025.4</ele>
        <time>2018-11-24T23:19:44Z</time>
      </trkpt>
      <trkpt lat="42.83018" lon="0.6615">
        <ele>2024.5</ele>
        <time>2018-11-24T23:19:45Z</time>
      </trkpt>
      <trkpt lat="42.83015" lon="0.66152">
        <ele>2023.5</ele>
        <time>2018-11-24T23:19:47Z</time>
      </trkpt>
      <trkpt lat="42.83013" lon="0.66154">
        <ele>2022.8</ele>
        <time>2018-11-24T23:19:47Z</time>
      </trkpt>
      <trkpt lat="42.83012" lon="0.66155">
        <ele>2022.2</ele>
        <time>2018-11-24T23:19:48Z</time>
      </trkpt>
      <trkpt lat="42.8301" lon="0.66156">
        <ele>2021.6</ele>
        <time>2018-11-24T23:19:49Z</time>
      </trkpt>
      <trkpt lat="42.83008" lon="0.66158">
        <ele>2019.2</ele>
        <time>2018-11-24T23:19:50Z</time>
      </trkpt>
      <trkpt lat="42.83006" lon="0.66159">
        <ele>2019.8</ele>
        <time>2018-11-24T23:19:51Z</time>
      </trkpt>
      <trkpt lat="42.83004" lon="0.6616">
        <ele>2019.7</ele>
        <time>2018-11-24T23:19:52Z</time>
      </trkpt>
      <trkpt lat="42.83002" lon="0.6616">
        <ele>2019.4</ele>
        <time>2018-11-24T23:19:52Z</time>
      </trkpt>
      <trkpt lat="42.83" lon="0.66159">
        <ele>2019.2</ele>
        <time>2018-11-24T23:19:53Z</time>
      </trkpt>
      <trkpt lat="42.82999" lon="0.66158">
        <ele>2019.2</ele>
        <time>2018-11-24T23:19:54Z</time>
      </trkpt>
      <trkpt lat="42.82996" lon="0.66158">
        <ele>2018.6</ele>
        <time>2018-11-24T23:19:55Z</time>
      </trkpt>
      <trkpt lat="42.82994" lon="0.66156">
        <ele>2018.6</ele>
        <time>2018-11-24T23:19:56Z</time>
      </trkpt>
      <trkpt lat="42.82992" lon="0.66155">
        <ele>2018.4</ele>
        <time>2018-11-24T23:19:57Z</time>
      </trkpt>
      <trkpt lat="42.8299" lon="0.66154">
        <ele>2018.2</ele>
        <time>2018-11-24T23:19:58Z</time>
      </trkpt>
      <trkpt lat="42.82987" lon="0.66154">
        <ele>2017.7</ele>
        <time>2018-11-24T23:19:59Z</time>
      </trkpt>
      <trkpt lat="42.82985" lon="0.66153">
        <ele>2017.6</ele>
        <time>2018-11-24T23:19:59Z</time>
      </trkpt>
      <trkpt lat="42.82984" lon="0.66152">
        <ele>2017.5</ele>
        <time>2018-11-24T23:20:00Z</time>
      </trkpt>
      <trkpt lat="42.8298" lon="0.66152">
        <ele>2016.6</ele>
        <time>2018-11-24T23:20:02Z</time>
      </trkpt>
      <trkpt lat="42.82978" lon="0.66151">
        <ele>2016.3</ele>
        <time>2018-11-24T23:20:02Z</time>
      </trkpt>
      <trkpt lat="42.82977" lon="0.6615">
        <ele>2016.1</ele>
        <time>2018-11-24T23:20:03Z</time>
      </trkpt>
      <trkpt lat="42.82972" lon="0.66149">
        <ele>2015.4</ele>
        <time>2018-11-24T23:20:05Z</time>
      </trkpt>
      <trkpt lat="42.8297" lon="0.66148">
        <ele>2015</ele>
        <time>2018-11-24T23:20:06Z</time>
      </trkpt>
      <trkpt lat="42.82967" lon="0.66147">
        <ele>2014.5</ele>
        <time>2018-11-24T23:20:07Z</time>
      </trkpt>
      <trkpt lat="42.8296" lon="0.66152">
        <ele>2011.8</ele>
        <time>2018-11-24T23:20:10Z</time>
      </trkpt>
      <trkpt lat="42.82958" lon="0.66154">
        <ele>2011</ele>
        <time>2018-11-24T23:20:11Z</time>
      </trkpt>
      <trkpt lat="42.82955" lon="0.66155">
        <ele>2009.7</ele>
        <time>2018-11-24T23:20:12Z</time>
      </trkpt>
      <trkpt lat="42.8295" lon="0.66158">
        <ele>2008.4</ele>
        <time>2018-11-24T23:20:15Z</time>
      </trkpt>
      <trkpt lat="42.82948" lon="0.6616">
        <ele>2007.5</ele>
        <time>2018-11-24T23:20:16Z</time>
      </trkpt>
      <trkpt lat="42.82941" lon="0.66164">
        <ele>2005.1</ele>
        <time>2018-11-24T23:20:19Z</time>
      </trkpt>
      <trkpt lat="42.82939" lon="0.66166">
        <ele>2004.3</ele>
        <time>2018-11-24T23:20:20Z</time>
      </trkpt>
      <trkpt lat="42.82937" lon="0.66167">
        <ele>2003.5</ele>
        <time>2018-11-24T23:20:21Z</time>
      </trkpt>
      <trkpt lat="42.82935" lon="0.66168">
        <ele>2002.6</ele>
        <time>2018-11-24T23:20:22Z</time>
      </trkpt>
      <trkpt lat="42.82932" lon="0.66169">
        <ele>2001.8</ele>
        <time>2018-11-24T23:20:23Z</time>
      </trkpt>
      <trkpt lat="42.8293" lon="0.66171">
        <ele>2001.1</ele>
        <time>2018-11-24T23:20:24Z</time>
      </trkpt>
      <trkpt lat="42.82927" lon="0.66173">
        <ele>2000.1</ele>
        <time>2018-11-24T23:20:25Z</time>
      </trkpt>
      <trkpt lat="42.82925" lon="0.66174">
        <ele>1999.4</ele>
        <time>2018-11-24T23:20:26Z</time>
      </trkpt>
      <trkpt lat="42.82924" lon="0.66175">
        <ele>1998.7</ele>
        <time>2018-11-24T23:20:26Z</time>
      </trkpt>
      <trkpt lat="42.82922" lon="0.66176">
        <ele>1998.1</ele>
        <time>2018-11-24T23:20:27Z</time>
      </trkpt>
      <trkpt lat="42.82919" lon="0.66178">
        <ele>1997.3</ele>
        <time>2018-11-24T23:20:28Z</time>
      </trkpt>
      <trkpt lat="42.82917" lon="0.66179">
        <ele>1996.5</ele>
        <time>2018-11-24T23:20:29Z</time>
      </trkpt>
      <trkpt lat="42.82915" lon="0.66181">
        <ele>1995.8</ele>
        <time>2018-11-24T23:20:30Z</time>
      </trkpt>
      <trkpt lat="42.82912" lon="0.66182">
        <ele>1995</ele>
        <time>2018-11-24T23:20:31Z</time>
      </trkpt>
      <trkpt lat="42.8291" lon="0.66184">
        <ele>1994.3</ele>
        <time>2018-11-24T23:20:32Z</time>
      </trkpt>
      <trkpt lat="42.82908" lon="0.66186">
        <ele>1993.3</ele>
        <time>2018-11-24T23:20:33Z</time>
      </trkpt>
      <trkpt lat="42.82906" lon="0.66188">
        <ele>1992.5</ele>
        <time>2018-11-24T23:20:34Z</time>
      </trkpt>
      <trkpt lat="42.82904" lon="0.66189">
        <ele>1991.6</ele>
        <time>2018-11-24T23:20:36Z</time>
      </trkpt>
      <trkpt lat="42.82901" lon="0.66191">
        <ele>1990.9</ele>
        <time>2018-11-24T23:20:36Z</time>
      </trkpt>
      <trkpt lat="42.82899" lon="0.66192">
        <ele>1990.2</ele>
        <time>2018-11-24T23:20:37Z</time>
      </trkpt>
      <trkpt lat="42.82897" lon="0.66194">
        <ele>1989.4</ele>
        <time>2018-11-24T23:20:38Z</time>
      </trkpt>
      <trkpt lat="42.82895" lon="0.66196">
        <ele>1988.6</ele>
        <time>2018-11-24T23:20:39Z</time>
      </trkpt>
      <trkpt lat="42.82892" lon="0.66199">
        <ele>1987.6</ele>
        <time>2018-11-24T23:20:41Z</time>
      </trkpt>
      <trkpt lat="42.8289" lon="0.66199">
        <ele>1987.2</ele>
        <time>2018-11-24T23:20:42Z</time>
      </trkpt>
      <trkpt lat="42.82889" lon="0.66201">
        <ele>1986.5</ele>
        <time>2018-11-24T23:20:42Z</time>
      </trkpt>
      <trkpt lat="42.82886" lon="0.66202">
        <ele>1985.8</ele>
        <time>2018-11-24T23:20:43Z</time>
      </trkpt>
      <trkpt lat="42.82883" lon="0.66203">
        <ele>1985.2</ele>
        <time>2018-11-24T23:20:45Z</time>
      </trkpt>
      <trkpt lat="42.82881" lon="0.66204">
        <ele>1984.3</ele>
        <time>2018-11-24T23:20:46Z</time>
      </trkpt>
      <trkpt lat="42.82879" lon="0.66205">
        <ele>1983.6</ele>
        <time>2018-11-24T23:20:47Z</time>
      </trkpt>
      <trkpt lat="42.82876" lon="0.66207">
        <ele>1983</ele>
        <time>2018-11-24T23:20:48Z</time>
      </trkpt>
      <trkpt lat="42.82874" lon="0.66208">
        <ele>1982.3</ele>
        <time>2018-11-24T23:20:49Z</time>
      </trkpt>
      <trkpt lat="42.82871" lon="0.66209">
        <ele>1981.5</ele>
        <time>2018-11-24T23:20:50Z</time>
      </trkpt>
      <trkpt lat="42.82869" lon="0.66211">
        <ele>1980.8</ele>
        <time>2018-11-24T23:20:51Z</time>
      </trkpt>
      <trkpt lat="42.82867" lon="0.66212">
        <ele>1980</ele>
        <time>2018-11-24T23:20:52Z</time>
      </trkpt>
      <trkpt lat="42.82864" lon="0.66213">
        <ele>1979.2</ele>
        <time>2018-11-24T23:20:53Z</time>
      </trkpt>
      <trkpt lat="42.82861" lon="0.66215">
        <ele>1978.3</ele>
        <time>2018-11-24T23:20:54Z</time>
      </trkpt>
      <trkpt lat="42.82859" lon="0.66217">
        <ele>1977.6</ele>
        <time>2018-11-24T23:20:55Z</time>
      </trkpt>
      <trkpt lat="42.82856" lon="0.6622">
        <ele>1976.5</ele>
        <time>2018-11-24T23:20:57Z</time>
      </trkpt>
      <trkpt lat="42.82854" lon="0.66223">
        <ele>1975.6</ele>
        <time>2018-11-24T23:20:58Z</time>
      </trkpt>
      <trkpt lat="42.82853" lon="0.66225">
        <ele>1974.9</ele>
        <time>2018-11-24T23:20:59Z</time>
      </trkpt>
      <trkpt lat="42.82851" lon="0.66226">
        <ele>1974.3</ele>
        <time>2018-11-24T23:21:00Z</time>
      </trkpt>
      <trkpt lat="42.82848" lon="0.66227">
        <ele>1973.4</ele>
        <time>2018-11-24T23:21:01Z</time>
      </trkpt>
      <trkpt lat="42.82846" lon="0.66229">
        <ele>1972.5</ele>
        <time>2018-11-24T23:21:02Z</time>
      </trkpt>
      <trkpt lat="42.82843" lon="0.66232">
        <ele>1971.6</ele>
        <time>2018-11-24T23:21:03Z</time>
      </trkpt>
      <trkpt lat="42.82841" lon="0.66233">
        <ele>1969.2</ele>
        <time>2018-11-24T23:21:04Z</time>
      </trkpt>
      <trkpt lat="42.82839" lon="0.66235">
        <ele>1970</ele>
        <time>2018-11-24T23:21:05Z</time>
      </trkpt>
      <trkpt lat="42.82837" lon="0.66238">
        <ele>1969.2</ele>
        <time>2018-11-24T23:21:06Z</time>
      </trkpt>
      <trkpt lat="42.82837" lon="0.66241">
        <ele>1968.7</ele>
        <time>2018-11-24T23:21:07Z</time>
      </trkpt>
      <trkpt lat="42.82836" lon="0.66244">
        <ele>1968.2</ele>
        <time>2018-11-24T23:21:08Z</time>
      </trkpt>
      <trkpt lat="42.82835" lon="0.66247">
        <ele>1967.4</ele>
        <time>2018-11-24T23:21:09Z</time>
      </trkpt>
      <trkpt lat="42.82834" lon="0.66249">
        <ele>1966.8</ele>
        <time>2018-11-24T23:21:10Z</time>
      </trkpt>
      <trkpt lat="42.82833" lon="0.66252">
        <ele>1966.2</ele>
        <time>2018-11-24T23:21:10Z</time>
      </trkpt>
      <trkpt lat="42.82833" lon="0.66255">
        <ele>1965.7</ele>
        <time>2018-11-24T23:21:11Z</time>
      </trkpt>
      <trkpt lat="42.82833" lon="0.66257">
        <ele>1965.2</ele>
        <time>2018-11-24T23:21:12Z</time>
      </trkpt>
      <trkpt lat="42.82834" lon="0.66262">
        <ele>1964.6</ele>
        <time>2018-11-24T23:21:13Z</time>
      </trkpt>
      <trkpt lat="42.82836" lon="0.66265">
        <ele>1964.6</ele>
        <time>2018-11-24T23:21:14Z</time>
      </trkpt>
      <trkpt lat="42.82836" lon="0.66267">
        <ele>1964.1</ele>
        <time>2018-11-24T23:21:15Z</time>
      </trkpt>
      <trkpt lat="42.82836" lon="0.66271">
        <ele>1963.5</ele>
        <time>2018-11-24T23:21:16Z</time>
      </trkpt>
      <trkpt lat="42.82835" lon="0.66274">
        <ele>1962.9</ele>
        <time>2018-11-24T23:21:17Z</time>
      </trkpt>
      <trkpt lat="42.82833" lon="0.66275">
        <ele>1962.3</ele>
        <time>2018-11-24T23:21:18Z</time>
      </trkpt>
      <trkpt lat="42.82833" lon="0.66278">
        <ele>1961.7</ele>
        <time>2018-11-24T23:21:19Z</time>
      </trkpt>
      <trkpt lat="42.82833" lon="0.66281">
        <ele>1961.1</ele>
        <time>2018-11-24T23:21:20Z</time>
      </trkpt>
      <trkpt lat="42.82831" lon="0.66282">
        <ele>1959.6</ele>
        <time>2018-11-24T23:21:21Z</time>
      </trkpt>
      <trkpt lat="42.8283" lon="0.66286">
        <ele>1959.6</ele>
        <time>2018-11-24T23:21:22Z</time>
      </trkpt>
      <trkpt lat="42.8283" lon="0.66289">
        <ele>1958.8</ele>
        <time>2018-11-24T23:21:23Z</time>
      </trkpt>
      <trkpt lat="42.82829" lon="0.66292">
        <ele>1957.9</ele>
        <time>2018-11-24T23:21:24Z</time>
      </trkpt>
      <trkpt lat="42.82826" lon="0.66294">
        <ele>1956.9</ele>
        <time>2018-11-24T23:21:25Z</time>
      </trkpt>
      <trkpt lat="42.82824" lon="0.66296">
        <ele>1956</ele>
        <time>2018-11-24T23:21:26Z</time>
      </trkpt>
      <trkpt lat="42.82823" lon="0.66299">
        <ele>1954.9</ele>
        <time>2018-11-24T23:21:27Z</time>
      </trkpt>
      <trkpt lat="42.82822" lon="0.66302">
        <ele>1954</ele>
        <time>2018-11-24T23:21:28Z</time>
      </trkpt>
      <trkpt lat="42.82821" lon="0.66305">
        <ele>1953</ele>
        <time>2018-11-24T23:21:29Z</time>
      </trkpt>
      <trkpt lat="42.8282" lon="0.66308">
        <ele>1952.4</ele>
        <time>2018-11-24T23:21:30Z</time>
      </trkpt>
      <trkpt lat="42.8282" lon="0.66312">
        <ele>1951.5</ele>
        <time>2018-11-24T23:21:31Z</time>
      </trkpt>
      <trkpt lat="42.82818" lon="0.66315">
        <ele>1950.6</ele>
        <time>2018-11-24T23:21:32Z</time>
      </trkpt>
      <trkpt lat="42.82818" lon="0.66318">
        <ele>1949.9</ele>
        <time>2018-11-24T23:21:33Z</time>
      </trkpt>
      <trkpt lat="42.82818" lon="0.6632">
        <ele>1949.3</ele>
        <time>2018-11-24T23:21:34Z</time>
      </trkpt>
      <trkpt lat="42.82819" lon="0.66323">
        <ele>1949.1</ele>
        <time>2018-11-24T23:21:35Z</time>
      </trkpt>
      <trkpt lat="42.8282" lon="0.66325">
        <ele>1948.8</ele>
        <time>2018-11-24T23:21:36Z</time>
      </trkpt>
      <trkpt lat="42.8282" lon="0.66328">
        <ele>1947.9</ele>
        <time>2018-11-24T23:21:37Z</time>
      </trkpt>
      <trkpt lat="42.82817" lon="0.66329">
        <ele>1947.2</ele>
        <time>2018-11-24T23:21:38Z</time>
      </trkpt>
      <trkpt lat="42.82818" lon="0.66332">
        <ele>1946.8</ele>
        <time>2018-11-24T23:21:38Z</time>
      </trkpt>
      <trkpt lat="42.82819" lon="0.66336">
        <ele>1946.1</ele>
        <time>2018-11-24T23:21:40Z</time>
      </trkpt>
      <trkpt lat="42.82818" lon="0.66338">
        <ele>1945.4</ele>
        <time>2018-11-24T23:21:40Z</time>
      </trkpt>
      <trkpt lat="42.82817" lon="0.66341">
        <ele>1944.6</ele>
        <time>2018-11-24T23:21:41Z</time>
      </trkpt>
      <trkpt lat="42.82815" lon="0.66344">
        <ele>1943.6</ele>
        <time>2018-11-24T23:21:42Z</time>
      </trkpt>
      <trkpt lat="42.82814" lon="0.66346">
        <ele>1942.9</ele>
        <time>2018-11-24T23:21:43Z</time>
      </trkpt>
      <trkpt lat="42.82813" lon="0.66348">
        <ele>1942.4</ele>
        <time>2018-11-24T23:21:44Z</time>
      </trkpt>
      <trkpt lat="42.82812" lon="0.6635">
        <ele>1941.6</ele>
        <time>2018-11-24T23:21:45Z</time>
      </trkpt>
      <trkpt lat="42.82811" lon="0.66354">
        <ele>1940.4</ele>
        <time>2018-11-24T23:21:46Z</time>
      </trkpt>
      <trkpt lat="42.82809" lon="0.66357">
        <ele>1940.6</ele>
        <time>2018-11-24T23:21:47Z</time>
      </trkpt>
      <trkpt lat="42.82807" lon="0.66359">
        <ele>1938.8</ele>
        <time>2018-11-24T23:21:48Z</time>
      </trkpt>
      <trkpt lat="42.82805" lon="0.66362">
        <ele>1938.1</ele>
        <time>2018-11-24T23:21:49Z</time>
      </trkpt>
      <trkpt lat="42.82804" lon="0.66364">
        <ele>1937.5</ele>
        <time>2018-11-24T23:21:50Z</time>
      </trkpt>
      <trkpt lat="42.82802" lon="0.66366">
        <ele>1936.8</ele>
        <time>2018-11-24T23:21:51Z</time>
      </trkpt>
      <trkpt lat="42.82801" lon="0.66369">
        <ele>1936.1</ele>
        <time>2018-11-24T23:21:52Z</time>
      </trkpt>
      <trkpt lat="42.82799" lon="0.66372">
        <ele>1935.5</ele>
        <time>2018-11-24T23:21:53Z</time>
      </trkpt>
      <trkpt lat="42.82799" lon="0.66374">
        <ele>1934.8</ele>
        <time>2018-11-24T23:21:54Z</time>
      </trkpt>
      <trkpt lat="42.82796" lon="0.66378">
        <ele>1934</ele>
        <time>2018-11-24T23:21:55Z</time>
      </trkpt>
      <trkpt lat="42.82795" lon="0.6638">
        <ele>1933.3</ele>
        <time>2018-11-24T23:21:56Z</time>
      </trkpt>
      <trkpt lat="42.82793" lon="0.66382">
        <ele>1932.5</ele>
        <time>2018-11-24T23:21:57Z</time>
      </trkpt>
      <trkpt lat="42.82791" lon="0.66384">
        <ele>1932</ele>
        <time>2018-11-24T23:21:58Z</time>
      </trkpt>
      <trkpt lat="42.82789" lon="0.66389">
        <ele>1930.8</ele>
        <time>2018-11-24T23:22:00Z</time>
      </trkpt>
      <trkpt lat="42.82787" lon="0.66391">
        <ele>1930.1</ele>
        <time>2018-11-24T23:22:01Z</time>
      </trkpt>
      <trkpt lat="42.82785" lon="0.66394">
        <ele>1929.4</ele>
        <time>2018-11-24T23:22:02Z</time>
      </trkpt>
      <trkpt lat="42.82784" lon="0.66398">
        <ele>1928.6</ele>
        <time>2018-11-24T23:22:03Z</time>
      </trkpt>
      <trkpt lat="42.82783" lon="0.664">
        <ele>1928.1</ele>
        <time>2018-11-24T23:22:04Z</time>
      </trkpt>
      <trkpt lat="42.8278" lon="0.66402">
        <ele>1927.5</ele>
        <time>2018-11-24T23:22:05Z</time>
      </trkpt>
      <trkpt lat="42.82779" lon="0.66404">
        <ele>1927</ele>
        <time>2018-11-24T23:22:06Z</time>
      </trkpt>
      <trkpt lat="42.82777" lon="0.66407">
        <ele>1926.5</ele>
        <time>2018-11-24T23:22:07Z</time>
      </trkpt>
      <trkpt lat="42.82775" lon="0.66409">
        <ele>1925.9</ele>
        <time>2018-11-24T23:22:08Z</time>
      </trkpt>
      <trkpt lat="42.82773" lon="0.66411">
        <ele>1925.2</ele>
        <time>2018-11-24T23:22:09Z</time>
      </trkpt>
      <trkpt lat="42.82771" lon="0.66413">
        <ele>1924.7</ele>
        <time>2018-11-24T23:22:10Z</time>
      </trkpt>
      <trkpt lat="42.82769" lon="0.66415">
        <ele>1924.3</ele>
        <time>2018-11-24T23:22:11Z</time>
      </trkpt>
      <trkpt lat="42.82768" lon="0.66418">
        <ele>1924</ele>
        <time>2018-11-24T23:22:12Z</time>
      </trkpt>
      <trkpt lat="42.82767" lon="0.66421">
        <ele>1923.6</ele>
        <time>2018-11-24T23:22:13Z</time>
      </trkpt>
      <trkpt lat="42.82766" lon="0.66425">
        <ele>1923.2</ele>
        <time>2018-11-24T23:22:14Z</time>
      </trkpt>
      <trkpt lat="42.82764" lon="0.66432">
        <ele>1922.5</ele>
        <time>2018-11-24T23:22:16Z</time>
      </trkpt>
      <trkpt lat="42.82762" lon="0.66435">
        <ele>1922.1</ele>
        <time>2018-11-24T23:22:17Z</time>
      </trkpt>
      <trkpt lat="42.82755" lon="0.66448">
        <ele>1919.3</ele>
        <time>2018-11-24T23:22:22Z</time>
      </trkpt>
      <trkpt lat="42.82754" lon="0.6645">
        <ele>1919.8</ele>
        <time>2018-11-24T23:22:23Z</time>
      </trkpt>
      <trkpt lat="42.82753" lon="0.66452">
        <ele>1919.8</ele>
        <time>2018-11-24T23:22:24Z</time>
      </trkpt>
      <trkpt lat="42.82751" lon="0.66454">
        <ele>1919.1</ele>
        <time>2018-11-24T23:22:25Z</time>
      </trkpt>
      <trkpt lat="42.82749" lon="0.66456">
        <ele>1918.6</ele>
        <time>2018-11-24T23:22:26Z</time>
      </trkpt>
      <trkpt lat="42.82747" lon="0.66459">
        <ele>1918.1</ele>
        <time>2018-11-24T23:22:27Z</time>
      </trkpt>
      <trkpt lat="42.82744" lon="0.66463">
        <ele>1917</ele>
        <time>2018-11-24T23:22:29Z</time>
      </trkpt>
      <trkpt lat="42.82741" lon="0.66466">
        <ele>1916.3</ele>
        <time>2018-11-24T23:22:30Z</time>
      </trkpt>
      <trkpt lat="42.8274" lon="0.66468">
        <ele>1916</ele>
        <time>2018-11-24T23:22:31Z</time>
      </trkpt>
      <trkpt lat="42.82737" lon="0.66469">
        <ele>1915.5</ele>
        <time>2018-11-24T23:22:32Z</time>
      </trkpt>
      <trkpt lat="42.82735" lon="0.66471">
        <ele>1914.9</ele>
        <time>2018-11-24T23:22:33Z</time>
      </trkpt>
      <trkpt lat="42.82733" lon="0.66473">
        <ele>1914.4</ele>
        <time>2018-11-24T23:22:34Z</time>
      </trkpt>
      <trkpt lat="42.82731" lon="0.66475">
        <ele>1914</ele>
        <time>2018-11-24T23:22:35Z</time>
      </trkpt>
      <trkpt lat="42.82729" lon="0.66478">
        <ele>1913.7</ele>
        <time>2018-11-24T23:22:36Z</time>
      </trkpt>
      <trkpt lat="42.82728" lon="0.6648">
        <ele>1913.4</ele>
        <time>2018-11-24T23:22:37Z</time>
      </trkpt>
      <trkpt lat="42.82726" lon="0.66483">
        <ele>1913.1</ele>
        <time>2018-11-24T23:22:38Z</time>
      </trkpt>
      <trkpt lat="42.82723" lon="0.66492">
        <ele>1907.6</ele>
        <time>2018-11-24T23:22:41Z</time>
      </trkpt>
      <trkpt lat="42.82721" lon="0.66495">
        <ele>1907.9</ele>
        <time>2018-11-24T23:22:42Z</time>
      </trkpt>
      <trkpt lat="42.82719" lon="0.66498">
        <ele>1908</ele>
        <time>2018-11-24T23:22:43Z</time>
      </trkpt>
      <trkpt lat="42.82716" lon="0.66504">
        <ele>1908.7</ele>
        <time>2018-11-24T23:22:45Z</time>
      </trkpt>
      <trkpt lat="42.82714" lon="0.66507">
        <ele>1909.1</ele>
        <time>2018-11-24T23:22:46Z</time>
      </trkpt>
      <trkpt lat="42.8271" lon="0.66514">
        <ele>1909.5</ele>
        <time>2018-11-24T23:22:49Z</time>
      </trkpt>
      <trkpt lat="42.82705" lon="0.66521">
        <ele>1908</ele>
        <time>2018-11-24T23:22:52Z</time>
      </trkpt>
      <trkpt lat="42.82703" lon="0.66524">
        <ele>1907.5</ele>
        <time>2018-11-24T23:22:53Z</time>
      </trkpt>
      <trkpt lat="42.82702" lon="0.66526">
        <ele>1907</ele>
        <time>2018-11-24T23:22:54Z</time>
      </trkpt>
      <trkpt lat="42.82701" lon="0.66528">
        <ele>1906.7</ele>
        <time>2018-11-24T23:22:55Z</time>
      </trkpt>
      <trkpt lat="42.82699" lon="0.6653">
        <ele>1906.5</ele>
        <time>2018-11-24T23:22:55Z</time>
      </trkpt>
      <trkpt lat="42.82697" lon="0.66534">
        <ele>1905.8</ele>
        <time>2018-11-24T23:22:57Z</time>
      </trkpt>
      <trkpt lat="42.82696" lon="0.66537">
        <ele>1905.6</ele>
        <time>2018-11-24T23:22:58Z</time>
      </trkpt>
      <trkpt lat="42.82694" lon="0.66541">
        <ele>1905.2</ele>
        <time>2018-11-24T23:22:59Z</time>
      </trkpt>
      <trkpt lat="42.8269" lon="0.66548">
        <ele>1904.5</ele>
        <time>2018-11-24T23:23:02Z</time>
      </trkpt>
      <trkpt lat="42.82688" lon="0.6655">
        <ele>1904.2</ele>
        <time>2018-11-24T23:23:03Z</time>
      </trkpt>
      <trkpt lat="42.82687" lon="0.66552">
        <ele>1903.9</ele>
        <time>2018-11-24T23:23:04Z</time>
      </trkpt>
      <trkpt lat="42.82679" lon="0.66561">
        <ele>1897.2</ele>
        <time>2018-11-24T23:23:08Z</time>
      </trkpt>
      <trkpt lat="42.82674" lon="0.66568">
        <ele>1897.7</ele>
        <time>2018-11-24T23:23:11Z</time>
      </trkpt>
      <trkpt lat="42.82673" lon="0.66571">
        <ele>1897.6</ele>
        <time>2018-11-24T23:23:12Z</time>
      </trkpt>
      <trkpt lat="42.82672" lon="0.66574">
        <ele>1897.7</ele>
        <time>2018-11-24T23:23:13Z</time>
      </trkpt>
      <trkpt lat="42.82668" lon="0.66577">
        <ele>1898.1</ele>
        <time>2018-11-24T23:23:14Z</time>
      </trkpt>
      <trkpt lat="42.82666" lon="0.66579">
        <ele>1898.2</ele>
        <time>2018-11-24T23:23:15Z</time>
      </trkpt>
      <trkpt lat="42.82663" lon="0.66581">
        <ele>1898.7</ele>
        <time>2018-11-24T23:23:17Z</time>
      </trkpt>
      <trkpt lat="42.82661" lon="0.66583">
        <ele>1899</ele>
        <time>2018-11-24T23:23:18Z</time>
      </trkpt>
      <trkpt lat="42.82659" lon="0.66584">
        <ele>1899.1</ele>
        <time>2018-11-24T23:23:18Z</time>
      </trkpt>
      <trkpt lat="42.82657" lon="0.66587">
        <ele>1899.5</ele>
        <time>2018-11-24T23:23:20Z</time>
      </trkpt>
      <trkpt lat="42.82656" lon="0.66589">
        <ele>1899.6</ele>
        <time>2018-11-24T23:23:20Z</time>
      </trkpt>
      <trkpt lat="42.82655" lon="0.66591">
        <ele>1899.8</ele>
        <time>2018-11-24T23:23:21Z</time>
      </trkpt>
      <trkpt lat="42.82651" lon="0.66595">
        <ele>1899.8</ele>
        <time>2018-11-24T23:23:23Z</time>
      </trkpt>
      <trkpt lat="42.8265" lon="0.66598">
        <ele>1899.8</ele>
        <time>2018-11-24T23:23:24Z</time>
      </trkpt>
      <trkpt lat="42.82649" lon="0.666">
        <ele>1899.5</ele>
        <time>2018-11-24T23:23:25Z</time>
      </trkpt>
      <trkpt lat="42.82647" lon="0.66601">
        <ele>1899.5</ele>
        <time>2018-11-24T23:23:25Z</time>
      </trkpt>
      <trkpt lat="42.82646" lon="0.66604">
        <ele>1899.6</ele>
        <time>2018-11-24T23:23:26Z</time>
      </trkpt>
      <trkpt lat="42.82644" lon="0.66606">
        <ele>1899.6</ele>
        <time>2018-11-24T23:23:27Z</time>
      </trkpt>
      <trkpt lat="42.82642" lon="0.66608">
        <ele>1899.6</ele>
        <time>2018-11-24T23:23:28Z</time>
      </trkpt>
      <trkpt lat="42.8264" lon="0.6661">
        <ele>1899.7</ele>
        <time>2018-11-24T23:23:29Z</time>
      </trkpt>
      <trkpt lat="42.82638" lon="0.66613">
        <ele>1899.9</ele>
        <time>2018-11-24T23:23:30Z</time>
      </trkpt>
      <trkpt lat="42.82636" lon="0.66615">
        <ele>1900</ele>
        <time>2018-11-24T23:23:31Z</time>
      </trkpt>
      <trkpt lat="42.82634" lon="0.66617">
        <ele>1899.9</ele>
        <time>2018-11-24T23:23:33Z</time>
      </trkpt>
      <trkpt lat="42.82632" lon="0.66619">
        <ele>1899.8</ele>
        <time>2018-11-24T23:23:33Z</time>
      </trkpt>
      <trkpt lat="42.8263" lon="0.66621">
        <ele>1899.7</ele>
        <time>2018-11-24T23:23:34Z</time>
      </trkpt>
      <trkpt lat="42.82629" lon="0.66622">
        <ele>1899.5</ele>
        <time>2018-11-24T23:23:35Z</time>
      </trkpt>
      <trkpt lat="42.82627" lon="0.66624">
        <ele>1899.4</ele>
        <time>2018-11-24T23:23:36Z</time>
      </trkpt>
      <trkpt lat="42.82625" lon="0.66626">
        <ele>1899.2</ele>
        <time>2018-11-24T23:23:37Z</time>
      </trkpt>
      <trkpt lat="42.82624" lon="0.66628">
        <ele>1899.1</ele>
        <time>2018-11-24T23:23:38Z</time>
      </trkpt>
      <trkpt lat="42.82622" lon="0.6663">
        <ele>1898.9</ele>
        <time>2018-11-24T23:23:39Z</time>
      </trkpt>
      <trkpt lat="42.82621" lon="0.66632">
        <ele>1898.9</ele>
        <time>2018-11-24T23:23:39Z</time>
      </trkpt>
      <trkpt lat="42.8262" lon="0.66634">
        <ele>1898.8</ele>
        <time>2018-11-24T23:23:40Z</time>
      </trkpt>
      <trkpt lat="42.82617" lon="0.66636">
        <ele>1898.6</ele>
        <time>2018-11-24T23:23:41Z</time>
      </trkpt>
      <trkpt lat="42.82615" lon="0.66638">
        <ele>1898.6</ele>
        <time>2018-11-24T23:23:42Z</time>
      </trkpt>
      <trkpt lat="42.82612" lon="0.66641">
        <ele>1898.4</ele>
        <time>2018-11-24T23:23:44Z</time>
      </trkpt>
      <trkpt lat="42.82611" lon="0.66644">
        <ele>1898.1</ele>
        <time>2018-11-24T23:23:45Z</time>
      </trkpt>
      <trkpt lat="42.82609" lon="0.66646">
        <ele>1898.1</ele>
        <time>2018-11-24T23:23:46Z</time>
      </trkpt>
      <trkpt lat="42.82606" lon="0.66648">
        <ele>1898</ele>
        <time>2018-11-24T23:23:47Z</time>
      </trkpt>
      <trkpt lat="42.82603" lon="0.6665">
        <ele>1898</ele>
        <time>2018-11-24T23:23:48Z</time>
      </trkpt>
      <trkpt lat="42.826" lon="0.66652">
        <ele>1898</ele>
        <time>2018-11-24T23:23:50Z</time>
      </trkpt>
      <trkpt lat="42.82598" lon="0.66655">
        <ele>1898</ele>
        <time>2018-11-24T23:23:51Z</time>
      </trkpt>
      <trkpt lat="42.82595" lon="0.66657">
        <ele>1897.9</ele>
        <time>2018-11-24T23:23:52Z</time>
      </trkpt>
      <trkpt lat="42.82594" lon="0.66658">
        <ele>1897.8</ele>
        <time>2018-11-24T23:23:53Z</time>
      </trkpt>
      <trkpt lat="42.82592" lon="0.66659">
        <ele>1897.9</ele>
        <time>2018-11-24T23:23:54Z</time>
      </trkpt>
      <trkpt lat="42.82589" lon="0.66661">
        <ele>1897.8</ele>
        <time>2018-11-24T23:23:55Z</time>
      </trkpt>
      <trkpt lat="42.82586" lon="0.66664">
        <ele>1897.9</ele>
        <time>2018-11-24T23:23:56Z</time>
      </trkpt>
      <trkpt lat="42.82585" lon="0.66666">
        <ele>1897.9</ele>
        <time>2018-11-24T23:23:57Z</time>
      </trkpt>
      <trkpt lat="42.82584" lon="0.66668">
        <ele>1897.8</ele>
        <time>2018-11-24T23:23:58Z</time>
      </trkpt>
      <trkpt lat="42.82582" lon="0.66672">
        <ele>1902.9</ele>
        <time>2018-11-24T23:23:59Z</time>
      </trkpt>
      <trkpt lat="42.82581" lon="0.66674">
        <ele>1903.1</ele>
        <time>2018-11-24T23:24:00Z</time>
      </trkpt>
      <trkpt lat="42.8258" lon="0.66676">
        <ele>1903</ele>
        <time>2018-11-24T23:24:01Z</time>
      </trkpt>
      <trkpt lat="42.82578" lon="0.66677">
        <ele>1903.1</ele>
        <time>2018-11-24T23:24:01Z</time>
      </trkpt>
      <trkpt lat="42.82577" lon="0.66679">
        <ele>1903.3</ele>
        <time>2018-11-24T23:24:02Z</time>
      </trkpt>
      <trkpt lat="42.82575" lon="0.66681">
        <ele>1903.5</ele>
        <time>2018-11-24T23:24:03Z</time>
      </trkpt>
      <trkpt lat="42.82574" lon="0.66683">
        <ele>1903.5</ele>
        <time>2018-11-24T23:24:04Z</time>
      </trkpt>
      <trkpt lat="42.82572" lon="0.66685">
        <ele>1903.7</ele>
        <time>2018-11-24T23:24:05Z</time>
      </trkpt>
      <trkpt lat="42.82571" lon="0.66687">
        <ele>1903.9</ele>
        <time>2018-11-24T23:24:06Z</time>
      </trkpt>
      <trkpt lat="42.82569" lon="0.66689">
        <ele>1903.9</ele>
        <time>2018-11-24T23:24:06Z</time>
      </trkpt>
      <trkpt lat="42.82568" lon="0.66691">
        <ele>1904.1</ele>
        <time>2018-11-24T23:24:07Z</time>
      </trkpt>
      <trkpt lat="42.82566" lon="0.66693">
        <ele>1904.1</ele>
        <time>2018-11-24T23:24:08Z</time>
      </trkpt>
      <trkpt lat="42.82565" lon="0.66695">
        <ele>1904.2</ele>
        <time>2018-11-24T23:24:09Z</time>
      </trkpt>
      <trkpt lat="42.82563" lon="0.66696">
        <ele>1904.1</ele>
        <time>2018-11-24T23:24:10Z</time>
      </trkpt>
      <trkpt lat="42.82562" lon="0.66698">
        <ele>1904.2</ele>
        <time>2018-11-24T23:24:10Z</time>
      </trkpt>
      <trkpt lat="42.8256" lon="0.66701">
        <ele>1904.3</ele>
        <time>2018-11-24T23:24:12Z</time>
      </trkpt>
      <trkpt lat="42.82557" lon="0.66704">
        <ele>1904.4</ele>
        <time>2018-11-24T23:24:13Z</time>
      </trkpt>
      <trkpt lat="42.82556" lon="0.66706">
        <ele>1904.5</ele>
        <time>2018-11-24T23:24:14Z</time>
      </trkpt>
      <trkpt lat="42.82554" lon="0.66708">
        <ele>1904.5</ele>
        <time>2018-11-24T23:24:15Z</time>
      </trkpt>
      <trkpt lat="42.82553" lon="0.6671">
        <ele>1904.3</ele>
        <time>2018-11-24T23:24:16Z</time>
      </trkpt>
      <trkpt lat="42.82551" lon="0.66712">
        <ele>1904.4</ele>
        <time>2018-11-24T23:24:16Z</time>
      </trkpt>
      <trkpt lat="42.82549" lon="0.66715">
        <ele>1904.4</ele>
        <time>2018-11-24T23:24:18Z</time>
      </trkpt>
      <trkpt lat="42.82548" lon="0.66719">
        <ele>1904.7</ele>
        <time>2018-11-24T23:24:19Z</time>
      </trkpt>
      <trkpt lat="42.82547" lon="0.66722">
        <ele>1904.9</ele>
        <time>2018-11-24T23:24:20Z</time>
      </trkpt>
      <trkpt lat="42.82545" lon="0.66726">
        <ele>1905.2</ele>
        <time>2018-11-24T23:24:21Z</time>
      </trkpt>
      <trkpt lat="42.82544" lon="0.6673">
        <ele>1905.5</ele>
        <time>2018-11-24T23:24:22Z</time>
      </trkpt>
      <trkpt lat="42.82543" lon="0.66735">
        <ele>1905.8</ele>
        <time>2018-11-24T23:24:24Z</time>
      </trkpt>
      <trkpt lat="42.82542" lon="0.66737">
        <ele>1905.9</ele>
        <time>2018-11-24T23:24:25Z</time>
      </trkpt>
      <trkpt lat="42.82542" lon="0.66739">
        <ele>1906</ele>
        <time>2018-11-24T23:24:25Z</time>
      </trkpt>
      <trkpt lat="42.82541" lon="0.66743">
        <ele>1906.3</ele>
        <time>2018-11-24T23:24:27Z</time>
      </trkpt>
      <trkpt lat="42.82541" lon="0.66746">
        <ele>1906.6</ele>
        <time>2018-11-24T23:24:27Z</time>
      </trkpt>
      <trkpt lat="42.82541" lon="0.66749">
        <ele>1906.7</ele>
        <time>2018-11-24T23:24:28Z</time>
      </trkpt>
      <trkpt lat="42.82541" lon="0.66752">
        <ele>1907.1</ele>
        <time>2018-11-24T23:24:29Z</time>
      </trkpt>
      <trkpt lat="42.8254" lon="0.66755">
        <ele>1907.2</ele>
        <time>2018-11-24T23:24:30Z</time>
      </trkpt>
      <trkpt lat="42.82539" lon="0.66759">
        <ele>1907.2</ele>
        <time>2018-11-24T23:24:31Z</time>
      </trkpt>
      <trkpt lat="42.82539" lon="0.66762">
        <ele>1907.2</ele>
        <time>2018-11-24T23:24:32Z</time>
      </trkpt>
      <trkpt lat="42.82538" lon="0.66765">
        <ele>1907.2</ele>
        <time>2018-11-24T23:24:33Z</time>
      </trkpt>
      <trkpt lat="42.82537" lon="0.66767">
        <ele>1907</ele>
        <time>2018-11-24T23:24:34Z</time>
      </trkpt>
      <trkpt lat="42.82536" lon="0.6677">
        <ele>1906.7</ele>
        <time>2018-11-24T23:24:35Z</time>
      </trkpt>
      <trkpt lat="42.82535" lon="0.66772">
        <ele>1906.5</ele>
        <time>2018-11-24T23:24:36Z</time>
      </trkpt>
      <trkpt lat="42.82534" lon="0.66774">
        <ele>1906.6</ele>
        <time>2018-11-24T23:24:36Z</time>
      </trkpt>
      <trkpt lat="42.82534" lon="0.66777">
        <ele>1906.5</ele>
        <time>2018-11-24T23:24:37Z</time>
      </trkpt>
      <trkpt lat="42.82534" lon="0.6678">
        <ele>1906.4</ele>
        <time>2018-11-24T23:24:38Z</time>
      </trkpt>
      <trkpt lat="42.82534" lon="0.66783">
        <ele>1906.4</ele>
        <time>2018-11-24T23:24:39Z</time>
      </trkpt>
      <trkpt lat="42.82532" lon="0.66786">
        <ele>1906.3</ele>
        <time>2018-11-24T23:24:40Z</time>
      </trkpt>
      <trkpt lat="42.82531" lon="0.66789">
        <ele>1906</ele>
        <time>2018-11-24T23:24:41Z</time>
      </trkpt>
      <trkpt lat="42.82531" lon="0.66792">
        <ele>1906</ele>
        <time>2018-11-24T23:24:42Z</time>
      </trkpt>
      <trkpt lat="42.8253" lon="0.66796">
        <ele>1905.9</ele>
        <time>2018-11-24T23:24:43Z</time>
      </trkpt>
      <trkpt lat="42.82529" lon="0.66799">
        <ele>1905.6</ele>
        <time>2018-11-24T23:24:44Z</time>
      </trkpt>
      <trkpt lat="42.82528" lon="0.66801">
        <ele>1905.5</ele>
        <time>2018-11-24T23:24:45Z</time>
      </trkpt>
      <trkpt lat="42.82527" lon="0.66804">
        <ele>1905.4</ele>
        <time>2018-11-24T23:24:46Z</time>
      </trkpt>
      <trkpt lat="42.82527" lon="0.66807">
        <ele>1905.3</ele>
        <time>2018-11-24T23:24:47Z</time>
      </trkpt>
      <trkpt lat="42.82526" lon="0.6681">
        <ele>1905.4</ele>
        <time>2018-11-24T23:24:47Z</time>
      </trkpt>
      <trkpt lat="42.82525" lon="0.66813">
        <ele>1905.2</ele>
        <time>2018-11-24T23:24:48Z</time>
      </trkpt>
      <trkpt lat="42.82524" lon="0.66815">
        <ele>1905.1</ele>
        <time>2018-11-24T23:24:49Z</time>
      </trkpt>
      <trkpt lat="42.82523" lon="0.66818">
        <ele>1904.9</ele>
        <time>2018-11-24T23:24:50Z</time>
      </trkpt>
      <trkpt lat="42.82523" lon="0.66821">
        <ele>1904.8</ele>
        <time>2018-11-24T23:24:51Z</time>
      </trkpt>
      <trkpt lat="42.82522" lon="0.66824">
        <ele>1904.6</ele>
        <time>2018-11-24T23:24:52Z</time>
      </trkpt>
      <trkpt lat="42.82521" lon="0.66826">
        <ele>1904.5</ele>
        <time>2018-11-24T23:24:53Z</time>
      </trkpt>
      <trkpt lat="42.8252" lon="0.66828">
        <ele>1904.6</ele>
        <time>2018-11-24T23:24:53Z</time>
      </trkpt>
      <trkpt lat="42.82518" lon="0.66829">
        <ele>1904.6</ele>
        <time>2018-11-24T23:24:54Z</time>
      </trkpt>
      <trkpt lat="42.82515" lon="0.66832">
        <ele>1904.9</ele>
        <time>2018-11-24T23:24:56Z</time>
      </trkpt>
      <trkpt lat="42.82514" lon="0.66834">
        <ele>1905</ele>
        <time>2018-11-24T23:24:57Z</time>
      </trkpt>
      <trkpt lat="42.82512" lon="0.66837">
        <ele>1905.1</ele>
        <time>2018-11-24T23:24:58Z</time>
      </trkpt>
      <trkpt lat="42.82511" lon="0.6684">
        <ele>1905.3</ele>
        <time>2018-11-24T23:24:59Z</time>
      </trkpt>
      <trkpt lat="42.8251" lon="0.66843">
        <ele>1905.4</ele>
        <time>2018-11-24T23:25:00Z</time>
      </trkpt>
      <trkpt lat="42.8251" lon="0.66846">
        <ele>1905.6</ele>
        <time>2018-11-24T23:25:01Z</time>
      </trkpt>
      <trkpt lat="42.82509" lon="0.6685">
        <ele>1905.6</ele>
        <time>2018-11-24T23:25:02Z</time>
      </trkpt>
      <trkpt lat="42.82509" lon="0.66853">
        <ele>1905.8</ele>
        <time>2018-11-24T23:25:03Z</time>
      </trkpt>
      <trkpt lat="42.82509" lon="0.66856">
        <ele>1905.8</ele>
        <time>2018-11-24T23:25:03Z</time>
      </trkpt>
      <trkpt lat="42.82509" lon="0.6686">
        <ele>1906</ele>
        <time>2018-11-24T23:25:04Z</time>
      </trkpt>
      <trkpt lat="42.82508" lon="0.66862">
        <ele>1906</ele>
        <time>2018-11-24T23:25:05Z</time>
      </trkpt>
      <trkpt lat="42.82508" lon="0.66865">
        <ele>1906.1</ele>
        <time>2018-11-24T23:25:06Z</time>
      </trkpt>
      <trkpt lat="42.82507" lon="0.66867">
        <ele>1906.4</ele>
        <time>2018-11-24T23:25:07Z</time>
      </trkpt>
      <trkpt lat="42.82506" lon="0.6687">
        <ele>1906.6</ele>
        <time>2018-11-24T23:25:08Z</time>
      </trkpt>
      <trkpt lat="42.82504" lon="0.66872">
        <ele>1906.9</ele>
        <time>2018-11-24T23:25:08Z</time>
      </trkpt>
      <trkpt lat="42.82503" lon="0.66874">
        <ele>1907.3</ele>
        <time>2018-11-24T23:25:09Z</time>
      </trkpt>
      <trkpt lat="42.82501" lon="0.66876">
        <ele>1907.7</ele>
        <time>2018-11-24T23:25:10Z</time>
      </trkpt>
      <trkpt lat="42.825" lon="0.66878">
        <ele>1908.1</ele>
        <time>2018-11-24T23:25:11Z</time>
      </trkpt>
      <trkpt lat="42.82499" lon="0.66881">
        <ele>1908.4</ele>
        <time>2018-11-24T23:25:12Z</time>
      </trkpt>
      <trkpt lat="42.82498" lon="0.66883">
        <ele>1908.8</ele>
        <time>2018-11-24T23:25:13Z</time>
      </trkpt>
      <trkpt lat="42.82496" lon="0.66886">
        <ele>1909.3</ele>
        <time>2018-11-24T23:25:14Z</time>
      </trkpt>
      <trkpt lat="42.82495" lon="0.66889">
        <ele>1909.9</ele>
        <time>2018-11-24T23:25:15Z</time>
      </trkpt>
      <trkpt lat="42.82494" lon="0.66891">
        <ele>1909.7</ele>
        <time>2018-11-24T23:25:16Z</time>
      </trkpt>
      <trkpt lat="42.82493" lon="0.66894">
        <ele>1909.5</ele>
        <time>2018-11-24T23:25:17Z</time>
      </trkpt>
      <trkpt lat="42.82492" lon="0.66896">
        <ele>1911</ele>
        <time>2018-11-24T23:25:17Z</time>
      </trkpt>
      <trkpt lat="42.82491" lon="0.66899">
        <ele>1911.4</ele>
        <time>2018-11-24T23:25:18Z</time>
      </trkpt>
      <trkpt lat="42.8249" lon="0.66902">
        <ele>1911.7</ele>
        <time>2018-11-24T23:25:19Z</time>
      </trkpt>
      <trkpt lat="42.82489" lon="0.66904">
        <ele>1912.1</ele>
        <time>2018-11-24T23:25:20Z</time>
      </trkpt>
      <trkpt lat="42.82487" lon="0.66906">
        <ele>1912.5</ele>
        <time>2018-11-24T23:25:21Z</time>
      </trkpt>
      <trkpt lat="42.82486" lon="0.66908">
        <ele>1913</ele>
        <time>2018-11-24T23:25:22Z</time>
      </trkpt>
      <trkpt lat="42.82485" lon="0.66911">
        <ele>1913.5</ele>
        <time>2018-11-24T23:25:22Z</time>
      </trkpt>
      <trkpt lat="42.82484" lon="0.66913">
        <ele>1913.7</ele>
        <time>2018-11-24T23:25:23Z</time>
      </trkpt>
      <trkpt lat="42.82482" lon="0.66915">
        <ele>1914.2</ele>
        <time>2018-11-24T23:25:24Z</time>
      </trkpt>
      <trkpt lat="42.8248" lon="0.66917">
        <ele>1914.7</ele>
        <time>2018-11-24T23:25:25Z</time>
      </trkpt>
      <trkpt lat="42.82479" lon="0.66918">
        <ele>1915.2</ele>
        <time>2018-11-24T23:25:26Z</time>
      </trkpt>
      <trkpt lat="42.82477" lon="0.6692">
        <ele>1915.7</ele>
        <time>2018-11-24T23:25:27Z</time>
      </trkpt>
      <trkpt lat="42.82475" lon="0.66921">
        <ele>1916.3</ele>
        <time>2018-11-24T23:25:27Z</time>
      </trkpt>
      <trkpt lat="42.82473" lon="0.66923">
        <ele>1916.7</ele>
        <time>2018-11-24T23:25:28Z</time>
      </trkpt>
      <trkpt lat="42.82472" lon="0.66925">
        <ele>1917.2</ele>
        <time>2018-11-24T23:25:29Z</time>
      </trkpt>
      <trkpt lat="42.8247" lon="0.66926">
        <ele>1917.8</ele>
        <time>2018-11-24T23:25:30Z</time>
      </trkpt>
      <trkpt lat="42.82468" lon="0.66928">
        <ele>1918.6</ele>
        <time>2018-11-24T23:25:31Z</time>
      </trkpt>
      <trkpt lat="42.82466" lon="0.6693">
        <ele>1919.1</ele>
        <time>2018-11-24T23:25:32Z</time>
      </trkpt>
      <trkpt lat="42.82465" lon="0.66932">
        <ele>1919.6</ele>
        <time>2018-11-24T23:25:33Z</time>
      </trkpt>
      <trkpt lat="42.82463" lon="0.66934">
        <ele>1919.8</ele>
        <time>2018-11-24T23:25:34Z</time>
      </trkpt>
      <trkpt lat="42.82461" lon="0.66935">
        <ele>1919.4</ele>
        <time>2018-11-24T23:25:35Z</time>
      </trkpt>
      <trkpt lat="42.82458" lon="0.66936">
        <ele>1918.9</ele>
        <time>2018-11-24T23:25:35Z</time>
      </trkpt>
      <trkpt lat="42.82457" lon="0.66938">
        <ele>1918.5</ele>
        <time>2018-11-24T23:25:36Z</time>
      </trkpt>
      <trkpt lat="42.82455" lon="0.66938">
        <ele>1918.2</ele>
        <time>2018-11-24T23:25:37Z</time>
      </trkpt>
      <trkpt lat="42.82453" lon="0.66939">
        <ele>1918.1</ele>
        <time>2018-11-24T23:25:38Z</time>
      </trkpt>
      <trkpt lat="42.8245" lon="0.66939">
        <ele>1917.8</ele>
        <time>2018-11-24T23:25:39Z</time>
      </trkpt>
      <trkpt lat="42.82448" lon="0.6694">
        <ele>1917.6</ele>
        <time>2018-11-24T23:25:40Z</time>
      </trkpt>
      <trkpt lat="42.82446" lon="0.66941">
        <ele>1917.4</ele>
        <time>2018-11-24T23:25:41Z</time>
      </trkpt>
      <trkpt lat="42.82443" lon="0.66942">
        <ele>1917.4</ele>
        <time>2018-11-24T23:25:42Z</time>
      </trkpt>
      <trkpt lat="42.82442" lon="0.66943">
        <ele>1917.3</ele>
        <time>2018-11-24T23:25:43Z</time>
      </trkpt>
      <trkpt lat="42.8244" lon="0.66945">
        <ele>1917</ele>
        <time>2018-11-24T23:25:44Z</time>
      </trkpt>
      <trkpt lat="42.82438" lon="0.66945">
        <ele>1917</ele>
        <time>2018-11-24T23:25:44Z</time>
      </trkpt>
      <trkpt lat="42.82436" lon="0.66947">
        <ele>1916.9</ele>
        <time>2018-11-24T23:25:45Z</time>
      </trkpt>
      <trkpt lat="42.82433" lon="0.66948">
        <ele>1916.8</ele>
        <time>2018-11-24T23:25:46Z</time>
      </trkpt>
      <trkpt lat="42.82431" lon="0.66949">
        <ele>1916.7</ele>
        <time>2018-11-24T23:25:47Z</time>
      </trkpt>
      <trkpt lat="42.82429" lon="0.66951">
        <ele>1916.7</ele>
        <time>2018-11-24T23:25:48Z</time>
      </trkpt>
      <trkpt lat="42.82427" lon="0.66953">
        <ele>1916.6</ele>
        <time>2018-11-24T23:25:49Z</time>
      </trkpt>
      <trkpt lat="42.82424" lon="0.66953">
        <ele>1916.6</ele>
        <time>2018-11-24T23:25:50Z</time>
      </trkpt>
      <trkpt lat="42.82423" lon="0.66953">
        <ele>1916.7</ele>
        <time>2018-11-24T23:25:51Z</time>
      </trkpt>
      <trkpt lat="42.82421" lon="0.66953">
        <ele>1916.8</ele>
        <time>2018-11-24T23:25:52Z</time>
      </trkpt>
      <trkpt lat="42.82418" lon="0.66955">
        <ele>1916.8</ele>
        <time>2018-11-24T23:25:53Z</time>
      </trkpt>
      <trkpt lat="42.82416" lon="0.66957">
        <ele>1916.8</ele>
        <time>2018-11-24T23:25:54Z</time>
      </trkpt>
      <trkpt lat="42.82414" lon="0.66958">
        <ele>1916.7</ele>
        <time>2018-11-24T23:25:55Z</time>
      </trkpt>
      <trkpt lat="42.82411" lon="0.66959">
        <ele>1916.9</ele>
        <time>2018-11-24T23:25:56Z</time>
      </trkpt>
      <trkpt lat="42.82408" lon="0.6696">
        <ele>1916.9</ele>
        <time>2018-11-24T23:25:57Z</time>
      </trkpt>
      <trkpt lat="42.82406" lon="0.66961">
        <ele>1917</ele>
        <time>2018-11-24T23:25:58Z</time>
      </trkpt>
      <trkpt lat="42.82404" lon="0.66962">
        <ele>1917.2</ele>
        <time>2018-11-24T23:25:59Z</time>
      </trkpt>
      <trkpt lat="42.82402" lon="0.66963">
        <ele>1917.2</ele>
        <time>2018-11-24T23:26:00Z</time>
      </trkpt>
      <trkpt lat="42.824" lon="0.66965">
        <ele>1917.5</ele>
        <time>2018-11-24T23:26:01Z</time>
      </trkpt>
      <trkpt lat="42.82398" lon="0.66967">
        <ele>1917.5</ele>
        <time>2018-11-24T23:26:02Z</time>
      </trkpt>
      <trkpt lat="42.82396" lon="0.66968">
        <ele>1917.7</ele>
        <time>2018-11-24T23:26:03Z</time>
      </trkpt>
      <trkpt lat="42.82394" lon="0.66969">
        <ele>1917.9</ele>
        <time>2018-11-24T23:26:03Z</time>
      </trkpt>
      <trkpt lat="42.82392" lon="0.66969">
        <ele>1918.2</ele>
        <time>2018-11-24T23:26:04Z</time>
      </trkpt>
      <trkpt lat="42.82389" lon="0.66971">
        <ele>1918.7</ele>
        <time>2018-11-24T23:26:06Z</time>
      </trkpt>
      <trkpt lat="42.82386" lon="0.66973">
        <ele>1919.4</ele>
        <time>2018-11-24T23:26:07Z</time>
      </trkpt>
      <trkpt lat="42.82384" lon="0.66974">
        <ele>1919.9</ele>
        <time>2018-11-24T23:26:08Z</time>
      </trkpt>
      <trkpt lat="42.82381" lon="0.66977">
        <ele>1919.3</ele>
        <time>2018-11-24T23:26:09Z</time>
      </trkpt>
      <trkpt lat="42.8238" lon="0.66978">
        <ele>1918.9</ele>
        <time>2018-11-24T23:26:10Z</time>
      </trkpt>
      <trkpt lat="42.82378" lon="0.6698">
        <ele>1918</ele>
        <time>2018-11-24T23:26:11Z</time>
      </trkpt>
      <trkpt lat="42.82375" lon="0.66979">
        <ele>1917.4</ele>
        <time>2018-11-24T23:26:12Z</time>
      </trkpt>
      <trkpt lat="42.82373" lon="0.66979">
        <ele>1916.8</ele>
        <time>2018-11-24T23:26:13Z</time>
      </trkpt>
      <trkpt lat="42.8237" lon="0.66981">
        <ele>1915.9</ele>
        <time>2018-11-24T23:26:14Z</time>
      </trkpt>
      <trkpt lat="42.82367" lon="0.66982">
        <ele>1915</ele>
        <time>2018-11-24T23:26:15Z</time>
      </trkpt>
      <trkpt lat="42.82363" lon="0.66983">
        <ele>1914.2</ele>
        <time>2018-11-24T23:26:17Z</time>
      </trkpt>
      <trkpt lat="42.8236" lon="0.66983">
        <ele>1913.5</ele>
        <time>2018-11-24T23:26:18Z</time>
      </trkpt>
      <trkpt lat="42.82357" lon="0.66983">
        <ele>1912.6</ele>
        <time>2018-11-24T23:26:19Z</time>
      </trkpt>
      <trkpt lat="42.82354" lon="0.66983">
        <ele>1911.9</ele>
        <time>2018-11-24T23:26:21Z</time>
      </trkpt>
      <trkpt lat="42.82351" lon="0.66983">
        <ele>1909</ele>
        <time>2018-11-24T23:26:22Z</time>
      </trkpt>
      <trkpt lat="42.82347" lon="0.66983">
        <ele>1910</ele>
        <time>2018-11-24T23:26:23Z</time>
      </trkpt>
      <trkpt lat="42.82345" lon="0.66983">
        <ele>1909.6</ele>
        <time>2018-11-24T23:26:24Z</time>
      </trkpt>
      <trkpt lat="42.82343" lon="0.66983">
        <ele>1908.9</ele>
        <time>2018-11-24T23:26:25Z</time>
      </trkpt>
      <trkpt lat="42.82341" lon="0.66982">
        <ele>1908.3</ele>
        <time>2018-11-24T23:26:26Z</time>
      </trkpt>
      <trkpt lat="42.82339" lon="0.66982">
        <ele>1907.8</ele>
        <time>2018-11-24T23:26:27Z</time>
      </trkpt>
      <trkpt lat="42.82337" lon="0.66981">
        <ele>1907.4</ele>
        <time>2018-11-24T23:26:27Z</time>
      </trkpt>
      <trkpt lat="42.82334" lon="0.66981">
        <ele>1906.6</ele>
        <time>2018-11-24T23:26:29Z</time>
      </trkpt>
      <trkpt lat="42.82332" lon="0.66982">
        <ele>1906.1</ele>
        <time>2018-11-24T23:26:29Z</time>
      </trkpt>
      <trkpt lat="42.8233" lon="0.66981">
        <ele>1905.4</ele>
        <time>2018-11-24T23:26:30Z</time>
      </trkpt>
      <trkpt lat="42.82328" lon="0.66982">
        <ele>1904.8</ele>
        <time>2018-11-24T23:26:31Z</time>
      </trkpt>
      <trkpt lat="42.82326" lon="0.66985">
        <ele>1904.2</ele>
        <time>2018-11-24T23:26:32Z</time>
      </trkpt>
      <trkpt lat="42.82324" lon="0.66985">
        <ele>1903.5</ele>
        <time>2018-11-24T23:26:33Z</time>
      </trkpt>
      <trkpt lat="42.82321" lon="0.66985">
        <ele>1902.7</ele>
        <time>2018-11-24T23:26:34Z</time>
      </trkpt>
      <trkpt lat="42.82319" lon="0.66986">
        <ele>1902.3</ele>
        <time>2018-11-24T23:26:35Z</time>
      </trkpt>
      <trkpt lat="42.82316" lon="0.66987">
        <ele>1901.5</ele>
        <time>2018-11-24T23:26:36Z</time>
      </trkpt>
      <trkpt lat="42.82313" lon="0.66988">
        <ele>1900.5</ele>
        <time>2018-11-24T23:26:38Z</time>
      </trkpt>
      <trkpt lat="42.8231" lon="0.66989">
        <ele>1899.6</ele>
        <time>2018-11-24T23:26:39Z</time>
      </trkpt>
      <trkpt lat="42.82307" lon="0.6699">
        <ele>1898.9</ele>
        <time>2018-11-24T23:26:40Z</time>
      </trkpt>
      <trkpt lat="42.82304" lon="0.66991">
        <ele>1898.1</ele>
        <time>2018-11-24T23:26:41Z</time>
      </trkpt>
      <trkpt lat="42.82302" lon="0.66991">
        <ele>1897.6</ele>
        <time>2018-11-24T23:26:42Z</time>
      </trkpt>
      <trkpt lat="42.82299" lon="0.66991">
        <ele>1897.2</ele>
        <time>2018-11-24T23:26:43Z</time>
      </trkpt>
      <trkpt lat="42.82297" lon="0.66992">
        <ele>1896.8</ele>
        <time>2018-11-24T23:26:44Z</time>
      </trkpt>
      <trkpt lat="42.82295" lon="0.66993">
        <ele>1896.2</ele>
        <time>2018-11-24T23:26:45Z</time>
      </trkpt>
      <trkpt lat="42.82293" lon="0.66995">
        <ele>1895.8</ele>
        <time>2018-11-24T23:26:46Z</time>
      </trkpt>
      <trkpt lat="42.82291" lon="0.66996">
        <ele>1895.2</ele>
        <time>2018-11-24T23:26:47Z</time>
      </trkpt>
      <trkpt lat="42.8229" lon="0.66998">
        <ele>1894.8</ele>
        <time>2018-11-24T23:26:48Z</time>
      </trkpt>
      <trkpt lat="42.82288" lon="0.66999">
        <ele>1894.5</ele>
        <time>2018-11-24T23:26:48Z</time>
      </trkpt>
      <trkpt lat="42.82286" lon="0.67">
        <ele>1894.1</ele>
        <time>2018-11-24T23:26:49Z</time>
      </trkpt>
      <trkpt lat="42.82283" lon="0.67001">
        <ele>1893.6</ele>
        <time>2018-11-24T23:26:50Z</time>
      </trkpt>
      <trkpt lat="42.82281" lon="0.67003">
        <ele>1893.1</ele>
        <time>2018-11-24T23:26:52Z</time>
      </trkpt>
      <trkpt lat="42.82278" lon="0.67005">
        <ele>1892.7</ele>
        <time>2018-11-24T23:26:53Z</time>
      </trkpt>
      <trkpt lat="42.82276" lon="0.67007">
        <ele>1887.8</ele>
        <time>2018-11-24T23:26:54Z</time>
      </trkpt>
      <trkpt lat="42.82273" lon="0.67009">
        <ele>1887.9</ele>
        <time>2018-11-24T23:26:55Z</time>
      </trkpt>
      <trkpt lat="42.82271" lon="0.6701">
        <ele>1888</ele>
        <time>2018-11-24T23:26:56Z</time>
      </trkpt>
      <trkpt lat="42.82269" lon="0.67011">
        <ele>1888.2</ele>
        <time>2018-11-24T23:26:57Z</time>
      </trkpt>
      <trkpt lat="42.82267" lon="0.67013">
        <ele>1888.3</ele>
        <time>2018-11-24T23:26:58Z</time>
      </trkpt>
      <trkpt lat="42.82265" lon="0.67014">
        <ele>1888.4</ele>
        <time>2018-11-24T23:26:59Z</time>
      </trkpt>
      <trkpt lat="42.82263" lon="0.67014">
        <ele>1888.5</ele>
        <time>2018-11-24T23:26:59Z</time>
      </trkpt>
      <trkpt lat="42.8226" lon="0.67016">
        <ele>1888.8</ele>
        <time>2018-11-24T23:27:01Z</time>
      </trkpt>
      <trkpt lat="42.82257" lon="0.67019">
        <ele>1889.1</ele>
        <time>2018-11-24T23:27:02Z</time>
      </trkpt>
      <trkpt lat="42.82254" lon="0.67021">
        <ele>1889.4</ele>
        <time>2018-11-24T23:27:03Z</time>
      </trkpt>
      <trkpt lat="42.82252" lon="0.67023">
        <ele>1889.5</ele>
        <time>2018-11-24T23:27:05Z</time>
      </trkpt>
      <trkpt lat="42.82249" lon="0.67025">
        <ele>1889.5</ele>
        <time>2018-11-24T23:27:06Z</time>
      </trkpt>
      <trkpt lat="42.82246" lon="0.67026">
        <ele>1889.5</ele>
        <time>2018-11-24T23:27:07Z</time>
      </trkpt>
      <trkpt lat="42.82244" lon="0.67027">
        <ele>1889.5</ele>
        <time>2018-11-24T23:27:08Z</time>
      </trkpt>
      <trkpt lat="42.82241" lon="0.67027">
        <ele>1889.1</ele>
        <time>2018-11-24T23:27:09Z</time>
      </trkpt>
      <trkpt lat="42.82239" lon="0.67027">
        <ele>1888.9</ele>
        <time>2018-11-24T23:27:10Z</time>
      </trkpt>
      <trkpt lat="42.82237" lon="0.67028">
        <ele>1888.8</ele>
        <time>2018-11-24T23:27:11Z</time>
      </trkpt>
      <trkpt lat="42.82234" lon="0.67028">
        <ele>1888.4</ele>
        <time>2018-11-24T23:27:12Z</time>
      </trkpt>
      <trkpt lat="42.82232" lon="0.67027">
        <ele>1888.1</ele>
        <time>2018-11-24T23:27:13Z</time>
      </trkpt>
      <trkpt lat="42.82229" lon="0.67028">
        <ele>1888</ele>
        <time>2018-11-24T23:27:14Z</time>
      </trkpt>
      <trkpt lat="42.82227" lon="0.67028">
        <ele>1887.8</ele>
        <time>2018-11-24T23:27:15Z</time>
      </trkpt>
      <trkpt lat="42.82225" lon="0.67028">
        <ele>1887.7</ele>
        <time>2018-11-24T23:27:16Z</time>
      </trkpt>
      <trkpt lat="42.82223" lon="0.67028">
        <ele>1892.5</ele>
        <time>2018-11-24T23:27:16Z</time>
      </trkpt>
      <trkpt lat="42.82221" lon="0.67028">
        <ele>1892.8</ele>
        <time>2018-11-24T23:27:17Z</time>
      </trkpt>
      <trkpt lat="42.82217" lon="0.67029">
        <ele>1893.3</ele>
        <time>2018-11-24T23:27:19Z</time>
      </trkpt>
      <trkpt lat="42.82215" lon="0.67029">
        <ele>1893.5</ele>
        <time>2018-11-24T23:27:20Z</time>
      </trkpt>
      <trkpt lat="42.82212" lon="0.6703">
        <ele>1893.8</ele>
        <time>2018-11-24T23:27:21Z</time>
      </trkpt>
      <trkpt lat="42.8221" lon="0.67029">
        <ele>1894.3</ele>
        <time>2018-11-24T23:27:22Z</time>
      </trkpt>
      <trkpt lat="42.82208" lon="0.67029">
        <ele>1894.7</ele>
        <time>2018-11-24T23:27:22Z</time>
      </trkpt>
      <trkpt lat="42.82205" lon="0.67028">
        <ele>1895.2</ele>
        <time>2018-11-24T23:27:24Z</time>
      </trkpt>
      <trkpt lat="42.82202" lon="0.67028">
        <ele>1895.9</ele>
        <time>2018-11-24T23:27:25Z</time>
      </trkpt>
      <trkpt lat="42.82199" lon="0.67028">
        <ele>1896.3</ele>
        <time>2018-11-24T23:27:26Z</time>
      </trkpt>
      <trkpt lat="42.82196" lon="0.67029">
        <ele>1896.4</ele>
        <time>2018-11-24T23:27:27Z</time>
      </trkpt>
      <trkpt lat="42.82194" lon="0.67031">
        <ele>1896.5</ele>
        <time>2018-11-24T23:27:28Z</time>
      </trkpt>
      <trkpt lat="42.82192" lon="0.67032">
        <ele>1896.3</ele>
        <time>2018-11-24T23:27:29Z</time>
      </trkpt>
      <trkpt lat="42.82191" lon="0.67034">
        <ele>1896.2</ele>
        <time>2018-11-24T23:27:30Z</time>
      </trkpt>
      <trkpt lat="42.82188" lon="0.67035">
        <ele>1896.2</ele>
        <time>2018-11-24T23:27:31Z</time>
      </trkpt>
      <trkpt lat="42.82187" lon="0.67037">
        <ele>1895.7</ele>
        <time>2018-11-24T23:27:32Z</time>
      </trkpt>
      <trkpt lat="42.82184" lon="0.67037">
        <ele>1896.1</ele>
        <time>2018-11-24T23:27:33Z</time>
      </trkpt>
      <trkpt lat="42.82182" lon="0.67037">
        <ele>1896.3</ele>
        <time>2018-11-24T23:27:34Z</time>
      </trkpt>
      <trkpt lat="42.8218" lon="0.67036">
        <ele>1896.3</ele>
        <time>2018-11-24T23:27:35Z</time>
      </trkpt>
      <trkpt lat="42.82178" lon="0.67036">
        <ele>1896.3</ele>
        <time>2018-11-24T23:27:35Z</time>
      </trkpt>
      <trkpt lat="42.82176" lon="0.67038">
        <ele>1895.8</ele>
        <time>2018-11-24T23:27:36Z</time>
      </trkpt>
      <trkpt lat="42.82175" lon="0.6704">
        <ele>1895.3</ele>
        <time>2018-11-24T23:27:37Z</time>
      </trkpt>
      <trkpt lat="42.82173" lon="0.67043">
        <ele>1894.6</ele>
        <time>2018-11-24T23:27:38Z</time>
      </trkpt>
      <trkpt lat="42.82173" lon="0.67046">
        <ele>1893.7</ele>
        <time>2018-11-24T23:27:39Z</time>
      </trkpt>
      <trkpt lat="42.8217" lon="0.67046">
        <ele>1893.4</ele>
        <time>2018-11-24T23:27:40Z</time>
      </trkpt>
      <trkpt lat="42.82168" lon="0.67045">
        <ele>1893.7</ele>
        <time>2018-11-24T23:27:41Z</time>
      </trkpt>
      <trkpt lat="42.82167" lon="0.67043">
        <ele>1894</ele>
        <time>2018-11-24T23:27:42Z</time>
      </trkpt>
      <trkpt lat="42.82165" lon="0.6704">
        <ele>1894.6</ele>
        <time>2018-11-24T23:27:43Z</time>
      </trkpt>
      <trkpt lat="42.82164" lon="0.67037">
        <ele>1895.1</ele>
        <time>2018-11-24T23:27:43Z</time>
      </trkpt>
      <trkpt lat="42.82163" lon="0.67034">
        <ele>1895.8</ele>
        <time>2018-11-24T23:27:45Z</time>
      </trkpt>
      <trkpt lat="42.82161" lon="0.67031">
        <ele>1896.1</ele>
        <time>2018-11-24T23:27:46Z</time>
      </trkpt>
      <trkpt lat="42.8216" lon="0.67027">
        <ele>1897</ele>
        <time>2018-11-24T23:27:47Z</time>
      </trkpt>
      <trkpt lat="42.82159" lon="0.67024">
        <ele>1897.4</ele>
        <time>2018-11-24T23:27:48Z</time>
      </trkpt>
      <trkpt lat="42.82158" lon="0.67022">
        <ele>1897.7</ele>
        <time>2018-11-24T23:27:49Z</time>
      </trkpt>
      <trkpt lat="42.82157" lon="0.6702">
        <ele>1898.1</ele>
        <time>2018-11-24T23:27:50Z</time>
      </trkpt>
      <trkpt lat="42.82156" lon="0.67017">
        <ele>1898.3</ele>
        <time>2018-11-24T23:27:50Z</time>
      </trkpt>
      <trkpt lat="42.82154" lon="0.67015">
        <ele>1898.4</ele>
        <time>2018-11-24T23:27:51Z</time>
      </trkpt>
      <trkpt lat="42.82153" lon="0.67013">
        <ele>1898.4</ele>
        <time>2018-11-24T23:27:52Z</time>
      </trkpt>
      <trkpt lat="42.82151" lon="0.67011">
        <ele>1898.6</ele>
        <time>2018-11-24T23:27:53Z</time>
      </trkpt>
      <trkpt lat="42.8215" lon="0.67009">
        <ele>1898.7</ele>
        <time>2018-11-24T23:27:54Z</time>
      </trkpt>
      <trkpt lat="42.82149" lon="0.67006">
        <ele>1898.9</ele>
        <time>2018-11-24T23:27:55Z</time>
      </trkpt>
      <trkpt lat="42.82147" lon="0.67004">
        <ele>1898.8</ele>
        <time>2018-11-24T23:27:56Z</time>
      </trkpt>
      <trkpt lat="42.82145" lon="0.67001">
        <ele>1898.7</ele>
        <time>2018-11-24T23:27:57Z</time>
      </trkpt>
      <trkpt lat="42.82143" lon="0.66998">
        <ele>1898.7</ele>
        <time>2018-11-24T23:27:58Z</time>
      </trkpt>
      <trkpt lat="42.82141" lon="0.66995">
        <ele>1898.4</ele>
        <time>2018-11-24T23:27:59Z</time>
      </trkpt>
      <trkpt lat="42.82139" lon="0.66992">
        <ele>1898.2</ele>
        <time>2018-11-24T23:28:00Z</time>
      </trkpt>
      <trkpt lat="42.82137" lon="0.6699">
        <ele>1897.9</ele>
        <time>2018-11-24T23:28:01Z</time>
      </trkpt>
      <trkpt lat="42.82135" lon="0.66987">
        <ele>1897.6</ele>
        <time>2018-11-24T23:28:02Z</time>
      </trkpt>
      <trkpt lat="42.82134" lon="0.66985">
        <ele>1897.2</ele>
        <time>2018-11-24T23:28:03Z</time>
      </trkpt>
      <trkpt lat="42.82132" lon="0.66983">
        <ele>1896.8</ele>
        <time>2018-11-24T23:28:04Z</time>
      </trkpt>
      <trkpt lat="42.8213" lon="0.66981">
        <ele>1896.6</ele>
        <time>2018-11-24T23:28:05Z</time>
      </trkpt>
      <trkpt lat="42.82128" lon="0.66979">
        <ele>1896.1</ele>
        <time>2018-11-24T23:28:06Z</time>
      </trkpt>
      <trkpt lat="42.82126" lon="0.66978">
        <ele>1895.9</ele>
        <time>2018-11-24T23:28:07Z</time>
      </trkpt>
      <trkpt lat="42.82124" lon="0.66977">
        <ele>1895.3</ele>
        <time>2018-11-24T23:28:08Z</time>
      </trkpt>
      <trkpt lat="42.82123" lon="0.66975">
        <ele>1895.1</ele>
        <time>2018-11-24T23:28:09Z</time>
      </trkpt>
      <trkpt lat="42.82121" lon="0.66972">
        <ele>1894.9</ele>
        <time>2018-11-24T23:28:10Z</time>
      </trkpt>
      <trkpt lat="42.82118" lon="0.6697">
        <ele>1894.3</ele>
        <time>2018-11-24T23:28:11Z</time>
      </trkpt>
      <trkpt lat="42.82116" lon="0.66967">
        <ele>1894.1</ele>
        <time>2018-11-24T23:28:12Z</time>
      </trkpt>
      <trkpt lat="42.82114" lon="0.66964">
        <ele>1893.8</ele>
        <time>2018-11-24T23:28:13Z</time>
      </trkpt>
      <trkpt lat="42.82113" lon="0.66962">
        <ele>1893.7</ele>
        <time>2018-11-24T23:28:14Z</time>
      </trkpt>
      <trkpt lat="42.82111" lon="0.6696">
        <ele>1893.3</ele>
        <time>2018-11-24T23:28:15Z</time>
      </trkpt>
      <trkpt lat="42.82109" lon="0.66958">
        <ele>1886.8</ele>
        <time>2018-11-24T23:28:16Z</time>
      </trkpt>
      <trkpt lat="42.82107" lon="0.66956">
        <ele>1887</ele>
        <time>2018-11-24T23:28:17Z</time>
      </trkpt>
      <trkpt lat="42.82106" lon="0.66954">
        <ele>1887</ele>
        <time>2018-11-24T23:28:18Z</time>
      </trkpt>
      <trkpt lat="42.82104" lon="0.66953">
        <ele>1887.2</ele>
        <time>2018-11-24T23:28:19Z</time>
      </trkpt>
      <trkpt lat="42.82102" lon="0.66951">
        <ele>1887.2</ele>
        <time>2018-11-24T23:28:19Z</time>
      </trkpt>
      <trkpt lat="42.82101" lon="0.6695">
        <ele>1887.3</ele>
        <time>2018-11-24T23:28:20Z</time>
      </trkpt>
      <trkpt lat="42.82098" lon="0.66946">
        <ele>1887.4</ele>
        <time>2018-11-24T23:28:22Z</time>
      </trkpt>
      <trkpt lat="42.82097" lon="0.66944">
        <ele>1887.5</ele>
        <time>2018-11-24T23:28:22Z</time>
      </trkpt>
      <trkpt lat="42.82096" lon="0.66942">
        <ele>1887.5</ele>
        <time>2018-11-24T23:28:23Z</time>
      </trkpt>
      <trkpt lat="42.82095" lon="0.6694">
        <ele>1887.6</ele>
        <time>2018-11-24T23:28:24Z</time>
      </trkpt>
      <trkpt lat="42.82094" lon="0.66938">
        <ele>1887.6</ele>
        <time>2018-11-24T23:28:25Z</time>
      </trkpt>
      <trkpt lat="42.82092" lon="0.66935">
        <ele>1887.6</ele>
        <time>2018-11-24T23:28:26Z</time>
      </trkpt>
      <trkpt lat="42.82091" lon="0.66933">
        <ele>1887.7</ele>
        <time>2018-11-24T23:28:26Z</time>
      </trkpt>
      <trkpt lat="42.8209" lon="0.66931">
        <ele>1887.8</ele>
        <time>2018-11-24T23:28:27Z</time>
      </trkpt>
      <trkpt lat="42.82089" lon="0.66928">
        <ele>1887.9</ele>
        <time>2018-11-24T23:28:28Z</time>
      </trkpt>
      <trkpt lat="42.82087" lon="0.66926">
        <ele>1888</ele>
        <time>2018-11-24T23:28:29Z</time>
      </trkpt>
      <trkpt lat="42.82085" lon="0.66924">
        <ele>1888.2</ele>
        <time>2018-11-24T23:28:30Z</time>
      </trkpt>
      <trkpt lat="42.82083" lon="0.66922">
        <ele>1888.3</ele>
        <time>2018-11-24T23:28:31Z</time>
      </trkpt>
      <trkpt lat="42.82081" lon="0.6692">
        <ele>1888.7</ele>
        <time>2018-11-24T23:28:32Z</time>
      </trkpt>
      <trkpt lat="42.8208" lon="0.66918">
        <ele>1888.7</ele>
        <time>2018-11-24T23:28:33Z</time>
      </trkpt>
      <trkpt lat="42.82079" lon="0.66915">
        <ele>1888.8</ele>
        <time>2018-11-24T23:28:34Z</time>
      </trkpt>
      <trkpt lat="42.82077" lon="0.66911">
        <ele>1889</ele>
        <time>2018-11-24T23:28:35Z</time>
      </trkpt>
      <trkpt lat="42.82076" lon="0.66908">
        <ele>1889</ele>
        <time>2018-11-24T23:28:36Z</time>
      </trkpt>
      <trkpt lat="42.82074" lon="0.66906">
        <ele>1889.1</ele>
        <time>2018-11-24T23:28:37Z</time>
      </trkpt>
      <trkpt lat="42.82072" lon="0.66903">
        <ele>1889.3</ele>
        <time>2018-11-24T23:28:38Z</time>
      </trkpt>
      <trkpt lat="42.82071" lon="0.66901">
        <ele>1889.4</ele>
        <time>2018-11-24T23:28:39Z</time>
      </trkpt>
      <trkpt lat="42.82069" lon="0.66898">
        <ele>1889.8</ele>
        <time>2018-11-24T23:28:40Z</time>
      </trkpt>
      <trkpt lat="42.82067" lon="0.66896">
        <ele>1889.8</ele>
        <time>2018-11-24T23:28:41Z</time>
      </trkpt>
      <trkpt lat="42.82065" lon="0.66893">
        <ele>1890.1</ele>
        <time>2018-11-24T23:28:42Z</time>
      </trkpt>
      <trkpt lat="42.82063" lon="0.66891">
        <ele>1889.9</ele>
        <time>2018-11-24T23:28:43Z</time>
      </trkpt>
      <trkpt lat="42.82061" lon="0.6689">
        <ele>1889.7</ele>
        <time>2018-11-24T23:28:44Z</time>
      </trkpt>
      <trkpt lat="42.82059" lon="0.66888">
        <ele>1889.5</ele>
        <time>2018-11-24T23:28:45Z</time>
      </trkpt>
      <trkpt lat="42.82057" lon="0.66886">
        <ele>1889.4</ele>
        <time>2018-11-24T23:28:46Z</time>
      </trkpt>
      <trkpt lat="42.82055" lon="0.66885">
        <ele>1889.5</ele>
        <time>2018-11-24T23:28:47Z</time>
      </trkpt>
      <trkpt lat="42.82054" lon="0.66883">
        <ele>1889.7</ele>
        <time>2018-11-24T23:28:48Z</time>
      </trkpt>
      <trkpt lat="42.82055" lon="0.66879">
        <ele>1889.5</ele>
        <time>2018-11-24T23:28:49Z</time>
      </trkpt>
      <trkpt lat="42.82056" lon="0.66877">
        <ele>1889</ele>
        <time>2018-11-24T23:28:50Z</time>
      </trkpt>
      <trkpt lat="42.82054" lon="0.66877">
        <ele>1889.2</ele>
        <time>2018-11-24T23:28:50Z</time>
      </trkpt>
      <trkpt lat="42.82052" lon="0.66878">
        <ele>1889.6</ele>
        <time>2018-11-24T23:28:51Z</time>
      </trkpt>
      <trkpt lat="42.8205" lon="0.66874">
        <ele>1889.3</ele>
        <time>2018-11-24T23:28:52Z</time>
      </trkpt>
      <trkpt lat="42.82049" lon="0.66872">
        <ele>1888.9</ele>
        <time>2018-11-24T23:28:53Z</time>
      </trkpt>
      <trkpt lat="42.82048" lon="0.6687">
        <ele>1888.7</ele>
        <time>2018-11-24T23:28:54Z</time>
      </trkpt>
      <trkpt lat="42.82047" lon="0.66868">
        <ele>1888.6</ele>
        <time>2018-11-24T23:28:55Z</time>
      </trkpt>
      <trkpt lat="42.82045" lon="0.66865">
        <ele>1888.4</ele>
        <time>2018-11-24T23:28:56Z</time>
      </trkpt>
      <trkpt lat="42.82043" lon="0.66862">
        <ele>1888.1</ele>
        <time>2018-11-24T23:28:57Z</time>
      </trkpt>
      <trkpt lat="42.82041" lon="0.66861">
        <ele>1888</ele>
        <time>2018-11-24T23:28:58Z</time>
      </trkpt>
      <trkpt lat="42.8204" lon="0.66857">
        <ele>1887.8</ele>
        <time>2018-11-24T23:28:59Z</time>
      </trkpt>
      <trkpt lat="42.82039" lon="0.66855">
        <ele>1887.5</ele>
        <time>2018-11-24T23:29:00Z</time>
      </trkpt>
      <trkpt lat="42.82038" lon="0.66852">
        <ele>1887.4</ele>
        <time>2018-11-24T23:29:01Z</time>
      </trkpt>
      <trkpt lat="42.82037" lon="0.6685">
        <ele>1887.3</ele>
        <time>2018-11-24T23:29:01Z</time>
      </trkpt>
      <trkpt lat="42.82035" lon="0.66849">
        <ele>1887.2</ele>
        <time>2018-11-24T23:29:02Z</time>
      </trkpt>
      <trkpt lat="42.82034" lon="0.66846">
        <ele>1887.2</ele>
        <time>2018-11-24T23:29:03Z</time>
      </trkpt>
      <trkpt lat="42.82032" lon="0.66844">
        <ele>1887</ele>
        <time>2018-11-24T23:29:04Z</time>
      </trkpt>
      <trkpt lat="42.8203" lon="0.6684">
        <ele>1886.9</ele>
        <time>2018-11-24T23:29:06Z</time>
      </trkpt>
      <trkpt lat="42.82029" lon="0.66835">
        <ele>1893.4</ele>
        <time>2018-11-24T23:29:07Z</time>
      </trkpt>
      <trkpt lat="42.82027" lon="0.66832">
        <ele>1893.6</ele>
        <time>2018-11-24T23:29:08Z</time>
      </trkpt>
      <trkpt lat="42.82026" lon="0.6683">
        <ele>1893.8</ele>
        <time>2018-11-24T23:29:09Z</time>
      </trkpt>
      <trkpt lat="42.82024" lon="0.66828">
        <ele>1894</ele>
        <time>2018-11-24T23:29:10Z</time>
      </trkpt>
      <trkpt lat="42.82021" lon="0.66826">
        <ele>1894.2</ele>
        <time>2018-11-24T23:29:11Z</time>
      </trkpt>
      <trkpt lat="42.82019" lon="0.66825">
        <ele>1894.5</ele>
        <time>2018-11-24T23:29:12Z</time>
      </trkpt>
      <trkpt lat="42.82017" lon="0.66825">
        <ele>1894.8</ele>
        <time>2018-11-24T23:29:13Z</time>
      </trkpt>
      <trkpt lat="42.82014" lon="0.66825">
        <ele>1895</ele>
        <time>2018-11-24T23:29:14Z</time>
      </trkpt>
      <trkpt lat="42.82012" lon="0.66824">
        <ele>1895.1</ele>
        <time>2018-11-24T23:29:15Z</time>
      </trkpt>
      <trkpt lat="42.82009" lon="0.66824">
        <ele>1895.2</ele>
        <time>2018-11-24T23:29:16Z</time>
      </trkpt>
      <trkpt lat="42.82007" lon="0.66823">
        <ele>1895.5</ele>
        <time>2018-11-24T23:29:17Z</time>
      </trkpt>
      <trkpt lat="42.82004" lon="0.66823">
        <ele>1895.6</ele>
        <time>2018-11-24T23:29:18Z</time>
      </trkpt>
      <trkpt lat="42.82003" lon="0.66822">
        <ele>1895.9</ele>
        <time>2018-11-24T23:29:19Z</time>
      </trkpt>
      <trkpt lat="42.82" lon="0.66822">
        <ele>1896</ele>
        <time>2018-11-24T23:29:20Z</time>
      </trkpt>
      <trkpt lat="42.81998" lon="0.66822">
        <ele>1896</ele>
        <time>2018-11-24T23:29:21Z</time>
      </trkpt>
      <trkpt lat="42.81995" lon="0.66823">
        <ele>1896</ele>
        <time>2018-11-24T23:29:22Z</time>
      </trkpt>
      <trkpt lat="42.81993" lon="0.66824">
        <ele>1895.9</ele>
        <time>2018-11-24T23:29:23Z</time>
      </trkpt>
      <trkpt lat="42.81991" lon="0.66825">
        <ele>1895.7</ele>
        <time>2018-11-24T23:29:24Z</time>
      </trkpt>
      <trkpt lat="42.81989" lon="0.66826">
        <ele>1895.6</ele>
        <time>2018-11-24T23:29:25Z</time>
      </trkpt>
      <trkpt lat="42.81986" lon="0.66825">
        <ele>1895.7</ele>
        <time>2018-11-24T23:29:26Z</time>
      </trkpt>
      <trkpt lat="42.81984" lon="0.66825">
        <ele>1895.6</ele>
        <time>2018-11-24T23:29:27Z</time>
      </trkpt>
      <trkpt lat="42.81982" lon="0.66825">
        <ele>1895.7</ele>
        <time>2018-11-24T23:29:27Z</time>
      </trkpt>
      <trkpt lat="42.81978" lon="0.66824">
        <ele>1895.5</ele>
        <time>2018-11-24T23:29:29Z</time>
      </trkpt>
      <trkpt lat="42.81975" lon="0.66824">
        <ele>1895.2</ele>
        <time>2018-11-24T23:29:30Z</time>
      </trkpt>
      <trkpt lat="42.81972" lon="0.66825">
        <ele>1894.9</ele>
        <time>2018-11-24T23:29:31Z</time>
      </trkpt>
      <trkpt lat="42.8197" lon="0.66824">
        <ele>1894.6</ele>
        <time>2018-11-24T23:29:32Z</time>
      </trkpt>
      <trkpt lat="42.81968" lon="0.66825">
        <ele>1894.2</ele>
        <time>2018-11-24T23:29:33Z</time>
      </trkpt>
      <trkpt lat="42.81966" lon="0.66825">
        <ele>1893.9</ele>
        <time>2018-11-24T23:29:34Z</time>
      </trkpt>
      <trkpt lat="42.81964" lon="0.66823">
        <ele>1894</ele>
        <time>2018-11-24T23:29:35Z</time>
      </trkpt>
      <trkpt lat="42.81962" lon="0.66821">
        <ele>1894.2</ele>
        <time>2018-11-24T23:29:36Z</time>
      </trkpt>
      <trkpt lat="42.81962" lon="0.66818">
        <ele>1894.9</ele>
        <time>2018-11-24T23:29:37Z</time>
      </trkpt>
      <trkpt lat="42.81961" lon="0.66815">
        <ele>1895.3</ele>
        <time>2018-11-24T23:29:38Z</time>
      </trkpt>
      <trkpt lat="42.81959" lon="0.66813">
        <ele>1895.5</ele>
        <time>2018-11-24T23:29:38Z</time>
      </trkpt>
      <trkpt lat="42.81958" lon="0.66809">
        <ele>1895.9</ele>
        <time>2018-11-24T23:29:40Z</time>
      </trkpt>
      <trkpt lat="42.81957" lon="0.66807">
        <ele>1896.3</ele>
        <time>2018-11-24T23:29:40Z</time>
      </trkpt>
      <trkpt lat="42.81956" lon="0.66805">
        <ele>1896.7</ele>
        <time>2018-11-24T23:29:41Z</time>
      </trkpt>
      <trkpt lat="42.81955" lon="0.66802">
        <ele>1896.9</ele>
        <time>2018-11-24T23:29:42Z</time>
      </trkpt>
      <trkpt lat="42.81954" lon="0.66798">
        <ele>1897.5</ele>
        <time>2018-11-24T23:29:43Z</time>
      </trkpt>
      <trkpt lat="42.81953" lon="0.66796">
        <ele>1897.7</ele>
        <time>2018-11-24T23:29:44Z</time>
      </trkpt>
      <trkpt lat="42.81951" lon="0.66793">
        <ele>1898.2</ele>
        <time>2018-11-24T23:29:45Z</time>
      </trkpt>
      <trkpt lat="42.8195" lon="0.6679">
        <ele>1898.3</ele>
        <time>2018-11-24T23:29:46Z</time>
      </trkpt>
      <trkpt lat="42.81949" lon="0.66787">
        <ele>1898.5</ele>
        <time>2018-11-24T23:29:47Z</time>
      </trkpt>
      <trkpt lat="42.81948" lon="0.66784">
        <ele>1898.7</ele>
        <time>2018-11-24T23:29:48Z</time>
      </trkpt>
      <trkpt lat="42.81946" lon="0.66781">
        <ele>1898.7</ele>
        <time>2018-11-24T23:29:49Z</time>
      </trkpt>
      <trkpt lat="42.81945" lon="0.66779">
        <ele>1898.8</ele>
        <time>2018-11-24T23:29:50Z</time>
      </trkpt>
      <trkpt lat="42.81944" lon="0.66776">
        <ele>1898.9</ele>
        <time>2018-11-24T23:29:51Z</time>
      </trkpt>
      <trkpt lat="42.81942" lon="0.66773">
        <ele>1899</ele>
        <time>2018-11-24T23:29:52Z</time>
      </trkpt>
      <trkpt lat="42.8194" lon="0.66769">
        <ele>1899</ele>
        <time>2018-11-24T23:29:53Z</time>
      </trkpt>
      <trkpt lat="42.81939" lon="0.66766">
        <ele>1898.9</ele>
        <time>2018-11-24T23:29:54Z</time>
      </trkpt>
      <trkpt lat="42.81937" lon="0.66763">
        <ele>1898.9</ele>
        <time>2018-11-24T23:29:56Z</time>
      </trkpt>
      <trkpt lat="42.81935" lon="0.6676">
        <ele>1898.7</ele>
        <time>2018-11-24T23:29:57Z</time>
      </trkpt>
      <trkpt lat="42.81933" lon="0.66757">
        <ele>1900.1</ele>
        <time>2018-11-24T23:29:58Z</time>
      </trkpt>
      <trkpt lat="42.81931" lon="0.66754">
        <ele>1900</ele>
        <time>2018-11-24T23:29:59Z</time>
      </trkpt>
      <trkpt lat="42.81929" lon="0.6675">
        <ele>1900</ele>
        <time>2018-11-24T23:30:01Z</time>
      </trkpt>
      <trkpt lat="42.81928" lon="0.66747">
        <ele>1900</ele>
        <time>2018-11-24T23:30:02Z</time>
      </trkpt>
      <trkpt lat="42.81927" lon="0.66743">
        <ele>1900.1</ele>
        <time>2018-11-24T23:30:03Z</time>
      </trkpt>
      <trkpt lat="42.81925" lon="0.66738">
        <ele>1900</ele>
        <time>2018-11-24T23:30:04Z</time>
      </trkpt>
      <trkpt lat="42.81924" lon="0.66735">
        <ele>1900</ele>
        <time>2018-11-24T23:30:06Z</time>
      </trkpt>
      <trkpt lat="42.81922" lon="0.66732">
        <ele>1900.1</ele>
        <time>2018-11-24T23:30:06Z</time>
      </trkpt>
      <trkpt lat="42.81921" lon="0.66729">
        <ele>1900.1</ele>
        <time>2018-11-24T23:30:08Z</time>
      </trkpt>
      <trkpt lat="42.81917" lon="0.66722">
        <ele>1900.1</ele>
        <time>2018-11-24T23:30:10Z</time>
      </trkpt>
      <trkpt lat="42.81915" lon="0.66719">
        <ele>1900.1</ele>
        <time>2018-11-24T23:30:11Z</time>
      </trkpt>
      <trkpt lat="42.81912" lon="0.66716">
        <ele>1900.1</ele>
        <time>2018-11-24T23:30:13Z</time>
      </trkpt>
      <trkpt lat="42.81909" lon="0.66714">
        <ele>1900</ele>
        <time>2018-11-24T23:30:14Z</time>
      </trkpt>
      <trkpt lat="42.81907" lon="0.66712">
        <ele>1900</ele>
        <time>2018-11-24T23:30:15Z</time>
      </trkpt>
      <trkpt lat="42.81905" lon="0.6671">
        <ele>1900</ele>
        <time>2018-11-24T23:30:16Z</time>
      </trkpt>
      <trkpt lat="42.81902" lon="0.66708">
        <ele>1900</ele>
        <time>2018-11-24T23:30:17Z</time>
      </trkpt>
      <trkpt lat="42.819" lon="0.66706">
        <ele>1900.1</ele>
        <time>2018-11-24T23:30:18Z</time>
      </trkpt>
      <trkpt lat="42.81897" lon="0.66704">
        <ele>1900</ele>
        <time>2018-11-24T23:30:20Z</time>
      </trkpt>
      <trkpt lat="42.81894" lon="0.66703">
        <ele>1900.1</ele>
        <time>2018-11-24T23:30:21Z</time>
      </trkpt>
      <trkpt lat="42.81892" lon="0.66701">
        <ele>1898</ele>
        <time>2018-11-24T23:30:22Z</time>
      </trkpt>
      <trkpt lat="42.8189" lon="0.66699">
        <ele>1897.9</ele>
        <time>2018-11-24T23:30:23Z</time>
      </trkpt>
      <trkpt lat="42.81888" lon="0.66698">
        <ele>1897.9</ele>
        <time>2018-11-24T23:30:24Z</time>
      </trkpt>
      <trkpt lat="42.81886" lon="0.66697">
        <ele>1897.8</ele>
        <time>2018-11-24T23:30:25Z</time>
      </trkpt>
      <trkpt lat="42.81884" lon="0.66696">
        <ele>1897.8</ele>
        <time>2018-11-24T23:30:26Z</time>
      </trkpt>
      <trkpt lat="42.81881" lon="0.66693">
        <ele>1897.5</ele>
        <time>2018-11-24T23:30:27Z</time>
      </trkpt>
      <trkpt lat="42.81879" lon="0.66692">
        <ele>1897.5</ele>
        <time>2018-11-24T23:30:28Z</time>
      </trkpt>
      <trkpt lat="42.81876" lon="0.66689">
        <ele>1897.3</ele>
        <time>2018-11-24T23:30:29Z</time>
      </trkpt>
      <trkpt lat="42.81874" lon="0.66688">
        <ele>1897.2</ele>
        <time>2018-11-24T23:30:30Z</time>
      </trkpt>
      <trkpt lat="42.81872" lon="0.66687">
        <ele>1897.3</ele>
        <time>2018-11-24T23:30:31Z</time>
      </trkpt>
      <trkpt lat="42.8187" lon="0.66686">
        <ele>1897.1</ele>
        <time>2018-11-24T23:30:32Z</time>
      </trkpt>
      <trkpt lat="42.81869" lon="0.66684">
        <ele>1897.2</ele>
        <time>2018-11-24T23:30:33Z</time>
      </trkpt>
      <trkpt lat="42.81867" lon="0.66683">
        <ele>1897</ele>
        <time>2018-11-24T23:30:33Z</time>
      </trkpt>
      <trkpt lat="42.81865" lon="0.66682">
        <ele>1896.9</ele>
        <time>2018-11-24T23:30:34Z</time>
      </trkpt>
      <trkpt lat="42.81862" lon="0.6668">
        <ele>1896.9</ele>
        <time>2018-11-24T23:30:35Z</time>
      </trkpt>
      <trkpt lat="42.8186" lon="0.66679">
        <ele>1896.9</ele>
        <time>2018-11-24T23:30:36Z</time>
      </trkpt>
      <trkpt lat="42.81857" lon="0.66677">
        <ele>1896.9</ele>
        <time>2018-11-24T23:30:38Z</time>
      </trkpt>
      <trkpt lat="42.81854" lon="0.66676">
        <ele>1896.8</ele>
        <time>2018-11-24T23:30:39Z</time>
      </trkpt>
      <trkpt lat="42.81852" lon="0.66675">
        <ele>1896.8</ele>
        <time>2018-11-24T23:30:40Z</time>
      </trkpt>
      <trkpt lat="42.81849" lon="0.66674">
        <ele>1896.6</ele>
        <time>2018-11-24T23:30:41Z</time>
      </trkpt>
      <trkpt lat="42.81847" lon="0.66673">
        <ele>1896.6</ele>
        <time>2018-11-24T23:30:42Z</time>
      </trkpt>
      <trkpt lat="42.81844" lon="0.66673">
        <ele>1896.7</ele>
        <time>2018-11-24T23:30:43Z</time>
      </trkpt>
      <trkpt lat="42.81842" lon="0.66672">
        <ele>1896.6</ele>
        <time>2018-11-24T23:30:44Z</time>
      </trkpt>
      <trkpt lat="42.81839" lon="0.66671">
        <ele>1896.5</ele>
        <time>2018-11-24T23:30:45Z</time>
      </trkpt>
      <trkpt lat="42.81837" lon="0.6667">
        <ele>1896.5</ele>
        <time>2018-11-24T23:30:46Z</time>
      </trkpt>
      <trkpt lat="42.81835" lon="0.66669">
        <ele>1896.6</ele>
        <time>2018-11-24T23:30:47Z</time>
      </trkpt>
      <trkpt lat="42.81833" lon="0.66668">
        <ele>1896.5</ele>
        <time>2018-11-24T23:30:48Z</time>
      </trkpt>
      <trkpt lat="42.81831" lon="0.66667">
        <ele>1896.4</ele>
        <time>2018-11-24T23:30:48Z</time>
      </trkpt>
      <trkpt lat="42.81829" lon="0.66666">
        <ele>1896.4</ele>
        <time>2018-11-24T23:30:49Z</time>
      </trkpt>
      <trkpt lat="42.81826" lon="0.66665">
        <ele>1896.5</ele>
        <time>2018-11-24T23:30:50Z</time>
      </trkpt>
      <trkpt lat="42.81824" lon="0.66663">
        <ele>1903.8</ele>
        <time>2018-11-24T23:30:52Z</time>
      </trkpt>
      <trkpt lat="42.81821" lon="0.66663">
        <ele>1904</ele>
        <time>2018-11-24T23:30:53Z</time>
      </trkpt>
      <trkpt lat="42.81819" lon="0.66663">
        <ele>1904.1</ele>
        <time>2018-11-24T23:30:54Z</time>
      </trkpt>
      <trkpt lat="42.81817" lon="0.66662">
        <ele>1904.3</ele>
        <time>2018-11-24T23:30:54Z</time>
      </trkpt>
      <trkpt lat="42.81815" lon="0.66662">
        <ele>1904.4</ele>
        <time>2018-11-24T23:30:55Z</time>
      </trkpt>
      <trkpt lat="42.81812" lon="0.66661">
        <ele>1904.6</ele>
        <time>2018-11-24T23:30:56Z</time>
      </trkpt>
      <trkpt lat="42.81809" lon="0.66661">
        <ele>1904.8</ele>
        <time>2018-11-24T23:30:58Z</time>
      </trkpt>
      <trkpt lat="42.81807" lon="0.6666">
        <ele>1905</ele>
        <time>2018-11-24T23:30:58Z</time>
      </trkpt>
      <trkpt lat="42.81804" lon="0.6666">
        <ele>1905.2</ele>
        <time>2018-11-24T23:30:59Z</time>
      </trkpt>
      <trkpt lat="42.81801" lon="0.6666">
        <ele>1905.4</ele>
        <time>2018-11-24T23:31:01Z</time>
      </trkpt>
      <trkpt lat="42.81799" lon="0.66659">
        <ele>1905.8</ele>
        <time>2018-11-24T23:31:02Z</time>
      </trkpt>
      <trkpt lat="42.81796" lon="0.66657">
        <ele>1906</ele>
        <time>2018-11-24T23:31:03Z</time>
      </trkpt>
      <trkpt lat="42.81793" lon="0.66657">
        <ele>1906.5</ele>
        <time>2018-11-24T23:31:04Z</time>
      </trkpt>
      <trkpt lat="42.8179" lon="0.66656">
        <ele>1906.8</ele>
        <time>2018-11-24T23:31:05Z</time>
      </trkpt>
      <trkpt lat="42.81788" lon="0.66654">
        <ele>1907.2</ele>
        <time>2018-11-24T23:31:06Z</time>
      </trkpt>
      <trkpt lat="42.81786" lon="0.66652">
        <ele>1907.7</ele>
        <time>2018-11-24T23:31:07Z</time>
      </trkpt>
      <trkpt lat="42.81783" lon="0.66651">
        <ele>1908.3</ele>
        <time>2018-11-24T23:31:09Z</time>
      </trkpt>
      <trkpt lat="42.81781" lon="0.66649">
        <ele>1908.8</ele>
        <time>2018-11-24T23:31:10Z</time>
      </trkpt>
      <trkpt lat="42.81778" lon="0.66648">
        <ele>1909.2</ele>
        <time>2018-11-24T23:31:11Z</time>
      </trkpt>
      <trkpt lat="42.81776" lon="0.66647">
        <ele>1909.6</ele>
        <time>2018-11-24T23:31:12Z</time>
      </trkpt>
      <trkpt lat="42.81773" lon="0.66646">
        <ele>1909.9</ele>
        <time>2018-11-24T23:31:13Z</time>
      </trkpt>
      <trkpt lat="42.8177" lon="0.66644">
        <ele>1909.7</ele>
        <time>2018-11-24T23:31:14Z</time>
      </trkpt>
      <trkpt lat="42.81768" lon="0.66642">
        <ele>1909.4</ele>
        <time>2018-11-24T23:31:15Z</time>
      </trkpt>
      <trkpt lat="42.81766" lon="0.6664">
        <ele>1909.2</ele>
        <time>2018-11-24T23:31:16Z</time>
      </trkpt>
      <trkpt lat="42.81764" lon="0.66639">
        <ele>1908.9</ele>
        <time>2018-11-24T23:31:17Z</time>
      </trkpt>
      <trkpt lat="42.81762" lon="0.66637">
        <ele>1908.6</ele>
        <time>2018-11-24T23:31:18Z</time>
      </trkpt>
      <trkpt lat="42.8176" lon="0.66635">
        <ele>1908.4</ele>
        <time>2018-11-24T23:31:19Z</time>
      </trkpt>
      <trkpt lat="42.81758" lon="0.66633">
        <ele>1908.3</ele>
        <time>2018-11-24T23:31:20Z</time>
      </trkpt>
      <trkpt lat="42.81755" lon="0.66632">
        <ele>1908.2</ele>
        <time>2018-11-24T23:31:21Z</time>
      </trkpt>
      <trkpt lat="42.81753" lon="0.66631">
        <ele>1908.1</ele>
        <time>2018-11-24T23:31:22Z</time>
      </trkpt>
      <trkpt lat="42.81751" lon="0.6663">
        <ele>1908</ele>
        <time>2018-11-24T23:31:23Z</time>
      </trkpt>
      <trkpt lat="42.81749" lon="0.66628">
        <ele>1907.9</ele>
        <time>2018-11-24T23:31:24Z</time>
      </trkpt>
      <trkpt lat="42.81746" lon="0.66627">
        <ele>1907.7</ele>
        <time>2018-11-24T23:31:25Z</time>
      </trkpt>
      <trkpt lat="42.81744" lon="0.66625">
        <ele>1907.6</ele>
        <time>2018-11-24T23:31:26Z</time>
      </trkpt>
      <trkpt lat="42.81741" lon="0.66624">
        <ele>1907.6</ele>
        <time>2018-11-24T23:31:27Z</time>
      </trkpt>
      <trkpt lat="42.81739" lon="0.66623">
        <ele>1907.5</ele>
        <time>2018-11-24T23:31:28Z</time>
      </trkpt>
      <trkpt lat="42.81737" lon="0.66622">
        <ele>1907.6</ele>
        <time>2018-11-24T23:31:29Z</time>
      </trkpt>
      <trkpt lat="42.81735" lon="0.66621">
        <ele>1907.4</ele>
        <time>2018-11-24T23:31:30Z</time>
      </trkpt>
      <trkpt lat="42.81732" lon="0.6662">
        <ele>1907.4</ele>
        <time>2018-11-24T23:31:31Z</time>
      </trkpt>
      <trkpt lat="42.8173" lon="0.66619">
        <ele>1907.4</ele>
        <time>2018-11-24T23:31:32Z</time>
      </trkpt>
      <trkpt lat="42.81727" lon="0.66618">
        <ele>1907.4</ele>
        <time>2018-11-24T23:31:33Z</time>
      </trkpt>
      <trkpt lat="42.81725" lon="0.66617">
        <ele>1907.4</ele>
        <time>2018-11-24T23:31:34Z</time>
      </trkpt>
      <trkpt lat="42.81723" lon="0.66616">
        <ele>1907.3</ele>
        <time>2018-11-24T23:31:35Z</time>
      </trkpt>
      <trkpt lat="42.8172" lon="0.66614">
        <ele>1907.2</ele>
        <time>2018-11-24T23:31:36Z</time>
      </trkpt>
      <trkpt lat="42.81718" lon="0.66613">
        <ele>1907.1</ele>
        <time>2018-11-24T23:31:37Z</time>
      </trkpt>
      <trkpt lat="42.81716" lon="0.66612">
        <ele>1907.2</ele>
        <time>2018-11-24T23:31:38Z</time>
      </trkpt>
      <trkpt lat="42.81714" lon="0.66611">
        <ele>1907.1</ele>
        <time>2018-11-24T23:31:39Z</time>
      </trkpt>
      <trkpt lat="42.81711" lon="0.6661">
        <ele>1913</ele>
        <time>2018-11-24T23:31:40Z</time>
      </trkpt>
      <trkpt lat="42.81709" lon="0.66609">
        <ele>1913.2</ele>
        <time>2018-11-24T23:31:41Z</time>
      </trkpt>
      <trkpt lat="42.81707" lon="0.66608">
        <ele>1913.4</ele>
        <time>2018-11-24T23:31:42Z</time>
      </trkpt>
      <trkpt lat="42.81705" lon="0.66607">
        <ele>1913.5</ele>
        <time>2018-11-24T23:31:43Z</time>
      </trkpt>
      <trkpt lat="42.81703" lon="0.66606">
        <ele>1913.9</ele>
        <time>2018-11-24T23:31:43Z</time>
      </trkpt>
      <trkpt lat="42.81701" lon="0.66605">
        <ele>1914.1</ele>
        <time>2018-11-24T23:31:44Z</time>
      </trkpt>
      <trkpt lat="42.81699" lon="0.66604">
        <ele>1914.2</ele>
        <time>2018-11-24T23:31:45Z</time>
      </trkpt>
      <trkpt lat="42.81697" lon="0.66603">
        <ele>1914.5</ele>
        <time>2018-11-24T23:31:46Z</time>
      </trkpt>
      <trkpt lat="42.81695" lon="0.66602">
        <ele>1914.7</ele>
        <time>2018-11-24T23:31:47Z</time>
      </trkpt>
      <trkpt lat="42.81693" lon="0.66601">
        <ele>1915</ele>
        <time>2018-11-24T23:31:47Z</time>
      </trkpt>
      <trkpt lat="42.81692" lon="0.666">
        <ele>1915.2</ele>
        <time>2018-11-24T23:31:48Z</time>
      </trkpt>
      <trkpt lat="42.81689" lon="0.66599">
        <ele>1915.5</ele>
        <time>2018-11-24T23:31:49Z</time>
      </trkpt>
      <trkpt lat="42.81687" lon="0.66598">
        <ele>1915.8</ele>
        <time>2018-11-24T23:31:50Z</time>
      </trkpt>
      <trkpt lat="42.81685" lon="0.66597">
        <ele>1916.1</ele>
        <time>2018-11-24T23:31:51Z</time>
      </trkpt>
      <trkpt lat="42.81683" lon="0.66596">
        <ele>1916.4</ele>
        <time>2018-11-24T23:31:52Z</time>
      </trkpt>
      <trkpt lat="42.81681" lon="0.66596">
        <ele>1916.7</ele>
        <time>2018-11-24T23:31:53Z</time>
      </trkpt>
      <trkpt lat="42.8168" lon="0.66595">
        <ele>1917</ele>
        <time>2018-11-24T23:31:53Z</time>
      </trkpt>
      <trkpt lat="42.81678" lon="0.66594">
        <ele>1917.4</ele>
        <time>2018-11-24T23:31:54Z</time>
      </trkpt>
      <trkpt lat="42.81676" lon="0.66593">
        <ele>1917.8</ele>
        <time>2018-11-24T23:31:55Z</time>
      </trkpt>
      <trkpt lat="42.81674" lon="0.66592">
        <ele>1918.2</ele>
        <time>2018-11-24T23:31:56Z</time>
      </trkpt>
      <trkpt lat="42.81672" lon="0.66591">
        <ele>1918.6</ele>
        <time>2018-11-24T23:31:57Z</time>
      </trkpt>
      <trkpt lat="42.8167" lon="0.66591">
        <ele>1919</ele>
        <time>2018-11-24T23:31:57Z</time>
      </trkpt>
      <trkpt lat="42.81668" lon="0.6659">
        <ele>1919.5</ele>
        <time>2018-11-24T23:31:58Z</time>
      </trkpt>
      <trkpt lat="42.81666" lon="0.6659">
        <ele>1919.9</ele>
        <time>2018-11-24T23:31:59Z</time>
      </trkpt>
      <trkpt lat="42.81664" lon="0.6659">
        <ele>1919.7</ele>
        <time>2018-11-24T23:32:00Z</time>
      </trkpt>
      <trkpt lat="42.81662" lon="0.66589">
        <ele>1919.3</ele>
        <time>2018-11-24T23:32:01Z</time>
      </trkpt>
      <trkpt lat="42.8166" lon="0.66588">
        <ele>1918.9</ele>
        <time>2018-11-24T23:32:01Z</time>
      </trkpt>
      <trkpt lat="42.81658" lon="0.66587">
        <ele>1921.4</ele>
        <time>2018-11-24T23:32:02Z</time>
      </trkpt>
      <trkpt lat="42.81657" lon="0.66586">
        <ele>1921.8</ele>
        <time>2018-11-24T23:32:03Z</time>
      </trkpt>
      <trkpt lat="42.81655" lon="0.66586">
        <ele>1922.1</ele>
        <time>2018-11-24T23:32:04Z</time>
      </trkpt>
      <trkpt lat="42.81653" lon="0.66585">
        <ele>1922.4</ele>
        <time>2018-11-24T23:32:04Z</time>
      </trkpt>
      <trkpt lat="42.81651" lon="0.66585">
        <ele>1922.6</ele>
        <time>2018-11-24T23:32:05Z</time>
      </trkpt>
      <trkpt lat="42.81647" lon="0.66585">
        <ele>1923.1</ele>
        <time>2018-11-24T23:32:07Z</time>
      </trkpt>
      <trkpt lat="42.81644" lon="0.66584">
        <ele>1923.6</ele>
        <time>2018-11-24T23:32:08Z</time>
      </trkpt>
      <trkpt lat="42.81642" lon="0.66584">
        <ele>1924.1</ele>
        <time>2018-11-24T23:32:09Z</time>
      </trkpt>
      <trkpt lat="42.8164" lon="0.66583">
        <ele>1924.4</ele>
        <time>2018-11-24T23:32:10Z</time>
      </trkpt>
      <trkpt lat="42.81637" lon="0.66583">
        <ele>1925</ele>
        <time>2018-11-24T23:32:11Z</time>
      </trkpt>
      <trkpt lat="42.81634" lon="0.66583">
        <ele>1925.2</ele>
        <time>2018-11-24T23:32:12Z</time>
      </trkpt>
      <trkpt lat="42.81631" lon="0.66583">
        <ele>1925.6</ele>
        <time>2018-11-24T23:32:13Z</time>
      </trkpt>
      <trkpt lat="42.81629" lon="0.66582">
        <ele>1926</ele>
        <time>2018-11-24T23:32:14Z</time>
      </trkpt>
      <trkpt lat="42.81626" lon="0.66582">
        <ele>1926.5</ele>
        <time>2018-11-24T23:32:15Z</time>
      </trkpt>
      <trkpt lat="42.81624" lon="0.66581">
        <ele>1927</ele>
        <time>2018-11-24T23:32:16Z</time>
      </trkpt>
      <trkpt lat="42.81621" lon="0.66581">
        <ele>1927.4</ele>
        <time>2018-11-24T23:32:17Z</time>
      </trkpt>
      <trkpt lat="42.81618" lon="0.66581">
        <ele>1928</ele>
        <time>2018-11-24T23:32:19Z</time>
      </trkpt>
      <trkpt lat="42.81615" lon="0.6658">
        <ele>1928.4</ele>
        <time>2018-11-24T23:32:20Z</time>
      </trkpt>
      <trkpt lat="42.81611" lon="0.6658">
        <ele>1928.9</ele>
        <time>2018-11-24T23:32:21Z</time>
      </trkpt>
      <trkpt lat="42.81609" lon="0.6658">
        <ele>1929.4</ele>
        <time>2018-11-24T23:32:22Z</time>
      </trkpt>
      <trkpt lat="42.81607" lon="0.6658">
        <ele>1929.6</ele>
        <time>2018-11-24T23:32:23Z</time>
      </trkpt>
      <trkpt lat="42.81605" lon="0.6658">
        <ele>1930</ele>
        <time>2018-11-24T23:32:24Z</time>
      </trkpt>
      <trkpt lat="42.81602" lon="0.66579">
        <ele>1929.8</ele>
        <time>2018-11-24T23:32:25Z</time>
      </trkpt>
      <trkpt lat="42.816" lon="0.66579">
        <ele>1929.4</ele>
        <time>2018-11-24T23:32:26Z</time>
      </trkpt>
      <trkpt lat="42.81598" lon="0.66578">
        <ele>1929</ele>
        <time>2018-11-24T23:32:27Z</time>
      </trkpt>
      <trkpt lat="42.81595" lon="0.66577">
        <ele>1928.7</ele>
        <time>2018-11-24T23:32:28Z</time>
      </trkpt>
      <trkpt lat="42.81593" lon="0.66577">
        <ele>1931.5</ele>
        <time>2018-11-24T23:32:28Z</time>
      </trkpt>
      <trkpt lat="42.81591" lon="0.66577">
        <ele>1931.8</ele>
        <time>2018-11-24T23:32:29Z</time>
      </trkpt>
      <trkpt lat="42.81589" lon="0.66577">
        <ele>1931.9</ele>
        <time>2018-11-24T23:32:30Z</time>
      </trkpt>
      <trkpt lat="42.81588" lon="0.66576">
        <ele>1932.2</ele>
        <time>2018-11-24T23:32:31Z</time>
      </trkpt>
      <trkpt lat="42.81585" lon="0.66574">
        <ele>1932.9</ele>
        <time>2018-11-24T23:32:32Z</time>
      </trkpt>
      <trkpt lat="42.81583" lon="0.66573">
        <ele>1933.6</ele>
        <time>2018-11-24T23:32:33Z</time>
      </trkpt>
      <trkpt lat="42.8158" lon="0.66572">
        <ele>1934</ele>
        <time>2018-11-24T23:32:34Z</time>
      </trkpt>
      <trkpt lat="42.81578" lon="0.66571">
        <ele>1934.7</ele>
        <time>2018-11-24T23:32:35Z</time>
      </trkpt>
      <trkpt lat="42.81576" lon="0.66569">
        <ele>1935.5</ele>
        <time>2018-11-24T23:32:36Z</time>
      </trkpt>
      <trkpt lat="42.81574" lon="0.66568">
        <ele>1935.9</ele>
        <time>2018-11-24T23:32:37Z</time>
      </trkpt>
      <trkpt lat="42.81572" lon="0.66567">
        <ele>1936.5</ele>
        <time>2018-11-24T23:32:38Z</time>
      </trkpt>
      <trkpt lat="42.8157" lon="0.66566">
        <ele>1937</ele>
        <time>2018-11-24T23:32:39Z</time>
      </trkpt>
      <trkpt lat="42.81568" lon="0.66565">
        <ele>1937.7</ele>
        <time>2018-11-24T23:32:39Z</time>
      </trkpt>
      <trkpt lat="42.81565" lon="0.66563">
        <ele>1938.4</ele>
        <time>2018-11-24T23:32:41Z</time>
      </trkpt>
      <trkpt lat="42.81563" lon="0.66562">
        <ele>1939.1</ele>
        <time>2018-11-24T23:32:42Z</time>
      </trkpt>
      <trkpt lat="42.81561" lon="0.66561">
        <ele>1939.5</ele>
        <time>2018-11-24T23:32:42Z</time>
      </trkpt>
      <trkpt lat="42.81559" lon="0.66561">
        <ele>1939.8</ele>
        <time>2018-11-24T23:32:43Z</time>
      </trkpt>
      <trkpt lat="42.81557" lon="0.6656">
        <ele>1939.8</ele>
        <time>2018-11-24T23:32:44Z</time>
      </trkpt>
      <trkpt lat="42.81554" lon="0.6656">
        <ele>1939.5</ele>
        <time>2018-11-24T23:32:45Z</time>
      </trkpt>
      <trkpt lat="42.81551" lon="0.66558">
        <ele>1938.9</ele>
        <time>2018-11-24T23:32:46Z</time>
      </trkpt>
      <trkpt lat="42.81549" lon="0.66556">
        <ele>1938.2</ele>
        <time>2018-11-24T23:32:48Z</time>
      </trkpt>
      <trkpt lat="42.81546" lon="0.66554">
        <ele>1938</ele>
        <time>2018-11-24T23:32:49Z</time>
      </trkpt>
      <trkpt lat="42.81544" lon="0.66553">
        <ele>1942.5</ele>
        <time>2018-11-24T23:32:50Z</time>
      </trkpt>
      <trkpt lat="42.81541" lon="0.66553">
        <ele>1942.9</ele>
        <time>2018-11-24T23:32:51Z</time>
      </trkpt>
      <trkpt lat="42.81539" lon="0.66552">
        <ele>1943.2</ele>
        <time>2018-11-24T23:32:52Z</time>
      </trkpt>
      <trkpt lat="42.81536" lon="0.66552">
        <ele>1943.3</ele>
        <time>2018-11-24T23:32:53Z</time>
      </trkpt>
      <trkpt lat="42.81534" lon="0.66551">
        <ele>1943.4</ele>
        <time>2018-11-24T23:32:54Z</time>
      </trkpt>
      <trkpt lat="42.81532" lon="0.66551">
        <ele>1943.6</ele>
        <time>2018-11-24T23:32:55Z</time>
      </trkpt>
      <trkpt lat="42.81529" lon="0.66551">
        <ele>1943.7</ele>
        <time>2018-11-24T23:32:56Z</time>
      </trkpt>
      <trkpt lat="42.81527" lon="0.66551">
        <ele>1943.8</ele>
        <time>2018-11-24T23:32:57Z</time>
      </trkpt>
      <trkpt lat="42.81524" lon="0.66552">
        <ele>1943.7</ele>
        <time>2018-11-24T23:32:58Z</time>
      </trkpt>
      <trkpt lat="42.81522" lon="0.66552">
        <ele>1943.6</ele>
        <time>2018-11-24T23:32:59Z</time>
      </trkpt>
      <trkpt lat="42.81519" lon="0.66552">
        <ele>1943.6</ele>
        <time>2018-11-24T23:33:00Z</time>
      </trkpt>
      <trkpt lat="42.81517" lon="0.66552">
        <ele>1943.7</ele>
        <time>2018-11-24T23:33:01Z</time>
      </trkpt>
      <trkpt lat="42.81514" lon="0.66552">
        <ele>1943.7</ele>
        <time>2018-11-24T23:33:02Z</time>
      </trkpt>
      <trkpt lat="42.81512" lon="0.66552">
        <ele>1943.7</ele>
        <time>2018-11-24T23:33:03Z</time>
      </trkpt>
      <trkpt lat="42.8151" lon="0.66552">
        <ele>1943.8</ele>
        <time>2018-11-24T23:33:03Z</time>
      </trkpt>
      <trkpt lat="42.81507" lon="0.66551">
        <ele>1944</ele>
        <time>2018-11-24T23:33:05Z</time>
      </trkpt>
      <trkpt lat="42.81504" lon="0.66552">
        <ele>1943.9</ele>
        <time>2018-11-24T23:33:06Z</time>
      </trkpt>
      <trkpt lat="42.81502" lon="0.66552">
        <ele>1943.7</ele>
        <time>2018-11-24T23:33:07Z</time>
      </trkpt>
      <trkpt lat="42.815" lon="0.66553">
        <ele>1943.5</ele>
        <time>2018-11-24T23:33:08Z</time>
      </trkpt>
      <trkpt lat="42.81497" lon="0.66553">
        <ele>1943.4</ele>
        <time>2018-11-24T23:33:09Z</time>
      </trkpt>
      <trkpt lat="42.81495" lon="0.66552">
        <ele>1943.5</ele>
        <time>2018-11-24T23:33:10Z</time>
      </trkpt>
      <trkpt lat="42.81492" lon="0.66552">
        <ele>1943.4</ele>
        <time>2018-11-24T23:33:11Z</time>
      </trkpt>
      <trkpt lat="42.8149" lon="0.66552">
        <ele>1943.5</ele>
        <time>2018-11-24T23:33:11Z</time>
      </trkpt>
      <trkpt lat="42.81488" lon="0.66551">
        <ele>1943.6</ele>
        <time>2018-11-24T23:33:12Z</time>
      </trkpt>
      <trkpt lat="42.81486" lon="0.6655">
        <ele>1943.8</ele>
        <time>2018-11-24T23:33:13Z</time>
      </trkpt>
      <trkpt lat="42.81483" lon="0.66548">
        <ele>1944.3</ele>
        <time>2018-11-24T23:33:14Z</time>
      </trkpt>
      <trkpt lat="42.81481" lon="0.66547">
        <ele>1944.9</ele>
        <time>2018-11-24T23:33:16Z</time>
      </trkpt>
      <trkpt lat="42.81478" lon="0.66546">
        <ele>1945</ele>
        <time>2018-11-24T23:33:17Z</time>
      </trkpt>
      <trkpt lat="42.81476" lon="0.66545">
        <ele>1945.1</ele>
        <time>2018-11-24T23:33:17Z</time>
      </trkpt>
      <trkpt lat="42.81474" lon="0.66544">
        <ele>1945.4</ele>
        <time>2018-11-24T23:33:18Z</time>
      </trkpt>
      <trkpt lat="42.81472" lon="0.66543">
        <ele>1945.7</ele>
        <time>2018-11-24T23:33:19Z</time>
      </trkpt>
      <trkpt lat="42.8147" lon="0.66541">
        <ele>1946</ele>
        <time>2018-11-24T23:33:20Z</time>
      </trkpt>
      <trkpt lat="42.81468" lon="0.6654">
        <ele>1946.3</ele>
        <time>2018-11-24T23:33:21Z</time>
      </trkpt>
      <trkpt lat="42.81466" lon="0.66539">
        <ele>1946.6</ele>
        <time>2018-11-24T23:33:22Z</time>
      </trkpt>
      <trkpt lat="42.81464" lon="0.66538">
        <ele>1946.7</ele>
        <time>2018-11-24T23:33:23Z</time>
      </trkpt>
      <trkpt lat="42.81462" lon="0.66537">
        <ele>1946.7</ele>
        <time>2018-11-24T23:33:23Z</time>
      </trkpt>
      <trkpt lat="42.8146" lon="0.66536">
        <ele>1946.9</ele>
        <time>2018-11-24T23:33:24Z</time>
      </trkpt>
      <trkpt lat="42.81458" lon="0.66535">
        <ele>1947.1</ele>
        <time>2018-11-24T23:33:25Z</time>
      </trkpt>
      <trkpt lat="42.81456" lon="0.66535">
        <ele>1947.1</ele>
        <time>2018-11-24T23:33:26Z</time>
      </trkpt>
      <trkpt lat="42.81453" lon="0.66533">
        <ele>1947.3</ele>
        <time>2018-11-24T23:33:27Z</time>
      </trkpt>
      <trkpt lat="42.81452" lon="0.66532">
        <ele>1947.4</ele>
        <time>2018-11-24T23:33:28Z</time>
      </trkpt>
      <trkpt lat="42.81448" lon="0.6653">
        <ele>1947.8</ele>
        <time>2018-11-24T23:33:29Z</time>
      </trkpt>
      <trkpt lat="42.81446" lon="0.66529">
        <ele>1947.8</ele>
        <time>2018-11-24T23:33:30Z</time>
      </trkpt>
      <trkpt lat="42.81443" lon="0.66527">
        <ele>1947.7</ele>
        <time>2018-11-24T23:33:32Z</time>
      </trkpt>
      <trkpt lat="42.81441" lon="0.66527">
        <ele>1947.8</ele>
        <time>2018-11-24T23:33:33Z</time>
      </trkpt>
      <trkpt lat="42.81439" lon="0.66526">
        <ele>1947.8</ele>
        <time>2018-11-24T23:33:33Z</time>
      </trkpt>
      <trkpt lat="42.81437" lon="0.66524">
        <ele>1947.9</ele>
        <time>2018-11-24T23:33:34Z</time>
      </trkpt>
      <trkpt lat="42.81435" lon="0.66523">
        <ele>1948</ele>
        <time>2018-11-24T23:33:35Z</time>
      </trkpt>
      <trkpt lat="42.81432" lon="0.66521">
        <ele>1948</ele>
        <time>2018-11-24T23:33:37Z</time>
      </trkpt>
      <trkpt lat="42.81429" lon="0.6652">
        <ele>1947.8</ele>
        <time>2018-11-24T23:33:38Z</time>
      </trkpt>
      <trkpt lat="42.81426" lon="0.66519">
        <ele>1947.8</ele>
        <time>2018-11-24T23:33:39Z</time>
      </trkpt>
      <trkpt lat="42.81423" lon="0.66518">
        <ele>1947.6</ele>
        <time>2018-11-24T23:33:40Z</time>
      </trkpt>
      <trkpt lat="42.8142" lon="0.66517">
        <ele>1947.4</ele>
        <time>2018-11-24T23:33:41Z</time>
      </trkpt>
      <trkpt lat="42.81418" lon="0.66516">
        <ele>1947</ele>
        <time>2018-11-24T23:33:42Z</time>
      </trkpt>
      <trkpt lat="42.81415" lon="0.66516">
        <ele>1946.6</ele>
        <time>2018-11-24T23:33:43Z</time>
      </trkpt>
      <trkpt lat="42.81412" lon="0.66516">
        <ele>1946.1</ele>
        <time>2018-11-24T23:33:45Z</time>
      </trkpt>
      <trkpt lat="42.81409" lon="0.66518">
        <ele>1945.6</ele>
        <time>2018-11-24T23:33:46Z</time>
      </trkpt>
      <trkpt lat="42.81407" lon="0.66519">
        <ele>1945.3</ele>
        <time>2018-11-24T23:33:47Z</time>
      </trkpt>
      <trkpt lat="42.81405" lon="0.66519">
        <ele>1944.9</ele>
        <time>2018-11-24T23:33:48Z</time>
      </trkpt>
      <trkpt lat="42.81403" lon="0.66519">
        <ele>1944.6</ele>
        <time>2018-11-24T23:33:49Z</time>
      </trkpt>
      <trkpt lat="42.814" lon="0.66519">
        <ele>1944.3</ele>
        <time>2018-11-24T23:33:50Z</time>
      </trkpt>
      <trkpt lat="42.81397" lon="0.66519">
        <ele>1944.1</ele>
        <time>2018-11-24T23:33:51Z</time>
      </trkpt>
      <trkpt lat="42.81394" lon="0.66519">
        <ele>1943.9</ele>
        <time>2018-11-24T23:33:52Z</time>
      </trkpt>
      <trkpt lat="42.81392" lon="0.66518">
        <ele>1943.6</ele>
        <time>2018-11-24T23:33:53Z</time>
      </trkpt>
      <trkpt lat="42.81389" lon="0.66518">
        <ele>1943.6</ele>
        <time>2018-11-24T23:33:54Z</time>
      </trkpt>
      <trkpt lat="42.81386" lon="0.66517">
        <ele>1943.4</ele>
        <time>2018-11-24T23:33:55Z</time>
      </trkpt>
      <trkpt lat="42.81384" lon="0.66517">
        <ele>1936.8</ele>
        <time>2018-11-24T23:33:56Z</time>
      </trkpt>
      <trkpt lat="42.8138" lon="0.66517">
        <ele>1936.9</ele>
        <time>2018-11-24T23:33:58Z</time>
      </trkpt>
      <trkpt lat="42.81378" lon="0.66517">
        <ele>1936.8</ele>
        <time>2018-11-24T23:33:58Z</time>
      </trkpt>
      <trkpt lat="42.81375" lon="0.66515">
        <ele>1936.9</ele>
        <time>2018-11-24T23:34:00Z</time>
      </trkpt>
      <trkpt lat="42.81373" lon="0.66515">
        <ele>1937</ele>
        <time>2018-11-24T23:34:01Z</time>
      </trkpt>
      <trkpt lat="42.81371" lon="0.66514">
        <ele>1936.9</ele>
        <time>2018-11-24T23:34:01Z</time>
      </trkpt>
      <trkpt lat="42.81369" lon="0.66514">
        <ele>1937</ele>
        <time>2018-11-24T23:34:02Z</time>
      </trkpt>
      <trkpt lat="42.81367" lon="0.66514">
        <ele>1937</ele>
        <time>2018-11-24T23:34:03Z</time>
      </trkpt>
      <trkpt lat="42.81365" lon="0.66513">
        <ele>1937.1</ele>
        <time>2018-11-24T23:34:04Z</time>
      </trkpt>
      <trkpt lat="42.81362" lon="0.66513">
        <ele>1937.3</ele>
        <time>2018-11-24T23:34:05Z</time>
      </trkpt>
      <trkpt lat="42.8136" lon="0.66513">
        <ele>1937.3</ele>
        <time>2018-11-24T23:34:06Z</time>
      </trkpt>
      <trkpt lat="42.81358" lon="0.66512">
        <ele>1937.4</ele>
        <time>2018-11-24T23:34:07Z</time>
      </trkpt>
      <trkpt lat="42.81356" lon="0.66511">
        <ele>1937.5</ele>
        <time>2018-11-24T23:34:07Z</time>
      </trkpt>
      <trkpt lat="42.81354" lon="0.6651">
        <ele>1937.6</ele>
        <time>2018-11-24T23:34:08Z</time>
      </trkpt>
      <trkpt lat="42.81352" lon="0.6651">
        <ele>1937.7</ele>
        <time>2018-11-24T23:34:09Z</time>
      </trkpt>
      <trkpt lat="42.8135" lon="0.66509">
        <ele>1937.8</ele>
        <time>2018-11-24T23:34:10Z</time>
      </trkpt>
      <trkpt lat="42.81348" lon="0.6651">
        <ele>1937.9</ele>
        <time>2018-11-24T23:34:11Z</time>
      </trkpt>
      <trkpt lat="42.81346" lon="0.6651">
        <ele>1938.1</ele>
        <time>2018-11-24T23:34:11Z</time>
      </trkpt>
      <trkpt lat="42.81344" lon="0.66511">
        <ele>1938.5</ele>
        <time>2018-11-24T23:34:13Z</time>
      </trkpt>
      <trkpt lat="42.81341" lon="0.66511">
        <ele>1938.9</ele>
        <time>2018-11-24T23:34:13Z</time>
      </trkpt>
      <trkpt lat="42.81339" lon="0.66511">
        <ele>1939.3</ele>
        <time>2018-11-24T23:34:14Z</time>
      </trkpt>
      <trkpt lat="42.81337" lon="0.66511">
        <ele>1939.8</ele>
        <time>2018-11-24T23:34:15Z</time>
      </trkpt>
      <trkpt lat="42.81335" lon="0.66511">
        <ele>1939.9</ele>
        <time>2018-11-24T23:34:16Z</time>
      </trkpt>
      <trkpt lat="42.81332" lon="0.66511">
        <ele>1939.1</ele>
        <time>2018-11-24T23:34:17Z</time>
      </trkpt>
      <trkpt lat="42.8133" lon="0.66509">
        <ele>1938.8</ele>
        <time>2018-11-24T23:34:18Z</time>
      </trkpt>
      <trkpt lat="42.81329" lon="0.66506">
        <ele>1939</ele>
        <time>2018-11-24T23:34:19Z</time>
      </trkpt>
      <trkpt lat="42.81326" lon="0.66505">
        <ele>1938.4</ele>
        <time>2018-11-24T23:34:20Z</time>
      </trkpt>
      <trkpt lat="42.81323" lon="0.66505">
        <ele>1937.9</ele>
        <time>2018-11-24T23:34:22Z</time>
      </trkpt>
      <trkpt lat="42.81321" lon="0.66506">
        <ele>1937.3</ele>
        <time>2018-11-24T23:34:23Z</time>
      </trkpt>
      <trkpt lat="42.81319" lon="0.66509">
        <ele>1937</ele>
        <time>2018-11-24T23:34:24Z</time>
      </trkpt>
      <trkpt lat="42.81318" lon="0.66511">
        <ele>1936.6</ele>
        <time>2018-11-24T23:34:24Z</time>
      </trkpt>
      <trkpt lat="42.81316" lon="0.66513">
        <ele>1936.3</ele>
        <time>2018-11-24T23:34:25Z</time>
      </trkpt>
      <trkpt lat="42.81314" lon="0.66513">
        <ele>1936.1</ele>
        <time>2018-11-24T23:34:26Z</time>
      </trkpt>
      <trkpt lat="42.81312" lon="0.66511">
        <ele>1936</ele>
        <time>2018-11-24T23:34:27Z</time>
      </trkpt>
      <trkpt lat="42.81309" lon="0.66511">
        <ele>1935.4</ele>
        <time>2018-11-24T23:34:28Z</time>
      </trkpt>
      <trkpt lat="42.81308" lon="0.66514">
        <ele>1935.2</ele>
        <time>2018-11-24T23:34:29Z</time>
      </trkpt>
      <trkpt lat="42.81306" lon="0.66516">
        <ele>1934.8</ele>
        <time>2018-11-24T23:34:30Z</time>
      </trkpt>
      <trkpt lat="42.81304" lon="0.66517">
        <ele>1934.5</ele>
        <time>2018-11-24T23:34:31Z</time>
      </trkpt>
      <trkpt lat="42.81302" lon="0.66519">
        <ele>1934.1</ele>
        <time>2018-11-24T23:34:32Z</time>
      </trkpt>
      <trkpt lat="42.81299" lon="0.66521">
        <ele>1933.6</ele>
        <time>2018-11-24T23:34:33Z</time>
      </trkpt>
      <trkpt lat="42.81297" lon="0.66522">
        <ele>1933.4</ele>
        <time>2018-11-24T23:34:34Z</time>
      </trkpt>
      <trkpt lat="42.81295" lon="0.66523">
        <ele>1933</ele>
        <time>2018-11-24T23:34:35Z</time>
      </trkpt>
      <trkpt lat="42.81293" lon="0.66524">
        <ele>1932.8</ele>
        <time>2018-11-24T23:34:36Z</time>
      </trkpt>
      <trkpt lat="42.81291" lon="0.66525">
        <ele>1927.4</ele>
        <time>2018-11-24T23:34:37Z</time>
      </trkpt>
      <trkpt lat="42.8129" lon="0.66527">
        <ele>1927.5</ele>
        <time>2018-11-24T23:34:37Z</time>
      </trkpt>
      <trkpt lat="42.81287" lon="0.66528">
        <ele>1927.8</ele>
        <time>2018-11-24T23:34:38Z</time>
      </trkpt>
      <trkpt lat="42.81285" lon="0.66529">
        <ele>1927.8</ele>
        <time>2018-11-24T23:34:39Z</time>
      </trkpt>
      <trkpt lat="42.81283" lon="0.6653">
        <ele>1928</ele>
        <time>2018-11-24T23:34:40Z</time>
      </trkpt>
      <trkpt lat="42.81281" lon="0.66531">
        <ele>1928.2</ele>
        <time>2018-11-24T23:34:41Z</time>
      </trkpt>
      <trkpt lat="42.81279" lon="0.66532">
        <ele>1928.3</ele>
        <time>2018-11-24T23:34:42Z</time>
      </trkpt>
      <trkpt lat="42.81277" lon="0.66534">
        <ele>1928.6</ele>
        <time>2018-11-24T23:34:43Z</time>
      </trkpt>
      <trkpt lat="42.81275" lon="0.66534">
        <ele>1928.6</ele>
        <time>2018-11-24T23:34:44Z</time>
      </trkpt>
      <trkpt lat="42.81273" lon="0.66535">
        <ele>1928.8</ele>
        <time>2018-11-24T23:34:44Z</time>
      </trkpt>
      <trkpt lat="42.81272" lon="0.66536">
        <ele>1928.9</ele>
        <time>2018-11-24T23:34:45Z</time>
      </trkpt>
      <trkpt lat="42.8127" lon="0.66538">
        <ele>1929.2</ele>
        <time>2018-11-24T23:34:46Z</time>
      </trkpt>
      <trkpt lat="42.81267" lon="0.66539">
        <ele>1929.5</ele>
        <time>2018-11-24T23:34:47Z</time>
      </trkpt>
      <trkpt lat="42.81265" lon="0.6654">
        <ele>1929.7</ele>
        <time>2018-11-24T23:34:48Z</time>
      </trkpt>
      <trkpt lat="42.81262" lon="0.66541">
        <ele>1929.9</ele>
        <time>2018-11-24T23:34:49Z</time>
      </trkpt>
      <trkpt lat="42.8126" lon="0.66543">
        <ele>1930</ele>
        <time>2018-11-24T23:34:50Z</time>
      </trkpt>
      <trkpt lat="42.81258" lon="0.66544">
        <ele>1929.9</ele>
        <time>2018-11-24T23:34:51Z</time>
      </trkpt>
      <trkpt lat="42.81256" lon="0.66546">
        <ele>1929.8</ele>
        <time>2018-11-24T23:34:52Z</time>
      </trkpt>
      <trkpt lat="42.81253" lon="0.66548">
        <ele>1929.7</ele>
        <time>2018-11-24T23:34:53Z</time>
      </trkpt>
      <trkpt lat="42.81251" lon="0.6655">
        <ele>1929.8</ele>
        <time>2018-11-24T23:34:54Z</time>
      </trkpt>
      <trkpt lat="42.81249" lon="0.66552">
        <ele>1930</ele>
        <time>2018-11-24T23:34:55Z</time>
      </trkpt>
      <trkpt lat="42.81247" lon="0.66553">
        <ele>1929.9</ele>
        <time>2018-11-24T23:34:56Z</time>
      </trkpt>
      <trkpt lat="42.81244" lon="0.66554">
        <ele>1929.6</ele>
        <time>2018-11-24T23:34:57Z</time>
      </trkpt>
      <trkpt lat="42.81242" lon="0.66555">
        <ele>1929.3</ele>
        <time>2018-11-24T23:34:58Z</time>
      </trkpt>
      <trkpt lat="42.8124" lon="0.66556">
        <ele>1929.1</ele>
        <time>2018-11-24T23:34:59Z</time>
      </trkpt>
      <trkpt lat="42.81238" lon="0.66557">
        <ele>1928.8</ele>
        <time>2018-11-24T23:35:00Z</time>
      </trkpt>
      <trkpt lat="42.81236" lon="0.66558">
        <ele>1928.7</ele>
        <time>2018-11-24T23:35:01Z</time>
      </trkpt>
      <trkpt lat="42.81233" lon="0.6656">
        <ele>1928.4</ele>
        <time>2018-11-24T23:35:02Z</time>
      </trkpt>
      <trkpt lat="42.81232" lon="0.66562">
        <ele>1928.3</ele>
        <time>2018-11-24T23:35:03Z</time>
      </trkpt>
      <trkpt lat="42.81229" lon="0.66563">
        <ele>1928</ele>
        <time>2018-11-24T23:35:04Z</time>
      </trkpt>
      <trkpt lat="42.81227" lon="0.66564">
        <ele>1928</ele>
        <time>2018-11-24T23:35:05Z</time>
      </trkpt>
      <trkpt lat="42.81225" lon="0.66566">
        <ele>1927.8</ele>
        <time>2018-11-24T23:35:06Z</time>
      </trkpt>
      <trkpt lat="42.81223" lon="0.66567">
        <ele>1932.5</ele>
        <time>2018-11-24T23:35:07Z</time>
      </trkpt>
      <trkpt lat="42.81221" lon="0.66568">
        <ele>1932.8</ele>
        <time>2018-11-24T23:35:08Z</time>
      </trkpt>
      <trkpt lat="42.81219" lon="0.66569">
        <ele>1933.1</ele>
        <time>2018-11-24T23:35:08Z</time>
      </trkpt>
      <trkpt lat="42.81217" lon="0.66571">
        <ele>1933.3</ele>
        <time>2018-11-24T23:35:09Z</time>
      </trkpt>
      <trkpt lat="42.81216" lon="0.66572">
        <ele>1933.7</ele>
        <time>2018-11-24T23:35:10Z</time>
      </trkpt>
      <trkpt lat="42.81214" lon="0.66575">
        <ele>1933.9</ele>
        <time>2018-11-24T23:35:11Z</time>
      </trkpt>
      <trkpt lat="42.81212" lon="0.66577">
        <ele>1934.1</ele>
        <time>2018-11-24T23:35:12Z</time>
      </trkpt>
      <trkpt lat="42.81211" lon="0.6658">
        <ele>1934.4</ele>
        <time>2018-11-24T23:35:13Z</time>
      </trkpt>
      <trkpt lat="42.81209" lon="0.66582">
        <ele>1934.8</ele>
        <time>2018-11-24T23:35:14Z</time>
      </trkpt>
      <trkpt lat="42.81207" lon="0.66583">
        <ele>1935.3</ele>
        <time>2018-11-24T23:35:15Z</time>
      </trkpt>
      <trkpt lat="42.81205" lon="0.66584">
        <ele>1935.6</ele>
        <time>2018-11-24T23:35:16Z</time>
      </trkpt>
      <trkpt lat="42.81203" lon="0.66586">
        <ele>1936</ele>
        <time>2018-11-24T23:35:17Z</time>
      </trkpt>
      <trkpt lat="42.81202" lon="0.66588">
        <ele>1936.4</ele>
        <time>2018-11-24T23:35:17Z</time>
      </trkpt>
      <trkpt lat="42.81199" lon="0.6659">
        <ele>1937</ele>
        <time>2018-11-24T23:35:19Z</time>
      </trkpt>
      <trkpt lat="42.81197" lon="0.66592">
        <ele>1937.5</ele>
        <time>2018-11-24T23:35:20Z</time>
      </trkpt>
      <trkpt lat="42.81195" lon="0.66594">
        <ele>1938.2</ele>
        <time>2018-11-24T23:35:21Z</time>
      </trkpt>
      <trkpt lat="42.81193" lon="0.66595">
        <ele>1938.8</ele>
        <time>2018-11-24T23:35:22Z</time>
      </trkpt>
      <trkpt lat="42.81191" lon="0.66596">
        <ele>1939.4</ele>
        <time>2018-11-24T23:35:22Z</time>
      </trkpt>
      <trkpt lat="42.81189" lon="0.66598">
        <ele>1940.1</ele>
        <time>2018-11-24T23:35:23Z</time>
      </trkpt>
      <trkpt lat="42.81187" lon="0.66599">
        <ele>1939.6</ele>
        <time>2018-11-24T23:35:24Z</time>
      </trkpt>
      <trkpt lat="42.81186" lon="0.666">
        <ele>1941.1</ele>
        <time>2018-11-24T23:35:25Z</time>
      </trkpt>
      <trkpt lat="42.81184" lon="0.66602">
        <ele>1941.7</ele>
        <time>2018-11-24T23:35:26Z</time>
      </trkpt>
      <trkpt lat="42.81182" lon="0.66603">
        <ele>1942.1</ele>
        <time>2018-11-24T23:35:26Z</time>
      </trkpt>
      <trkpt lat="42.81181" lon="0.66605">
        <ele>1942.7</ele>
        <time>2018-11-24T23:35:27Z</time>
      </trkpt>
      <trkpt lat="42.81178" lon="0.66606">
        <ele>1943.2</ele>
        <time>2018-11-24T23:35:28Z</time>
      </trkpt>
      <trkpt lat="42.81177" lon="0.66607">
        <ele>1943.7</ele>
        <time>2018-11-24T23:35:29Z</time>
      </trkpt>
      <trkpt lat="42.81174" lon="0.66607">
        <ele>1944.4</ele>
        <time>2018-11-24T23:35:30Z</time>
      </trkpt>
      <trkpt lat="42.81172" lon="0.66608">
        <ele>1944.9</ele>
        <time>2018-11-24T23:35:31Z</time>
      </trkpt>
      <trkpt lat="42.8117" lon="0.6661">
        <ele>1950</ele>
        <time>2018-11-24T23:35:32Z</time>
      </trkpt>
      <trkpt lat="42.81168" lon="0.66611">
        <ele>1950.1</ele>
        <time>2018-11-24T23:35:33Z</time>
      </trkpt>
      <trkpt lat="42.81166" lon="0.66612">
        <ele>1950.1</ele>
        <time>2018-11-24T23:35:34Z</time>
      </trkpt>
      <trkpt lat="42.81163" lon="0.66613">
        <ele>1950.1</ele>
        <time>2018-11-24T23:35:35Z</time>
      </trkpt>
      <trkpt lat="42.81161" lon="0.66613">
        <ele>1950</ele>
        <time>2018-11-24T23:35:36Z</time>
      </trkpt>
      <trkpt lat="42.81158" lon="0.66614">
        <ele>1950.1</ele>
        <time>2018-11-24T23:35:37Z</time>
      </trkpt>
      <trkpt lat="42.81157" lon="0.66616">
        <ele>1950.1</ele>
        <time>2018-11-24T23:35:37Z</time>
      </trkpt>
      <trkpt lat="42.81155" lon="0.66618">
        <ele>1950</ele>
        <time>2018-11-24T23:35:38Z</time>
      </trkpt>
      <trkpt lat="42.81154" lon="0.66621">
        <ele>1950.1</ele>
        <time>2018-11-24T23:35:39Z</time>
      </trkpt>
      <trkpt lat="42.81154" lon="0.66623">
        <ele>1950</ele>
        <time>2018-11-24T23:35:40Z</time>
      </trkpt>
      <trkpt lat="42.81152" lon="0.66625">
        <ele>1950</ele>
        <time>2018-11-24T23:35:41Z</time>
      </trkpt>
      <trkpt lat="42.81151" lon="0.66627">
        <ele>1950</ele>
        <time>2018-11-24T23:35:42Z</time>
      </trkpt>
      <trkpt lat="42.81149" lon="0.66629">
        <ele>1950.1</ele>
        <time>2018-11-24T23:35:42Z</time>
      </trkpt>
      <trkpt lat="42.81148" lon="0.66631">
        <ele>1950.1</ele>
        <time>2018-11-24T23:35:43Z</time>
      </trkpt>
      <trkpt lat="42.81147" lon="0.66633">
        <ele>1950.1</ele>
        <time>2018-11-24T23:35:44Z</time>
      </trkpt>
      <trkpt lat="42.81146" lon="0.66636">
        <ele>1950.1</ele>
        <time>2018-11-24T23:35:45Z</time>
      </trkpt>
      <trkpt lat="42.81145" lon="0.66639">
        <ele>1950</ele>
        <time>2018-11-24T23:35:46Z</time>
      </trkpt>
      <trkpt lat="42.81144" lon="0.6664">
        <ele>1950.1</ele>
        <time>2018-11-24T23:35:47Z</time>
      </trkpt>
      <trkpt lat="42.81142" lon="0.66642">
        <ele>1950.1</ele>
        <time>2018-11-24T23:35:47Z</time>
      </trkpt>
      <trkpt lat="42.8114" lon="0.66643">
        <ele>1950.1</ele>
        <time>2018-11-24T23:35:48Z</time>
      </trkpt>
      <trkpt lat="42.81138" lon="0.66645">
        <ele>1954.8</ele>
        <time>2018-11-24T23:35:49Z</time>
      </trkpt>
      <trkpt lat="42.81137" lon="0.66647">
        <ele>1955.1</ele>
        <time>2018-11-24T23:35:50Z</time>
      </trkpt>
      <trkpt lat="42.81136" lon="0.6665">
        <ele>1955.3</ele>
        <time>2018-11-24T23:35:51Z</time>
      </trkpt>
      <trkpt lat="42.81134" lon="0.66652">
        <ele>1955.6</ele>
        <time>2018-11-24T23:35:52Z</time>
      </trkpt>
      <trkpt lat="42.81133" lon="0.66655">
        <ele>1956.1</ele>
        <time>2018-11-24T23:35:53Z</time>
      </trkpt>
      <trkpt lat="42.81131" lon="0.66657">
        <ele>1956.4</ele>
        <time>2018-11-24T23:35:54Z</time>
      </trkpt>
      <trkpt lat="42.8113" lon="0.66659">
        <ele>1956.8</ele>
        <time>2018-11-24T23:35:55Z</time>
      </trkpt>
      <trkpt lat="42.81128" lon="0.6666">
        <ele>1957.3</ele>
        <time>2018-11-24T23:35:55Z</time>
      </trkpt>
      <trkpt lat="42.81126" lon="0.6666">
        <ele>1957.7</ele>
        <time>2018-11-24T23:35:56Z</time>
      </trkpt>
      <trkpt lat="42.81124" lon="0.6666">
        <ele>1958.4</ele>
        <time>2018-11-24T23:35:57Z</time>
      </trkpt>
      <trkpt lat="42.81121" lon="0.66661">
        <ele>1959.1</ele>
        <time>2018-11-24T23:35:58Z</time>
      </trkpt>
      <trkpt lat="42.8112" lon="0.66663">
        <ele>1959.5</ele>
        <time>2018-11-24T23:35:59Z</time>
      </trkpt>
      <trkpt lat="42.81119" lon="0.66666">
        <ele>1960.1</ele>
        <time>2018-11-24T23:36:00Z</time>
      </trkpt>
      <trkpt lat="42.81117" lon="0.66668">
        <ele>1959.5</ele>
        <time>2018-11-24T23:36:01Z</time>
      </trkpt>
      <trkpt lat="42.81115" lon="0.6667">
        <ele>1958.7</ele>
        <time>2018-11-24T23:36:02Z</time>
      </trkpt>
      <trkpt lat="42.81112" lon="0.66673">
        <ele>1958.3</ele>
        <time>2018-11-24T23:36:03Z</time>
      </trkpt>
      <trkpt lat="42.81111" lon="0.66675">
        <ele>1958.1</ele>
        <time>2018-11-24T23:36:04Z</time>
      </trkpt>
      <trkpt lat="42.8111" lon="0.66678">
        <ele>1962.3</ele>
        <time>2018-11-24T23:36:05Z</time>
      </trkpt>
      <trkpt lat="42.81109" lon="0.66681">
        <ele>1962.7</ele>
        <time>2018-11-24T23:36:06Z</time>
      </trkpt>
      <trkpt lat="42.81108" lon="0.66684">
        <ele>1963</ele>
        <time>2018-11-24T23:36:07Z</time>
      </trkpt>
      <trkpt lat="42.81105" lon="0.66687">
        <ele>1963.5</ele>
        <time>2018-11-24T23:36:08Z</time>
      </trkpt>
      <trkpt lat="42.81103" lon="0.6669">
        <ele>1964</ele>
        <time>2018-11-24T23:36:09Z</time>
      </trkpt>
      <trkpt lat="42.81101" lon="0.66693">
        <ele>1964.4</ele>
        <time>2018-11-24T23:36:11Z</time>
      </trkpt>
      <trkpt lat="42.811" lon="0.66696">
        <ele>1964.9</ele>
        <time>2018-11-24T23:36:12Z</time>
      </trkpt>
      <trkpt lat="42.81098" lon="0.66698">
        <ele>1965.3</ele>
        <time>2018-11-24T23:36:13Z</time>
      </trkpt>
      <trkpt lat="42.81096" lon="0.66701">
        <ele>1965.7</ele>
        <time>2018-11-24T23:36:14Z</time>
      </trkpt>
      <trkpt lat="42.81095" lon="0.66703">
        <ele>1966.1</ele>
        <time>2018-11-24T23:36:15Z</time>
      </trkpt>
      <trkpt lat="42.81093" lon="0.66705">
        <ele>1966.6</ele>
        <time>2018-11-24T23:36:15Z</time>
      </trkpt>
      <trkpt lat="42.81091" lon="0.66707">
        <ele>1967.3</ele>
        <time>2018-11-24T23:36:16Z</time>
      </trkpt>
      <trkpt lat="42.81089" lon="0.66709">
        <ele>1968</ele>
        <time>2018-11-24T23:36:18Z</time>
      </trkpt>
      <trkpt lat="42.81086" lon="0.6671">
        <ele>1968.9</ele>
        <time>2018-11-24T23:36:19Z</time>
      </trkpt>
      <trkpt lat="42.81084" lon="0.66712">
        <ele>1969.6</ele>
        <time>2018-11-24T23:36:20Z</time>
      </trkpt>
      <trkpt lat="42.81081" lon="0.66715">
        <ele>1969.7</ele>
        <time>2018-11-24T23:36:21Z</time>
      </trkpt>
      <trkpt lat="42.81079" lon="0.66718">
        <ele>1969.1</ele>
        <time>2018-11-24T23:36:22Z</time>
      </trkpt>
      <trkpt lat="42.81077" lon="0.66721">
        <ele>1968.4</ele>
        <time>2018-11-24T23:36:24Z</time>
      </trkpt>
      <trkpt lat="42.81075" lon="0.66724">
        <ele>1972.1</ele>
        <time>2018-11-24T23:36:25Z</time>
      </trkpt>
      <trkpt lat="42.81073" lon="0.66726">
        <ele>1972.4</ele>
        <time>2018-11-24T23:36:26Z</time>
      </trkpt>
      <trkpt lat="42.81072" lon="0.66729">
        <ele>1972.7</ele>
        <time>2018-11-24T23:36:27Z</time>
      </trkpt>
      <trkpt lat="42.81071" lon="0.6673">
        <ele>1973.1</ele>
        <time>2018-11-24T23:36:27Z</time>
      </trkpt>
      <trkpt lat="42.81069" lon="0.66732">
        <ele>1973.4</ele>
        <time>2018-11-24T23:36:28Z</time>
      </trkpt>
      <trkpt lat="42.81067" lon="0.66734">
        <ele>1974</ele>
        <time>2018-11-24T23:36:29Z</time>
      </trkpt>
      <trkpt lat="42.81065" lon="0.66736">
        <ele>1974.5</ele>
        <time>2018-11-24T23:36:30Z</time>
      </trkpt>
      <trkpt lat="42.81064" lon="0.66738">
        <ele>1974.9</ele>
        <time>2018-11-24T23:36:31Z</time>
      </trkpt>
      <trkpt lat="42.81062" lon="0.6674">
        <ele>1975.2</ele>
        <time>2018-11-24T23:36:32Z</time>
      </trkpt>
      <trkpt lat="42.8106" lon="0.66742">
        <ele>1975.7</ele>
        <time>2018-11-24T23:36:33Z</time>
      </trkpt>
      <trkpt lat="42.81058" lon="0.66744">
        <ele>1976.2</ele>
        <time>2018-11-24T23:36:34Z</time>
      </trkpt>
      <trkpt lat="42.81056" lon="0.66746">
        <ele>1976.9</ele>
        <time>2018-11-24T23:36:35Z</time>
      </trkpt>
      <trkpt lat="42.81054" lon="0.66747">
        <ele>1977.5</ele>
        <time>2018-11-24T23:36:35Z</time>
      </trkpt>
      <trkpt lat="42.81053" lon="0.66749">
        <ele>1978</ele>
        <time>2018-11-24T23:36:36Z</time>
      </trkpt>
      <trkpt lat="42.81051" lon="0.66751">
        <ele>1978.5</ele>
        <time>2018-11-24T23:36:37Z</time>
      </trkpt>
      <trkpt lat="42.8105" lon="0.66754">
        <ele>1979</ele>
        <time>2018-11-24T23:36:38Z</time>
      </trkpt>
      <trkpt lat="42.81048" lon="0.66756">
        <ele>1979.7</ele>
        <time>2018-11-24T23:36:39Z</time>
      </trkpt>
      <trkpt lat="42.81046" lon="0.66758">
        <ele>1979.8</ele>
        <time>2018-11-24T23:36:40Z</time>
      </trkpt>
      <trkpt lat="42.81045" lon="0.6676">
        <ele>1979.2</ele>
        <time>2018-11-24T23:36:41Z</time>
      </trkpt>
      <trkpt lat="42.81043" lon="0.66762">
        <ele>1978.8</ele>
        <time>2018-11-24T23:36:42Z</time>
      </trkpt>
      <trkpt lat="42.8104" lon="0.66763">
        <ele>1978.3</ele>
        <time>2018-11-24T23:36:43Z</time>
      </trkpt>
      <trkpt lat="42.81038" lon="0.66765">
        <ele>1982.4</ele>
        <time>2018-11-24T23:36:44Z</time>
      </trkpt>
      <trkpt lat="42.81036" lon="0.66767">
        <ele>1982.8</ele>
        <time>2018-11-24T23:36:45Z</time>
      </trkpt>
      <trkpt lat="42.81034" lon="0.6677">
        <ele>1983.4</ele>
        <time>2018-11-24T23:36:46Z</time>
      </trkpt>
      <trkpt lat="42.81032" lon="0.66773">
        <ele>1984</ele>
        <time>2018-11-24T23:36:47Z</time>
      </trkpt>
      <trkpt lat="42.81029" lon="0.66775">
        <ele>1984.6</ele>
        <time>2018-11-24T23:36:49Z</time>
      </trkpt>
      <trkpt lat="42.81028" lon="0.66778">
        <ele>1984.9</ele>
        <time>2018-11-24T23:36:49Z</time>
      </trkpt>
      <trkpt lat="42.81027" lon="0.66779">
        <ele>1985.2</ele>
        <time>2018-11-24T23:36:50Z</time>
      </trkpt>
      <trkpt lat="42.81026" lon="0.66781">
        <ele>1985.6</ele>
        <time>2018-11-24T23:36:51Z</time>
      </trkpt>
      <trkpt lat="42.81024" lon="0.66783">
        <ele>1986.1</ele>
        <time>2018-11-24T23:36:52Z</time>
      </trkpt>
      <trkpt lat="42.81023" lon="0.66785">
        <ele>1986.6</ele>
        <time>2018-11-24T23:36:53Z</time>
      </trkpt>
      <trkpt lat="42.81021" lon="0.66787">
        <ele>1987.1</ele>
        <time>2018-11-24T23:36:54Z</time>
      </trkpt>
      <trkpt lat="42.81018" lon="0.6679">
        <ele>1988</ele>
        <time>2018-11-24T23:36:55Z</time>
      </trkpt>
      <trkpt lat="42.81016" lon="0.66791">
        <ele>1988.6</ele>
        <time>2018-11-24T23:36:56Z</time>
      </trkpt>
      <trkpt lat="42.81013" lon="0.66793">
        <ele>1989.6</ele>
        <time>2018-11-24T23:36:57Z</time>
      </trkpt>
      <trkpt lat="42.81011" lon="0.66796">
        <ele>1989.6</ele>
        <time>2018-11-24T23:36:58Z</time>
      </trkpt>
      <trkpt lat="42.81009" lon="0.66798">
        <ele>1989.1</ele>
        <time>2018-11-24T23:36:59Z</time>
      </trkpt>
      <trkpt lat="42.81007" lon="0.668">
        <ele>1988.6</ele>
        <time>2018-11-24T23:37:00Z</time>
      </trkpt>
      <trkpt lat="42.81005" lon="0.66802">
        <ele>1988.3</ele>
        <time>2018-11-24T23:37:01Z</time>
      </trkpt>
      <trkpt lat="42.81003" lon="0.66805">
        <ele>1987.9</ele>
        <time>2018-11-24T23:37:02Z</time>
      </trkpt>
      <trkpt lat="42.81002" lon="0.66807">
        <ele>1992.4</ele>
        <time>2018-11-24T23:37:03Z</time>
      </trkpt>
      <trkpt lat="42.81" lon="0.6681">
        <ele>1992.9</ele>
        <time>2018-11-24T23:37:04Z</time>
      </trkpt>
      <trkpt lat="42.80999" lon="0.66811">
        <ele>1993.1</ele>
        <time>2018-11-24T23:37:05Z</time>
      </trkpt>
      <trkpt lat="42.80997" lon="0.66813">
        <ele>1993.6</ele>
        <time>2018-11-24T23:37:06Z</time>
      </trkpt>
      <trkpt lat="42.80995" lon="0.66816">
        <ele>1994</ele>
        <time>2018-11-24T23:37:07Z</time>
      </trkpt>
      <trkpt lat="42.80993" lon="0.66817">
        <ele>1994.5</ele>
        <time>2018-11-24T23:37:08Z</time>
      </trkpt>
      <trkpt lat="42.8099" lon="0.66819">
        <ele>1994.9</ele>
        <time>2018-11-24T23:37:09Z</time>
      </trkpt>
      <trkpt lat="42.80988" lon="0.66822">
        <ele>1995.3</ele>
        <time>2018-11-24T23:37:10Z</time>
      </trkpt>
      <trkpt lat="42.80986" lon="0.66824">
        <ele>1995.9</ele>
        <time>2018-11-24T23:37:11Z</time>
      </trkpt>
      <trkpt lat="42.80984" lon="0.66826">
        <ele>1996.4</ele>
        <time>2018-11-24T23:37:12Z</time>
      </trkpt>
      <trkpt lat="42.80981" lon="0.66828">
        <ele>1997</ele>
        <time>2018-11-24T23:37:14Z</time>
      </trkpt>
      <trkpt lat="42.80979" lon="0.66831">
        <ele>1997.6</ele>
        <time>2018-11-24T23:37:15Z</time>
      </trkpt>
      <trkpt lat="42.80976" lon="0.66832">
        <ele>1998.3</ele>
        <time>2018-11-24T23:37:16Z</time>
      </trkpt>
      <trkpt lat="42.80974" lon="0.66834">
        <ele>1998.9</ele>
        <time>2018-11-24T23:37:17Z</time>
      </trkpt>
      <trkpt lat="42.80972" lon="0.66835">
        <ele>1999.4</ele>
        <time>2018-11-24T23:37:18Z</time>
      </trkpt>
      <trkpt lat="42.8097" lon="0.66836">
        <ele>2000</ele>
        <time>2018-11-24T23:37:19Z</time>
      </trkpt>
      <trkpt lat="42.80968" lon="0.66838">
        <ele>1999.5</ele>
        <time>2018-11-24T23:37:20Z</time>
      </trkpt>
      <trkpt lat="42.80965" lon="0.66839">
        <ele>1999.2</ele>
        <time>2018-11-24T23:37:21Z</time>
      </trkpt>
      <trkpt lat="42.80963" lon="0.6684">
        <ele>1998.7</ele>
        <time>2018-11-24T23:37:22Z</time>
      </trkpt>
      <trkpt lat="42.80961" lon="0.66842">
        <ele>1998.4</ele>
        <time>2018-11-24T23:37:23Z</time>
      </trkpt>
      <trkpt lat="42.80959" lon="0.66842">
        <ele>1998.1</ele>
        <time>2018-11-24T23:37:23Z</time>
      </trkpt>
      <trkpt lat="42.80957" lon="0.66843">
        <ele>1997.9</ele>
        <time>2018-11-24T23:37:24Z</time>
      </trkpt>
      <trkpt lat="42.80954" lon="0.66845">
        <ele>1997.6</ele>
        <time>2018-11-24T23:37:26Z</time>
      </trkpt>
      <trkpt lat="42.80951" lon="0.66846">
        <ele>1997.3</ele>
        <time>2018-11-24T23:37:27Z</time>
      </trkpt>
      <trkpt lat="42.80948" lon="0.66847">
        <ele>1997.2</ele>
        <time>2018-11-24T23:37:28Z</time>
      </trkpt>
      <trkpt lat="42.80945" lon="0.66848">
        <ele>1997.1</ele>
        <time>2018-11-24T23:37:29Z</time>
      </trkpt>
      <trkpt lat="42.80942" lon="0.66849">
        <ele>1997.1</ele>
        <time>2018-11-24T23:37:31Z</time>
      </trkpt>
      <trkpt lat="42.8094" lon="0.6685">
        <ele>1997</ele>
        <time>2018-11-24T23:37:31Z</time>
      </trkpt>
      <trkpt lat="42.80938" lon="0.66851">
        <ele>1996.9</ele>
        <time>2018-11-24T23:37:32Z</time>
      </trkpt>
      <trkpt lat="42.80937" lon="0.66851">
        <ele>1997</ele>
        <time>2018-11-24T23:37:33Z</time>
      </trkpt>
      <trkpt lat="42.80935" lon="0.66852">
        <ele>1996.8</ele>
        <time>2018-11-24T23:37:34Z</time>
      </trkpt>
      <trkpt lat="42.80933" lon="0.66854">
        <ele>1996.9</ele>
        <time>2018-11-24T23:37:34Z</time>
      </trkpt>
      <trkpt lat="42.80931" lon="0.66855">
        <ele>1996.9</ele>
        <time>2018-11-24T23:37:35Z</time>
      </trkpt>
      <trkpt lat="42.80929" lon="0.66855">
        <ele>1996.8</ele>
        <time>2018-11-24T23:37:36Z</time>
      </trkpt>
      <trkpt lat="42.80927" lon="0.66856">
        <ele>1996.7</ele>
        <time>2018-11-24T23:37:37Z</time>
      </trkpt>
      <trkpt lat="42.80925" lon="0.66858">
        <ele>1996.7</ele>
        <time>2018-11-24T23:37:38Z</time>
      </trkpt>
      <trkpt lat="42.80924" lon="0.66859">
        <ele>1996.7</ele>
        <time>2018-11-24T23:37:38Z</time>
      </trkpt>
      <trkpt lat="42.80922" lon="0.6686">
        <ele>1996.6</ele>
        <time>2018-11-24T23:37:39Z</time>
      </trkpt>
      <trkpt lat="42.8092" lon="0.66862">
        <ele>1996.7</ele>
        <time>2018-11-24T23:37:40Z</time>
      </trkpt>
      <trkpt lat="42.80919" lon="0.66863">
        <ele>1996.6</ele>
        <time>2018-11-24T23:37:41Z</time>
      </trkpt>
      <trkpt lat="42.80917" lon="0.66865">
        <ele>1996.5</ele>
        <time>2018-11-24T23:37:42Z</time>
      </trkpt>
      <trkpt lat="42.80915" lon="0.66866">
        <ele>1996.5</ele>
        <time>2018-11-24T23:37:43Z</time>
      </trkpt>
      <trkpt lat="42.80913" lon="0.66867">
        <ele>1996.6</ele>
        <time>2018-11-24T23:37:44Z</time>
      </trkpt>
      <trkpt lat="42.80911" lon="0.66868">
        <ele>1996.5</ele>
        <time>2018-11-24T23:37:44Z</time>
      </trkpt>
      <trkpt lat="42.80909" lon="0.66869">
        <ele>1996.5</ele>
        <time>2018-11-24T23:37:45Z</time>
      </trkpt>
      <trkpt lat="42.80907" lon="0.6687">
        <ele>1996.6</ele>
        <time>2018-11-24T23:37:46Z</time>
      </trkpt>
      <trkpt lat="42.80905" lon="0.66871">
        <ele>1996.5</ele>
        <time>2018-11-24T23:37:47Z</time>
      </trkpt>
      <trkpt lat="42.80903" lon="0.66872">
        <ele>1996.5</ele>
        <time>2018-11-24T23:37:48Z</time>
      </trkpt>
      <trkpt lat="42.80901" lon="0.66873">
        <ele>1996.5</ele>
        <time>2018-11-24T23:37:49Z</time>
      </trkpt>
      <trkpt lat="42.80898" lon="0.66874">
        <ele>1996.6</ele>
        <time>2018-11-24T23:37:50Z</time>
      </trkpt>
      <trkpt lat="42.80895" lon="0.66875">
        <ele>1996.7</ele>
        <time>2018-11-24T23:37:51Z</time>
      </trkpt>
      <trkpt lat="42.80893" lon="0.66876">
        <ele>1996.6</ele>
        <time>2018-11-24T23:37:52Z</time>
      </trkpt>
      <trkpt lat="42.8089" lon="0.66877">
        <ele>1996.7</ele>
        <time>2018-11-24T23:37:53Z</time>
      </trkpt>
      <trkpt lat="42.80888" lon="0.66879">
        <ele>1996.7</ele>
        <time>2018-11-24T23:37:54Z</time>
      </trkpt>
      <trkpt lat="42.80885" lon="0.66881">
        <ele>1996.6</ele>
        <time>2018-11-24T23:37:55Z</time>
      </trkpt>
      <trkpt lat="42.80883" lon="0.66883">
        <ele>1996.6</ele>
        <time>2018-11-24T23:37:56Z</time>
      </trkpt>
      <trkpt lat="42.80881" lon="0.66885">
        <ele>1996.7</ele>
        <time>2018-11-24T23:37:57Z</time>
      </trkpt>
      <trkpt lat="42.80879" lon="0.66886">
        <ele>1996.9</ele>
        <time>2018-11-24T23:37:58Z</time>
      </trkpt>
      <trkpt lat="42.80876" lon="0.66887">
        <ele>1997</ele>
        <time>2018-11-24T23:37:59Z</time>
      </trkpt>
      <trkpt lat="42.80874" lon="0.66889">
        <ele>1997</ele>
        <time>2018-11-24T23:38:00Z</time>
      </trkpt>
      <trkpt lat="42.80871" lon="0.66889">
        <ele>1997.1</ele>
        <time>2018-11-24T23:38:01Z</time>
      </trkpt>
      <trkpt lat="42.80868" lon="0.6689">
        <ele>1997.3</ele>
        <time>2018-11-24T23:38:03Z</time>
      </trkpt>
      <trkpt lat="42.80866" lon="0.66891">
        <ele>1997.4</ele>
        <time>2018-11-24T23:38:04Z</time>
      </trkpt>
      <trkpt lat="42.80864" lon="0.66892">
        <ele>1997.5</ele>
        <time>2018-11-24T23:38:05Z</time>
      </trkpt>
      <trkpt lat="42.80861" lon="0.66893">
        <ele>1997.7</ele>
        <time>2018-11-24T23:38:06Z</time>
      </trkpt>
      <trkpt lat="42.80858" lon="0.66894">
        <ele>1998</ele>
        <time>2018-11-24T23:38:07Z</time>
      </trkpt>
      <trkpt lat="42.80856" lon="0.66895">
        <ele>1998.3</ele>
        <time>2018-11-24T23:38:08Z</time>
      </trkpt>
      <trkpt lat="42.80853" lon="0.66895">
        <ele>1998.6</ele>
        <time>2018-11-24T23:38:09Z</time>
      </trkpt>
      <trkpt lat="42.80851" lon="0.66896">
        <ele>1998.8</ele>
        <time>2018-11-24T23:38:10Z</time>
      </trkpt>
      <trkpt lat="42.80848" lon="0.66896">
        <ele>1999.3</ele>
        <time>2018-11-24T23:38:11Z</time>
      </trkpt>
      <trkpt lat="42.80845" lon="0.66897">
        <ele>1999.9</ele>
        <time>2018-11-24T23:38:12Z</time>
      </trkpt>
      <trkpt lat="42.80842" lon="0.66896">
        <ele>1999.7</ele>
        <time>2018-11-24T23:38:13Z</time>
      </trkpt>
      <trkpt lat="42.8084" lon="0.66896">
        <ele>1999.2</ele>
        <time>2018-11-24T23:38:14Z</time>
      </trkpt>
      <trkpt lat="42.80837" lon="0.66896">
        <ele>1998.8</ele>
        <time>2018-11-24T23:38:15Z</time>
      </trkpt>
      <trkpt lat="42.80835" lon="0.66897">
        <ele>1998.3</ele>
        <time>2018-11-24T23:38:16Z</time>
      </trkpt>
      <trkpt lat="42.80833" lon="0.66898">
        <ele>1998</ele>
        <time>2018-11-24T23:38:17Z</time>
      </trkpt>
      <trkpt lat="42.8083" lon="0.66899">
        <ele>1997.5</ele>
        <time>2018-11-24T23:38:18Z</time>
      </trkpt>
      <trkpt lat="42.80828" lon="0.669">
        <ele>1997.1</ele>
        <time>2018-11-24T23:38:19Z</time>
      </trkpt>
      <trkpt lat="42.80826" lon="0.66901">
        <ele>1996.7</ele>
        <time>2018-11-24T23:38:20Z</time>
      </trkpt>
      <trkpt lat="42.80823" lon="0.66901">
        <ele>1996.4</ele>
        <time>2018-11-24T23:38:21Z</time>
      </trkpt>
      <trkpt lat="42.80821" lon="0.66902">
        <ele>1996.2</ele>
        <time>2018-11-24T23:38:22Z</time>
      </trkpt>
      <trkpt lat="42.80819" lon="0.66903">
        <ele>1995.8</ele>
        <time>2018-11-24T23:38:23Z</time>
      </trkpt>
      <trkpt lat="42.80816" lon="0.66903">
        <ele>1995.6</ele>
        <time>2018-11-24T23:38:24Z</time>
      </trkpt>
      <trkpt lat="42.80814" lon="0.66904">
        <ele>1995.3</ele>
        <time>2018-11-24T23:38:25Z</time>
      </trkpt>
      <trkpt lat="42.80812" lon="0.66904">
        <ele>1995.1</ele>
        <time>2018-11-24T23:38:26Z</time>
      </trkpt>
      <trkpt lat="42.8081" lon="0.66905">
        <ele>1995.1</ele>
        <time>2018-11-24T23:38:27Z</time>
      </trkpt>
      <trkpt lat="42.80808" lon="0.66904">
        <ele>1994.9</ele>
        <time>2018-11-24T23:38:27Z</time>
      </trkpt>
      <trkpt lat="42.80806" lon="0.66904">
        <ele>1994.8</ele>
        <time>2018-11-24T23:38:28Z</time>
      </trkpt>
      <trkpt lat="42.80803" lon="0.66904">
        <ele>1994.6</ele>
        <time>2018-11-24T23:38:29Z</time>
      </trkpt>
      <trkpt lat="42.80801" lon="0.66903">
        <ele>1994.4</ele>
        <time>2018-11-24T23:38:30Z</time>
      </trkpt>
      <trkpt lat="42.80798" lon="0.66903">
        <ele>1994.3</ele>
        <time>2018-11-24T23:38:31Z</time>
      </trkpt>
      <trkpt lat="42.80795" lon="0.66903">
        <ele>1993.9</ele>
        <time>2018-11-24T23:38:32Z</time>
      </trkpt>
      <trkpt lat="42.80793" lon="0.66903">
        <ele>1993.7</ele>
        <time>2018-11-24T23:38:33Z</time>
      </trkpt>
      <trkpt lat="42.80791" lon="0.66903">
        <ele>1993.5</ele>
        <time>2018-11-24T23:38:34Z</time>
      </trkpt>
      <trkpt lat="42.80788" lon="0.66904">
        <ele>1986.5</ele>
        <time>2018-11-24T23:38:35Z</time>
      </trkpt>
      <trkpt lat="42.80787" lon="0.66905">
        <ele>1986.5</ele>
        <time>2018-11-24T23:38:36Z</time>
      </trkpt>
      <trkpt lat="42.80785" lon="0.66905">
        <ele>1986.6</ele>
        <time>2018-11-24T23:38:37Z</time>
      </trkpt>
      <trkpt lat="42.80783" lon="0.66907">
        <ele>1986.7</ele>
        <time>2018-11-24T23:38:38Z</time>
      </trkpt>
      <trkpt lat="42.80781" lon="0.66908">
        <ele>1986.6</ele>
        <time>2018-11-24T23:38:38Z</time>
      </trkpt>
      <trkpt lat="42.80778" lon="0.66909">
        <ele>1986.6</ele>
        <time>2018-11-24T23:38:40Z</time>
      </trkpt>
      <trkpt lat="42.80776" lon="0.66911">
        <ele>1986.7</ele>
        <time>2018-11-24T23:38:41Z</time>
      </trkpt>
      <trkpt lat="42.80773" lon="0.66912">
        <ele>1986.7</ele>
        <time>2018-11-24T23:38:42Z</time>
      </trkpt>
      <trkpt lat="42.8077" lon="0.66912">
        <ele>1986.8</ele>
        <time>2018-11-24T23:38:43Z</time>
      </trkpt>
      <trkpt lat="42.80769" lon="0.66913">
        <ele>1986.8</ele>
        <time>2018-11-24T23:38:44Z</time>
      </trkpt>
      <trkpt lat="42.80767" lon="0.66914">
        <ele>1986.8</ele>
        <time>2018-11-24T23:38:44Z</time>
      </trkpt>
      <trkpt lat="42.80764" lon="0.66916">
        <ele>1986.7</ele>
        <time>2018-11-24T23:38:46Z</time>
      </trkpt>
      <trkpt lat="42.80762" lon="0.66918">
        <ele>1986.6</ele>
        <time>2018-11-24T23:38:47Z</time>
      </trkpt>
      <trkpt lat="42.8076" lon="0.66921">
        <ele>1986.6</ele>
        <time>2018-11-24T23:38:48Z</time>
      </trkpt>
      <trkpt lat="42.80757" lon="0.66923">
        <ele>1986.6</ele>
        <time>2018-11-24T23:38:49Z</time>
      </trkpt>
      <trkpt lat="42.80755" lon="0.66925">
        <ele>1986.8</ele>
        <time>2018-11-24T23:38:50Z</time>
      </trkpt>
      <trkpt lat="42.80753" lon="0.66927">
        <ele>1986.7</ele>
        <time>2018-11-24T23:38:51Z</time>
      </trkpt>
      <trkpt lat="42.80751" lon="0.66928">
        <ele>1986.8</ele>
        <time>2018-11-24T23:38:52Z</time>
      </trkpt>
      <trkpt lat="42.80749" lon="0.6693">
        <ele>1986.8</ele>
        <time>2018-11-24T23:38:53Z</time>
      </trkpt>
      <trkpt lat="42.80747" lon="0.66931">
        <ele>1986.8</ele>
        <time>2018-11-24T23:38:54Z</time>
      </trkpt>
      <trkpt lat="42.80745" lon="0.66932">
        <ele>1986.9</ele>
        <time>2018-11-24T23:38:55Z</time>
      </trkpt>
      <trkpt lat="42.80744" lon="0.66934">
        <ele>1986.8</ele>
        <time>2018-11-24T23:38:55Z</time>
      </trkpt>
      <trkpt lat="42.80742" lon="0.66935">
        <ele>1986.9</ele>
        <time>2018-11-24T23:38:56Z</time>
      </trkpt>
      <trkpt lat="42.8074" lon="0.66937">
        <ele>1986.9</ele>
        <time>2018-11-24T23:38:57Z</time>
      </trkpt>
      <trkpt lat="42.80739" lon="0.66938">
        <ele>1986.9</ele>
        <time>2018-11-24T23:38:58Z</time>
      </trkpt>
      <trkpt lat="42.80737" lon="0.6694">
        <ele>1986.8</ele>
        <time>2018-11-24T23:38:59Z</time>
      </trkpt>
      <trkpt lat="42.80735" lon="0.66941">
        <ele>1986.8</ele>
        <time>2018-11-24T23:39:00Z</time>
      </trkpt>
      <trkpt lat="42.80731" lon="0.66943">
        <ele>1986.7</ele>
        <time>2018-11-24T23:39:01Z</time>
      </trkpt>
      <trkpt lat="42.8073" lon="0.66944">
        <ele>1986.8</ele>
        <time>2018-11-24T23:39:02Z</time>
      </trkpt>
      <trkpt lat="42.80727" lon="0.66946">
        <ele>1986.8</ele>
        <time>2018-11-24T23:39:03Z</time>
      </trkpt>
      <trkpt lat="42.80724" lon="0.66948">
        <ele>1986.7</ele>
        <time>2018-11-24T23:39:04Z</time>
      </trkpt>
      <trkpt lat="42.80721" lon="0.66948">
        <ele>1986.7</ele>
        <time>2018-11-24T23:39:06Z</time>
      </trkpt>
      <trkpt lat="42.80719" lon="0.66949">
        <ele>1986.6</ele>
        <time>2018-11-24T23:39:07Z</time>
      </trkpt>
      <trkpt lat="42.80717" lon="0.6695">
        <ele>1986.6</ele>
        <time>2018-11-24T23:39:07Z</time>
      </trkpt>
      <trkpt lat="42.80714" lon="0.66951">
        <ele>1986.5</ele>
        <time>2018-11-24T23:39:08Z</time>
      </trkpt>
      <trkpt lat="42.80712" lon="0.66951">
        <ele>1986.5</ele>
        <time>2018-11-24T23:39:09Z</time>
      </trkpt>
      <trkpt lat="42.80711" lon="0.66952">
        <ele>1986.4</ele>
        <time>2018-11-24T23:39:10Z</time>
      </trkpt>
      <trkpt lat="42.80709" lon="0.66953">
        <ele>1986.3</ele>
        <time>2018-11-24T23:39:11Z</time>
      </trkpt>
      <trkpt lat="42.80707" lon="0.66954">
        <ele>1986.3</ele>
        <time>2018-11-24T23:39:12Z</time>
      </trkpt>
      <trkpt lat="42.80705" lon="0.66955">
        <ele>1986.4</ele>
        <time>2018-11-24T23:39:12Z</time>
      </trkpt>
      <trkpt lat="42.80702" lon="0.66955">
        <ele>1986.3</ele>
        <time>2018-11-24T23:39:13Z</time>
      </trkpt>
      <trkpt lat="42.807" lon="0.66956">
        <ele>1986.4</ele>
        <time>2018-11-24T23:39:14Z</time>
      </trkpt>
      <trkpt lat="42.80698" lon="0.66956">
        <ele>1986.5</ele>
        <time>2018-11-24T23:39:15Z</time>
      </trkpt>
      <trkpt lat="42.80696" lon="0.66956">
        <ele>1986.4</ele>
        <time>2018-11-24T23:39:16Z</time>
      </trkpt>
      <trkpt lat="42.80694" lon="0.66957">
        <ele>1986.4</ele>
        <time>2018-11-24T23:39:17Z</time>
      </trkpt>
      <trkpt lat="42.80692" lon="0.66958">
        <ele>1986.4</ele>
        <time>2018-11-24T23:39:18Z</time>
      </trkpt>
      <trkpt lat="42.80691" lon="0.6696">
        <ele>1986.5</ele>
        <time>2018-11-24T23:39:18Z</time>
      </trkpt>
      <trkpt lat="42.80688" lon="0.66961">
        <ele>1986.4</ele>
        <time>2018-11-24T23:39:19Z</time>
      </trkpt>
      <trkpt lat="42.80686" lon="0.66961">
        <ele>1986.5</ele>
        <time>2018-11-24T23:39:20Z</time>
      </trkpt>
      <trkpt lat="42.80684" lon="0.66964">
        <ele>1986.4</ele>
        <time>2018-11-24T23:39:21Z</time>
      </trkpt>
      <trkpt lat="42.80682" lon="0.66967">
        <ele>1986.4</ele>
        <time>2018-11-24T23:39:23Z</time>
      </trkpt>
      <trkpt lat="42.8068" lon="0.6697">
        <ele>1986.5</ele>
        <time>2018-11-24T23:39:24Z</time>
      </trkpt>
      <trkpt lat="42.80679" lon="0.66973">
        <ele>1986.4</ele>
        <time>2018-11-24T23:39:25Z</time>
      </trkpt>
      <trkpt lat="42.80677" lon="0.66974">
        <ele>1986.4</ele>
        <time>2018-11-24T23:39:26Z</time>
      </trkpt>
      <trkpt lat="42.80675" lon="0.66976">
        <ele>1986.3</ele>
        <time>2018-11-24T23:39:27Z</time>
      </trkpt>
      <trkpt lat="42.80673" lon="0.66977">
        <ele>1986.5</ele>
        <time>2018-11-24T23:39:27Z</time>
      </trkpt>
      <trkpt lat="42.80671" lon="0.66979">
        <ele>1986.5</ele>
        <time>2018-11-24T23:39:29Z</time>
      </trkpt>
      <trkpt lat="42.80669" lon="0.66982">
        <ele>1986.4</ele>
        <time>2018-11-24T23:39:30Z</time>
      </trkpt>
      <trkpt lat="42.80668" lon="0.66985">
        <ele>1986.4</ele>
        <time>2018-11-24T23:39:31Z</time>
      </trkpt>
      <trkpt lat="42.80666" lon="0.66988">
        <ele>1986.3</ele>
        <time>2018-11-24T23:39:32Z</time>
      </trkpt>
      <trkpt lat="42.80664" lon="0.6699">
        <ele>1986.4</ele>
        <time>2018-11-24T23:39:33Z</time>
      </trkpt>
      <trkpt lat="42.80662" lon="0.66993">
        <ele>1986.3</ele>
        <time>2018-11-24T23:39:34Z</time>
      </trkpt>
      <trkpt lat="42.8066" lon="0.66994">
        <ele>1986.3</ele>
        <time>2018-11-24T23:39:35Z</time>
      </trkpt>
      <trkpt lat="42.80657" lon="0.66997">
        <ele>1986.5</ele>
        <time>2018-11-24T23:39:36Z</time>
      </trkpt>
      <trkpt lat="42.80655" lon="0.66998">
        <ele>1986.5</ele>
        <time>2018-11-24T23:39:37Z</time>
      </trkpt>
      <trkpt lat="42.80653" lon="0.67">
        <ele>1986.4</ele>
        <time>2018-11-24T23:39:38Z</time>
      </trkpt>
      <trkpt lat="42.80651" lon="0.67001">
        <ele>1986.6</ele>
        <time>2018-11-24T23:39:39Z</time>
      </trkpt>
      <trkpt lat="42.8065" lon="0.67003">
        <ele>1986.5</ele>
        <time>2018-11-24T23:39:40Z</time>
      </trkpt>
      <trkpt lat="42.80647" lon="0.67006">
        <ele>1986.5</ele>
        <time>2018-11-24T23:39:41Z</time>
      </trkpt>
      <trkpt lat="42.80646" lon="0.67008">
        <ele>1986.6</ele>
        <time>2018-11-24T23:39:42Z</time>
      </trkpt>
      <trkpt lat="42.80644" lon="0.67011">
        <ele>1986.7</ele>
        <time>2018-11-24T23:39:43Z</time>
      </trkpt>
      <trkpt lat="42.80642" lon="0.67012">
        <ele>1986.6</ele>
        <time>2018-11-24T23:39:44Z</time>
      </trkpt>
      <trkpt lat="42.8064" lon="0.67014">
        <ele>1986.8</ele>
        <time>2018-11-24T23:39:45Z</time>
      </trkpt>
      <trkpt lat="42.80638" lon="0.67015">
        <ele>1986.8</ele>
        <time>2018-11-24T23:39:46Z</time>
      </trkpt>
      <trkpt lat="42.80637" lon="0.67017">
        <ele>1986.8</ele>
        <time>2018-11-24T23:39:46Z</time>
      </trkpt>
      <trkpt lat="42.80636" lon="0.67019">
        <ele>1986.9</ele>
        <time>2018-11-24T23:39:47Z</time>
      </trkpt>
      <trkpt lat="42.80635" lon="0.67021">
        <ele>1986.9</ele>
        <time>2018-11-24T23:39:48Z</time>
      </trkpt>
      <trkpt lat="42.80634" lon="0.67023">
        <ele>1987.1</ele>
        <time>2018-11-24T23:39:49Z</time>
      </trkpt>
      <trkpt lat="42.80633" lon="0.67026">
        <ele>1987.1</ele>
        <time>2018-11-24T23:39:50Z</time>
      </trkpt>
      <trkpt lat="42.80632" lon="0.67029">
        <ele>1987.2</ele>
        <time>2018-11-24T23:39:50Z</time>
      </trkpt>
      <trkpt lat="42.8063" lon="0.67031">
        <ele>1987.3</ele>
        <time>2018-11-24T23:39:51Z</time>
      </trkpt>
      <trkpt lat="42.80627" lon="0.67034">
        <ele>1987.5</ele>
        <time>2018-11-24T23:39:53Z</time>
      </trkpt>
      <trkpt lat="42.80626" lon="0.67037">
        <ele>1987.7</ele>
        <time>2018-11-24T23:39:54Z</time>
      </trkpt>
      <trkpt lat="42.80625" lon="0.67039">
        <ele>1987.9</ele>
        <time>2018-11-24T23:39:54Z</time>
      </trkpt>
      <trkpt lat="42.80624" lon="0.67042">
        <ele>1988.2</ele>
        <time>2018-11-24T23:39:55Z</time>
      </trkpt>
      <trkpt lat="42.80623" lon="0.67045">
        <ele>1988.3</ele>
        <time>2018-11-24T23:39:56Z</time>
      </trkpt>
      <trkpt lat="42.80622" lon="0.67048">
        <ele>1988.5</ele>
        <time>2018-11-24T23:39:57Z</time>
      </trkpt>
      <trkpt lat="42.80622" lon="0.6705">
        <ele>1988.8</ele>
        <time>2018-11-24T23:39:58Z</time>
      </trkpt>
      <trkpt lat="42.80622" lon="0.67053">
        <ele>1989</ele>
        <time>2018-11-24T23:39:59Z</time>
      </trkpt>
      <trkpt lat="42.80621" lon="0.67056">
        <ele>1989.3</ele>
        <time>2018-11-24T23:40:00Z</time>
      </trkpt>
      <trkpt lat="42.8062" lon="0.67058">
        <ele>1989.9</ele>
        <time>2018-11-24T23:40:00Z</time>
      </trkpt>
      <trkpt lat="42.80619" lon="0.67061">
        <ele>1989.6</ele>
        <time>2018-11-24T23:40:01Z</time>
      </trkpt>
      <trkpt lat="42.80619" lon="0.67065">
        <ele>1989.1</ele>
        <time>2018-11-24T23:40:02Z</time>
      </trkpt>
      <trkpt lat="42.80618" lon="0.67067">
        <ele>1988.5</ele>
        <time>2018-11-24T23:40:03Z</time>
      </trkpt>
      <trkpt lat="42.80619" lon="0.67072">
        <ele>1987.8</ele>
        <time>2018-11-24T23:40:05Z</time>
      </trkpt>
      <trkpt lat="42.80619" lon="0.67075">
        <ele>1987.4</ele>
        <time>2018-11-24T23:40:06Z</time>
      </trkpt>
      <trkpt lat="42.80619" lon="0.67078">
        <ele>1987</ele>
        <time>2018-11-24T23:40:06Z</time>
      </trkpt>
      <trkpt lat="42.8062" lon="0.67081">
        <ele>1986.6</ele>
        <time>2018-11-24T23:40:07Z</time>
      </trkpt>
      <trkpt lat="42.8062" lon="0.67083">
        <ele>1986.2</ele>
        <time>2018-11-24T23:40:08Z</time>
      </trkpt>
      <trkpt lat="42.80621" lon="0.67086">
        <ele>1986</ele>
        <time>2018-11-24T23:40:09Z</time>
      </trkpt>
      <trkpt lat="42.80621" lon="0.6709">
        <ele>1985.2</ele>
        <time>2018-11-24T23:40:10Z</time>
      </trkpt>
      <trkpt lat="42.80622" lon="0.67095">
        <ele>1984.4</ele>
        <time>2018-11-24T23:40:11Z</time>
      </trkpt>
      <trkpt lat="42.80622" lon="0.67099">
        <ele>1983.7</ele>
        <time>2018-11-24T23:40:13Z</time>
      </trkpt>
      <trkpt lat="42.80622" lon="0.67102">
        <ele>1983.1</ele>
        <time>2018-11-24T23:40:13Z</time>
      </trkpt>
      <trkpt lat="42.80623" lon="0.67104">
        <ele>1982.8</ele>
        <time>2018-11-24T23:40:14Z</time>
      </trkpt>
      <trkpt lat="42.80624" lon="0.67108">
        <ele>1982.2</ele>
        <time>2018-11-24T23:40:15Z</time>
      </trkpt>
      <trkpt lat="42.80624" lon="0.67111">
        <ele>1981.4</ele>
        <time>2018-11-24T23:40:16Z</time>
      </trkpt>
      <trkpt lat="42.80626" lon="0.67113">
        <ele>1978.9</ele>
        <time>2018-11-24T23:40:17Z</time>
      </trkpt>
      <trkpt lat="42.80626" lon="0.67118">
        <ele>1979.8</ele>
        <time>2018-11-24T23:40:18Z</time>
      </trkpt>
      <trkpt lat="42.80626" lon="0.6712">
        <ele>1979.6</ele>
        <time>2018-11-24T23:40:19Z</time>
      </trkpt>
      <trkpt lat="42.80626" lon="0.67123">
        <ele>1978.8</ele>
        <time>2018-11-24T23:40:20Z</time>
      </trkpt>
      <trkpt lat="42.80626" lon="0.67128">
        <ele>1977.4</ele>
        <time>2018-11-24T23:40:21Z</time>
      </trkpt>
      <trkpt lat="42.80627" lon="0.6713">
        <ele>1976.9</ele>
        <time>2018-11-24T23:40:22Z</time>
      </trkpt>
      <trkpt lat="42.80628" lon="0.67132">
        <ele>1976.2</ele>
        <time>2018-11-24T23:40:23Z</time>
      </trkpt>
      <trkpt lat="42.80629" lon="0.67135">
        <ele>1975.5</ele>
        <time>2018-11-24T23:40:24Z</time>
      </trkpt>
      <trkpt lat="42.8063" lon="0.67138">
        <ele>1975</ele>
        <time>2018-11-24T23:40:25Z</time>
      </trkpt>
      <trkpt lat="42.8063" lon="0.6714">
        <ele>1974.2</ele>
        <time>2018-11-24T23:40:25Z</time>
      </trkpt>
      <trkpt lat="42.80632" lon="0.67144">
        <ele>1973.1</ele>
        <time>2018-11-24T23:40:27Z</time>
      </trkpt>
      <trkpt lat="42.80632" lon="0.67149">
        <ele>1971.9</ele>
        <time>2018-11-24T23:40:28Z</time>
      </trkpt>
      <trkpt lat="42.80633" lon="0.67153">
        <ele>1970.5</ele>
        <time>2018-11-24T23:40:29Z</time>
      </trkpt>
      <trkpt lat="42.80633" lon="0.67156">
        <ele>1969.8</ele>
        <time>2018-11-24T23:40:30Z</time>
      </trkpt>
      <trkpt lat="42.80634" lon="0.67158">
        <ele>1969</ele>
        <time>2018-11-24T23:40:31Z</time>
      </trkpt>
      <trkpt lat="42.80634" lon="0.67163">
        <ele>1967.5</ele>
        <time>2018-11-24T23:40:32Z</time>
      </trkpt>
      <trkpt lat="42.80636" lon="0.67167">
        <ele>1966.5</ele>
        <time>2018-11-24T23:40:34Z</time>
      </trkpt>
      <trkpt lat="42.80638" lon="0.67171">
        <ele>1965.3</ele>
        <time>2018-11-24T23:40:35Z</time>
      </trkpt>
      <trkpt lat="42.80639" lon="0.67174">
        <ele>1964.1</ele>
        <time>2018-11-24T23:40:36Z</time>
      </trkpt>
      <trkpt lat="42.8064" lon="0.67179">
        <ele>1962.8</ele>
        <time>2018-11-24T23:40:38Z</time>
      </trkpt>
      <trkpt lat="42.8064" lon="0.67181">
        <ele>1961.9</ele>
        <time>2018-11-24T23:40:38Z</time>
      </trkpt>
      <trkpt lat="42.80642" lon="0.67186">
        <ele>1960.4</ele>
        <time>2018-11-24T23:40:40Z</time>
      </trkpt>
      <trkpt lat="42.80642" lon="0.67189">
        <ele>1959.5</ele>
        <time>2018-11-24T23:40:41Z</time>
      </trkpt>
      <trkpt lat="42.80643" lon="0.67191">
        <ele>1958.6</ele>
        <time>2018-11-24T23:40:41Z</time>
      </trkpt>
      <trkpt lat="42.80644" lon="0.67194">
        <ele>1957.7</ele>
        <time>2018-11-24T23:40:42Z</time>
      </trkpt>
      <trkpt lat="42.80645" lon="0.67196">
        <ele>1957.1</ele>
        <time>2018-11-24T23:40:43Z</time>
      </trkpt>
      <trkpt lat="42.80646" lon="0.672">
        <ele>1955.5</ele>
        <time>2018-11-24T23:40:44Z</time>
      </trkpt>
      <trkpt lat="42.80646" lon="0.67203">
        <ele>1954.7</ele>
        <time>2018-11-24T23:40:45Z</time>
      </trkpt>
      <trkpt lat="42.80645" lon="0.67207">
        <ele>1953.4</ele>
        <time>2018-11-24T23:40:47Z</time>
      </trkpt>
      <trkpt lat="42.80644" lon="0.67211">
        <ele>1952.3</ele>
        <time>2018-11-24T23:40:48Z</time>
      </trkpt>
      <trkpt lat="42.80643" lon="0.67213">
        <ele>1951.6</ele>
        <time>2018-11-24T23:40:49Z</time>
      </trkpt>
      <trkpt lat="42.80641" lon="0.67215">
        <ele>1951.2</ele>
        <time>2018-11-24T23:40:50Z</time>
      </trkpt>
      <trkpt lat="42.80639" lon="0.67215">
        <ele>1950.9</ele>
        <time>2018-11-24T23:40:51Z</time>
      </trkpt>
      <trkpt lat="42.80636" lon="0.67215">
        <ele>1951.1</ele>
        <time>2018-11-24T23:40:52Z</time>
      </trkpt>
      <trkpt lat="42.80634" lon="0.67217">
        <ele>1950.5</ele>
        <time>2018-11-24T23:40:53Z</time>
      </trkpt>
      <trkpt lat="42.80631" lon="0.67216">
        <ele>1950.5</ele>
        <time>2018-11-24T23:40:54Z</time>
      </trkpt>
      <trkpt lat="42.80629" lon="0.67215">
        <ele>1950.7</ele>
        <time>2018-11-24T23:40:54Z</time>
      </trkpt>
      <trkpt lat="42.80628" lon="0.67214">
        <ele>1950.8</ele>
        <time>2018-11-24T23:40:55Z</time>
      </trkpt>
      <trkpt lat="42.80626" lon="0.67213">
        <ele>1951</ele>
        <time>2018-11-24T23:40:56Z</time>
      </trkpt>
      <trkpt lat="42.80623" lon="0.67213">
        <ele>1950.8</ele>
        <time>2018-11-24T23:40:57Z</time>
      </trkpt>
      <trkpt lat="42.80621" lon="0.67213">
        <ele>1950.6</ele>
        <time>2018-11-24T23:40:58Z</time>
      </trkpt>
      <trkpt lat="42.80619" lon="0.67211">
        <ele>1950.9</ele>
        <time>2018-11-24T23:40:59Z</time>
      </trkpt>
      <trkpt lat="42.80617" lon="0.67208">
        <ele>1951.3</ele>
        <time>2018-11-24T23:41:00Z</time>
      </trkpt>
      <trkpt lat="42.80616" lon="0.67207">
        <ele>1951.4</ele>
        <time>2018-11-24T23:41:01Z</time>
      </trkpt>
      <trkpt lat="42.80614" lon="0.67204">
        <ele>1951.8</ele>
        <time>2018-11-24T23:41:02Z</time>
      </trkpt>
      <trkpt lat="42.80612" lon="0.67203">
        <ele>1951.8</ele>
        <time>2018-11-24T23:41:03Z</time>
      </trkpt>
      <trkpt lat="42.8061" lon="0.67203">
        <ele>1951.5</ele>
        <time>2018-11-24T23:41:03Z</time>
      </trkpt>
      <trkpt lat="42.80607" lon="0.67202">
        <ele>1951</ele>
        <time>2018-11-24T23:41:05Z</time>
      </trkpt>
      <trkpt lat="42.80605" lon="0.67201">
        <ele>1951</ele>
        <time>2018-11-24T23:41:06Z</time>
      </trkpt>
      <trkpt lat="42.80602" lon="0.672">
        <ele>1950.7</ele>
        <time>2018-11-24T23:41:07Z</time>
      </trkpt>
      <trkpt lat="42.80599" lon="0.67198">
        <ele>1950.3</ele>
        <time>2018-11-24T23:41:08Z</time>
      </trkpt>
      <trkpt lat="42.80597" lon="0.67197">
        <ele>1950.1</ele>
        <time>2018-11-24T23:41:09Z</time>
      </trkpt>
      <trkpt lat="42.80595" lon="0.67197">
        <ele>1949.7</ele>
        <time>2018-11-24T23:41:10Z</time>
      </trkpt>
      <trkpt lat="42.80592" lon="0.67197">
        <ele>1948.9</ele>
        <time>2018-11-24T23:41:11Z</time>
      </trkpt>
      <trkpt lat="42.80589" lon="0.67197">
        <ele>1947.8</ele>
        <time>2018-11-24T23:41:12Z</time>
      </trkpt>
      <trkpt lat="42.80586" lon="0.67195">
        <ele>1947.7</ele>
        <time>2018-11-24T23:41:13Z</time>
      </trkpt>
      <trkpt lat="42.80584" lon="0.67192">
        <ele>1947.4</ele>
        <time>2018-11-24T23:41:15Z</time>
      </trkpt>
      <trkpt lat="42.80582" lon="0.67191">
        <ele>1947.3</ele>
        <time>2018-11-24T23:41:15Z</time>
      </trkpt>
      <trkpt lat="42.80579" lon="0.67188">
        <ele>1947.1</ele>
        <time>2018-11-24T23:41:17Z</time>
      </trkpt>
      <trkpt lat="42.80578" lon="0.67187">
        <ele>1946.7</ele>
        <time>2018-11-24T23:41:17Z</time>
      </trkpt>
      <trkpt lat="42.80575" lon="0.67186">
        <ele>1946.3</ele>
        <time>2018-11-24T23:41:19Z</time>
      </trkpt>
      <trkpt lat="42.80573" lon="0.67184">
        <ele>1946.1</ele>
        <time>2018-11-24T23:41:20Z</time>
      </trkpt>
      <trkpt lat="42.80571" lon="0.6718">
        <ele>1946.4</ele>
        <time>2018-11-24T23:41:21Z</time>
      </trkpt>
      <trkpt lat="42.8057" lon="0.67178">
        <ele>1946.7</ele>
        <time>2018-11-24T23:41:22Z</time>
      </trkpt>
      <trkpt lat="42.80568" lon="0.67176">
        <ele>1946.7</ele>
        <time>2018-11-24T23:41:23Z</time>
      </trkpt>
      <trkpt lat="42.80567" lon="0.67174">
        <ele>1946.9</ele>
        <time>2018-11-24T23:41:23Z</time>
      </trkpt>
      <trkpt lat="42.80566" lon="0.67172">
        <ele>1947</ele>
        <time>2018-11-24T23:41:24Z</time>
      </trkpt>
      <trkpt lat="42.80564" lon="0.6717">
        <ele>1946.8</ele>
        <time>2018-11-24T23:41:25Z</time>
      </trkpt>
      <trkpt lat="42.80563" lon="0.67166">
        <ele>1947.3</ele>
        <time>2018-11-24T23:41:26Z</time>
      </trkpt>
      <trkpt lat="42.80562" lon="0.67164">
        <ele>1947.7</ele>
        <time>2018-11-24T23:41:27Z</time>
      </trkpt>
      <trkpt lat="42.8056" lon="0.67162">
        <ele>1947.6</ele>
        <time>2018-11-24T23:41:28Z</time>
      </trkpt>
      <trkpt lat="42.80558" lon="0.67161">
        <ele>1947.2</ele>
        <time>2018-11-24T23:41:29Z</time>
      </trkpt>
      <trkpt lat="42.80556" lon="0.67159">
        <ele>1947</ele>
        <time>2018-11-24T23:41:30Z</time>
      </trkpt>
      <trkpt lat="42.80549" lon="0.67153">
        <ele>1945.6</ele>
        <time>2018-11-24T23:41:33Z</time>
      </trkpt>
      <trkpt lat="42.80547" lon="0.67152">
        <ele>1945.3</ele>
        <time>2018-11-24T23:41:34Z</time>
      </trkpt>
      <trkpt lat="42.80545" lon="0.67149">
        <ele>1944.9</ele>
        <time>2018-11-24T23:41:35Z</time>
      </trkpt>
      <trkpt lat="42.80543" lon="0.67147">
        <ele>1944.9</ele>
        <time>2018-11-24T23:41:36Z</time>
      </trkpt>
      <trkpt lat="42.80541" lon="0.67144">
        <ele>1944.6</ele>
        <time>2018-11-24T23:41:37Z</time>
      </trkpt>
      <trkpt lat="42.8054" lon="0.67142">
        <ele>1944.8</ele>
        <time>2018-11-24T23:41:38Z</time>
      </trkpt>
      <trkpt lat="42.80538" lon="0.67139">
        <ele>1944.5</ele>
        <time>2018-11-24T23:41:39Z</time>
      </trkpt>
      <trkpt lat="42.80534" lon="0.67136">
        <ele>1943.6</ele>
        <time>2018-11-24T23:41:41Z</time>
      </trkpt>
      <trkpt lat="42.80533" lon="0.67135">
        <ele>1943.3</ele>
        <time>2018-11-24T23:41:41Z</time>
      </trkpt>
      <trkpt lat="42.8053" lon="0.67132">
        <ele>1942.9</ele>
        <time>2018-11-24T23:41:43Z</time>
      </trkpt>
      <trkpt lat="42.80529" lon="0.6713">
        <ele>1942.6</ele>
        <time>2018-11-24T23:41:44Z</time>
      </trkpt>
      <trkpt lat="42.80527" lon="0.67127">
        <ele>1942.7</ele>
        <time>2018-11-24T23:41:45Z</time>
      </trkpt>
      <trkpt lat="42.80526" lon="0.67125">
        <ele>1942.5</ele>
        <time>2018-11-24T23:41:46Z</time>
      </trkpt>
      <trkpt lat="42.80524" lon="0.67123">
        <ele>1942.3</ele>
        <time>2018-11-24T23:41:46Z</time>
      </trkpt>
      <trkpt lat="42.80523" lon="0.67121">
        <ele>1942.3</ele>
        <time>2018-11-24T23:41:47Z</time>
      </trkpt>
      <trkpt lat="42.80522" lon="0.67119">
        <ele>1942.1</ele>
        <time>2018-11-24T23:41:48Z</time>
      </trkpt>
      <trkpt lat="42.80521" lon="0.67116">
        <ele>1942.1</ele>
        <time>2018-11-24T23:41:49Z</time>
      </trkpt>
      <trkpt lat="42.80519" lon="0.67112">
        <ele>1942.3</ele>
        <time>2018-11-24T23:41:50Z</time>
      </trkpt>
      <trkpt lat="42.80519" lon="0.67109">
        <ele>1942.6</ele>
        <time>2018-11-24T23:41:51Z</time>
      </trkpt>
      <trkpt lat="42.80519" lon="0.67106">
        <ele>1943</ele>
        <time>2018-11-24T23:41:52Z</time>
      </trkpt>
      <trkpt lat="42.80518" lon="0.67103">
        <ele>1942.8</ele>
        <time>2018-11-24T23:41:53Z</time>
      </trkpt>
      <trkpt lat="42.80516" lon="0.67101">
        <ele>1942.4</ele>
        <time>2018-11-24T23:41:54Z</time>
      </trkpt>
      <trkpt lat="42.80513" lon="0.67099">
        <ele>1941.7</ele>
        <time>2018-11-24T23:41:55Z</time>
      </trkpt>
      <trkpt lat="42.80511" lon="0.67096">
        <ele>1941</ele>
        <time>2018-11-24T23:41:56Z</time>
      </trkpt>
      <trkpt lat="42.80509" lon="0.67094">
        <ele>1940.7</ele>
        <time>2018-11-24T23:41:57Z</time>
      </trkpt>
      <trkpt lat="42.80508" lon="0.67092">
        <ele>1940.3</ele>
        <time>2018-11-24T23:41:58Z</time>
      </trkpt>
      <trkpt lat="42.80507" lon="0.67089">
        <ele>1940</ele>
        <time>2018-11-24T23:41:59Z</time>
      </trkpt>
      <trkpt lat="42.80505" lon="0.67087">
        <ele>1940.5</ele>
        <time>2018-11-24T23:42:00Z</time>
      </trkpt>
      <trkpt lat="42.80504" lon="0.67085">
        <ele>1939.4</ele>
        <time>2018-11-24T23:42:01Z</time>
      </trkpt>
      <trkpt lat="42.80503" lon="0.67083">
        <ele>1939</ele>
        <time>2018-11-24T23:42:02Z</time>
      </trkpt>
      <trkpt lat="42.80501" lon="0.6708">
        <ele>1938.4</ele>
        <time>2018-11-24T23:42:02Z</time>
      </trkpt>
      <trkpt lat="42.80497" lon="0.67079">
        <ele>1937.4</ele>
        <time>2018-11-24T23:42:04Z</time>
      </trkpt>
      <trkpt lat="42.80496" lon="0.67078">
        <ele>1936.8</ele>
        <time>2018-11-24T23:42:05Z</time>
      </trkpt>
      <trkpt lat="42.80492" lon="0.67077">
        <ele>1935.5</ele>
        <time>2018-11-24T23:42:06Z</time>
      </trkpt>
      <trkpt lat="42.8049" lon="0.67076">
        <ele>1935</ele>
        <time>2018-11-24T23:42:07Z</time>
      </trkpt>
      <trkpt lat="42.80488" lon="0.67075">
        <ele>1934.2</ele>
        <time>2018-11-24T23:42:08Z</time>
      </trkpt>
      <trkpt lat="42.80486" lon="0.67075">
        <ele>1933.5</ele>
        <time>2018-11-24T23:42:09Z</time>
      </trkpt>
      <trkpt lat="42.80484" lon="0.67074">
        <ele>1932.8</ele>
        <time>2018-11-24T23:42:10Z</time>
      </trkpt>
      <trkpt lat="42.80482" lon="0.67074">
        <ele>1932.1</ele>
        <time>2018-11-24T23:42:10Z</time>
      </trkpt>
      <trkpt lat="42.80478" lon="0.67073">
        <ele>1931.1</ele>
        <time>2018-11-24T23:42:12Z</time>
      </trkpt>
      <trkpt lat="42.80475" lon="0.67072">
        <ele>1930</ele>
        <time>2018-11-24T23:42:13Z</time>
      </trkpt>
      <trkpt lat="42.80473" lon="0.67071">
        <ele>1930.5</ele>
        <time>2018-11-24T23:42:14Z</time>
      </trkpt>
      <trkpt lat="42.80472" lon="0.6707">
        <ele>1929.1</ele>
        <time>2018-11-24T23:42:15Z</time>
      </trkpt>
      <trkpt lat="42.80469" lon="0.67067">
        <ele>1928.4</ele>
        <time>2018-11-24T23:42:16Z</time>
      </trkpt>
      <trkpt lat="42.80466" lon="0.67066">
        <ele>1927.5</ele>
        <time>2018-11-24T23:42:17Z</time>
      </trkpt>
      <trkpt lat="42.80464" lon="0.67066">
        <ele>1927.1</ele>
        <time>2018-11-24T23:42:18Z</time>
      </trkpt>
      <trkpt lat="42.80461" lon="0.67066">
        <ele>1926.1</ele>
        <time>2018-11-24T23:42:19Z</time>
      </trkpt>
      <trkpt lat="42.80459" lon="0.67066">
        <ele>1925.5</ele>
        <time>2018-11-24T23:42:20Z</time>
      </trkpt>
      <trkpt lat="42.80456" lon="0.67066">
        <ele>1924.8</ele>
        <time>2018-11-24T23:42:21Z</time>
      </trkpt>
      <trkpt lat="42.80452" lon="0.67065">
        <ele>1923.7</ele>
        <time>2018-11-24T23:42:23Z</time>
      </trkpt>
      <trkpt lat="42.8045" lon="0.67066">
        <ele>1923.1</ele>
        <time>2018-11-24T23:42:24Z</time>
      </trkpt>
      <trkpt lat="42.80449" lon="0.67067">
        <ele>1922.6</ele>
        <time>2018-11-24T23:42:24Z</time>
      </trkpt>
      <trkpt lat="42.80446" lon="0.67068">
        <ele>1921.7</ele>
        <time>2018-11-24T23:42:26Z</time>
      </trkpt>
      <trkpt lat="42.80442" lon="0.67068">
        <ele>1920.8</ele>
        <time>2018-11-24T23:42:27Z</time>
      </trkpt>
      <trkpt lat="42.8044" lon="0.67068">
        <ele>1920</ele>
        <time>2018-11-24T23:42:28Z</time>
      </trkpt>
      <trkpt lat="42.80438" lon="0.67068">
        <ele>1919.6</ele>
        <time>2018-11-24T23:42:29Z</time>
      </trkpt>
      <trkpt lat="42.80436" lon="0.6707">
        <ele>1918.9</ele>
        <time>2018-11-24T23:42:30Z</time>
      </trkpt>
      <trkpt lat="42.80433" lon="0.67069">
        <ele>1917.9</ele>
        <time>2018-11-24T23:42:31Z</time>
      </trkpt>
      <trkpt lat="42.8043" lon="0.67069">
        <ele>1917.2</ele>
        <time>2018-11-24T23:42:32Z</time>
      </trkpt>
      <trkpt lat="42.80427" lon="0.67068">
        <ele>1916.3</ele>
        <time>2018-11-24T23:42:33Z</time>
      </trkpt>
      <trkpt lat="42.80423" lon="0.67067">
        <ele>1915.4</ele>
        <time>2018-11-24T23:42:35Z</time>
      </trkpt>
      <trkpt lat="42.80421" lon="0.67067">
        <ele>1914.9</ele>
        <time>2018-11-24T23:42:35Z</time>
      </trkpt>
      <trkpt lat="42.80419" lon="0.67066">
        <ele>1914.4</ele>
        <time>2018-11-24T23:42:36Z</time>
      </trkpt>
      <trkpt lat="42.80418" lon="0.67064">
        <ele>1914.1</ele>
        <time>2018-11-24T23:42:37Z</time>
      </trkpt>
      <trkpt lat="42.80414" lon="0.67062">
        <ele>1913.3</ele>
        <time>2018-11-24T23:42:38Z</time>
      </trkpt>
      <trkpt lat="42.80411" lon="0.67061">
        <ele>1912.6</ele>
        <time>2018-11-24T23:42:40Z</time>
      </trkpt>
      <trkpt lat="42.80409" lon="0.6706">
        <ele>1912.1</ele>
        <time>2018-11-24T23:42:41Z</time>
      </trkpt>
      <trkpt lat="42.80407" lon="0.67057">
        <ele>1911.9</ele>
        <time>2018-11-24T23:42:42Z</time>
      </trkpt>
      <trkpt lat="42.80406" lon="0.67054">
        <ele>1911.6</ele>
        <time>2018-11-24T23:42:43Z</time>
      </trkpt>
      <trkpt lat="42.80405" lon="0.67052">
        <ele>1911.4</ele>
        <time>2018-11-24T23:42:44Z</time>
      </trkpt>
      <trkpt lat="42.80404" lon="0.6705">
        <ele>1911.1</ele>
        <time>2018-11-24T23:42:44Z</time>
      </trkpt>
      <trkpt lat="42.80402" lon="0.67048">
        <ele>1910.8</ele>
        <time>2018-11-24T23:42:45Z</time>
      </trkpt>
      <trkpt lat="42.804" lon="0.67047">
        <ele>1909.7</ele>
        <time>2018-11-24T23:42:46Z</time>
      </trkpt>
      <trkpt lat="42.80398" lon="0.67045">
        <ele>1910</ele>
        <time>2018-11-24T23:42:47Z</time>
      </trkpt>
      <trkpt lat="42.80397" lon="0.67044">
        <ele>1909.6</ele>
        <time>2018-11-24T23:42:48Z</time>
      </trkpt>
      <trkpt lat="42.80395" lon="0.67042">
        <ele>1909.2</ele>
        <time>2018-11-24T23:42:48Z</time>
      </trkpt>
      <trkpt lat="42.80393" lon="0.67041">
        <ele>1908.8</ele>
        <time>2018-11-24T23:42:49Z</time>
      </trkpt>
      <trkpt lat="42.80392" lon="0.67039">
        <ele>1908.4</ele>
        <time>2018-11-24T23:42:50Z</time>
      </trkpt>
      <trkpt lat="42.80389" lon="0.67037">
        <ele>1907.7</ele>
        <time>2018-11-24T23:42:51Z</time>
      </trkpt>
      <trkpt lat="42.80387" lon="0.67035">
        <ele>1907.3</ele>
        <time>2018-11-24T23:42:52Z</time>
      </trkpt>
      <trkpt lat="42.80385" lon="0.67034">
        <ele>1907.1</ele>
        <time>2018-11-24T23:42:53Z</time>
      </trkpt>
      <trkpt lat="42.80384" lon="0.67033">
        <ele>1906.7</ele>
        <time>2018-11-24T23:42:54Z</time>
      </trkpt>
      <trkpt lat="42.80382" lon="0.67031">
        <ele>1906.4</ele>
        <time>2018-11-24T23:42:55Z</time>
      </trkpt>
      <trkpt lat="42.8038" lon="0.6703">
        <ele>1906.1</ele>
        <time>2018-11-24T23:42:55Z</time>
      </trkpt>
      <trkpt lat="42.80378" lon="0.67029">
        <ele>1905.8</ele>
        <time>2018-11-24T23:42:56Z</time>
      </trkpt>
      <trkpt lat="42.80377" lon="0.67028">
        <ele>1905.4</ele>
        <time>2018-11-24T23:42:57Z</time>
      </trkpt>
      <trkpt lat="42.80374" lon="0.67025">
        <ele>1904.9</ele>
        <time>2018-11-24T23:42:58Z</time>
      </trkpt>
      <trkpt lat="42.80372" lon="0.67024">
        <ele>1904.6</ele>
        <time>2018-11-24T23:42:59Z</time>
      </trkpt>
      <trkpt lat="42.8037" lon="0.67023">
        <ele>1904.3</ele>
        <time>2018-11-24T23:43:00Z</time>
      </trkpt>
      <trkpt lat="42.80369" lon="0.67022">
        <ele>1904.1</ele>
        <time>2018-11-24T23:43:01Z</time>
      </trkpt>
      <trkpt lat="42.80366" lon="0.67018">
        <ele>1903.8</ele>
        <time>2018-11-24T23:43:02Z</time>
      </trkpt>
      <trkpt lat="42.80364" lon="0.67017">
        <ele>1903.5</ele>
        <time>2018-11-24T23:43:03Z</time>
      </trkpt>
      <trkpt lat="42.80362" lon="0.67017">
        <ele>1903.2</ele>
        <time>2018-11-24T23:43:04Z</time>
      </trkpt>
      <trkpt lat="42.8036" lon="0.67016">
        <ele>1902.8</ele>
        <time>2018-11-24T23:43:05Z</time>
      </trkpt>
      <trkpt lat="42.80358" lon="0.67015">
        <ele>1902.6</ele>
        <time>2018-11-24T23:43:06Z</time>
      </trkpt>
      <trkpt lat="42.80356" lon="0.67014">
        <ele>1902.2</ele>
        <time>2018-11-24T23:43:07Z</time>
      </trkpt>
      <trkpt lat="42.80354" lon="0.67012">
        <ele>1902</ele>
        <time>2018-11-24T23:43:07Z</time>
      </trkpt>
      <trkpt lat="42.80352" lon="0.67011">
        <ele>1901.7</ele>
        <time>2018-11-24T23:43:08Z</time>
      </trkpt>
      <trkpt lat="42.80349" lon="0.6701">
        <ele>1901.5</ele>
        <time>2018-11-24T23:43:09Z</time>
      </trkpt>
      <trkpt lat="42.80347" lon="0.67009">
        <ele>1901.2</ele>
        <time>2018-11-24T23:43:10Z</time>
      </trkpt>
      <trkpt lat="42.80345" lon="0.67007">
        <ele>1901.1</ele>
        <time>2018-11-24T23:43:11Z</time>
      </trkpt>
      <trkpt lat="42.80343" lon="0.67006">
        <ele>1900.8</ele>
        <time>2018-11-24T23:43:12Z</time>
      </trkpt>
      <trkpt lat="42.80341" lon="0.67005">
        <ele>1899.4</ele>
        <time>2018-11-24T23:43:13Z</time>
      </trkpt>
      <trkpt lat="42.80338" lon="0.67003">
        <ele>1899.7</ele>
        <time>2018-11-24T23:43:14Z</time>
      </trkpt>
      <trkpt lat="42.80336" lon="0.67001">
        <ele>1899.8</ele>
        <time>2018-11-24T23:43:15Z</time>
      </trkpt>
      <trkpt lat="42.80334" lon="0.66999">
        <ele>1899.8</ele>
        <time>2018-11-24T23:43:16Z</time>
      </trkpt>
      <trkpt lat="42.80332" lon="0.66997">
        <ele>1899.9</ele>
        <time>2018-11-24T23:43:17Z</time>
      </trkpt>
      <trkpt lat="42.8033" lon="0.66996">
        <ele>1900</ele>
        <time>2018-11-24T23:43:18Z</time>
      </trkpt>
      <trkpt lat="42.80327" lon="0.66995">
        <ele>1899.8</ele>
        <time>2018-11-24T23:43:19Z</time>
      </trkpt>
      <trkpt lat="42.80325" lon="0.66994">
        <ele>1899.8</ele>
        <time>2018-11-24T23:43:20Z</time>
      </trkpt>
      <trkpt lat="42.80323" lon="0.66993">
        <ele>1899.6</ele>
        <time>2018-11-24T23:43:21Z</time>
      </trkpt>
      <trkpt lat="42.8032" lon="0.66992">
        <ele>1899.5</ele>
        <time>2018-11-24T23:43:22Z</time>
      </trkpt>
      <trkpt lat="42.80318" lon="0.66992">
        <ele>1899.5</ele>
        <time>2018-11-24T23:43:23Z</time>
      </trkpt>
      <trkpt lat="42.80315" lon="0.66992">
        <ele>1900.8</ele>
        <time>2018-11-24T23:43:24Z</time>
      </trkpt>
      <trkpt lat="42.80313" lon="0.66991">
        <ele>1901.1</ele>
        <time>2018-11-24T23:43:25Z</time>
      </trkpt>
      <trkpt lat="42.80311" lon="0.66994">
        <ele>1900.9</ele>
        <time>2018-11-24T23:43:26Z</time>
      </trkpt>
      <trkpt lat="42.80309" lon="0.66991">
        <ele>1901.4</ele>
        <time>2018-11-24T23:43:27Z</time>
      </trkpt>
      <trkpt lat="42.80306" lon="0.6699">
        <ele>1901.8</ele>
        <time>2018-11-24T23:43:28Z</time>
      </trkpt>
      <trkpt lat="42.80304" lon="0.66988">
        <ele>1902</ele>
        <time>2018-11-24T23:43:29Z</time>
      </trkpt>
      <trkpt lat="42.80302" lon="0.66986">
        <ele>1902.5</ele>
        <time>2018-11-24T23:43:30Z</time>
      </trkpt>
      <trkpt lat="42.803" lon="0.66985">
        <ele>1902.6</ele>
        <time>2018-11-24T23:43:31Z</time>
      </trkpt>
      <trkpt lat="42.80297" lon="0.66985">
        <ele>1902.9</ele>
        <time>2018-11-24T23:43:32Z</time>
      </trkpt>
      <trkpt lat="42.80294" lon="0.66985">
        <ele>1903.2</ele>
        <time>2018-11-24T23:43:34Z</time>
      </trkpt>
      <trkpt lat="42.80291" lon="0.66986">
        <ele>1903.5</ele>
        <time>2018-11-24T23:43:35Z</time>
      </trkpt>
      <trkpt lat="42.80289" lon="0.66986">
        <ele>1903.8</ele>
        <time>2018-11-24T23:43:36Z</time>
      </trkpt>
      <trkpt lat="42.80286" lon="0.66986">
        <ele>1904.1</ele>
        <time>2018-11-24T23:43:37Z</time>
      </trkpt>
      <trkpt lat="42.80284" lon="0.66987">
        <ele>1904.3</ele>
        <time>2018-11-24T23:43:38Z</time>
      </trkpt>
      <trkpt lat="42.80281" lon="0.66987">
        <ele>1904.6</ele>
        <time>2018-11-24T23:43:39Z</time>
      </trkpt>
      <trkpt lat="42.80279" lon="0.66988">
        <ele>1904.8</ele>
        <time>2018-11-24T23:43:40Z</time>
      </trkpt>
      <trkpt lat="42.80277" lon="0.66987">
        <ele>1905.1</ele>
        <time>2018-11-24T23:43:40Z</time>
      </trkpt>
      <trkpt lat="42.80275" lon="0.66987">
        <ele>1905.3</ele>
        <time>2018-11-24T23:43:41Z</time>
      </trkpt>
      <trkpt lat="42.80272" lon="0.66987">
        <ele>1905.8</ele>
        <time>2018-11-24T23:43:42Z</time>
      </trkpt>
      <trkpt lat="42.8027" lon="0.66988">
        <ele>1905.9</ele>
        <time>2018-11-24T23:43:43Z</time>
      </trkpt>
      <trkpt lat="42.80268" lon="0.66988">
        <ele>1906.2</ele>
        <time>2018-11-24T23:43:44Z</time>
      </trkpt>
      <trkpt lat="42.80266" lon="0.66988">
        <ele>1906.6</ele>
        <time>2018-11-24T23:43:45Z</time>
      </trkpt>
      <trkpt lat="42.80264" lon="0.66987">
        <ele>1906.9</ele>
        <time>2018-11-24T23:43:46Z</time>
      </trkpt>
      <trkpt lat="42.80262" lon="0.66987">
        <ele>1907.5</ele>
        <time>2018-11-24T23:43:47Z</time>
      </trkpt>
      <trkpt lat="42.8026" lon="0.66987">
        <ele>1907.7</ele>
        <time>2018-11-24T23:43:48Z</time>
      </trkpt>
      <trkpt lat="42.80258" lon="0.66986">
        <ele>1908.2</ele>
        <time>2018-11-24T23:43:48Z</time>
      </trkpt>
      <trkpt lat="42.80255" lon="0.66986">
        <ele>1908.7</ele>
        <time>2018-11-24T23:43:49Z</time>
      </trkpt>
      <trkpt lat="42.80253" lon="0.66986">
        <ele>1909.1</ele>
        <time>2018-11-24T23:43:50Z</time>
      </trkpt>
      <trkpt lat="42.80251" lon="0.66986">
        <ele>1909.6</ele>
        <time>2018-11-24T23:43:51Z</time>
      </trkpt>
      <trkpt lat="42.80249" lon="0.66986">
        <ele>1909.9</ele>
        <time>2018-11-24T23:43:52Z</time>
      </trkpt>
      <trkpt lat="42.80247" lon="0.66986">
        <ele>1910.2</ele>
        <time>2018-11-24T23:43:53Z</time>
      </trkpt>
      <trkpt lat="42.80245" lon="0.66986">
        <ele>1910.6</ele>
        <time>2018-11-24T23:43:54Z</time>
      </trkpt>
      <trkpt lat="42.80243" lon="0.66985">
        <ele>1911</ele>
        <time>2018-11-24T23:43:54Z</time>
      </trkpt>
      <trkpt lat="42.80241" lon="0.66984">
        <ele>1911.5</ele>
        <time>2018-11-24T23:43:55Z</time>
      </trkpt>
      <trkpt lat="42.80238" lon="0.66984">
        <ele>1912</ele>
        <time>2018-11-24T23:43:56Z</time>
      </trkpt>
      <trkpt lat="42.80236" lon="0.66983">
        <ele>1912.6</ele>
        <time>2018-11-24T23:43:57Z</time>
      </trkpt>
      <trkpt lat="42.80234" lon="0.66982">
        <ele>1913</ele>
        <time>2018-11-24T23:43:58Z</time>
      </trkpt>
      <trkpt lat="42.80232" lon="0.66982">
        <ele>1913.4</ele>
        <time>2018-11-24T23:43:59Z</time>
      </trkpt>
      <trkpt lat="42.80229" lon="0.66981">
        <ele>1913.9</ele>
        <time>2018-11-24T23:44:00Z</time>
      </trkpt>
      <trkpt lat="42.80227" lon="0.6698">
        <ele>1914.3</ele>
        <time>2018-11-24T23:44:01Z</time>
      </trkpt>
      <trkpt lat="42.80225" lon="0.66979">
        <ele>1914.9</ele>
        <time>2018-11-24T23:44:02Z</time>
      </trkpt>
      <trkpt lat="42.80223" lon="0.66977">
        <ele>1915.4</ele>
        <time>2018-11-24T23:44:03Z</time>
      </trkpt>
      <trkpt lat="42.80222" lon="0.66976">
        <ele>1915.9</ele>
        <time>2018-11-24T23:44:03Z</time>
      </trkpt>
      <trkpt lat="42.8022" lon="0.66975">
        <ele>1916.3</ele>
        <time>2018-11-24T23:44:04Z</time>
      </trkpt>
      <trkpt lat="42.80218" lon="0.66974">
        <ele>1916.6</ele>
        <time>2018-11-24T23:44:05Z</time>
      </trkpt>
      <trkpt lat="42.80216" lon="0.66973">
        <ele>1917.1</ele>
        <time>2018-11-24T23:44:06Z</time>
      </trkpt>
      <trkpt lat="42.80214" lon="0.66972">
        <ele>1917.5</ele>
        <time>2018-11-24T23:44:07Z</time>
      </trkpt>
      <trkpt lat="42.80212" lon="0.66971">
        <ele>1917.9</ele>
        <time>2018-11-24T23:44:07Z</time>
      </trkpt>
      <trkpt lat="42.8021" lon="0.6697">
        <ele>1918.5</ele>
        <time>2018-11-24T23:44:08Z</time>
      </trkpt>
      <trkpt lat="42.80208" lon="0.66969">
        <ele>1918.8</ele>
        <time>2018-11-24T23:44:09Z</time>
      </trkpt>
      <trkpt lat="42.80206" lon="0.66968">
        <ele>1919.2</ele>
        <time>2018-11-24T23:44:10Z</time>
      </trkpt>
      <trkpt lat="42.80204" lon="0.66967">
        <ele>1919.6</ele>
        <time>2018-11-24T23:44:11Z</time>
      </trkpt>
      <trkpt lat="42.80202" lon="0.66966">
        <ele>1920</ele>
        <time>2018-11-24T23:44:12Z</time>
      </trkpt>
      <trkpt lat="42.802" lon="0.66964">
        <ele>1919.6</ele>
        <time>2018-11-24T23:44:13Z</time>
      </trkpt>
      <trkpt lat="42.80199" lon="0.66964">
        <ele>1919.3</ele>
        <time>2018-11-24T23:44:13Z</time>
      </trkpt>
      <trkpt lat="42.80197" lon="0.66963">
        <ele>1920.9</ele>
        <time>2018-11-24T23:44:14Z</time>
      </trkpt>
      <trkpt lat="42.80196" lon="0.66961">
        <ele>1921.4</ele>
        <time>2018-11-24T23:44:15Z</time>
      </trkpt>
      <trkpt lat="42.80194" lon="0.66959">
        <ele>1921.8</ele>
        <time>2018-11-24T23:44:16Z</time>
      </trkpt>
      <trkpt lat="42.80194" lon="0.66956">
        <ele>1922.4</ele>
        <time>2018-11-24T23:44:16Z</time>
      </trkpt>
      <trkpt lat="42.80193" lon="0.66954">
        <ele>1922.9</ele>
        <time>2018-11-24T23:44:17Z</time>
      </trkpt>
      <trkpt lat="42.80192" lon="0.66952">
        <ele>1923.3</ele>
        <time>2018-11-24T23:44:18Z</time>
      </trkpt>
      <trkpt lat="42.80191" lon="0.6695">
        <ele>1923.8</ele>
        <time>2018-11-24T23:44:19Z</time>
      </trkpt>
      <trkpt lat="42.80189" lon="0.66947">
        <ele>1924.3</ele>
        <time>2018-11-24T23:44:20Z</time>
      </trkpt>
      <trkpt lat="42.80188" lon="0.66945">
        <ele>1924.7</ele>
        <time>2018-11-24T23:44:20Z</time>
      </trkpt>
      <trkpt lat="42.80188" lon="0.66942">
        <ele>1925.2</ele>
        <time>2018-11-24T23:44:21Z</time>
      </trkpt>
      <trkpt lat="42.80187" lon="0.66939">
        <ele>1925.9</ele>
        <time>2018-11-24T23:44:22Z</time>
      </trkpt>
      <trkpt lat="42.80186" lon="0.66937">
        <ele>1926.4</ele>
        <time>2018-11-24T23:44:23Z</time>
      </trkpt>
      <trkpt lat="42.80185" lon="0.66934">
        <ele>1926.9</ele>
        <time>2018-11-24T23:44:24Z</time>
      </trkpt>
      <trkpt lat="42.80183" lon="0.66932">
        <ele>1927.3</ele>
        <time>2018-11-24T23:44:25Z</time>
      </trkpt>
      <trkpt lat="42.80182" lon="0.66929">
        <ele>1927.9</ele>
        <time>2018-11-24T23:44:26Z</time>
      </trkpt>
      <trkpt lat="42.80181" lon="0.66927">
        <ele>1928.5</ele>
        <time>2018-11-24T23:44:26Z</time>
      </trkpt>
      <trkpt lat="42.8018" lon="0.66924">
        <ele>1929.1</ele>
        <time>2018-11-24T23:44:27Z</time>
      </trkpt>
      <trkpt lat="42.80179" lon="0.66922">
        <ele>1929.6</ele>
        <time>2018-11-24T23:44:28Z</time>
      </trkpt>
      <trkpt lat="42.8018" lon="0.66919">
        <ele>1930</ele>
        <time>2018-11-24T23:44:29Z</time>
      </trkpt>
      <trkpt lat="42.8018" lon="0.66917">
        <ele>1929.6</ele>
        <time>2018-11-24T23:44:30Z</time>
      </trkpt>
      <trkpt lat="42.8018" lon="0.66914">
        <ele>1929.1</ele>
        <time>2018-11-24T23:44:31Z</time>
      </trkpt>
      <trkpt lat="42.80179" lon="0.66911">
        <ele>1928.7</ele>
        <time>2018-11-24T23:44:31Z</time>
      </trkpt>
      <trkpt lat="42.80179" lon="0.66909">
        <ele>1931.7</ele>
        <time>2018-11-24T23:44:32Z</time>
      </trkpt>
      <trkpt lat="42.80179" lon="0.66906">
        <ele>1932.1</ele>
        <time>2018-11-24T23:44:33Z</time>
      </trkpt>
      <trkpt lat="42.80178" lon="0.66903">
        <ele>1932.5</ele>
        <time>2018-11-24T23:44:34Z</time>
      </trkpt>
      <trkpt lat="42.80178" lon="0.669">
        <ele>1932.9</ele>
        <time>2018-11-24T23:44:35Z</time>
      </trkpt>
      <trkpt lat="42.80177" lon="0.66897">
        <ele>1933.4</ele>
        <time>2018-11-24T23:44:36Z</time>
      </trkpt>
      <trkpt lat="42.80176" lon="0.66895">
        <ele>1933.8</ele>
        <time>2018-11-24T23:44:36Z</time>
      </trkpt>
      <trkpt lat="42.80175" lon="0.66892">
        <ele>1934.2</ele>
        <time>2018-11-24T23:44:37Z</time>
      </trkpt>
      <trkpt lat="42.80174" lon="0.6689">
        <ele>1934.6</ele>
        <time>2018-11-24T23:44:38Z</time>
      </trkpt>
      <trkpt lat="42.80173" lon="0.66887">
        <ele>1935.1</ele>
        <time>2018-11-24T23:44:39Z</time>
      </trkpt>
      <trkpt lat="42.80172" lon="0.66883">
        <ele>1935.6</ele>
        <time>2018-11-24T23:44:40Z</time>
      </trkpt>
      <trkpt lat="42.80171" lon="0.6688">
        <ele>1936</ele>
        <time>2018-11-24T23:44:41Z</time>
      </trkpt>
      <trkpt lat="42.8017" lon="0.66878">
        <ele>1936.4</ele>
        <time>2018-11-24T23:44:42Z</time>
      </trkpt>
      <trkpt lat="42.80169" lon="0.66875">
        <ele>1936.9</ele>
        <time>2018-11-24T23:44:43Z</time>
      </trkpt>
      <trkpt lat="42.80169" lon="0.66872">
        <ele>1937.2</ele>
        <time>2018-11-24T23:44:44Z</time>
      </trkpt>
      <trkpt lat="42.80168" lon="0.6687">
        <ele>1937.6</ele>
        <time>2018-11-24T23:44:44Z</time>
      </trkpt>
      <trkpt lat="42.80167" lon="0.66867">
        <ele>1938.1</ele>
        <time>2018-11-24T23:44:45Z</time>
      </trkpt>
      <trkpt lat="42.80167" lon="0.66864">
        <ele>1938.6</ele>
        <time>2018-11-24T23:44:46Z</time>
      </trkpt>
      <trkpt lat="42.80166" lon="0.66861">
        <ele>1939.1</ele>
        <time>2018-11-24T23:44:47Z</time>
      </trkpt>
      <trkpt lat="42.80165" lon="0.66858">
        <ele>1939.7</ele>
        <time>2018-11-24T23:44:48Z</time>
      </trkpt>
      <trkpt lat="42.80165" lon="0.66855">
        <ele>1939.7</ele>
        <time>2018-11-24T23:44:49Z</time>
      </trkpt>
      <trkpt lat="42.80164" lon="0.66853">
        <ele>1939.3</ele>
        <time>2018-11-24T23:44:50Z</time>
      </trkpt>
      <trkpt lat="42.80164" lon="0.66849">
        <ele>1938.9</ele>
        <time>2018-11-24T23:44:51Z</time>
      </trkpt>
      <trkpt lat="42.80163" lon="0.66847">
        <ele>1938.4</ele>
        <time>2018-11-24T23:44:52Z</time>
      </trkpt>
      <trkpt lat="42.80162" lon="0.66843">
        <ele>1938.1</ele>
        <time>2018-11-24T23:44:53Z</time>
      </trkpt>
      <trkpt lat="42.80162" lon="0.6684">
        <ele>1937.7</ele>
        <time>2018-11-24T23:44:54Z</time>
      </trkpt>
      <trkpt lat="42.80161" lon="0.66837">
        <ele>1937.5</ele>
        <time>2018-11-24T23:44:54Z</time>
      </trkpt>
      <trkpt lat="42.80161" lon="0.66834">
        <ele>1937.3</ele>
        <time>2018-11-24T23:44:55Z</time>
      </trkpt>
      <trkpt lat="42.8016" lon="0.66831">
        <ele>1937.1</ele>
        <time>2018-11-24T23:44:56Z</time>
      </trkpt>
      <trkpt lat="42.8016" lon="0.66828">
        <ele>1937</ele>
        <time>2018-11-24T23:44:57Z</time>
      </trkpt>
      <trkpt lat="42.8016" lon="0.66825">
        <ele>1937</ele>
        <time>2018-11-24T23:44:58Z</time>
      </trkpt>
      <trkpt lat="42.8016" lon="0.66822">
        <ele>1936.9</ele>
        <time>2018-11-24T23:44:59Z</time>
      </trkpt>
      <trkpt lat="42.80159" lon="0.66819">
        <ele>1936.9</ele>
        <time>2018-11-24T23:45:00Z</time>
      </trkpt>
      <trkpt lat="42.80159" lon="0.66816">
        <ele>1936.9</ele>
        <time>2018-11-24T23:45:01Z</time>
      </trkpt>
      <trkpt lat="42.80159" lon="0.66813">
        <ele>1936.8</ele>
        <time>2018-11-24T23:45:02Z</time>
      </trkpt>
      <trkpt lat="42.80159" lon="0.6681">
        <ele>1936.9</ele>
        <time>2018-11-24T23:45:03Z</time>
      </trkpt>
      <trkpt lat="42.80159" lon="0.66807">
        <ele>1936.8</ele>
        <time>2018-11-24T23:45:04Z</time>
      </trkpt>
      <trkpt lat="42.80159" lon="0.66804">
        <ele>1936.8</ele>
        <time>2018-11-24T23:45:04Z</time>
      </trkpt>
      <trkpt lat="42.80158" lon="0.66801">
        <ele>1936.8</ele>
        <time>2018-11-24T23:45:05Z</time>
      </trkpt>
      <trkpt lat="42.80158" lon="0.66797">
        <ele>1943.5</ele>
        <time>2018-11-24T23:45:06Z</time>
      </trkpt>
      <trkpt lat="42.80157" lon="0.66795">
        <ele>1943.6</ele>
        <time>2018-11-24T23:45:07Z</time>
      </trkpt>
      <trkpt lat="42.80157" lon="0.66792">
        <ele>1943.8</ele>
        <time>2018-11-24T23:45:08Z</time>
      </trkpt>
      <trkpt lat="42.80156" lon="0.66789">
        <ele>1944</ele>
        <time>2018-11-24T23:45:09Z</time>
      </trkpt>
      <trkpt lat="42.80155" lon="0.66786">
        <ele>1944.2</ele>
        <time>2018-11-24T23:45:10Z</time>
      </trkpt>
      <trkpt lat="42.80154" lon="0.66784">
        <ele>1944.5</ele>
        <time>2018-11-24T23:45:11Z</time>
      </trkpt>
      <trkpt lat="42.80154" lon="0.66781">
        <ele>1944.6</ele>
        <time>2018-11-24T23:45:11Z</time>
      </trkpt>
      <trkpt lat="42.80153" lon="0.66778">
        <ele>1944.7</ele>
        <time>2018-11-24T23:45:12Z</time>
      </trkpt>
      <trkpt lat="42.80153" lon="0.66774">
        <ele>1945</ele>
        <time>2018-11-24T23:45:13Z</time>
      </trkpt>
      <trkpt lat="42.80153" lon="0.6677">
        <ele>1945.2</ele>
        <time>2018-11-24T23:45:15Z</time>
      </trkpt>
      <trkpt lat="42.80152" lon="0.66767">
        <ele>1945.4</ele>
        <time>2018-11-24T23:45:16Z</time>
      </trkpt>
      <trkpt lat="42.80151" lon="0.66764">
        <ele>1945.7</ele>
        <time>2018-11-24T23:45:17Z</time>
      </trkpt>
      <trkpt lat="42.80149" lon="0.6676">
        <ele>1946.2</ele>
        <time>2018-11-24T23:45:18Z</time>
      </trkpt>
      <trkpt lat="42.80147" lon="0.66756">
        <ele>1946.7</ele>
        <time>2018-11-24T23:45:19Z</time>
      </trkpt>
      <trkpt lat="42.80146" lon="0.66753">
        <ele>1947.1</ele>
        <time>2018-11-24T23:45:20Z</time>
      </trkpt>
      <trkpt lat="42.80145" lon="0.6675">
        <ele>1947.6</ele>
        <time>2018-11-24T23:45:21Z</time>
      </trkpt>
      <trkpt lat="42.80144" lon="0.66748">
        <ele>1947.9</ele>
        <time>2018-11-24T23:45:22Z</time>
      </trkpt>
      <trkpt lat="42.80143" lon="0.66745">
        <ele>1948.4</ele>
        <time>2018-11-24T23:45:23Z</time>
      </trkpt>
      <trkpt lat="42.80142" lon="0.66742">
        <ele>1948.8</ele>
        <time>2018-11-24T23:45:24Z</time>
      </trkpt>
      <trkpt lat="42.80141" lon="0.66739">
        <ele>1949.2</ele>
        <time>2018-11-24T23:45:25Z</time>
      </trkpt>
      <trkpt lat="42.8014" lon="0.66735">
        <ele>1949.6</ele>
        <time>2018-11-24T23:45:26Z</time>
      </trkpt>
      <trkpt lat="42.80139" lon="0.66731">
        <ele>1949.8</ele>
        <time>2018-11-24T23:45:27Z</time>
      </trkpt>
      <trkpt lat="42.80138" lon="0.66728">
        <ele>1949.3</ele>
        <time>2018-11-24T23:45:28Z</time>
      </trkpt>
      <trkpt lat="42.80136" lon="0.66725">
        <ele>1949</ele>
        <time>2018-11-24T23:45:30Z</time>
      </trkpt>
      <trkpt lat="42.80134" lon="0.66722">
        <ele>1948.5</ele>
        <time>2018-11-24T23:45:31Z</time>
      </trkpt>
      <trkpt lat="42.80132" lon="0.66719">
        <ele>1948.1</ele>
        <time>2018-11-24T23:45:32Z</time>
      </trkpt>
      <trkpt lat="42.8013" lon="0.66717">
        <ele>1947.9</ele>
        <time>2018-11-24T23:45:33Z</time>
      </trkpt>
      <trkpt lat="42.80128" lon="0.66715">
        <ele>1947.7</ele>
        <time>2018-11-24T23:45:34Z</time>
      </trkpt>
      <trkpt lat="42.80126" lon="0.66713">
        <ele>1947.6</ele>
        <time>2018-11-24T23:45:35Z</time>
      </trkpt>
      <trkpt lat="42.80125" lon="0.66711">
        <ele>1947.5</ele>
        <time>2018-11-24T23:45:36Z</time>
      </trkpt>
      <trkpt lat="42.80123" lon="0.6671">
        <ele>1947.3</ele>
        <time>2018-11-24T23:45:37Z</time>
      </trkpt>
      <trkpt lat="42.80121" lon="0.66708">
        <ele>1947.2</ele>
        <time>2018-11-24T23:45:37Z</time>
      </trkpt>
      <trkpt lat="42.80119" lon="0.66706">
        <ele>1947.1</ele>
        <time>2018-11-24T23:45:38Z</time>
      </trkpt>
      <trkpt lat="42.80118" lon="0.66705">
        <ele>1947.2</ele>
        <time>2018-11-24T23:45:39Z</time>
      </trkpt>
      <trkpt lat="42.80115" lon="0.66701">
        <ele>1953.2</ele>
        <time>2018-11-24T23:45:41Z</time>
      </trkpt>
      <trkpt lat="42.80114" lon="0.66699">
        <ele>1953.4</ele>
        <time>2018-11-24T23:45:41Z</time>
      </trkpt>
      <trkpt lat="42.80112" lon="0.66697">
        <ele>1953.5</ele>
        <time>2018-11-24T23:45:42Z</time>
      </trkpt>
      <trkpt lat="42.80111" lon="0.66695">
        <ele>1953.7</ele>
        <time>2018-11-24T23:45:43Z</time>
      </trkpt>
      <trkpt lat="42.80109" lon="0.66693">
        <ele>1953.9</ele>
        <time>2018-11-24T23:45:44Z</time>
      </trkpt>
      <trkpt lat="42.80108" lon="0.66691">
        <ele>1954.2</ele>
        <time>2018-11-24T23:45:45Z</time>
      </trkpt>
      <trkpt lat="42.80106" lon="0.66689">
        <ele>1954.3</ele>
        <time>2018-11-24T23:45:46Z</time>
      </trkpt>
      <trkpt lat="42.80105" lon="0.66687">
        <ele>1954.6</ele>
        <time>2018-11-24T23:45:47Z</time>
      </trkpt>
      <trkpt lat="42.80103" lon="0.66684">
        <ele>1954.9</ele>
        <time>2018-11-24T23:45:48Z</time>
      </trkpt>
      <trkpt lat="42.80102" lon="0.66682">
        <ele>1955.1</ele>
        <time>2018-11-24T23:45:48Z</time>
      </trkpt>
      <trkpt lat="42.80101" lon="0.6668">
        <ele>1955.3</ele>
        <time>2018-11-24T23:45:49Z</time>
      </trkpt>
      <trkpt lat="42.80099" lon="0.66678">
        <ele>1955.6</ele>
        <time>2018-11-24T23:45:50Z</time>
      </trkpt>
      <trkpt lat="42.80098" lon="0.66675">
        <ele>1956.1</ele>
        <time>2018-11-24T23:45:51Z</time>
      </trkpt>
      <trkpt lat="42.80096" lon="0.66672">
        <ele>1956.4</ele>
        <time>2018-11-24T23:45:52Z</time>
      </trkpt>
      <trkpt lat="42.80094" lon="0.66669">
        <ele>1956.8</ele>
        <time>2018-11-24T23:45:53Z</time>
      </trkpt>
      <trkpt lat="42.80092" lon="0.66667">
        <ele>1957.2</ele>
        <time>2018-11-24T23:45:54Z</time>
      </trkpt>
      <trkpt lat="42.80091" lon="0.66665">
        <ele>1957.6</ele>
        <time>2018-11-24T23:45:55Z</time>
      </trkpt>
      <trkpt lat="42.80089" lon="0.66663">
        <ele>1958.1</ele>
        <time>2018-11-24T23:45:56Z</time>
      </trkpt>
      <trkpt lat="42.80087" lon="0.66662">
        <ele>1958.3</ele>
        <time>2018-11-24T23:45:57Z</time>
      </trkpt>
      <trkpt lat="42.80085" lon="0.6666">
        <ele>1958.8</ele>
        <time>2018-11-24T23:45:58Z</time>
      </trkpt>
      <trkpt lat="42.80083" lon="0.66659">
        <ele>1959.1</ele>
        <time>2018-11-24T23:45:58Z</time>
      </trkpt>
      <trkpt lat="42.80081" lon="0.66657">
        <ele>1959.8</ele>
        <time>2018-11-24T23:45:59Z</time>
      </trkpt>
      <trkpt lat="42.8008" lon="0.66656">
        <ele>1960</ele>
        <time>2018-11-24T23:46:00Z</time>
      </trkpt>
      <trkpt lat="42.80078" lon="0.66655">
        <ele>1959.5</ele>
        <time>2018-11-24T23:46:01Z</time>
      </trkpt>
      <trkpt lat="42.80076" lon="0.66654">
        <ele>1959.3</ele>
        <time>2018-11-24T23:46:02Z</time>
      </trkpt>
      <trkpt lat="42.80074" lon="0.66653">
        <ele>1958.8</ele>
        <time>2018-11-24T23:46:03Z</time>
      </trkpt>
      <trkpt lat="42.80072" lon="0.66652">
        <ele>1958.4</ele>
        <time>2018-11-24T23:46:04Z</time>
      </trkpt>
      <trkpt lat="42.8007" lon="0.6665">
        <ele>1958.1</ele>
        <time>2018-11-24T23:46:05Z</time>
      </trkpt>
      <trkpt lat="42.80068" lon="0.66649">
        <ele>1957.9</ele>
        <time>2018-11-24T23:46:05Z</time>
      </trkpt>
      <trkpt lat="42.80066" lon="0.66648">
        <ele>1957.8</ele>
        <time>2018-11-24T23:46:06Z</time>
      </trkpt>
      <trkpt lat="42.80064" lon="0.66647">
        <ele>1962.7</ele>
        <time>2018-11-24T23:46:07Z</time>
      </trkpt>
      <trkpt lat="42.80062" lon="0.66646">
        <ele>1962.8</ele>
        <time>2018-11-24T23:46:08Z</time>
      </trkpt>
      <trkpt lat="42.8006" lon="0.66645">
        <ele>1963.1</ele>
        <time>2018-11-24T23:46:09Z</time>
      </trkpt>
      <trkpt lat="42.80058" lon="0.66643">
        <ele>1963.4</ele>
        <time>2018-11-24T23:46:10Z</time>
      </trkpt>
      <trkpt lat="42.80056" lon="0.66643">
        <ele>1963.7</ele>
        <time>2018-11-24T23:46:10Z</time>
      </trkpt>
      <trkpt lat="42.80054" lon="0.66643">
        <ele>1963.8</ele>
        <time>2018-11-24T23:46:11Z</time>
      </trkpt>
      <trkpt lat="42.80052" lon="0.66641">
        <ele>1964.2</ele>
        <time>2018-11-24T23:46:12Z</time>
      </trkpt>
      <trkpt lat="42.8005" lon="0.66639">
        <ele>1964.5</ele>
        <time>2018-11-24T23:46:13Z</time>
      </trkpt>
      <trkpt lat="42.80048" lon="0.66638">
        <ele>1965</ele>
        <time>2018-11-24T23:46:14Z</time>
      </trkpt>
      <trkpt lat="42.80046" lon="0.66635">
        <ele>1965.2</ele>
        <time>2018-11-24T23:46:15Z</time>
      </trkpt>
      <trkpt lat="42.80045" lon="0.66634">
        <ele>1965.5</ele>
        <time>2018-11-24T23:46:16Z</time>
      </trkpt>
      <trkpt lat="42.80044" lon="0.66631">
        <ele>1966</ele>
        <time>2018-11-24T23:46:17Z</time>
      </trkpt>
      <trkpt lat="42.80042" lon="0.66629">
        <ele>1966.3</ele>
        <time>2018-11-24T23:46:18Z</time>
      </trkpt>
      <trkpt lat="42.8004" lon="0.66628">
        <ele>1966.7</ele>
        <time>2018-11-24T23:46:19Z</time>
      </trkpt>
      <trkpt lat="42.80038" lon="0.66626">
        <ele>1966.9</ele>
        <time>2018-11-24T23:46:19Z</time>
      </trkpt>
      <trkpt lat="42.80036" lon="0.66624">
        <ele>1967.4</ele>
        <time>2018-11-24T23:46:20Z</time>
      </trkpt>
      <trkpt lat="42.80034" lon="0.66622">
        <ele>1967.9</ele>
        <time>2018-11-24T23:46:22Z</time>
      </trkpt>
      <trkpt lat="42.80031" lon="0.6662">
        <ele>1968.4</ele>
        <time>2018-11-24T23:46:23Z</time>
      </trkpt>
      <trkpt lat="42.80029" lon="0.66618">
        <ele>1968.9</ele>
        <time>2018-11-24T23:46:24Z</time>
      </trkpt>
      <trkpt lat="42.80028" lon="0.66616">
        <ele>1969.3</ele>
        <time>2018-11-24T23:46:25Z</time>
      </trkpt>
      <trkpt lat="42.80026" lon="0.66613">
        <ele>1969.9</ele>
        <time>2018-11-24T23:46:26Z</time>
      </trkpt>
      <trkpt lat="42.80024" lon="0.6661">
        <ele>1969.6</ele>
        <time>2018-11-24T23:46:27Z</time>
      </trkpt>
      <trkpt lat="42.80023" lon="0.66608">
        <ele>1969.3</ele>
        <time>2018-11-24T23:46:27Z</time>
      </trkpt>
      <trkpt lat="42.80021" lon="0.66605">
        <ele>1969</ele>
        <time>2018-11-24T23:46:29Z</time>
      </trkpt>
      <trkpt lat="42.8002" lon="0.66602">
        <ele>1968.6</ele>
        <time>2018-11-24T23:46:30Z</time>
      </trkpt>
      <trkpt lat="42.80018" lon="0.66599">
        <ele>1968.4</ele>
        <time>2018-11-24T23:46:31Z</time>
      </trkpt>
      <trkpt lat="42.80017" lon="0.66596">
        <ele>1968.2</ele>
        <time>2018-11-24T23:46:32Z</time>
      </trkpt>
      <trkpt lat="42.80015" lon="0.66594">
        <ele>1968.1</ele>
        <time>2018-11-24T23:46:33Z</time>
      </trkpt>
      <trkpt lat="42.80013" lon="0.66592">
        <ele>1968</ele>
        <time>2018-11-24T23:46:34Z</time>
      </trkpt>
      <trkpt lat="42.80013" lon="0.66588">
        <ele>1968</ele>
        <time>2018-11-24T23:46:35Z</time>
      </trkpt>
      <trkpt lat="42.80012" lon="0.66585">
        <ele>1968</ele>
        <time>2018-11-24T23:46:36Z</time>
      </trkpt>
      <trkpt lat="42.80011" lon="0.66582">
        <ele>1968</ele>
        <time>2018-11-24T23:46:37Z</time>
      </trkpt>
      <trkpt lat="42.80009" lon="0.66578">
        <ele>1968</ele>
        <time>2018-11-24T23:46:38Z</time>
      </trkpt>
      <trkpt lat="42.80007" lon="0.66575">
        <ele>1968.1</ele>
        <time>2018-11-24T23:46:39Z</time>
      </trkpt>
      <trkpt lat="42.80005" lon="0.66573">
        <ele>1968</ele>
        <time>2018-11-24T23:46:40Z</time>
      </trkpt>
      <trkpt lat="42.80004" lon="0.6657">
        <ele>1968.1</ele>
        <time>2018-11-24T23:46:41Z</time>
      </trkpt>
      <trkpt lat="42.80002" lon="0.66567">
        <ele>1968.3</ele>
        <time>2018-11-24T23:46:43Z</time>
      </trkpt>
      <trkpt lat="42.8" lon="0.66565">
        <ele>1968.4</ele>
        <time>2018-11-24T23:46:43Z</time>
      </trkpt>
      <trkpt lat="42.79999" lon="0.66562">
        <ele>1968.4</ele>
        <time>2018-11-24T23:46:44Z</time>
      </trkpt>
      <trkpt lat="42.79997" lon="0.6656">
        <ele>1968.6</ele>
        <time>2018-11-24T23:46:45Z</time>
      </trkpt>
      <trkpt lat="42.79996" lon="0.66558">
        <ele>1968.7</ele>
        <time>2018-11-24T23:46:46Z</time>
      </trkpt>
      <trkpt lat="42.79994" lon="0.66556">
        <ele>1969</ele>
        <time>2018-11-24T23:46:47Z</time>
      </trkpt>
      <trkpt lat="42.79992" lon="0.66555">
        <ele>1969.2</ele>
        <time>2018-11-24T23:46:48Z</time>
      </trkpt>
      <trkpt lat="42.7999" lon="0.66553">
        <ele>1969.3</ele>
        <time>2018-11-24T23:46:49Z</time>
      </trkpt>
      <trkpt lat="42.79988" lon="0.66551">
        <ele>1969.8</ele>
        <time>2018-11-24T23:46:50Z</time>
      </trkpt>
      <trkpt lat="42.79986" lon="0.66549">
        <ele>1969.7</ele>
        <time>2018-11-24T23:46:51Z</time>
      </trkpt>
      <trkpt lat="42.79983" lon="0.66547">
        <ele>1969.3</ele>
        <time>2018-11-24T23:46:52Z</time>
      </trkpt>
      <trkpt lat="42.79981" lon="0.66545">
        <ele>1969</ele>
        <time>2018-11-24T23:46:53Z</time>
      </trkpt>
      <trkpt lat="42.79979" lon="0.66544">
        <ele>1968.6</ele>
        <time>2018-11-24T23:46:54Z</time>
      </trkpt>
      <trkpt lat="42.79977" lon="0.66542">
        <ele>1968.2</ele>
        <time>2018-11-24T23:46:55Z</time>
      </trkpt>
      <trkpt lat="42.79975" lon="0.66539">
        <ele>1967.7</ele>
        <time>2018-11-24T23:46:56Z</time>
      </trkpt>
      <trkpt lat="42.79973" lon="0.66537">
        <ele>1967.4</ele>
        <time>2018-11-24T23:46:57Z</time>
      </trkpt>
      <trkpt lat="42.79971" lon="0.66534">
        <ele>1967</ele>
        <time>2018-11-24T23:46:58Z</time>
      </trkpt>
      <trkpt lat="42.79969" lon="0.66532">
        <ele>1966.6</ele>
        <time>2018-11-24T23:46:59Z</time>
      </trkpt>
      <trkpt lat="42.79968" lon="0.6653">
        <ele>1966.4</ele>
        <time>2018-11-24T23:47:00Z</time>
      </trkpt>
      <trkpt lat="42.79965" lon="0.66527">
        <ele>1966</ele>
        <time>2018-11-24T23:47:01Z</time>
      </trkpt>
      <trkpt lat="42.79963" lon="0.66525">
        <ele>1965.6</ele>
        <time>2018-11-24T23:47:02Z</time>
      </trkpt>
      <trkpt lat="42.79961" lon="0.66523">
        <ele>1965.3</ele>
        <time>2018-11-24T23:47:04Z</time>
      </trkpt>
      <trkpt lat="42.79958" lon="0.66521">
        <ele>1964.9</ele>
        <time>2018-11-24T23:47:05Z</time>
      </trkpt>
      <trkpt lat="42.79956" lon="0.66518">
        <ele>1964.6</ele>
        <time>2018-11-24T23:47:06Z</time>
      </trkpt>
      <trkpt lat="42.79955" lon="0.66515">
        <ele>1964.4</ele>
        <time>2018-11-24T23:47:07Z</time>
      </trkpt>
      <trkpt lat="42.79954" lon="0.66512">
        <ele>1964.3</ele>
        <time>2018-11-24T23:47:08Z</time>
      </trkpt>
      <trkpt lat="42.79952" lon="0.66509">
        <ele>1964.1</ele>
        <time>2018-11-24T23:47:09Z</time>
      </trkpt>
      <trkpt lat="42.7995" lon="0.66507">
        <ele>1963.8</ele>
        <time>2018-11-24T23:47:10Z</time>
      </trkpt>
      <trkpt lat="42.79949" lon="0.66504">
        <ele>1963.5</ele>
        <time>2018-11-24T23:47:11Z</time>
      </trkpt>
      <trkpt lat="42.79947" lon="0.66502">
        <ele>1963.4</ele>
        <time>2018-11-24T23:47:12Z</time>
      </trkpt>
      <trkpt lat="42.79946" lon="0.66499">
        <ele>1963.3</ele>
        <time>2018-11-24T23:47:13Z</time>
      </trkpt>
      <trkpt lat="42.79945" lon="0.66496">
        <ele>1956.9</ele>
        <time>2018-11-24T23:47:14Z</time>
      </trkpt>
      <trkpt lat="42.79943" lon="0.66494">
        <ele>1957</ele>
        <time>2018-11-24T23:47:15Z</time>
      </trkpt>
      <trkpt lat="42.79942" lon="0.66491">
        <ele>1957.1</ele>
        <time>2018-11-24T23:47:16Z</time>
      </trkpt>
      <trkpt lat="42.79941" lon="0.66488">
        <ele>1957.2</ele>
        <time>2018-11-24T23:47:17Z</time>
      </trkpt>
      <trkpt lat="42.79939" lon="0.66486">
        <ele>1957.3</ele>
        <time>2018-11-24T23:47:18Z</time>
      </trkpt>
      <trkpt lat="42.79938" lon="0.66483">
        <ele>1957.4</ele>
        <time>2018-11-24T23:47:19Z</time>
      </trkpt>
      <trkpt lat="42.79936" lon="0.66481">
        <ele>1957.6</ele>
        <time>2018-11-24T23:47:19Z</time>
      </trkpt>
      <trkpt lat="42.79935" lon="0.66478">
        <ele>1957.8</ele>
        <time>2018-11-24T23:47:20Z</time>
      </trkpt>
      <trkpt lat="42.79933" lon="0.66476">
        <ele>1958</ele>
        <time>2018-11-24T23:47:21Z</time>
      </trkpt>
      <trkpt lat="42.79933" lon="0.66472">
        <ele>1958</ele>
        <time>2018-11-24T23:47:22Z</time>
      </trkpt>
      <trkpt lat="42.79932" lon="0.66469">
        <ele>1958.1</ele>
        <time>2018-11-24T23:47:23Z</time>
      </trkpt>
      <trkpt lat="42.79931" lon="0.66467">
        <ele>1958.4</ele>
        <time>2018-11-24T23:47:24Z</time>
      </trkpt>
      <trkpt lat="42.7993" lon="0.66464">
        <ele>1958.7</ele>
        <time>2018-11-24T23:47:25Z</time>
      </trkpt>
      <trkpt lat="42.79929" lon="0.66461">
        <ele>1958.8</ele>
        <time>2018-11-24T23:47:26Z</time>
      </trkpt>
      <trkpt lat="42.79928" lon="0.66457">
        <ele>1959.1</ele>
        <time>2018-11-24T23:47:27Z</time>
      </trkpt>
      <trkpt lat="42.79927" lon="0.66454">
        <ele>1959.5</ele>
        <time>2018-11-24T23:47:28Z</time>
      </trkpt>
      <trkpt lat="42.79926" lon="0.6645">
        <ele>1960</ele>
        <time>2018-11-24T23:47:29Z</time>
      </trkpt>
      <trkpt lat="42.79925" lon="0.66447">
        <ele>1959.7</ele>
        <time>2018-11-24T23:47:30Z</time>
      </trkpt>
      <trkpt lat="42.79924" lon="0.66445">
        <ele>1959.2</ele>
        <time>2018-11-24T23:47:31Z</time>
      </trkpt>
      <trkpt lat="42.79923" lon="0.66442">
        <ele>1958.9</ele>
        <time>2018-11-24T23:47:32Z</time>
      </trkpt>
      <trkpt lat="42.79923" lon="0.66438">
        <ele>1958.6</ele>
        <time>2018-11-24T23:47:33Z</time>
      </trkpt>
      <trkpt lat="42.79922" lon="0.66435">
        <ele>1958.2</ele>
        <time>2018-11-24T23:47:34Z</time>
      </trkpt>
      <trkpt lat="42.79921" lon="0.66432">
        <ele>1957.9</ele>
        <time>2018-11-24T23:47:35Z</time>
      </trkpt>
      <trkpt lat="42.7992" lon="0.66429">
        <ele>1957.6</ele>
        <time>2018-11-24T23:47:36Z</time>
      </trkpt>
      <trkpt lat="42.7992" lon="0.66426">
        <ele>1957.2</ele>
        <time>2018-11-24T23:47:37Z</time>
      </trkpt>
      <trkpt lat="42.79919" lon="0.66423">
        <ele>1956.8</ele>
        <time>2018-11-24T23:47:38Z</time>
      </trkpt>
      <trkpt lat="42.79918" lon="0.6642">
        <ele>1956.6</ele>
        <time>2018-11-24T23:47:39Z</time>
      </trkpt>
      <trkpt lat="42.79918" lon="0.66417">
        <ele>1956.3</ele>
        <time>2018-11-24T23:47:40Z</time>
      </trkpt>
      <trkpt lat="42.79917" lon="0.66414">
        <ele>1956</ele>
        <time>2018-11-24T23:47:41Z</time>
      </trkpt>
      <trkpt lat="42.79917" lon="0.66412">
        <ele>1956</ele>
        <time>2018-11-24T23:47:41Z</time>
      </trkpt>
      <trkpt lat="42.79915" lon="0.66409">
        <ele>1955.8</ele>
        <time>2018-11-24T23:47:42Z</time>
      </trkpt>
      <trkpt lat="42.79914" lon="0.66407">
        <ele>1955.5</ele>
        <time>2018-11-24T23:47:43Z</time>
      </trkpt>
      <trkpt lat="42.79914" lon="0.66405">
        <ele>1955.4</ele>
        <time>2018-11-24T23:47:44Z</time>
      </trkpt>
      <trkpt lat="42.79913" lon="0.66402">
        <ele>1955.2</ele>
        <time>2018-11-24T23:47:45Z</time>
      </trkpt>
      <trkpt lat="42.79912" lon="0.66399">
        <ele>1955.1</ele>
        <time>2018-11-24T23:47:46Z</time>
      </trkpt>
      <trkpt lat="42.7991" lon="0.66397">
        <ele>1955</ele>
        <time>2018-11-24T23:47:47Z</time>
      </trkpt>
      <trkpt lat="42.79908" lon="0.66396">
        <ele>1954.8</ele>
        <time>2018-11-24T23:47:47Z</time>
      </trkpt>
      <trkpt lat="42.79906" lon="0.66392">
        <ele>1954.8</ele>
        <time>2018-11-24T23:47:49Z</time>
      </trkpt>
      <trkpt lat="42.79903" lon="0.66389">
        <ele>1954.5</ele>
        <time>2018-11-24T23:47:50Z</time>
      </trkpt>
      <trkpt lat="42.79901" lon="0.66385">
        <ele>1954.4</ele>
        <time>2018-11-24T23:47:52Z</time>
      </trkpt>
      <trkpt lat="42.799" lon="0.66384">
        <ele>1954.5</ele>
        <time>2018-11-24T23:47:52Z</time>
      </trkpt>
      <trkpt lat="42.79898" lon="0.66382">
        <ele>1954.5</ele>
        <time>2018-11-24T23:47:53Z</time>
      </trkpt>
      <trkpt lat="42.79897" lon="0.6638">
        <ele>1954.7</ele>
        <time>2018-11-24T23:47:54Z</time>
      </trkpt>
      <trkpt lat="42.79895" lon="0.66379">
        <ele>1954.6</ele>
        <time>2018-11-24T23:47:55Z</time>
      </trkpt>
      <trkpt lat="42.79894" lon="0.66377">
        <ele>1954.8</ele>
        <time>2018-11-24T23:47:55Z</time>
      </trkpt>
      <trkpt lat="42.79892" lon="0.66374">
        <ele>1954.9</ele>
        <time>2018-11-24T23:47:57Z</time>
      </trkpt>
      <trkpt lat="42.7989" lon="0.6637">
        <ele>1955</ele>
        <time>2018-11-24T23:47:58Z</time>
      </trkpt>
      <trkpt lat="42.79889" lon="0.66368">
        <ele>1955.2</ele>
        <time>2018-11-24T23:47:59Z</time>
      </trkpt>
      <trkpt lat="42.79886" lon="0.66366">
        <ele>1955.2</ele>
        <time>2018-11-24T23:48:00Z</time>
      </trkpt>
      <trkpt lat="42.79884" lon="0.66362">
        <ele>1955.4</ele>
        <time>2018-11-24T23:48:01Z</time>
      </trkpt>
      <trkpt lat="42.79883" lon="0.6636">
        <ele>1955.6</ele>
        <time>2018-11-24T23:48:02Z</time>
      </trkpt>
      <trkpt lat="42.79881" lon="0.66357">
        <ele>1955.8</ele>
        <time>2018-11-24T23:48:03Z</time>
      </trkpt>
      <trkpt lat="42.79879" lon="0.66354">
        <ele>1956.1</ele>
        <time>2018-11-24T23:48:04Z</time>
      </trkpt>
      <trkpt lat="42.79878" lon="0.66352">
        <ele>1956.3</ele>
        <time>2018-11-24T23:48:05Z</time>
      </trkpt>
      <trkpt lat="42.79877" lon="0.6635">
        <ele>1956.4</ele>
        <time>2018-11-24T23:48:06Z</time>
      </trkpt>
      <trkpt lat="42.79876" lon="0.66348">
        <ele>1956.6</ele>
        <time>2018-11-24T23:48:07Z</time>
      </trkpt>
      <trkpt lat="42.79875" lon="0.66346">
        <ele>1956.7</ele>
        <time>2018-11-24T23:48:07Z</time>
      </trkpt>
      <trkpt lat="42.79873" lon="0.66343">
        <ele>1957</ele>
        <time>2018-11-24T23:48:08Z</time>
      </trkpt>
      <trkpt lat="42.79872" lon="0.6634">
        <ele>1957.4</ele>
        <time>2018-11-24T23:48:09Z</time>
      </trkpt>
      <trkpt lat="42.79871" lon="0.66338">
        <ele>1957.6</ele>
        <time>2018-11-24T23:48:10Z</time>
      </trkpt>
      <trkpt lat="42.7987" lon="0.66335">
        <ele>1958</ele>
        <time>2018-11-24T23:48:11Z</time>
      </trkpt>
      <trkpt lat="42.79869" lon="0.66333">
        <ele>1958.2</ele>
        <time>2018-11-24T23:48:12Z</time>
      </trkpt>
      <trkpt lat="42.79869" lon="0.6633">
        <ele>1958.7</ele>
        <time>2018-11-24T23:48:13Z</time>
      </trkpt>
      <trkpt lat="42.79867" lon="0.66327">
        <ele>1959.1</ele>
        <time>2018-11-24T23:48:14Z</time>
      </trkpt>
      <trkpt lat="42.79867" lon="0.66324">
        <ele>1959.6</ele>
        <time>2018-11-24T23:48:15Z</time>
      </trkpt>
      <trkpt lat="42.79867" lon="0.66321">
        <ele>1960</ele>
        <time>2018-11-24T23:48:15Z</time>
      </trkpt>
      <trkpt lat="42.79866" lon="0.66319">
        <ele>1959.7</ele>
        <time>2018-11-24T23:48:16Z</time>
      </trkpt>
      <trkpt lat="42.79864" lon="0.66316">
        <ele>1959.2</ele>
        <time>2018-11-24T23:48:17Z</time>
      </trkpt>
      <trkpt lat="42.79863" lon="0.66313">
        <ele>1958.9</ele>
        <time>2018-11-24T23:48:18Z</time>
      </trkpt>
      <trkpt lat="42.79862" lon="0.6631">
        <ele>1958.8</ele>
        <time>2018-11-24T23:48:19Z</time>
      </trkpt>
      <trkpt lat="42.79861" lon="0.66308">
        <ele>1958.6</ele>
        <time>2018-11-24T23:48:20Z</time>
      </trkpt>
      <trkpt lat="42.79859" lon="0.66305">
        <ele>1958.5</ele>
        <time>2018-11-24T23:48:21Z</time>
      </trkpt>
      <trkpt lat="42.79858" lon="0.66303">
        <ele>1958.3</ele>
        <time>2018-11-24T23:48:22Z</time>
      </trkpt>
      <trkpt lat="42.79857" lon="0.66301">
        <ele>1958.3</ele>
        <time>2018-11-24T23:48:23Z</time>
      </trkpt>
      <trkpt lat="42.79856" lon="0.66298">
        <ele>1958</ele>
        <time>2018-11-24T23:48:23Z</time>
      </trkpt>
      <trkpt lat="42.79855" lon="0.66296">
        <ele>1957.9</ele>
        <time>2018-11-24T23:48:24Z</time>
      </trkpt>
      <trkpt lat="42.79855" lon="0.66292">
        <ele>1957.8</ele>
        <time>2018-11-24T23:48:25Z</time>
      </trkpt>
      <trkpt lat="42.79854" lon="0.66289">
        <ele>1957.5</ele>
        <time>2018-11-24T23:48:26Z</time>
      </trkpt>
      <trkpt lat="42.79853" lon="0.66287">
        <ele>1957.5</ele>
        <time>2018-11-24T23:48:27Z</time>
      </trkpt>
      <trkpt lat="42.79852" lon="0.66284">
        <ele>1957.4</ele>
        <time>2018-11-24T23:48:28Z</time>
      </trkpt>
      <trkpt lat="42.79852" lon="0.66281">
        <ele>1962.7</ele>
        <time>2018-11-24T23:48:29Z</time>
      </trkpt>
      <trkpt lat="42.79852" lon="0.66278">
        <ele>1963.1</ele>
        <time>2018-11-24T23:48:30Z</time>
      </trkpt>
      <trkpt lat="42.79851" lon="0.66275">
        <ele>1963.3</ele>
        <time>2018-11-24T23:48:31Z</time>
      </trkpt>
      <trkpt lat="42.79851" lon="0.66272">
        <ele>1963.7</ele>
        <time>2018-11-24T23:48:32Z</time>
      </trkpt>
      <trkpt lat="42.7985" lon="0.66269">
        <ele>1963.9</ele>
        <time>2018-11-24T23:48:33Z</time>
      </trkpt>
      <trkpt lat="42.79849" lon="0.66266">
        <ele>1964.1</ele>
        <time>2018-11-24T23:48:33Z</time>
      </trkpt>
      <trkpt lat="42.79849" lon="0.66262">
        <ele>1964.5</ele>
        <time>2018-11-24T23:48:35Z</time>
      </trkpt>
      <trkpt lat="42.79848" lon="0.66259">
        <ele>1964.7</ele>
        <time>2018-11-24T23:48:36Z</time>
      </trkpt>
      <trkpt lat="42.79848" lon="0.66256">
        <ele>1965</ele>
        <time>2018-11-24T23:48:36Z</time>
      </trkpt>
      <trkpt lat="42.79846" lon="0.66252">
        <ele>1965.4</ele>
        <time>2018-11-24T23:48:38Z</time>
      </trkpt>
      <trkpt lat="42.79845" lon="0.66249">
        <ele>1965.7</ele>
        <time>2018-11-24T23:48:39Z</time>
      </trkpt>
      <trkpt lat="42.79845" lon="0.66245">
        <ele>1966.2</ele>
        <time>2018-11-24T23:48:40Z</time>
      </trkpt>
      <trkpt lat="42.79844" lon="0.66243">
        <ele>1966.5</ele>
        <time>2018-11-24T23:48:41Z</time>
      </trkpt>
      <trkpt lat="42.79844" lon="0.6624">
        <ele>1966.8</ele>
        <time>2018-11-24T23:48:41Z</time>
      </trkpt>
      <trkpt lat="42.79843" lon="0.66236">
        <ele>1967.3</ele>
        <time>2018-11-24T23:48:43Z</time>
      </trkpt>
      <trkpt lat="42.79843" lon="0.66232">
        <ele>1967.8</ele>
        <time>2018-11-24T23:48:44Z</time>
      </trkpt>
      <trkpt lat="42.79844" lon="0.66228">
        <ele>1968.5</ele>
        <time>2018-11-24T23:48:45Z</time>
      </trkpt>
      <trkpt lat="42.79845" lon="0.66224">
        <ele>1969</ele>
        <time>2018-11-24T23:48:46Z</time>
      </trkpt>
      <trkpt lat="42.79844" lon="0.66221">
        <ele>1969.6</ele>
        <time>2018-11-24T23:48:47Z</time>
      </trkpt>
      <trkpt lat="42.79845" lon="0.66217">
        <ele>1969.8</ele>
        <time>2018-11-24T23:48:48Z</time>
      </trkpt>
      <trkpt lat="42.79845" lon="0.66214">
        <ele>1969.3</ele>
        <time>2018-11-24T23:48:49Z</time>
      </trkpt>
      <trkpt lat="42.79844" lon="0.6621">
        <ele>1971.3</ele>
        <time>2018-11-24T23:48:50Z</time>
      </trkpt>
      <trkpt lat="42.79844" lon="0.66207">
        <ele>1971.7</ele>
        <time>2018-11-24T23:48:51Z</time>
      </trkpt>
      <trkpt lat="42.79843" lon="0.66204">
        <ele>1972.3</ele>
        <time>2018-11-24T23:48:52Z</time>
      </trkpt>
      <trkpt lat="42.79843" lon="0.66201">
        <ele>1972.7</ele>
        <time>2018-11-24T23:48:53Z</time>
      </trkpt>
      <trkpt lat="42.79843" lon="0.66198">
        <ele>1973.1</ele>
        <time>2018-11-24T23:48:54Z</time>
      </trkpt>
      <trkpt lat="42.79843" lon="0.66194">
        <ele>1973.6</ele>
        <time>2018-11-24T23:48:55Z</time>
      </trkpt>
      <trkpt lat="42.79844" lon="0.66192">
        <ele>1973.9</ele>
        <time>2018-11-24T23:48:56Z</time>
      </trkpt>
      <trkpt lat="42.79844" lon="0.66189">
        <ele>1974.3</ele>
        <time>2018-11-24T23:48:57Z</time>
      </trkpt>
      <trkpt lat="42.79844" lon="0.66186">
        <ele>1974.7</ele>
        <time>2018-11-24T23:48:57Z</time>
      </trkpt>
      <trkpt lat="42.79844" lon="0.66183">
        <ele>1975</ele>
        <time>2018-11-24T23:48:58Z</time>
      </trkpt>
      <trkpt lat="42.79844" lon="0.66179">
        <ele>1975.5</ele>
        <time>2018-11-24T23:48:59Z</time>
      </trkpt>
      <trkpt lat="42.79843" lon="0.66176">
        <ele>1975.9</ele>
        <time>2018-11-24T23:49:00Z</time>
      </trkpt>
      <trkpt lat="42.79843" lon="0.66173">
        <ele>1976.3</ele>
        <time>2018-11-24T23:49:01Z</time>
      </trkpt>
      <trkpt lat="42.79842" lon="0.66171">
        <ele>1976.8</ele>
        <time>2018-11-24T23:49:02Z</time>
      </trkpt>
      <trkpt lat="42.79842" lon="0.66168">
        <ele>1977.3</ele>
        <time>2018-11-24T23:49:03Z</time>
      </trkpt>
      <trkpt lat="42.79843" lon="0.66165">
        <ele>1977.7</ele>
        <time>2018-11-24T23:49:04Z</time>
      </trkpt>
      <trkpt lat="42.79843" lon="0.66162">
        <ele>1978.1</ele>
        <time>2018-11-24T23:49:05Z</time>
      </trkpt>
      <trkpt lat="42.79842" lon="0.66158">
        <ele>1978.7</ele>
        <time>2018-11-24T23:49:06Z</time>
      </trkpt>
      <trkpt lat="42.79842" lon="0.66155">
        <ele>1979.4</ele>
        <time>2018-11-24T23:49:07Z</time>
      </trkpt>
      <trkpt lat="42.79842" lon="0.66151">
        <ele>1980</ele>
        <time>2018-11-24T23:49:08Z</time>
      </trkpt>
      <trkpt lat="42.79843" lon="0.66149">
        <ele>1979.7</ele>
        <time>2018-11-24T23:49:09Z</time>
      </trkpt>
      <trkpt lat="42.79843" lon="0.66146">
        <ele>1979.1</ele>
        <time>2018-11-24T23:49:09Z</time>
      </trkpt>
      <trkpt lat="42.79843" lon="0.66142">
        <ele>1978.6</ele>
        <time>2018-11-24T23:49:10Z</time>
      </trkpt>
      <trkpt lat="42.79843" lon="0.6614">
        <ele>1978.4</ele>
        <time>2018-11-24T23:49:11Z</time>
      </trkpt>
      <trkpt lat="42.79842" lon="0.66137">
        <ele>1978.1</ele>
        <time>2018-11-24T23:49:12Z</time>
      </trkpt>
      <trkpt lat="42.79842" lon="0.66134">
        <ele>1982.4</ele>
        <time>2018-11-24T23:49:13Z</time>
      </trkpt>
      <trkpt lat="42.79841" lon="0.66131">
        <ele>1982.7</ele>
        <time>2018-11-24T23:49:14Z</time>
      </trkpt>
      <trkpt lat="42.79841" lon="0.66129">
        <ele>1983.2</ele>
        <time>2018-11-24T23:49:15Z</time>
      </trkpt>
      <trkpt lat="42.7984" lon="0.66126">
        <ele>1983.5</ele>
        <time>2018-11-24T23:49:15Z</time>
      </trkpt>
      <trkpt lat="42.7984" lon="0.66124">
        <ele>1983.8</ele>
        <time>2018-11-24T23:49:16Z</time>
      </trkpt>
      <trkpt lat="42.79839" lon="0.66121">
        <ele>1984.1</ele>
        <time>2018-11-24T23:49:17Z</time>
      </trkpt>
      <trkpt lat="42.79839" lon="0.66118">
        <ele>1984.6</ele>
        <time>2018-11-24T23:49:18Z</time>
      </trkpt>
      <trkpt lat="42.79839" lon="0.66115">
        <ele>1984.8</ele>
        <time>2018-11-24T23:49:19Z</time>
      </trkpt>
      <trkpt lat="42.79839" lon="0.66113">
        <ele>1985.1</ele>
        <time>2018-11-24T23:49:19Z</time>
      </trkpt>
      <trkpt lat="42.79839" lon="0.6611">
        <ele>1985.5</ele>
        <time>2018-11-24T23:49:20Z</time>
      </trkpt>
      <trkpt lat="42.79839" lon="0.66107">
        <ele>1985.9</ele>
        <time>2018-11-24T23:49:21Z</time>
      </trkpt>
      <trkpt lat="42.79839" lon="0.66104">
        <ele>1986.3</ele>
        <time>2018-11-24T23:49:22Z</time>
      </trkpt>
      <trkpt lat="42.79839" lon="0.661">
        <ele>1986.7</ele>
        <time>2018-11-24T23:49:23Z</time>
      </trkpt>
      <trkpt lat="42.79839" lon="0.66097">
        <ele>1987.3</ele>
        <time>2018-11-24T23:49:24Z</time>
      </trkpt>
      <trkpt lat="42.79838" lon="0.66095">
        <ele>1987.7</ele>
        <time>2018-11-24T23:49:25Z</time>
      </trkpt>
      <trkpt lat="42.79838" lon="0.66091">
        <ele>1988.2</ele>
        <time>2018-11-24T23:49:26Z</time>
      </trkpt>
      <trkpt lat="42.79838" lon="0.66088">
        <ele>1988.5</ele>
        <time>2018-11-24T23:49:27Z</time>
      </trkpt>
      <trkpt lat="42.79839" lon="0.66086">
        <ele>1988.9</ele>
        <time>2018-11-24T23:49:27Z</time>
      </trkpt>
      <trkpt lat="42.79839" lon="0.66083">
        <ele>1989.6</ele>
        <time>2018-11-24T23:49:28Z</time>
      </trkpt>
      <trkpt lat="42.79838" lon="0.6608">
        <ele>1990</ele>
        <time>2018-11-24T23:49:29Z</time>
      </trkpt>
      <trkpt lat="42.79838" lon="0.66077">
        <ele>1989.5</ele>
        <time>2018-11-24T23:49:30Z</time>
      </trkpt>
      <trkpt lat="42.79838" lon="0.66074">
        <ele>1989.1</ele>
        <time>2018-11-24T23:49:31Z</time>
      </trkpt>
      <trkpt lat="42.79839" lon="0.66071">
        <ele>1988.8</ele>
        <time>2018-11-24T23:49:32Z</time>
      </trkpt>
      <trkpt lat="42.79839" lon="0.66069">
        <ele>1988.5</ele>
        <time>2018-11-24T23:49:33Z</time>
      </trkpt>
      <trkpt lat="42.79838" lon="0.66066">
        <ele>1988</ele>
        <time>2018-11-24T23:49:34Z</time>
      </trkpt>
      <trkpt lat="42.79836" lon="0.66063">
        <ele>1987.9</ele>
        <time>2018-11-24T23:49:34Z</time>
      </trkpt>
      <trkpt lat="42.79835" lon="0.6606">
        <ele>1987.8</ele>
        <time>2018-11-24T23:49:35Z</time>
      </trkpt>
      <trkpt lat="42.79834" lon="0.66057">
        <ele>1987.7</ele>
        <time>2018-11-24T23:49:36Z</time>
      </trkpt>
      <trkpt lat="42.79834" lon="0.66054">
        <ele>1987.7</ele>
        <time>2018-11-24T23:49:37Z</time>
      </trkpt>
      <trkpt lat="42.79834" lon="0.66051">
        <ele>1987.5</ele>
        <time>2018-11-24T23:49:38Z</time>
      </trkpt>
      <trkpt lat="42.79834" lon="0.66047">
        <ele>1987.4</ele>
        <time>2018-11-24T23:49:39Z</time>
      </trkpt>
      <trkpt lat="42.79834" lon="0.66042">
        <ele>1987.5</ele>
        <time>2018-11-24T23:49:41Z</time>
      </trkpt>
      <trkpt lat="42.79834" lon="0.6604">
        <ele>1987.4</ele>
        <time>2018-11-24T23:49:42Z</time>
      </trkpt>
      <trkpt lat="42.79833" lon="0.66037">
        <ele>1987.5</ele>
        <time>2018-11-24T23:49:42Z</time>
      </trkpt>
      <trkpt lat="42.79832" lon="0.66034">
        <ele>1987.7</ele>
        <time>2018-11-24T23:49:43Z</time>
      </trkpt>
      <trkpt lat="42.79831" lon="0.66032">
        <ele>1987.7</ele>
        <time>2018-11-24T23:49:44Z</time>
      </trkpt>
      <trkpt lat="42.7983" lon="0.66029">
        <ele>1988</ele>
        <time>2018-11-24T23:49:45Z</time>
      </trkpt>
      <trkpt lat="42.79829" lon="0.66026">
        <ele>1988.1</ele>
        <time>2018-11-24T23:49:46Z</time>
      </trkpt>
      <trkpt lat="42.79828" lon="0.66024">
        <ele>1988.5</ele>
        <time>2018-11-24T23:49:47Z</time>
      </trkpt>
      <trkpt lat="42.79828" lon="0.66021">
        <ele>1988.7</ele>
        <time>2018-11-24T23:49:48Z</time>
      </trkpt>
      <trkpt lat="42.79828" lon="0.66018">
        <ele>1988.8</ele>
        <time>2018-11-24T23:49:49Z</time>
      </trkpt>
      <trkpt lat="42.79828" lon="0.66015">
        <ele>1989.2</ele>
        <time>2018-11-24T23:49:49Z</time>
      </trkpt>
      <trkpt lat="42.79828" lon="0.66012">
        <ele>1989.3</ele>
        <time>2018-11-24T23:49:50Z</time>
      </trkpt>
      <trkpt lat="42.79828" lon="0.6601">
        <ele>1989.7</ele>
        <time>2018-11-24T23:49:51Z</time>
      </trkpt>
      <trkpt lat="42.79828" lon="0.66007">
        <ele>1989.9</ele>
        <time>2018-11-24T23:49:52Z</time>
      </trkpt>
      <trkpt lat="42.79828" lon="0.66003">
        <ele>1989.3</ele>
        <time>2018-11-24T23:49:53Z</time>
      </trkpt>
      <trkpt lat="42.79827" lon="0.66001">
        <ele>1988.9</ele>
        <time>2018-11-24T23:49:54Z</time>
      </trkpt>
      <trkpt lat="42.79827" lon="0.65998">
        <ele>1988.3</ele>
        <time>2018-11-24T23:49:54Z</time>
      </trkpt>
      <trkpt lat="42.79826" lon="0.65994">
        <ele>1987.6</ele>
        <time>2018-11-24T23:49:56Z</time>
      </trkpt>
      <trkpt lat="42.79824" lon="0.65991">
        <ele>1986.9</ele>
        <time>2018-11-24T23:49:57Z</time>
      </trkpt>
      <trkpt lat="42.79824" lon="0.65989">
        <ele>1986.5</ele>
        <time>2018-11-24T23:49:58Z</time>
      </trkpt>
      <trkpt lat="42.79823" lon="0.65984">
        <ele>1986</ele>
        <time>2018-11-24T23:49:59Z</time>
      </trkpt>
      <trkpt lat="42.79823" lon="0.6598">
        <ele>1985.2</ele>
        <time>2018-11-24T23:50:00Z</time>
      </trkpt>
      <trkpt lat="42.7982" lon="0.65977">
        <ele>1984.5</ele>
        <time>2018-11-24T23:50:02Z</time>
      </trkpt>
      <trkpt lat="42.79818" lon="0.65973">
        <ele>1983.7</ele>
        <time>2018-11-24T23:50:03Z</time>
      </trkpt>
      <trkpt lat="42.79816" lon="0.6597">
        <ele>1983.1</ele>
        <time>2018-11-24T23:50:04Z</time>
      </trkpt>
      <trkpt lat="42.79815" lon="0.65967">
        <ele>1982.3</ele>
        <time>2018-11-24T23:50:05Z</time>
      </trkpt>
      <trkpt lat="42.79813" lon="0.65964">
        <ele>1978.2</ele>
        <time>2018-11-24T23:50:06Z</time>
      </trkpt>
      <trkpt lat="42.79811" lon="0.65962">
        <ele>1978.6</ele>
        <time>2018-11-24T23:50:07Z</time>
      </trkpt>
      <trkpt lat="42.79809" lon="0.6596">
        <ele>1979.2</ele>
        <time>2018-11-24T23:50:08Z</time>
      </trkpt>
      <trkpt lat="42.79808" lon="0.65958">
        <ele>1979.7</ele>
        <time>2018-11-24T23:50:09Z</time>
      </trkpt>
      <trkpt lat="42.79807" lon="0.65956">
        <ele>1979.7</ele>
        <time>2018-11-24T23:50:10Z</time>
      </trkpt>
      <trkpt lat="42.79805" lon="0.65954">
        <ele>1979</ele>
        <time>2018-11-24T23:50:10Z</time>
      </trkpt>
      <trkpt lat="42.79804" lon="0.65952">
        <ele>1978.1</ele>
        <time>2018-11-24T23:50:11Z</time>
      </trkpt>
      <trkpt lat="42.79802" lon="0.6595">
        <ele>1977.5</ele>
        <time>2018-11-24T23:50:12Z</time>
      </trkpt>
      <trkpt lat="42.79801" lon="0.65948">
        <ele>1976.7</ele>
        <time>2018-11-24T23:50:13Z</time>
      </trkpt>
      <trkpt lat="42.79799" lon="0.65946">
        <ele>1975.9</ele>
        <time>2018-11-24T23:50:14Z</time>
      </trkpt>
      <trkpt lat="42.79797" lon="0.65944">
        <ele>1975</ele>
        <time>2018-11-24T23:50:15Z</time>
      </trkpt>
      <trkpt lat="42.79796" lon="0.65942">
        <ele>1974.2</ele>
        <time>2018-11-24T23:50:16Z</time>
      </trkpt>
      <trkpt lat="42.79794" lon="0.65938">
        <ele>1972.9</ele>
        <time>2018-11-24T23:50:17Z</time>
      </trkpt>
      <trkpt lat="42.79793" lon="0.65936">
        <ele>1972.3</ele>
        <time>2018-11-24T23:50:18Z</time>
      </trkpt>
      <trkpt lat="42.79792" lon="0.65933">
        <ele>1971.6</ele>
        <time>2018-11-24T23:50:19Z</time>
      </trkpt>
      <trkpt lat="42.79791" lon="0.65932">
        <ele>1970.9</ele>
        <time>2018-11-24T23:50:19Z</time>
      </trkpt>
      <trkpt lat="42.79788" lon="0.65929">
        <ele>1969.7</ele>
        <time>2018-11-24T23:50:21Z</time>
      </trkpt>
      <trkpt lat="42.79786" lon="0.65926">
        <ele>1968.5</ele>
        <time>2018-11-24T23:50:22Z</time>
      </trkpt>
      <trkpt lat="42.79783" lon="0.65925">
        <ele>1967.3</ele>
        <time>2018-11-24T23:50:23Z</time>
      </trkpt>
      <trkpt lat="42.79781" lon="0.65922">
        <ele>1966.3</ele>
        <time>2018-11-24T23:50:24Z</time>
      </trkpt>
      <trkpt lat="42.79779" lon="0.65919">
        <ele>1965.1</ele>
        <time>2018-11-24T23:50:25Z</time>
      </trkpt>
      <trkpt lat="42.79777" lon="0.65917">
        <ele>1964</ele>
        <time>2018-11-24T23:50:26Z</time>
      </trkpt>
      <trkpt lat="42.79775" lon="0.65917">
        <ele>1963.1</ele>
        <time>2018-11-24T23:50:27Z</time>
      </trkpt>
      <trkpt lat="42.79772" lon="0.65914">
        <ele>1961.7</ele>
        <time>2018-11-24T23:50:29Z</time>
      </trkpt>
      <trkpt lat="42.79771" lon="0.65912">
        <ele>1960.9</ele>
        <time>2018-11-24T23:50:29Z</time>
      </trkpt>
      <trkpt lat="42.79768" lon="0.6591">
        <ele>1959.5</ele>
        <time>2018-11-24T23:50:31Z</time>
      </trkpt>
      <trkpt lat="42.79765" lon="0.65908">
        <ele>1958.2</ele>
        <time>2018-11-24T23:50:32Z</time>
      </trkpt>
      <trkpt lat="42.79763" lon="0.65904">
        <ele>1956.9</ele>
        <time>2018-11-24T23:50:33Z</time>
      </trkpt>
      <trkpt lat="42.7976" lon="0.65902">
        <ele>1955.4</ele>
        <time>2018-11-24T23:50:35Z</time>
      </trkpt>
      <trkpt lat="42.79757" lon="0.659">
        <ele>1954</ele>
        <time>2018-11-24T23:50:36Z</time>
      </trkpt>
      <trkpt lat="42.79755" lon="0.659">
        <ele>1953.3</ele>
        <time>2018-11-24T23:50:37Z</time>
      </trkpt>
      <trkpt lat="42.79752" lon="0.65899">
        <ele>1952</ele>
        <time>2018-11-24T23:50:38Z</time>
      </trkpt>
      <trkpt lat="42.79749" lon="0.65898">
        <ele>1950.8</ele>
        <time>2018-11-24T23:50:40Z</time>
      </trkpt>
      <trkpt lat="42.79746" lon="0.65896">
        <ele>1949.5</ele>
        <time>2018-11-24T23:50:41Z</time>
      </trkpt>
      <trkpt lat="42.79744" lon="0.65895">
        <ele>1948.6</ele>
        <time>2018-11-24T23:50:42Z</time>
      </trkpt>
      <trkpt lat="42.79742" lon="0.65894">
        <ele>1947.8</ele>
        <time>2018-11-24T23:50:42Z</time>
      </trkpt>
      <trkpt lat="42.7974" lon="0.65892">
        <ele>1946.9</ele>
        <time>2018-11-24T23:50:43Z</time>
      </trkpt>
      <trkpt lat="42.79738" lon="0.65891">
        <ele>1946.3</ele>
        <time>2018-11-24T23:50:44Z</time>
      </trkpt>
      <trkpt lat="42.79736" lon="0.6589">
        <ele>1945.4</ele>
        <time>2018-11-24T23:50:45Z</time>
      </trkpt>
      <trkpt lat="42.79734" lon="0.65887">
        <ele>1944.1</ele>
        <time>2018-11-24T23:50:46Z</time>
      </trkpt>
      <trkpt lat="42.79731" lon="0.65883">
        <ele>1942.8</ele>
        <time>2018-11-24T23:50:48Z</time>
      </trkpt>
      <trkpt lat="42.7973" lon="0.65881">
        <ele>1942.1</ele>
        <time>2018-11-24T23:50:48Z</time>
      </trkpt>
      <trkpt lat="42.79728" lon="0.65877">
        <ele>1941</ele>
        <time>2018-11-24T23:50:50Z</time>
      </trkpt>
      <trkpt lat="42.79727" lon="0.65874">
        <ele>1940.2</ele>
        <time>2018-11-24T23:50:51Z</time>
      </trkpt>
      <trkpt lat="42.79724" lon="0.65872">
        <ele>1938.9</ele>
        <time>2018-11-24T23:50:52Z</time>
      </trkpt>
      <trkpt lat="42.79722" lon="0.65869">
        <ele>1938.1</ele>
        <time>2018-11-24T23:50:53Z</time>
      </trkpt>
      <trkpt lat="42.79721" lon="0.65868">
        <ele>1937.5</ele>
        <time>2018-11-24T23:50:54Z</time>
      </trkpt>
      <trkpt lat="42.79718" lon="0.65866">
        <ele>1936.5</ele>
        <time>2018-11-24T23:50:55Z</time>
      </trkpt>
      <trkpt lat="42.79716" lon="0.65866">
        <ele>1936</ele>
        <time>2018-11-24T23:50:56Z</time>
      </trkpt>
      <trkpt lat="42.79714" lon="0.65865">
        <ele>1935.5</ele>
        <time>2018-11-24T23:50:57Z</time>
      </trkpt>
      <trkpt lat="42.7971" lon="0.65864">
        <ele>1934.6</ele>
        <time>2018-11-24T23:50:58Z</time>
      </trkpt>
      <trkpt lat="42.79708" lon="0.65863">
        <ele>1934.1</ele>
        <time>2018-11-24T23:50:59Z</time>
      </trkpt>
      <trkpt lat="42.79705" lon="0.65862">
        <ele>1933.2</ele>
        <time>2018-11-24T23:51:00Z</time>
      </trkpt>
      <trkpt lat="42.79702" lon="0.6586">
        <ele>1932.4</ele>
        <time>2018-11-24T23:51:02Z</time>
      </trkpt>
      <trkpt lat="42.79699" lon="0.65858">
        <ele>1931.5</ele>
        <time>2018-11-24T23:51:03Z</time>
      </trkpt>
      <trkpt lat="42.79696" lon="0.65854">
        <ele>1930.5</ele>
        <time>2018-11-24T23:51:05Z</time>
      </trkpt>
      <trkpt lat="42.7969" lon="0.65846">
        <ele>1928.2</ele>
        <time>2018-11-24T23:51:08Z</time>
      </trkpt>
      <trkpt lat="42.7968" lon="0.65855">
        <ele>1927.5</ele>
        <time>2018-11-24T23:51:13Z</time>
      </trkpt>
      <trkpt lat="42.79679" lon="0.65856">
        <ele>1927.3</ele>
        <time>2018-11-24T23:51:13Z</time>
      </trkpt>
      <trkpt lat="42.79676" lon="0.65855">
        <ele>1926.7</ele>
        <time>2018-11-24T23:51:15Z</time>
      </trkpt>
      <trkpt lat="42.79674" lon="0.65853">
        <ele>1926.4</ele>
        <time>2018-11-24T23:51:16Z</time>
      </trkpt>
      <trkpt lat="42.79672" lon="0.65852">
        <ele>1925.9</ele>
        <time>2018-11-24T23:51:17Z</time>
      </trkpt>
      <trkpt lat="42.7967" lon="0.65851">
        <ele>1925.7</ele>
        <time>2018-11-24T23:51:17Z</time>
      </trkpt>
      <trkpt lat="42.79668" lon="0.6585">
        <ele>1925.4</ele>
        <time>2018-11-24T23:51:18Z</time>
      </trkpt>
      <trkpt lat="42.79666" lon="0.65848">
        <ele>1925.1</ele>
        <time>2018-11-24T23:51:19Z</time>
      </trkpt>
      <trkpt lat="42.79664" lon="0.65847">
        <ele>1924.8</ele>
        <time>2018-11-24T23:51:20Z</time>
      </trkpt>
      <trkpt lat="42.79662" lon="0.65845">
        <ele>1924.5</ele>
        <time>2018-11-24T23:51:21Z</time>
      </trkpt>
      <trkpt lat="42.7966" lon="0.65844">
        <ele>1924.4</ele>
        <time>2018-11-24T23:51:22Z</time>
      </trkpt>
      <trkpt lat="42.79658" lon="0.65842">
        <ele>1924.1</ele>
        <time>2018-11-24T23:51:23Z</time>
      </trkpt>
      <trkpt lat="42.79656" lon="0.65841">
        <ele>1923.9</ele>
        <time>2018-11-24T23:51:24Z</time>
      </trkpt>
      <trkpt lat="42.79654" lon="0.65839">
        <ele>1923.8</ele>
        <time>2018-11-24T23:51:25Z</time>
      </trkpt>
      <trkpt lat="42.79652" lon="0.65837">
        <ele>1923.5</ele>
        <time>2018-11-24T23:51:26Z</time>
      </trkpt>
      <trkpt lat="42.7965" lon="0.65836">
        <ele>1923.4</ele>
        <time>2018-11-24T23:51:26Z</time>
      </trkpt>
      <trkpt lat="42.79649" lon="0.65833">
        <ele>1923.3</ele>
        <time>2018-11-24T23:51:27Z</time>
      </trkpt>
      <trkpt lat="42.79647" lon="0.65831">
        <ele>1923.3</ele>
        <time>2018-11-24T23:51:28Z</time>
      </trkpt>
      <trkpt lat="42.79645" lon="0.6583">
        <ele>1917</ele>
        <time>2018-11-24T23:51:29Z</time>
      </trkpt>
      <trkpt lat="42.79643" lon="0.65829">
        <ele>1917</ele>
        <time>2018-11-24T23:51:30Z</time>
      </trkpt>
      <trkpt lat="42.79641" lon="0.65828">
        <ele>1917</ele>
        <time>2018-11-24T23:51:31Z</time>
      </trkpt>
      <trkpt lat="42.79639" lon="0.65827">
        <ele>1917.2</ele>
        <time>2018-11-24T23:51:32Z</time>
      </trkpt>
      <trkpt lat="42.79637" lon="0.65826">
        <ele>1917.2</ele>
        <time>2018-11-24T23:51:32Z</time>
      </trkpt>
      <trkpt lat="42.79634" lon="0.65825">
        <ele>1917.2</ele>
        <time>2018-11-24T23:51:34Z</time>
      </trkpt>
      <trkpt lat="42.79633" lon="0.65824">
        <ele>1917.3</ele>
        <time>2018-11-24T23:51:34Z</time>
      </trkpt>
      <trkpt lat="42.79631" lon="0.65823">
        <ele>1917.3</ele>
        <time>2018-11-24T23:51:35Z</time>
      </trkpt>
      <trkpt lat="42.79629" lon="0.65822">
        <ele>1917.3</ele>
        <time>2018-11-24T23:51:36Z</time>
      </trkpt>
      <trkpt lat="42.79627" lon="0.65821">
        <ele>1917.4</ele>
        <time>2018-11-24T23:51:37Z</time>
      </trkpt>
      <trkpt lat="42.79625" lon="0.6582">
        <ele>1917.5</ele>
        <time>2018-11-24T23:51:38Z</time>
      </trkpt>
      <trkpt lat="42.79623" lon="0.65819">
        <ele>1917.4</ele>
        <time>2018-11-24T23:51:38Z</time>
      </trkpt>
      <trkpt lat="42.79622" lon="0.65817">
        <ele>1917.5</ele>
        <time>2018-11-24T23:51:39Z</time>
      </trkpt>
      <trkpt lat="42.7962" lon="0.65816">
        <ele>1917.5</ele>
        <time>2018-11-24T23:51:40Z</time>
      </trkpt>
      <trkpt lat="42.79618" lon="0.65815">
        <ele>1917.6</ele>
        <time>2018-11-24T23:51:41Z</time>
      </trkpt>
      <trkpt lat="42.79616" lon="0.65814">
        <ele>1917.6</ele>
        <time>2018-11-24T23:51:42Z</time>
      </trkpt>
      <trkpt lat="42.79614" lon="0.65813">
        <ele>1917.6</ele>
        <time>2018-11-24T23:51:43Z</time>
      </trkpt>
      <trkpt lat="42.79612" lon="0.65811">
        <ele>1917.6</ele>
        <time>2018-11-24T23:51:44Z</time>
      </trkpt>
      <trkpt lat="42.7961" lon="0.6581">
        <ele>1917.5</ele>
        <time>2018-11-24T23:51:45Z</time>
      </trkpt>
      <trkpt lat="42.79608" lon="0.6581">
        <ele>1917.6</ele>
        <time>2018-11-24T23:51:45Z</time>
      </trkpt>
      <trkpt lat="42.79605" lon="0.65809">
        <ele>1917.6</ele>
        <time>2018-11-24T23:51:46Z</time>
      </trkpt>
      <trkpt lat="42.79603" lon="0.65808">
        <ele>1917.7</ele>
        <time>2018-11-24T23:51:47Z</time>
      </trkpt>
      <trkpt lat="42.79601" lon="0.65808">
        <ele>1917.8</ele>
        <time>2018-11-24T23:51:48Z</time>
      </trkpt>
      <trkpt lat="42.79598" lon="0.65807">
        <ele>1917.9</ele>
        <time>2018-11-24T23:51:49Z</time>
      </trkpt>
      <trkpt lat="42.79594" lon="0.65805">
        <ele>1917.8</ele>
        <time>2018-11-24T23:51:51Z</time>
      </trkpt>
      <trkpt lat="42.79592" lon="0.65804">
        <ele>1917.9</ele>
        <time>2018-11-24T23:51:52Z</time>
      </trkpt>
      <trkpt lat="42.7959" lon="0.65803">
        <ele>1917.9</ele>
        <time>2018-11-24T23:51:53Z</time>
      </trkpt>
      <trkpt lat="42.79588" lon="0.65802">
        <ele>1917.9</ele>
        <time>2018-11-24T23:51:54Z</time>
      </trkpt>
      <trkpt lat="42.79586" lon="0.65801">
        <ele>1917.9</ele>
        <time>2018-11-24T23:51:54Z</time>
      </trkpt>
      <trkpt lat="42.79584" lon="0.65799">
        <ele>1917.8</ele>
        <time>2018-11-24T23:51:55Z</time>
      </trkpt>
      <trkpt lat="42.79583" lon="0.65797">
        <ele>1917.7</ele>
        <time>2018-11-24T23:51:56Z</time>
      </trkpt>
      <trkpt lat="42.79581" lon="0.65795">
        <ele>1917.7</ele>
        <time>2018-11-24T23:51:57Z</time>
      </trkpt>
      <trkpt lat="42.79579" lon="0.65793">
        <ele>1917.5</ele>
        <time>2018-11-24T23:51:58Z</time>
      </trkpt>
      <trkpt lat="42.79577" lon="0.6579">
        <ele>1917.4</ele>
        <time>2018-11-24T23:51:59Z</time>
      </trkpt>
      <trkpt lat="42.79575" lon="0.65788">
        <ele>1917.4</ele>
        <time>2018-11-24T23:52:00Z</time>
      </trkpt>
      <trkpt lat="42.79574" lon="0.65786">
        <ele>1917.3</ele>
        <time>2018-11-24T23:52:01Z</time>
      </trkpt>
      <trkpt lat="42.79572" lon="0.65784">
        <ele>1917.3</ele>
        <time>2018-11-24T23:52:02Z</time>
      </trkpt>
      <trkpt lat="42.7957" lon="0.65782">
        <ele>1917.2</ele>
        <time>2018-11-24T23:52:03Z</time>
      </trkpt>
      <trkpt lat="42.79569" lon="0.6578">
        <ele>1917.3</ele>
        <time>2018-11-24T23:52:04Z</time>
      </trkpt>
      <trkpt lat="42.79567" lon="0.65779">
        <ele>1917.3</ele>
        <time>2018-11-24T23:52:04Z</time>
      </trkpt>
      <trkpt lat="42.79565" lon="0.65777">
        <ele>1917.3</ele>
        <time>2018-11-24T23:52:05Z</time>
      </trkpt>
      <trkpt lat="42.79563" lon="0.65776">
        <ele>1917.3</ele>
        <time>2018-11-24T23:52:06Z</time>
      </trkpt>
      <trkpt lat="42.79561" lon="0.65774">
        <ele>1917.5</ele>
        <time>2018-11-24T23:52:07Z</time>
      </trkpt>
      <trkpt lat="42.7956" lon="0.65772">
        <ele>1917.6</ele>
        <time>2018-11-24T23:52:08Z</time>
      </trkpt>
      <trkpt lat="42.79558" lon="0.65771">
        <ele>1917.6</ele>
        <time>2018-11-24T23:52:09Z</time>
      </trkpt>
      <trkpt lat="42.79556" lon="0.65769">
        <ele>1917.7</ele>
        <time>2018-11-24T23:52:10Z</time>
      </trkpt>
      <trkpt lat="42.79554" lon="0.65765">
        <ele>1918.1</ele>
        <time>2018-11-24T23:52:11Z</time>
      </trkpt>
      <trkpt lat="42.79553" lon="0.65763">
        <ele>1918.2</ele>
        <time>2018-11-24T23:52:12Z</time>
      </trkpt>
      <trkpt lat="42.79551" lon="0.65761">
        <ele>1918.5</ele>
        <time>2018-11-24T23:52:13Z</time>
      </trkpt>
      <trkpt lat="42.7955" lon="0.65759">
        <ele>1918.6</ele>
        <time>2018-11-24T23:52:14Z</time>
      </trkpt>
      <trkpt lat="42.79548" lon="0.65757">
        <ele>1918.9</ele>
        <time>2018-11-24T23:52:14Z</time>
      </trkpt>
      <trkpt lat="42.79547" lon="0.65755">
        <ele>1919.3</ele>
        <time>2018-11-24T23:52:15Z</time>
      </trkpt>
      <trkpt lat="42.79545" lon="0.65753">
        <ele>1919.8</ele>
        <time>2018-11-24T23:52:16Z</time>
      </trkpt>
      <trkpt lat="42.79544" lon="0.6575">
        <ele>1919.8</ele>
        <time>2018-11-24T23:52:17Z</time>
      </trkpt>
      <trkpt lat="42.79543" lon="0.65748">
        <ele>1919.1</ele>
        <time>2018-11-24T23:52:18Z</time>
      </trkpt>
      <trkpt lat="42.79542" lon="0.65745">
        <ele>1918.6</ele>
        <time>2018-11-24T23:52:19Z</time>
      </trkpt>
      <trkpt lat="42.79541" lon="0.65743">
        <ele>1918.1</ele>
        <time>2018-11-24T23:52:20Z</time>
      </trkpt>
      <trkpt lat="42.7954" lon="0.6574">
        <ele>1917.6</ele>
        <time>2018-11-24T23:52:20Z</time>
      </trkpt>
      <trkpt lat="42.79538" lon="0.65738">
        <ele>1917.1</ele>
        <time>2018-11-24T23:52:21Z</time>
      </trkpt>
      <trkpt lat="42.79536" lon="0.65736">
        <ele>1916.7</ele>
        <time>2018-11-24T23:52:22Z</time>
      </trkpt>
      <trkpt lat="42.79534" lon="0.65735">
        <ele>1916.4</ele>
        <time>2018-11-24T23:52:23Z</time>
      </trkpt>
      <trkpt lat="42.79533" lon="0.65733">
        <ele>1915.9</ele>
        <time>2018-11-24T23:52:24Z</time>
      </trkpt>
      <trkpt lat="42.79531" lon="0.65732">
        <ele>1915.7</ele>
        <time>2018-11-24T23:52:25Z</time>
      </trkpt>
      <trkpt lat="42.79528" lon="0.6573">
        <ele>1915.2</ele>
        <time>2018-11-24T23:52:26Z</time>
      </trkpt>
      <trkpt lat="42.79525" lon="0.65728">
        <ele>1914.7</ele>
        <time>2018-11-24T23:52:27Z</time>
      </trkpt>
      <trkpt lat="42.79524" lon="0.65726">
        <ele>1914.4</ele>
        <time>2018-11-24T23:52:28Z</time>
      </trkpt>
      <trkpt lat="42.79522" lon="0.65725">
        <ele>1914.2</ele>
        <time>2018-11-24T23:52:29Z</time>
      </trkpt>
      <trkpt lat="42.7952" lon="0.65722">
        <ele>1913.7</ele>
        <time>2018-11-24T23:52:30Z</time>
      </trkpt>
      <trkpt lat="42.79518" lon="0.65719">
        <ele>1913.2</ele>
        <time>2018-11-24T23:52:31Z</time>
      </trkpt>
      <trkpt lat="42.79516" lon="0.65717">
        <ele>1912.8</ele>
        <time>2018-11-24T23:52:32Z</time>
      </trkpt>
      <trkpt lat="42.79513" lon="0.65715">
        <ele>1907.4</ele>
        <time>2018-11-24T23:52:34Z</time>
      </trkpt>
      <trkpt lat="42.79511" lon="0.65714">
        <ele>1907.5</ele>
        <time>2018-11-24T23:52:34Z</time>
      </trkpt>
      <trkpt lat="42.79509" lon="0.65713">
        <ele>1907.6</ele>
        <time>2018-11-24T23:52:35Z</time>
      </trkpt>
      <trkpt lat="42.79507" lon="0.65712">
        <ele>1907.6</ele>
        <time>2018-11-24T23:52:36Z</time>
      </trkpt>
      <trkpt lat="42.79504" lon="0.6571">
        <ele>1907.9</ele>
        <time>2018-11-24T23:52:37Z</time>
      </trkpt>
      <trkpt lat="42.79502" lon="0.6571">
        <ele>1907.9</ele>
        <time>2018-11-24T23:52:38Z</time>
      </trkpt>
      <trkpt lat="42.795" lon="0.65709">
        <ele>1908</ele>
        <time>2018-11-24T23:52:39Z</time>
      </trkpt>
      <trkpt lat="42.79497" lon="0.65708">
        <ele>1908.2</ele>
        <time>2018-11-24T23:52:40Z</time>
      </trkpt>
      <trkpt lat="42.79495" lon="0.65707">
        <ele>1908.4</ele>
        <time>2018-11-24T23:52:41Z</time>
      </trkpt>
      <trkpt lat="42.79493" lon="0.65707">
        <ele>1908.6</ele>
        <time>2018-11-24T23:52:42Z</time>
      </trkpt>
      <trkpt lat="42.7949" lon="0.65706">
        <ele>1908.6</ele>
        <time>2018-11-24T23:52:43Z</time>
      </trkpt>
      <trkpt lat="42.79488" lon="0.65705">
        <ele>1908.8</ele>
        <time>2018-11-24T23:52:44Z</time>
      </trkpt>
      <trkpt lat="42.79487" lon="0.65704">
        <ele>1909.2</ele>
        <time>2018-11-24T23:52:45Z</time>
      </trkpt>
      <trkpt lat="42.79485" lon="0.65702">
        <ele>1909.7</ele>
        <time>2018-11-24T23:52:46Z</time>
      </trkpt>
      <trkpt lat="42.79483" lon="0.65701">
        <ele>1909.9</ele>
        <time>2018-11-24T23:52:46Z</time>
      </trkpt>
      <trkpt lat="42.79481" lon="0.657">
        <ele>1909.6</ele>
        <time>2018-11-24T23:52:47Z</time>
      </trkpt>
      <trkpt lat="42.79479" lon="0.65699">
        <ele>1909.2</ele>
        <time>2018-11-24T23:52:48Z</time>
      </trkpt>
      <trkpt lat="42.79478" lon="0.65697">
        <ele>1908.8</ele>
        <time>2018-11-24T23:52:49Z</time>
      </trkpt>
      <trkpt lat="42.79475" lon="0.65694">
        <ele>1907.9</ele>
        <time>2018-11-24T23:52:50Z</time>
      </trkpt>
      <trkpt lat="42.79473" lon="0.65693">
        <ele>1907.4</ele>
        <time>2018-11-24T23:52:51Z</time>
      </trkpt>
      <trkpt lat="42.7947" lon="0.65691">
        <ele>1907</ele>
        <time>2018-11-24T23:52:52Z</time>
      </trkpt>
      <trkpt lat="42.79468" lon="0.65691">
        <ele>1906.7</ele>
        <time>2018-11-24T23:52:53Z</time>
      </trkpt>
      <trkpt lat="42.79466" lon="0.6569">
        <ele>1906.4</ele>
        <time>2018-11-24T23:52:54Z</time>
      </trkpt>
      <trkpt lat="42.79464" lon="0.65689">
        <ele>1906.1</ele>
        <time>2018-11-24T23:52:55Z</time>
      </trkpt>
      <trkpt lat="42.79462" lon="0.65688">
        <ele>1906</ele>
        <time>2018-11-24T23:52:56Z</time>
      </trkpt>
      <trkpt lat="42.7946" lon="0.65687">
        <ele>1905.7</ele>
        <time>2018-11-24T23:52:56Z</time>
      </trkpt>
      <trkpt lat="42.79459" lon="0.65687">
        <ele>1905.5</ele>
        <time>2018-11-24T23:52:57Z</time>
      </trkpt>
      <trkpt lat="42.79456" lon="0.65685">
        <ele>1905.3</ele>
        <time>2018-11-24T23:52:58Z</time>
      </trkpt>
      <trkpt lat="42.79454" lon="0.65684">
        <ele>1905</ele>
        <time>2018-11-24T23:52:59Z</time>
      </trkpt>
      <trkpt lat="42.79452" lon="0.65684">
        <ele>1904.9</ele>
        <time>2018-11-24T23:53:00Z</time>
      </trkpt>
      <trkpt lat="42.79451" lon="0.65682">
        <ele>1904.6</ele>
        <time>2018-11-24T23:53:01Z</time>
      </trkpt>
      <trkpt lat="42.79449" lon="0.65681">
        <ele>1904.5</ele>
        <time>2018-11-24T23:53:01Z</time>
      </trkpt>
      <trkpt lat="42.79446" lon="0.65681">
        <ele>1904.4</ele>
        <time>2018-11-24T23:53:03Z</time>
      </trkpt>
      <trkpt lat="42.79444" lon="0.6568">
        <ele>1904.3</ele>
        <time>2018-11-24T23:53:04Z</time>
      </trkpt>
      <trkpt lat="42.79442" lon="0.6568">
        <ele>1904.1</ele>
        <time>2018-11-24T23:53:04Z</time>
      </trkpt>
      <trkpt lat="42.7944" lon="0.65679">
        <ele>1904</ele>
        <time>2018-11-24T23:53:05Z</time>
      </trkpt>
      <trkpt lat="42.79436" lon="0.65678">
        <ele>1903.9</ele>
        <time>2018-11-24T23:53:07Z</time>
      </trkpt>
      <trkpt lat="42.79433" lon="0.65676">
        <ele>1903.6</ele>
        <time>2018-11-24T23:53:08Z</time>
      </trkpt>
      <trkpt lat="42.7943" lon="0.65674">
        <ele>1896.6</ele>
        <time>2018-11-24T23:53:09Z</time>
      </trkpt>
      <trkpt lat="42.79429" lon="0.65672">
        <ele>1896.6</ele>
        <time>2018-11-24T23:53:10Z</time>
      </trkpt>
      <trkpt lat="42.79428" lon="0.65669">
        <ele>1896.7</ele>
        <time>2018-11-24T23:53:11Z</time>
      </trkpt>
      <trkpt lat="42.79426" lon="0.65666">
        <ele>1896.9</ele>
        <time>2018-11-24T23:53:12Z</time>
      </trkpt>
      <trkpt lat="42.79425" lon="0.65663">
        <ele>1897</ele>
        <time>2018-11-24T23:53:13Z</time>
      </trkpt>
      <trkpt lat="42.79424" lon="0.6566">
        <ele>1897.1</ele>
        <time>2018-11-24T23:53:14Z</time>
      </trkpt>
      <trkpt lat="42.79423" lon="0.65657">
        <ele>1897.1</ele>
        <time>2018-11-24T23:53:15Z</time>
      </trkpt>
      <trkpt lat="42.79422" lon="0.65655">
        <ele>1897.3</ele>
        <time>2018-11-24T23:53:16Z</time>
      </trkpt>
      <trkpt lat="42.79421" lon="0.65652">
        <ele>1897.4</ele>
        <time>2018-11-24T23:53:17Z</time>
      </trkpt>
      <trkpt lat="42.7942" lon="0.65649">
        <ele>1897.6</ele>
        <time>2018-11-24T23:53:18Z</time>
      </trkpt>
      <trkpt lat="42.7942" lon="0.65646">
        <ele>1897.8</ele>
        <time>2018-11-24T23:53:19Z</time>
      </trkpt>
      <trkpt lat="42.79419" lon="0.65643">
        <ele>1898.2</ele>
        <time>2018-11-24T23:53:19Z</time>
      </trkpt>
      <trkpt lat="42.79418" lon="0.65639">
        <ele>1898.6</ele>
        <time>2018-11-24T23:53:21Z</time>
      </trkpt>
      <trkpt lat="42.79416" lon="0.65636">
        <ele>1898.8</ele>
        <time>2018-11-24T23:53:22Z</time>
      </trkpt>
      <trkpt lat="42.79414" lon="0.65633">
        <ele>1899.5</ele>
        <time>2018-11-24T23:53:23Z</time>
      </trkpt>
      <trkpt lat="42.79413" lon="0.65629">
        <ele>1900</ele>
        <time>2018-11-24T23:53:24Z</time>
      </trkpt>
      <trkpt lat="42.79411" lon="0.65627">
        <ele>1899.5</ele>
        <time>2018-11-24T23:53:25Z</time>
      </trkpt>
      <trkpt lat="42.79409" lon="0.65623">
        <ele>1898.6</ele>
        <time>2018-11-24T23:53:27Z</time>
      </trkpt>
      <trkpt lat="42.79407" lon="0.6562">
        <ele>1897.9</ele>
        <time>2018-11-24T23:53:28Z</time>
      </trkpt>
      <trkpt lat="42.79406" lon="0.65617">
        <ele>1897.3</ele>
        <time>2018-11-24T23:53:29Z</time>
      </trkpt>
      <trkpt lat="42.79405" lon="0.65615">
        <ele>1896.8</ele>
        <time>2018-11-24T23:53:30Z</time>
      </trkpt>
      <trkpt lat="42.79403" lon="0.65612">
        <ele>1896.2</ele>
        <time>2018-11-24T23:53:31Z</time>
      </trkpt>
      <trkpt lat="42.79402" lon="0.65609">
        <ele>1895.8</ele>
        <time>2018-11-24T23:53:32Z</time>
      </trkpt>
      <trkpt lat="42.79401" lon="0.65607">
        <ele>1895.1</ele>
        <time>2018-11-24T23:53:32Z</time>
      </trkpt>
      <trkpt lat="42.794" lon="0.65604">
        <ele>1894.7</ele>
        <time>2018-11-24T23:53:34Z</time>
      </trkpt>
      <trkpt lat="42.79398" lon="0.65601">
        <ele>1894.3</ele>
        <time>2018-11-24T23:53:35Z</time>
      </trkpt>
      <trkpt lat="42.79397" lon="0.65598">
        <ele>1893.8</ele>
        <time>2018-11-24T23:53:35Z</time>
      </trkpt>
      <trkpt lat="42.79395" lon="0.65595">
        <ele>1893.2</ele>
        <time>2018-11-24T23:53:37Z</time>
      </trkpt>
      <trkpt lat="42.79394" lon="0.65592">
        <ele>1892.5</ele>
        <time>2018-11-24T23:53:38Z</time>
      </trkpt>
      <trkpt lat="42.79393" lon="0.65588">
        <ele>1892</ele>
        <time>2018-11-24T23:53:39Z</time>
      </trkpt>
      <trkpt lat="42.79392" lon="0.65585">
        <ele>1888.6</ele>
        <time>2018-11-24T23:53:40Z</time>
      </trkpt>
      <trkpt lat="42.7939" lon="0.65581">
        <ele>1889.1</ele>
        <time>2018-11-24T23:53:41Z</time>
      </trkpt>
      <trkpt lat="42.79388" lon="0.65579">
        <ele>1889.4</ele>
        <time>2018-11-24T23:53:42Z</time>
      </trkpt>
      <trkpt lat="42.79387" lon="0.65577">
        <ele>1889.9</ele>
        <time>2018-11-24T23:53:43Z</time>
      </trkpt>
      <trkpt lat="42.79386" lon="0.65574">
        <ele>1889.3</ele>
        <time>2018-11-24T23:53:44Z</time>
      </trkpt>
      <trkpt lat="42.79385" lon="0.65571">
        <ele>1888.7</ele>
        <time>2018-11-24T23:53:45Z</time>
      </trkpt>
      <trkpt lat="42.79384" lon="0.65569">
        <ele>1888</ele>
        <time>2018-11-24T23:53:46Z</time>
      </trkpt>
      <trkpt lat="42.79383" lon="0.65565">
        <ele>1887</ele>
        <time>2018-11-24T23:53:47Z</time>
      </trkpt>
      <trkpt lat="42.79382" lon="0.65563">
        <ele>1886.6</ele>
        <time>2018-11-24T23:53:48Z</time>
      </trkpt>
      <trkpt lat="42.79381" lon="0.6556">
        <ele>1885.9</ele>
        <time>2018-11-24T23:53:48Z</time>
      </trkpt>
      <trkpt lat="42.7938" lon="0.65557">
        <ele>1885.4</ele>
        <time>2018-11-24T23:53:49Z</time>
      </trkpt>
      <trkpt lat="42.79379" lon="0.65555">
        <ele>1884.8</ele>
        <time>2018-11-24T23:53:50Z</time>
      </trkpt>
      <trkpt lat="42.79379" lon="0.65552">
        <ele>1884.1</ele>
        <time>2018-11-24T23:53:51Z</time>
      </trkpt>
      <trkpt lat="42.79379" lon="0.65549">
        <ele>1883.5</ele>
        <time>2018-11-24T23:53:52Z</time>
      </trkpt>
      <trkpt lat="42.79379" lon="0.65547">
        <ele>1882.8</ele>
        <time>2018-11-24T23:53:53Z</time>
      </trkpt>
      <trkpt lat="42.79378" lon="0.65544">
        <ele>1882.3</ele>
        <time>2018-11-24T23:53:54Z</time>
      </trkpt>
      <trkpt lat="42.79377" lon="0.65542">
        <ele>1881.8</ele>
        <time>2018-11-24T23:53:54Z</time>
      </trkpt>
      <trkpt lat="42.79375" lon="0.65538">
        <ele>1879</ele>
        <time>2018-11-24T23:53:56Z</time>
      </trkpt>
      <trkpt lat="42.79374" lon="0.65534">
        <ele>1880</ele>
        <time>2018-11-24T23:53:57Z</time>
      </trkpt>
      <trkpt lat="42.79372" lon="0.65531">
        <ele>1879.3</ele>
        <time>2018-11-24T23:53:58Z</time>
      </trkpt>
      <trkpt lat="42.79371" lon="0.65529">
        <ele>1878.7</ele>
        <time>2018-11-24T23:53:59Z</time>
      </trkpt>
      <trkpt lat="42.79369" lon="0.65527">
        <ele>1878.3</ele>
        <time>2018-11-24T23:54:00Z</time>
      </trkpt>
      <trkpt lat="42.79366" lon="0.65526">
        <ele>1877.9</ele>
        <time>2018-11-24T23:54:01Z</time>
      </trkpt>
      <trkpt lat="42.79364" lon="0.65525">
        <ele>1877.4</ele>
        <time>2018-11-24T23:54:02Z</time>
      </trkpt>
      <trkpt lat="42.79362" lon="0.65524">
        <ele>1876.9</ele>
        <time>2018-11-24T23:54:03Z</time>
      </trkpt>
      <trkpt lat="42.7936" lon="0.65523">
        <ele>1876.8</ele>
        <time>2018-11-24T23:54:03Z</time>
      </trkpt>
      <trkpt lat="42.79358" lon="0.65524">
        <ele>1876.7</ele>
        <time>2018-11-24T23:54:04Z</time>
      </trkpt>
      <trkpt lat="42.79356" lon="0.65524">
        <ele>1876.6</ele>
        <time>2018-11-24T23:54:05Z</time>
      </trkpt>
      <trkpt lat="42.79354" lon="0.65524">
        <ele>1876.4</ele>
        <time>2018-11-24T23:54:06Z</time>
      </trkpt>
      <trkpt lat="42.79351" lon="0.65526">
        <ele>1876.2</ele>
        <time>2018-11-24T23:54:07Z</time>
      </trkpt>
      <trkpt lat="42.79348" lon="0.65526">
        <ele>1875.9</ele>
        <time>2018-11-24T23:54:08Z</time>
      </trkpt>
      <trkpt lat="42.79346" lon="0.65527">
        <ele>1875.6</ele>
        <time>2018-11-24T23:54:09Z</time>
      </trkpt>
      <trkpt lat="42.79344" lon="0.65527">
        <ele>1875.2</ele>
        <time>2018-11-24T23:54:10Z</time>
      </trkpt>
      <trkpt lat="42.79341" lon="0.65526">
        <ele>1874.4</ele>
        <time>2018-11-24T23:54:11Z</time>
      </trkpt>
      <trkpt lat="42.79339" lon="0.65525">
        <ele>1873.3</ele>
        <time>2018-11-24T23:54:12Z</time>
      </trkpt>
      <trkpt lat="42.79336" lon="0.65525">
        <ele>1872.6</ele>
        <time>2018-11-24T23:54:14Z</time>
      </trkpt>
      <trkpt lat="42.79333" lon="0.65523">
        <ele>1871.6</ele>
        <time>2018-11-24T23:54:15Z</time>
      </trkpt>
      <trkpt lat="42.79332" lon="0.65521">
        <ele>1869.2</ele>
        <time>2018-11-24T23:54:15Z</time>
      </trkpt>
      <trkpt lat="42.7933" lon="0.65519">
        <ele>1869.9</ele>
        <time>2018-11-24T23:54:16Z</time>
      </trkpt>
      <trkpt lat="42.79327" lon="0.65516">
        <ele>1868.4</ele>
        <time>2018-11-24T23:54:18Z</time>
      </trkpt>
      <trkpt lat="42.79325" lon="0.65514">
        <ele>1867.3</ele>
        <time>2018-11-24T23:54:19Z</time>
      </trkpt>
      <trkpt lat="42.79323" lon="0.65512">
        <ele>1866.2</ele>
        <time>2018-11-24T23:54:20Z</time>
      </trkpt>
      <trkpt lat="42.79321" lon="0.65508">
        <ele>1864.8</ele>
        <time>2018-11-24T23:54:21Z</time>
      </trkpt>
      <trkpt lat="42.79319" lon="0.65505">
        <ele>1863.4</ele>
        <time>2018-11-24T23:54:22Z</time>
      </trkpt>
      <trkpt lat="42.79318" lon="0.65502">
        <ele>1862.2</ele>
        <time>2018-11-24T23:54:24Z</time>
      </trkpt>
      <trkpt lat="42.79315" lon="0.65499">
        <ele>1860.8</ele>
        <time>2018-11-24T23:54:25Z</time>
      </trkpt>
      <trkpt lat="42.79313" lon="0.65497">
        <ele>1859.4</ele>
        <time>2018-11-24T23:54:26Z</time>
      </trkpt>
      <trkpt lat="42.7931" lon="0.65495">
        <ele>1858</ele>
        <time>2018-11-24T23:54:27Z</time>
      </trkpt>
      <trkpt lat="42.79307" lon="0.65492">
        <ele>1856.3</ele>
        <time>2018-11-24T23:54:29Z</time>
      </trkpt>
      <trkpt lat="42.79306" lon="0.6549">
        <ele>1855.3</ele>
        <time>2018-11-24T23:54:29Z</time>
      </trkpt>
      <trkpt lat="42.79304" lon="0.65488">
        <ele>1854.3</ele>
        <time>2018-11-24T23:54:30Z</time>
      </trkpt>
      <trkpt lat="42.79302" lon="0.65487">
        <ele>1853.4</ele>
        <time>2018-11-24T23:54:31Z</time>
      </trkpt>
      <trkpt lat="42.793" lon="0.65486">
        <ele>1852.2</ele>
        <time>2018-11-24T23:54:32Z</time>
      </trkpt>
      <trkpt lat="42.79296" lon="0.65484">
        <ele>1850.5</ele>
        <time>2018-11-24T23:54:34Z</time>
      </trkpt>
      <trkpt lat="42.79294" lon="0.65485">
        <ele>1850.2</ele>
        <time>2018-11-24T23:54:35Z</time>
      </trkpt>
      <trkpt lat="42.79292" lon="0.65487">
        <ele>1849.7</ele>
        <time>2018-11-24T23:54:35Z</time>
      </trkpt>
      <trkpt lat="42.79289" lon="0.65487">
        <ele>1848.7</ele>
        <time>2018-11-24T23:54:37Z</time>
      </trkpt>
      <trkpt lat="42.79286" lon="0.65487">
        <ele>1847.4</ele>
        <time>2018-11-24T23:54:38Z</time>
      </trkpt>
      <trkpt lat="42.79284" lon="0.65487">
        <ele>1846.2</ele>
        <time>2018-11-24T23:54:39Z</time>
      </trkpt>
      <trkpt lat="42.79281" lon="0.65486">
        <ele>1845.2</ele>
        <time>2018-11-24T23:54:40Z</time>
      </trkpt>
      <trkpt lat="42.79279" lon="0.65486">
        <ele>1844.1</ele>
        <time>2018-11-24T23:54:41Z</time>
      </trkpt>
      <trkpt lat="42.79277" lon="0.65485">
        <ele>1843.2</ele>
        <time>2018-11-24T23:54:42Z</time>
      </trkpt>
      <trkpt lat="42.79275" lon="0.65483">
        <ele>1842.1</ele>
        <time>2018-11-24T23:54:43Z</time>
      </trkpt>
      <trkpt lat="42.79274" lon="0.6548">
        <ele>1841.2</ele>
        <time>2018-11-24T23:54:43Z</time>
      </trkpt>
      <trkpt lat="42.79273" lon="0.65478">
        <ele>1840.4</ele>
        <time>2018-11-24T23:54:44Z</time>
      </trkpt>
      <trkpt lat="42.79271" lon="0.65477">
        <ele>1839.2</ele>
        <time>2018-11-24T23:54:45Z</time>
      </trkpt>
      <trkpt lat="42.79269" lon="0.65476">
        <ele>1838.2</ele>
        <time>2018-11-24T23:54:46Z</time>
      </trkpt>
      <trkpt lat="42.79266" lon="0.65475">
        <ele>1837.2</ele>
        <time>2018-11-24T23:54:47Z</time>
      </trkpt>
      <trkpt lat="42.79265" lon="0.65472">
        <ele>1836.4</ele>
        <time>2018-11-24T23:54:48Z</time>
      </trkpt>
      <trkpt lat="42.79264" lon="0.6547">
        <ele>1835.7</ele>
        <time>2018-11-24T23:54:49Z</time>
      </trkpt>
      <trkpt lat="42.79263" lon="0.65468">
        <ele>1835</ele>
        <time>2018-11-24T23:54:50Z</time>
      </trkpt>
      <trkpt lat="42.79261" lon="0.65469">
        <ele>1834.1</ele>
        <time>2018-11-24T23:54:50Z</time>
      </trkpt>
      <trkpt lat="42.79259" lon="0.65468">
        <ele>1833.2</ele>
        <time>2018-11-24T23:54:51Z</time>
      </trkpt>
      <trkpt lat="42.79258" lon="0.6547">
        <ele>1833.1</ele>
        <time>2018-11-24T23:54:52Z</time>
      </trkpt>
      <trkpt lat="42.79256" lon="0.65473">
        <ele>1832.7</ele>
        <time>2018-11-24T23:54:53Z</time>
      </trkpt>
      <trkpt lat="42.79255" lon="0.65476">
        <ele>1832.5</ele>
        <time>2018-11-24T23:54:54Z</time>
      </trkpt>
      <trkpt lat="42.79254" lon="0.65479">
        <ele>1832.6</ele>
        <time>2018-11-24T23:54:55Z</time>
      </trkpt>
      <trkpt lat="42.79254" lon="0.65482">
        <ele>1832.5</ele>
        <time>2018-11-24T23:54:56Z</time>
      </trkpt>
      <trkpt lat="42.79251" lon="0.65481">
        <ele>1831.4</ele>
        <time>2018-11-24T23:54:57Z</time>
      </trkpt>
      <trkpt lat="42.7925" lon="0.65477">
        <ele>1830.6</ele>
        <time>2018-11-24T23:54:58Z</time>
      </trkpt>
      <trkpt lat="42.79249" lon="0.65474">
        <ele>1829.8</ele>
        <time>2018-11-24T23:54:59Z</time>
      </trkpt>
      <trkpt lat="42.79247" lon="0.65472">
        <ele>1828.8</ele>
        <time>2018-11-24T23:55:00Z</time>
      </trkpt>
      <trkpt lat="42.79245" lon="0.6547">
        <ele>1828</ele>
        <time>2018-11-24T23:55:01Z</time>
      </trkpt>
      <trkpt lat="42.79243" lon="0.65467">
        <ele>1827.1</ele>
        <time>2018-11-24T23:55:02Z</time>
      </trkpt>
      <trkpt lat="42.79241" lon="0.65466">
        <ele>1826</ele>
        <time>2018-11-24T23:55:03Z</time>
      </trkpt>
      <trkpt lat="42.79239" lon="0.65463">
        <ele>1824.9</ele>
        <time>2018-11-24T23:55:04Z</time>
      </trkpt>
      <trkpt lat="42.79236" lon="0.6546">
        <ele>1823.6</ele>
        <time>2018-11-24T23:55:06Z</time>
      </trkpt>
      <trkpt lat="42.79234" lon="0.65457">
        <ele>1822.4</ele>
        <time>2018-11-24T23:55:07Z</time>
      </trkpt>
      <trkpt lat="42.79232" lon="0.65456">
        <ele>1821.8</ele>
        <time>2018-11-24T23:55:08Z</time>
      </trkpt>
      <trkpt lat="42.79229" lon="0.65453">
        <ele>1820.5</ele>
        <time>2018-11-24T23:55:09Z</time>
      </trkpt>
      <trkpt lat="42.79227" lon="0.65451">
        <ele>1819.2</ele>
        <time>2018-11-24T23:55:11Z</time>
      </trkpt>
      <trkpt lat="42.79224" lon="0.65449">
        <ele>1818</ele>
        <time>2018-11-24T23:55:12Z</time>
      </trkpt>
      <trkpt lat="42.79221" lon="0.65447">
        <ele>1816.9</ele>
        <time>2018-11-24T23:55:13Z</time>
      </trkpt>
      <trkpt lat="42.79218" lon="0.65444">
        <ele>1815.8</ele>
        <time>2018-11-24T23:55:15Z</time>
      </trkpt>
      <trkpt lat="42.79215" lon="0.65442">
        <ele>1814.7</ele>
        <time>2018-11-24T23:55:16Z</time>
      </trkpt>
      <trkpt lat="42.79214" lon="0.6544">
        <ele>1814.1</ele>
        <time>2018-11-24T23:55:17Z</time>
      </trkpt>
      <trkpt lat="42.79212" lon="0.65438">
        <ele>1813.5</ele>
        <time>2018-11-24T23:55:18Z</time>
      </trkpt>
      <trkpt lat="42.79211" lon="0.65436">
        <ele>1812.8</ele>
        <time>2018-11-24T23:55:18Z</time>
      </trkpt>
      <trkpt lat="42.79208" lon="0.65433">
        <ele>1811.8</ele>
        <time>2018-11-24T23:55:20Z</time>
      </trkpt>
      <trkpt lat="42.79206" lon="0.65431">
        <ele>1810.8</ele>
        <time>2018-11-24T23:55:21Z</time>
      </trkpt>
      <trkpt lat="42.79203" lon="0.65429">
        <ele>1810.3</ele>
        <time>2018-11-24T23:55:22Z</time>
      </trkpt>
      <trkpt lat="42.79201" lon="0.65425">
        <ele>1808.8</ele>
        <time>2018-11-24T23:55:24Z</time>
      </trkpt>
      <trkpt lat="42.79199" lon="0.65422">
        <ele>1808.2</ele>
        <time>2018-11-24T23:55:25Z</time>
      </trkpt>
      <trkpt lat="42.79196" lon="0.65421">
        <ele>1807.5</ele>
        <time>2018-11-24T23:55:26Z</time>
      </trkpt>
      <trkpt lat="42.79194" lon="0.6542">
        <ele>1806.8</ele>
        <time>2018-11-24T23:55:27Z</time>
      </trkpt>
      <trkpt lat="42.79192" lon="0.65419">
        <ele>1806.3</ele>
        <time>2018-11-24T23:55:28Z</time>
      </trkpt>
      <trkpt lat="42.7919" lon="0.65418">
        <ele>1805.8</ele>
        <time>2018-11-24T23:55:28Z</time>
      </trkpt>
      <trkpt lat="42.79188" lon="0.65416">
        <ele>1805.3</ele>
        <time>2018-11-24T23:55:29Z</time>
      </trkpt>
      <trkpt lat="42.79186" lon="0.65415">
        <ele>1804.6</ele>
        <time>2018-11-24T23:55:30Z</time>
      </trkpt>
      <trkpt lat="42.79184" lon="0.65414">
        <ele>1804</ele>
        <time>2018-11-24T23:55:31Z</time>
      </trkpt>
      <trkpt lat="42.79182" lon="0.65412">
        <ele>1803.5</ele>
        <time>2018-11-24T23:55:32Z</time>
      </trkpt>
      <trkpt lat="42.79181" lon="0.6541">
        <ele>1803.1</ele>
        <time>2018-11-24T23:55:33Z</time>
      </trkpt>
      <trkpt lat="42.79179" lon="0.65408">
        <ele>1802.7</ele>
        <time>2018-11-24T23:55:34Z</time>
      </trkpt>
      <trkpt lat="42.79177" lon="0.65406">
        <ele>1802.1</ele>
        <time>2018-11-24T23:55:35Z</time>
      </trkpt>
      <trkpt lat="42.79175" lon="0.65405">
        <ele>1801.5</ele>
        <time>2018-11-24T23:55:36Z</time>
      </trkpt>
      <trkpt lat="42.79173" lon="0.65405">
        <ele>1801</ele>
        <time>2018-11-24T23:55:36Z</time>
      </trkpt>
      <trkpt lat="42.79171" lon="0.65404">
        <ele>1800.4</ele>
        <time>2018-11-24T23:55:37Z</time>
      </trkpt>
      <trkpt lat="42.79169" lon="0.65404">
        <ele>1799.8</ele>
        <time>2018-11-24T23:55:38Z</time>
      </trkpt>
      <trkpt lat="42.79167" lon="0.65403">
        <ele>1799.3</ele>
        <time>2018-11-24T23:55:39Z</time>
      </trkpt>
      <trkpt lat="42.79165" lon="0.65403">
        <ele>1798.9</ele>
        <time>2018-11-24T23:55:40Z</time>
      </trkpt>
      <trkpt lat="42.79163" lon="0.65402">
        <ele>1798.3</ele>
        <time>2018-11-24T23:55:41Z</time>
      </trkpt>
      <trkpt lat="42.7916" lon="0.65401">
        <ele>1797.7</ele>
        <time>2018-11-24T23:55:42Z</time>
      </trkpt>
      <trkpt lat="42.79157" lon="0.654">
        <ele>1796.9</ele>
        <time>2018-11-24T23:55:43Z</time>
      </trkpt>
      <trkpt lat="42.79153" lon="0.65397">
        <ele>1796.3</ele>
        <time>2018-11-24T23:55:45Z</time>
      </trkpt>
      <trkpt lat="42.79152" lon="0.65396">
        <ele>1796.1</ele>
        <time>2018-11-24T23:55:46Z</time>
      </trkpt>
      <trkpt lat="42.79149" lon="0.65392">
        <ele>1795.7</ele>
        <time>2018-11-24T23:55:47Z</time>
      </trkpt>
      <trkpt lat="42.79147" lon="0.6539">
        <ele>1795.5</ele>
        <time>2018-11-24T23:55:48Z</time>
      </trkpt>
      <trkpt lat="42.79146" lon="0.65389">
        <ele>1795.2</ele>
        <time>2018-11-24T23:55:49Z</time>
      </trkpt>
      <trkpt lat="42.79144" lon="0.65387">
        <ele>1795.1</ele>
        <time>2018-11-24T23:55:49Z</time>
      </trkpt>
      <trkpt lat="42.79142" lon="0.65384">
        <ele>1794.8</ele>
        <time>2018-11-24T23:55:51Z</time>
      </trkpt>
      <trkpt lat="42.79141" lon="0.65382">
        <ele>1794.7</ele>
        <time>2018-11-24T23:55:51Z</time>
      </trkpt>
      <trkpt lat="42.79139" lon="0.6538">
        <ele>1794.6</ele>
        <time>2018-11-24T23:55:52Z</time>
      </trkpt>
      <trkpt lat="42.79137" lon="0.65378">
        <ele>1794.3</ele>
        <time>2018-11-24T23:55:53Z</time>
      </trkpt>
      <trkpt lat="42.79135" lon="0.65376">
        <ele>1794.1</ele>
        <time>2018-11-24T23:55:54Z</time>
      </trkpt>
      <trkpt lat="42.79133" lon="0.65375">
        <ele>1794</ele>
        <time>2018-11-24T23:55:55Z</time>
      </trkpt>
      <trkpt lat="42.79132" lon="0.65374">
        <ele>1793.8</ele>
        <time>2018-11-24T23:55:56Z</time>
      </trkpt>
      <trkpt lat="42.7913" lon="0.65373">
        <ele>1793.8</ele>
        <time>2018-11-24T23:55:57Z</time>
      </trkpt>
      <trkpt lat="42.79128" lon="0.65371">
        <ele>1793.7</ele>
        <time>2018-11-24T23:55:57Z</time>
      </trkpt>
      <trkpt lat="42.79127" lon="0.65369">
        <ele>1793.4</ele>
        <time>2018-11-24T23:55:58Z</time>
      </trkpt>
      <trkpt lat="42.79124" lon="0.65367">
        <ele>1793.2</ele>
        <time>2018-11-24T23:55:59Z</time>
      </trkpt>
      <trkpt lat="42.79122" lon="0.65366">
        <ele>1786.9</ele>
        <time>2018-11-24T23:56:00Z</time>
      </trkpt>
      <trkpt lat="42.79119" lon="0.65364">
        <ele>1787.1</ele>
        <time>2018-11-24T23:56:01Z</time>
      </trkpt>
      <trkpt lat="42.79117" lon="0.65363">
        <ele>1787.1</ele>
        <time>2018-11-24T23:56:02Z</time>
      </trkpt>
      <trkpt lat="42.79115" lon="0.65362">
        <ele>1787.1</ele>
        <time>2018-11-24T23:56:03Z</time>
      </trkpt>
      <trkpt lat="42.79113" lon="0.6536">
        <ele>1787.3</ele>
        <time>2018-11-24T23:56:05Z</time>
      </trkpt>
      <trkpt lat="42.79111" lon="0.65359">
        <ele>1787.4</ele>
        <time>2018-11-24T23:56:05Z</time>
      </trkpt>
      <trkpt lat="42.79108" lon="0.65357">
        <ele>1787.4</ele>
        <time>2018-11-24T23:56:07Z</time>
      </trkpt>
      <trkpt lat="42.79106" lon="0.65356">
        <ele>1787.5</ele>
        <time>2018-11-24T23:56:07Z</time>
      </trkpt>
      <trkpt lat="42.79104" lon="0.65355">
        <ele>1787.7</ele>
        <time>2018-11-24T23:56:08Z</time>
      </trkpt>
      <trkpt lat="42.79102" lon="0.65354">
        <ele>1787.8</ele>
        <time>2018-11-24T23:56:09Z</time>
      </trkpt>
      <trkpt lat="42.791" lon="0.65353">
        <ele>1787.8</ele>
        <time>2018-11-24T23:56:10Z</time>
      </trkpt>
      <trkpt lat="42.79099" lon="0.65352">
        <ele>1788</ele>
        <time>2018-11-24T23:56:11Z</time>
      </trkpt>
      <trkpt lat="42.79096" lon="0.65351">
        <ele>1788.1</ele>
        <time>2018-11-24T23:56:12Z</time>
      </trkpt>
      <trkpt lat="42.79093" lon="0.65349">
        <ele>1788.4</ele>
        <time>2018-11-24T23:56:13Z</time>
      </trkpt>
      <trkpt lat="42.7909" lon="0.65349">
        <ele>1788.8</ele>
        <time>2018-11-24T23:56:14Z</time>
      </trkpt>
      <trkpt lat="42.79088" lon="0.65349">
        <ele>1789</ele>
        <time>2018-11-24T23:56:15Z</time>
      </trkpt>
      <trkpt lat="42.79086" lon="0.65349">
        <ele>1789</ele>
        <time>2018-11-24T23:56:16Z</time>
      </trkpt>
      <trkpt lat="42.79083" lon="0.6535">
        <ele>1789.3</ele>
        <time>2018-11-24T23:56:17Z</time>
      </trkpt>
      <trkpt lat="42.79081" lon="0.6535">
        <ele>1789.7</ele>
        <time>2018-11-24T23:56:18Z</time>
      </trkpt>
      <trkpt lat="42.79079" lon="0.65349">
        <ele>1789.8</ele>
        <time>2018-11-24T23:56:19Z</time>
      </trkpt>
      <trkpt lat="42.79076" lon="0.65349">
        <ele>1789.4</ele>
        <time>2018-11-24T23:56:20Z</time>
      </trkpt>
      <trkpt lat="42.79074" lon="0.65349">
        <ele>1789</ele>
        <time>2018-11-24T23:56:21Z</time>
      </trkpt>
      <trkpt lat="42.79072" lon="0.65348">
        <ele>1788.6</ele>
        <time>2018-11-24T23:56:22Z</time>
      </trkpt>
      <trkpt lat="42.7907" lon="0.65347">
        <ele>1788.2</ele>
        <time>2018-11-24T23:56:22Z</time>
      </trkpt>
      <trkpt lat="42.79068" lon="0.65346">
        <ele>1787.8</ele>
        <time>2018-11-24T23:56:23Z</time>
      </trkpt>
      <trkpt lat="42.79065" lon="0.65345">
        <ele>1787.5</ele>
        <time>2018-11-24T23:56:24Z</time>
      </trkpt>
      <trkpt lat="42.79063" lon="0.65345">
        <ele>1787.2</ele>
        <time>2018-11-24T23:56:25Z</time>
      </trkpt>
      <trkpt lat="42.79061" lon="0.65344">
        <ele>1786.8</ele>
        <time>2018-11-24T23:56:26Z</time>
      </trkpt>
      <trkpt lat="42.79059" lon="0.65344">
        <ele>1786.6</ele>
        <time>2018-11-24T23:56:27Z</time>
      </trkpt>
      <trkpt lat="42.79057" lon="0.65344">
        <ele>1786.5</ele>
        <time>2018-11-24T23:56:27Z</time>
      </trkpt>
      <trkpt lat="42.79055" lon="0.65343">
        <ele>1786.1</ele>
        <time>2018-11-24T23:56:28Z</time>
      </trkpt>
      <trkpt lat="42.79053" lon="0.65343">
        <ele>1785.9</ele>
        <time>2018-11-24T23:56:29Z</time>
      </trkpt>
      <trkpt lat="42.79051" lon="0.65343">
        <ele>1785.8</ele>
        <time>2018-11-24T23:56:30Z</time>
      </trkpt>
      <trkpt lat="42.7905" lon="0.65343">
        <ele>1785.6</ele>
        <time>2018-11-24T23:56:31Z</time>
      </trkpt>
      <trkpt lat="42.79047" lon="0.65346">
        <ele>1785.3</ele>
        <time>2018-11-24T23:56:32Z</time>
      </trkpt>
      <trkpt lat="42.79045" lon="0.65348">
        <ele>1784.9</ele>
        <time>2018-11-24T23:56:33Z</time>
      </trkpt>
      <trkpt lat="42.79043" lon="0.65348">
        <ele>1784.6</ele>
        <time>2018-11-24T23:56:34Z</time>
      </trkpt>
      <trkpt lat="42.7904" lon="0.65347">
        <ele>1784.4</ele>
        <time>2018-11-24T23:56:35Z</time>
      </trkpt>
      <trkpt lat="42.79037" lon="0.65348">
        <ele>1784.2</ele>
        <time>2018-11-24T23:56:36Z</time>
      </trkpt>
      <trkpt lat="42.79036" lon="0.65352">
        <ele>1783.9</ele>
        <time>2018-11-24T23:56:37Z</time>
      </trkpt>
      <trkpt lat="42.79034" lon="0.65355">
        <ele>1776.6</ele>
        <time>2018-11-24T23:56:39Z</time>
      </trkpt>
      <trkpt lat="42.79031" lon="0.65358">
        <ele>1776.8</ele>
        <time>2018-11-24T23:56:40Z</time>
      </trkpt>
      <trkpt lat="42.79028" lon="0.6536">
        <ele>1776.9</ele>
        <time>2018-11-24T23:56:41Z</time>
      </trkpt>
      <trkpt lat="42.79026" lon="0.65361">
        <ele>1777</ele>
        <time>2018-11-24T23:56:42Z</time>
      </trkpt>
      <trkpt lat="42.79024" lon="0.65363">
        <ele>1777.3</ele>
        <time>2018-11-24T23:56:43Z</time>
      </trkpt>
      <trkpt lat="42.79021" lon="0.65365">
        <ele>1777.5</ele>
        <time>2018-11-24T23:56:45Z</time>
      </trkpt>
      <trkpt lat="42.79018" lon="0.65366">
        <ele>1777.7</ele>
        <time>2018-11-24T23:56:46Z</time>
      </trkpt>
      <trkpt lat="42.79014" lon="0.65365">
        <ele>1777.7</ele>
        <time>2018-11-24T23:56:47Z</time>
      </trkpt>
      <trkpt lat="42.79011" lon="0.65364">
        <ele>1777.8</ele>
        <time>2018-11-24T23:56:48Z</time>
      </trkpt>
      <trkpt lat="42.79008" lon="0.65363">
        <ele>1778</ele>
        <time>2018-11-24T23:56:50Z</time>
      </trkpt>
      <trkpt lat="42.79006" lon="0.65363">
        <ele>1778</ele>
        <time>2018-11-24T23:56:51Z</time>
      </trkpt>
      <trkpt lat="42.79004" lon="0.65363">
        <ele>1778.2</ele>
        <time>2018-11-24T23:56:51Z</time>
      </trkpt>
      <trkpt lat="42.79002" lon="0.65362">
        <ele>1778.2</ele>
        <time>2018-11-24T23:56:52Z</time>
      </trkpt>
      <trkpt lat="42.79" lon="0.65362">
        <ele>1778.3</ele>
        <time>2018-11-24T23:56:53Z</time>
      </trkpt>
      <trkpt lat="42.78998" lon="0.65361">
        <ele>1778.3</ele>
        <time>2018-11-24T23:56:54Z</time>
      </trkpt>
      <trkpt lat="42.78995" lon="0.65361">
        <ele>1778.4</ele>
        <time>2018-11-24T23:56:55Z</time>
      </trkpt>
      <trkpt lat="42.78992" lon="0.65361">
        <ele>1778.6</ele>
        <time>2018-11-24T23:56:56Z</time>
      </trkpt>
      <trkpt lat="42.7899" lon="0.65361">
        <ele>1778.9</ele>
        <time>2018-11-24T23:56:57Z</time>
      </trkpt>
      <trkpt lat="42.78988" lon="0.65361">
        <ele>1779.2</ele>
        <time>2018-11-24T23:56:58Z</time>
      </trkpt>
      <trkpt lat="42.78985" lon="0.65361">
        <ele>1779.3</ele>
        <time>2018-11-24T23:56:59Z</time>
      </trkpt>
      <trkpt lat="42.78983" lon="0.6536">
        <ele>1779.3</ele>
        <time>2018-11-24T23:57:00Z</time>
      </trkpt>
      <trkpt lat="42.78981" lon="0.65359">
        <ele>1779.2</ele>
        <time>2018-11-24T23:57:01Z</time>
      </trkpt>
      <trkpt lat="42.78979" lon="0.65357">
        <ele>1778.9</ele>
        <time>2018-11-24T23:57:02Z</time>
      </trkpt>
      <trkpt lat="42.78977" lon="0.65355">
        <ele>1778.7</ele>
        <time>2018-11-24T23:57:03Z</time>
      </trkpt>
      <trkpt lat="42.78976" lon="0.65354">
        <ele>1778.7</ele>
        <time>2018-11-24T23:57:03Z</time>
      </trkpt>
      <trkpt lat="42.78974" lon="0.65354">
        <ele>1778.6</ele>
        <time>2018-11-24T23:57:04Z</time>
      </trkpt>
      <trkpt lat="42.78972" lon="0.65352">
        <ele>1778.4</ele>
        <time>2018-11-24T23:57:05Z</time>
      </trkpt>
      <trkpt lat="42.7897" lon="0.6535">
        <ele>1778.3</ele>
        <time>2018-11-24T23:57:06Z</time>
      </trkpt>
      <trkpt lat="42.78969" lon="0.65349">
        <ele>1778.2</ele>
        <time>2018-11-24T23:57:07Z</time>
      </trkpt>
      <trkpt lat="42.78966" lon="0.65348">
        <ele>1778.1</ele>
        <time>2018-11-24T23:57:08Z</time>
      </trkpt>
      <trkpt lat="42.78964" lon="0.65346">
        <ele>1778.1</ele>
        <time>2018-11-24T23:57:09Z</time>
      </trkpt>
      <trkpt lat="42.78962" lon="0.65346">
        <ele>1778</ele>
        <time>2018-11-24T23:57:10Z</time>
      </trkpt>
      <trkpt lat="42.7896" lon="0.65345">
        <ele>1778</ele>
        <time>2018-11-24T23:57:10Z</time>
      </trkpt>
      <trkpt lat="42.78958" lon="0.65344">
        <ele>1777.8</ele>
        <time>2018-11-24T23:57:11Z</time>
      </trkpt>
      <trkpt lat="42.78956" lon="0.65343">
        <ele>1777.8</ele>
        <time>2018-11-24T23:57:12Z</time>
      </trkpt>
      <trkpt lat="42.78954" lon="0.65342">
        <ele>1777.7</ele>
        <time>2018-11-24T23:57:13Z</time>
      </trkpt>
      <trkpt lat="42.78952" lon="0.6534">
        <ele>1777.5</ele>
        <time>2018-11-24T23:57:14Z</time>
      </trkpt>
      <trkpt lat="42.7895" lon="0.65338">
        <ele>1777.5</ele>
        <time>2018-11-24T23:57:15Z</time>
      </trkpt>
      <trkpt lat="42.78948" lon="0.65337">
        <ele>1777.3</ele>
        <time>2018-11-24T23:57:16Z</time>
      </trkpt>
      <trkpt lat="42.78947" lon="0.65335">
        <ele>1777.2</ele>
        <time>2018-11-24T23:57:17Z</time>
      </trkpt>
      <trkpt lat="42.78945" lon="0.65333">
        <ele>1777.1</ele>
        <time>2018-11-24T23:57:17Z</time>
      </trkpt>
      <trkpt lat="42.78943" lon="0.65331">
        <ele>1777</ele>
        <time>2018-11-24T23:57:18Z</time>
      </trkpt>
      <trkpt lat="42.78941" lon="0.6533">
        <ele>1776.9</ele>
        <time>2018-11-24T23:57:19Z</time>
      </trkpt>
      <trkpt lat="42.78939" lon="0.65329">
        <ele>1776.9</ele>
        <time>2018-11-24T23:57:20Z</time>
      </trkpt>
      <trkpt lat="42.78937" lon="0.65327">
        <ele>1776.9</ele>
        <time>2018-11-24T23:57:21Z</time>
      </trkpt>
      <trkpt lat="42.78935" lon="0.65326">
        <ele>1776.8</ele>
        <time>2018-11-24T23:57:22Z</time>
      </trkpt>
      <trkpt lat="42.78933" lon="0.65325">
        <ele>1776.7</ele>
        <time>2018-11-24T23:57:23Z</time>
      </trkpt>
      <trkpt lat="42.78931" lon="0.65324">
        <ele>1783.5</ele>
        <time>2018-11-24T23:57:24Z</time>
      </trkpt>
      <trkpt lat="42.78929" lon="0.65323">
        <ele>1783.6</ele>
        <time>2018-11-24T23:57:25Z</time>
      </trkpt>
      <trkpt lat="42.78926" lon="0.65321">
        <ele>1783.8</ele>
        <time>2018-11-24T23:57:26Z</time>
      </trkpt>
      <trkpt lat="42.78924" lon="0.6532">
        <ele>1784.1</ele>
        <time>2018-11-24T23:57:27Z</time>
      </trkpt>
      <trkpt lat="42.78923" lon="0.65318">
        <ele>1784.3</ele>
        <time>2018-11-24T23:57:27Z</time>
      </trkpt>
      <trkpt lat="42.78921" lon="0.65316">
        <ele>1784.6</ele>
        <time>2018-11-24T23:57:28Z</time>
      </trkpt>
      <trkpt lat="42.78919" lon="0.65315">
        <ele>1785</ele>
        <time>2018-11-24T23:57:29Z</time>
      </trkpt>
      <trkpt lat="42.78917" lon="0.65314">
        <ele>1785.2</ele>
        <time>2018-11-24T23:57:30Z</time>
      </trkpt>
      <trkpt lat="42.78915" lon="0.65313">
        <ele>1785.6</ele>
        <time>2018-11-24T23:57:31Z</time>
      </trkpt>
      <trkpt lat="42.78912" lon="0.65312">
        <ele>1785.8</ele>
        <time>2018-11-24T23:57:32Z</time>
      </trkpt>
      <trkpt lat="42.7891" lon="0.65311">
        <ele>1786.1</ele>
        <time>2018-11-24T23:57:33Z</time>
      </trkpt>
      <trkpt lat="42.78908" lon="0.65309">
        <ele>1786.6</ele>
        <time>2018-11-24T23:57:34Z</time>
      </trkpt>
      <trkpt lat="42.78906" lon="0.65308">
        <ele>1786.9</ele>
        <time>2018-11-24T23:57:35Z</time>
      </trkpt>
      <trkpt lat="42.78904" lon="0.65306">
        <ele>1787.3</ele>
        <time>2018-11-24T23:57:36Z</time>
      </trkpt>
      <trkpt lat="42.78901" lon="0.65305">
        <ele>1787.9</ele>
        <time>2018-11-24T23:57:37Z</time>
      </trkpt>
      <trkpt lat="42.789" lon="0.65303">
        <ele>1788.2</ele>
        <time>2018-11-24T23:57:38Z</time>
      </trkpt>
      <trkpt lat="42.78898" lon="0.65302">
        <ele>1788.6</ele>
        <time>2018-11-24T23:57:38Z</time>
      </trkpt>
      <trkpt lat="42.78896" lon="0.65301">
        <ele>1789.1</ele>
        <time>2018-11-24T23:57:39Z</time>
      </trkpt>
      <trkpt lat="42.78893" lon="0.653">
        <ele>1789.7</ele>
        <time>2018-11-24T23:57:40Z</time>
      </trkpt>
      <trkpt lat="42.78891" lon="0.65299">
        <ele>1790</ele>
        <time>2018-11-24T23:57:41Z</time>
      </trkpt>
      <trkpt lat="42.78889" lon="0.65298">
        <ele>1789.5</ele>
        <time>2018-11-24T23:57:42Z</time>
      </trkpt>
      <trkpt lat="42.78886" lon="0.65296">
        <ele>1788.9</ele>
        <time>2018-11-24T23:57:44Z</time>
      </trkpt>
      <trkpt lat="42.78883" lon="0.65294">
        <ele>1788.3</ele>
        <time>2018-11-24T23:57:45Z</time>
      </trkpt>
      <trkpt lat="42.7888" lon="0.65294">
        <ele>1788.1</ele>
        <time>2018-11-24T23:57:46Z</time>
      </trkpt>
      <trkpt lat="42.78877" lon="0.65294">
        <ele>1788</ele>
        <time>2018-11-24T23:57:47Z</time>
      </trkpt>
      <trkpt lat="42.78874" lon="0.65293">
        <ele>1787.8</ele>
        <time>2018-11-24T23:57:48Z</time>
      </trkpt>
      <trkpt lat="42.78872" lon="0.65292">
        <ele>1787.8</ele>
        <time>2018-11-24T23:57:49Z</time>
      </trkpt>
      <trkpt lat="42.78869" lon="0.65291">
        <ele>1787.5</ele>
        <time>2018-11-24T23:57:50Z</time>
      </trkpt>
      <trkpt lat="42.78866" lon="0.65289">
        <ele>1787.3</ele>
        <time>2018-11-24T23:57:52Z</time>
      </trkpt>
      <trkpt lat="42.78864" lon="0.65286">
        <ele>1787.2</ele>
        <time>2018-11-24T23:57:53Z</time>
      </trkpt>
      <trkpt lat="42.78862" lon="0.65284">
        <ele>1787.1</ele>
        <time>2018-11-24T23:57:54Z</time>
      </trkpt>
      <trkpt lat="42.78859" lon="0.65283">
        <ele>1787</ele>
        <time>2018-11-24T23:57:55Z</time>
      </trkpt>
      <trkpt lat="42.78856" lon="0.65283">
        <ele>1786.9</ele>
        <time>2018-11-24T23:57:56Z</time>
      </trkpt>
      <trkpt lat="42.78853" lon="0.65281">
        <ele>1786.9</ele>
        <time>2018-11-24T23:57:58Z</time>
      </trkpt>
      <trkpt lat="42.78851" lon="0.65281">
        <ele>1786.9</ele>
        <time>2018-11-24T23:57:58Z</time>
      </trkpt>
      <trkpt lat="42.78849" lon="0.6528">
        <ele>1786.8</ele>
        <time>2018-11-24T23:58:00Z</time>
      </trkpt>
      <trkpt lat="42.78846" lon="0.65279">
        <ele>1786.7</ele>
        <time>2018-11-24T23:58:01Z</time>
      </trkpt>
      <trkpt lat="42.78843" lon="0.65278">
        <ele>1786.6</ele>
        <time>2018-11-24T23:58:02Z</time>
      </trkpt>
      <trkpt lat="42.7884" lon="0.65276">
        <ele>1786.7</ele>
        <time>2018-11-24T23:58:03Z</time>
      </trkpt>
      <trkpt lat="42.78838" lon="0.65276">
        <ele>1786.6</ele>
        <time>2018-11-24T23:58:04Z</time>
      </trkpt>
      <trkpt lat="42.78835" lon="0.65276">
        <ele>1786.5</ele>
        <time>2018-11-24T23:58:05Z</time>
      </trkpt>
      <trkpt lat="42.78833" lon="0.65276">
        <ele>1786.5</ele>
        <time>2018-11-24T23:58:06Z</time>
      </trkpt>
      <trkpt lat="42.78831" lon="0.65276">
        <ele>1786.5</ele>
        <time>2018-11-24T23:58:07Z</time>
      </trkpt>
      <trkpt lat="42.78829" lon="0.65275">
        <ele>1786.6</ele>
        <time>2018-11-24T23:58:08Z</time>
      </trkpt>
      <trkpt lat="42.78827" lon="0.65275">
        <ele>1786.5</ele>
        <time>2018-11-24T23:58:09Z</time>
      </trkpt>
      <trkpt lat="42.78824" lon="0.65275">
        <ele>1786.6</ele>
        <time>2018-11-24T23:58:10Z</time>
      </trkpt>
      <trkpt lat="42.78822" lon="0.65275">
        <ele>1786.6</ele>
        <time>2018-11-24T23:58:10Z</time>
      </trkpt>
      <trkpt lat="42.7882" lon="0.65275">
        <ele>1786.5</ele>
        <time>2018-11-24T23:58:11Z</time>
      </trkpt>
      <trkpt lat="42.78818" lon="0.65275">
        <ele>1786.6</ele>
        <time>2018-11-24T23:58:12Z</time>
      </trkpt>
      <trkpt lat="42.78816" lon="0.65275">
        <ele>1786.5</ele>
        <time>2018-11-24T23:58:13Z</time>
      </trkpt>
      <trkpt lat="42.78813" lon="0.65274">
        <ele>1786.5</ele>
        <time>2018-11-24T23:58:14Z</time>
      </trkpt>
      <trkpt lat="42.78812" lon="0.65274">
        <ele>1786.5</ele>
        <time>2018-11-24T23:58:15Z</time>
      </trkpt>
      <trkpt lat="42.78809" lon="0.65274">
        <ele>1786.4</ele>
        <time>2018-11-24T23:58:16Z</time>
      </trkpt>
      <trkpt lat="42.78806" lon="0.65272">
        <ele>1786.4</ele>
        <time>2018-11-24T23:58:17Z</time>
      </trkpt>
      <trkpt lat="42.78804" lon="0.65271">
        <ele>1786.5</ele>
        <time>2018-11-24T23:58:18Z</time>
      </trkpt>
      <trkpt lat="42.78802" lon="0.6527">
        <ele>1786.4</ele>
        <time>2018-11-24T23:58:19Z</time>
      </trkpt>
      <trkpt lat="42.78799" lon="0.65269">
        <ele>1786.4</ele>
        <time>2018-11-24T23:58:20Z</time>
      </trkpt>
      <trkpt lat="42.78797" lon="0.65268">
        <ele>1786.3</ele>
        <time>2018-11-24T23:58:21Z</time>
      </trkpt>
      <trkpt lat="42.78794" lon="0.65265">
        <ele>1793.8</ele>
        <time>2018-11-24T23:58:22Z</time>
      </trkpt>
      <trkpt lat="42.78792" lon="0.65263">
        <ele>1794.1</ele>
        <time>2018-11-24T23:58:23Z</time>
      </trkpt>
      <trkpt lat="42.78789" lon="0.6526">
        <ele>1794.2</ele>
        <time>2018-11-24T23:58:24Z</time>
      </trkpt>
      <trkpt lat="42.78786" lon="0.65259">
        <ele>1794.5</ele>
        <time>2018-11-24T23:58:26Z</time>
      </trkpt>
      <trkpt lat="42.78784" lon="0.6526">
        <ele>1794.4</ele>
        <time>2018-11-24T23:58:27Z</time>
      </trkpt>
      <trkpt lat="42.78781" lon="0.65259">
        <ele>1794.6</ele>
        <time>2018-11-24T23:58:28Z</time>
      </trkpt>
      <trkpt lat="42.78778" lon="0.65258">
        <ele>1794.7</ele>
        <time>2018-11-24T23:58:29Z</time>
      </trkpt>
      <trkpt lat="42.78776" lon="0.65258">
        <ele>1794.9</ele>
        <time>2018-11-24T23:58:30Z</time>
      </trkpt>
      <trkpt lat="42.78774" lon="0.65257">
        <ele>1794.9</ele>
        <time>2018-11-24T23:58:31Z</time>
      </trkpt>
      <trkpt lat="42.78772" lon="0.65256">
        <ele>1795</ele>
        <time>2018-11-24T23:58:32Z</time>
      </trkpt>
      <trkpt lat="42.78769" lon="0.65255">
        <ele>1795.3</ele>
        <time>2018-11-24T23:58:33Z</time>
      </trkpt>
      <trkpt lat="42.78767" lon="0.65255">
        <ele>1795.3</ele>
        <time>2018-11-24T23:58:34Z</time>
      </trkpt>
      <trkpt lat="42.78764" lon="0.65253">
        <ele>1795.6</ele>
        <time>2018-11-24T23:58:35Z</time>
      </trkpt>
      <trkpt lat="42.78763" lon="0.65251">
        <ele>1795.9</ele>
        <time>2018-11-24T23:58:36Z</time>
      </trkpt>
      <trkpt lat="42.78761" lon="0.65248">
        <ele>1796.2</ele>
        <time>2018-11-24T23:58:37Z</time>
      </trkpt>
      <trkpt lat="42.78758" lon="0.65246">
        <ele>1796.4</ele>
        <time>2018-11-24T23:58:38Z</time>
      </trkpt>
      <trkpt lat="42.78756" lon="0.65245">
        <ele>1796.7</ele>
        <time>2018-11-24T23:58:39Z</time>
      </trkpt>
      <trkpt lat="42.78753" lon="0.65242">
        <ele>1797</ele>
        <time>2018-11-24T23:58:41Z</time>
      </trkpt>
      <trkpt lat="42.78751" lon="0.6524">
        <ele>1797.3</ele>
        <time>2018-11-24T23:58:42Z</time>
      </trkpt>
      <trkpt lat="42.78749" lon="0.65237">
        <ele>1797.7</ele>
        <time>2018-11-24T23:58:43Z</time>
      </trkpt>
      <trkpt lat="42.78747" lon="0.65233">
        <ele>1798.3</ele>
        <time>2018-11-24T23:58:44Z</time>
      </trkpt>
      <trkpt lat="42.78744" lon="0.6523">
        <ele>1798.8</ele>
        <time>2018-11-24T23:58:45Z</time>
      </trkpt>
      <trkpt lat="42.78742" lon="0.65228">
        <ele>1799.2</ele>
        <time>2018-11-24T23:58:47Z</time>
      </trkpt>
      <trkpt lat="42.7874" lon="0.65225">
        <ele>1799.4</ele>
        <time>2018-11-24T23:58:48Z</time>
      </trkpt>
      <trkpt lat="42.78738" lon="0.65222">
        <ele>1799.9</ele>
        <time>2018-11-24T23:58:49Z</time>
      </trkpt>
      <trkpt lat="42.78735" lon="0.65219">
        <ele>1799.9</ele>
        <time>2018-11-24T23:58:50Z</time>
      </trkpt>
      <trkpt lat="42.78733" lon="0.65218">
        <ele>1799.9</ele>
        <time>2018-11-24T23:58:51Z</time>
      </trkpt>
      <trkpt lat="42.7873" lon="0.65216">
        <ele>1799.7</ele>
        <time>2018-11-24T23:58:53Z</time>
      </trkpt>
      <trkpt lat="42.78728" lon="0.65214">
        <ele>1799.6</ele>
        <time>2018-11-24T23:58:54Z</time>
      </trkpt>
      <trkpt lat="42.78726" lon="0.65213">
        <ele>1799.5</ele>
        <time>2018-11-24T23:58:54Z</time>
      </trkpt>
      <trkpt lat="42.78724" lon="0.65211">
        <ele>1799.4</ele>
        <time>2018-11-24T23:58:55Z</time>
      </trkpt>
      <trkpt lat="42.78722" lon="0.65209">
        <ele>1799.3</ele>
        <time>2018-11-24T23:58:56Z</time>
      </trkpt>
      <trkpt lat="42.7872" lon="0.65208">
        <ele>1799.2</ele>
        <time>2018-11-24T23:58:57Z</time>
      </trkpt>
      <trkpt lat="42.78718" lon="0.65207">
        <ele>1799.1</ele>
        <time>2018-11-24T23:58:58Z</time>
      </trkpt>
      <trkpt lat="42.78716" lon="0.65205">
        <ele>1799.2</ele>
        <time>2018-11-24T23:58:59Z</time>
      </trkpt>
      <trkpt lat="42.78714" lon="0.65203">
        <ele>1799</ele>
        <time>2018-11-24T23:59:00Z</time>
      </trkpt>
      <trkpt lat="42.78711" lon="0.65201">
        <ele>1798.9</ele>
        <time>2018-11-24T23:59:01Z</time>
      </trkpt>
      <trkpt lat="42.78709" lon="0.652">
        <ele>1798.9</ele>
        <time>2018-11-24T23:59:02Z</time>
      </trkpt>
      <trkpt lat="42.78707" lon="0.65199">
        <ele>1798.8</ele>
        <time>2018-11-24T23:59:03Z</time>
      </trkpt>
      <trkpt lat="42.78705" lon="0.65198">
        <ele>1798.7</ele>
        <time>2018-11-24T23:59:04Z</time>
      </trkpt>
      <trkpt lat="42.78702" lon="0.65196">
        <ele>1798.7</ele>
        <time>2018-11-24T23:59:05Z</time>
      </trkpt>
      <trkpt lat="42.787" lon="0.65194">
        <ele>1798.6</ele>
        <time>2018-11-24T23:59:06Z</time>
      </trkpt>
      <trkpt lat="42.78698" lon="0.65192">
        <ele>1798.5</ele>
        <time>2018-11-24T23:59:07Z</time>
      </trkpt>
      <trkpt lat="42.78697" lon="0.6519">
        <ele>1798.4</ele>
        <time>2018-11-24T23:59:08Z</time>
      </trkpt>
      <trkpt lat="42.78695" lon="0.65188">
        <ele>1798.3</ele>
        <time>2018-11-24T23:59:09Z</time>
      </trkpt>
      <trkpt lat="42.78693" lon="0.65185">
        <ele>1798.2</ele>
        <time>2018-11-24T23:59:10Z</time>
      </trkpt>
      <trkpt lat="42.7869" lon="0.65183">
        <ele>1798</ele>
        <time>2018-11-24T23:59:11Z</time>
      </trkpt>
      <trkpt lat="42.78688" lon="0.65181">
        <ele>1797.9</ele>
        <time>2018-11-24T23:59:12Z</time>
      </trkpt>
      <trkpt lat="42.78686" lon="0.65179">
        <ele>1797.9</ele>
        <time>2018-11-24T23:59:13Z</time>
      </trkpt>
      <trkpt lat="42.78685" lon="0.65177">
        <ele>1797.7</ele>
        <time>2018-11-24T23:59:14Z</time>
      </trkpt>
      <trkpt lat="42.78683" lon="0.65176">
        <ele>1797.7</ele>
        <time>2018-11-24T23:59:15Z</time>
      </trkpt>
      <trkpt lat="42.78682" lon="0.65175">
        <ele>1797.7</ele>
        <time>2018-11-24T23:59:16Z</time>
      </trkpt>
      <trkpt lat="42.7868" lon="0.65174">
        <ele>1797.7</ele>
        <time>2018-11-24T23:59:17Z</time>
      </trkpt>
      <trkpt lat="42.78677" lon="0.65173">
        <ele>1797.7</ele>
        <time>2018-11-24T23:59:17Z</time>
      </trkpt>
      <trkpt lat="42.78675" lon="0.65173">
        <ele>1797.7</ele>
        <time>2018-11-24T23:59:18Z</time>
      </trkpt>
      <trkpt lat="42.78674" lon="0.65172">
        <ele>1797.7</ele>
        <time>2018-11-24T23:59:19Z</time>
      </trkpt>
      <trkpt lat="42.78671" lon="0.65171">
        <ele>1797.7</ele>
        <time>2018-11-24T23:59:20Z</time>
      </trkpt>
      <trkpt lat="42.78668" lon="0.6517">
        <ele>1797.7</ele>
        <time>2018-11-24T23:59:21Z</time>
      </trkpt>
      <trkpt lat="42.78666" lon="0.65169">
        <ele>1797.7</ele>
        <time>2018-11-24T23:59:22Z</time>
      </trkpt>
      <trkpt lat="42.78664" lon="0.65168">
        <ele>1797.7</ele>
        <time>2018-11-24T23:59:23Z</time>
      </trkpt>
      <trkpt lat="42.7866" lon="0.65168">
        <ele>1797.9</ele>
        <time>2018-11-24T23:59:25Z</time>
      </trkpt>
      <trkpt lat="42.78657" lon="0.65167">
        <ele>1802.3</ele>
        <time>2018-11-24T23:59:26Z</time>
      </trkpt>
      <trkpt lat="42.78654" lon="0.65166">
        <ele>1802.3</ele>
        <time>2018-11-24T23:59:27Z</time>
      </trkpt>
      <trkpt lat="42.78652" lon="0.65166">
        <ele>1802.3</ele>
        <time>2018-11-24T23:59:28Z</time>
      </trkpt>
      <trkpt lat="42.78649" lon="0.65165">
        <ele>1802.1</ele>
        <time>2018-11-24T23:59:29Z</time>
      </trkpt>
      <trkpt lat="42.78645" lon="0.65165">
        <ele>1801.9</ele>
        <time>2018-11-24T23:59:31Z</time>
      </trkpt>
      <trkpt lat="42.78643" lon="0.65165">
        <ele>1801.8</ele>
        <time>2018-11-24T23:59:32Z</time>
      </trkpt>
      <trkpt lat="42.7864" lon="0.65164">
        <ele>1802</ele>
        <time>2018-11-24T23:59:33Z</time>
      </trkpt>
      <trkpt lat="42.78638" lon="0.65162">
        <ele>1802.2</ele>
        <time>2018-11-24T23:59:34Z</time>
      </trkpt>
      <trkpt lat="42.78634" lon="0.65161">
        <ele>1802.3</ele>
        <time>2018-11-24T23:59:35Z</time>
      </trkpt>
      <trkpt lat="42.78631" lon="0.65161">
        <ele>1802.2</ele>
        <time>2018-11-24T23:59:36Z</time>
      </trkpt>
      <trkpt lat="42.78629" lon="0.65161">
        <ele>1802.1</ele>
        <time>2018-11-24T23:59:37Z</time>
      </trkpt>
      <trkpt lat="42.78627" lon="0.6516">
        <ele>1802</ele>
        <time>2018-11-24T23:59:38Z</time>
      </trkpt>
      <trkpt lat="42.78624" lon="0.65159">
        <ele>1802.2</ele>
        <time>2018-11-24T23:59:39Z</time>
      </trkpt>
      <trkpt lat="42.7862" lon="0.65157">
        <ele>1802.3</ele>
        <time>2018-11-24T23:59:41Z</time>
      </trkpt>
      <trkpt lat="42.78619" lon="0.65156">
        <ele>1802.6</ele>
        <time>2018-11-24T23:59:42Z</time>
      </trkpt>
      <trkpt lat="42.78617" lon="0.65155">
        <ele>1802.8</ele>
        <time>2018-11-24T23:59:42Z</time>
      </trkpt>
      <trkpt lat="42.78615" lon="0.65153">
        <ele>1803.1</ele>
        <time>2018-11-24T23:59:43Z</time>
      </trkpt>
      <trkpt lat="42.78613" lon="0.65152">
        <ele>1803.3</ele>
        <time>2018-11-24T23:59:44Z</time>
      </trkpt>
      <trkpt lat="42.78612" lon="0.65152">
        <ele>1803.5</ele>
        <time>2018-11-24T23:59:45Z</time>
      </trkpt>
      <trkpt lat="42.7861" lon="0.6515">
        <ele>1803.9</ele>
        <time>2018-11-24T23:59:46Z</time>
      </trkpt>
      <trkpt lat="42.78608" lon="0.6515">
        <ele>1803.9</ele>
        <time>2018-11-24T23:59:46Z</time>
      </trkpt>
      <trkpt lat="42.78606" lon="0.65149">
        <ele>1804</ele>
        <time>2018-11-24T23:59:47Z</time>
      </trkpt>
      <trkpt lat="42.78604" lon="0.65149">
        <ele>1804</ele>
        <time>2018-11-24T23:59:48Z</time>
      </trkpt>
      <trkpt lat="42.78601" lon="0.65147">
        <ele>1804.4</ele>
        <time>2018-11-24T23:59:49Z</time>
      </trkpt>
      <trkpt lat="42.78599" lon="0.65147">
        <ele>1804.5</ele>
        <time>2018-11-24T23:59:50Z</time>
      </trkpt>
      <trkpt lat="42.78597" lon="0.65146">
        <ele>1804.6</ele>
        <time>2018-11-24T23:59:51Z</time>
      </trkpt>
      <trkpt lat="42.78596" lon="0.65146">
        <ele>1804.4</ele>
        <time>2018-11-24T23:59:51Z</time>
      </trkpt>
      <trkpt lat="42.78592" lon="0.65147">
        <ele>1804.1</ele>
        <time>2018-11-24T23:59:53Z</time>
      </trkpt>
      <trkpt lat="42.7859" lon="0.65147">
        <ele>1804.1</ele>
        <time>2018-11-24T23:59:54Z</time>
      </trkpt>
      <trkpt lat="42.78588" lon="0.65146">
        <ele>1804.2</ele>
        <time>2018-11-24T23:59:55Z</time>
      </trkpt>
      <trkpt lat="42.78586" lon="0.65145">
        <ele>1804.4</ele>
        <time>2018-11-24T23:59:55Z</time>
      </trkpt>
      <trkpt lat="42.78583" lon="0.65146">
        <ele>1804.3</ele>
        <time>2018-11-24T23:59:56Z</time>
      </trkpt>
      <trkpt lat="42.78581" lon="0.65145">
        <ele>1804.3</ele>
        <time>2018-11-24T23:59:57Z</time>
      </trkpt>
      <trkpt lat="42.78579" lon="0.65145">
        <ele>1804.4</ele>
        <time>2018-11-24T23:59:58Z</time>
      </trkpt>
      <trkpt lat="42.78577" lon="0.65145">
        <ele>1804.3</ele>
        <time>2018-11-24T23:59:59Z</time>
      </trkpt>
      <trkpt lat="42.78575" lon="0.65146">
        <ele>1804.1</ele>
        <time>2018-11-25T00:00:00Z</time>
      </trkpt>
      <trkpt lat="42.78571" lon="0.65146">
        <ele>1803.9</ele>
        <time>2018-11-25T00:00:01Z</time>
      </trkpt>
      <trkpt lat="42.78569" lon="0.65147">
        <ele>1803.6</ele>
        <time>2018-11-25T00:00:02Z</time>
      </trkpt>
      <trkpt lat="42.78565" lon="0.65148">
        <ele>1803.2</ele>
        <time>2018-11-25T00:00:04Z</time>
      </trkpt>
      <trkpt lat="42.78563" lon="0.65149">
        <ele>1802.6</ele>
        <time>2018-11-25T00:00:05Z</time>
      </trkpt>
      <trkpt lat="42.78561" lon="0.6515">
        <ele>1802.1</ele>
        <time>2018-11-25T00:00:06Z</time>
      </trkpt>
      <trkpt lat="42.78559" lon="0.65151">
        <ele>1801.7</ele>
        <time>2018-11-25T00:00:06Z</time>
      </trkpt>
      <trkpt lat="42.78557" lon="0.65152">
        <ele>1801.4</ele>
        <time>2018-11-25T00:00:07Z</time>
      </trkpt>
      <trkpt lat="42.78555" lon="0.65153">
        <ele>1801.1</ele>
        <time>2018-11-25T00:00:08Z</time>
      </trkpt>
      <trkpt lat="42.78553" lon="0.65154">
        <ele>1800.6</ele>
        <time>2018-11-25T00:00:09Z</time>
      </trkpt>
      <trkpt lat="42.78551" lon="0.65155">
        <ele>1799.9</ele>
        <time>2018-11-25T00:00:10Z</time>
      </trkpt>
      <trkpt lat="42.78549" lon="0.65156">
        <ele>1799.7</ele>
        <time>2018-11-25T00:00:11Z</time>
      </trkpt>
      <trkpt lat="42.78547" lon="0.65158">
        <ele>1799.1</ele>
        <time>2018-11-25T00:00:12Z</time>
      </trkpt>
      <trkpt lat="42.78544" lon="0.65158">
        <ele>1799.3</ele>
        <time>2018-11-25T00:00:13Z</time>
      </trkpt>
      <trkpt lat="42.78542" lon="0.65158">
        <ele>1799</ele>
        <time>2018-11-25T00:00:14Z</time>
      </trkpt>
      <trkpt lat="42.78539" lon="0.6516">
        <ele>1798.4</ele>
        <time>2018-11-25T00:00:15Z</time>
      </trkpt>
      <trkpt lat="42.78537" lon="0.65162">
        <ele>1797.5</ele>
        <time>2018-11-25T00:00:16Z</time>
      </trkpt>
      <trkpt lat="42.78534" lon="0.65165">
        <ele>1796.3</ele>
        <time>2018-11-25T00:00:17Z</time>
      </trkpt>
      <trkpt lat="42.78532" lon="0.65167">
        <ele>1795.4</ele>
        <time>2018-11-25T00:00:18Z</time>
      </trkpt>
      <trkpt lat="42.78529" lon="0.65169">
        <ele>1794.7</ele>
        <time>2018-11-25T00:00:20Z</time>
      </trkpt>
      <trkpt lat="42.78527" lon="0.6517">
        <ele>1794.1</ele>
        <time>2018-11-25T00:00:21Z</time>
      </trkpt>
      <trkpt lat="42.78524" lon="0.65174">
        <ele>1792.2</ele>
        <time>2018-11-25T00:00:22Z</time>
      </trkpt>
      <trkpt lat="42.78522" lon="0.65176">
        <ele>1791.6</ele>
        <time>2018-11-25T00:00:23Z</time>
      </trkpt>
      <trkpt lat="42.78521" lon="0.65178">
        <ele>1790.8</ele>
        <time>2018-11-25T00:00:24Z</time>
      </trkpt>
      <trkpt lat="42.7852" lon="0.6518">
        <ele>1790</ele>
        <time>2018-11-25T00:00:25Z</time>
      </trkpt>
      <trkpt lat="42.78518" lon="0.65182">
        <ele>1788.9</ele>
        <time>2018-11-25T00:00:26Z</time>
      </trkpt>
      <trkpt lat="42.78517" lon="0.65185">
        <ele>1787.6</ele>
        <time>2018-11-25T00:00:27Z</time>
      </trkpt>
      <trkpt lat="42.78516" lon="0.65188">
        <ele>1786.3</ele>
        <time>2018-11-25T00:00:28Z</time>
      </trkpt>
      <trkpt lat="42.7851" lon="0.65195">
        <ele>1783.3</ele>
        <time>2018-11-25T00:00:30Z</time>
      </trkpt>
      <trkpt lat="42.78508" lon="0.65197">
        <ele>1782.3</ele>
        <time>2018-11-25T00:00:31Z</time>
      </trkpt>
      <trkpt lat="42.78506" lon="0.65198">
        <ele>1781.4</ele>
        <time>2018-11-25T00:00:32Z</time>
      </trkpt>
      <trkpt lat="42.78504" lon="0.652">
        <ele>1780.9</ele>
        <time>2018-11-25T00:00:33Z</time>
      </trkpt>
      <trkpt lat="42.78502" lon="0.65201">
        <ele>1780.3</ele>
        <time>2018-11-25T00:00:34Z</time>
      </trkpt>
      <trkpt lat="42.78499" lon="0.652">
        <ele>1780.6</ele>
        <time>2018-11-25T00:00:35Z</time>
      </trkpt>
      <trkpt lat="42.78497" lon="0.652">
        <ele>1780.7</ele>
        <time>2018-11-25T00:00:36Z</time>
      </trkpt>
      <trkpt lat="42.78495" lon="0.65199">
        <ele>1781</ele>
        <time>2018-11-25T00:00:37Z</time>
      </trkpt>
      <trkpt lat="42.78493" lon="0.65199">
        <ele>1781.4</ele>
        <time>2018-11-25T00:00:38Z</time>
      </trkpt>
      <trkpt lat="42.78491" lon="0.65198">
        <ele>1781.7</ele>
        <time>2018-11-25T00:00:39Z</time>
      </trkpt>
      <trkpt lat="42.78488" lon="0.65197">
        <ele>1781.9</ele>
        <time>2018-11-25T00:00:40Z</time>
      </trkpt>
      <trkpt lat="42.78484" lon="0.65197">
        <ele>1781.9</ele>
        <time>2018-11-25T00:00:42Z</time>
      </trkpt>
      <trkpt lat="42.78482" lon="0.65197">
        <ele>1781.7</ele>
        <time>2018-11-25T00:00:42Z</time>
      </trkpt>
      <trkpt lat="42.7848" lon="0.65197">
        <ele>1781.6</ele>
        <time>2018-11-25T00:00:43Z</time>
      </trkpt>
      <trkpt lat="42.78478" lon="0.65196">
        <ele>1781.5</ele>
        <time>2018-11-25T00:00:44Z</time>
      </trkpt>
      <trkpt lat="42.78475" lon="0.65195">
        <ele>1781.8</ele>
        <time>2018-11-25T00:00:45Z</time>
      </trkpt>
      <trkpt lat="42.78473" lon="0.65195">
        <ele>1782</ele>
        <time>2018-11-25T00:00:46Z</time>
      </trkpt>
      <trkpt lat="42.78471" lon="0.65195">
        <ele>1781.7</ele>
        <time>2018-11-25T00:00:47Z</time>
      </trkpt>
      <trkpt lat="42.7847" lon="0.65195">
        <ele>1781.7</ele>
        <time>2018-11-25T00:00:47Z</time>
      </trkpt>
      <trkpt lat="42.78468" lon="0.65195">
        <ele>1781.4</ele>
        <time>2018-11-25T00:00:48Z</time>
      </trkpt>
      <trkpt lat="42.78466" lon="0.65195">
        <ele>1781.4</ele>
        <time>2018-11-25T00:00:49Z</time>
      </trkpt>
      <trkpt lat="42.78462" lon="0.65194">
        <ele>1781.3</ele>
        <time>2018-11-25T00:00:50Z</time>
      </trkpt>
      <trkpt lat="42.78459" lon="0.65194">
        <ele>1780.8</ele>
        <time>2018-11-25T00:00:52Z</time>
      </trkpt>
      <trkpt lat="42.78458" lon="0.65194">
        <ele>1780.6</ele>
        <time>2018-11-25T00:00:52Z</time>
      </trkpt>
      <trkpt lat="42.78456" lon="0.65193">
        <ele>1781</ele>
        <time>2018-11-25T00:00:53Z</time>
      </trkpt>
      <trkpt lat="42.78454" lon="0.6519">
        <ele>1781.6</ele>
        <time>2018-11-25T00:00:54Z</time>
      </trkpt>
      <trkpt lat="42.78452" lon="0.65188">
        <ele>1782.5</ele>
        <time>2018-11-25T00:00:55Z</time>
      </trkpt>
      <trkpt lat="42.78451" lon="0.65185">
        <ele>1783.4</ele>
        <time>2018-11-25T00:00:56Z</time>
      </trkpt>
      <trkpt lat="42.78449" lon="0.65184">
        <ele>1783.9</ele>
        <time>2018-11-25T00:00:57Z</time>
      </trkpt>
      <trkpt lat="42.78448" lon="0.65182">
        <ele>1784.5</ele>
        <time>2018-11-25T00:00:58Z</time>
      </trkpt>
      <trkpt lat="42.78446" lon="0.6518">
        <ele>1785.1</ele>
        <time>2018-11-25T00:00:58Z</time>
      </trkpt>
      <trkpt lat="42.78444" lon="0.65178">
        <ele>1785.5</ele>
        <time>2018-11-25T00:00:59Z</time>
      </trkpt>
      <trkpt lat="42.78443" lon="0.65176">
        <ele>1785.7</ele>
        <time>2018-11-25T00:01:00Z</time>
      </trkpt>
      <trkpt lat="42.7844" lon="0.65175">
        <ele>1785.8</ele>
        <time>2018-11-25T00:01:01Z</time>
      </trkpt>
      <trkpt lat="42.78438" lon="0.65173">
        <ele>1786.4</ele>
        <time>2018-11-25T00:01:02Z</time>
      </trkpt>
      <trkpt lat="42.78436" lon="0.6517">
        <ele>1786.7</ele>
        <time>2018-11-25T00:01:04Z</time>
      </trkpt>
      <trkpt lat="42.78433" lon="0.65168">
        <ele>1786.9</ele>
        <time>2018-11-25T00:01:05Z</time>
      </trkpt>
      <trkpt lat="42.78431" lon="0.65167">
        <ele>1786.9</ele>
        <time>2018-11-25T00:01:06Z</time>
      </trkpt>
      <trkpt lat="42.78429" lon="0.65165">
        <ele>1787</ele>
        <time>2018-11-25T00:01:07Z</time>
      </trkpt>
      <trkpt lat="42.78427" lon="0.65164">
        <ele>1787.2</ele>
        <time>2018-11-25T00:01:07Z</time>
      </trkpt>
      <trkpt lat="42.78426" lon="0.65162">
        <ele>1787.4</ele>
        <time>2018-11-25T00:01:08Z</time>
      </trkpt>
      <trkpt lat="42.78424" lon="0.6516">
        <ele>1787.6</ele>
        <time>2018-11-25T00:01:09Z</time>
      </trkpt>
      <trkpt lat="42.78422" lon="0.65157">
        <ele>1788</ele>
        <time>2018-11-25T00:01:10Z</time>
      </trkpt>
      <trkpt lat="42.7842" lon="0.65155">
        <ele>1788.1</ele>
        <time>2018-11-25T00:01:11Z</time>
      </trkpt>
      <trkpt lat="42.78418" lon="0.65153">
        <ele>1788.2</ele>
        <time>2018-11-25T00:01:12Z</time>
      </trkpt>
      <trkpt lat="42.78416" lon="0.65152">
        <ele>1788</ele>
        <time>2018-11-25T00:01:13Z</time>
      </trkpt>
      <trkpt lat="42.78414" lon="0.65149">
        <ele>1788.4</ele>
        <time>2018-11-25T00:01:14Z</time>
      </trkpt>
      <trkpt lat="42.78412" lon="0.65147">
        <ele>1788.5</ele>
        <time>2018-11-25T00:01:15Z</time>
      </trkpt>
      <trkpt lat="42.78411" lon="0.65145">
        <ele>1788.3</ele>
        <time>2018-11-25T00:01:16Z</time>
      </trkpt>
      <trkpt lat="42.78409" lon="0.65143">
        <ele>1788.2</ele>
        <time>2018-11-25T00:01:17Z</time>
      </trkpt>
      <trkpt lat="42.78407" lon="0.65141">
        <ele>1788.1</ele>
        <time>2018-11-25T00:01:18Z</time>
      </trkpt>
      <trkpt lat="42.78405" lon="0.65139">
        <ele>1787.9</ele>
        <time>2018-11-25T00:01:19Z</time>
      </trkpt>
      <trkpt lat="42.78403" lon="0.65138">
        <ele>1787.6</ele>
        <time>2018-11-25T00:01:20Z</time>
      </trkpt>
      <trkpt lat="42.78401" lon="0.65136">
        <ele>1787.5</ele>
        <time>2018-11-25T00:01:21Z</time>
      </trkpt>
      <trkpt lat="42.784" lon="0.65134">
        <ele>1787.5</ele>
        <time>2018-11-25T00:01:22Z</time>
      </trkpt>
      <trkpt lat="42.78399" lon="0.65131">
        <ele>1788.1</ele>
        <time>2018-11-25T00:01:23Z</time>
      </trkpt>
      <trkpt lat="42.78398" lon="0.65128">
        <ele>1788.6</ele>
        <time>2018-11-25T00:01:24Z</time>
      </trkpt>
      <trkpt lat="42.78397" lon="0.65125">
        <ele>1788.8</ele>
        <time>2018-11-25T00:01:25Z</time>
      </trkpt>
      <trkpt lat="42.78395" lon="0.65122">
        <ele>1788.8</ele>
        <time>2018-11-25T00:01:26Z</time>
      </trkpt>
      <trkpt lat="42.78393" lon="0.65118">
        <ele>1788.8</ele>
        <time>2018-11-25T00:01:27Z</time>
      </trkpt>
      <trkpt lat="42.78391" lon="0.65115">
        <ele>1788.8</ele>
        <time>2018-11-25T00:01:28Z</time>
      </trkpt>
      <trkpt lat="42.7839" lon="0.65112">
        <ele>1789.1</ele>
        <time>2018-11-25T00:01:29Z</time>
      </trkpt>
      <trkpt lat="42.78389" lon="0.65109">
        <ele>1789.2</ele>
        <time>2018-11-25T00:01:30Z</time>
      </trkpt>
      <trkpt lat="42.78387" lon="0.65106">
        <ele>1789.2</ele>
        <time>2018-11-25T00:01:31Z</time>
      </trkpt>
      <trkpt lat="42.78386" lon="0.65103">
        <ele>1789.2</ele>
        <time>2018-11-25T00:01:32Z</time>
      </trkpt>
      <trkpt lat="42.78385" lon="0.651">
        <ele>1789.7</ele>
        <time>2018-11-25T00:01:33Z</time>
      </trkpt>
      <trkpt lat="42.78384" lon="0.65096">
        <ele>1789.9</ele>
        <time>2018-11-25T00:01:35Z</time>
      </trkpt>
      <trkpt lat="42.78382" lon="0.65094">
        <ele>1789.5</ele>
        <time>2018-11-25T00:01:36Z</time>
      </trkpt>
      <trkpt lat="42.78381" lon="0.65092">
        <ele>1789.2</ele>
        <time>2018-11-25T00:01:36Z</time>
      </trkpt>
      <trkpt lat="42.78379" lon="0.6509">
        <ele>1788.9</ele>
        <time>2018-11-25T00:01:37Z</time>
      </trkpt>
      <trkpt lat="42.78378" lon="0.65088">
        <ele>1788.6</ele>
        <time>2018-11-25T00:01:38Z</time>
      </trkpt>
      <trkpt lat="42.78376" lon="0.65086">
        <ele>1788.2</ele>
        <time>2018-11-25T00:01:39Z</time>
      </trkpt>
      <trkpt lat="42.78375" lon="0.65083">
        <ele>1788.3</ele>
        <time>2018-11-25T00:01:40Z</time>
      </trkpt>
      <trkpt lat="42.78374" lon="0.6508">
        <ele>1788.2</ele>
        <time>2018-11-25T00:01:41Z</time>
      </trkpt>
      <trkpt lat="42.78372" lon="0.65076">
        <ele>1788.2</ele>
        <time>2018-11-25T00:01:42Z</time>
      </trkpt>
      <trkpt lat="42.7837" lon="0.65073">
        <ele>1787.9</ele>
        <time>2018-11-25T00:01:43Z</time>
      </trkpt>
      <trkpt lat="42.78368" lon="0.65071">
        <ele>1787.4</ele>
        <time>2018-11-25T00:01:44Z</time>
      </trkpt>
      <trkpt lat="42.78366" lon="0.65069">
        <ele>1786.9</ele>
        <time>2018-11-25T00:01:46Z</time>
      </trkpt>
      <trkpt lat="42.78365" lon="0.65066">
        <ele>1786.7</ele>
        <time>2018-11-25T00:01:46Z</time>
      </trkpt>
      <trkpt lat="42.78363" lon="0.65063">
        <ele>1786.7</ele>
        <time>2018-11-25T00:01:48Z</time>
      </trkpt>
      <trkpt lat="42.78361" lon="0.6506">
        <ele>1786.2</ele>
        <time>2018-11-25T00:01:49Z</time>
      </trkpt>
      <trkpt lat="42.78359" lon="0.65057">
        <ele>1785.8</ele>
        <time>2018-11-25T00:01:50Z</time>
      </trkpt>
      <trkpt lat="42.78357" lon="0.65055">
        <ele>1785.4</ele>
        <time>2018-11-25T00:01:51Z</time>
      </trkpt>
      <trkpt lat="42.78354" lon="0.65053">
        <ele>1784.7</ele>
        <time>2018-11-25T00:01:52Z</time>
      </trkpt>
      <trkpt lat="42.78352" lon="0.6505">
        <ele>1784.4</ele>
        <time>2018-11-25T00:01:54Z</time>
      </trkpt>
      <trkpt lat="42.78351" lon="0.65048">
        <ele>1784.2</ele>
        <time>2018-11-25T00:01:54Z</time>
      </trkpt>
      <trkpt lat="42.78349" lon="0.65046">
        <ele>1784.1</ele>
        <time>2018-11-25T00:01:55Z</time>
      </trkpt>
      <trkpt lat="42.78348" lon="0.65043">
        <ele>1784.1</ele>
        <time>2018-11-25T00:01:56Z</time>
      </trkpt>
      <trkpt lat="42.78346" lon="0.65042">
        <ele>1783.8</ele>
        <time>2018-11-25T00:01:57Z</time>
      </trkpt>
      <trkpt lat="42.78344" lon="0.65039">
        <ele>1783.6</ele>
        <time>2018-11-25T00:01:58Z</time>
      </trkpt>
      <trkpt lat="42.78343" lon="0.65037">
        <ele>1783.4</ele>
        <time>2018-11-25T00:01:59Z</time>
      </trkpt>
      <trkpt lat="42.78341" lon="0.65035">
        <ele>1783.3</ele>
        <time>2018-11-25T00:02:00Z</time>
      </trkpt>
      <trkpt lat="42.78339" lon="0.65033">
        <ele>1783</ele>
        <time>2018-11-25T00:02:01Z</time>
      </trkpt>
      <trkpt lat="42.78338" lon="0.65031">
        <ele>1783</ele>
        <time>2018-11-25T00:02:02Z</time>
      </trkpt>
      <trkpt lat="42.78336" lon="0.65029">
        <ele>1782.8</ele>
        <time>2018-11-25T00:02:02Z</time>
      </trkpt>
      <trkpt lat="42.78334" lon="0.65027">
        <ele>1782.4</ele>
        <time>2018-11-25T00:02:03Z</time>
      </trkpt>
      <trkpt lat="42.78332" lon="0.65025">
        <ele>1782.2</ele>
        <time>2018-11-25T00:02:04Z</time>
      </trkpt>
      <trkpt lat="42.7833" lon="0.65024">
        <ele>1782</ele>
        <time>2018-11-25T00:02:05Z</time>
      </trkpt>
      <trkpt lat="42.78328" lon="0.65023">
        <ele>1781.7</ele>
        <time>2018-11-25T00:02:06Z</time>
      </trkpt>
      <trkpt lat="42.78325" lon="0.6502">
        <ele>1781.4</ele>
        <time>2018-11-25T00:02:07Z</time>
      </trkpt>
      <trkpt lat="42.78323" lon="0.65018">
        <ele>1781.3</ele>
        <time>2018-11-25T00:02:08Z</time>
      </trkpt>
      <trkpt lat="42.78321" lon="0.65015">
        <ele>1781.7</ele>
        <time>2018-11-25T00:02:10Z</time>
      </trkpt>
      <trkpt lat="42.7832" lon="0.65013">
        <ele>1781.6</ele>
        <time>2018-11-25T00:02:11Z</time>
      </trkpt>
      <trkpt lat="42.78318" lon="0.65011">
        <ele>1781.7</ele>
        <time>2018-11-25T00:02:11Z</time>
      </trkpt>
      <trkpt lat="42.78315" lon="0.65008">
        <ele>1781.6</ele>
        <time>2018-11-25T00:02:13Z</time>
      </trkpt>
      <trkpt lat="42.78313" lon="0.65007">
        <ele>1781.6</ele>
        <time>2018-11-25T00:02:14Z</time>
      </trkpt>
      <trkpt lat="42.78311" lon="0.65006">
        <ele>1781.4</ele>
        <time>2018-11-25T00:02:15Z</time>
      </trkpt>
      <trkpt lat="42.78308" lon="0.65005">
        <ele>1781</ele>
        <time>2018-11-25T00:02:16Z</time>
      </trkpt>
      <trkpt lat="42.78305" lon="0.65004">
        <ele>1780.7</ele>
        <time>2018-11-25T00:02:17Z</time>
      </trkpt>
      <trkpt lat="42.78303" lon="0.65003">
        <ele>1780.4</ele>
        <time>2018-11-25T00:02:18Z</time>
      </trkpt>
      <trkpt lat="42.78301" lon="0.65003">
        <ele>1779.9</ele>
        <time>2018-11-25T00:02:19Z</time>
      </trkpt>
      <trkpt lat="42.78298" lon="0.65002">
        <ele>1779.8</ele>
        <time>2018-11-25T00:02:20Z</time>
      </trkpt>
      <trkpt lat="42.78296" lon="0.65002">
        <ele>1779.6</ele>
        <time>2018-11-25T00:02:21Z</time>
      </trkpt>
      <trkpt lat="42.78294" lon="0.65001">
        <ele>1779.3</ele>
        <time>2018-11-25T00:02:22Z</time>
      </trkpt>
      <trkpt lat="42.78291" lon="0.65001">
        <ele>1779.1</ele>
        <time>2018-11-25T00:02:23Z</time>
      </trkpt>
      <trkpt lat="42.78289" lon="0.65001">
        <ele>1778.8</ele>
        <time>2018-11-25T00:02:23Z</time>
      </trkpt>
      <trkpt lat="42.78287" lon="0.65001">
        <ele>1778.6</ele>
        <time>2018-11-25T00:02:24Z</time>
      </trkpt>
      <trkpt lat="42.78285" lon="0.65">
        <ele>1778.3</ele>
        <time>2018-11-25T00:02:25Z</time>
      </trkpt>
      <trkpt lat="42.78283" lon="0.65">
        <ele>1778.1</ele>
        <time>2018-11-25T00:02:26Z</time>
      </trkpt>
      <trkpt lat="42.7828" lon="0.64999">
        <ele>1778.1</ele>
        <time>2018-11-25T00:02:27Z</time>
      </trkpt>
      <trkpt lat="42.78278" lon="0.64999">
        <ele>1778.1</ele>
        <time>2018-11-25T00:02:28Z</time>
      </trkpt>
      <trkpt lat="42.78276" lon="0.64998">
        <ele>1777.8</ele>
        <time>2018-11-25T00:02:29Z</time>
      </trkpt>
      <trkpt lat="42.78274" lon="0.64998">
        <ele>1777.7</ele>
        <time>2018-11-25T00:02:30Z</time>
      </trkpt>
      <trkpt lat="42.78271" lon="0.64998">
        <ele>1777.5</ele>
        <time>2018-11-25T00:02:31Z</time>
      </trkpt>
      <trkpt lat="42.78269" lon="0.64998">
        <ele>1777.4</ele>
        <time>2018-11-25T00:02:31Z</time>
      </trkpt>
      <trkpt lat="42.78267" lon="0.64998">
        <ele>1777.2</ele>
        <time>2018-11-25T00:02:32Z</time>
      </trkpt>
      <trkpt lat="42.78265" lon="0.64997">
        <ele>1777.1</ele>
        <time>2018-11-25T00:02:33Z</time>
      </trkpt>
      <trkpt lat="42.78263" lon="0.64997">
        <ele>1777</ele>
        <time>2018-11-25T00:02:34Z</time>
      </trkpt>
      <trkpt lat="42.78261" lon="0.64998">
        <ele>1776.8</ele>
        <time>2018-11-25T00:02:35Z</time>
      </trkpt>
      <trkpt lat="42.78259" lon="0.64998">
        <ele>1776.4</ele>
        <time>2018-11-25T00:02:36Z</time>
      </trkpt>
      <trkpt lat="42.78257" lon="0.64999">
        <ele>1776.1</ele>
        <time>2018-11-25T00:02:37Z</time>
      </trkpt>
      <trkpt lat="42.78255" lon="0.65">
        <ele>1775.6</ele>
        <time>2018-11-25T00:02:37Z</time>
      </trkpt>
      <trkpt lat="42.78253" lon="0.65001">
        <ele>1775.3</ele>
        <time>2018-11-25T00:02:38Z</time>
      </trkpt>
      <trkpt lat="42.78251" lon="0.65001">
        <ele>1774.8</ele>
        <time>2018-11-25T00:02:39Z</time>
      </trkpt>
      <trkpt lat="42.78249" lon="0.65002">
        <ele>1774.6</ele>
        <time>2018-11-25T00:02:40Z</time>
      </trkpt>
      <trkpt lat="42.78247" lon="0.65002">
        <ele>1774.3</ele>
        <time>2018-11-25T00:02:40Z</time>
      </trkpt>
      <trkpt lat="42.78246" lon="0.65003">
        <ele>1774</ele>
        <time>2018-11-25T00:02:41Z</time>
      </trkpt>
      <trkpt lat="42.78243" lon="0.65004">
        <ele>1773.6</ele>
        <time>2018-11-25T00:02:42Z</time>
      </trkpt>
      <trkpt lat="42.78241" lon="0.65005">
        <ele>1773.1</ele>
        <time>2018-11-25T00:02:43Z</time>
      </trkpt>
      <trkpt lat="42.78239" lon="0.65006">
        <ele>1772.8</ele>
        <time>2018-11-25T00:02:44Z</time>
      </trkpt>
      <trkpt lat="42.78237" lon="0.65006">
        <ele>1772.5</ele>
        <time>2018-11-25T00:02:45Z</time>
      </trkpt>
      <trkpt lat="42.78235" lon="0.65007">
        <ele>1772.3</ele>
        <time>2018-11-25T00:02:46Z</time>
      </trkpt>
      <trkpt lat="42.78232" lon="0.65007">
        <ele>1772.2</ele>
        <time>2018-11-25T00:02:47Z</time>
      </trkpt>
      <trkpt lat="42.7823" lon="0.65007">
        <ele>1772.2</ele>
        <time>2018-11-25T00:02:48Z</time>
      </trkpt>
      <trkpt lat="42.78228" lon="0.65007">
        <ele>1772</ele>
        <time>2018-11-25T00:02:48Z</time>
      </trkpt>
      <trkpt lat="42.78226" lon="0.65008">
        <ele>1771.7</ele>
        <time>2018-11-25T00:02:49Z</time>
      </trkpt>
      <trkpt lat="42.78224" lon="0.65009">
        <ele>1771.4</ele>
        <time>2018-11-25T00:02:50Z</time>
      </trkpt>
      <trkpt lat="42.78221" lon="0.65009">
        <ele>1771.4</ele>
        <time>2018-11-25T00:02:51Z</time>
      </trkpt>
      <trkpt lat="42.78219" lon="0.65009">
        <ele>1771.2</ele>
        <time>2018-11-25T00:02:52Z</time>
      </trkpt>
      <trkpt lat="42.78217" lon="0.65009">
        <ele>1771.2</ele>
        <time>2018-11-25T00:02:53Z</time>
      </trkpt>
      <trkpt lat="42.78215" lon="0.65009">
        <ele>1771.5</ele>
        <time>2018-11-25T00:02:54Z</time>
      </trkpt>
      <trkpt lat="42.78213" lon="0.65008">
        <ele>1771.6</ele>
        <time>2018-11-25T00:02:55Z</time>
      </trkpt>
      <trkpt lat="42.7821" lon="0.65008">
        <ele>1771.7</ele>
        <time>2018-11-25T00:02:56Z</time>
      </trkpt>
      <trkpt lat="42.78208" lon="0.65009">
        <ele>1771.6</ele>
        <time>2018-11-25T00:02:56Z</time>
      </trkpt>
      <trkpt lat="42.78206" lon="0.65009">
        <ele>1771.3</ele>
        <time>2018-11-25T00:02:57Z</time>
      </trkpt>
      <trkpt lat="42.78204" lon="0.6501">
        <ele>1771</ele>
        <time>2018-11-25T00:02:58Z</time>
      </trkpt>
      <trkpt lat="42.78202" lon="0.65011">
        <ele>1770.7</ele>
        <time>2018-11-25T00:02:59Z</time>
      </trkpt>
      <trkpt lat="42.782" lon="0.65012">
        <ele>1770.3</ele>
        <time>2018-11-25T00:03:00Z</time>
      </trkpt>
      <trkpt lat="42.78198" lon="0.65014">
        <ele>1769.7</ele>
        <time>2018-11-25T00:03:01Z</time>
      </trkpt>
      <trkpt lat="42.78197" lon="0.65015">
        <ele>1769</ele>
        <time>2018-11-25T00:03:02Z</time>
      </trkpt>
      <trkpt lat="42.78195" lon="0.65017">
        <ele>1768.3</ele>
        <time>2018-11-25T00:03:02Z</time>
      </trkpt>
      <trkpt lat="42.78194" lon="0.6502">
        <ele>1767.1</ele>
        <time>2018-11-25T00:03:03Z</time>
      </trkpt>
      <trkpt lat="42.78193" lon="0.65023">
        <ele>1766.1</ele>
        <time>2018-11-25T00:03:04Z</time>
      </trkpt>
      <trkpt lat="42.78191" lon="0.65026">
        <ele>1765.2</ele>
        <time>2018-11-25T00:03:05Z</time>
      </trkpt>
      <trkpt lat="42.7819" lon="0.65028">
        <ele>1764.1</ele>
        <time>2018-11-25T00:03:06Z</time>
      </trkpt>
      <trkpt lat="42.78189" lon="0.6503">
        <ele>1763.2</ele>
        <time>2018-11-25T00:03:07Z</time>
      </trkpt>
      <trkpt lat="42.78187" lon="0.65032">
        <ele>1762.5</ele>
        <time>2018-11-25T00:03:08Z</time>
      </trkpt>
      <trkpt lat="42.78186" lon="0.65034">
        <ele>1761.7</ele>
        <time>2018-11-25T00:03:09Z</time>
      </trkpt>
      <trkpt lat="42.78185" lon="0.65036">
        <ele>1760.8</ele>
        <time>2018-11-25T00:03:09Z</time>
      </trkpt>
      <trkpt lat="42.78184" lon="0.65039">
        <ele>1759.7</ele>
        <time>2018-11-25T00:03:10Z</time>
      </trkpt>
      <trkpt lat="42.78183" lon="0.65042">
        <ele>1758.5</ele>
        <time>2018-11-25T00:03:11Z</time>
      </trkpt>
      <trkpt lat="42.78182" lon="0.65045">
        <ele>1757.5</ele>
        <time>2018-11-25T00:03:12Z</time>
      </trkpt>
      <trkpt lat="42.7818" lon="0.65048">
        <ele>1756.4</ele>
        <time>2018-11-25T00:03:13Z</time>
      </trkpt>
      <trkpt lat="42.78179" lon="0.65051">
        <ele>1755.1</ele>
        <time>2018-11-25T00:03:14Z</time>
      </trkpt>
      <trkpt lat="42.78178" lon="0.65053">
        <ele>1754.1</ele>
        <time>2018-11-25T00:03:15Z</time>
      </trkpt>
      <trkpt lat="42.78177" lon="0.65056">
        <ele>1752.9</ele>
        <time>2018-11-25T00:03:16Z</time>
      </trkpt>
      <trkpt lat="42.78176" lon="0.65059">
        <ele>1751.9</ele>
        <time>2018-11-25T00:03:17Z</time>
      </trkpt>
      <trkpt lat="42.78174" lon="0.65061">
        <ele>1750.9</ele>
        <time>2018-11-25T00:03:18Z</time>
      </trkpt>
      <trkpt lat="42.78173" lon="0.65063">
        <ele>1750</ele>
        <time>2018-11-25T00:03:19Z</time>
      </trkpt>
      <trkpt lat="42.78171" lon="0.65064">
        <ele>1749.4</ele>
        <time>2018-11-25T00:03:19Z</time>
      </trkpt>
      <trkpt lat="42.78169" lon="0.65066">
        <ele>1748.9</ele>
        <time>2018-11-25T00:03:20Z</time>
      </trkpt>
      <trkpt lat="42.78167" lon="0.65066">
        <ele>1748.7</ele>
        <time>2018-11-25T00:03:21Z</time>
      </trkpt>
      <trkpt lat="42.78165" lon="0.65067">
        <ele>1748.2</ele>
        <time>2018-11-25T00:03:22Z</time>
      </trkpt>
      <trkpt lat="42.78163" lon="0.65069">
        <ele>1747.4</ele>
        <time>2018-11-25T00:03:23Z</time>
      </trkpt>
      <trkpt lat="42.7816" lon="0.6507">
        <ele>1746.9</ele>
        <time>2018-11-25T00:03:24Z</time>
      </trkpt>
      <trkpt lat="42.78158" lon="0.65071">
        <ele>1746.7</ele>
        <time>2018-11-25T00:03:25Z</time>
      </trkpt>
      <trkpt lat="42.78156" lon="0.65072">
        <ele>1746.2</ele>
        <time>2018-11-25T00:03:26Z</time>
      </trkpt>
      <trkpt lat="42.78154" lon="0.65074">
        <ele>1745.5</ele>
        <time>2018-11-25T00:03:27Z</time>
      </trkpt>
      <trkpt lat="42.78152" lon="0.65075">
        <ele>1744.9</ele>
        <time>2018-11-25T00:03:28Z</time>
      </trkpt>
      <trkpt lat="42.7815" lon="0.65077">
        <ele>1743.9</ele>
        <time>2018-11-25T00:03:29Z</time>
      </trkpt>
      <trkpt lat="42.78148" lon="0.65079">
        <ele>1742.8</ele>
        <time>2018-11-25T00:03:30Z</time>
      </trkpt>
      <trkpt lat="42.78145" lon="0.65081">
        <ele>1742.2</ele>
        <time>2018-11-25T00:03:31Z</time>
      </trkpt>
      <trkpt lat="42.78143" lon="0.65081">
        <ele>1741.8</ele>
        <time>2018-11-25T00:03:32Z</time>
      </trkpt>
      <trkpt lat="42.78141" lon="0.65084">
        <ele>1740.4</ele>
        <time>2018-11-25T00:03:33Z</time>
      </trkpt>
      <trkpt lat="42.7814" lon="0.65088">
        <ele>1738.5</ele>
        <time>2018-11-25T00:03:34Z</time>
      </trkpt>
      <trkpt lat="42.78139" lon="0.65091">
        <ele>1737.2</ele>
        <time>2018-11-25T00:03:35Z</time>
      </trkpt>
      <trkpt lat="42.78136" lon="0.65093">
        <ele>1736</ele>
        <time>2018-11-25T00:03:36Z</time>
      </trkpt>
      <trkpt lat="42.78134" lon="0.65094">
        <ele>1735.5</ele>
        <time>2018-11-25T00:03:37Z</time>
      </trkpt>
      <trkpt lat="42.78131" lon="0.65094">
        <ele>1735.4</ele>
        <time>2018-11-25T00:03:39Z</time>
      </trkpt>
      <trkpt lat="42.78129" lon="0.65095">
        <ele>1734.9</ele>
        <time>2018-11-25T00:03:39Z</time>
      </trkpt>
      <trkpt lat="42.78127" lon="0.65095">
        <ele>1734.6</ele>
        <time>2018-11-25T00:03:40Z</time>
      </trkpt>
      <trkpt lat="42.78125" lon="0.65097">
        <ele>1733.6</ele>
        <time>2018-11-25T00:03:41Z</time>
      </trkpt>
      <trkpt lat="42.78122" lon="0.65098">
        <ele>1732.9</ele>
        <time>2018-11-25T00:03:42Z</time>
      </trkpt>
      <trkpt lat="42.7812" lon="0.65099">
        <ele>1732.2</ele>
        <time>2018-11-25T00:03:43Z</time>
      </trkpt>
      <trkpt lat="42.78118" lon="0.65101">
        <ele>1731.3</ele>
        <time>2018-11-25T00:03:44Z</time>
      </trkpt>
      <trkpt lat="42.78116" lon="0.651">
        <ele>1731.2</ele>
        <time>2018-11-25T00:03:45Z</time>
      </trkpt>
      <trkpt lat="42.78114" lon="0.65101">
        <ele>1730.6</ele>
        <time>2018-11-25T00:03:46Z</time>
      </trkpt>
      <trkpt lat="42.78112" lon="0.65101">
        <ele>1730.5</ele>
        <time>2018-11-25T00:03:47Z</time>
      </trkpt>
      <trkpt lat="42.78109" lon="0.65102">
        <ele>1729.9</ele>
        <time>2018-11-25T00:03:48Z</time>
      </trkpt>
      <trkpt lat="42.78107" lon="0.65102">
        <ele>1729.4</ele>
        <time>2018-11-25T00:03:49Z</time>
      </trkpt>
      <trkpt lat="42.78104" lon="0.65104">
        <ele>1728.1</ele>
        <time>2018-11-25T00:03:50Z</time>
      </trkpt>
      <trkpt lat="42.78102" lon="0.65105">
        <ele>1727.3</ele>
        <time>2018-11-25T00:03:51Z</time>
      </trkpt>
      <trkpt lat="42.781" lon="0.65106">
        <ele>1726.9</ele>
        <time>2018-11-25T00:03:52Z</time>
      </trkpt>
      <trkpt lat="42.78096" lon="0.65108">
        <ele>1725.3</ele>
        <time>2018-11-25T00:03:53Z</time>
      </trkpt>
      <trkpt lat="42.78095" lon="0.6511">
        <ele>1724.3</ele>
        <time>2018-11-25T00:03:54Z</time>
      </trkpt>
      <trkpt lat="42.78092" lon="0.65111">
        <ele>1723.2</ele>
        <time>2018-11-25T00:03:55Z</time>
      </trkpt>
      <trkpt lat="42.78089" lon="0.65112">
        <ele>1722.2</ele>
        <time>2018-11-25T00:03:57Z</time>
      </trkpt>
      <trkpt lat="42.78087" lon="0.65112">
        <ele>1721.8</ele>
        <time>2018-11-25T00:03:57Z</time>
      </trkpt>
      <trkpt lat="42.78085" lon="0.65112">
        <ele>1721.6</ele>
        <time>2018-11-25T00:03:58Z</time>
      </trkpt>
      <trkpt lat="42.78082" lon="0.65113">
        <ele>1720.6</ele>
        <time>2018-11-25T00:04:00Z</time>
      </trkpt>
      <trkpt lat="42.7808" lon="0.65115">
        <ele>1719.5</ele>
        <time>2018-11-25T00:04:00Z</time>
      </trkpt>
      <trkpt lat="42.78078" lon="0.65117">
        <ele>1717.9</ele>
        <time>2018-11-25T00:04:01Z</time>
      </trkpt>
      <trkpt lat="42.78078" lon="0.6512">
        <ele>1716.3</ele>
        <time>2018-11-25T00:04:02Z</time>
      </trkpt>
      <trkpt lat="42.78078" lon="0.65124">
        <ele>1714.4</ele>
        <time>2018-11-25T00:04:03Z</time>
      </trkpt>
      <trkpt lat="42.78079" lon="0.65126">
        <ele>1713.5</ele>
        <time>2018-11-25T00:04:04Z</time>
      </trkpt>
      <trkpt lat="42.7808" lon="0.65129">
        <ele>1712.2</ele>
        <time>2018-11-25T00:04:05Z</time>
      </trkpt>
      <trkpt lat="42.78083" lon="0.65132">
        <ele>1711.2</ele>
        <time>2018-11-25T00:04:07Z</time>
      </trkpt>
      <trkpt lat="42.78086" lon="0.65135">
        <ele>1710.4</ele>
        <time>2018-11-25T00:04:08Z</time>
      </trkpt>
      <trkpt lat="42.78088" lon="0.65136">
        <ele>1710</ele>
        <time>2018-11-25T00:04:09Z</time>
      </trkpt>
      <trkpt lat="42.7809" lon="0.65138">
        <ele>1709.3</ele>
        <time>2018-11-25T00:04:10Z</time>
      </trkpt>
      <trkpt lat="42.78091" lon="0.6514">
        <ele>1708.6</ele>
        <time>2018-11-25T00:04:11Z</time>
      </trkpt>
      <trkpt lat="42.78093" lon="0.65142">
        <ele>1708.3</ele>
        <time>2018-11-25T00:04:12Z</time>
      </trkpt>
      <trkpt lat="42.78095" lon="0.65143">
        <ele>1707.9</ele>
        <time>2018-11-25T00:04:13Z</time>
      </trkpt>
      <trkpt lat="42.78097" lon="0.65144">
        <ele>1707.4</ele>
        <time>2018-11-25T00:04:13Z</time>
      </trkpt>
      <trkpt lat="42.78099" lon="0.65148">
        <ele>1705.7</ele>
        <time>2018-11-25T00:04:15Z</time>
      </trkpt>
      <trkpt lat="42.78102" lon="0.65152">
        <ele>1704.2</ele>
        <time>2018-11-25T00:04:16Z</time>
      </trkpt>
      <trkpt lat="42.78103" lon="0.65154">
        <ele>1703.6</ele>
        <time>2018-11-25T00:04:17Z</time>
      </trkpt>
      <trkpt lat="42.78104" lon="0.65157">
        <ele>1701.9</ele>
        <time>2018-11-25T00:04:18Z</time>
      </trkpt>
      <trkpt lat="42.78104" lon="0.6516">
        <ele>1700.5</ele>
        <time>2018-11-25T00:04:19Z</time>
      </trkpt>
      <trkpt lat="42.78105" lon="0.65163">
        <ele>1699.2</ele>
        <time>2018-11-25T00:04:20Z</time>
      </trkpt>
      <trkpt lat="42.78106" lon="0.65165">
        <ele>1698.7</ele>
        <time>2018-11-25T00:04:21Z</time>
      </trkpt>
      <trkpt lat="42.78107" lon="0.65166">
        <ele>1697.9</ele>
        <time>2018-11-25T00:04:21Z</time>
      </trkpt>
      <trkpt lat="42.7811" lon="0.65169">
        <ele>1697</ele>
        <time>2018-11-25T00:04:22Z</time>
      </trkpt>
      <trkpt lat="42.78112" lon="0.65171">
        <ele>1696</ele>
        <time>2018-11-25T00:04:23Z</time>
      </trkpt>
      <trkpt lat="42.78113" lon="0.65174">
        <ele>1694.7</ele>
        <time>2018-11-25T00:04:25Z</time>
      </trkpt>
      <trkpt lat="42.78113" lon="0.65177">
        <ele>1693.2</ele>
        <time>2018-11-25T00:04:25Z</time>
      </trkpt>
      <trkpt lat="42.78114" lon="0.65181">
        <ele>1691.4</ele>
        <time>2018-11-25T00:04:27Z</time>
      </trkpt>
      <trkpt lat="42.78112" lon="0.65179">
        <ele>1692</ele>
        <time>2018-11-25T00:04:28Z</time>
      </trkpt>
      <trkpt lat="42.78109" lon="0.65179">
        <ele>1692</ele>
        <time>2018-11-25T00:04:29Z</time>
      </trkpt>
      <trkpt lat="42.78107" lon="0.65178">
        <ele>1691.7</ele>
        <time>2018-11-25T00:04:30Z</time>
      </trkpt>
      <trkpt lat="42.78105" lon="0.65178">
        <ele>1691.4</ele>
        <time>2018-11-25T00:04:31Z</time>
      </trkpt>
      <trkpt lat="42.78103" lon="0.65179">
        <ele>1690.7</ele>
        <time>2018-11-25T00:04:32Z</time>
      </trkpt>
      <trkpt lat="42.78102" lon="0.65182">
        <ele>1688.9</ele>
        <time>2018-11-25T00:04:33Z</time>
      </trkpt>
      <trkpt lat="42.781" lon="0.65185">
        <ele>1687.4</ele>
        <time>2018-11-25T00:04:34Z</time>
      </trkpt>
      <trkpt lat="42.78099" lon="0.65188">
        <ele>1685.7</ele>
        <time>2018-11-25T00:04:35Z</time>
      </trkpt>
      <trkpt lat="42.78096" lon="0.6519">
        <ele>1684.2</ele>
        <time>2018-11-25T00:04:36Z</time>
      </trkpt>
      <trkpt lat="42.78094" lon="0.6519">
        <ele>1683.6</ele>
        <time>2018-11-25T00:04:37Z</time>
      </trkpt>
      <trkpt lat="42.7809" lon="0.65191">
        <ele>1682.7</ele>
        <time>2018-11-25T00:04:38Z</time>
      </trkpt>
      <trkpt lat="42.78088" lon="0.65192">
        <ele>1681.7</ele>
        <time>2018-11-25T00:04:39Z</time>
      </trkpt>
      <trkpt lat="42.78086" lon="0.65193">
        <ele>1680.7</ele>
        <time>2018-11-25T00:04:40Z</time>
      </trkpt>
      <trkpt lat="42.78083" lon="0.65193">
        <ele>1680</ele>
        <time>2018-11-25T00:04:41Z</time>
      </trkpt>
      <trkpt lat="42.78081" lon="0.65195">
        <ele>1678.8</ele>
        <time>2018-11-25T00:04:42Z</time>
      </trkpt>
      <trkpt lat="42.78078" lon="0.65196">
        <ele>1677.6</ele>
        <time>2018-11-25T00:04:43Z</time>
      </trkpt>
      <trkpt lat="42.78076" lon="0.65196">
        <ele>1677.1</ele>
        <time>2018-11-25T00:04:44Z</time>
      </trkpt>
      <trkpt lat="42.78073" lon="0.65198">
        <ele>1675.2</ele>
        <time>2018-11-25T00:04:46Z</time>
      </trkpt>
      <trkpt lat="42.7807" lon="0.65201">
        <ele>1673.2</ele>
        <time>2018-11-25T00:04:47Z</time>
      </trkpt>
      <trkpt lat="42.78068" lon="0.65202">
        <ele>1672.3</ele>
        <time>2018-11-25T00:04:48Z</time>
      </trkpt>
      <trkpt lat="42.78065" lon="0.65201">
        <ele>1672</ele>
        <time>2018-11-25T00:04:49Z</time>
      </trkpt>
      <trkpt lat="42.78063" lon="0.65202">
        <ele>1671</ele>
        <time>2018-11-25T00:04:50Z</time>
      </trkpt>
      <trkpt lat="42.78059" lon="0.65205">
        <ele>1668.6</ele>
        <time>2018-11-25T00:04:52Z</time>
      </trkpt>
      <trkpt lat="42.78057" lon="0.65207">
        <ele>1667.4</ele>
        <time>2018-11-25T00:04:53Z</time>
      </trkpt>
      <trkpt lat="42.78055" lon="0.65208">
        <ele>1666.1</ele>
        <time>2018-11-25T00:04:54Z</time>
      </trkpt>
      <trkpt lat="42.78052" lon="0.65209">
        <ele>1665.4</ele>
        <time>2018-11-25T00:04:55Z</time>
      </trkpt>
      <trkpt lat="42.78049" lon="0.65209">
        <ele>1664.6</ele>
        <time>2018-11-25T00:04:56Z</time>
      </trkpt>
      <trkpt lat="42.78047" lon="0.6521">
        <ele>1663.6</ele>
        <time>2018-11-25T00:04:57Z</time>
      </trkpt>
      <trkpt lat="42.78045" lon="0.65211">
        <ele>1662.4</ele>
        <time>2018-11-25T00:04:58Z</time>
      </trkpt>
      <trkpt lat="42.78044" lon="0.65215">
        <ele>1660.2</ele>
        <time>2018-11-25T00:04:59Z</time>
      </trkpt>
      <trkpt lat="42.78043" lon="0.65219">
        <ele>1658.4</ele>
        <time>2018-11-25T00:05:00Z</time>
      </trkpt>
      <trkpt lat="42.7804" lon="0.6522">
        <ele>1656.9</ele>
        <time>2018-11-25T00:05:01Z</time>
      </trkpt>
      <trkpt lat="42.78038" lon="0.65222">
        <ele>1655.8</ele>
        <time>2018-11-25T00:05:02Z</time>
      </trkpt>
      <trkpt lat="42.78035" lon="0.65222">
        <ele>1654.6</ele>
        <time>2018-11-25T00:05:04Z</time>
      </trkpt>
      <trkpt lat="42.78031" lon="0.65223">
        <ele>1653.6</ele>
        <time>2018-11-25T00:05:05Z</time>
      </trkpt>
      <trkpt lat="42.78029" lon="0.65223">
        <ele>1653.1</ele>
        <time>2018-11-25T00:05:06Z</time>
      </trkpt>
      <trkpt lat="42.78028" lon="0.65224">
        <ele>1652.4</ele>
        <time>2018-11-25T00:05:07Z</time>
      </trkpt>
      <trkpt lat="42.78025" lon="0.65226">
        <ele>1651</ele>
        <time>2018-11-25T00:05:08Z</time>
      </trkpt>
      <trkpt lat="42.78023" lon="0.65228">
        <ele>1649.4</ele>
        <time>2018-11-25T00:05:09Z</time>
      </trkpt>
      <trkpt lat="42.78021" lon="0.6523">
        <ele>1648.1</ele>
        <time>2018-11-25T00:05:10Z</time>
      </trkpt>
      <trkpt lat="42.78019" lon="0.65232">
        <ele>1646.7</ele>
        <time>2018-11-25T00:05:11Z</time>
      </trkpt>
      <trkpt lat="42.78017" lon="0.65233">
        <ele>1645.6</ele>
        <time>2018-11-25T00:05:12Z</time>
      </trkpt>
      <trkpt lat="42.78015" lon="0.65234">
        <ele>1644.4</ele>
        <time>2018-11-25T00:05:13Z</time>
      </trkpt>
      <trkpt lat="42.78012" lon="0.65237">
        <ele>1642.9</ele>
        <time>2018-11-25T00:05:14Z</time>
      </trkpt>
      <trkpt lat="42.78012" lon="0.65239">
        <ele>1641.6</ele>
        <time>2018-11-25T00:05:15Z</time>
      </trkpt>
      <trkpt lat="42.78014" lon="0.65243">
        <ele>1640.3</ele>
        <time>2018-11-25T00:05:16Z</time>
      </trkpt>
      <trkpt lat="42.78015" lon="0.65245">
        <ele>1639.7</ele>
        <time>2018-11-25T00:05:17Z</time>
      </trkpt>
      <trkpt lat="42.78016" lon="0.65247">
        <ele>1639.1</ele>
        <time>2018-11-25T00:05:17Z</time>
      </trkpt>
      <trkpt lat="42.78018" lon="0.65249">
        <ele>1638.6</ele>
        <time>2018-11-25T00:05:18Z</time>
      </trkpt>
      <trkpt lat="42.78019" lon="0.65251">
        <ele>1638</ele>
        <time>2018-11-25T00:05:19Z</time>
      </trkpt>
      <trkpt lat="42.7802" lon="0.65253">
        <ele>1637.2</ele>
        <time>2018-11-25T00:05:20Z</time>
      </trkpt>
      <trkpt lat="42.78022" lon="0.65255">
        <ele>1636.5</ele>
        <time>2018-11-25T00:05:21Z</time>
      </trkpt>
      <trkpt lat="42.78024" lon="0.65258">
        <ele>1635.8</ele>
        <time>2018-11-25T00:05:22Z</time>
      </trkpt>
      <trkpt lat="42.78026" lon="0.6526">
        <ele>1635.1</ele>
        <time>2018-11-25T00:05:23Z</time>
      </trkpt>
      <trkpt lat="42.78028" lon="0.65264">
        <ele>1633.8</ele>
        <time>2018-11-25T00:05:24Z</time>
      </trkpt>
      <trkpt lat="42.78027" lon="0.65267">
        <ele>1632</ele>
        <time>2018-11-25T00:05:25Z</time>
      </trkpt>
      <trkpt lat="42.78028" lon="0.6527">
        <ele>1630.9</ele>
        <time>2018-11-25T00:05:26Z</time>
      </trkpt>
      <trkpt lat="42.7803" lon="0.65273">
        <ele>1630</ele>
        <time>2018-11-25T00:05:27Z</time>
      </trkpt>
      <trkpt lat="42.78032" lon="0.65275">
        <ele>1629.4</ele>
        <time>2018-11-25T00:05:29Z</time>
      </trkpt>
      <trkpt lat="42.78035" lon="0.65277">
        <ele>1629.1</ele>
        <time>2018-11-25T00:05:30Z</time>
      </trkpt>
      <trkpt lat="42.78038" lon="0.65278">
        <ele>1629.3</ele>
        <time>2018-11-25T00:05:31Z</time>
      </trkpt>
      <trkpt lat="42.7804" lon="0.65281">
        <ele>1628.6</ele>
        <time>2018-11-25T00:05:32Z</time>
      </trkpt>
      <trkpt lat="42.78042" lon="0.65283">
        <ele>1628.2</ele>
        <time>2018-11-25T00:05:33Z</time>
      </trkpt>
      <trkpt lat="42.7804" lon="0.65285">
        <ele>1626.9</ele>
        <time>2018-11-25T00:05:34Z</time>
      </trkpt>
      <trkpt lat="42.78037" lon="0.65285">
        <ele>1626</ele>
        <time>2018-11-25T00:05:35Z</time>
      </trkpt>
      <trkpt lat="42.78035" lon="0.65287">
        <ele>1624.8</ele>
        <time>2018-11-25T00:05:36Z</time>
      </trkpt>
      <trkpt lat="42.78032" lon="0.65288">
        <ele>1623.8</ele>
        <time>2018-11-25T00:05:37Z</time>
      </trkpt>
      <trkpt lat="42.78028" lon="0.6529">
        <ele>1622.2</ele>
        <time>2018-11-25T00:05:39Z</time>
      </trkpt>
      <trkpt lat="42.78019" lon="0.65294">
        <ele>1618.8</ele>
        <time>2018-11-25T00:05:43Z</time>
      </trkpt>
      <trkpt lat="42.7801" lon="0.65297">
        <ele>1615.5</ele>
        <time>2018-11-25T00:05:47Z</time>
      </trkpt>
      <trkpt lat="42.78" lon="0.65298">
        <ele>1613.5</ele>
        <time>2018-11-25T00:05:51Z</time>
      </trkpt>
      <trkpt lat="42.77991" lon="0.653">
        <ele>1610.5</ele>
        <time>2018-11-25T00:05:54Z</time>
      </trkpt>
      <trkpt lat="42.77984" lon="0.65309">
        <ele>1605.9</ele>
        <time>2018-11-25T00:05:58Z</time>
      </trkpt>
      <trkpt lat="42.77976" lon="0.65314">
        <ele>1602.1</ele>
        <time>2018-11-25T00:06:02Z</time>
      </trkpt>
      <trkpt lat="42.77967" lon="0.65318">
        <ele>1598.7</ele>
        <time>2018-11-25T00:06:05Z</time>
      </trkpt>
      <trkpt lat="42.77957" lon="0.65322">
        <ele>1595.5</ele>
        <time>2018-11-25T00:06:10Z</time>
      </trkpt>
      <trkpt lat="42.77948" lon="0.65322">
        <ele>1593.5</ele>
        <time>2018-11-25T00:06:13Z</time>
      </trkpt>
      <trkpt lat="42.7794" lon="0.65333">
        <ele>1587.8</ele>
        <time>2018-11-25T00:06:18Z</time>
      </trkpt>
      <trkpt lat="42.77933" lon="0.6534">
        <ele>1583.7</ele>
        <time>2018-11-25T00:06:21Z</time>
      </trkpt>
      <trkpt lat="42.77927" lon="0.65351">
        <ele>1578.5</ele>
        <time>2018-11-25T00:06:25Z</time>
      </trkpt>
      <trkpt lat="42.77925" lon="0.65358">
        <ele>1575.7</ele>
        <time>2018-11-25T00:06:27Z</time>
      </trkpt>
      <trkpt lat="42.77925" lon="0.65361">
        <ele>1574.5</ele>
        <time>2018-11-25T00:06:28Z</time>
      </trkpt>
      <trkpt lat="42.77924" lon="0.65364">
        <ele>1573.3</ele>
        <time>2018-11-25T00:06:29Z</time>
      </trkpt>
      <trkpt lat="42.77923" lon="0.65368">
        <ele>1571.5</ele>
        <time>2018-11-25T00:06:31Z</time>
      </trkpt>
      <trkpt lat="42.77922" lon="0.65371">
        <ele>1570.4</ele>
        <time>2018-11-25T00:06:31Z</time>
      </trkpt>
      <trkpt lat="42.77921" lon="0.65375">
        <ele>1568.9</ele>
        <time>2018-11-25T00:06:33Z</time>
      </trkpt>
      <trkpt lat="42.7792" lon="0.65378">
        <ele>1567.7</ele>
        <time>2018-11-25T00:06:34Z</time>
      </trkpt>
      <trkpt lat="42.77918" lon="0.65383">
        <ele>1565.9</ele>
        <time>2018-11-25T00:06:35Z</time>
      </trkpt>
      <trkpt lat="42.77918" lon="0.65385">
        <ele>1565</ele>
        <time>2018-11-25T00:06:36Z</time>
      </trkpt>
      <trkpt lat="42.77916" lon="0.65388">
        <ele>1563.8</ele>
        <time>2018-11-25T00:06:37Z</time>
      </trkpt>
      <trkpt lat="42.77914" lon="0.65391">
        <ele>1562.4</ele>
        <time>2018-11-25T00:06:38Z</time>
      </trkpt>
      <trkpt lat="42.77914" lon="0.65395">
        <ele>1561.2</ele>
        <time>2018-11-25T00:06:40Z</time>
      </trkpt>
      <trkpt lat="42.77915" lon="0.65399">
        <ele>1560.1</ele>
        <time>2018-11-25T00:06:41Z</time>
      </trkpt>
      <trkpt lat="42.77914" lon="0.65402">
        <ele>1559.1</ele>
        <time>2018-11-25T00:06:42Z</time>
      </trkpt>
      <trkpt lat="42.77914" lon="0.65407">
        <ele>1557.9</ele>
        <time>2018-11-25T00:06:43Z</time>
      </trkpt>
      <trkpt lat="42.77914" lon="0.65412">
        <ele>1556.4</ele>
        <time>2018-11-25T00:06:44Z</time>
      </trkpt>
      <trkpt lat="42.77913" lon="0.65414">
        <ele>1555.7</ele>
        <time>2018-11-25T00:06:45Z</time>
      </trkpt>
      <trkpt lat="42.77913" lon="0.65417">
        <ele>1555</ele>
        <time>2018-11-25T00:06:46Z</time>
      </trkpt>
      <trkpt lat="42.77912" lon="0.65421">
        <ele>1553.7</ele>
        <time>2018-11-25T00:06:47Z</time>
      </trkpt>
      <trkpt lat="42.77911" lon="0.65424">
        <ele>1552.6</ele>
        <time>2018-11-25T00:06:48Z</time>
      </trkpt>
      <trkpt lat="42.77909" lon="0.65427">
        <ele>1551.6</ele>
        <time>2018-11-25T00:06:50Z</time>
      </trkpt>
      <trkpt lat="42.77906" lon="0.65429">
        <ele>1550.7</ele>
        <time>2018-11-25T00:06:51Z</time>
      </trkpt>
      <trkpt lat="42.77904" lon="0.65431">
        <ele>1550.2</ele>
        <time>2018-11-25T00:06:52Z</time>
      </trkpt>
      <trkpt lat="42.77902" lon="0.65434">
        <ele>1548.8</ele>
        <time>2018-11-25T00:06:53Z</time>
      </trkpt>
      <trkpt lat="42.77899" lon="0.65436">
        <ele>1548.1</ele>
        <time>2018-11-25T00:06:54Z</time>
      </trkpt>
      <trkpt lat="42.77896" lon="0.65437">
        <ele>1547.6</ele>
        <time>2018-11-25T00:06:55Z</time>
      </trkpt>
      <trkpt lat="42.77893" lon="0.65438">
        <ele>1546.9</ele>
        <time>2018-11-25T00:06:57Z</time>
      </trkpt>
      <trkpt lat="42.7789" lon="0.65438">
        <ele>1546.6</ele>
        <time>2018-11-25T00:06:58Z</time>
      </trkpt>
      <trkpt lat="42.77886" lon="0.65437">
        <ele>1546.4</ele>
        <time>2018-11-25T00:06:59Z</time>
      </trkpt>
      <trkpt lat="42.77884" lon="0.65437">
        <ele>1546.2</ele>
        <time>2018-11-25T00:07:00Z</time>
      </trkpt>
      <trkpt lat="42.77882" lon="0.65438">
        <ele>1545.8</ele>
        <time>2018-11-25T00:07:01Z</time>
      </trkpt>
      <trkpt lat="42.7788" lon="0.65439">
        <ele>1545.2</ele>
        <time>2018-11-25T00:07:02Z</time>
      </trkpt>
      <trkpt lat="42.77876" lon="0.6544">
        <ele>1544.7</ele>
        <time>2018-11-25T00:07:03Z</time>
      </trkpt>
      <trkpt lat="42.77874" lon="0.6544">
        <ele>1544.6</ele>
        <time>2018-11-25T00:07:04Z</time>
      </trkpt>
      <trkpt lat="42.77871" lon="0.6544">
        <ele>1544.1</ele>
        <time>2018-11-25T00:07:06Z</time>
      </trkpt>
      <trkpt lat="42.77868" lon="0.6544">
        <ele>1543.9</ele>
        <time>2018-11-25T00:07:07Z</time>
      </trkpt>
      <trkpt lat="42.77865" lon="0.65439">
        <ele>1543.8</ele>
        <time>2018-11-25T00:07:08Z</time>
      </trkpt>
      <trkpt lat="42.77863" lon="0.65439">
        <ele>1543.7</ele>
        <time>2018-11-25T00:07:09Z</time>
      </trkpt>
      <trkpt lat="42.77856" lon="0.6543">
        <ele>1545.3</ele>
        <time>2018-11-25T00:07:13Z</time>
      </trkpt>
      <trkpt lat="42.77845" lon="0.65428">
        <ele>1545.1</ele>
        <time>2018-11-25T00:07:17Z</time>
      </trkpt>
      <trkpt lat="42.77836" lon="0.65431">
        <ele>1543.9</ele>
        <time>2018-11-25T00:07:21Z</time>
      </trkpt>
      <trkpt lat="42.77826" lon="0.65434">
        <ele>1543</ele>
        <time>2018-11-25T00:07:25Z</time>
      </trkpt>
      <trkpt lat="42.77818" lon="0.65443">
        <ele>1540.9</ele>
        <time>2018-11-25T00:07:29Z</time>
      </trkpt>
      <trkpt lat="42.77816" lon="0.65455">
        <ele>1538.2</ele>
        <time>2018-11-25T00:07:33Z</time>
      </trkpt>
      <trkpt lat="42.77816" lon="0.65468">
        <ele>1535.5</ele>
        <time>2018-11-25T00:07:36Z</time>
      </trkpt>
      <trkpt lat="42.77813" lon="0.6548">
        <ele>1533.1</ele>
        <time>2018-11-25T00:07:40Z</time>
      </trkpt>
      <trkpt lat="42.77812" lon="0.65483">
        <ele>1532.6</ele>
        <time>2018-11-25T00:07:41Z</time>
      </trkpt>
      <trkpt lat="42.7781" lon="0.65485">
        <ele>1532.3</ele>
        <time>2018-11-25T00:07:42Z</time>
      </trkpt>
      <trkpt lat="42.77808" lon="0.65487">
        <ele>1532</ele>
        <time>2018-11-25T00:07:43Z</time>
      </trkpt>
      <trkpt lat="42.77804" lon="0.6549">
        <ele>1531.7</ele>
        <time>2018-11-25T00:07:45Z</time>
      </trkpt>
      <trkpt lat="42.77801" lon="0.65491">
        <ele>1531.7</ele>
        <time>2018-11-25T00:07:46Z</time>
      </trkpt>
      <trkpt lat="42.778" lon="0.65491">
        <ele>1531.8</ele>
        <time>2018-11-25T00:07:47Z</time>
      </trkpt>
      <trkpt lat="42.77797" lon="0.65492">
        <ele>1532</ele>
        <time>2018-11-25T00:07:48Z</time>
      </trkpt>
      <trkpt lat="42.77796" lon="0.65493">
        <ele>1531.8</ele>
        <time>2018-11-25T00:07:48Z</time>
      </trkpt>
      <trkpt lat="42.77793" lon="0.65497">
        <ele>1531.5</ele>
        <time>2018-11-25T00:07:50Z</time>
      </trkpt>
      <trkpt lat="42.77792" lon="0.65499">
        <ele>1531.4</ele>
        <time>2018-11-25T00:07:51Z</time>
      </trkpt>
      <trkpt lat="42.77789" lon="0.65502">
        <ele>1531</ele>
        <time>2018-11-25T00:07:52Z</time>
      </trkpt>
      <trkpt lat="42.77787" lon="0.65505">
        <ele>1530.8</ele>
        <time>2018-11-25T00:07:53Z</time>
      </trkpt>
      <trkpt lat="42.77785" lon="0.65508">
        <ele>1530.6</ele>
        <time>2018-11-25T00:07:55Z</time>
      </trkpt>
      <trkpt lat="42.77783" lon="0.6551">
        <ele>1529.5</ele>
        <time>2018-11-25T00:07:56Z</time>
      </trkpt>
      <trkpt lat="42.77781" lon="0.65514">
        <ele>1529.8</ele>
        <time>2018-11-25T00:07:57Z</time>
      </trkpt>
      <trkpt lat="42.77779" lon="0.65516">
        <ele>1530</ele>
        <time>2018-11-25T00:07:58Z</time>
      </trkpt>
      <trkpt lat="42.77778" lon="0.65519">
        <ele>1529.8</ele>
        <time>2018-11-25T00:07:59Z</time>
      </trkpt>
      <trkpt lat="42.77777" lon="0.65521">
        <ele>1529.6</ele>
        <time>2018-11-25T00:08:00Z</time>
      </trkpt>
      <trkpt lat="42.77776" lon="0.65524">
        <ele>1529.2</ele>
        <time>2018-11-25T00:08:00Z</time>
      </trkpt>
      <trkpt lat="42.77774" lon="0.65526">
        <ele>1529</ele>
        <time>2018-11-25T00:08:01Z</time>
      </trkpt>
      <trkpt lat="42.77773" lon="0.65529">
        <ele>1528.9</ele>
        <time>2018-11-25T00:08:02Z</time>
      </trkpt>
      <trkpt lat="42.77771" lon="0.65532">
        <ele>1528.7</ele>
        <time>2018-11-25T00:08:03Z</time>
      </trkpt>
      <trkpt lat="42.77771" lon="0.65534">
        <ele>1528.4</ele>
        <time>2018-11-25T00:08:04Z</time>
      </trkpt>
      <trkpt lat="42.7777" lon="0.65536">
        <ele>1528</ele>
        <time>2018-11-25T00:08:05Z</time>
      </trkpt>
      <trkpt lat="42.77769" lon="0.65539">
        <ele>1527.7</ele>
        <time>2018-11-25T00:08:06Z</time>
      </trkpt>
      <trkpt lat="42.77767" lon="0.65543">
        <ele>1527.4</ele>
        <time>2018-11-25T00:08:07Z</time>
      </trkpt>
      <trkpt lat="42.77766" lon="0.65546">
        <ele>1527.2</ele>
        <time>2018-11-25T00:08:08Z</time>
      </trkpt>
      <trkpt lat="42.77765" lon="0.65549">
        <ele>1527</ele>
        <time>2018-11-25T00:08:09Z</time>
      </trkpt>
      <trkpt lat="42.77764" lon="0.65552">
        <ele>1526.6</ele>
        <time>2018-11-25T00:08:10Z</time>
      </trkpt>
      <trkpt lat="42.77762" lon="0.65554">
        <ele>1526.5</ele>
        <time>2018-11-25T00:08:11Z</time>
      </trkpt>
      <trkpt lat="42.7776" lon="0.65556">
        <ele>1526.5</ele>
        <time>2018-11-25T00:08:12Z</time>
      </trkpt>
      <trkpt lat="42.77758" lon="0.65559">
        <ele>1526.5</ele>
        <time>2018-11-25T00:08:13Z</time>
      </trkpt>
      <trkpt lat="42.77756" lon="0.65562">
        <ele>1526.2</ele>
        <time>2018-11-25T00:08:14Z</time>
      </trkpt>
      <trkpt lat="42.77755" lon="0.65566">
        <ele>1525.9</ele>
        <time>2018-11-25T00:08:16Z</time>
      </trkpt>
      <trkpt lat="42.77754" lon="0.65569">
        <ele>1525.5</ele>
        <time>2018-11-25T00:08:16Z</time>
      </trkpt>
      <trkpt lat="42.77753" lon="0.65572">
        <ele>1525.1</ele>
        <time>2018-11-25T00:08:17Z</time>
      </trkpt>
      <trkpt lat="42.77753" lon="0.65576">
        <ele>1524.5</ele>
        <time>2018-11-25T00:08:19Z</time>
      </trkpt>
      <trkpt lat="42.77753" lon="0.6558">
        <ele>1523.8</ele>
        <time>2018-11-25T00:08:20Z</time>
      </trkpt>
      <trkpt lat="42.77753" lon="0.65584">
        <ele>1523.3</ele>
        <time>2018-11-25T00:08:21Z</time>
      </trkpt>
      <trkpt lat="42.77752" lon="0.65587">
        <ele>1522.7</ele>
        <time>2018-11-25T00:08:22Z</time>
      </trkpt>
      <trkpt lat="42.77751" lon="0.65591">
        <ele>1522.4</ele>
        <time>2018-11-25T00:08:23Z</time>
      </trkpt>
      <trkpt lat="42.7775" lon="0.65595">
        <ele>1521.9</ele>
        <time>2018-11-25T00:08:24Z</time>
      </trkpt>
      <trkpt lat="42.7775" lon="0.65598">
        <ele>1521.4</ele>
        <time>2018-11-25T00:08:25Z</time>
      </trkpt>
      <trkpt lat="42.77749" lon="0.65602">
        <ele>1521.1</ele>
        <time>2018-11-25T00:08:26Z</time>
      </trkpt>
      <trkpt lat="42.77748" lon="0.65605">
        <ele>1519.4</ele>
        <time>2018-11-25T00:08:27Z</time>
      </trkpt>
      <trkpt lat="42.77749" lon="0.65608">
        <ele>1519.9</ele>
        <time>2018-11-25T00:08:28Z</time>
      </trkpt>
      <trkpt lat="42.77749" lon="0.65611">
        <ele>1519.6</ele>
        <time>2018-11-25T00:08:29Z</time>
      </trkpt>
      <trkpt lat="42.77749" lon="0.65614">
        <ele>1519</ele>
        <time>2018-11-25T00:08:30Z</time>
      </trkpt>
      <trkpt lat="42.77751" lon="0.65619">
        <ele>1517.6</ele>
        <time>2018-11-25T00:08:32Z</time>
      </trkpt>
      <trkpt lat="42.77751" lon="0.65623">
        <ele>1516.9</ele>
        <time>2018-11-25T00:08:33Z</time>
      </trkpt>
      <trkpt lat="42.77751" lon="0.65626">
        <ele>1516.3</ele>
        <time>2018-11-25T00:08:34Z</time>
      </trkpt>
      <trkpt lat="42.77751" lon="0.65629">
        <ele>1515.9</ele>
        <time>2018-11-25T00:08:35Z</time>
      </trkpt>
      <trkpt lat="42.77751" lon="0.65634">
        <ele>1514.7</ele>
        <time>2018-11-25T00:08:36Z</time>
      </trkpt>
      <trkpt lat="42.77752" lon="0.65637">
        <ele>1514</ele>
        <time>2018-11-25T00:08:37Z</time>
      </trkpt>
      <trkpt lat="42.77752" lon="0.65641">
        <ele>1513.5</ele>
        <time>2018-11-25T00:08:38Z</time>
      </trkpt>
      <trkpt lat="42.77753" lon="0.65644">
        <ele>1512.7</ele>
        <time>2018-11-25T00:08:39Z</time>
      </trkpt>
      <trkpt lat="42.77752" lon="0.65647">
        <ele>1512.5</ele>
        <time>2018-11-25T00:08:40Z</time>
      </trkpt>
      <trkpt lat="42.77754" lon="0.6566">
        <ele>1509.9</ele>
        <time>2018-11-25T00:08:44Z</time>
      </trkpt>
      <trkpt lat="42.77756" lon="0.65673">
        <ele>1507</ele>
        <time>2018-11-25T00:08:48Z</time>
      </trkpt>
      <trkpt lat="42.77757" lon="0.65687">
        <ele>1504.6</ele>
        <time>2018-11-25T00:08:52Z</time>
      </trkpt>
      <trkpt lat="42.77764" lon="0.65699">
        <ele>1499.9</ele>
        <time>2018-11-25T00:08:57Z</time>
      </trkpt>
      <trkpt lat="42.77768" lon="0.65713">
        <ele>1496.5</ele>
        <time>2018-11-25T00:09:01Z</time>
      </trkpt>
      <trkpt lat="42.77765" lon="0.65727">
        <ele>1495.6</ele>
        <time>2018-11-25T00:09:05Z</time>
      </trkpt>
      <trkpt lat="42.7776" lon="0.6574">
        <ele>1495.3</ele>
        <time>2018-11-25T00:09:10Z</time>
      </trkpt>
      <trkpt lat="42.77762" lon="0.65755">
        <ele>1492.1</ele>
        <time>2018-11-25T00:09:14Z</time>
      </trkpt>
      <trkpt lat="42.77764" lon="0.65769">
        <ele>1489.3</ele>
        <time>2018-11-25T00:09:18Z</time>
      </trkpt>
      <trkpt lat="42.77759" lon="0.65783">
        <ele>1489.3</ele>
        <time>2018-11-25T00:09:23Z</time>
      </trkpt>
      <trkpt lat="42.77756" lon="0.65794">
        <ele>1488.9</ele>
        <time>2018-11-25T00:09:27Z</time>
      </trkpt>
      <trkpt lat="42.77762" lon="0.65805">
        <ele>1484.9</ele>
        <time>2018-11-25T00:09:31Z</time>
      </trkpt>
      <trkpt lat="42.77766" lon="0.65812">
        <ele>1482.6</ele>
        <time>2018-11-25T00:09:33Z</time>
      </trkpt>
      <trkpt lat="42.77767" lon="0.65815">
        <ele>1481.6</ele>
        <time>2018-11-25T00:09:34Z</time>
      </trkpt>
      <trkpt lat="42.77769" lon="0.65818">
        <ele>1480.6</ele>
        <time>2018-11-25T00:09:35Z</time>
      </trkpt>
      <trkpt lat="42.7777" lon="0.65821">
        <ele>1480.2</ele>
        <time>2018-11-25T00:09:36Z</time>
      </trkpt>
      <trkpt lat="42.77771" lon="0.65823">
        <ele>1479</ele>
        <time>2018-11-25T00:09:37Z</time>
      </trkpt>
      <trkpt lat="42.77773" lon="0.65826">
        <ele>1478.1</ele>
        <time>2018-11-25T00:09:38Z</time>
      </trkpt>
      <trkpt lat="42.77775" lon="0.65828">
        <ele>1477.2</ele>
        <time>2018-11-25T00:09:39Z</time>
      </trkpt>
      <trkpt lat="42.77776" lon="0.6583">
        <ele>1476.5</ele>
        <time>2018-11-25T00:09:40Z</time>
      </trkpt>
      <trkpt lat="42.77777" lon="0.65832">
        <ele>1475.8</ele>
        <time>2018-11-25T00:09:41Z</time>
      </trkpt>
      <trkpt lat="42.77787" lon="0.65836">
        <ele>1472.1</ele>
        <time>2018-11-25T00:09:45Z</time>
      </trkpt>
      <trkpt lat="42.77797" lon="0.65843">
        <ele>1468</ele>
        <time>2018-11-25T00:09:49Z</time>
      </trkpt>
      <trkpt lat="42.77806" lon="0.65848">
        <ele>1464.8</ele>
        <time>2018-11-25T00:09:53Z</time>
      </trkpt>
      <trkpt lat="42.77809" lon="0.65849">
        <ele>1463.6</ele>
        <time>2018-11-25T00:09:54Z</time>
      </trkpt>
      <trkpt lat="42.77811" lon="0.6585">
        <ele>1463.1</ele>
        <time>2018-11-25T00:09:55Z</time>
      </trkpt>
      <trkpt lat="42.77812" lon="0.65852">
        <ele>1462.4</ele>
        <time>2018-11-25T00:09:56Z</time>
      </trkpt>
      <trkpt lat="42.77816" lon="0.65854">
        <ele>1461.1</ele>
        <time>2018-11-25T00:09:57Z</time>
      </trkpt>
      <trkpt lat="42.77817" lon="0.65856">
        <ele>1460.4</ele>
        <time>2018-11-25T00:09:58Z</time>
      </trkpt>
      <trkpt lat="42.77828" lon="0.6585">
        <ele>1458.6</ele>
        <time>2018-11-25T00:10:03Z</time>
      </trkpt>
      <trkpt lat="42.77833" lon="0.65855">
        <ele>1456.9</ele>
        <time>2018-11-25T00:10:05Z</time>
      </trkpt>
      <trkpt lat="42.77835" lon="0.65857">
        <ele>1456.1</ele>
        <time>2018-11-25T00:10:06Z</time>
      </trkpt>
      <trkpt lat="42.77836" lon="0.65859">
        <ele>1455.5</ele>
        <time>2018-11-25T00:10:07Z</time>
      </trkpt>
      <trkpt lat="42.77838" lon="0.65861">
        <ele>1454.9</ele>
        <time>2018-11-25T00:10:08Z</time>
      </trkpt>
      <trkpt lat="42.77839" lon="0.65864">
        <ele>1454.4</ele>
        <time>2018-11-25T00:10:09Z</time>
      </trkpt>
      <trkpt lat="42.77841" lon="0.65865">
        <ele>1453.7</ele>
        <time>2018-11-25T00:10:10Z</time>
      </trkpt>
      <trkpt lat="42.77845" lon="0.65866">
        <ele>1452.7</ele>
        <time>2018-11-25T00:10:11Z</time>
      </trkpt>
      <trkpt lat="42.77847" lon="0.65868">
        <ele>1452</ele>
        <time>2018-11-25T00:10:12Z</time>
      </trkpt>
      <trkpt lat="42.77848" lon="0.65871">
        <ele>1451.4</ele>
        <time>2018-11-25T00:10:13Z</time>
      </trkpt>
      <trkpt lat="42.7785" lon="0.65872">
        <ele>1450.8</ele>
        <time>2018-11-25T00:10:14Z</time>
      </trkpt>
      <trkpt lat="42.77852" lon="0.65874">
        <ele>1450.2</ele>
        <time>2018-11-25T00:10:15Z</time>
      </trkpt>
      <trkpt lat="42.77854" lon="0.65875">
        <ele>1450.4</ele>
        <time>2018-11-25T00:10:16Z</time>
      </trkpt>
      <trkpt lat="42.77856" lon="0.65877">
        <ele>1449.2</ele>
        <time>2018-11-25T00:10:17Z</time>
      </trkpt>
      <trkpt lat="42.77858" lon="0.65879">
        <ele>1448.6</ele>
        <time>2018-11-25T00:10:18Z</time>
      </trkpt>
      <trkpt lat="42.77859" lon="0.65881">
        <ele>1448</ele>
        <time>2018-11-25T00:10:18Z</time>
      </trkpt>
      <trkpt lat="42.77861" lon="0.65882">
        <ele>1447.6</ele>
        <time>2018-11-25T00:10:19Z</time>
      </trkpt>
      <trkpt lat="42.77863" lon="0.65883">
        <ele>1447.2</ele>
        <time>2018-11-25T00:10:20Z</time>
      </trkpt>
      <trkpt lat="42.77866" lon="0.65886">
        <ele>1446.3</ele>
        <time>2018-11-25T00:10:21Z</time>
      </trkpt>
      <trkpt lat="42.77868" lon="0.65887">
        <ele>1445.8</ele>
        <time>2018-11-25T00:10:22Z</time>
      </trkpt>
      <trkpt lat="42.7787" lon="0.65888">
        <ele>1445.3</ele>
        <time>2018-11-25T00:10:23Z</time>
      </trkpt>
      <trkpt lat="42.77872" lon="0.65889">
        <ele>1444.8</ele>
        <time>2018-11-25T00:10:24Z</time>
      </trkpt>
      <trkpt lat="42.77874" lon="0.65891">
        <ele>1444.1</ele>
        <time>2018-11-25T00:10:25Z</time>
      </trkpt>
      <trkpt lat="42.77876" lon="0.65892">
        <ele>1443.7</ele>
        <time>2018-11-25T00:10:26Z</time>
      </trkpt>
      <trkpt lat="42.77879" lon="0.65893">
        <ele>1443.2</ele>
        <time>2018-11-25T00:10:27Z</time>
      </trkpt>
      <trkpt lat="42.77881" lon="0.65892">
        <ele>1442.9</ele>
        <time>2018-11-25T00:10:28Z</time>
      </trkpt>
      <trkpt lat="42.77883" lon="0.65893">
        <ele>1442.5</ele>
        <time>2018-11-25T00:10:29Z</time>
      </trkpt>
      <trkpt lat="42.77886" lon="0.65893">
        <ele>1442.1</ele>
        <time>2018-11-25T00:10:30Z</time>
      </trkpt>
      <trkpt lat="42.77888" lon="0.65893">
        <ele>1441.7</ele>
        <time>2018-11-25T00:10:31Z</time>
      </trkpt>
      <trkpt lat="42.7789" lon="0.65893">
        <ele>1441.5</ele>
        <time>2018-11-25T00:10:32Z</time>
      </trkpt>
      <trkpt lat="42.77892" lon="0.65893">
        <ele>1441.4</ele>
        <time>2018-11-25T00:10:33Z</time>
      </trkpt>
      <trkpt lat="42.77895" lon="0.65892">
        <ele>1441.1</ele>
        <time>2018-11-25T00:10:33Z</time>
      </trkpt>
      <trkpt lat="42.77898" lon="0.65893">
        <ele>1440.5</ele>
        <time>2018-11-25T00:10:35Z</time>
      </trkpt>
      <trkpt lat="42.77901" lon="0.65894">
        <ele>1439.9</ele>
        <time>2018-11-25T00:10:36Z</time>
      </trkpt>
      <trkpt lat="42.77903" lon="0.65894">
        <ele>1440</ele>
        <time>2018-11-25T00:10:37Z</time>
      </trkpt>
      <trkpt lat="42.77905" lon="0.65893">
        <ele>1439.9</ele>
        <time>2018-11-25T00:10:37Z</time>
      </trkpt>
      <trkpt lat="42.77906" lon="0.65891">
        <ele>1439.8</ele>
        <time>2018-11-25T00:10:39Z</time>
      </trkpt>
      <trkpt lat="42.77906" lon="0.65888">
        <ele>1440.6</ele>
        <time>2018-11-25T00:10:39Z</time>
      </trkpt>
      <trkpt lat="42.77907" lon="0.65882">
        <ele>1441.5</ele>
        <time>2018-11-25T00:10:41Z</time>
      </trkpt>
      <trkpt lat="42.77905" lon="0.65881">
        <ele>1441.8</ele>
        <time>2018-11-25T00:10:42Z</time>
      </trkpt>
      <trkpt lat="42.77905" lon="0.65875">
        <ele>1442.8</ele>
        <time>2018-11-25T00:10:44Z</time>
      </trkpt>
      <trkpt lat="42.77907" lon="0.65876">
        <ele>1442.4</ele>
        <time>2018-11-25T00:10:45Z</time>
      </trkpt>
      <trkpt lat="42.7791" lon="0.65877">
        <ele>1442</ele>
        <time>2018-11-25T00:10:46Z</time>
      </trkpt>
      <trkpt lat="42.77912" lon="0.65864">
        <ele>1444</ele>
        <time>2018-11-25T00:10:50Z</time>
      </trkpt>
      <trkpt lat="42.77914" lon="0.65852">
        <ele>1446</ele>
        <time>2018-11-25T00:10:54Z</time>
      </trkpt>
      <trkpt lat="42.77912" lon="0.65839">
        <ele>1448.2</ele>
        <time>2018-11-25T00:10:58Z</time>
      </trkpt>
      <trkpt lat="42.77912" lon="0.65826">
        <ele>1450.2</ele>
        <time>2018-11-25T00:11:02Z</time>
      </trkpt>
      <trkpt lat="42.77917" lon="0.65813">
        <ele>1452.5</ele>
        <time>2018-11-25T00:11:06Z</time>
      </trkpt>
      <trkpt lat="42.77925" lon="0.65808">
        <ele>1453.5</ele>
        <time>2018-11-25T00:11:10Z</time>
      </trkpt>
      <trkpt lat="42.77935" lon="0.65806">
        <ele>1454.2</ele>
        <time>2018-11-25T00:11:13Z</time>
      </trkpt>
      <trkpt lat="42.77944" lon="0.65804">
        <ele>1455.1</ele>
        <time>2018-11-25T00:11:17Z</time>
      </trkpt>
      <trkpt lat="42.77949" lon="0.65804">
        <ele>1455.4</ele>
        <time>2018-11-25T00:11:19Z</time>
      </trkpt>
      <trkpt lat="42.77954" lon="0.65805">
        <ele>1455.4</ele>
        <time>2018-11-25T00:11:21Z</time>
      </trkpt>
      <trkpt lat="42.77957" lon="0.65804">
        <ele>1455.9</ele>
        <time>2018-11-25T00:11:22Z</time>
      </trkpt>
      <trkpt lat="42.77965" lon="0.6581">
        <ele>1455.4</ele>
        <time>2018-11-25T00:11:26Z</time>
      </trkpt>
      <trkpt lat="42.77974" lon="0.65817">
        <ele>1454.3</ele>
        <time>2018-11-25T00:11:30Z</time>
      </trkpt>
      <trkpt lat="42.77982" lon="0.65824">
        <ele>1453.5</ele>
        <time>2018-11-25T00:11:34Z</time>
      </trkpt>
      <trkpt lat="42.77991" lon="0.65828">
        <ele>1453.1</ele>
        <time>2018-11-25T00:11:38Z</time>
      </trkpt>
      <trkpt lat="42.78001" lon="0.65829">
        <ele>1453.4</ele>
        <time>2018-11-25T00:11:42Z</time>
      </trkpt>
      <trkpt lat="42.7801" lon="0.65831">
        <ele>1453.6</ele>
        <time>2018-11-25T00:11:46Z</time>
      </trkpt>
      <trkpt lat="42.78019" lon="0.65834">
        <ele>1453.6</ele>
        <time>2018-11-25T00:11:49Z</time>
      </trkpt>
      <trkpt lat="42.78029" lon="0.65828">
        <ele>1455.4</ele>
        <time>2018-11-25T00:11:53Z</time>
      </trkpt>
      <trkpt lat="42.78039" lon="0.65824">
        <ele>1457</ele>
        <time>2018-11-25T00:11:58Z</time>
      </trkpt>
      <trkpt lat="42.7805" lon="0.6582">
        <ele>1458.6</ele>
        <time>2018-11-25T00:12:02Z</time>
      </trkpt>
      <trkpt lat="42.7806" lon="0.65817">
        <ele>1460.2</ele>
        <time>2018-11-25T00:12:06Z</time>
      </trkpt>
      <trkpt lat="42.78066" lon="0.65826">
        <ele>1457.7</ele>
        <time>2018-11-25T00:12:10Z</time>
      </trkpt>
      <trkpt lat="42.78073" lon="0.65837">
        <ele>1455.1</ele>
        <time>2018-11-25T00:12:14Z</time>
      </trkpt>
      <trkpt lat="42.78082" lon="0.65844">
        <ele>1453.2</ele>
        <time>2018-11-25T00:12:18Z</time>
      </trkpt>
      <trkpt lat="42.78084" lon="0.65845">
        <ele>1453.1</ele>
        <time>2018-11-25T00:12:19Z</time>
      </trkpt>
      <trkpt lat="42.78095" lon="0.65849">
        <ele>1451.8</ele>
        <time>2018-11-25T00:12:24Z</time>
      </trkpt>
      <trkpt lat="42.78098" lon="0.65849">
        <ele>1451.6</ele>
        <time>2018-11-25T00:12:25Z</time>
      </trkpt>
      <trkpt lat="42.78101" lon="0.6585">
        <ele>1451.3</ele>
        <time>2018-11-25T00:12:26Z</time>
      </trkpt>
      <trkpt lat="42.78103" lon="0.6585">
        <ele>1451.2</ele>
        <time>2018-11-25T00:12:27Z</time>
      </trkpt>
      <trkpt lat="42.78107" lon="0.6585">
        <ele>1451.4</ele>
        <time>2018-11-25T00:12:29Z</time>
      </trkpt>
      <trkpt lat="42.7811" lon="0.6585">
        <ele>1451.3</ele>
        <time>2018-11-25T00:12:30Z</time>
      </trkpt>
      <trkpt lat="42.78113" lon="0.6585">
        <ele>1451.3</ele>
        <time>2018-11-25T00:12:31Z</time>
      </trkpt>
      <trkpt lat="42.78115" lon="0.6585">
        <ele>1451.4</ele>
        <time>2018-11-25T00:12:32Z</time>
      </trkpt>
      <trkpt lat="42.78119" lon="0.65851">
        <ele>1451.1</ele>
        <time>2018-11-25T00:12:33Z</time>
      </trkpt>
      <trkpt lat="42.7813" lon="0.65852">
        <ele>1450.5</ele>
        <time>2018-11-25T00:12:38Z</time>
      </trkpt>
      <trkpt lat="42.78139" lon="0.65852">
        <ele>1450.6</ele>
        <time>2018-11-25T00:12:41Z</time>
      </trkpt>
      <trkpt lat="42.78149" lon="0.65853">
        <ele>1450.2</ele>
        <time>2018-11-25T00:12:46Z</time>
      </trkpt>
      <trkpt lat="42.78159" lon="0.65854">
        <ele>1449.7</ele>
        <time>2018-11-25T00:12:49Z</time>
      </trkpt>
      <trkpt lat="42.78168" lon="0.65857">
        <ele>1448.2</ele>
        <time>2018-11-25T00:12:53Z</time>
      </trkpt>
      <trkpt lat="42.78178" lon="0.65857">
        <ele>1448</ele>
        <time>2018-11-25T00:12:57Z</time>
      </trkpt>
      <trkpt lat="42.78188" lon="0.65858">
        <ele>1447.7</ele>
        <time>2018-11-25T00:13:01Z</time>
      </trkpt>
      <trkpt lat="42.78197" lon="0.65861">
        <ele>1446.3</ele>
        <time>2018-11-25T00:13:05Z</time>
      </trkpt>
      <trkpt lat="42.78208" lon="0.65862">
        <ele>1446.2</ele>
        <time>2018-11-25T00:13:09Z</time>
      </trkpt>
      <trkpt lat="42.78218" lon="0.65864">
        <ele>1445.6</ele>
        <time>2018-11-25T00:13:13Z</time>
      </trkpt>
      <trkpt lat="42.78228" lon="0.65866">
        <ele>1444.9</ele>
        <time>2018-11-25T00:13:17Z</time>
      </trkpt>
      <trkpt lat="42.78238" lon="0.65866">
        <ele>1445.3</ele>
        <time>2018-11-25T00:13:21Z</time>
      </trkpt>
      <trkpt lat="42.78248" lon="0.65866">
        <ele>1446.2</ele>
        <time>2018-11-25T00:13:25Z</time>
      </trkpt>
      <trkpt lat="42.78255" lon="0.65873">
        <ele>1443.4</ele>
        <time>2018-11-25T00:13:29Z</time>
      </trkpt>
      <trkpt lat="42.78265" lon="0.65883">
        <ele>1440.3</ele>
        <time>2018-11-25T00:13:34Z</time>
      </trkpt>
      <trkpt lat="42.78274" lon="0.65889">
        <ele>1438.4</ele>
        <time>2018-11-25T00:13:38Z</time>
      </trkpt>
      <trkpt lat="42.78282" lon="0.65896">
        <ele>1436.7</ele>
        <time>2018-11-25T00:13:42Z</time>
      </trkpt>
      <trkpt lat="42.78291" lon="0.65903">
        <ele>1434.5</ele>
        <time>2018-11-25T00:13:46Z</time>
      </trkpt>
      <trkpt lat="42.78299" lon="0.65908">
        <ele>1433.8</ele>
        <time>2018-11-25T00:13:49Z</time>
      </trkpt>
      <trkpt lat="42.78309" lon="0.65915">
        <ele>1432.2</ele>
        <time>2018-11-25T00:13:54Z</time>
      </trkpt>
      <trkpt lat="42.78318" lon="0.65924">
        <ele>1429.8</ele>
        <time>2018-11-25T00:13:58Z</time>
      </trkpt>
      <trkpt lat="42.78327" lon="0.65932">
        <ele>1427.5</ele>
        <time>2018-11-25T00:14:03Z</time>
      </trkpt>
      <trkpt lat="42.78336" lon="0.65939">
        <ele>1426.4</ele>
        <time>2018-11-25T00:14:07Z</time>
      </trkpt>
      <trkpt lat="42.78345" lon="0.65947">
        <ele>1424.3</ele>
        <time>2018-11-25T00:14:11Z</time>
      </trkpt>
      <trkpt lat="42.78354" lon="0.65953">
        <ele>1423.2</ele>
        <time>2018-11-25T00:14:15Z</time>
      </trkpt>
      <trkpt lat="42.78363" lon="0.65961">
        <ele>1421.5</ele>
        <time>2018-11-25T00:14:19Z</time>
      </trkpt>
      <trkpt lat="42.78372" lon="0.65965">
        <ele>1421.2</ele>
        <time>2018-11-25T00:14:23Z</time>
      </trkpt>
      <trkpt lat="42.78379" lon="0.65974">
        <ele>1418.9</ele>
        <time>2018-11-25T00:14:27Z</time>
      </trkpt>
      <trkpt lat="42.78386" lon="0.65982">
        <ele>1416.8</ele>
        <time>2018-11-25T00:14:31Z</time>
      </trkpt>
      <trkpt lat="42.78394" lon="0.65993">
        <ele>1413.9</ele>
        <time>2018-11-25T00:14:35Z</time>
      </trkpt>
      <trkpt lat="42.78405" lon="0.65997">
        <ele>1414.1</ele>
        <time>2018-11-25T00:14:40Z</time>
      </trkpt>
      <trkpt lat="42.78415" lon="0.66005">
        <ele>1413.2</ele>
        <time>2018-11-25T00:14:45Z</time>
      </trkpt>
      <trkpt lat="42.78425" lon="0.66011">
        <ele>1413</ele>
        <time>2018-11-25T00:14:49Z</time>
      </trkpt>
      <trkpt lat="42.78433" lon="0.66016">
        <ele>1412.8</ele>
        <time>2018-11-25T00:14:52Z</time>
      </trkpt>
      <trkpt lat="42.78436" lon="0.66029">
        <ele>1408.4</ele>
        <time>2018-11-25T00:14:56Z</time>
      </trkpt>
      <trkpt lat="42.78437" lon="0.66043">
        <ele>1404</ele>
        <time>2018-11-25T00:15:00Z</time>
      </trkpt>
      <trkpt lat="42.78443" lon="0.66055">
        <ele>1401</ele>
        <time>2018-11-25T00:15:05Z</time>
      </trkpt>
      <trkpt lat="42.78445" lon="0.66068">
        <ele>1397.6</ele>
        <time>2018-11-25T00:15:08Z</time>
      </trkpt>
      <trkpt lat="42.78435" lon="0.66075">
        <ele>1392.8</ele>
        <time>2018-11-25T00:15:13Z</time>
      </trkpt>
      <trkpt lat="42.78434" lon="0.66088">
        <ele>1388.6</ele>
        <time>2018-11-25T00:15:17Z</time>
      </trkpt>
      <trkpt lat="42.78435" lon="0.661">
        <ele>1384.9</ele>
        <time>2018-11-25T00:15:20Z</time>
      </trkpt>
      <trkpt lat="42.78437" lon="0.66114">
        <ele>1381.8</ele>
        <time>2018-11-25T00:15:24Z</time>
      </trkpt>
      <trkpt lat="42.7844" lon="0.66129">
        <ele>1378.5</ele>
        <time>2018-11-25T00:15:29Z</time>
      </trkpt>
      <trkpt lat="42.78441" lon="0.66132">
        <ele>1377.7</ele>
        <time>2018-11-25T00:15:30Z</time>
      </trkpt>
      <trkpt lat="42.78442" lon="0.66135">
        <ele>1377.2</ele>
        <time>2018-11-25T00:15:31Z</time>
      </trkpt>
      <trkpt lat="42.78442" lon="0.66138">
        <ele>1376.6</ele>
        <time>2018-11-25T00:15:32Z</time>
      </trkpt>
      <trkpt lat="42.78443" lon="0.66141">
        <ele>1376.2</ele>
        <time>2018-11-25T00:15:33Z</time>
      </trkpt>
      <trkpt lat="42.78444" lon="0.66143">
        <ele>1375.9</ele>
        <time>2018-11-25T00:15:33Z</time>
      </trkpt>
      <trkpt lat="42.78444" lon="0.66146">
        <ele>1375.3</ele>
        <time>2018-11-25T00:15:34Z</time>
      </trkpt>
      <trkpt lat="42.78445" lon="0.66149">
        <ele>1374.5</ele>
        <time>2018-11-25T00:15:35Z</time>
      </trkpt>
      <trkpt lat="42.78445" lon="0.66152">
        <ele>1374</ele>
        <time>2018-11-25T00:15:36Z</time>
      </trkpt>
      <trkpt lat="42.78445" lon="0.66155">
        <ele>1373.3</ele>
        <time>2018-11-25T00:15:37Z</time>
      </trkpt>
      <trkpt lat="42.78445" lon="0.66158">
        <ele>1372.4</ele>
        <time>2018-11-25T00:15:38Z</time>
      </trkpt>
      <trkpt lat="42.78446" lon="0.66161">
        <ele>1371.9</ele>
        <time>2018-11-25T00:15:39Z</time>
      </trkpt>
      <trkpt lat="42.7845" lon="0.66167">
        <ele>1371.7</ele>
        <time>2018-11-25T00:15:41Z</time>
      </trkpt>
      <trkpt lat="42.78453" lon="0.66172">
        <ele>1371.1</ele>
        <time>2018-11-25T00:15:43Z</time>
      </trkpt>
      <trkpt lat="42.78454" lon="0.66175">
        <ele>1370.8</ele>
        <time>2018-11-25T00:15:44Z</time>
      </trkpt>
      <trkpt lat="42.78456" lon="0.66177">
        <ele>1370.7</ele>
        <time>2018-11-25T00:15:45Z</time>
      </trkpt>
      <trkpt lat="42.78458" lon="0.66179">
        <ele>1370.8</ele>
        <time>2018-11-25T00:15:46Z</time>
      </trkpt>
      <trkpt lat="42.7846" lon="0.66181">
        <ele>1370.9</ele>
        <time>2018-11-25T00:15:47Z</time>
      </trkpt>
      <trkpt lat="42.78461" lon="0.66178">
        <ele>1371.9</ele>
        <time>2018-11-25T00:15:48Z</time>
      </trkpt>
      <trkpt lat="42.78463" lon="0.66177">
        <ele>1372.6</ele>
        <time>2018-11-25T00:15:49Z</time>
      </trkpt>
      <trkpt lat="42.78465" lon="0.66177">
        <ele>1373.4</ele>
        <time>2018-11-25T00:15:50Z</time>
      </trkpt>
      <trkpt lat="42.78464" lon="0.66174">
        <ele>1373.6</ele>
        <time>2018-11-25T00:15:50Z</time>
      </trkpt>
      <trkpt lat="42.78462" lon="0.66172">
        <ele>1373.6</ele>
        <time>2018-11-25T00:15:52Z</time>
      </trkpt>
      <trkpt lat="42.78459" lon="0.66171">
        <ele>1373.1</ele>
        <time>2018-11-25T00:15:53Z</time>
      </trkpt>
      <trkpt lat="42.78456" lon="0.66173">
        <ele>1371.8</ele>
        <time>2018-11-25T00:15:54Z</time>
      </trkpt>
      <trkpt lat="42.78454" lon="0.66174">
        <ele>1371</ele>
        <time>2018-11-25T00:15:55Z</time>
      </trkpt>
      <trkpt lat="42.78452" lon="0.66175">
        <ele>1370.1</ele>
        <time>2018-11-25T00:15:56Z</time>
      </trkpt>
      <trkpt lat="42.78451" lon="0.66177">
        <ele>1369.4</ele>
        <time>2018-11-25T00:15:56Z</time>
      </trkpt>
      <trkpt lat="42.7845" lon="0.66179">
        <ele>1368.5</ele>
        <time>2018-11-25T00:15:57Z</time>
      </trkpt>
      <trkpt lat="42.78449" lon="0.66182">
        <ele>1367.6</ele>
        <time>2018-11-25T00:15:58Z</time>
      </trkpt>
      <trkpt lat="42.78448" lon="0.66185">
        <ele>1366.7</ele>
        <time>2018-11-25T00:15:59Z</time>
      </trkpt>
      <trkpt lat="42.78446" lon="0.66188">
        <ele>1365.5</ele>
        <time>2018-11-25T00:16:00Z</time>
      </trkpt>
      <trkpt lat="42.78445" lon="0.66188">
        <ele>1364.7</ele>
        <time>2018-11-25T00:16:01Z</time>
      </trkpt>
      <trkpt lat="42.78442" lon="0.66189">
        <ele>1363.9</ele>
        <time>2018-11-25T00:16:02Z</time>
      </trkpt>
      <trkpt lat="42.78439" lon="0.6619">
        <ele>1362.8</ele>
        <time>2018-11-25T00:16:03Z</time>
      </trkpt>
      <trkpt lat="42.78437" lon="0.66192">
        <ele>1361.5</ele>
        <time>2018-11-25T00:16:04Z</time>
      </trkpt>
      <trkpt lat="42.78435" lon="0.66195">
        <ele>1360.3</ele>
        <time>2018-11-25T00:16:05Z</time>
      </trkpt>
      <trkpt lat="42.78434" lon="0.66198">
        <ele>1359.3</ele>
        <time>2018-11-25T00:16:06Z</time>
      </trkpt>
      <trkpt lat="42.78433" lon="0.66202">
        <ele>1357.9</ele>
        <time>2018-11-25T00:16:08Z</time>
      </trkpt>
      <trkpt lat="42.78432" lon="0.66205">
        <ele>1357.1</ele>
        <time>2018-11-25T00:16:08Z</time>
      </trkpt>
      <trkpt lat="42.78432" lon="0.66207">
        <ele>1356.2</ele>
        <time>2018-11-25T00:16:09Z</time>
      </trkpt>
      <trkpt lat="42.78433" lon="0.66211">
        <ele>1355.7</ele>
        <time>2018-11-25T00:16:10Z</time>
      </trkpt>
      <trkpt lat="42.78434" lon="0.66213">
        <ele>1355.3</ele>
        <time>2018-11-25T00:16:11Z</time>
      </trkpt>
      <trkpt lat="42.78435" lon="0.66216">
        <ele>1355</ele>
        <time>2018-11-25T00:16:12Z</time>
      </trkpt>
      <trkpt lat="42.78436" lon="0.66219">
        <ele>1354.4</ele>
        <time>2018-11-25T00:16:13Z</time>
      </trkpt>
      <trkpt lat="42.78437" lon="0.66222">
        <ele>1353.9</ele>
        <time>2018-11-25T00:16:14Z</time>
      </trkpt>
      <trkpt lat="42.78437" lon="0.66225">
        <ele>1353.3</ele>
        <time>2018-11-25T00:16:15Z</time>
      </trkpt>
      <trkpt lat="42.78439" lon="0.66229">
        <ele>1352.6</ele>
        <time>2018-11-25T00:16:16Z</time>
      </trkpt>
      <trkpt lat="42.78439" lon="0.66233">
        <ele>1351.7</ele>
        <time>2018-11-25T00:16:17Z</time>
      </trkpt>
      <trkpt lat="42.78439" lon="0.66235">
        <ele>1351.1</ele>
        <time>2018-11-25T00:16:18Z</time>
      </trkpt>
      <trkpt lat="42.78438" lon="0.66238">
        <ele>1350</ele>
        <time>2018-11-25T00:16:19Z</time>
      </trkpt>
      <trkpt lat="42.78438" lon="0.66241">
        <ele>1349.1</ele>
        <time>2018-11-25T00:16:20Z</time>
      </trkpt>
      <trkpt lat="42.78437" lon="0.66244">
        <ele>1348.2</ele>
        <time>2018-11-25T00:16:21Z</time>
      </trkpt>
      <trkpt lat="42.78436" lon="0.66248">
        <ele>1346.8</ele>
        <time>2018-11-25T00:16:22Z</time>
      </trkpt>
      <trkpt lat="42.78437" lon="0.6625">
        <ele>1346.4</ele>
        <time>2018-11-25T00:16:23Z</time>
      </trkpt>
      <trkpt lat="42.78437" lon="0.66253">
        <ele>1345.9</ele>
        <time>2018-11-25T00:16:24Z</time>
      </trkpt>
      <trkpt lat="42.78438" lon="0.66256">
        <ele>1345.1</ele>
        <time>2018-11-25T00:16:24Z</time>
      </trkpt>
      <trkpt lat="42.7844" lon="0.66268">
        <ele>1342.3</ele>
        <time>2018-11-25T00:16:28Z</time>
      </trkpt>
      <trkpt lat="42.78442" lon="0.66281">
        <ele>1338.9</ele>
        <time>2018-11-25T00:16:32Z</time>
      </trkpt>
      <trkpt lat="42.78443" lon="0.66297">
        <ele>1333.9</ele>
        <time>2018-11-25T00:16:37Z</time>
      </trkpt>
      <trkpt lat="42.78443" lon="0.66313">
        <ele>1329</ele>
        <time>2018-11-25T00:16:41Z</time>
      </trkpt>
      <trkpt lat="42.78447" lon="0.66325">
        <ele>1325.7</ele>
        <time>2018-11-25T00:16:45Z</time>
      </trkpt>
      <trkpt lat="42.78453" lon="0.66335">
        <ele>1323.3</ele>
        <time>2018-11-25T00:16:49Z</time>
      </trkpt>
      <trkpt lat="42.78447" lon="0.66345">
        <ele>1318.5</ele>
        <time>2018-11-25T00:16:53Z</time>
      </trkpt>
      <trkpt lat="42.7844" lon="0.66354">
        <ele>1314.1</ele>
        <time>2018-11-25T00:16:57Z</time>
      </trkpt>
      <trkpt lat="42.78431" lon="0.66349">
        <ele>1313.8</ele>
        <time>2018-11-25T00:17:01Z</time>
      </trkpt>
      <trkpt lat="42.78421" lon="0.66347">
        <ele>1312.3</ele>
        <time>2018-11-25T00:17:05Z</time>
      </trkpt>
      <trkpt lat="42.78412" lon="0.66343">
        <ele>1311.2</ele>
        <time>2018-11-25T00:17:08Z</time>
      </trkpt>
      <trkpt lat="42.78403" lon="0.66334">
        <ele>1311.4</ele>
        <time>2018-11-25T00:17:13Z</time>
      </trkpt>
      <trkpt lat="42.78395" lon="0.66329">
        <ele>1310.7</ele>
        <time>2018-11-25T00:17:16Z</time>
      </trkpt>
      <trkpt lat="42.78385" lon="0.66327">
        <ele>1308.3</ele>
        <time>2018-11-25T00:17:20Z</time>
      </trkpt>
      <trkpt lat="42.78377" lon="0.66318">
        <ele>1308.3</ele>
        <time>2018-11-25T00:17:25Z</time>
      </trkpt>
      <trkpt lat="42.78368" lon="0.66318">
        <ele>1305.5</ele>
        <time>2018-11-25T00:17:28Z</time>
      </trkpt>
      <trkpt lat="42.78364" lon="0.6633">
        <ele>1300.6</ele>
        <time>2018-11-25T00:17:32Z</time>
      </trkpt>
      <trkpt lat="42.78362" lon="0.66334">
        <ele>1298.7</ele>
        <time>2018-11-25T00:17:33Z</time>
      </trkpt>
      <trkpt lat="42.78362" lon="0.66338">
        <ele>1297.4</ele>
        <time>2018-11-25T00:17:35Z</time>
      </trkpt>
      <trkpt lat="42.78361" lon="0.66341">
        <ele>1296.3</ele>
        <time>2018-11-25T00:17:36Z</time>
      </trkpt>
      <trkpt lat="42.78362" lon="0.66346">
        <ele>1295</ele>
        <time>2018-11-25T00:17:37Z</time>
      </trkpt>
      <trkpt lat="42.78362" lon="0.66349">
        <ele>1294.1</ele>
        <time>2018-11-25T00:17:38Z</time>
      </trkpt>
      <trkpt lat="42.78361" lon="0.66352">
        <ele>1293.1</ele>
        <time>2018-11-25T00:17:39Z</time>
      </trkpt>
      <trkpt lat="42.78361" lon="0.66354">
        <ele>1292</ele>
        <time>2018-11-25T00:17:39Z</time>
      </trkpt>
      <trkpt lat="42.7836" lon="0.66357">
        <ele>1290.8</ele>
        <time>2018-11-25T00:17:40Z</time>
      </trkpt>
      <trkpt lat="42.78359" lon="0.66359">
        <ele>1289.9</ele>
        <time>2018-11-25T00:17:41Z</time>
      </trkpt>
      <trkpt lat="42.78358" lon="0.66363">
        <ele>1288.4</ele>
        <time>2018-11-25T00:17:42Z</time>
      </trkpt>
      <trkpt lat="42.78357" lon="0.66366">
        <ele>1287.3</ele>
        <time>2018-11-25T00:17:43Z</time>
      </trkpt>
      <trkpt lat="42.7836" lon="0.6638">
        <ele>1283.3</ele>
        <time>2018-11-25T00:17:47Z</time>
      </trkpt>
      <trkpt lat="42.7836" lon="0.66382">
        <ele>1282.8</ele>
        <time>2018-11-25T00:17:48Z</time>
      </trkpt>
      <trkpt lat="42.7836" lon="0.66385">
        <ele>1281.9</ele>
        <time>2018-11-25T00:17:49Z</time>
      </trkpt>
      <trkpt lat="42.78361" lon="0.66388">
        <ele>1281</ele>
        <time>2018-11-25T00:17:50Z</time>
      </trkpt>
      <trkpt lat="42.78363" lon="0.66391">
        <ele>1280.5</ele>
        <time>2018-11-25T00:17:51Z</time>
      </trkpt>
      <trkpt lat="42.78364" lon="0.66395">
        <ele>1279.9</ele>
        <time>2018-11-25T00:17:52Z</time>
      </trkpt>
      <trkpt lat="42.78365" lon="0.66397">
        <ele>1279.1</ele>
        <time>2018-11-25T00:17:53Z</time>
      </trkpt>
      <trkpt lat="42.78365" lon="0.664">
        <ele>1278.1</ele>
        <time>2018-11-25T00:17:54Z</time>
      </trkpt>
      <trkpt lat="42.78366" lon="0.66403">
        <ele>1277.3</ele>
        <time>2018-11-25T00:17:55Z</time>
      </trkpt>
      <trkpt lat="42.78367" lon="0.66406">
        <ele>1276.5</ele>
        <time>2018-11-25T00:17:56Z</time>
      </trkpt>
      <trkpt lat="42.78368" lon="0.66409">
        <ele>1275.6</ele>
        <time>2018-11-25T00:17:57Z</time>
      </trkpt>
      <trkpt lat="42.78372" lon="0.66422">
        <ele>1272.3</ele>
        <time>2018-11-25T00:18:01Z</time>
      </trkpt>
      <trkpt lat="42.78378" lon="0.66436">
        <ele>1268.6</ele>
        <time>2018-11-25T00:18:06Z</time>
      </trkpt>
      <trkpt lat="42.78383" lon="0.66449">
        <ele>1264.7</ele>
        <time>2018-11-25T00:18:10Z</time>
      </trkpt>
      <trkpt lat="42.78389" lon="0.66462">
        <ele>1260.9</ele>
        <time>2018-11-25T00:18:14Z</time>
      </trkpt>
      <trkpt lat="42.78394" lon="0.66474">
        <ele>1257.1</ele>
        <time>2018-11-25T00:18:19Z</time>
      </trkpt>
      <trkpt lat="42.784" lon="0.66484">
        <ele>1254</ele>
        <time>2018-11-25T00:18:22Z</time>
      </trkpt>
      <trkpt lat="42.78408" lon="0.66493">
        <ele>1251.2</ele>
        <time>2018-11-25T00:18:26Z</time>
      </trkpt>
      <trkpt lat="42.78411" lon="0.66504">
        <ele>1246.8</ele>
        <time>2018-11-25T00:18:30Z</time>
      </trkpt>
      <trkpt lat="42.78421" lon="0.6651">
        <ele>1245.6</ele>
        <time>2018-11-25T00:18:34Z</time>
      </trkpt>
      <trkpt lat="42.78432" lon="0.6651">
        <ele>1247.2</ele>
        <time>2018-11-25T00:18:39Z</time>
      </trkpt>
      <trkpt lat="42.78441" lon="0.66509">
        <ele>1248.9</ele>
        <time>2018-11-25T00:18:42Z</time>
      </trkpt>
      <trkpt lat="42.78448" lon="0.6652">
        <ele>1244.7</ele>
        <time>2018-11-25T00:18:47Z</time>
      </trkpt>
      <trkpt lat="42.78457" lon="0.66523">
        <ele>1243.9</ele>
        <time>2018-11-25T00:18:50Z</time>
      </trkpt>
      <trkpt lat="42.78467" lon="0.6653">
        <ele>1241.3</ele>
        <time>2018-11-25T00:18:55Z</time>
      </trkpt>
      <trkpt lat="42.78474" lon="0.66539">
        <ele>1237.9</ele>
        <time>2018-11-25T00:18:58Z</time>
      </trkpt>
      <trkpt lat="42.78479" lon="0.66549">
        <ele>1234.1</ele>
        <time>2018-11-25T00:19:02Z</time>
      </trkpt>
      <trkpt lat="42.78472" lon="0.66557">
        <ele>1230</ele>
        <time>2018-11-25T00:19:06Z</time>
      </trkpt>
      <trkpt lat="42.78474" lon="0.6657">
        <ele>1224.9</ele>
        <time>2018-11-25T00:19:10Z</time>
      </trkpt>
      <trkpt lat="42.78477" lon="0.66582">
        <ele>1220.6</ele>
        <time>2018-11-25T00:19:13Z</time>
      </trkpt>
      <trkpt lat="42.78469" lon="0.6659">
        <ele>1216.9</ele>
        <time>2018-11-25T00:19:17Z</time>
      </trkpt>
      <trkpt lat="42.78465" lon="0.66601">
        <ele>1212.4</ele>
        <time>2018-11-25T00:19:21Z</time>
      </trkpt>
      <trkpt lat="42.78458" lon="0.66612">
        <ele>1207.9</ele>
        <time>2018-11-25T00:19:25Z</time>
      </trkpt>
      <trkpt lat="42.78449" lon="0.6662">
        <ele>1203.7</ele>
        <time>2018-11-25T00:19:29Z</time>
      </trkpt>
      <trkpt lat="42.78444" lon="0.66631">
        <ele>1199.2</ele>
        <time>2018-11-25T00:19:33Z</time>
      </trkpt>
      <trkpt lat="42.78439" lon="0.66642">
        <ele>1195.1</ele>
        <time>2018-11-25T00:19:37Z</time>
      </trkpt>
      <trkpt lat="42.78429" lon="0.66647">
        <ele>1191.6</ele>
        <time>2018-11-25T00:19:41Z</time>
      </trkpt>
      <trkpt lat="42.78424" lon="0.66658">
        <ele>1187.8</ele>
        <time>2018-11-25T00:19:45Z</time>
      </trkpt>
      <trkpt lat="42.7842" lon="0.66669">
        <ele>1183.9</ele>
        <time>2018-11-25T00:19:48Z</time>
      </trkpt>
      <trkpt lat="42.78411" lon="0.66677">
        <ele>1180.4</ele>
        <time>2018-11-25T00:19:53Z</time>
      </trkpt>
      <trkpt lat="42.78403" lon="0.66684">
        <ele>1176.4</ele>
        <time>2018-11-25T00:19:57Z</time>
      </trkpt>
      <trkpt lat="42.78395" lon="0.6669">
        <ele>1173.3</ele>
        <time>2018-11-25T00:20:00Z</time>
      </trkpt>
      <trkpt lat="42.78387" lon="0.667">
        <ele>1169.5</ele>
        <time>2018-11-25T00:20:04Z</time>
      </trkpt>
      <trkpt lat="42.78382" lon="0.6671">
        <ele>1166</ele>
        <time>2018-11-25T00:20:08Z</time>
      </trkpt>
      <trkpt lat="42.7838" lon="0.66723">
        <ele>1162.4</ele>
        <time>2018-11-25T00:20:12Z</time>
      </trkpt>
      <trkpt lat="42.78379" lon="0.66736">
        <ele>1159</ele>
        <time>2018-11-25T00:20:16Z</time>
      </trkpt>
      <trkpt lat="42.78381" lon="0.6675">
        <ele>1156.5</ele>
        <time>2018-11-25T00:20:20Z</time>
      </trkpt>
      <trkpt lat="42.78386" lon="0.66761">
        <ele>1155.3</ele>
        <time>2018-11-25T00:20:24Z</time>
      </trkpt>
      <trkpt lat="42.78394" lon="0.66769">
        <ele>1155.9</ele>
        <time>2018-11-25T00:20:28Z</time>
      </trkpt>
      <trkpt lat="42.78394" lon="0.66784">
        <ele>1153.7</ele>
        <time>2018-11-25T00:20:32Z</time>
      </trkpt>
      <trkpt lat="42.78391" lon="0.66796">
        <ele>1150.7</ele>
        <time>2018-11-25T00:20:36Z</time>
      </trkpt>
      <trkpt lat="42.7839" lon="0.66808">
        <ele>1149</ele>
        <time>2018-11-25T00:20:40Z</time>
      </trkpt>
      <trkpt lat="42.78386" lon="0.6682">
        <ele>1146.3</ele>
        <time>2018-11-25T00:20:44Z</time>
      </trkpt>
      <trkpt lat="42.78385" lon="0.66833">
        <ele>1144.7</ele>
        <time>2018-11-25T00:20:47Z</time>
      </trkpt>
      <trkpt lat="42.78384" lon="0.66848">
        <ele>1142.7</ele>
        <time>2018-11-25T00:20:52Z</time>
      </trkpt>
      <trkpt lat="42.78381" lon="0.6686">
        <ele>1140.3</ele>
        <time>2018-11-25T00:20:56Z</time>
      </trkpt>
      <trkpt lat="42.78382" lon="0.66873">
        <ele>1139.4</ele>
        <time>2018-11-25T00:20:59Z</time>
      </trkpt>
      <trkpt lat="42.78381" lon="0.66888">
        <ele>1138.2</ele>
        <time>2018-11-25T00:21:04Z</time>
      </trkpt>
      <trkpt lat="42.7838" lon="0.66904">
        <ele>1136.4</ele>
        <time>2018-11-25T00:21:08Z</time>
      </trkpt>
      <trkpt lat="42.7838" lon="0.66919">
        <ele>1135.5</ele>
        <time>2018-11-25T00:21:13Z</time>
      </trkpt>
      <trkpt lat="42.78381" lon="0.66931">
        <ele>1135.2</ele>
        <time>2018-11-25T00:21:16Z</time>
      </trkpt>
      <trkpt lat="42.78379" lon="0.66946">
        <ele>1133.6</ele>
        <time>2018-11-25T00:21:21Z</time>
      </trkpt>
      <trkpt lat="42.78378" lon="0.66958">
        <ele>1132.3</ele>
        <time>2018-11-25T00:21:25Z</time>
      </trkpt>
      <trkpt lat="42.78377" lon="0.66969">
        <ele>1131.1</ele>
        <time>2018-11-25T00:21:28Z</time>
      </trkpt>
      <trkpt lat="42.78377" lon="0.66973">
        <ele>1130.8</ele>
        <time>2018-11-25T00:21:29Z</time>
      </trkpt>
      <trkpt lat="42.78377" lon="0.66977">
        <ele>1130.4</ele>
        <time>2018-11-25T00:21:30Z</time>
      </trkpt>
      <trkpt lat="42.78377" lon="0.6698">
        <ele>1130.3</ele>
        <time>2018-11-25T00:21:31Z</time>
      </trkpt>
      <trkpt lat="42.78377" lon="0.66983">
        <ele>1130.5</ele>
        <time>2018-11-25T00:21:32Z</time>
      </trkpt>
      <trkpt lat="42.78378" lon="0.66986">
        <ele>1130.6</ele>
        <time>2018-11-25T00:21:33Z</time>
      </trkpt>
      <trkpt lat="42.78379" lon="0.66989">
        <ele>1130.9</ele>
        <time>2018-11-25T00:21:34Z</time>
      </trkpt>
      <trkpt lat="42.7838" lon="0.66993">
        <ele>1131.4</ele>
        <time>2018-11-25T00:21:35Z</time>
      </trkpt>
      <trkpt lat="42.78382" lon="0.66996">
        <ele>1132.4</ele>
        <time>2018-11-25T00:21:36Z</time>
      </trkpt>
      <trkpt lat="42.78383" lon="0.66998">
        <ele>1132.9</ele>
        <time>2018-11-25T00:21:37Z</time>
      </trkpt>
      <trkpt lat="42.78384" lon="0.67003">
        <ele>1133.3</ele>
        <time>2018-11-25T00:21:38Z</time>
      </trkpt>
      <trkpt lat="42.78384" lon="0.67005">
        <ele>1133.1</ele>
        <time>2018-11-25T00:21:39Z</time>
      </trkpt>
      <trkpt lat="42.78385" lon="0.67008">
        <ele>1133.3</ele>
        <time>2018-11-25T00:21:40Z</time>
      </trkpt>
      <trkpt lat="42.78387" lon="0.67021">
        <ele>1133.7</ele>
        <time>2018-11-25T00:21:44Z</time>
      </trkpt>
      <trkpt lat="42.78387" lon="0.67036">
        <ele>1132.9</ele>
        <time>2018-11-25T00:21:48Z</time>
      </trkpt>
      <trkpt lat="42.78387" lon="0.67051">
        <ele>1131.7</ele>
        <time>2018-11-25T00:21:53Z</time>
      </trkpt>
      <trkpt lat="42.78386" lon="0.6706">
        <ele>1130.9</ele>
        <time>2018-11-25T00:21:55Z</time>
      </trkpt>
      <trkpt lat="42.78386" lon="0.67063">
        <ele>1130.6</ele>
        <time>2018-11-25T00:21:56Z</time>
      </trkpt>
      <trkpt lat="42.78387" lon="0.67067">
        <ele>1130.4</ele>
        <time>2018-11-25T00:21:57Z</time>
      </trkpt>
      <trkpt lat="42.78387" lon="0.6707">
        <ele>1130.5</ele>
        <time>2018-11-25T00:21:58Z</time>
      </trkpt>
      <trkpt lat="42.78387" lon="0.67074">
        <ele>1130.3</ele>
        <time>2018-11-25T00:21:59Z</time>
      </trkpt>
      <trkpt lat="42.78388" lon="0.67078">
        <ele>1130.4</ele>
        <time>2018-11-25T00:22:00Z</time>
      </trkpt>
      <trkpt lat="42.78389" lon="0.67081">
        <ele>1130.6</ele>
        <time>2018-11-25T00:22:02Z</time>
      </trkpt>
      <trkpt lat="42.78389" lon="0.67085">
        <ele>1130.4</ele>
        <time>2018-11-25T00:22:03Z</time>
      </trkpt>
      <trkpt lat="42.78389" lon="0.67089">
        <ele>1130.2</ele>
        <time>2018-11-25T00:22:04Z</time>
      </trkpt>
      <trkpt lat="42.7839" lon="0.67092">
        <ele>1130.2</ele>
        <time>2018-11-25T00:22:05Z</time>
      </trkpt>
      <trkpt lat="42.7839" lon="0.67095">
        <ele>1129.9</ele>
        <time>2018-11-25T00:22:06Z</time>
      </trkpt>
      <trkpt lat="42.78389" lon="0.67098">
        <ele>1129.3</ele>
        <time>2018-11-25T00:22:07Z</time>
      </trkpt>
      <trkpt lat="42.7839" lon="0.67102">
        <ele>1129.2</ele>
        <time>2018-11-25T00:22:08Z</time>
      </trkpt>
      <trkpt lat="42.7839" lon="0.67105">
        <ele>1129.2</ele>
        <time>2018-11-25T00:22:09Z</time>
      </trkpt>
      <trkpt lat="42.78391" lon="0.67108">
        <ele>1129.1</ele>
        <time>2018-11-25T00:22:10Z</time>
      </trkpt>
      <trkpt lat="42.78392" lon="0.67111">
        <ele>1129.5</ele>
        <time>2018-11-25T00:22:11Z</time>
      </trkpt>
      <trkpt lat="42.78392" lon="0.67114">
        <ele>1129.8</ele>
        <time>2018-11-25T00:22:11Z</time>
      </trkpt>
      <trkpt lat="42.78393" lon="0.67117">
        <ele>1129.8</ele>
        <time>2018-11-25T00:22:12Z</time>
      </trkpt>
      <trkpt lat="42.78393" lon="0.6712">
        <ele>1129.5</ele>
        <time>2018-11-25T00:22:13Z</time>
      </trkpt>
      <trkpt lat="42.78393" lon="0.67124">
        <ele>1129.2</ele>
        <time>2018-11-25T00:22:14Z</time>
      </trkpt>
      <trkpt lat="42.78394" lon="0.67127">
        <ele>1129.1</ele>
        <time>2018-11-25T00:22:15Z</time>
      </trkpt>
      <trkpt lat="42.78394" lon="0.6713">
        <ele>1128.9</ele>
        <time>2018-11-25T00:22:16Z</time>
      </trkpt>
      <trkpt lat="42.78394" lon="0.67133">
        <ele>1128.7</ele>
        <time>2018-11-25T00:22:17Z</time>
      </trkpt>
      <trkpt lat="42.78395" lon="0.67136">
        <ele>1128.7</ele>
        <time>2018-11-25T00:22:18Z</time>
      </trkpt>
      <trkpt lat="42.78395" lon="0.67139">
        <ele>1128.7</ele>
        <time>2018-11-25T00:22:19Z</time>
      </trkpt>
      <trkpt lat="42.78395" lon="0.67142">
        <ele>1128.5</ele>
        <time>2018-11-25T00:22:20Z</time>
      </trkpt>
      <trkpt lat="42.78396" lon="0.67145">
        <ele>1128.4</ele>
        <time>2018-11-25T00:22:21Z</time>
      </trkpt>
      <trkpt lat="42.78397" lon="0.67148">
        <ele>1128.5</ele>
        <time>2018-11-25T00:22:22Z</time>
      </trkpt>
      <trkpt lat="42.78397" lon="0.67152">
        <ele>1128.3</ele>
        <time>2018-11-25T00:22:23Z</time>
      </trkpt>
      <trkpt lat="42.78398" lon="0.67155">
        <ele>1128.3</ele>
        <time>2018-11-25T00:22:24Z</time>
      </trkpt>
      <trkpt lat="42.78398" lon="0.67158">
        <ele>1128.1</ele>
        <time>2018-11-25T00:22:25Z</time>
      </trkpt>
      <trkpt lat="42.78399" lon="0.67165">
        <ele>1127.9</ele>
        <time>2018-11-25T00:22:27Z</time>
      </trkpt>
      <trkpt lat="42.78399" lon="0.67169">
        <ele>1127.4</ele>
        <time>2018-11-25T00:22:28Z</time>
      </trkpt>
      <trkpt lat="42.78401" lon="0.67177">
        <ele>1127.2</ele>
        <time>2018-11-25T00:22:30Z</time>
      </trkpt>
      <trkpt lat="42.78403" lon="0.67184">
        <ele>1127.4</ele>
        <time>2018-11-25T00:22:33Z</time>
      </trkpt>
      <trkpt lat="42.78404" lon="0.6719">
        <ele>1127.2</ele>
        <time>2018-11-25T00:22:34Z</time>
      </trkpt>
      <trkpt lat="42.78405" lon="0.67197">
        <ele>1126.8</ele>
        <time>2018-11-25T00:22:36Z</time>
      </trkpt>
      <trkpt lat="42.78407" lon="0.67206">
        <ele>1126.5</ele>
        <time>2018-11-25T00:22:39Z</time>
      </trkpt>
      <trkpt lat="42.78407" lon="0.67209">
        <ele>1126.3</ele>
        <time>2018-11-25T00:22:40Z</time>
      </trkpt>
      <trkpt lat="42.78408" lon="0.67213">
        <ele>1126</ele>
        <time>2018-11-25T00:22:41Z</time>
      </trkpt>
      <trkpt lat="42.78408" lon="0.67217">
        <ele>1125.6</ele>
        <time>2018-11-25T00:22:42Z</time>
      </trkpt>
      <trkpt lat="42.78409" lon="0.6722">
        <ele>1125.5</ele>
        <time>2018-11-25T00:22:44Z</time>
      </trkpt>
      <trkpt lat="42.7841" lon="0.67224">
        <ele>1125.6</ele>
        <time>2018-11-25T00:22:45Z</time>
      </trkpt>
      <trkpt lat="42.7841" lon="0.67227">
        <ele>1125.3</ele>
        <time>2018-11-25T00:22:46Z</time>
      </trkpt>
      <trkpt lat="42.78411" lon="0.6723">
        <ele>1125.5</ele>
        <time>2018-11-25T00:22:47Z</time>
      </trkpt>
      <trkpt lat="42.78412" lon="0.67233">
        <ele>1125.4</ele>
        <time>2018-11-25T00:22:48Z</time>
      </trkpt>
      <trkpt lat="42.78413" lon="0.67237">
        <ele>1125.3</ele>
        <time>2018-11-25T00:22:49Z</time>
      </trkpt>
      <trkpt lat="42.78414" lon="0.6724">
        <ele>1125.1</ele>
        <time>2018-11-25T00:22:50Z</time>
      </trkpt>
      <trkpt lat="42.78414" lon="0.67243">
        <ele>1124.6</ele>
        <time>2018-11-25T00:22:50Z</time>
      </trkpt>
      <trkpt lat="42.78414" lon="0.67246">
        <ele>1123.9</ele>
        <time>2018-11-25T00:22:51Z</time>
      </trkpt>
      <trkpt lat="42.78414" lon="0.67249">
        <ele>1123.5</ele>
        <time>2018-11-25T00:22:52Z</time>
      </trkpt>
      <trkpt lat="42.78414" lon="0.67252">
        <ele>1123.3</ele>
        <time>2018-11-25T00:22:53Z</time>
      </trkpt>
      <trkpt lat="42.78415" lon="0.67254">
        <ele>1123</ele>
        <time>2018-11-25T00:22:54Z</time>
      </trkpt>
      <trkpt lat="42.78416" lon="0.67257">
        <ele>1123.1</ele>
        <time>2018-11-25T00:22:55Z</time>
      </trkpt>
      <trkpt lat="42.78416" lon="0.6726">
        <ele>1123.1</ele>
        <time>2018-11-25T00:22:56Z</time>
      </trkpt>
      <trkpt lat="42.78418" lon="0.67274">
        <ele>1120.5</ele>
        <time>2018-11-25T00:23:00Z</time>
      </trkpt>
      <trkpt lat="42.78419" lon="0.67286">
        <ele>1119</ele>
        <time>2018-11-25T00:23:03Z</time>
      </trkpt>
      <trkpt lat="42.78419" lon="0.67289">
        <ele>1118.5</ele>
        <time>2018-11-25T00:23:04Z</time>
      </trkpt>
      <trkpt lat="42.7842" lon="0.67292">
        <ele>1118</ele>
        <time>2018-11-25T00:23:05Z</time>
      </trkpt>
      <trkpt lat="42.78421" lon="0.67295">
        <ele>1117.7</ele>
        <time>2018-11-25T00:23:06Z</time>
      </trkpt>
      <trkpt lat="42.78421" lon="0.67299">
        <ele>1117.2</ele>
        <time>2018-11-25T00:23:07Z</time>
      </trkpt>
      <trkpt lat="42.78421" lon="0.67302">
        <ele>1116.4</ele>
        <time>2018-11-25T00:23:08Z</time>
      </trkpt>
      <trkpt lat="42.78422" lon="0.67305">
        <ele>1115.8</ele>
        <time>2018-11-25T00:23:09Z</time>
      </trkpt>
      <trkpt lat="42.78423" lon="0.6731">
        <ele>1115.5</ele>
        <time>2018-11-25T00:23:11Z</time>
      </trkpt>
      <trkpt lat="42.78424" lon="0.67312">
        <ele>1115.4</ele>
        <time>2018-11-25T00:23:11Z</time>
      </trkpt>
      <trkpt lat="42.78425" lon="0.67315">
        <ele>1115</ele>
        <time>2018-11-25T00:23:12Z</time>
      </trkpt>
      <trkpt lat="42.78426" lon="0.67318">
        <ele>1114.5</ele>
        <time>2018-11-25T00:23:13Z</time>
      </trkpt>
      <trkpt lat="42.78426" lon="0.6732">
        <ele>1114.5</ele>
        <time>2018-11-25T00:23:14Z</time>
      </trkpt>
      <trkpt lat="42.78427" lon="0.67323">
        <ele>1114.2</ele>
        <time>2018-11-25T00:23:15Z</time>
      </trkpt>
      <trkpt lat="42.78428" lon="0.67325">
        <ele>1114.2</ele>
        <time>2018-11-25T00:23:16Z</time>
      </trkpt>
      <trkpt lat="42.78429" lon="0.67328">
        <ele>1114</ele>
        <time>2018-11-25T00:23:16Z</time>
      </trkpt>
      <trkpt lat="42.7843" lon="0.67331">
        <ele>1113.8</ele>
        <time>2018-11-25T00:23:17Z</time>
      </trkpt>
      <trkpt lat="42.78432" lon="0.67334">
        <ele>1113.8</ele>
        <time>2018-11-25T00:23:18Z</time>
      </trkpt>
      <trkpt lat="42.78433" lon="0.67337">
        <ele>1113.3</ele>
        <time>2018-11-25T00:23:19Z</time>
      </trkpt>
      <trkpt lat="42.78434" lon="0.6734">
        <ele>1113</ele>
        <time>2018-11-25T00:23:20Z</time>
      </trkpt>
      <trkpt lat="42.78435" lon="0.67343">
        <ele>1112.8</ele>
        <time>2018-11-25T00:23:21Z</time>
      </trkpt>
      <trkpt lat="42.78436" lon="0.67345">
        <ele>1112.5</ele>
        <time>2018-11-25T00:23:22Z</time>
      </trkpt>
      <trkpt lat="42.78437" lon="0.67349">
        <ele>1112.2</ele>
        <time>2018-11-25T00:23:23Z</time>
      </trkpt>
      <trkpt lat="42.78438" lon="0.67352">
        <ele>1111.7</ele>
        <time>2018-11-25T00:23:24Z</time>
      </trkpt>
      <trkpt lat="42.7844" lon="0.67355">
        <ele>1111.5</ele>
        <time>2018-11-25T00:23:25Z</time>
      </trkpt>
      <trkpt lat="42.78441" lon="0.67358">
        <ele>1111.2</ele>
        <time>2018-11-25T00:23:26Z</time>
      </trkpt>
      <trkpt lat="42.78442" lon="0.6736">
        <ele>1111.1</ele>
        <time>2018-11-25T00:23:27Z</time>
      </trkpt>
      <trkpt lat="42.78444" lon="0.67363">
        <ele>1111.5</ele>
        <time>2018-11-25T00:23:28Z</time>
      </trkpt>
      <trkpt lat="42.78446" lon="0.67365">
        <ele>1111.7</ele>
        <time>2018-11-25T00:23:29Z</time>
      </trkpt>
      <trkpt lat="42.78447" lon="0.67368">
        <ele>1111.4</ele>
        <time>2018-11-25T00:23:30Z</time>
      </trkpt>
      <trkpt lat="42.78448" lon="0.67371">
        <ele>1110.7</ele>
        <time>2018-11-25T00:23:32Z</time>
      </trkpt>
      <trkpt lat="42.7845" lon="0.67375">
        <ele>1110.1</ele>
        <time>2018-11-25T00:23:33Z</time>
      </trkpt>
      <trkpt lat="42.78451" lon="0.67378">
        <ele>1109.9</ele>
        <time>2018-11-25T00:23:34Z</time>
      </trkpt>
      <trkpt lat="42.78453" lon="0.6738">
        <ele>1109.7</ele>
        <time>2018-11-25T00:23:35Z</time>
      </trkpt>
      <trkpt lat="42.78454" lon="0.67382">
        <ele>1109.9</ele>
        <time>2018-11-25T00:23:35Z</time>
      </trkpt>
      <trkpt lat="42.78456" lon="0.67385">
        <ele>1109.7</ele>
        <time>2018-11-25T00:23:37Z</time>
      </trkpt>
      <trkpt lat="42.78461" lon="0.67397">
        <ele>1108.4</ele>
        <time>2018-11-25T00:23:41Z</time>
      </trkpt>
      <trkpt lat="42.78465" lon="0.67406">
        <ele>1107</ele>
        <time>2018-11-25T00:23:44Z</time>
      </trkpt>
      <trkpt lat="42.78466" lon="0.67408">
        <ele>1106.6</ele>
        <time>2018-11-25T00:23:44Z</time>
      </trkpt>
      <trkpt lat="42.78467" lon="0.67411">
        <ele>1106.2</ele>
        <time>2018-11-25T00:23:45Z</time>
      </trkpt>
      <trkpt lat="42.78468" lon="0.67413">
        <ele>1106.1</ele>
        <time>2018-11-25T00:23:46Z</time>
      </trkpt>
      <trkpt lat="42.78469" lon="0.67415">
        <ele>1105.6</ele>
        <time>2018-11-25T00:23:47Z</time>
      </trkpt>
      <trkpt lat="42.78471" lon="0.67417">
        <ele>1105.5</ele>
        <time>2018-11-25T00:23:48Z</time>
      </trkpt>
      <trkpt lat="42.78472" lon="0.67419">
        <ele>1105.1</ele>
        <time>2018-11-25T00:23:48Z</time>
      </trkpt>
      <trkpt lat="42.78476" lon="0.6743">
        <ele>1103.6</ele>
        <time>2018-11-25T00:23:52Z</time>
      </trkpt>
      <trkpt lat="42.78478" lon="0.67432">
        <ele>1103.3</ele>
        <time>2018-11-25T00:23:53Z</time>
      </trkpt>
      <trkpt lat="42.78484" lon="0.67443">
        <ele>1102.6</ele>
        <time>2018-11-25T00:23:57Z</time>
      </trkpt>
      <trkpt lat="42.78491" lon="0.67456">
        <ele>1101.2</ele>
        <time>2018-11-25T00:24:02Z</time>
      </trkpt>
      <trkpt lat="42.78497" lon="0.67467">
        <ele>1099.7</ele>
        <time>2018-11-25T00:24:06Z</time>
      </trkpt>
      <trkpt lat="42.78501" lon="0.67482">
        <ele>1096</ele>
        <time>2018-11-25T00:24:10Z</time>
      </trkpt>
      <trkpt lat="42.78506" lon="0.67496">
        <ele>1092.9</ele>
        <time>2018-11-25T00:24:15Z</time>
      </trkpt>
      <trkpt lat="42.78507" lon="0.67499">
        <ele>1092.1</ele>
        <time>2018-11-25T00:24:16Z</time>
      </trkpt>
      <trkpt lat="42.78508" lon="0.67503">
        <ele>1091.1</ele>
        <time>2018-11-25T00:24:17Z</time>
      </trkpt>
      <trkpt lat="42.78509" lon="0.67507">
        <ele>1090.1</ele>
        <time>2018-11-25T00:24:19Z</time>
      </trkpt>
      <trkpt lat="42.78511" lon="0.67511">
        <ele>1089.2</ele>
        <time>2018-11-25T00:24:20Z</time>
      </trkpt>
      <trkpt lat="42.78511" lon="0.67515">
        <ele>1088</ele>
        <time>2018-11-25T00:24:21Z</time>
      </trkpt>
      <trkpt lat="42.78512" lon="0.67518">
        <ele>1087.4</ele>
        <time>2018-11-25T00:24:22Z</time>
      </trkpt>
      <trkpt lat="42.78514" lon="0.67521">
        <ele>1087.1</ele>
        <time>2018-11-25T00:24:23Z</time>
      </trkpt>
      <trkpt lat="42.78516" lon="0.67525">
        <ele>1086.4</ele>
        <time>2018-11-25T00:24:25Z</time>
      </trkpt>
      <trkpt lat="42.78518" lon="0.67528">
        <ele>1086.2</ele>
        <time>2018-11-25T00:24:26Z</time>
      </trkpt>
      <trkpt lat="42.7852" lon="0.6753">
        <ele>1086.1</ele>
        <time>2018-11-25T00:24:27Z</time>
      </trkpt>
      <trkpt lat="42.78527" lon="0.67539">
        <ele>1085.2</ele>
        <time>2018-11-25T00:24:30Z</time>
      </trkpt>
      <trkpt lat="42.78532" lon="0.67546">
        <ele>1084.5</ele>
        <time>2018-11-25T00:24:33Z</time>
      </trkpt>
      <trkpt lat="42.78535" lon="0.67551">
        <ele>1083.4</ele>
        <time>2018-11-25T00:24:35Z</time>
      </trkpt>
      <trkpt lat="42.78541" lon="0.67561">
        <ele>1081.6</ele>
        <time>2018-11-25T00:24:39Z</time>
      </trkpt>
      <trkpt lat="42.78549" lon="0.67569">
        <ele>1081.3</ele>
        <time>2018-11-25T00:24:43Z</time>
      </trkpt>
      <trkpt lat="42.78557" lon="0.67576">
        <ele>1081.1</ele>
        <time>2018-11-25T00:24:47Z</time>
      </trkpt>
      <trkpt lat="42.78567" lon="0.67584">
        <ele>1081.1</ele>
        <time>2018-11-25T00:24:52Z</time>
      </trkpt>
      <trkpt lat="42.78576" lon="0.67589">
        <ele>1081.9</ele>
        <time>2018-11-25T00:24:55Z</time>
      </trkpt>
      <trkpt lat="42.78585" lon="0.67598">
        <ele>1081.7</ele>
        <time>2018-11-25T00:25:00Z</time>
      </trkpt>
      <trkpt lat="42.78596" lon="0.67607">
        <ele>1082.2</ele>
        <time>2018-11-25T00:25:05Z</time>
      </trkpt>
      <trkpt lat="42.78604" lon="0.67614">
        <ele>1082.6</ele>
        <time>2018-11-25T00:25:09Z</time>
      </trkpt>
      <trkpt lat="42.78613" lon="0.6762">
        <ele>1084.1</ele>
        <time>2018-11-25T00:25:13Z</time>
      </trkpt>
      <trkpt lat="42.78624" lon="0.67625">
        <ele>1086.9</ele>
        <time>2018-11-25T00:25:17Z</time>
      </trkpt>
      <trkpt lat="42.78633" lon="0.67628">
        <ele>1090.1</ele>
        <time>2018-11-25T00:25:21Z</time>
      </trkpt>
      <trkpt lat="42.78642" lon="0.67634">
        <ele>1092.3</ele>
        <time>2018-11-25T00:25:25Z</time>
      </trkpt>
      <trkpt lat="42.78644" lon="0.67646">
        <ele>1090.8</ele>
        <time>2018-11-25T00:25:29Z</time>
      </trkpt>
      <trkpt lat="42.78646" lon="0.6766">
        <ele>1090.1</ele>
        <time>2018-11-25T00:25:33Z</time>
      </trkpt>
      <trkpt lat="42.78649" lon="0.67673">
        <ele>1090.4</ele>
        <time>2018-11-25T00:25:37Z</time>
      </trkpt>
      <trkpt lat="42.78647" lon="0.67686">
        <ele>1089.1</ele>
        <time>2018-11-25T00:25:41Z</time>
      </trkpt>
      <trkpt lat="42.78637" lon="0.67687">
        <ele>1083.8</ele>
        <time>2018-11-25T00:25:45Z</time>
      </trkpt>
      <trkpt lat="42.78627" lon="0.67689">
        <ele>1078.5</ele>
        <time>2018-11-25T00:25:49Z</time>
      </trkpt>
      <trkpt lat="42.78619" lon="0.677">
        <ele>1074</ele>
        <time>2018-11-25T00:25:54Z</time>
      </trkpt>
      <trkpt lat="42.78614" lon="0.67713">
        <ele>1071.9</ele>
        <time>2018-11-25T00:25:58Z</time>
      </trkpt>
      <trkpt lat="42.7861" lon="0.67726">
        <ele>1070</ele>
        <time>2018-11-25T00:26:02Z</time>
      </trkpt>
      <trkpt lat="42.78603" lon="0.67738">
        <ele>1067.4</ele>
        <time>2018-11-25T00:26:07Z</time>
      </trkpt>
      <trkpt lat="42.78598" lon="0.6775">
        <ele>1066.3</ele>
        <time>2018-11-25T00:26:11Z</time>
      </trkpt>
      <trkpt lat="42.78593" lon="0.67761">
        <ele>1065.2</ele>
        <time>2018-11-25T00:26:15Z</time>
      </trkpt>
      <trkpt lat="42.78588" lon="0.67772">
        <ele>1063.9</ele>
        <time>2018-11-25T00:26:18Z</time>
      </trkpt>
      <trkpt lat="42.78583" lon="0.67784">
        <ele>1063.4</ele>
        <time>2018-11-25T00:26:22Z</time>
      </trkpt>
      <trkpt lat="42.78577" lon="0.67797">
        <ele>1062.3</ele>
        <time>2018-11-25T00:26:27Z</time>
      </trkpt>
      <trkpt lat="42.78571" lon="0.6781">
        <ele>1061.6</ele>
        <time>2018-11-25T00:26:32Z</time>
      </trkpt>
      <trkpt lat="42.78566" lon="0.67821">
        <ele>1061.1</ele>
        <time>2018-11-25T00:26:35Z</time>
      </trkpt>
      <trkpt lat="42.78561" lon="0.67832">
        <ele>1060.5</ele>
        <time>2018-11-25T00:26:39Z</time>
      </trkpt>
      <trkpt lat="42.78553" lon="0.6784">
        <ele>1057.2</ele>
        <time>2018-11-25T00:26:43Z</time>
      </trkpt>
      <trkpt lat="42.78544" lon="0.67844">
        <ele>1052.7</ele>
        <time>2018-11-25T00:26:47Z</time>
      </trkpt>
      <trkpt lat="42.78533" lon="0.67849">
        <ele>1047.1</ele>
        <time>2018-11-25T00:26:51Z</time>
      </trkpt>
      <trkpt lat="42.78528" lon="0.67853">
        <ele>1044.2</ele>
        <time>2018-11-25T00:26:54Z</time>
      </trkpt>
      <trkpt lat="42.78521" lon="0.67859">
        <ele>1041.5</ele>
        <time>2018-11-25T00:26:57Z</time>
      </trkpt>
      <trkpt lat="42.78519" lon="0.67862">
        <ele>1040.6</ele>
        <time>2018-11-25T00:26:58Z</time>
      </trkpt>
      <trkpt lat="42.78517" lon="0.67864">
        <ele>1039.9</ele>
        <time>2018-11-25T00:26:59Z</time>
      </trkpt>
      <trkpt lat="42.78516" lon="0.67867">
        <ele>1039.4</ele>
        <time>2018-11-25T00:27:00Z</time>
      </trkpt>
      <trkpt lat="42.78514" lon="0.6787">
        <ele>1038.8</ele>
        <time>2018-11-25T00:27:01Z</time>
      </trkpt>
      <trkpt lat="42.78513" lon="0.67874">
        <ele>1038.9</ele>
        <time>2018-11-25T00:27:02Z</time>
      </trkpt>
      <trkpt lat="42.78513" lon="0.67877">
        <ele>1039.3</ele>
        <time>2018-11-25T00:27:04Z</time>
      </trkpt>
      <trkpt lat="42.78512" lon="0.67881">
        <ele>1039.5</ele>
        <time>2018-11-25T00:27:05Z</time>
      </trkpt>
      <trkpt lat="42.78512" lon="0.67884">
        <ele>1039.6</ele>
        <time>2018-11-25T00:27:06Z</time>
      </trkpt>
      <trkpt lat="42.78512" lon="0.67887">
        <ele>1040.1</ele>
        <time>2018-11-25T00:27:06Z</time>
      </trkpt>
      <trkpt lat="42.78511" lon="0.6789">
        <ele>1040.3</ele>
        <time>2018-11-25T00:27:07Z</time>
      </trkpt>
      <trkpt lat="42.78511" lon="0.67893">
        <ele>1040.8</ele>
        <time>2018-11-25T00:27:08Z</time>
      </trkpt>
      <trkpt lat="42.78512" lon="0.67896">
        <ele>1041.5</ele>
        <time>2018-11-25T00:27:09Z</time>
      </trkpt>
      <trkpt lat="42.78512" lon="0.67906">
        <ele>1042.8</ele>
        <time>2018-11-25T00:27:12Z</time>
      </trkpt>
      <trkpt lat="42.78512" lon="0.67922">
        <ele>1044.7</ele>
        <time>2018-11-25T00:27:17Z</time>
      </trkpt>
      <trkpt lat="42.78513" lon="0.67936">
        <ele>1046.6</ele>
        <time>2018-11-25T00:27:21Z</time>
      </trkpt>
      <trkpt lat="42.78512" lon="0.67949">
        <ele>1046.5</ele>
        <time>2018-11-25T00:27:25Z</time>
      </trkpt>
      <trkpt lat="42.78512" lon="0.67953">
        <ele>1046.5</ele>
        <time>2018-11-25T00:27:26Z</time>
      </trkpt>
      <trkpt lat="42.78512" lon="0.67956">
        <ele>1046.9</ele>
        <time>2018-11-25T00:27:27Z</time>
      </trkpt>
      <trkpt lat="42.78512" lon="0.67961">
        <ele>1047.2</ele>
        <time>2018-11-25T00:27:28Z</time>
      </trkpt>
      <trkpt lat="42.78513" lon="0.67964">
        <ele>1047.2</ele>
        <time>2018-11-25T00:27:29Z</time>
      </trkpt>
      <trkpt lat="42.78513" lon="0.67977">
        <ele>1047.9</ele>
        <time>2018-11-25T00:27:33Z</time>
      </trkpt>
      <trkpt lat="42.78514" lon="0.6799">
        <ele>1047.9</ele>
        <time>2018-11-25T00:27:37Z</time>
      </trkpt>
      <trkpt lat="42.78516" lon="0.68005">
        <ele>1048.8</ele>
        <time>2018-11-25T00:27:41Z</time>
      </trkpt>
      <trkpt lat="42.78516" lon="0.68018">
        <ele>1047.9</ele>
        <time>2018-11-25T00:27:45Z</time>
      </trkpt>
      <trkpt lat="42.78516" lon="0.68021">
        <ele>1047.8</ele>
        <time>2018-11-25T00:27:46Z</time>
      </trkpt>
      <trkpt lat="42.78517" lon="0.68024">
        <ele>1047.9</ele>
        <time>2018-11-25T00:27:47Z</time>
      </trkpt>
      <trkpt lat="42.78517" lon="0.68027">
        <ele>1047.9</ele>
        <time>2018-11-25T00:27:48Z</time>
      </trkpt>
      <trkpt lat="42.78517" lon="0.68036">
        <ele>1047.2</ele>
        <time>2018-11-25T00:27:50Z</time>
      </trkpt>
      <trkpt lat="42.78517" lon="0.6804">
        <ele>1047.1</ele>
        <time>2018-11-25T00:27:52Z</time>
      </trkpt>
      <trkpt lat="42.78517" lon="0.68042">
        <ele>1047.1</ele>
        <time>2018-11-25T00:27:52Z</time>
      </trkpt>
      <trkpt lat="42.78518" lon="0.68046">
        <ele>1047</ele>
        <time>2018-11-25T00:27:53Z</time>
      </trkpt>
      <trkpt lat="42.78518" lon="0.68049">
        <ele>1046.5</ele>
        <time>2018-11-25T00:27:54Z</time>
      </trkpt>
      <trkpt lat="42.78517" lon="0.68053">
        <ele>1046.2</ele>
        <time>2018-11-25T00:27:55Z</time>
      </trkpt>
      <trkpt lat="42.78517" lon="0.68063">
        <ele>1045.2</ele>
        <time>2018-11-25T00:27:58Z</time>
      </trkpt>
      <trkpt lat="42.78517" lon="0.68066">
        <ele>1044.6</ele>
        <time>2018-11-25T00:27:59Z</time>
      </trkpt>
      <trkpt lat="42.78516" lon="0.68075">
        <ele>1043.3</ele>
        <time>2018-11-25T00:28:02Z</time>
      </trkpt>
      <trkpt lat="42.78518" lon="0.6809">
        <ele>1042.5</ele>
        <time>2018-11-25T00:28:07Z</time>
      </trkpt>
      <trkpt lat="42.78519" lon="0.68093">
        <ele>1042.4</ele>
        <time>2018-11-25T00:28:07Z</time>
      </trkpt>
      <trkpt lat="42.78519" lon="0.68097">
        <ele>1042.3</ele>
        <time>2018-11-25T00:28:09Z</time>
      </trkpt>
      <trkpt lat="42.78519" lon="0.68101">
        <ele>1041.6</ele>
        <time>2018-11-25T00:28:10Z</time>
      </trkpt>
      <trkpt lat="42.78519" lon="0.68104">
        <ele>1041.1</ele>
        <time>2018-11-25T00:28:11Z</time>
      </trkpt>
      <trkpt lat="42.78519" lon="0.68107">
        <ele>1040.7</ele>
        <time>2018-11-25T00:28:11Z</time>
      </trkpt>
      <trkpt lat="42.78519" lon="0.6811">
        <ele>1040.6</ele>
        <time>2018-11-25T00:28:12Z</time>
      </trkpt>
      <trkpt lat="42.78519" lon="0.68113">
        <ele>1040.2</ele>
        <time>2018-11-25T00:28:13Z</time>
      </trkpt>
      <trkpt lat="42.7852" lon="0.68116">
        <ele>1040</ele>
        <time>2018-11-25T00:28:14Z</time>
      </trkpt>
      <trkpt lat="42.78521" lon="0.68119">
        <ele>1040</ele>
        <time>2018-11-25T00:28:15Z</time>
      </trkpt>
      <trkpt lat="42.78521" lon="0.68122">
        <ele>1040.1</ele>
        <time>2018-11-25T00:28:16Z</time>
      </trkpt>
      <trkpt lat="42.78522" lon="0.68125">
        <ele>1040</ele>
        <time>2018-11-25T00:28:17Z</time>
      </trkpt>
      <trkpt lat="42.78523" lon="0.68128">
        <ele>1039.8</ele>
        <time>2018-11-25T00:28:18Z</time>
      </trkpt>
      <trkpt lat="42.78523" lon="0.68131">
        <ele>1039.6</ele>
        <time>2018-11-25T00:28:19Z</time>
      </trkpt>
      <trkpt lat="42.78524" lon="0.68134">
        <ele>1039.6</ele>
        <time>2018-11-25T00:28:20Z</time>
      </trkpt>
      <trkpt lat="42.78525" lon="0.68136">
        <ele>1039.8</ele>
        <time>2018-11-25T00:28:20Z</time>
      </trkpt>
      <trkpt lat="42.78526" lon="0.68139">
        <ele>1039.6</ele>
        <time>2018-11-25T00:28:21Z</time>
      </trkpt>
      <trkpt lat="42.78526" lon="0.68142">
        <ele>1039.2</ele>
        <time>2018-11-25T00:28:22Z</time>
      </trkpt>
      <trkpt lat="42.78527" lon="0.68145">
        <ele>1039.1</ele>
        <time>2018-11-25T00:28:23Z</time>
      </trkpt>
      <trkpt lat="42.78527" lon="0.68148">
        <ele>1038.6</ele>
        <time>2018-11-25T00:28:24Z</time>
      </trkpt>
      <trkpt lat="42.78527" lon="0.68151">
        <ele>1038.2</ele>
        <time>2018-11-25T00:28:25Z</time>
      </trkpt>
      <trkpt lat="42.78528" lon="0.68153">
        <ele>1037.9</ele>
        <time>2018-11-25T00:28:26Z</time>
      </trkpt>
      <trkpt lat="42.78528" lon="0.68156">
        <ele>1037.9</ele>
        <time>2018-11-25T00:28:27Z</time>
      </trkpt>
      <trkpt lat="42.7853" lon="0.68159">
        <ele>1038</ele>
        <time>2018-11-25T00:28:27Z</time>
      </trkpt>
      <trkpt lat="42.7853" lon="0.68161">
        <ele>1037.8</ele>
        <time>2018-11-25T00:28:28Z</time>
      </trkpt>
      <trkpt lat="42.7853" lon="0.68164">
        <ele>1037.3</ele>
        <time>2018-11-25T00:28:29Z</time>
      </trkpt>
      <trkpt lat="42.78531" lon="0.68168">
        <ele>1036.8</ele>
        <time>2018-11-25T00:28:30Z</time>
      </trkpt>
      <trkpt lat="42.78531" lon="0.68171">
        <ele>1036.3</ele>
        <time>2018-11-25T00:28:31Z</time>
      </trkpt>
      <trkpt lat="42.78532" lon="0.68176">
        <ele>1035.5</ele>
        <time>2018-11-25T00:28:32Z</time>
      </trkpt>
      <trkpt lat="42.78532" lon="0.68178">
        <ele>1035.2</ele>
        <time>2018-11-25T00:28:33Z</time>
      </trkpt>
      <trkpt lat="42.78533" lon="0.68181">
        <ele>1034.9</ele>
        <time>2018-11-25T00:28:34Z</time>
      </trkpt>
      <trkpt lat="42.78533" lon="0.68184">
        <ele>1034.6</ele>
        <time>2018-11-25T00:28:35Z</time>
      </trkpt>
      <trkpt lat="42.78534" lon="0.68187">
        <ele>1034.4</ele>
        <time>2018-11-25T00:28:36Z</time>
      </trkpt>
      <trkpt lat="42.78535" lon="0.6819">
        <ele>1034.1</ele>
        <time>2018-11-25T00:28:37Z</time>
      </trkpt>
      <trkpt lat="42.78535" lon="0.68193">
        <ele>1033.6</ele>
        <time>2018-11-25T00:28:38Z</time>
      </trkpt>
      <trkpt lat="42.78536" lon="0.68195">
        <ele>1033.3</ele>
        <time>2018-11-25T00:28:39Z</time>
      </trkpt>
      <trkpt lat="42.78537" lon="0.68198">
        <ele>1033.3</ele>
        <time>2018-11-25T00:28:39Z</time>
      </trkpt>
      <trkpt lat="42.78541" lon="0.68208">
        <ele>1032.4</ele>
        <time>2018-11-25T00:28:43Z</time>
      </trkpt>
      <trkpt lat="42.78544" lon="0.68214">
        <ele>1032.1</ele>
        <time>2018-11-25T00:28:45Z</time>
      </trkpt>
      <trkpt lat="42.78545" lon="0.68218">
        <ele>1031.9</ele>
        <time>2018-11-25T00:28:46Z</time>
      </trkpt>
      <trkpt lat="42.78546" lon="0.6822">
        <ele>1031.3</ele>
        <time>2018-11-25T00:28:47Z</time>
      </trkpt>
      <trkpt lat="42.78547" lon="0.68223">
        <ele>1031</ele>
        <time>2018-11-25T00:28:48Z</time>
      </trkpt>
      <trkpt lat="42.78549" lon="0.68226">
        <ele>1031</ele>
        <time>2018-11-25T00:28:49Z</time>
      </trkpt>
      <trkpt lat="42.78555" lon="0.68235">
        <ele>1030.6</ele>
        <time>2018-11-25T00:28:53Z</time>
      </trkpt>
      <trkpt lat="42.78557" lon="0.68238">
        <ele>1030.2</ele>
        <time>2018-11-25T00:28:54Z</time>
      </trkpt>
      <trkpt lat="42.78559" lon="0.68239">
        <ele>1030.4</ele>
        <time>2018-11-25T00:28:55Z</time>
      </trkpt>
      <trkpt lat="42.78561" lon="0.68241">
        <ele>1030.4</ele>
        <time>2018-11-25T00:28:56Z</time>
      </trkpt>
      <trkpt lat="42.78562" lon="0.68243">
        <ele>1030.1</ele>
        <time>2018-11-25T00:28:56Z</time>
      </trkpt>
      <trkpt lat="42.78563" lon="0.68245">
        <ele>1029.7</ele>
        <time>2018-11-25T00:28:57Z</time>
      </trkpt>
      <trkpt lat="42.78564" lon="0.68248">
        <ele>1029.3</ele>
        <time>2018-11-25T00:28:58Z</time>
      </trkpt>
      <trkpt lat="42.78565" lon="0.68252">
        <ele>1028.3</ele>
        <time>2018-11-25T00:28:59Z</time>
      </trkpt>
      <trkpt lat="42.78567" lon="0.68256">
        <ele>1027.6</ele>
        <time>2018-11-25T00:29:01Z</time>
      </trkpt>
      <trkpt lat="42.78567" lon="0.68261">
        <ele>1026.3</ele>
        <time>2018-11-25T00:29:02Z</time>
      </trkpt>
      <trkpt lat="42.78567" lon="0.68264">
        <ele>1025.4</ele>
        <time>2018-11-25T00:29:03Z</time>
      </trkpt>
      <trkpt lat="42.78574" lon="0.68276">
        <ele>1023.1</ele>
        <time>2018-11-25T00:29:07Z</time>
      </trkpt>
      <trkpt lat="42.78582" lon="0.68285">
        <ele>1021.8</ele>
        <time>2018-11-25T00:29:12Z</time>
      </trkpt>
      <trkpt lat="42.78591" lon="0.68291">
        <ele>1021.1</ele>
        <time>2018-11-25T00:29:15Z</time>
      </trkpt>
      <trkpt lat="42.786" lon="0.68298">
        <ele>1019.6</ele>
        <time>2018-11-25T00:29:20Z</time>
      </trkpt>
      <trkpt lat="42.78609" lon="0.68304">
        <ele>1018.4</ele>
        <time>2018-11-25T00:29:23Z</time>
      </trkpt>
      <trkpt lat="42.78617" lon="0.68312">
        <ele>1016.1</ele>
        <time>2018-11-25T00:29:27Z</time>
      </trkpt>
      <trkpt lat="42.78626" lon="0.68316">
        <ele>1014.7</ele>
        <time>2018-11-25T00:29:31Z</time>
      </trkpt>
      <trkpt lat="42.78632" lon="0.68325">
        <ele>1011.7</ele>
        <time>2018-11-25T00:29:35Z</time>
      </trkpt>
      <trkpt lat="42.78639" lon="0.68336">
        <ele>1007.5</ele>
        <time>2018-11-25T00:29:39Z</time>
      </trkpt>
      <trkpt lat="42.78645" lon="0.68345">
        <ele>1003.9</ele>
        <time>2018-11-25T00:29:43Z</time>
      </trkpt>
      <trkpt lat="42.78653" lon="0.68351">
        <ele>1001.5</ele>
        <time>2018-11-25T00:29:46Z</time>
      </trkpt>
      <trkpt lat="42.78661" lon="0.68358">
        <ele>998.6</ele>
        <time>2018-11-25T00:29:50Z</time>
      </trkpt>
      <trkpt lat="42.78668" lon="0.68366">
        <ele>995.2</ele>
        <time>2018-11-25T00:29:54Z</time>
      </trkpt>
      <trkpt lat="42.78678" lon="0.68371">
        <ele>992.4</ele>
        <time>2018-11-25T00:29:58Z</time>
      </trkpt>
      <trkpt lat="42.78688" lon="0.68376">
        <ele>989.8</ele>
        <time>2018-11-25T00:30:02Z</time>
      </trkpt>
      <trkpt lat="42.78698" lon="0.68382">
        <ele>986.9</ele>
        <time>2018-11-25T00:30:07Z</time>
      </trkpt>
      <trkpt lat="42.78707" lon="0.68387">
        <ele>983.9</ele>
        <time>2018-11-25T00:30:11Z</time>
      </trkpt>
      <trkpt lat="42.78715" lon="0.68396">
        <ele>979.7</ele>
        <time>2018-11-25T00:30:15Z</time>
      </trkpt>
      <trkpt lat="42.78723" lon="0.68402">
        <ele>976.7</ele>
        <time>2018-11-25T00:30:18Z</time>
      </trkpt>
      <trkpt lat="42.78733" lon="0.68404">
        <ele>974.9</ele>
        <time>2018-11-25T00:30:23Z</time>
      </trkpt>
      <trkpt lat="42.78743" lon="0.68408">
        <ele>972.6</ele>
        <time>2018-11-25T00:30:27Z</time>
      </trkpt>
      <trkpt lat="42.78753" lon="0.68411">
        <ele>970.7</ele>
        <time>2018-11-25T00:30:31Z</time>
      </trkpt>
      <trkpt lat="42.78762" lon="0.68419">
        <ele>967.2</ele>
        <time>2018-11-25T00:30:35Z</time>
      </trkpt>
      <trkpt lat="42.78771" lon="0.68425">
        <ele>964.2</ele>
        <time>2018-11-25T00:30:39Z</time>
      </trkpt>
      <trkpt lat="42.78782" lon="0.68427">
        <ele>963.3</ele>
        <time>2018-11-25T00:30:44Z</time>
      </trkpt>
      <trkpt lat="42.78793" lon="0.68425">
        <ele>964</ele>
        <time>2018-11-25T00:30:48Z</time>
      </trkpt>
      <trkpt lat="42.78803" lon="0.6842">
        <ele>966.1</ele>
        <time>2018-11-25T00:30:52Z</time>
      </trkpt>
      <trkpt lat="42.78812" lon="0.68416">
        <ele>968.1</ele>
        <time>2018-11-25T00:30:56Z</time>
      </trkpt>
      <trkpt lat="42.78824" lon="0.68417">
        <ele>968</ele>
        <time>2018-11-25T00:31:01Z</time>
      </trkpt>
      <trkpt lat="42.78833" lon="0.68423">
        <ele>966.5</ele>
        <time>2018-11-25T00:31:05Z</time>
      </trkpt>
      <trkpt lat="42.78837" lon="0.68435">
        <ele>962.4</ele>
        <time>2018-11-25T00:31:09Z</time>
      </trkpt>
      <trkpt lat="42.78838" lon="0.68437">
        <ele>961.6</ele>
        <time>2018-11-25T00:31:09Z</time>
      </trkpt>
      <trkpt lat="42.78839" lon="0.68439">
        <ele>960.9</ele>
        <time>2018-11-25T00:31:10Z</time>
      </trkpt>
      <trkpt lat="42.78841" lon="0.6844">
        <ele>960.9</ele>
        <time>2018-11-25T00:31:11Z</time>
      </trkpt>
      <trkpt lat="42.78846" lon="0.68448">
        <ele>958.5</ele>
        <time>2018-11-25T00:31:14Z</time>
      </trkpt>
      <trkpt lat="42.78848" lon="0.68452">
        <ele>957.6</ele>
        <time>2018-11-25T00:31:16Z</time>
      </trkpt>
      <trkpt lat="42.78849" lon="0.68456">
        <ele>956.4</ele>
        <time>2018-11-25T00:31:17Z</time>
      </trkpt>
      <trkpt lat="42.78851" lon="0.68458">
        <ele>956</ele>
        <time>2018-11-25T00:31:18Z</time>
      </trkpt>
      <trkpt lat="42.78851" lon="0.6846">
        <ele>955.2</ele>
        <time>2018-11-25T00:31:18Z</time>
      </trkpt>
      <trkpt lat="42.78852" lon="0.68463">
        <ele>954.6</ele>
        <time>2018-11-25T00:31:19Z</time>
      </trkpt>
      <trkpt lat="42.78853" lon="0.68466">
        <ele>953.7</ele>
        <time>2018-11-25T00:31:20Z</time>
      </trkpt>
      <trkpt lat="42.78853" lon="0.68469">
        <ele>953</ele>
        <time>2018-11-25T00:31:21Z</time>
      </trkpt>
      <trkpt lat="42.78853" lon="0.68473">
        <ele>951.5</ele>
        <time>2018-11-25T00:31:22Z</time>
      </trkpt>
      <trkpt lat="42.78849" lon="0.68485">
        <ele>947.2</ele>
        <time>2018-11-25T00:31:26Z</time>
      </trkpt>
      <trkpt lat="42.78843" lon="0.68498">
        <ele>942</ele>
        <time>2018-11-25T00:31:31Z</time>
      </trkpt>
      <trkpt lat="42.78836" lon="0.68507">
        <ele>938.1</ele>
        <time>2018-11-25T00:31:35Z</time>
      </trkpt>
      <trkpt lat="42.78833" lon="0.68522">
        <ele>933.3</ele>
        <time>2018-11-25T00:31:39Z</time>
      </trkpt>
      <trkpt lat="42.78831" lon="0.6853">
        <ele>930.2</ele>
        <time>2018-11-25T00:31:42Z</time>
      </trkpt>
      <trkpt lat="42.7883" lon="0.6854">
        <ele>927.1</ele>
        <time>2018-11-25T00:31:45Z</time>
      </trkpt>
      <trkpt lat="42.7883" lon="0.68545">
        <ele>925.9</ele>
        <time>2018-11-25T00:31:46Z</time>
      </trkpt>
      <trkpt lat="42.78831" lon="0.68549">
        <ele>924.9</ele>
        <time>2018-11-25T00:31:47Z</time>
      </trkpt>
      <trkpt lat="42.78832" lon="0.68554">
        <ele>923.5</ele>
        <time>2018-11-25T00:31:49Z</time>
      </trkpt>
      <trkpt lat="42.78832" lon="0.68558">
        <ele>922.4</ele>
        <time>2018-11-25T00:31:50Z</time>
      </trkpt>
      <trkpt lat="42.78833" lon="0.68562">
        <ele>921.3</ele>
        <time>2018-11-25T00:31:51Z</time>
      </trkpt>
      <trkpt lat="42.78832" lon="0.68566">
        <ele>920.1</ele>
        <time>2018-11-25T00:31:52Z</time>
      </trkpt>
      <trkpt lat="42.78831" lon="0.68569">
        <ele>918.9</ele>
        <time>2018-11-25T00:31:53Z</time>
      </trkpt>
      <trkpt lat="42.78822" lon="0.68574">
        <ele>915.9</ele>
        <time>2018-11-25T00:31:57Z</time>
      </trkpt>
      <trkpt lat="42.78812" lon="0.68574">
        <ele>914.5</ele>
        <time>2018-11-25T00:32:01Z</time>
      </trkpt>
      <trkpt lat="42.78802" lon="0.68577">
        <ele>912.7</ele>
        <time>2018-11-25T00:32:05Z</time>
      </trkpt>
      <trkpt lat="42.78793" lon="0.68574">
        <ele>912.9</ele>
        <time>2018-11-25T00:32:09Z</time>
      </trkpt>
      <trkpt lat="42.78784" lon="0.6858">
        <ele>910.9</ele>
        <time>2018-11-25T00:32:13Z</time>
      </trkpt>
      <trkpt lat="42.78779" lon="0.68592">
        <ele>907.3</ele>
        <time>2018-11-25T00:32:17Z</time>
      </trkpt>
      <trkpt lat="42.78773" lon="0.68604">
        <ele>903.6</ele>
        <time>2018-11-25T00:32:21Z</time>
      </trkpt>
      <trkpt lat="42.7877" lon="0.68616">
        <ele>899.8</ele>
        <time>2018-11-25T00:32:25Z</time>
      </trkpt>
      <trkpt lat="42.78767" lon="0.68629">
        <ele>895.8</ele>
        <time>2018-11-25T00:32:29Z</time>
      </trkpt>
      <trkpt lat="42.78761" lon="0.6864">
        <ele>892.5</ele>
        <time>2018-11-25T00:32:33Z</time>
      </trkpt>
      <trkpt lat="42.78756" lon="0.68651">
        <ele>889.1</ele>
        <time>2018-11-25T00:32:37Z</time>
      </trkpt>
      <trkpt lat="42.7875" lon="0.68662">
        <ele>885.5</ele>
        <time>2018-11-25T00:32:41Z</time>
      </trkpt>
      <trkpt lat="42.78745" lon="0.68673">
        <ele>881.7</ele>
        <time>2018-11-25T00:32:44Z</time>
      </trkpt>
      <trkpt lat="42.7874" lon="0.68684">
        <ele>877.9</ele>
        <time>2018-11-25T00:32:48Z</time>
      </trkpt>
      <trkpt lat="42.78735" lon="0.68697">
        <ele>872.9</ele>
        <time>2018-11-25T00:32:53Z</time>
      </trkpt>
      <trkpt lat="42.78731" lon="0.68709">
        <ele>868.4</ele>
        <time>2018-11-25T00:32:56Z</time>
      </trkpt>
      <trkpt lat="42.78732" lon="0.68723">
        <ele>863.5</ele>
        <time>2018-11-25T00:33:00Z</time>
      </trkpt>
      <trkpt lat="42.78737" lon="0.68733">
        <ele>859.7</ele>
        <time>2018-11-25T00:33:04Z</time>
      </trkpt>
      <trkpt lat="42.78741" lon="0.68744">
        <ele>855.9</ele>
        <time>2018-11-25T00:33:08Z</time>
      </trkpt>
      <trkpt lat="42.78749" lon="0.68753">
        <ele>853.6</ele>
        <time>2018-11-25T00:33:12Z</time>
      </trkpt>
      <trkpt lat="42.78757" lon="0.68758">
        <ele>852.2</ele>
        <time>2018-11-25T00:33:15Z</time>
      </trkpt>
      <trkpt lat="42.78766" lon="0.68761">
        <ele>852.1</ele>
        <time>2018-11-25T00:33:19Z</time>
      </trkpt>
      <trkpt lat="42.78776" lon="0.68757">
        <ele>854.5</ele>
        <time>2018-11-25T00:33:23Z</time>
      </trkpt>
      <trkpt lat="42.78785" lon="0.68752">
        <ele>856.8</ele>
        <time>2018-11-25T00:33:27Z</time>
      </trkpt>
      <trkpt lat="42.78792" lon="0.68742">
        <ele>860.9</ele>
        <time>2018-11-25T00:33:31Z</time>
      </trkpt>
      <trkpt lat="42.78798" lon="0.68733">
        <ele>864.6</ele>
        <time>2018-11-25T00:33:35Z</time>
      </trkpt>
      <trkpt lat="42.78801" lon="0.68746">
        <ele>860.9</ele>
        <time>2018-11-25T00:33:39Z</time>
      </trkpt>
      <trkpt lat="42.78801" lon="0.68759">
        <ele>856.6</ele>
        <time>2018-11-25T00:33:43Z</time>
      </trkpt>
      <trkpt lat="42.78808" lon="0.68769">
        <ele>854.5</ele>
        <time>2018-11-25T00:33:47Z</time>
      </trkpt>
      <trkpt lat="42.78807" lon="0.68784">
        <ele>849.9</ele>
        <time>2018-11-25T00:33:51Z</time>
      </trkpt>
      <trkpt lat="42.78805" lon="0.68798">
        <ele>845.2</ele>
        <time>2018-11-25T00:33:55Z</time>
      </trkpt>
      <trkpt lat="42.78804" lon="0.68812">
        <ele>840.9</ele>
        <time>2018-11-25T00:33:59Z</time>
      </trkpt>
      <trkpt lat="42.78801" lon="0.68825">
        <ele>836.4</ele>
        <time>2018-11-25T00:34:04Z</time>
      </trkpt>
      <trkpt lat="42.78797" lon="0.68838">
        <ele>831.6</ele>
        <time>2018-11-25T00:34:08Z</time>
      </trkpt>
      <trkpt lat="42.78795" lon="0.68853">
        <ele>827.4</ele>
        <time>2018-11-25T00:34:12Z</time>
      </trkpt>
      <trkpt lat="42.78792" lon="0.68867">
        <ele>822.7</ele>
        <time>2018-11-25T00:34:16Z</time>
      </trkpt>
      <trkpt lat="42.78789" lon="0.68882">
        <ele>818.1</ele>
        <time>2018-11-25T00:34:21Z</time>
      </trkpt>
      <trkpt lat="42.78788" lon="0.68895">
        <ele>814.4</ele>
        <time>2018-11-25T00:34:25Z</time>
      </trkpt>
      <trkpt lat="42.7879" lon="0.68909">
        <ele>811.1</ele>
        <time>2018-11-25T00:34:29Z</time>
      </trkpt>
      <trkpt lat="42.7879" lon="0.68922">
        <ele>808</ele>
        <time>2018-11-25T00:34:33Z</time>
      </trkpt>
      <trkpt lat="42.78791" lon="0.68937">
        <ele>804.5</ele>
        <time>2018-11-25T00:34:37Z</time>
      </trkpt>
      <trkpt lat="42.78791" lon="0.68951">
        <ele>801.4</ele>
        <time>2018-11-25T00:34:41Z</time>
      </trkpt>
      <trkpt lat="42.7879" lon="0.68963">
        <ele>797.8</ele>
        <time>2018-11-25T00:34:45Z</time>
      </trkpt>
      <trkpt lat="42.78794" lon="0.68975">
        <ele>796.3</ele>
        <time>2018-11-25T00:34:49Z</time>
      </trkpt>
      <trkpt lat="42.78792" lon="0.68988">
        <ele>793</ele>
        <time>2018-11-25T00:34:53Z</time>
      </trkpt>
      <trkpt lat="42.78796" lon="0.69">
        <ele>791.4</ele>
        <time>2018-11-25T00:34:56Z</time>
      </trkpt>
      <trkpt lat="42.78796" lon="0.69014">
        <ele>788.1</ele>
        <time>2018-11-25T00:35:00Z</time>
      </trkpt>
      <trkpt lat="42.78791" lon="0.69025">
        <ele>783.9</ele>
        <time>2018-11-25T00:35:04Z</time>
      </trkpt>
      <trkpt lat="42.78784" lon="0.69036">
        <ele>779.2</ele>
        <time>2018-11-25T00:35:08Z</time>
      </trkpt>
      <trkpt lat="42.78774" lon="0.6904">
        <ele>775.5</ele>
        <time>2018-11-25T00:35:12Z</time>
      </trkpt>
      <trkpt lat="42.78764" lon="0.69045">
        <ele>771.3</ele>
        <time>2018-11-25T00:35:17Z</time>
      </trkpt>
      <trkpt lat="42.78756" lon="0.6905">
        <ele>767.9</ele>
        <time>2018-11-25T00:35:20Z</time>
      </trkpt>
      <trkpt lat="42.78749" lon="0.69057">
        <ele>764.6</ele>
        <time>2018-11-25T00:35:24Z</time>
      </trkpt>
      <trkpt lat="42.78739" lon="0.69059">
        <ele>761.4</ele>
        <time>2018-11-25T00:35:28Z</time>
      </trkpt>
      <trkpt lat="42.78729" lon="0.69057">
        <ele>760.4</ele>
        <time>2018-11-25T00:35:32Z</time>
      </trkpt>
      <trkpt lat="42.78719" lon="0.69057">
        <ele>757.6</ele>
        <time>2018-11-25T00:35:36Z</time>
      </trkpt>
      <trkpt lat="42.78709" lon="0.69062">
        <ele>754.6</ele>
        <time>2018-11-25T00:35:40Z</time>
      </trkpt>
      <trkpt lat="42.78699" lon="0.69064">
        <ele>752.3</ele>
        <time>2018-11-25T00:35:44Z</time>
      </trkpt>
      <trkpt lat="42.78689" lon="0.69068">
        <ele>750.3</ele>
        <time>2018-11-25T00:35:48Z</time>
      </trkpt>
      <trkpt lat="42.78687" lon="0.69068">
        <ele>750.7</ele>
        <time>2018-11-25T00:35:49Z</time>
      </trkpt>
      <trkpt lat="42.78683" lon="0.69069">
        <ele>748.7</ele>
        <time>2018-11-25T00:35:51Z</time>
      </trkpt>
      <trkpt lat="42.78681" lon="0.69069">
        <ele>748.4</ele>
        <time>2018-11-25T00:35:52Z</time>
      </trkpt>
      <trkpt lat="42.78672" lon="0.69072">
        <ele>746.5</ele>
        <time>2018-11-25T00:35:56Z</time>
      </trkpt>
      <trkpt lat="42.78662" lon="0.69075">
        <ele>744.6</ele>
        <time>2018-11-25T00:36:00Z</time>
      </trkpt>
      <trkpt lat="42.78655" lon="0.69085">
        <ele>742.2</ele>
        <time>2018-11-25T00:36:04Z</time>
      </trkpt>
      <trkpt lat="42.78648" lon="0.69097">
        <ele>740.8</ele>
        <time>2018-11-25T00:36:08Z</time>
      </trkpt>
      <trkpt lat="42.78643" lon="0.69107">
        <ele>737.2</ele>
        <time>2018-11-25T00:36:12Z</time>
      </trkpt>
      <trkpt lat="42.78637" lon="0.69119">
        <ele>734.8</ele>
        <time>2018-11-25T00:36:16Z</time>
      </trkpt>
      <trkpt lat="42.78636" lon="0.69122">
        <ele>734.5</ele>
        <time>2018-11-25T00:36:17Z</time>
      </trkpt>
      <trkpt lat="42.78635" lon="0.69125">
        <ele>733.8</ele>
        <time>2018-11-25T00:36:18Z</time>
      </trkpt>
      <trkpt lat="42.78635" lon="0.69129">
        <ele>733.4</ele>
        <time>2018-11-25T00:36:19Z</time>
      </trkpt>
      <trkpt lat="42.78634" lon="0.69132">
        <ele>732.8</ele>
        <time>2018-11-25T00:36:20Z</time>
      </trkpt>
      <trkpt lat="42.78633" lon="0.69136">
        <ele>732.2</ele>
        <time>2018-11-25T00:36:21Z</time>
      </trkpt>
      <trkpt lat="42.78632" lon="0.6914">
        <ele>731.6</ele>
        <time>2018-11-25T00:36:22Z</time>
      </trkpt>
      <trkpt lat="42.78632" lon="0.69143">
        <ele>731</ele>
        <time>2018-11-25T00:36:23Z</time>
      </trkpt>
      <trkpt lat="42.78632" lon="0.69146">
        <ele>730.6</ele>
        <time>2018-11-25T00:36:24Z</time>
      </trkpt>
      <trkpt lat="42.78631" lon="0.69149">
        <ele>730.1</ele>
        <time>2018-11-25T00:36:25Z</time>
      </trkpt>
      <trkpt lat="42.7863" lon="0.69152">
        <ele>730.5</ele>
        <time>2018-11-25T00:36:26Z</time>
      </trkpt>
      <trkpt lat="42.78629" lon="0.69155">
        <ele>730.7</ele>
        <time>2018-11-25T00:36:27Z</time>
      </trkpt>
      <trkpt lat="42.78629" lon="0.69158">
        <ele>728.9</ele>
        <time>2018-11-25T00:36:28Z</time>
      </trkpt>
      <trkpt lat="42.78628" lon="0.69161">
        <ele>728.5</ele>
        <time>2018-11-25T00:36:29Z</time>
      </trkpt>
      <trkpt lat="42.78627" lon="0.69165">
        <ele>728</ele>
        <time>2018-11-25T00:36:30Z</time>
      </trkpt>
      <trkpt lat="42.78627" lon="0.69168">
        <ele>727.6</ele>
        <time>2018-11-25T00:36:31Z</time>
      </trkpt>
      <trkpt lat="42.78626" lon="0.69171">
        <ele>727.2</ele>
        <time>2018-11-25T00:36:32Z</time>
      </trkpt>
      <trkpt lat="42.78624" lon="0.69175">
        <ele>726.4</ele>
        <time>2018-11-25T00:36:34Z</time>
      </trkpt>
      <trkpt lat="42.78622" lon="0.69178">
        <ele>726.1</ele>
        <time>2018-11-25T00:36:34Z</time>
      </trkpt>
      <trkpt lat="42.78621" lon="0.6918">
        <ele>725.6</ele>
        <time>2018-11-25T00:36:35Z</time>
      </trkpt>
      <trkpt lat="42.78619" lon="0.69182">
        <ele>725.2</ele>
        <time>2018-11-25T00:36:36Z</time>
      </trkpt>
      <trkpt lat="42.78618" lon="0.69185">
        <ele>724.8</ele>
        <time>2018-11-25T00:36:37Z</time>
      </trkpt>
      <trkpt lat="42.78616" lon="0.69187">
        <ele>724.4</ele>
        <time>2018-11-25T00:36:38Z</time>
      </trkpt>
      <trkpt lat="42.78615" lon="0.69189">
        <ele>724</ele>
        <time>2018-11-25T00:36:39Z</time>
      </trkpt>
      <trkpt lat="42.78614" lon="0.69192">
        <ele>723.7</ele>
        <time>2018-11-25T00:36:40Z</time>
      </trkpt>
      <trkpt lat="42.78613" lon="0.69194">
        <ele>723.3</ele>
        <time>2018-11-25T00:36:41Z</time>
      </trkpt>
      <trkpt lat="42.78612" lon="0.69198">
        <ele>722.7</ele>
        <time>2018-11-25T00:36:42Z</time>
      </trkpt>
      <trkpt lat="42.78605" lon="0.69207">
        <ele>721.2</ele>
        <time>2018-11-25T00:36:45Z</time>
      </trkpt>
      <trkpt lat="42.78595" lon="0.69213">
        <ele>720.6</ele>
        <time>2018-11-25T00:36:50Z</time>
      </trkpt>
      <trkpt lat="42.78586" lon="0.6921">
        <ele>720.9</ele>
        <time>2018-11-25T00:36:54Z</time>
      </trkpt>
      <trkpt lat="42.78577" lon="0.69205">
        <ele>721.1</ele>
        <time>2018-11-25T00:36:58Z</time>
      </trkpt>
      <trkpt lat="42.78568" lon="0.69206">
        <ele>720</ele>
        <time>2018-11-25T00:37:01Z</time>
      </trkpt>
      <trkpt lat="42.78565" lon="0.69208">
        <ele>720</ele>
        <time>2018-11-25T00:37:02Z</time>
      </trkpt>
      <trkpt lat="42.78563" lon="0.69209">
        <ele>720</ele>
        <time>2018-11-25T00:37:03Z</time>
      </trkpt>
      <trkpt lat="42.7856" lon="0.6921">
        <ele>720</ele>
        <time>2018-11-25T00:37:05Z</time>
      </trkpt>
      <trkpt lat="42.78558" lon="0.69212">
        <ele>720.1</ele>
        <time>2018-11-25T00:37:05Z</time>
      </trkpt>
      <trkpt lat="42.78556" lon="0.69215">
        <ele>720.1</ele>
        <time>2018-11-25T00:37:07Z</time>
      </trkpt>
      <trkpt lat="42.78554" lon="0.69217">
        <ele>720.1</ele>
        <time>2018-11-25T00:37:08Z</time>
      </trkpt>
      <trkpt lat="42.78552" lon="0.6922">
        <ele>720</ele>
        <time>2018-11-25T00:37:09Z</time>
      </trkpt>
      <trkpt lat="42.7855" lon="0.69222">
        <ele>720.1</ele>
        <time>2018-11-25T00:37:10Z</time>
      </trkpt>
      <trkpt lat="42.78549" lon="0.69225">
        <ele>720.1</ele>
        <time>2018-11-25T00:37:11Z</time>
      </trkpt>
      <trkpt lat="42.78547" lon="0.69227">
        <ele>720.1</ele>
        <time>2018-11-25T00:37:12Z</time>
      </trkpt>
      <trkpt lat="42.78546" lon="0.6923">
        <ele>720.1</ele>
        <time>2018-11-25T00:37:13Z</time>
      </trkpt>
      <trkpt lat="42.78547" lon="0.69227">
        <ele>720</ele>
        <time>2018-11-25T00:37:14Z</time>
      </trkpt>
      <trkpt lat="42.78548" lon="0.69225">
        <ele>720</ele>
        <time>2018-11-25T00:37:14Z</time>
      </trkpt>
      <trkpt lat="42.7855" lon="0.69226">
        <ele>720</ele>
        <time>2018-11-25T00:37:15Z</time>
      </trkpt>
      <trkpt lat="42.78551" lon="0.69224">
        <ele>720</ele>
        <time>2018-11-25T00:37:16Z</time>
      </trkpt>
      <trkpt lat="42.78549" lon="0.69224">
        <ele>720.1</ele>
        <time>2018-11-25T00:37:17Z</time>
      </trkpt>
      <trkpt lat="42.78546" lon="0.69226">
        <ele>720.1</ele>
        <time>2018-11-25T00:37:18Z</time>
      </trkpt>
      <trkpt lat="42.78545" lon="0.69228">
        <ele>720.1</ele>
        <time>2018-11-25T00:37:19Z</time>
      </trkpt>
      <trkpt lat="42.78547" lon="0.69227">
        <ele>720.1</ele>
        <time>2018-11-25T00:37:19Z</time>
      </trkpt>
      <trkpt lat="42.78547" lon="0.69229">
        <ele>720.1</ele>
        <time>2018-11-25T00:37:20Z</time>
      </trkpt>
      <trkpt lat="42.78551" lon="0.69235">
        <ele>720</ele>
        <time>2018-11-25T00:37:22Z</time>
      </trkpt>
      <trkpt lat="42.78554" lon="0.69237">
        <ele>720</ele>
        <time>2018-11-25T00:37:24Z</time>
      </trkpt>
      <trkpt lat="42.78556" lon="0.69238">
        <ele>720.1</ele>
        <time>2018-11-25T00:37:25Z</time>
      </trkpt>
      <trkpt lat="42.78565" lon="0.69243">
        <ele>720</ele>
        <time>2018-11-25T00:37:28Z</time>
      </trkpt>
      <trkpt lat="42.78573" lon="0.6925">
        <ele>720</ele>
        <time>2018-11-25T00:37:32Z</time>
      </trkpt>
      <trkpt lat="42.78583" lon="0.69257">
        <ele>720.1</ele>
        <time>2018-11-25T00:37:37Z</time>
      </trkpt>
      <trkpt lat="42.78592" lon="0.69259">
        <ele>720.1</ele>
        <time>2018-11-25T00:37:41Z</time>
      </trkpt>
      <trkpt lat="42.78602" lon="0.69261">
        <ele>720.1</ele>
        <time>2018-11-25T00:37:44Z</time>
      </trkpt>
      <trkpt lat="42.78611" lon="0.69262">
        <ele>720.1</ele>
        <time>2018-11-25T00:37:48Z</time>
      </trkpt>
      <trkpt lat="42.7862" lon="0.69267">
        <ele>720.1</ele>
        <time>2018-11-25T00:37:52Z</time>
      </trkpt>
      <trkpt lat="42.7863" lon="0.69274">
        <ele>720</ele>
        <time>2018-11-25T00:37:56Z</time>
      </trkpt>
      <trkpt lat="42.78639" lon="0.6928">
        <ele>720.1</ele>
        <time>2018-11-25T00:38:00Z</time>
      </trkpt>
      <trkpt lat="42.78648" lon="0.69285">
        <ele>720.1</ele>
        <time>2018-11-25T00:38:04Z</time>
      </trkpt>
      <trkpt lat="42.78655" lon="0.69294">
        <ele>716.9</ele>
        <time>2018-11-25T00:38:08Z</time>
      </trkpt>
      <trkpt lat="42.78665" lon="0.69302">
        <ele>716.8</ele>
        <time>2018-11-25T00:38:13Z</time>
      </trkpt>
      <trkpt lat="42.78675" lon="0.69311">
        <ele>716.4</ele>
        <time>2018-11-25T00:38:18Z</time>
      </trkpt>
      <trkpt lat="42.78684" lon="0.69319">
        <ele>716.2</ele>
        <time>2018-11-25T00:38:22Z</time>
      </trkpt>
      <trkpt lat="42.78693" lon="0.69328">
        <ele>715.9</ele>
        <time>2018-11-25T00:38:26Z</time>
      </trkpt>
      <trkpt lat="42.787" lon="0.69336">
        <ele>715.7</ele>
        <time>2018-11-25T00:38:30Z</time>
      </trkpt>
      <trkpt lat="42.78709" lon="0.69344">
        <ele>715.6</ele>
        <time>2018-11-25T00:38:34Z</time>
      </trkpt>
      <trkpt lat="42.78718" lon="0.69348">
        <ele>715.7</ele>
        <time>2018-11-25T00:38:38Z</time>
      </trkpt>
      <trkpt lat="42.78725" lon="0.69356">
        <ele>715.7</ele>
        <time>2018-11-25T00:38:42Z</time>
      </trkpt>
      <trkpt lat="42.78734" lon="0.69366">
        <ele>715.7</ele>
        <time>2018-11-25T00:38:46Z</time>
      </trkpt>
      <trkpt lat="42.78742" lon="0.6937">
        <ele>716.1</ele>
        <time>2018-11-25T00:38:50Z</time>
      </trkpt>
      <trkpt lat="42.78753" lon="0.69375">
        <ele>720.1</ele>
        <time>2018-11-25T00:38:55Z</time>
      </trkpt>
      <trkpt lat="42.78757" lon="0.69378">
        <ele>720</ele>
        <time>2018-11-25T00:38:56Z</time>
      </trkpt>
      <trkpt lat="42.7876" lon="0.69379">
        <ele>720</ele>
        <time>2018-11-25T00:38:57Z</time>
      </trkpt>
      <trkpt lat="42.78762" lon="0.6938">
        <ele>720</ele>
        <time>2018-11-25T00:38:58Z</time>
      </trkpt>
      <trkpt lat="42.78765" lon="0.69381">
        <ele>720</ele>
        <time>2018-11-25T00:38:59Z</time>
      </trkpt>
      <trkpt lat="42.78772" lon="0.69386">
        <ele>720.1</ele>
        <time>2018-11-25T00:39:03Z</time>
      </trkpt>
      <trkpt lat="42.78774" lon="0.69388">
        <ele>720.1</ele>
        <time>2018-11-25T00:39:04Z</time>
      </trkpt>
    </trkseg>
  </trk>
</gpx>